<?xml version='1.0' encoding='UTF-8'?><gpx version="1.1" creator="JPX - https://github.com/jenetics/jpx" xmlns="http://www.topografix.com/GPX/1/1"><trk><trkseg><trkpt lat="45.5078717" lon="10.4635933"><ele>183.0</ele><time>2026-03-29T06:55:48.291Z</time></trkpt><trkpt lat="45.5079648" lon="10.4635951"><ele>184.0</ele><time>2026-03-29T06:56:37.292Z</time></trkpt><trkpt lat="45.5080333" lon="10.4635853"><ele>185.0</ele><time>2026-03-29T06:57:12.292Z</time></trkpt><trkpt lat="45.5081116" lon="10.4635792"><ele>186.0</ele><time>2026-03-29T06:58:01.292Z</time></trkpt><trkpt lat="45.5082202" lon="10.4635534"><ele>187.0</ele><time>2026-03-29T06:58:24.292Z</time></trkpt><trkpt lat="45.5082875" lon="10.4635387"><ele>188.0</ele><time>2026-03-29T06:58:26.291Z</time></trkpt><trkpt lat="45.5083683" lon="10.4635622"><ele>188.0</ele><time>2026-03-29T06:58:29.292Z</time></trkpt><trkpt lat="45.5084143" lon="10.463642"><ele>188.0</ele><time>2026-03-29T06:58:32.291Z</time></trkpt><trkpt lat="45.5085255" lon="10.4636789"><ele>188.0</ele><time>2026-03-29T06:58:34.292Z</time></trkpt><trkpt lat="45.5086093" lon="10.4636614"><ele>188.0</ele><time>2026-03-29T06:58:35.292Z</time></trkpt><trkpt lat="45.5087007" lon="10.4636255"><ele>188.0</ele><time>2026-03-29T06:58:36.292Z</time></trkpt><trkpt lat="45.508797" lon="10.4635902"><ele>187.5</ele><time>2026-03-29T06:58:37.291Z</time></trkpt><trkpt lat="45.5089038" lon="10.4635507"><ele>187.0</ele><time>2026-03-29T06:58:38.291Z</time></trkpt><trkpt lat="45.5090159" lon="10.4635061"><ele>186.5</ele><time>2026-03-29T06:58:39.292Z</time></trkpt><trkpt lat="45.5091311" lon="10.4634624"><ele>186.0</ele><time>2026-03-29T06:58:40.291Z</time></trkpt><trkpt lat="45.5092521" lon="10.4634217"><ele>186.0</ele><time>2026-03-29T06:58:41.291Z</time></trkpt><trkpt lat="45.5093804" lon="10.463384"><ele>186.0</ele><time>2026-03-29T06:58:42.291Z</time></trkpt><trkpt lat="45.5095074" lon="10.4633499"><ele>186.0</ele><time>2026-03-29T06:58:43.291Z</time></trkpt><trkpt lat="45.5096356" lon="10.4633109"><ele>186.0</ele><time>2026-03-29T06:58:44.291Z</time></trkpt><trkpt lat="45.5097671" lon="10.4632638"><ele>186.5</ele><time>2026-03-29T06:58:45.292Z</time></trkpt><trkpt lat="45.5098875" lon="10.4632199"><ele>187.0</ele><time>2026-03-29T06:58:46.291Z</time></trkpt><trkpt lat="45.5100087" lon="10.4631724"><ele>187.5</ele><time>2026-03-29T06:58:47.291Z</time></trkpt><trkpt lat="45.510133" lon="10.4631157"><ele>188.0</ele><time>2026-03-29T06:58:48.291Z</time></trkpt><trkpt lat="45.510252" lon="10.4630657"><ele>188.0</ele><time>2026-03-29T06:58:49.292Z</time></trkpt><trkpt lat="45.5103764" lon="10.463017"><ele>188.0</ele><time>2026-03-29T06:58:50.291Z</time></trkpt><trkpt lat="45.5105108" lon="10.4629752"><ele>188.0</ele><time>2026-03-29T06:58:51.292Z</time></trkpt><trkpt lat="45.510651" lon="10.4629331"><ele>188.0</ele><time>2026-03-29T06:58:52.292Z</time></trkpt><trkpt lat="45.5108017" lon="10.4628868"><ele>188.0</ele><time>2026-03-29T06:58:53.292Z</time></trkpt><trkpt lat="45.5109531" lon="10.4628479"><ele>188.0</ele><time>2026-03-29T06:58:54.292Z</time></trkpt><trkpt lat="45.5111066" lon="10.4628015"><ele>188.0</ele><time>2026-03-29T06:58:55.291Z</time></trkpt><trkpt lat="45.5112547" lon="10.46274"><ele>188.33333333333331</ele><time>2026-03-29T06:58:56.291Z</time></trkpt><trkpt lat="45.5114045" lon="10.4626863"><ele>188.66666666666666</ele><time>2026-03-29T06:58:57.292Z</time></trkpt><trkpt lat="45.5115535" lon="10.4626375"><ele>189.0</ele><time>2026-03-29T06:58:58.291Z</time></trkpt><trkpt lat="45.5117038" lon="10.4625861"><ele>189.0</ele><time>2026-03-29T06:58:59.291Z</time></trkpt><trkpt lat="45.511855" lon="10.4625261"><ele>189.0</ele><time>2026-03-29T06:59:00.292Z</time></trkpt><trkpt lat="45.5120155" lon="10.4624751"><ele>189.0</ele><time>2026-03-29T06:59:01.291Z</time></trkpt><trkpt lat="45.5121689" lon="10.4624311"><ele>189.66666666666666</ele><time>2026-03-29T06:59:02.292Z</time></trkpt><trkpt lat="45.5123295" lon="10.4624091"><ele>190.33333333333331</ele><time>2026-03-29T06:59:03.291Z</time></trkpt><trkpt lat="45.5124839" lon="10.4623943"><ele>191.0</ele><time>2026-03-29T06:59:04.292Z</time></trkpt><trkpt lat="45.5126419" lon="10.4623911"><ele>191.0</ele><time>2026-03-29T06:59:05.291Z</time></trkpt><trkpt lat="45.5128005" lon="10.4623926"><ele>191.0</ele><time>2026-03-29T06:59:06.291Z</time></trkpt><trkpt lat="45.5129561" lon="10.4623864"><ele>191.0</ele><time>2026-03-29T06:59:07.291Z</time></trkpt><trkpt lat="45.5131082" lon="10.4623813"><ele>191.5</ele><time>2026-03-29T06:59:08.292Z</time></trkpt><trkpt lat="45.513264" lon="10.4623706"><ele>192.0</ele><time>2026-03-29T06:59:09.292Z</time></trkpt><trkpt lat="45.5134176" lon="10.4623655"><ele>192.5</ele><time>2026-03-29T06:59:10.291Z</time></trkpt><trkpt lat="45.5135518" lon="10.4623592"><ele>193.0</ele><time>2026-03-29T06:59:11.291Z</time></trkpt><trkpt lat="45.5136766" lon="10.4623518"><ele>193.2</ele><time>2026-03-29T06:59:12.291Z</time></trkpt><trkpt lat="45.5137943" lon="10.4623418"><ele>193.4</ele><time>2026-03-29T06:59:13.292Z</time></trkpt><trkpt lat="45.5139054" lon="10.4623315"><ele>193.6</ele><time>2026-03-29T06:59:14.292Z</time></trkpt><trkpt lat="45.514" lon="10.462315"><ele>193.79999999999998</ele><time>2026-03-29T06:59:15.291Z</time></trkpt><trkpt lat="45.5140879" lon="10.4623082"><ele>194.0</ele><time>2026-03-29T06:59:16.292Z</time></trkpt><trkpt lat="45.5141795" lon="10.462296"><ele>194.00000000000003</ele><time>2026-03-29T06:59:17.291Z</time></trkpt><trkpt lat="45.5142609" lon="10.4622914"><ele>194.0</ele><time>2026-03-29T06:59:18.292Z</time></trkpt><trkpt lat="45.5143601" lon="10.4623049"><ele>194.0</ele><time>2026-03-29T06:59:20.291Z</time></trkpt><trkpt lat="45.5143979" lon="10.4623884"><ele>194.0</ele><time>2026-03-29T06:59:22.291Z</time></trkpt><trkpt lat="45.5143892" lon="10.4625371"><ele>194.00000000000003</ele><time>2026-03-29T06:59:24.292Z</time></trkpt><trkpt lat="45.5143749" lon="10.4626328"><ele>194.0</ele><time>2026-03-29T06:59:25.292Z</time></trkpt><trkpt lat="45.5143673" lon="10.4627348"><ele>194.00000000000003</ele><time>2026-03-29T06:59:26.291Z</time></trkpt><trkpt lat="45.5143551" lon="10.462834"><ele>194.0</ele><time>2026-03-29T06:59:27.291Z</time></trkpt><trkpt lat="45.5143456" lon="10.4630042"><ele>194.0</ele><time>2026-03-29T06:59:29.291Z</time></trkpt><trkpt lat="45.5143416" lon="10.4631018"><ele>194.0</ele><time>2026-03-29T06:59:30.292Z</time></trkpt><trkpt lat="45.514336" lon="10.4632037"><ele>194.00000000000003</ele><time>2026-03-29T06:59:31.291Z</time></trkpt><trkpt lat="45.5143316" lon="10.4633115"><ele>194.0</ele><time>2026-03-29T06:59:32.291Z</time></trkpt><trkpt lat="45.5143282" lon="10.4634259"><ele>194.00000000000003</ele><time>2026-03-29T06:59:33.291Z</time></trkpt><trkpt lat="45.5143276" lon="10.4635419"><ele>194.0</ele><time>2026-03-29T06:59:34.292Z</time></trkpt><trkpt lat="45.5143205" lon="10.4636572"><ele>194.0</ele><time>2026-03-29T06:59:35.291Z</time></trkpt><trkpt lat="45.5143109" lon="10.4637744"><ele>194.0</ele><time>2026-03-29T06:59:36.292Z</time></trkpt><trkpt lat="45.5143041" lon="10.4638795"><ele>194.00000000000003</ele><time>2026-03-29T06:59:37.292Z</time></trkpt><trkpt lat="45.5143003" lon="10.4639721"><ele>194.0</ele><time>2026-03-29T06:59:38.292Z</time></trkpt><trkpt lat="45.5142969" lon="10.4640661"><ele>193.83333333333334</ele><time>2026-03-29T06:59:39.292Z</time></trkpt><trkpt lat="45.5142923" lon="10.4641655"><ele>193.66666666666669</ele><time>2026-03-29T06:59:40.292Z</time></trkpt><trkpt lat="45.5142842" lon="10.4642639"><ele>193.5</ele><time>2026-03-29T06:59:41.292Z</time></trkpt><trkpt lat="45.5142801" lon="10.4643632"><ele>193.33333333333331</ele><time>2026-03-29T06:59:42.291Z</time></trkpt><trkpt lat="45.5142778" lon="10.4644707"><ele>193.16666666666666</ele><time>2026-03-29T06:59:43.292Z</time></trkpt><trkpt lat="45.5142708" lon="10.4645919"><ele>193.0</ele><time>2026-03-29T06:59:44.292Z</time></trkpt><trkpt lat="45.5142654" lon="10.4647313"><ele>193.0</ele><time>2026-03-29T06:59:45.292Z</time></trkpt><trkpt lat="45.51426" lon="10.4648838"><ele>193.0</ele><time>2026-03-29T06:59:46.292Z</time></trkpt><trkpt lat="45.5142569" lon="10.4650322"><ele>193.0</ele><time>2026-03-29T06:59:47.291Z</time></trkpt><trkpt lat="45.5142522" lon="10.4651912"><ele>193.0</ele><time>2026-03-29T06:59:48.291Z</time></trkpt><trkpt lat="45.5142438" lon="10.4653645"><ele>193.0</ele><time>2026-03-29T06:59:49.292Z</time></trkpt><trkpt lat="45.5142357" lon="10.46554"><ele>193.5</ele><time>2026-03-29T06:59:50.292Z</time></trkpt><trkpt lat="45.5142285" lon="10.4657159"><ele>194.0</ele><time>2026-03-29T06:59:51.292Z</time></trkpt><trkpt lat="45.5142263" lon="10.4659021"><ele>194.5</ele><time>2026-03-29T06:59:52.291Z</time></trkpt><trkpt lat="45.5142175" lon="10.4660719"><ele>195.0</ele><time>2026-03-29T06:59:53.292Z</time></trkpt><trkpt lat="45.5142158" lon="10.4662487"><ele>195.25</ele><time>2026-03-29T06:59:54.292Z</time></trkpt><trkpt lat="45.5142144" lon="10.4664229"><ele>195.5</ele><time>2026-03-29T06:59:55.292Z</time></trkpt><trkpt lat="45.514217" lon="10.4666063"><ele>195.75</ele><time>2026-03-29T06:59:56.292Z</time></trkpt><trkpt lat="45.5142143" lon="10.4667882"><ele>196.0</ele><time>2026-03-29T06:59:57.291Z</time></trkpt><trkpt lat="45.51421" lon="10.4669655"><ele>196.75</ele><time>2026-03-29T06:59:58.291Z</time></trkpt><trkpt lat="45.514202" lon="10.4671391"><ele>197.5</ele><time>2026-03-29T06:59:59.291Z</time></trkpt><trkpt lat="45.5141912" lon="10.4673136"><ele>198.25</ele><time>2026-03-29T07:00:00.292Z</time></trkpt><trkpt lat="45.5141793" lon="10.4674815"><ele>199.0</ele><time>2026-03-29T07:00:01.291Z</time></trkpt><trkpt lat="45.5141732" lon="10.4676559"><ele>199.0</ele><time>2026-03-29T07:00:02.291Z</time></trkpt><trkpt lat="45.5141698" lon="10.4678212"><ele>199.0</ele><time>2026-03-29T07:00:03.291Z</time></trkpt><trkpt lat="45.5141637" lon="10.4679932"><ele>199.0</ele><time>2026-03-29T07:00:04.292Z</time></trkpt><trkpt lat="45.5141599" lon="10.4681706"><ele>199.0</ele><time>2026-03-29T07:00:05.292Z</time></trkpt><trkpt lat="45.5141495" lon="10.4683488"><ele>199.2</ele><time>2026-03-29T07:00:06.292Z</time></trkpt><trkpt lat="45.5141391" lon="10.4685224"><ele>199.39999999999998</ele><time>2026-03-29T07:00:07.291Z</time></trkpt><trkpt lat="45.5141235" lon="10.4686837"><ele>199.6</ele><time>2026-03-29T07:00:08.292Z</time></trkpt><trkpt lat="45.5141115" lon="10.4688203"><ele>199.8</ele><time>2026-03-29T07:00:09.291Z</time></trkpt><trkpt lat="45.5141051" lon="10.468937"><ele>200.0</ele><time>2026-03-29T07:00:10.292Z</time></trkpt><trkpt lat="45.5140971" lon="10.4690402"><ele>200.00000000000003</ele><time>2026-03-29T07:00:11.292Z</time></trkpt><trkpt lat="45.5140929" lon="10.4691301"><ele>200.0</ele><time>2026-03-29T07:00:12.291Z</time></trkpt><trkpt lat="45.5141125" lon="10.4692449"><ele>200.0</ele><time>2026-03-29T07:00:14.292Z</time></trkpt><trkpt lat="45.5142025" lon="10.4692982"><ele>200.0</ele><time>2026-03-29T07:00:16.292Z</time></trkpt><trkpt lat="45.5142909" lon="10.469295"><ele>200.00000000000003</ele><time>2026-03-29T07:00:17.292Z</time></trkpt><trkpt lat="45.5143966" lon="10.4692886"><ele>200.0</ele><time>2026-03-29T07:00:18.291Z</time></trkpt><trkpt lat="45.5145174" lon="10.4692828"><ele>200.0</ele><time>2026-03-29T07:00:19.292Z</time></trkpt><trkpt lat="45.5146379" lon="10.4692739"><ele>200.0</ele><time>2026-03-29T07:00:20.292Z</time></trkpt><trkpt lat="45.5147505" lon="10.4692704"><ele>200.0</ele><time>2026-03-29T07:00:21.291Z</time></trkpt><trkpt lat="45.5148649" lon="10.4692715"><ele>200.0</ele><time>2026-03-29T07:00:22.291Z</time></trkpt><trkpt lat="45.5149912" lon="10.46928"><ele>200.0</ele><time>2026-03-29T07:00:23.291Z</time></trkpt><trkpt lat="45.5151232" lon="10.4692884"><ele>200.0</ele><time>2026-03-29T07:00:24.292Z</time></trkpt><trkpt lat="45.5152511" lon="10.4692954"><ele>200.0</ele><time>2026-03-29T07:00:25.292Z</time></trkpt><trkpt lat="45.5153831" lon="10.4693094"><ele>200.0</ele><time>2026-03-29T07:00:26.291Z</time></trkpt><trkpt lat="45.51551" lon="10.4693219"><ele>200.4</ele><time>2026-03-29T07:00:27.292Z</time></trkpt><trkpt lat="45.5156241" lon="10.4693311"><ele>200.8</ele><time>2026-03-29T07:00:28.292Z</time></trkpt><trkpt lat="45.5157357" lon="10.4693422"><ele>201.2</ele><time>2026-03-29T07:00:29.292Z</time></trkpt><trkpt lat="45.515827" lon="10.4693608"><ele>201.6</ele><time>2026-03-29T07:00:30.292Z</time></trkpt><trkpt lat="45.5159191" lon="10.469375"><ele>202.0</ele><time>2026-03-29T07:00:31.292Z</time></trkpt><trkpt lat="45.5160101" lon="10.4693912"><ele>202.0</ele><time>2026-03-29T07:00:32.292Z</time></trkpt><trkpt lat="45.516098" lon="10.4694003"><ele>202.0</ele><time>2026-03-29T07:00:33.291Z</time></trkpt><trkpt lat="45.5161897" lon="10.4694134"><ele>202.0</ele><time>2026-03-29T07:00:34.292Z</time></trkpt><trkpt lat="45.5162835" lon="10.4694268"><ele>202.0</ele><time>2026-03-29T07:00:35.292Z</time></trkpt><trkpt lat="45.5163777" lon="10.4694338"><ele>202.0</ele><time>2026-03-29T07:00:36.291Z</time></trkpt><trkpt lat="45.5164686" lon="10.4694333"><ele>202.6</ele><time>2026-03-29T07:00:37.291Z</time></trkpt><trkpt lat="45.5165651" lon="10.4694323"><ele>203.2</ele><time>2026-03-29T07:00:38.292Z</time></trkpt><trkpt lat="45.5166579" lon="10.4694323"><ele>203.8</ele><time>2026-03-29T07:00:39.292Z</time></trkpt><trkpt lat="45.5167508" lon="10.4694288"><ele>204.4</ele><time>2026-03-29T07:00:40.292Z</time></trkpt><trkpt lat="45.5168424" lon="10.4694352"><ele>205.0</ele><time>2026-03-29T07:00:41.291Z</time></trkpt><trkpt lat="45.516934" lon="10.4694344"><ele>204.99999999999997</ele><time>2026-03-29T07:00:42.291Z</time></trkpt><trkpt lat="45.51701" lon="10.4694323"><ele>205.0</ele><time>2026-03-29T07:00:43.292Z</time></trkpt><trkpt lat="45.5170807" lon="10.469429"><ele>205.0</ele><time>2026-03-29T07:00:44.291Z</time></trkpt><trkpt lat="45.5171443" lon="10.4694268"><ele>205.0</ele><time>2026-03-29T07:00:45.291Z</time></trkpt><trkpt lat="45.5172516" lon="10.4694224"><ele>204.99999999999997</ele><time>2026-03-29T07:00:47.291Z</time></trkpt><trkpt lat="45.5173325" lon="10.4694318"><ele>205.0</ele><time>2026-03-29T07:00:49.292Z</time></trkpt><trkpt lat="45.5173711" lon="10.4695037"><ele>205.4</ele><time>2026-03-29T07:00:51.292Z</time></trkpt><trkpt lat="45.5173313" lon="10.4696503"><ele>205.8</ele><time>2026-03-29T07:00:53.291Z</time></trkpt><trkpt lat="45.5172848" lon="10.4697572"><ele>206.2</ele><time>2026-03-29T07:00:54.291Z</time></trkpt><trkpt lat="45.5172393" lon="10.4698865"><ele>206.6</ele><time>2026-03-29T07:00:55.292Z</time></trkpt><trkpt lat="45.5171966" lon="10.4700223"><ele>207.0</ele><time>2026-03-29T07:00:56.292Z</time></trkpt><trkpt lat="45.5171582" lon="10.4701566"><ele>207.0</ele><time>2026-03-29T07:00:57.292Z</time></trkpt><trkpt lat="45.5171242" lon="10.470295"><ele>207.0</ele><time>2026-03-29T07:00:58.291Z</time></trkpt><trkpt lat="45.5170985" lon="10.4704259"><ele>207.0</ele><time>2026-03-29T07:00:59.292Z</time></trkpt><trkpt lat="45.5170727" lon="10.470555"><ele>207.0</ele><time>2026-03-29T07:01:00.292Z</time></trkpt><trkpt lat="45.5170417" lon="10.4706705"><ele>207.0</ele><time>2026-03-29T07:01:01.291Z</time></trkpt><trkpt lat="45.5169995" lon="10.4707862"><ele>207.2</ele><time>2026-03-29T07:01:02.291Z</time></trkpt><trkpt lat="45.5169386" lon="10.4709053"><ele>207.39999999999998</ele><time>2026-03-29T07:01:03.292Z</time></trkpt><trkpt lat="45.5168697" lon="10.4710235"><ele>207.60000000000002</ele><time>2026-03-29T07:01:04.291Z</time></trkpt><trkpt lat="45.5167867" lon="10.4711317"><ele>207.8</ele><time>2026-03-29T07:01:05.292Z</time></trkpt><trkpt lat="45.5167052" lon="10.4712421"><ele>208.0</ele><time>2026-03-29T07:01:06.292Z</time></trkpt><trkpt lat="45.5166367" lon="10.4713604"><ele>208.60000000000002</ele><time>2026-03-29T07:01:07.291Z</time></trkpt><trkpt lat="45.516574" lon="10.4714798"><ele>209.20000000000002</ele><time>2026-03-29T07:01:08.291Z</time></trkpt><trkpt lat="45.5165197" lon="10.471597"><ele>209.8</ele><time>2026-03-29T07:01:09.292Z</time></trkpt><trkpt lat="45.5164702" lon="10.4717102"><ele>210.4</ele><time>2026-03-29T07:01:10.292Z</time></trkpt><trkpt lat="45.5164236" lon="10.4718331"><ele>211.0</ele><time>2026-03-29T07:01:11.291Z</time></trkpt><trkpt lat="45.5163892" lon="10.4719733"><ele>211.8</ele><time>2026-03-29T07:01:12.292Z</time></trkpt><trkpt lat="45.5163692" lon="10.4721309"><ele>212.60000000000002</ele><time>2026-03-29T07:01:13.292Z</time></trkpt><trkpt lat="45.5163524" lon="10.4722914"><ele>213.4</ele><time>2026-03-29T07:01:14.292Z</time></trkpt><trkpt lat="45.516338" lon="10.4724383"><ele>214.2</ele><time>2026-03-29T07:01:15.292Z</time></trkpt><trkpt lat="45.5163211" lon="10.4725584"><ele>215.0</ele><time>2026-03-29T07:01:16.292Z</time></trkpt><trkpt lat="45.5163041" lon="10.4726544"><ele>215.0</ele><time>2026-03-29T07:01:17.291Z</time></trkpt><trkpt lat="45.5162611" lon="10.4727922"><ele>215.0</ele><time>2026-03-29T07:01:19.291Z</time></trkpt><trkpt lat="45.5162204" lon="10.4728924"><ele>215.0</ele><time>2026-03-29T07:01:21.291Z</time></trkpt><trkpt lat="45.5162256" lon="10.47299"><ele>215.0</ele><time>2026-03-29T07:01:23.292Z</time></trkpt><trkpt lat="45.5162973" lon="10.4731357"><ele>215.0</ele><time>2026-03-29T07:01:25.291Z</time></trkpt><trkpt lat="45.5163616" lon="10.4732158"><ele>216.25</ele><time>2026-03-29T07:01:26.292Z</time></trkpt><trkpt lat="45.5164454" lon="10.4732845"><ele>217.5</ele><time>2026-03-29T07:01:27.291Z</time></trkpt><trkpt lat="45.5165502" lon="10.4733334"><ele>218.75</ele><time>2026-03-29T07:01:28.291Z</time></trkpt><trkpt lat="45.5166784" lon="10.4733525"><ele>220.0</ele><time>2026-03-29T07:01:29.291Z</time></trkpt><trkpt lat="45.5168225" lon="10.473364"><ele>220.0</ele><time>2026-03-29T07:01:30.292Z</time></trkpt><trkpt lat="45.516976" lon="10.4733634"><ele>220.0</ele><time>2026-03-29T07:01:31.292Z</time></trkpt><trkpt lat="45.5171396" lon="10.4733508"><ele>220.0</ele><time>2026-03-29T07:01:32.292Z</time></trkpt><trkpt lat="45.5173023" lon="10.4733342"><ele>220.0</ele><time>2026-03-29T07:01:33.292Z</time></trkpt><trkpt lat="45.5174657" lon="10.4733126"><ele>220.0</ele><time>2026-03-29T07:01:34.292Z</time></trkpt><trkpt lat="45.5176274" lon="10.4732801"><ele>220.0</ele><time>2026-03-29T07:01:35.291Z</time></trkpt><trkpt lat="45.5177883" lon="10.4732329"><ele>222.33333333333331</ele><time>2026-03-29T07:01:36.291Z</time></trkpt><trkpt lat="45.5179556" lon="10.4731647"><ele>224.66666666666669</ele><time>2026-03-29T07:01:37.292Z</time></trkpt><trkpt lat="45.5181209" lon="10.4730785"><ele>227.0</ele><time>2026-03-29T07:01:38.292Z</time></trkpt><trkpt lat="45.5182773" lon="10.4729648"><ele>224.66666666666669</ele><time>2026-03-29T07:01:39.291Z</time></trkpt><trkpt lat="45.5184287" lon="10.4728251"><ele>222.33333333333331</ele><time>2026-03-29T07:01:40.292Z</time></trkpt><trkpt lat="45.5185858" lon="10.4726886"><ele>220.0</ele><time>2026-03-29T07:01:41.291Z</time></trkpt><trkpt lat="45.5187411" lon="10.4725524"><ele>220.0</ele><time>2026-03-29T07:01:42.291Z</time></trkpt><trkpt lat="45.518898" lon="10.4724189"><ele>220.0</ele><time>2026-03-29T07:01:43.291Z</time></trkpt><trkpt lat="45.5190478" lon="10.4722884"><ele>220.0</ele><time>2026-03-29T07:01:44.292Z</time></trkpt><trkpt lat="45.5191975" lon="10.4721655"><ele>219.66666666666666</ele><time>2026-03-29T07:01:45.291Z</time></trkpt><trkpt lat="45.5193443" lon="10.4720528"><ele>219.33333333333331</ele><time>2026-03-29T07:01:46.292Z</time></trkpt><trkpt lat="45.5194793" lon="10.4719321"><ele>219.0</ele><time>2026-03-29T07:01:47.291Z</time></trkpt><trkpt lat="45.5196266" lon="10.4718026"><ele>219.0</ele><time>2026-03-29T07:01:48.292Z</time></trkpt><trkpt lat="45.5197684" lon="10.4716726"><ele>219.0</ele><time>2026-03-29T07:01:49.291Z</time></trkpt><trkpt lat="45.5199028" lon="10.4715478"><ele>219.0</ele><time>2026-03-29T07:01:50.292Z</time></trkpt><trkpt lat="45.5200279" lon="10.4714366"><ele>219.0</ele><time>2026-03-29T07:01:51.292Z</time></trkpt><trkpt lat="45.520158" lon="10.4713602"><ele>219.0</ele><time>2026-03-29T07:01:52.292Z</time></trkpt><trkpt lat="45.5202711" lon="10.4713137"><ele>219.0</ele><time>2026-03-29T07:01:53.292Z</time></trkpt><trkpt lat="45.5203713" lon="10.471284"><ele>219.0</ele><time>2026-03-29T07:01:54.292Z</time></trkpt><trkpt lat="45.5204597" lon="10.4712563"><ele>219.2</ele><time>2026-03-29T07:01:55.292Z</time></trkpt><trkpt lat="45.5205449" lon="10.471239"><ele>219.39999999999998</ele><time>2026-03-29T07:01:56.291Z</time></trkpt><trkpt lat="45.5206526" lon="10.4712383"><ele>219.6</ele><time>2026-03-29T07:01:58.291Z</time></trkpt><trkpt lat="45.5207012" lon="10.4713166"><ele>219.8</ele><time>2026-03-29T07:02:00.292Z</time></trkpt><trkpt lat="45.520691" lon="10.4715232"><ele>220.0</ele><time>2026-03-29T07:02:02.292Z</time></trkpt><trkpt lat="45.5206748" lon="10.4716876"><ele>220.0</ele><time>2026-03-29T07:02:03.292Z</time></trkpt><trkpt lat="45.5206652" lon="10.4718617"><ele>220.0</ele><time>2026-03-29T07:02:04.292Z</time></trkpt><trkpt lat="45.5206584" lon="10.4720476"><ele>220.0</ele><time>2026-03-29T07:02:05.292Z</time></trkpt><trkpt lat="45.5206567" lon="10.4722453"><ele>220.0</ele><time>2026-03-29T07:02:06.292Z</time></trkpt><trkpt lat="45.5206568" lon="10.4724576"><ele>222.0</ele><time>2026-03-29T07:02:07.291Z</time></trkpt><trkpt lat="45.5206369" lon="10.4726625"><ele>224.0</ele><time>2026-03-29T07:02:08.291Z</time></trkpt><trkpt lat="45.5205887" lon="10.4728763"><ele>226.0</ele><time>2026-03-29T07:02:09.291Z</time></trkpt><trkpt lat="45.5205393" lon="10.4730889"><ele>229.33333333333331</ele><time>2026-03-29T07:02:10.292Z</time></trkpt><trkpt lat="45.520479" lon="10.473299"><ele>232.66666666666669</ele><time>2026-03-29T07:02:11.291Z</time></trkpt><trkpt lat="45.5204086" lon="10.4735278"><ele>236.0</ele><time>2026-03-29T07:02:12.291Z</time></trkpt><trkpt lat="45.5203381" lon="10.4737534"><ele>237.33333333333334</ele><time>2026-03-29T07:02:13.292Z</time></trkpt><trkpt lat="45.5202822" lon="10.4739885"><ele>238.66666666666669</ele><time>2026-03-29T07:02:14.292Z</time></trkpt><trkpt lat="45.5202273" lon="10.4742335"><ele>240.0</ele><time>2026-03-29T07:02:15.292Z</time></trkpt><trkpt lat="45.5201802" lon="10.4744666"><ele>239.66666666666669</ele><time>2026-03-29T07:02:16.292Z</time></trkpt><trkpt lat="45.5201385" lon="10.4747029"><ele>239.33333333333334</ele><time>2026-03-29T07:02:17.292Z</time></trkpt><trkpt lat="45.520095" lon="10.4749413"><ele>239.0</ele><time>2026-03-29T07:02:18.291Z</time></trkpt><trkpt lat="45.5200532" lon="10.4751679"><ele>239.0</ele><time>2026-03-29T07:02:19.292Z</time></trkpt><trkpt lat="45.5200118" lon="10.4753888"><ele>239.0</ele><time>2026-03-29T07:02:20.291Z</time></trkpt><trkpt lat="45.5199667" lon="10.4756229"><ele>239.0</ele><time>2026-03-29T07:02:21.292Z</time></trkpt><trkpt lat="45.5199362" lon="10.4758331"><ele>239.0</ele><time>2026-03-29T07:02:22.291Z</time></trkpt><trkpt lat="45.5199088" lon="10.476044"><ele>239.0</ele><time>2026-03-29T07:02:23.292Z</time></trkpt><trkpt lat="45.5198736" lon="10.4762661"><ele>239.0</ele><time>2026-03-29T07:02:24.292Z</time></trkpt><trkpt lat="45.5198371" lon="10.4764858"><ele>238.66666666666669</ele><time>2026-03-29T07:02:25.29Z</time></trkpt><trkpt lat="45.5197978" lon="10.4767164"><ele>238.33333333333331</ele><time>2026-03-29T07:02:26.291Z</time></trkpt><trkpt lat="45.5197655" lon="10.4769474"><ele>238.0</ele><time>2026-03-29T07:02:27.291Z</time></trkpt><trkpt lat="45.5197332" lon="10.4771821"><ele>240.33333333333331</ele><time>2026-03-29T07:02:28.291Z</time></trkpt><trkpt lat="45.5197055" lon="10.4774126"><ele>242.66666666666669</ele><time>2026-03-29T07:02:29.291Z</time></trkpt><trkpt lat="45.5196845" lon="10.4776341"><ele>245.0</ele><time>2026-03-29T07:02:30.291Z</time></trkpt><trkpt lat="45.5196632" lon="10.4778666"><ele>246.66666666666669</ele><time>2026-03-29T07:02:31.29Z</time></trkpt><trkpt lat="45.5196639" lon="10.4780906"><ele>248.33333333333331</ele><time>2026-03-29T07:02:32.291Z</time></trkpt><trkpt lat="45.5196757" lon="10.4783139"><ele>250.0</ele><time>2026-03-29T07:02:33.29Z</time></trkpt><trkpt lat="45.5197055" lon="10.4785282"><ele>250.0</ele><time>2026-03-29T07:02:34.291Z</time></trkpt><trkpt lat="45.5197362" lon="10.4787213"><ele>250.0</ele><time>2026-03-29T07:02:35.291Z</time></trkpt><trkpt lat="45.5197553" lon="10.4789082"><ele>250.0</ele><time>2026-03-29T07:02:36.291Z</time></trkpt><trkpt lat="45.5197636" lon="10.4790711"><ele>250.0</ele><time>2026-03-29T07:02:37.291Z</time></trkpt><trkpt lat="45.5197537" lon="10.4792165"><ele>250.25</ele><time>2026-03-29T07:02:38.291Z</time></trkpt><trkpt lat="45.5197081" lon="10.4793467"><ele>250.5</ele><time>2026-03-29T07:02:39.291Z</time></trkpt><trkpt lat="45.5196348" lon="10.4794833"><ele>250.75</ele><time>2026-03-29T07:02:40.29Z</time></trkpt><trkpt lat="45.5195389" lon="10.4796237"><ele>251.0</ele><time>2026-03-29T07:02:41.29Z</time></trkpt><trkpt lat="45.519445" lon="10.4797693"><ele>251.0</ele><time>2026-03-29T07:02:42.291Z</time></trkpt><trkpt lat="45.5193636" lon="10.4799233"><ele>251.0</ele><time>2026-03-29T07:02:43.291Z</time></trkpt><trkpt lat="45.5192917" lon="10.480071"><ele>251.0</ele><time>2026-03-29T07:02:44.29Z</time></trkpt><trkpt lat="45.5192356" lon="10.480219"><ele>251.0</ele><time>2026-03-29T07:02:45.29Z</time></trkpt><trkpt lat="45.5191917" lon="10.4803731"><ele>250.25</ele><time>2026-03-29T07:02:46.291Z</time></trkpt><trkpt lat="45.5191555" lon="10.4805348"><ele>249.5</ele><time>2026-03-29T07:02:47.291Z</time></trkpt><trkpt lat="45.5191399" lon="10.4807168"><ele>248.75</ele><time>2026-03-29T07:02:48.291Z</time></trkpt><trkpt lat="45.5191313" lon="10.4809019"><ele>248.0</ele><time>2026-03-29T07:02:49.291Z</time></trkpt><trkpt lat="45.5191226" lon="10.4810794"><ele>248.0</ele><time>2026-03-29T07:02:50.291Z</time></trkpt><trkpt lat="45.5191203" lon="10.4812527"><ele>248.0</ele><time>2026-03-29T07:02:51.29Z</time></trkpt><trkpt lat="45.5191299" lon="10.4814217"><ele>248.0</ele><time>2026-03-29T07:02:52.29Z</time></trkpt><trkpt lat="45.5191618" lon="10.4815998"><ele>248.0</ele><time>2026-03-29T07:02:53.29Z</time></trkpt><trkpt lat="45.5192172" lon="10.4817802"><ele>245.66666666666669</ele><time>2026-03-29T07:02:54.291Z</time></trkpt><trkpt lat="45.5192957" lon="10.4819595"><ele>243.33333333333331</ele><time>2026-03-29T07:02:55.291Z</time></trkpt><trkpt lat="45.5193836" lon="10.4821407"><ele>241.0</ele><time>2026-03-29T07:02:56.29Z</time></trkpt><trkpt lat="45.5194797" lon="10.4823218"><ele>240.75</ele><time>2026-03-29T07:02:57.29Z</time></trkpt><trkpt lat="45.519574" lon="10.4825004"><ele>240.5</ele><time>2026-03-29T07:02:58.291Z</time></trkpt><trkpt lat="45.5196666" lon="10.4826691"><ele>240.25</ele><time>2026-03-29T07:02:59.291Z</time></trkpt><trkpt lat="45.5197557" lon="10.4828276"><ele>240.0</ele><time>2026-03-29T07:03:00.29Z</time></trkpt><trkpt lat="45.5198411" lon="10.4829784"><ele>240.0</ele><time>2026-03-29T07:03:01.29Z</time></trkpt><trkpt lat="45.5199294" lon="10.4831273"><ele>240.0</ele><time>2026-03-29T07:03:02.29Z</time></trkpt><trkpt lat="45.5200141" lon="10.4832761"><ele>240.0</ele><time>2026-03-29T07:03:03.291Z</time></trkpt><trkpt lat="45.5201012" lon="10.4834187"><ele>240.0</ele><time>2026-03-29T07:03:04.29Z</time></trkpt><trkpt lat="45.5201921" lon="10.4835619"><ele>240.0</ele><time>2026-03-29T07:03:05.29Z</time></trkpt><trkpt lat="45.5202973" lon="10.4837006"><ele>240.0</ele><time>2026-03-29T07:03:06.291Z</time></trkpt><trkpt lat="45.5204114" lon="10.4838338"><ele>240.0</ele><time>2026-03-29T07:03:07.29Z</time></trkpt><trkpt lat="45.5205308" lon="10.4839718"><ele>240.0</ele><time>2026-03-29T07:03:08.29Z</time></trkpt><trkpt lat="45.5206426" lon="10.4841112"><ele>240.5</ele><time>2026-03-29T07:03:09.291Z</time></trkpt><trkpt lat="45.5207533" lon="10.4842438"><ele>241.0</ele><time>2026-03-29T07:03:10.29Z</time></trkpt><trkpt lat="45.5208541" lon="10.4843879"><ele>241.5</ele><time>2026-03-29T07:03:11.291Z</time></trkpt><trkpt lat="45.5209605" lon="10.4845352"><ele>242.0</ele><time>2026-03-29T07:03:12.291Z</time></trkpt><trkpt lat="45.5210628" lon="10.4846707"><ele>242.0</ele><time>2026-03-29T07:03:13.291Z</time></trkpt><trkpt lat="45.5211644" lon="10.4848086"><ele>242.0</ele><time>2026-03-29T07:03:14.291Z</time></trkpt><trkpt lat="45.5212549" lon="10.4849309"><ele>242.0</ele><time>2026-03-29T07:03:15.29Z</time></trkpt><trkpt lat="45.5213346" lon="10.4850631"><ele>242.0</ele><time>2026-03-29T07:03:16.29Z</time></trkpt><trkpt lat="45.5214053" lon="10.4852139"><ele>242.0</ele><time>2026-03-29T07:03:17.291Z</time></trkpt><trkpt lat="45.5214614" lon="10.4853908"><ele>242.0</ele><time>2026-03-29T07:03:18.29Z</time></trkpt><trkpt lat="45.5214855" lon="10.485564"><ele>242.0</ele><time>2026-03-29T07:03:19.291Z</time></trkpt><trkpt lat="45.5214978" lon="10.4857404"><ele>242.0</ele><time>2026-03-29T07:03:20.291Z</time></trkpt><trkpt lat="45.5215003" lon="10.4859177"><ele>239.75</ele><time>2026-03-29T07:03:21.291Z</time></trkpt><trkpt lat="45.5215095" lon="10.4860925"><ele>237.5</ele><time>2026-03-29T07:03:22.29Z</time></trkpt><trkpt lat="45.5215162" lon="10.4862646"><ele>235.25</ele><time>2026-03-29T07:03:23.291Z</time></trkpt><trkpt lat="45.5215094" lon="10.4864494"><ele>233.0</ele><time>2026-03-29T07:03:24.29Z</time></trkpt><trkpt lat="45.5214825" lon="10.4866449"><ele>231.75</ele><time>2026-03-29T07:03:25.291Z</time></trkpt><trkpt lat="45.5214422" lon="10.4868411"><ele>230.5</ele><time>2026-03-29T07:03:26.29Z</time></trkpt><trkpt lat="45.5214007" lon="10.4870342"><ele>229.25</ele><time>2026-03-29T07:03:27.29Z</time></trkpt><trkpt lat="45.5213538" lon="10.4872414"><ele>228.0</ele><time>2026-03-29T07:03:28.291Z</time></trkpt><trkpt lat="45.5212974" lon="10.4874469"><ele>227.0</ele><time>2026-03-29T07:03:29.291Z</time></trkpt><trkpt lat="45.5212477" lon="10.4876469"><ele>226.0</ele><time>2026-03-29T07:03:30.291Z</time></trkpt><trkpt lat="45.5211942" lon="10.4878491"><ele>225.0</ele><time>2026-03-29T07:03:31.291Z</time></trkpt><trkpt lat="45.5211435" lon="10.4880403"><ele>224.0</ele><time>2026-03-29T07:03:32.29Z</time></trkpt><trkpt lat="45.5210916" lon="10.4882146"><ele>223.25</ele><time>2026-03-29T07:03:33.29Z</time></trkpt><trkpt lat="45.521048" lon="10.488379"><ele>222.5</ele><time>2026-03-29T07:03:34.291Z</time></trkpt><trkpt lat="45.5210004" lon="10.4885356"><ele>221.75</ele><time>2026-03-29T07:03:35.29Z</time></trkpt><trkpt lat="45.5209576" lon="10.4886819"><ele>221.0</ele><time>2026-03-29T07:03:36.29Z</time></trkpt><trkpt lat="45.5209177" lon="10.4888232"><ele>220.83333333333334</ele><time>2026-03-29T07:03:37.29Z</time></trkpt><trkpt lat="45.5208875" lon="10.4889443"><ele>220.66666666666669</ele><time>2026-03-29T07:03:38.291Z</time></trkpt><trkpt lat="45.5208678" lon="10.4890486"><ele>220.5</ele><time>2026-03-29T07:03:39.291Z</time></trkpt><trkpt lat="45.5208665" lon="10.4892054"><ele>220.33333333333331</ele><time>2026-03-29T07:03:41.291Z</time></trkpt><trkpt lat="45.5209452" lon="10.4892823"><ele>220.16666666666666</ele><time>2026-03-29T07:03:44.29Z</time></trkpt><trkpt lat="45.5210161" lon="10.4893264"><ele>220.0</ele><time>2026-03-29T07:03:46.29Z</time></trkpt><trkpt lat="45.5210949" lon="10.4894022"><ele>219.99999999999997</ele><time>2026-03-29T07:03:48.291Z</time></trkpt><trkpt lat="45.5212012" lon="10.4895224"><ele>220.0</ele><time>2026-03-29T07:03:50.291Z</time></trkpt><trkpt lat="45.5212682" lon="10.4895947"><ele>220.0</ele><time>2026-03-29T07:03:51.291Z</time></trkpt><trkpt lat="45.5213366" lon="10.4896661"><ele>220.0</ele><time>2026-03-29T07:03:52.29Z</time></trkpt><trkpt lat="45.5213922" lon="10.4897392"><ele>219.99999999999997</ele><time>2026-03-29T07:03:53.291Z</time></trkpt><trkpt lat="45.5214406" lon="10.4898073"><ele>220.0</ele><time>2026-03-29T07:03:54.291Z</time></trkpt><trkpt lat="45.5214948" lon="10.4898643"><ele>219.49999999999997</ele><time>2026-03-29T07:03:55.29Z</time></trkpt><trkpt lat="45.5215572" lon="10.4899147"><ele>219.0</ele><time>2026-03-29T07:03:56.29Z</time></trkpt><trkpt lat="45.5216188" lon="10.4899575"><ele>218.5</ele><time>2026-03-29T07:03:57.29Z</time></trkpt><trkpt lat="45.5216842" lon="10.4899941"><ele>218.0</ele><time>2026-03-29T07:03:58.29Z</time></trkpt><trkpt lat="45.5217579" lon="10.4900263"><ele>217.49999999999997</ele><time>2026-03-29T07:03:59.291Z</time></trkpt><trkpt lat="45.5218347" lon="10.4900596"><ele>217.0</ele><time>2026-03-29T07:04:00.29Z</time></trkpt><trkpt lat="45.5219143" lon="10.490095"><ele>216.99999999999997</ele><time>2026-03-29T07:04:01.291Z</time></trkpt><trkpt lat="45.5219932" lon="10.4901381"><ele>217.0</ele><time>2026-03-29T07:04:02.29Z</time></trkpt><trkpt lat="45.5220778" lon="10.4901932"><ele>217.0</ele><time>2026-03-29T07:04:03.29Z</time></trkpt><trkpt lat="45.5221529" lon="10.4902505"><ele>217.0</ele><time>2026-03-29T07:04:04.291Z</time></trkpt><trkpt lat="45.5222203" lon="10.4903058"><ele>216.99999999999997</ele><time>2026-03-29T07:04:05.291Z</time></trkpt><trkpt lat="45.5222881" lon="10.4903547"><ele>217.0</ele><time>2026-03-29T07:04:06.291Z</time></trkpt><trkpt lat="45.5223616" lon="10.4903888"><ele>216.99999999999997</ele><time>2026-03-29T07:04:07.29Z</time></trkpt><trkpt lat="45.5224395" lon="10.4904111"><ele>217.0</ele><time>2026-03-29T07:04:08.29Z</time></trkpt><trkpt lat="45.5225241" lon="10.4904245"><ele>217.0</ele><time>2026-03-29T07:04:09.291Z</time></trkpt><trkpt lat="45.5226035" lon="10.4904415"><ele>217.0</ele><time>2026-03-29T07:04:10.29Z</time></trkpt><trkpt lat="45.5226671" lon="10.4904639"><ele>216.99999999999997</ele><time>2026-03-29T07:04:11.29Z</time></trkpt><trkpt lat="45.5227537" lon="10.4905173"><ele>217.0</ele><time>2026-03-29T07:04:13.291Z</time></trkpt><trkpt lat="45.5228277" lon="10.4904974"><ele>217.6</ele><time>2026-03-29T07:04:16.291Z</time></trkpt><trkpt lat="45.5228852" lon="10.4903869"><ele>218.2</ele><time>2026-03-29T07:04:18.291Z</time></trkpt><trkpt lat="45.522928" lon="10.4902378"><ele>218.8</ele><time>2026-03-29T07:04:20.291Z</time></trkpt><trkpt lat="45.5229712" lon="10.4900591"><ele>219.4</ele><time>2026-03-29T07:04:22.291Z</time></trkpt><trkpt lat="45.5230066" lon="10.4899512"><ele>220.0</ele><time>2026-03-29T07:04:23.29Z</time></trkpt><trkpt lat="45.5230429" lon="10.4898339"><ele>221.0</ele><time>2026-03-29T07:04:24.29Z</time></trkpt><trkpt lat="45.5230797" lon="10.4897171"><ele>222.0</ele><time>2026-03-29T07:04:25.29Z</time></trkpt><trkpt lat="45.5231205" lon="10.4896055"><ele>223.0</ele><time>2026-03-29T07:04:26.291Z</time></trkpt><trkpt lat="45.5231626" lon="10.4894962"><ele>224.0</ele><time>2026-03-29T07:04:27.29Z</time></trkpt><trkpt lat="45.5232023" lon="10.4893763"><ele>225.0</ele><time>2026-03-29T07:04:28.291Z</time></trkpt><trkpt lat="45.5232363" lon="10.4892362"><ele>225.6</ele><time>2026-03-29T07:04:29.29Z</time></trkpt><trkpt lat="45.5232659" lon="10.4890915"><ele>226.2</ele><time>2026-03-29T07:04:30.29Z</time></trkpt><trkpt lat="45.5232943" lon="10.4889521"><ele>226.8</ele><time>2026-03-29T07:04:31.291Z</time></trkpt><trkpt lat="45.5233245" lon="10.4888307"><ele>227.4</ele><time>2026-03-29T07:04:32.29Z</time></trkpt><trkpt lat="45.5233591" lon="10.4887381"><ele>228.0</ele><time>2026-03-29T07:04:33.29Z</time></trkpt><trkpt lat="45.5234337" lon="10.4886253"><ele>228.0</ele><time>2026-03-29T07:04:35.291Z</time></trkpt><trkpt lat="45.523556" lon="10.4885533"><ele>228.0</ele><time>2026-03-29T07:04:37.29Z</time></trkpt><trkpt lat="45.5236397" lon="10.48852"><ele>228.0</ele><time>2026-03-29T07:04:38.29Z</time></trkpt><trkpt lat="45.5237356" lon="10.4884933"><ele>228.0</ele><time>2026-03-29T07:04:39.29Z</time></trkpt><trkpt lat="45.5238379" lon="10.4884631"><ele>228.0</ele><time>2026-03-29T07:04:40.29Z</time></trkpt><trkpt lat="45.5239439" lon="10.4884465"><ele>229.2</ele><time>2026-03-29T07:04:41.291Z</time></trkpt><trkpt lat="45.5240556" lon="10.4884389"><ele>230.4</ele><time>2026-03-29T07:04:42.291Z</time></trkpt><trkpt lat="45.5241642" lon="10.4884343"><ele>231.59999999999997</ele><time>2026-03-29T07:04:43.29Z</time></trkpt><trkpt lat="45.5242585" lon="10.4884322"><ele>232.79999999999998</ele><time>2026-03-29T07:04:44.291Z</time></trkpt><trkpt lat="45.5243431" lon="10.4884341"><ele>234.0</ele><time>2026-03-29T07:04:45.291Z</time></trkpt><trkpt lat="45.5244139" lon="10.4884391"><ele>234.0</ele><time>2026-03-29T07:04:46.29Z</time></trkpt><trkpt lat="45.5244838" lon="10.4884629"><ele>234.0</ele><time>2026-03-29T07:04:47.291Z</time></trkpt><trkpt lat="45.5245497" lon="10.4885025"><ele>234.0</ele><time>2026-03-29T07:04:48.291Z</time></trkpt><trkpt lat="45.5246267" lon="10.4885647"><ele>234.0</ele><time>2026-03-29T07:04:49.291Z</time></trkpt><trkpt lat="45.5247041" lon="10.4886096"><ele>234.0</ele><time>2026-03-29T07:04:50.291Z</time></trkpt><trkpt lat="45.5247955" lon="10.4886425"><ele>234.0</ele><time>2026-03-29T07:04:51.29Z</time></trkpt><trkpt lat="45.5249046" lon="10.4886776"><ele>234.39999999999998</ele><time>2026-03-29T07:04:52.29Z</time></trkpt><trkpt lat="45.5250198" lon="10.4887055"><ele>234.79999999999998</ele><time>2026-03-29T07:04:53.291Z</time></trkpt><trkpt lat="45.5251293" lon="10.4887399"><ele>235.20000000000002</ele><time>2026-03-29T07:04:54.291Z</time></trkpt><trkpt lat="45.5252377" lon="10.4887682"><ele>235.60000000000002</ele><time>2026-03-29T07:04:55.29Z</time></trkpt><trkpt lat="45.5253438" lon="10.4887916"><ele>236.0</ele><time>2026-03-29T07:04:56.29Z</time></trkpt><trkpt lat="45.5254477" lon="10.4888172"><ele>236.8</ele><time>2026-03-29T07:04:57.291Z</time></trkpt><trkpt lat="45.5255512" lon="10.4888357"><ele>237.60000000000002</ele><time>2026-03-29T07:04:58.29Z</time></trkpt><trkpt lat="45.5256524" lon="10.4888497"><ele>238.4</ele><time>2026-03-29T07:04:59.29Z</time></trkpt><trkpt lat="45.5257477" lon="10.4888722"><ele>239.2</ele><time>2026-03-29T07:05:00.291Z</time></trkpt><trkpt lat="45.5258459" lon="10.4888908"><ele>240.0</ele><time>2026-03-29T07:05:01.291Z</time></trkpt><trkpt lat="45.5259368" lon="10.4889032"><ele>240.0</ele><time>2026-03-29T07:05:02.291Z</time></trkpt><trkpt lat="45.5260382" lon="10.488894"><ele>240.0</ele><time>2026-03-29T07:05:03.29Z</time></trkpt><trkpt lat="45.5261428" lon="10.4888792"><ele>240.0</ele><time>2026-03-29T07:05:04.291Z</time></trkpt><trkpt lat="45.526247" lon="10.4888673"><ele>240.0</ele><time>2026-03-29T07:05:05.291Z</time></trkpt><trkpt lat="45.5263441" lon="10.4888546"><ele>240.0</ele><time>2026-03-29T07:05:06.291Z</time></trkpt><trkpt lat="45.5264357" lon="10.4888435"><ele>240.16666666666666</ele><time>2026-03-29T07:05:07.29Z</time></trkpt><trkpt lat="45.5265188" lon="10.4888383"><ele>240.33333333333331</ele><time>2026-03-29T07:05:08.29Z</time></trkpt><trkpt lat="45.5266038" lon="10.4888439"><ele>240.5</ele><time>2026-03-29T07:05:09.29Z</time></trkpt><trkpt lat="45.5266865" lon="10.4888568"><ele>240.66666666666666</ele><time>2026-03-29T07:05:10.29Z</time></trkpt><trkpt lat="45.5267574" lon="10.4888508"><ele>240.83333333333331</ele><time>2026-03-29T07:05:11.291Z</time></trkpt><trkpt lat="45.5268773" lon="10.4888722"><ele>241.0</ele><time>2026-03-29T07:05:13.291Z</time></trkpt><trkpt lat="45.5269837" lon="10.4889536"><ele>240.99999999999997</ele><time>2026-03-29T07:05:15.29Z</time></trkpt><trkpt lat="45.5270513" lon="10.4890117"><ele>241.0</ele><time>2026-03-29T07:05:16.291Z</time></trkpt><trkpt lat="45.5271345" lon="10.4890734"><ele>241.0</ele><time>2026-03-29T07:05:17.291Z</time></trkpt><trkpt lat="45.5272186" lon="10.4891282"><ele>241.0</ele><time>2026-03-29T07:05:18.29Z</time></trkpt><trkpt lat="45.527296" lon="10.4891664"><ele>240.99999999999997</ele><time>2026-03-29T07:05:19.291Z</time></trkpt><trkpt lat="45.5273657" lon="10.489188"><ele>241.0</ele><time>2026-03-29T07:05:20.29Z</time></trkpt><trkpt lat="45.5274457" lon="10.4891881"><ele>241.4</ele><time>2026-03-29T07:05:21.291Z</time></trkpt><trkpt lat="45.5275357" lon="10.4891719"><ele>241.8</ele><time>2026-03-29T07:05:22.291Z</time></trkpt><trkpt lat="45.5276445" lon="10.4891454"><ele>242.20000000000002</ele><time>2026-03-29T07:05:23.291Z</time></trkpt><trkpt lat="45.5277561" lon="10.4891194"><ele>242.60000000000002</ele><time>2026-03-29T07:05:24.291Z</time></trkpt><trkpt lat="45.5278581" lon="10.4890993"><ele>243.0</ele><time>2026-03-29T07:05:25.29Z</time></trkpt><trkpt lat="45.5279519" lon="10.489083"><ele>244.0</ele><time>2026-03-29T07:05:26.29Z</time></trkpt><trkpt lat="45.5280497" lon="10.489081"><ele>245.0</ele><time>2026-03-29T07:05:27.291Z</time></trkpt><trkpt lat="45.5281508" lon="10.4890961"><ele>246.0</ele><time>2026-03-29T07:05:28.29Z</time></trkpt><trkpt lat="45.5282302" lon="10.4891505"><ele>247.0</ele><time>2026-03-29T07:05:29.291Z</time></trkpt><trkpt lat="45.5282874" lon="10.489223"><ele>248.0</ele><time>2026-03-29T07:05:30.29Z</time></trkpt><trkpt lat="45.5283255" lon="10.4893004"><ele>249.0</ele><time>2026-03-29T07:05:31.291Z</time></trkpt><trkpt lat="45.5283393" lon="10.4893909"><ele>249.0</ele><time>2026-03-29T07:05:32.291Z</time></trkpt><trkpt lat="45.5283355" lon="10.4894872"><ele>248.99999999999997</ele><time>2026-03-29T07:05:33.291Z</time></trkpt><trkpt lat="45.5283332" lon="10.4895857"><ele>248.99999999999997</ele><time>2026-03-29T07:05:34.29Z</time></trkpt><trkpt lat="45.5283532" lon="10.4897331"><ele>249.0</ele><time>2026-03-29T07:05:36.291Z</time></trkpt><trkpt lat="45.5284728" lon="10.4898141"><ele>249.0</ele><time>2026-03-29T07:05:38.291Z</time></trkpt><trkpt lat="45.5285744" lon="10.4898541"><ele>250.0</ele><time>2026-03-29T07:05:39.29Z</time></trkpt><trkpt lat="45.5286842" lon="10.4899052"><ele>251.0</ele><time>2026-03-29T07:05:40.291Z</time></trkpt><trkpt lat="45.528797" lon="10.4899631"><ele>252.0</ele><time>2026-03-29T07:05:41.29Z</time></trkpt><trkpt lat="45.5289052" lon="10.4900201"><ele>253.0</ele><time>2026-03-29T07:05:42.291Z</time></trkpt><trkpt lat="45.5290011" lon="10.4900687"><ele>253.49999999999997</ele><time>2026-03-29T07:05:43.29Z</time></trkpt><trkpt lat="45.5290814" lon="10.4901094"><ele>254.0</ele><time>2026-03-29T07:05:44.29Z</time></trkpt><trkpt lat="45.5291496" lon="10.4901375"><ele>254.5</ele><time>2026-03-29T07:05:45.29Z</time></trkpt><trkpt lat="45.5292137" lon="10.49015"><ele>255.0</ele><time>2026-03-29T07:05:46.29Z</time></trkpt><trkpt lat="45.5293298" lon="10.4901267"><ele>255.49999999999997</ele><time>2026-03-29T07:05:48.29Z</time></trkpt><trkpt lat="45.5294164" lon="10.4900285"><ele>256.0</ele><time>2026-03-29T07:05:50.29Z</time></trkpt><trkpt lat="45.5295426" lon="10.4900019"><ele>256.40000000000003</ele><time>2026-03-29T07:05:52.29Z</time></trkpt><trkpt lat="45.5296311" lon="10.490041"><ele>256.8</ele><time>2026-03-29T07:05:53.291Z</time></trkpt><trkpt lat="45.5297305" lon="10.4901034"><ele>257.20000000000005</ele><time>2026-03-29T07:05:54.29Z</time></trkpt><trkpt lat="45.5298314" lon="10.4901934"><ele>257.6</ele><time>2026-03-29T07:05:55.291Z</time></trkpt><trkpt lat="45.5299224" lon="10.4902927"><ele>258.0</ele><time>2026-03-29T07:05:56.291Z</time></trkpt><trkpt lat="45.5300023" lon="10.4903748"><ele>257.71428571428567</ele><time>2026-03-29T07:05:57.291Z</time></trkpt><trkpt lat="45.5300698" lon="10.4904463"><ele>257.42857142857144</ele><time>2026-03-29T07:05:58.29Z</time></trkpt><trkpt lat="45.5301291" lon="10.4905118"><ele>257.1428571428571</ele><time>2026-03-29T07:05:59.291Z</time></trkpt><trkpt lat="45.5301854" lon="10.4905766"><ele>256.85714285714283</ele><time>2026-03-29T07:06:00.29Z</time></trkpt><trkpt lat="45.5302362" lon="10.4906493"><ele>256.57142857142856</ele><time>2026-03-29T07:06:01.29Z</time></trkpt><trkpt lat="45.5302821" lon="10.4907256"><ele>256.2857142857143</ele><time>2026-03-29T07:06:02.291Z</time></trkpt><trkpt lat="45.5303239" lon="10.4908096"><ele>256.0</ele><time>2026-03-29T07:06:03.291Z</time></trkpt><trkpt lat="45.5303669" lon="10.4908987"><ele>255.83333333333331</ele><time>2026-03-29T07:06:04.29Z</time></trkpt><trkpt lat="45.5304058" lon="10.4909989"><ele>255.66666666666666</ele><time>2026-03-29T07:06:05.29Z</time></trkpt><trkpt lat="45.5304422" lon="10.4911008"><ele>255.5</ele><time>2026-03-29T07:06:06.291Z</time></trkpt><trkpt lat="45.5304874" lon="10.4911896"><ele>255.33333333333331</ele><time>2026-03-29T07:06:07.291Z</time></trkpt><trkpt lat="45.5305368" lon="10.4912748"><ele>255.16666666666666</ele><time>2026-03-29T07:06:08.291Z</time></trkpt><trkpt lat="45.530591" lon="10.4913573"><ele>255.0</ele><time>2026-03-29T07:06:09.291Z</time></trkpt><trkpt lat="45.5306487" lon="10.4914533"><ele>255.0</ele><time>2026-03-29T07:06:10.29Z</time></trkpt><trkpt lat="45.530711" lon="10.4915509"><ele>255.0</ele><time>2026-03-29T07:06:11.29Z</time></trkpt><trkpt lat="45.530779" lon="10.4916497"><ele>255.0</ele><time>2026-03-29T07:06:12.291Z</time></trkpt><trkpt lat="45.5308437" lon="10.4917511"><ele>255.0</ele><time>2026-03-29T07:06:13.29Z</time></trkpt><trkpt lat="45.5308982" lon="10.4918508"><ele>255.0</ele><time>2026-03-29T07:06:14.291Z</time></trkpt><trkpt lat="45.5309398" lon="10.4919557"><ele>255.0</ele><time>2026-03-29T07:06:15.291Z</time></trkpt><trkpt lat="45.5309703" lon="10.492047"><ele>255.00000000000003</ele><time>2026-03-29T07:06:16.29Z</time></trkpt><trkpt lat="45.5309948" lon="10.4921334"><ele>255.0</ele><time>2026-03-29T07:06:17.29Z</time></trkpt><trkpt lat="45.5310105" lon="10.4922223"><ele>255.0</ele><time>2026-03-29T07:06:18.291Z</time></trkpt><trkpt lat="45.5310166" lon="10.4923207"><ele>255.00000000000003</ele><time>2026-03-29T07:06:19.291Z</time></trkpt><trkpt lat="45.5310161" lon="10.492416"><ele>255.0</ele><time>2026-03-29T07:06:20.29Z</time></trkpt><trkpt lat="45.5310186" lon="10.4925133"><ele>255.0</ele><time>2026-03-29T07:06:21.29Z</time></trkpt><trkpt lat="45.5310277" lon="10.4926158"><ele>253.66666666666666</ele><time>2026-03-29T07:06:22.29Z</time></trkpt><trkpt lat="45.5310514" lon="10.4927099"><ele>252.33333333333331</ele><time>2026-03-29T07:06:23.291Z</time></trkpt><trkpt lat="45.5310969" lon="10.492799"><ele>251.0</ele><time>2026-03-29T07:06:24.291Z</time></trkpt><trkpt lat="45.5311642" lon="10.4928907"><ele>249.66666666666666</ele><time>2026-03-29T07:06:25.29Z</time></trkpt><trkpt lat="45.5312429" lon="10.4929801"><ele>248.33333333333331</ele><time>2026-03-29T07:06:26.29Z</time></trkpt><trkpt lat="45.5313265" lon="10.4930594"><ele>247.0</ele><time>2026-03-29T07:06:27.291Z</time></trkpt><trkpt lat="45.5314184" lon="10.4931336"><ele>246.6</ele><time>2026-03-29T07:06:28.291Z</time></trkpt><trkpt lat="45.531516" lon="10.4932086"><ele>246.2</ele><time>2026-03-29T07:06:29.29Z</time></trkpt><trkpt lat="45.5316136" lon="10.4932864"><ele>245.8</ele><time>2026-03-29T07:06:30.291Z</time></trkpt><trkpt lat="45.5317106" lon="10.4933524"><ele>245.4</ele><time>2026-03-29T07:06:31.291Z</time></trkpt><trkpt lat="45.5318111" lon="10.4934075"><ele>245.0</ele><time>2026-03-29T07:06:32.291Z</time></trkpt><trkpt lat="45.5319103" lon="10.4934595"><ele>245.0</ele><time>2026-03-29T07:06:33.291Z</time></trkpt><trkpt lat="45.5320053" lon="10.4935093"><ele>245.0</ele><time>2026-03-29T07:06:34.291Z</time></trkpt><trkpt lat="45.5320964" lon="10.4935513"><ele>245.0</ele><time>2026-03-29T07:06:35.291Z</time></trkpt><trkpt lat="45.5321801" lon="10.4935802"><ele>245.0</ele><time>2026-03-29T07:06:36.291Z</time></trkpt><trkpt lat="45.5322563" lon="10.4936277"><ele>245.0</ele><time>2026-03-29T07:06:37.291Z</time></trkpt><trkpt lat="45.5323296" lon="10.4936934"><ele>245.0</ele><time>2026-03-29T07:06:38.291Z</time></trkpt><trkpt lat="45.5323987" lon="10.4937722"><ele>245.0</ele><time>2026-03-29T07:06:39.29Z</time></trkpt><trkpt lat="45.5324694" lon="10.493855"><ele>245.0</ele><time>2026-03-29T07:06:40.29Z</time></trkpt><trkpt lat="45.5325489" lon="10.4939247"><ele>245.0</ele><time>2026-03-29T07:06:41.291Z</time></trkpt><trkpt lat="45.5326449" lon="10.4939852"><ele>245.0</ele><time>2026-03-29T07:06:42.29Z</time></trkpt><trkpt lat="45.5327384" lon="10.4940378"><ele>245.00000000000003</ele><time>2026-03-29T07:06:43.291Z</time></trkpt><trkpt lat="45.5328269" lon="10.4940764"><ele>245.0</ele><time>2026-03-29T07:06:44.29Z</time></trkpt><trkpt lat="45.5329143" lon="10.4941044"><ele>245.0</ele><time>2026-03-29T07:06:45.291Z</time></trkpt><trkpt lat="45.5329987" lon="10.4941273"><ele>245.0</ele><time>2026-03-29T07:06:46.291Z</time></trkpt><trkpt lat="45.5330748" lon="10.494137"><ele>245.00000000000003</ele><time>2026-03-29T07:06:47.291Z</time></trkpt><trkpt lat="45.5331785" lon="10.4941506"><ele>245.0</ele><time>2026-03-29T07:06:49.29Z</time></trkpt><trkpt lat="45.5332419" lon="10.4941821"><ele>244.83333333333334</ele><time>2026-03-29T07:06:50.291Z</time></trkpt><trkpt lat="45.5332956" lon="10.4942673"><ele>244.66666666666669</ele><time>2026-03-29T07:06:51.291Z</time></trkpt><trkpt lat="45.5333561" lon="10.4943638"><ele>244.5</ele><time>2026-03-29T07:06:52.29Z</time></trkpt><trkpt lat="45.5334256" lon="10.4944168"><ele>244.33333333333331</ele><time>2026-03-29T07:06:53.29Z</time></trkpt><trkpt lat="45.5335087" lon="10.4944725"><ele>244.16666666666666</ele><time>2026-03-29T07:06:54.29Z</time></trkpt><trkpt lat="45.5335946" lon="10.4945244"><ele>244.0</ele><time>2026-03-29T07:06:55.29Z</time></trkpt><trkpt lat="45.5336898" lon="10.4945599"><ele>243.39999999999998</ele><time>2026-03-29T07:06:56.291Z</time></trkpt><trkpt lat="45.5337884" lon="10.4945791"><ele>242.79999999999998</ele><time>2026-03-29T07:06:57.29Z</time></trkpt><trkpt lat="45.5338836" lon="10.4946036"><ele>242.20000000000002</ele><time>2026-03-29T07:06:58.291Z</time></trkpt><trkpt lat="45.5339849" lon="10.4946336"><ele>241.60000000000002</ele><time>2026-03-29T07:06:59.29Z</time></trkpt><trkpt lat="45.5340843" lon="10.4946678"><ele>241.0</ele><time>2026-03-29T07:07:00.291Z</time></trkpt><trkpt lat="45.5341812" lon="10.4947044"><ele>240.16666666666666</ele><time>2026-03-29T07:07:01.291Z</time></trkpt><trkpt lat="45.5342685" lon="10.494748"><ele>239.33333333333331</ele><time>2026-03-29T07:07:02.291Z</time></trkpt><trkpt lat="45.5343485" lon="10.4947951"><ele>238.5</ele><time>2026-03-29T07:07:03.29Z</time></trkpt><trkpt lat="45.5344217" lon="10.4948329"><ele>237.66666666666669</ele><time>2026-03-29T07:07:04.291Z</time></trkpt><trkpt lat="45.5344923" lon="10.494862"><ele>236.83333333333334</ele><time>2026-03-29T07:07:05.291Z</time></trkpt><trkpt lat="45.5345698" lon="10.49489"><ele>236.0</ele><time>2026-03-29T07:07:06.291Z</time></trkpt><trkpt lat="45.5346591" lon="10.4949226"><ele>235.8</ele><time>2026-03-29T07:07:07.291Z</time></trkpt><trkpt lat="45.5347493" lon="10.4949655"><ele>235.60000000000002</ele><time>2026-03-29T07:07:08.29Z</time></trkpt><trkpt lat="45.5348387" lon="10.4950141"><ele>235.4</ele><time>2026-03-29T07:07:09.291Z</time></trkpt><trkpt lat="45.5349291" lon="10.495074"><ele>235.2</ele><time>2026-03-29T07:07:10.29Z</time></trkpt><trkpt lat="45.5350234" lon="10.4951251"><ele>235.0</ele><time>2026-03-29T07:07:11.291Z</time></trkpt><trkpt lat="45.5351291" lon="10.4951587"><ele>235.0</ele><time>2026-03-29T07:07:12.291Z</time></trkpt><trkpt lat="45.5352365" lon="10.4951773"><ele>235.0</ele><time>2026-03-29T07:07:13.291Z</time></trkpt><trkpt lat="45.5353325" lon="10.4951879"><ele>235.0</ele><time>2026-03-29T07:07:14.29Z</time></trkpt><trkpt lat="45.535429" lon="10.4951976"><ele>235.0</ele><time>2026-03-29T07:07:15.291Z</time></trkpt><trkpt lat="45.5355191" lon="10.495209"><ele>235.0</ele><time>2026-03-29T07:07:16.29Z</time></trkpt><trkpt lat="45.5356038" lon="10.4952142"><ele>234.8</ele><time>2026-03-29T07:07:17.291Z</time></trkpt><trkpt lat="45.5356893" lon="10.4952367"><ele>234.6</ele><time>2026-03-29T07:07:18.29Z</time></trkpt><trkpt lat="45.5357701" lon="10.4952843"><ele>234.39999999999998</ele><time>2026-03-29T07:07:19.29Z</time></trkpt><trkpt lat="45.5358621" lon="10.4953527"><ele>234.2</ele><time>2026-03-29T07:07:20.29Z</time></trkpt><trkpt lat="45.5359646" lon="10.4954273"><ele>234.0</ele><time>2026-03-29T07:07:21.291Z</time></trkpt><trkpt lat="45.5360711" lon="10.4955095"><ele>234.79999999999998</ele><time>2026-03-29T07:07:22.291Z</time></trkpt><trkpt lat="45.5361682" lon="10.4955982"><ele>235.59999999999997</ele><time>2026-03-29T07:07:23.29Z</time></trkpt><trkpt lat="45.5362559" lon="10.4956869"><ele>236.4</ele><time>2026-03-29T07:07:24.291Z</time></trkpt><trkpt lat="45.536333" lon="10.4957788"><ele>237.2</ele><time>2026-03-29T07:07:25.291Z</time></trkpt><trkpt lat="45.5364001" lon="10.4958767"><ele>238.0</ele><time>2026-03-29T07:07:26.291Z</time></trkpt><trkpt lat="45.5364618" lon="10.4959898"><ele>237.99999999999997</ele><time>2026-03-29T07:07:27.291Z</time></trkpt><trkpt lat="45.5365146" lon="10.4961005"><ele>238.0</ele><time>2026-03-29T07:07:28.291Z</time></trkpt><trkpt lat="45.5365611" lon="10.496198"><ele>238.0</ele><time>2026-03-29T07:07:29.29Z</time></trkpt><trkpt lat="45.5366127" lon="10.4962819"><ele>238.0</ele><time>2026-03-29T07:07:30.29Z</time></trkpt><trkpt lat="45.5366763" lon="10.4963435"><ele>237.99999999999997</ele><time>2026-03-29T07:07:31.291Z</time></trkpt><trkpt lat="45.5367566" lon="10.4963767"><ele>238.0</ele><time>2026-03-29T07:07:32.291Z</time></trkpt><trkpt lat="45.5368387" lon="10.496383"><ele>237.49999999999997</ele><time>2026-03-29T07:07:33.291Z</time></trkpt><trkpt lat="45.5369083" lon="10.4963859"><ele>237.0</ele><time>2026-03-29T07:07:34.29Z</time></trkpt><trkpt lat="45.5369811" lon="10.496396"><ele>236.5</ele><time>2026-03-29T07:07:35.29Z</time></trkpt><trkpt lat="45.5370646" lon="10.4964239"><ele>236.0</ele><time>2026-03-29T07:07:36.291Z</time></trkpt><trkpt lat="45.5371592" lon="10.4964526"><ele>235.49999999999997</ele><time>2026-03-29T07:07:37.291Z</time></trkpt><trkpt lat="45.5372687" lon="10.4964676"><ele>235.0</ele><time>2026-03-29T07:07:38.29Z</time></trkpt><trkpt lat="45.5373856" lon="10.4964636"><ele>235.0</ele><time>2026-03-29T07:07:39.291Z</time></trkpt><trkpt lat="45.5375065" lon="10.4964479"><ele>235.0</ele><time>2026-03-29T07:07:40.29Z</time></trkpt><trkpt lat="45.537634" lon="10.4964122"><ele>235.0</ele><time>2026-03-29T07:07:41.29Z</time></trkpt><trkpt lat="45.5377669" lon="10.496373"><ele>235.0</ele><time>2026-03-29T07:07:42.291Z</time></trkpt><trkpt lat="45.5378938" lon="10.4963323"><ele>234.75</ele><time>2026-03-29T07:07:43.29Z</time></trkpt><trkpt lat="45.5380336" lon="10.496291"><ele>234.5</ele><time>2026-03-29T07:07:44.291Z</time></trkpt><trkpt lat="45.5381717" lon="10.496246"><ele>234.25</ele><time>2026-03-29T07:07:45.291Z</time></trkpt><trkpt lat="45.5382982" lon="10.4962046"><ele>234.0</ele><time>2026-03-29T07:07:46.291Z</time></trkpt><trkpt lat="45.5384204" lon="10.4961615"><ele>234.75</ele><time>2026-03-29T07:07:47.291Z</time></trkpt><trkpt lat="45.5385374" lon="10.4961346"><ele>235.5</ele><time>2026-03-29T07:07:48.29Z</time></trkpt><trkpt lat="45.5386615" lon="10.4961135"><ele>236.25</ele><time>2026-03-29T07:07:49.29Z</time></trkpt><trkpt lat="45.5387904" lon="10.4961007"><ele>237.0</ele><time>2026-03-29T07:07:50.291Z</time></trkpt><trkpt lat="45.5389271" lon="10.4960926"><ele>237.0</ele><time>2026-03-29T07:07:51.291Z</time></trkpt><trkpt lat="45.5390646" lon="10.4960801"><ele>237.0</ele><time>2026-03-29T07:07:52.291Z</time></trkpt><trkpt lat="45.5391961" lon="10.4960708"><ele>237.0</ele><time>2026-03-29T07:07:53.291Z</time></trkpt><trkpt lat="45.5393328" lon="10.4960527"><ele>237.0</ele><time>2026-03-29T07:07:54.29Z</time></trkpt><trkpt lat="45.5394705" lon="10.4960125"><ele>238.0</ele><time>2026-03-29T07:07:55.291Z</time></trkpt><trkpt lat="45.5396083" lon="10.4959598"><ele>239.0</ele><time>2026-03-29T07:07:56.291Z</time></trkpt><trkpt lat="45.5397451" lon="10.4958938"><ele>240.0</ele><time>2026-03-29T07:07:57.291Z</time></trkpt><trkpt lat="45.5398756" lon="10.4958359"><ele>241.0</ele><time>2026-03-29T07:07:58.291Z</time></trkpt><trkpt lat="45.5400105" lon="10.4957828"><ele>241.0</ele><time>2026-03-29T07:07:59.291Z</time></trkpt><trkpt lat="45.540133" lon="10.4957377"><ele>241.0</ele><time>2026-03-29T07:08:00.291Z</time></trkpt><trkpt lat="45.5402533" lon="10.4957164"><ele>241.0</ele><time>2026-03-29T07:08:01.29Z</time></trkpt><trkpt lat="45.5403829" lon="10.4957213"><ele>241.0</ele><time>2026-03-29T07:08:02.291Z</time></trkpt><trkpt lat="45.5405142" lon="10.495733"><ele>241.25</ele><time>2026-03-29T07:08:03.291Z</time></trkpt><trkpt lat="45.5406568" lon="10.4957409"><ele>241.5</ele><time>2026-03-29T07:08:04.29Z</time></trkpt><trkpt lat="45.5408063" lon="10.4957457"><ele>241.75</ele><time>2026-03-29T07:08:05.291Z</time></trkpt><trkpt lat="45.5409511" lon="10.4957578"><ele>242.0</ele><time>2026-03-29T07:08:06.29Z</time></trkpt><trkpt lat="45.5410921" lon="10.495781"><ele>242.0</ele><time>2026-03-29T07:08:07.29Z</time></trkpt><trkpt lat="45.5412192" lon="10.4958014"><ele>242.0</ele><time>2026-03-29T07:08:08.291Z</time></trkpt><trkpt lat="45.5413409" lon="10.4958288"><ele>242.0</ele><time>2026-03-29T07:08:09.291Z</time></trkpt><trkpt lat="45.5414539" lon="10.4958514"><ele>242.0</ele><time>2026-03-29T07:08:10.29Z</time></trkpt><trkpt lat="45.5415714" lon="10.4958689"><ele>242.0</ele><time>2026-03-29T07:08:11.291Z</time></trkpt><trkpt lat="45.5416741" lon="10.4959006"><ele>242.0</ele><time>2026-03-29T07:08:12.291Z</time></trkpt><trkpt lat="45.5417525" lon="10.4959656"><ele>242.0</ele><time>2026-03-29T07:08:13.29Z</time></trkpt><trkpt lat="45.5418186" lon="10.4960495"><ele>242.0</ele><time>2026-03-29T07:08:14.291Z</time></trkpt><trkpt lat="45.5418607" lon="10.4961753"><ele>242.0</ele><time>2026-03-29T07:08:15.29Z</time></trkpt><trkpt lat="45.5418967" lon="10.4963142"><ele>241.39999999999998</ele><time>2026-03-29T07:08:16.29Z</time></trkpt><trkpt lat="45.5419462" lon="10.4964079"><ele>240.79999999999998</ele><time>2026-03-29T07:08:17.29Z</time></trkpt><trkpt lat="45.5420283" lon="10.4964829"><ele>240.2</ele><time>2026-03-29T07:08:18.29Z</time></trkpt><trkpt lat="45.5421337" lon="10.4965262"><ele>239.6</ele><time>2026-03-29T07:08:19.291Z</time></trkpt><trkpt lat="45.5422615" lon="10.4965591"><ele>239.0</ele><time>2026-03-29T07:08:20.29Z</time></trkpt><trkpt lat="45.5424043" lon="10.4965908"><ele>239.0</ele><time>2026-03-29T07:08:21.291Z</time></trkpt><trkpt lat="45.5425564" lon="10.4966232"><ele>239.0</ele><time>2026-03-29T07:08:22.29Z</time></trkpt><trkpt lat="45.5427033" lon="10.4966494"><ele>239.0</ele><time>2026-03-29T07:08:23.29Z</time></trkpt><trkpt lat="45.5428541" lon="10.4966589"><ele>240.66666666666669</ele><time>2026-03-29T07:08:24.29Z</time></trkpt><trkpt lat="45.5430079" lon="10.4966662"><ele>242.33333333333331</ele><time>2026-03-29T07:08:25.29Z</time></trkpt><trkpt lat="45.5431721" lon="10.4966652"><ele>244.0</ele><time>2026-03-29T07:08:26.291Z</time></trkpt><trkpt lat="45.5433292" lon="10.4966522"><ele>244.0</ele><time>2026-03-29T07:08:27.291Z</time></trkpt><trkpt lat="45.5434953" lon="10.496653"><ele>244.0</ele><time>2026-03-29T07:08:28.29Z</time></trkpt><trkpt lat="45.5436673" lon="10.4966534"><ele>244.0</ele><time>2026-03-29T07:08:29.29Z</time></trkpt><trkpt lat="45.5438431" lon="10.4966663"><ele>243.66666666666666</ele><time>2026-03-29T07:08:30.291Z</time></trkpt><trkpt lat="45.5440142" lon="10.4966903"><ele>243.33333333333331</ele><time>2026-03-29T07:08:31.29Z</time></trkpt><trkpt lat="45.5441841" lon="10.4967345"><ele>243.0</ele><time>2026-03-29T07:08:32.291Z</time></trkpt><trkpt lat="45.5443522" lon="10.4967914"><ele>243.0</ele><time>2026-03-29T07:08:33.29Z</time></trkpt><trkpt lat="45.5445046" lon="10.496857"><ele>243.0</ele><time>2026-03-29T07:08:34.291Z</time></trkpt><trkpt lat="45.5446603" lon="10.4969171"><ele>243.0</ele><time>2026-03-29T07:08:35.291Z</time></trkpt><trkpt lat="45.5448192" lon="10.4969863"><ele>243.66666666666669</ele><time>2026-03-29T07:08:36.291Z</time></trkpt><trkpt lat="45.5449802" lon="10.4970473"><ele>244.33333333333334</ele><time>2026-03-29T07:08:37.29Z</time></trkpt><trkpt lat="45.5451285" lon="10.4971003"><ele>245.0</ele><time>2026-03-29T07:08:38.291Z</time></trkpt><trkpt lat="45.5452681" lon="10.4971617"><ele>247.5</ele><time>2026-03-29T07:08:39.29Z</time></trkpt><trkpt lat="45.5454054" lon="10.4972398"><ele>250.0</ele><time>2026-03-29T07:08:40.291Z</time></trkpt><trkpt lat="45.5455266" lon="10.497348"><ele>252.5</ele><time>2026-03-29T07:08:41.291Z</time></trkpt><trkpt lat="45.5456362" lon="10.4974755"><ele>255.0</ele><time>2026-03-29T07:08:42.29Z</time></trkpt><trkpt lat="45.5457285" lon="10.4976025"><ele>255.0</ele><time>2026-03-29T07:08:43.291Z</time></trkpt><trkpt lat="45.5458047" lon="10.4977308"><ele>255.0</ele><time>2026-03-29T07:08:44.29Z</time></trkpt><trkpt lat="45.5458646" lon="10.4978413"><ele>255.0</ele><time>2026-03-29T07:08:45.291Z</time></trkpt><trkpt lat="45.5459168" lon="10.4979394"><ele>255.0</ele><time>2026-03-29T07:08:46.291Z</time></trkpt><trkpt lat="45.5459713" lon="10.4980178"><ele>255.0</ele><time>2026-03-29T07:08:47.291Z</time></trkpt><trkpt lat="45.5460191" lon="10.4980884"><ele>255.0</ele><time>2026-03-29T07:08:48.291Z</time></trkpt><trkpt lat="45.5460835" lon="10.4981945"><ele>255.0</ele><time>2026-03-29T07:08:50.29Z</time></trkpt><trkpt lat="45.5461411" lon="10.4982667"><ele>255.0</ele><time>2026-03-29T07:08:53.291Z</time></trkpt><trkpt lat="45.5461964" lon="10.4982051"><ele>255.0</ele><time>2026-03-29T07:08:57.29Z</time></trkpt><trkpt lat="45.5461609" lon="10.498047"><ele>255.0</ele><time>2026-03-29T07:08:59.29Z</time></trkpt><trkpt lat="45.5461241" lon="10.4979381"><ele>255.0</ele><time>2026-03-29T07:09:00.291Z</time></trkpt><trkpt lat="45.5460758" lon="10.4978122"><ele>255.0</ele><time>2026-03-29T07:09:01.291Z</time></trkpt><trkpt lat="45.5460194" lon="10.4976735"><ele>255.0</ele><time>2026-03-29T07:09:02.291Z</time></trkpt><trkpt lat="45.5459569" lon="10.4975323"><ele>255.0</ele><time>2026-03-29T07:09:03.29Z</time></trkpt><trkpt lat="45.5458909" lon="10.4973883"><ele>255.0</ele><time>2026-03-29T07:09:04.29Z</time></trkpt><trkpt lat="45.5458301" lon="10.4972504"><ele>255.0</ele><time>2026-03-29T07:09:05.29Z</time></trkpt><trkpt lat="45.5457751" lon="10.4971248"><ele>255.33333333333334</ele><time>2026-03-29T07:09:06.29Z</time></trkpt><trkpt lat="45.5457237" lon="10.4970023"><ele>255.66666666666669</ele><time>2026-03-29T07:09:07.291Z</time></trkpt><trkpt lat="45.5456854" lon="10.4968911"><ele>256.0</ele><time>2026-03-29T07:09:08.291Z</time></trkpt><trkpt lat="45.5456551" lon="10.4967941"><ele>256.33333333333337</ele><time>2026-03-29T07:09:09.29Z</time></trkpt><trkpt lat="45.5456289" lon="10.4967023"><ele>256.6666666666667</ele><time>2026-03-29T07:09:10.29Z</time></trkpt><trkpt lat="45.5456048" lon="10.4965682"><ele>257.0</ele><time>2026-03-29T07:09:12.291Z</time></trkpt><trkpt lat="45.5456066" lon="10.4964742"><ele>257.0</ele><time>2026-03-29T07:09:14.29Z</time></trkpt><trkpt lat="45.5456574" lon="10.4964112"><ele>257.0</ele><time>2026-03-29T07:09:16.29Z</time></trkpt><trkpt lat="45.5457561" lon="10.4963958"><ele>257.0</ele><time>2026-03-29T07:09:18.29Z</time></trkpt><trkpt lat="45.5458287" lon="10.4964025"><ele>257.0</ele><time>2026-03-29T07:09:19.29Z</time></trkpt><trkpt lat="45.5459171" lon="10.4964125"><ele>257.0</ele><time>2026-03-29T07:09:20.291Z</time></trkpt><trkpt lat="45.5460181" lon="10.4964268"><ele>257.0</ele><time>2026-03-29T07:09:21.291Z</time></trkpt><trkpt lat="45.5461279" lon="10.4964403"><ele>257.33333333333337</ele><time>2026-03-29T07:09:22.291Z</time></trkpt><trkpt lat="45.5462317" lon="10.4964488"><ele>257.6666666666667</ele><time>2026-03-29T07:09:23.291Z</time></trkpt><trkpt lat="45.5463293" lon="10.4964425"><ele>258.0</ele><time>2026-03-29T07:09:24.29Z</time></trkpt><trkpt lat="45.5464137" lon="10.4964177"><ele>258.3333333333333</ele><time>2026-03-29T07:09:25.291Z</time></trkpt><trkpt lat="45.5464816" lon="10.4964042"><ele>258.66666666666663</ele><time>2026-03-29T07:09:26.29Z</time></trkpt><trkpt lat="45.5465454" lon="10.4963798"><ele>259.0</ele><time>2026-03-29T07:09:27.29Z</time></trkpt><trkpt lat="45.5466056" lon="10.496346"><ele>259.0</ele><time>2026-03-29T07:09:28.29Z</time></trkpt><trkpt lat="45.5466549" lon="10.4962582"><ele>259.0</ele><time>2026-03-29T07:09:29.289Z</time></trkpt><trkpt lat="45.5467071" lon="10.4961543"><ele>259.0</ele><time>2026-03-29T07:09:30.289Z</time></trkpt><trkpt lat="45.5467654" lon="10.4960416"><ele>259.0</ele><time>2026-03-29T07:09:31.289Z</time></trkpt><trkpt lat="45.546819" lon="10.4959334"><ele>259.0</ele><time>2026-03-29T07:09:32.289Z</time></trkpt><trkpt lat="45.5468636" lon="10.495815"><ele>258.5</ele><time>2026-03-29T07:09:33.289Z</time></trkpt><trkpt lat="45.5468986" lon="10.4956924"><ele>258.0</ele><time>2026-03-29T07:09:34.29Z</time></trkpt><trkpt lat="45.5469226" lon="10.4955709"><ele>257.5</ele><time>2026-03-29T07:09:35.29Z</time></trkpt><trkpt lat="45.5469296" lon="10.4954629"><ele>257.0</ele><time>2026-03-29T07:09:36.289Z</time></trkpt><trkpt lat="45.5469131" lon="10.4953573"><ele>256.5</ele><time>2026-03-29T07:09:37.289Z</time></trkpt><trkpt lat="45.5468772" lon="10.4952681"><ele>256.0</ele><time>2026-03-29T07:09:38.289Z</time></trkpt><trkpt lat="45.5468124" lon="10.4951892"><ele>255.60000000000002</ele><time>2026-03-29T07:09:39.289Z</time></trkpt><trkpt lat="45.5467319" lon="10.4950967"><ele>255.20000000000002</ele><time>2026-03-29T07:09:40.29Z</time></trkpt><trkpt lat="45.5466581" lon="10.4949878"><ele>254.79999999999998</ele><time>2026-03-29T07:09:41.289Z</time></trkpt><trkpt lat="45.546597" lon="10.494871"><ele>254.39999999999998</ele><time>2026-03-29T07:09:42.289Z</time></trkpt><trkpt lat="45.5465555" lon="10.4947586"><ele>254.0</ele><time>2026-03-29T07:09:43.289Z</time></trkpt><trkpt lat="45.546525" lon="10.4946525"><ele>253.33333333333334</ele><time>2026-03-29T07:09:44.29Z</time></trkpt><trkpt lat="45.5465162" lon="10.4945447"><ele>252.66666666666669</ele><time>2026-03-29T07:09:45.29Z</time></trkpt><trkpt lat="45.5465262" lon="10.4944366"><ele>252.0</ele><time>2026-03-29T07:09:46.29Z</time></trkpt><trkpt lat="45.5465564" lon="10.4943289"><ele>251.33333333333331</ele><time>2026-03-29T07:09:47.289Z</time></trkpt><trkpt lat="45.5465958" lon="10.4942032"><ele>250.66666666666666</ele><time>2026-03-29T07:09:48.29Z</time></trkpt><trkpt lat="45.5466395" lon="10.4940646"><ele>250.0</ele><time>2026-03-29T07:09:49.289Z</time></trkpt><trkpt lat="45.5466863" lon="10.4939148"><ele>250.0</ele><time>2026-03-29T07:09:50.289Z</time></trkpt><trkpt lat="45.5467347" lon="10.4937649"><ele>250.0</ele><time>2026-03-29T07:09:51.289Z</time></trkpt><trkpt lat="45.5467882" lon="10.4936122"><ele>250.0</ele><time>2026-03-29T07:09:52.289Z</time></trkpt><trkpt lat="45.5468457" lon="10.4934548"><ele>250.0</ele><time>2026-03-29T07:09:53.289Z</time></trkpt><trkpt lat="45.5469111" lon="10.4933139"><ele>250.0</ele><time>2026-03-29T07:09:54.289Z</time></trkpt><trkpt lat="45.546993" lon="10.4931865"><ele>250.0</ele><time>2026-03-29T07:09:55.289Z</time></trkpt><trkpt lat="45.5470812" lon="10.4930661"><ele>250.0</ele><time>2026-03-29T07:09:56.289Z</time></trkpt><trkpt lat="45.5471595" lon="10.4929436"><ele>250.0</ele><time>2026-03-29T07:09:57.29Z</time></trkpt><trkpt lat="45.5472279" lon="10.4928209"><ele>250.4</ele><time>2026-03-29T07:09:58.289Z</time></trkpt><trkpt lat="45.5472884" lon="10.4926947"><ele>250.8</ele><time>2026-03-29T07:09:59.289Z</time></trkpt><trkpt lat="45.5473371" lon="10.4925578"><ele>251.2</ele><time>2026-03-29T07:10:00.289Z</time></trkpt><trkpt lat="45.547361" lon="10.4924251"><ele>251.6</ele><time>2026-03-29T07:10:01.29Z</time></trkpt><trkpt lat="45.5473997" lon="10.4922805"><ele>252.0</ele><time>2026-03-29T07:10:02.29Z</time></trkpt><trkpt lat="45.5474342" lon="10.4921457"><ele>251.8</ele><time>2026-03-29T07:10:03.29Z</time></trkpt><trkpt lat="45.5474693" lon="10.4920092"><ele>251.6</ele><time>2026-03-29T07:10:04.289Z</time></trkpt><trkpt lat="45.5475045" lon="10.4918829"><ele>251.40000000000003</ele><time>2026-03-29T07:10:05.29Z</time></trkpt><trkpt lat="45.5475314" lon="10.4917673"><ele>251.20000000000002</ele><time>2026-03-29T07:10:06.289Z</time></trkpt><trkpt lat="45.5475552" lon="10.4916459"><ele>251.0</ele><time>2026-03-29T07:10:07.29Z</time></trkpt><trkpt lat="45.5475826" lon="10.4915207"><ele>251.0</ele><time>2026-03-29T07:10:08.289Z</time></trkpt><trkpt lat="45.5476092" lon="10.4914077"><ele>251.00000000000003</ele><time>2026-03-29T07:10:09.289Z</time></trkpt><trkpt lat="45.5476472" lon="10.4912997"><ele>251.00000000000003</ele><time>2026-03-29T07:10:10.29Z</time></trkpt><trkpt lat="45.5476956" lon="10.4911992"><ele>251.0</ele><time>2026-03-29T07:10:11.29Z</time></trkpt><trkpt lat="45.5477705" lon="10.4910861"><ele>251.0</ele><time>2026-03-29T07:10:12.29Z</time></trkpt><trkpt lat="45.5478618" lon="10.4909718"><ele>250.8</ele><time>2026-03-29T07:10:13.29Z</time></trkpt><trkpt lat="45.5479441" lon="10.4908582"><ele>250.60000000000002</ele><time>2026-03-29T07:10:14.29Z</time></trkpt><trkpt lat="45.5480099" lon="10.4907343"><ele>250.4</ele><time>2026-03-29T07:10:15.289Z</time></trkpt><trkpt lat="45.5480552" lon="10.4906077"><ele>250.2</ele><time>2026-03-29T07:10:16.289Z</time></trkpt><trkpt lat="45.5480951" lon="10.4904709"><ele>250.0</ele><time>2026-03-29T07:10:17.29Z</time></trkpt><trkpt lat="45.548137" lon="10.4903293"><ele>249.99999999999997</ele><time>2026-03-29T07:10:18.29Z</time></trkpt><trkpt lat="45.5481767" lon="10.490195"><ele>250.0</ele><time>2026-03-29T07:10:19.289Z</time></trkpt><trkpt lat="45.5482129" lon="10.4900714"><ele>250.0</ele><time>2026-03-29T07:10:20.289Z</time></trkpt><trkpt lat="45.5482492" lon="10.4899661"><ele>250.0</ele><time>2026-03-29T07:10:21.29Z</time></trkpt><trkpt lat="45.5482821" lon="10.4898756"><ele>249.99999999999997</ele><time>2026-03-29T07:10:22.29Z</time></trkpt><trkpt lat="45.5483164" lon="10.4897916"><ele>250.0</ele><time>2026-03-29T07:10:23.289Z</time></trkpt><trkpt lat="45.5483544" lon="10.4897109"><ele>249.99999999999997</ele><time>2026-03-29T07:10:24.29Z</time></trkpt><trkpt lat="45.5484028" lon="10.4896241"><ele>250.0</ele><time>2026-03-29T07:10:25.289Z</time></trkpt><trkpt lat="45.5484618" lon="10.4895444"><ele>250.0</ele><time>2026-03-29T07:10:26.29Z</time></trkpt><trkpt lat="45.5485246" lon="10.4894777"><ele>250.0</ele><time>2026-03-29T07:10:27.29Z</time></trkpt><trkpt lat="45.5485872" lon="10.489419"><ele>249.99999999999997</ele><time>2026-03-29T07:10:28.289Z</time></trkpt><trkpt lat="45.5486596" lon="10.4893478"><ele>250.0</ele><time>2026-03-29T07:10:29.29Z</time></trkpt><trkpt lat="45.5487296" lon="10.4892594"><ele>250.0</ele><time>2026-03-29T07:10:30.289Z</time></trkpt><trkpt lat="45.5487858" lon="10.4891561"><ele>250.0</ele><time>2026-03-29T07:10:31.29Z</time></trkpt><trkpt lat="45.5488319" lon="10.4890259"><ele>250.0</ele><time>2026-03-29T07:10:32.289Z</time></trkpt><trkpt lat="45.54888" lon="10.4888686"><ele>250.0</ele><time>2026-03-29T07:10:33.289Z</time></trkpt><trkpt lat="45.54893" lon="10.4886905"><ele>250.0</ele><time>2026-03-29T07:10:34.29Z</time></trkpt><trkpt lat="45.54898" lon="10.4885165"><ele>249.8</ele><time>2026-03-29T07:10:35.289Z</time></trkpt><trkpt lat="45.5490212" lon="10.4883556"><ele>249.6</ele><time>2026-03-29T07:10:36.289Z</time></trkpt><trkpt lat="45.5490607" lon="10.4882027"><ele>249.39999999999998</ele><time>2026-03-29T07:10:37.289Z</time></trkpt><trkpt lat="45.5490821" lon="10.4880626"><ele>249.2</ele><time>2026-03-29T07:10:38.289Z</time></trkpt><trkpt lat="45.5490915" lon="10.48793"><ele>249.0</ele><time>2026-03-29T07:10:39.289Z</time></trkpt><trkpt lat="45.5491002" lon="10.4878148"><ele>249.0</ele><time>2026-03-29T07:10:40.289Z</time></trkpt><trkpt lat="45.5491148" lon="10.4877007"><ele>249.0</ele><time>2026-03-29T07:10:41.29Z</time></trkpt><trkpt lat="45.5491364" lon="10.4875785"><ele>249.0</ele><time>2026-03-29T07:10:42.29Z</time></trkpt><trkpt lat="45.5491558" lon="10.4874468"><ele>249.0</ele><time>2026-03-29T07:10:43.289Z</time></trkpt><trkpt lat="45.5491707" lon="10.4873237"><ele>249.0</ele><time>2026-03-29T07:10:44.289Z</time></trkpt><trkpt lat="45.5491779" lon="10.4871993"><ele>249.0</ele><time>2026-03-29T07:10:45.29Z</time></trkpt><trkpt lat="45.5492011" lon="10.4870592"><ele>249.2</ele><time>2026-03-29T07:10:46.29Z</time></trkpt><trkpt lat="45.5492222" lon="10.4869196"><ele>249.39999999999998</ele><time>2026-03-29T07:10:47.29Z</time></trkpt><trkpt lat="45.5492542" lon="10.4867847"><ele>249.6</ele><time>2026-03-29T07:10:48.29Z</time></trkpt><trkpt lat="45.5492982" lon="10.4866623"><ele>249.8</ele><time>2026-03-29T07:10:49.289Z</time></trkpt><trkpt lat="45.5493539" lon="10.4865668"><ele>250.0</ele><time>2026-03-29T07:10:50.289Z</time></trkpt><trkpt lat="45.549423" lon="10.4864897"><ele>250.0</ele><time>2026-03-29T07:10:51.29Z</time></trkpt><trkpt lat="45.5494926" lon="10.4864173"><ele>250.0</ele><time>2026-03-29T07:10:52.289Z</time></trkpt><trkpt lat="45.5495593" lon="10.4863552"><ele>250.0</ele><time>2026-03-29T07:10:53.289Z</time></trkpt><trkpt lat="45.5496149" lon="10.4863085"><ele>250.0</ele><time>2026-03-29T07:10:54.29Z</time></trkpt><trkpt lat="45.5496767" lon="10.4862095"><ele>250.0</ele><time>2026-03-29T07:10:56.29Z</time></trkpt><trkpt lat="45.5496375" lon="10.4860306"><ele>249.8</ele><time>2026-03-29T07:10:58.289Z</time></trkpt><trkpt lat="45.5495629" lon="10.4859206"><ele>249.6</ele><time>2026-03-29T07:10:59.29Z</time></trkpt><trkpt lat="45.5494768" lon="10.4858048"><ele>249.39999999999998</ele><time>2026-03-29T07:11:00.289Z</time></trkpt><trkpt lat="45.5493994" lon="10.4857026"><ele>249.2</ele><time>2026-03-29T07:11:01.289Z</time></trkpt><trkpt lat="45.5493417" lon="10.4856128"><ele>249.0</ele><time>2026-03-29T07:11:02.289Z</time></trkpt><trkpt lat="45.5493057" lon="10.4855317"><ele>249.6</ele><time>2026-03-29T07:11:03.29Z</time></trkpt><trkpt lat="45.5493014" lon="10.4853965"><ele>250.2</ele><time>2026-03-29T07:11:05.289Z</time></trkpt><trkpt lat="45.5493713" lon="10.4852482"><ele>250.79999999999998</ele><time>2026-03-29T07:11:07.289Z</time></trkpt><trkpt lat="45.5494285" lon="10.4851717"><ele>251.39999999999998</ele><time>2026-03-29T07:11:08.29Z</time></trkpt><trkpt lat="45.5494882" lon="10.4851046"><ele>252.0</ele><time>2026-03-29T07:11:09.289Z</time></trkpt><trkpt lat="45.5495563" lon="10.4850431"><ele>252.0</ele><time>2026-03-29T07:11:10.289Z</time></trkpt><trkpt lat="45.5496321" lon="10.4849869"><ele>252.0</ele><time>2026-03-29T07:11:11.289Z</time></trkpt><trkpt lat="45.5497137" lon="10.4849369"><ele>252.0</ele><time>2026-03-29T07:11:12.29Z</time></trkpt><trkpt lat="45.5497978" lon="10.4848765"><ele>252.0</ele><time>2026-03-29T07:11:13.29Z</time></trkpt><trkpt lat="45.5498819" lon="10.4847989"><ele>252.0</ele><time>2026-03-29T07:11:14.29Z</time></trkpt><trkpt lat="45.5499704" lon="10.4847033"><ele>252.0</ele><time>2026-03-29T07:11:15.29Z</time></trkpt><trkpt lat="45.550057" lon="10.4845973"><ele>252.0</ele><time>2026-03-29T07:11:16.29Z</time></trkpt><trkpt lat="45.5501437" lon="10.4845078"><ele>252.0</ele><time>2026-03-29T07:11:17.29Z</time></trkpt><trkpt lat="45.5502277" lon="10.4844338"><ele>252.0</ele><time>2026-03-29T07:11:18.289Z</time></trkpt><trkpt lat="45.5503144" lon="10.4843762"><ele>252.0</ele><time>2026-03-29T07:11:19.289Z</time></trkpt><trkpt lat="45.550407" lon="10.484325"><ele>252.83333333333334</ele><time>2026-03-29T07:11:20.29Z</time></trkpt><trkpt lat="45.5504962" lon="10.4842775"><ele>253.66666666666669</ele><time>2026-03-29T07:11:21.29Z</time></trkpt><trkpt lat="45.5505815" lon="10.4842308"><ele>254.5</ele><time>2026-03-29T07:11:22.29Z</time></trkpt><trkpt lat="45.5506625" lon="10.4841825"><ele>255.33333333333334</ele><time>2026-03-29T07:11:23.29Z</time></trkpt><trkpt lat="45.5507355" lon="10.4841378"><ele>256.1666666666667</ele><time>2026-03-29T07:11:24.29Z</time></trkpt><trkpt lat="45.550805" lon="10.4841095"><ele>257.0</ele><time>2026-03-29T07:11:25.289Z</time></trkpt><trkpt lat="45.5508739" lon="10.4841122"><ele>257.0</ele><time>2026-03-29T07:11:26.289Z</time></trkpt><trkpt lat="45.5509455" lon="10.4841425"><ele>257.0</ele><time>2026-03-29T07:11:27.29Z</time></trkpt><trkpt lat="45.5510232" lon="10.484198"><ele>257.0</ele><time>2026-03-29T07:11:28.29Z</time></trkpt><trkpt lat="45.5511174" lon="10.4842603"><ele>257.0</ele><time>2026-03-29T07:11:29.29Z</time></trkpt><trkpt lat="45.5512151" lon="10.4843216"><ele>257.0</ele><time>2026-03-29T07:11:30.29Z</time></trkpt><trkpt lat="45.5513201" lon="10.4843694"><ele>258.6</ele><time>2026-03-29T07:11:31.29Z</time></trkpt><trkpt lat="45.5514287" lon="10.4844063"><ele>260.2</ele><time>2026-03-29T07:11:32.289Z</time></trkpt><trkpt lat="45.5515383" lon="10.4844411"><ele>261.8</ele><time>2026-03-29T07:11:33.289Z</time></trkpt><trkpt lat="45.5516399" lon="10.4844724"><ele>263.4</ele><time>2026-03-29T07:11:34.29Z</time></trkpt><trkpt lat="45.5517369" lon="10.4845106"><ele>265.0</ele><time>2026-03-29T07:11:35.289Z</time></trkpt><trkpt lat="45.551834" lon="10.4845562"><ele>264.4</ele><time>2026-03-29T07:11:36.29Z</time></trkpt><trkpt lat="45.5519338" lon="10.4846121"><ele>263.8</ele><time>2026-03-29T07:11:37.29Z</time></trkpt><trkpt lat="45.5520244" lon="10.4846705"><ele>263.2</ele><time>2026-03-29T07:11:38.289Z</time></trkpt><trkpt lat="45.5521044" lon="10.4847277"><ele>262.6</ele><time>2026-03-29T07:11:39.289Z</time></trkpt><trkpt lat="45.5521841" lon="10.4847741"><ele>262.0</ele><time>2026-03-29T07:11:40.29Z</time></trkpt><trkpt lat="45.5522668" lon="10.4848138"><ele>262.0</ele><time>2026-03-29T07:11:41.29Z</time></trkpt><trkpt lat="45.5523559" lon="10.4848622"><ele>262.0</ele><time>2026-03-29T07:11:42.29Z</time></trkpt><trkpt lat="45.5524392" lon="10.4849154"><ele>262.0</ele><time>2026-03-29T07:11:43.29Z</time></trkpt><trkpt lat="45.5525161" lon="10.4849607"><ele>262.0</ele><time>2026-03-29T07:11:44.29Z</time></trkpt><trkpt lat="45.5525806" lon="10.4849955"><ele>262.0</ele><time>2026-03-29T07:11:45.29Z</time></trkpt><trkpt lat="45.5526815" lon="10.4850322"><ele>262.0</ele><time>2026-03-29T07:11:47.289Z</time></trkpt><trkpt lat="45.5527449" lon="10.4849868"><ele>262.0</ele><time>2026-03-29T07:12:04.289Z</time></trkpt><trkpt lat="45.5527617" lon="10.4848745"><ele>262.0</ele><time>2026-03-29T07:12:07.29Z</time></trkpt><trkpt lat="45.552705" lon="10.4847875"><ele>262.0</ele><time>2026-03-29T07:12:09.29Z</time></trkpt><trkpt lat="45.5526443" lon="10.4847512"><ele>262.0</ele><time>2026-03-29T07:12:10.29Z</time></trkpt><trkpt lat="45.5525797" lon="10.484717"><ele>262.0</ele><time>2026-03-29T07:12:11.29Z</time></trkpt><trkpt lat="45.5525154" lon="10.4846804"><ele>262.0</ele><time>2026-03-29T07:12:12.29Z</time></trkpt><trkpt lat="45.5524541" lon="10.4846396"><ele>262.0</ele><time>2026-03-29T07:12:13.289Z</time></trkpt><trkpt lat="45.5523865" lon="10.4845973"><ele>262.6</ele><time>2026-03-29T07:12:14.289Z</time></trkpt><trkpt lat="45.5523191" lon="10.4845503"><ele>263.2</ele><time>2026-03-29T07:12:15.289Z</time></trkpt><trkpt lat="45.5522139" lon="10.4844846"><ele>263.8</ele><time>2026-03-29T07:12:17.289Z</time></trkpt><trkpt lat="45.5521057" lon="10.4843815"><ele>264.4</ele><time>2026-03-29T07:12:19.289Z</time></trkpt><trkpt lat="45.5520468" lon="10.4843202"><ele>265.0</ele><time>2026-03-29T07:12:20.29Z</time></trkpt><trkpt lat="45.5519858" lon="10.4842591"><ele>265.0</ele><time>2026-03-29T07:12:21.29Z</time></trkpt><trkpt lat="45.5519286" lon="10.4841917"><ele>265.0</ele><time>2026-03-29T07:12:22.29Z</time></trkpt><trkpt lat="45.5518694" lon="10.4841001"><ele>265.0</ele><time>2026-03-29T07:12:23.29Z</time></trkpt><trkpt lat="45.5518078" lon="10.4840256"><ele>265.0</ele><time>2026-03-29T07:12:24.289Z</time></trkpt><trkpt lat="45.5517547" lon="10.4839499"><ele>265.0</ele><time>2026-03-29T07:12:25.29Z</time></trkpt><trkpt lat="45.5517097" lon="10.4838698"><ele>265.0</ele><time>2026-03-29T07:12:26.289Z</time></trkpt><trkpt lat="45.5516662" lon="10.4837756"><ele>266.2</ele><time>2026-03-29T07:12:27.289Z</time></trkpt><trkpt lat="45.5516256" lon="10.4836748"><ele>267.4</ele><time>2026-03-29T07:12:28.289Z</time></trkpt><trkpt lat="45.5515822" lon="10.483552"><ele>268.6</ele><time>2026-03-29T07:12:29.29Z</time></trkpt><trkpt lat="45.5515434" lon="10.4834146"><ele>269.8</ele><time>2026-03-29T07:12:30.289Z</time></trkpt><trkpt lat="45.5515031" lon="10.4832729"><ele>271.0</ele><time>2026-03-29T07:12:31.289Z</time></trkpt><trkpt lat="45.5514566" lon="10.4831337"><ele>271.0</ele><time>2026-03-29T07:12:32.29Z</time></trkpt><trkpt lat="45.5514141" lon="10.4829909"><ele>271.0</ele><time>2026-03-29T07:12:33.289Z</time></trkpt><trkpt lat="45.5513708" lon="10.4828501"><ele>271.0</ele><time>2026-03-29T07:12:34.29Z</time></trkpt><trkpt lat="45.5513323" lon="10.4827115"><ele>271.0</ele><time>2026-03-29T07:12:35.29Z</time></trkpt><trkpt lat="45.5512903" lon="10.482578"><ele>271.0</ele><time>2026-03-29T07:12:36.289Z</time></trkpt><trkpt lat="45.5512367" lon="10.4824413"><ele>270.75</ele><time>2026-03-29T07:12:37.29Z</time></trkpt><trkpt lat="45.5511657" lon="10.4823073"><ele>270.5</ele><time>2026-03-29T07:12:38.29Z</time></trkpt><trkpt lat="45.5510866" lon="10.4821778"><ele>270.25</ele><time>2026-03-29T07:12:39.29Z</time></trkpt><trkpt lat="45.5509996" lon="10.4820613"><ele>270.0</ele><time>2026-03-29T07:12:40.289Z</time></trkpt><trkpt lat="45.5509064" lon="10.4819493"><ele>270.0</ele><time>2026-03-29T07:12:41.289Z</time></trkpt><trkpt lat="45.5508028" lon="10.4818454"><ele>270.0</ele><time>2026-03-29T07:12:42.29Z</time></trkpt><trkpt lat="45.5506986" lon="10.4817453"><ele>270.0</ele><time>2026-03-29T07:12:43.289Z</time></trkpt><trkpt lat="45.5506001" lon="10.4816538"><ele>270.0</ele><time>2026-03-29T07:12:44.29Z</time></trkpt><trkpt lat="45.5505045" lon="10.4815636"><ele>270.0</ele><time>2026-03-29T07:12:45.29Z</time></trkpt><trkpt lat="45.5504083" lon="10.4814766"><ele>270.0</ele><time>2026-03-29T07:12:46.289Z</time></trkpt><trkpt lat="45.5503118" lon="10.4813834"><ele>270.0</ele><time>2026-03-29T07:12:47.29Z</time></trkpt><trkpt lat="45.550213" lon="10.4812861"><ele>270.0</ele><time>2026-03-29T07:12:48.29Z</time></trkpt><trkpt lat="45.5501135" lon="10.4811905"><ele>270.0</ele><time>2026-03-29T07:12:49.289Z</time></trkpt><trkpt lat="45.5500115" lon="10.4810963"><ele>270.0</ele><time>2026-03-29T07:12:50.29Z</time></trkpt><trkpt lat="45.5499196" lon="10.4810244"><ele>270.0</ele><time>2026-03-29T07:12:51.29Z</time></trkpt><trkpt lat="45.5498207" lon="10.4809645"><ele>270.0</ele><time>2026-03-29T07:12:52.289Z</time></trkpt><trkpt lat="45.5497049" lon="10.4809129"><ele>270.0</ele><time>2026-03-29T07:12:53.29Z</time></trkpt><trkpt lat="45.5495924" lon="10.4808645"><ele>270.0</ele><time>2026-03-29T07:12:54.29Z</time></trkpt><trkpt lat="45.5494859" lon="10.4808187"><ele>270.0</ele><time>2026-03-29T07:12:55.289Z</time></trkpt><trkpt lat="45.5493755" lon="10.4807731"><ele>270.0</ele><time>2026-03-29T07:12:56.289Z</time></trkpt><trkpt lat="45.5492831" lon="10.4807296"><ele>270.0</ele><time>2026-03-29T07:12:57.29Z</time></trkpt><trkpt lat="45.5492023" lon="10.4806906"><ele>270.2</ele><time>2026-03-29T07:12:58.289Z</time></trkpt><trkpt lat="45.5491295" lon="10.4806563"><ele>270.4</ele><time>2026-03-29T07:12:59.289Z</time></trkpt><trkpt lat="45.5490632" lon="10.4806252"><ele>270.6</ele><time>2026-03-29T07:13:00.29Z</time></trkpt><trkpt lat="45.5489624" lon="10.4805633"><ele>270.8</ele><time>2026-03-29T07:13:02.289Z</time></trkpt><trkpt lat="45.5489269" lon="10.4804687"><ele>271.0</ele><time>2026-03-29T07:13:04.29Z</time></trkpt><trkpt lat="45.5489298" lon="10.4802907"><ele>271.0</ele><time>2026-03-29T07:13:06.29Z</time></trkpt><trkpt lat="45.5489054" lon="10.4801807"><ele>271.0</ele><time>2026-03-29T07:13:07.289Z</time></trkpt><trkpt lat="45.548851" lon="10.4800612"><ele>271.0</ele><time>2026-03-29T07:13:08.289Z</time></trkpt><trkpt lat="45.5487774" lon="10.4799529"><ele>271.0</ele><time>2026-03-29T07:13:09.289Z</time></trkpt><trkpt lat="45.5487049" lon="10.4798428"><ele>271.0</ele><time>2026-03-29T07:13:10.29Z</time></trkpt><trkpt lat="45.5486426" lon="10.4797372"><ele>270.2</ele><time>2026-03-29T07:13:11.289Z</time></trkpt><trkpt lat="45.5485949" lon="10.4796191"><ele>269.40000000000003</ele><time>2026-03-29T07:13:12.29Z</time></trkpt><trkpt lat="45.5485584" lon="10.4794958"><ele>268.6</ele><time>2026-03-29T07:13:13.289Z</time></trkpt><trkpt lat="45.5485151" lon="10.4793479"><ele>267.8</ele><time>2026-03-29T07:13:14.289Z</time></trkpt><trkpt lat="45.5484727" lon="10.4791962"><ele>267.0</ele><time>2026-03-29T07:13:15.29Z</time></trkpt><trkpt lat="45.5484311" lon="10.4790363"><ele>267.0</ele><time>2026-03-29T07:13:16.29Z</time></trkpt><trkpt lat="45.5483921" lon="10.4788741"><ele>267.0</ele><time>2026-03-29T07:13:17.289Z</time></trkpt><trkpt lat="45.5483524" lon="10.4787034"><ele>267.0</ele><time>2026-03-29T07:13:18.289Z</time></trkpt><trkpt lat="45.548309" lon="10.4785387"><ele>267.0</ele><time>2026-03-29T07:13:19.29Z</time></trkpt><trkpt lat="45.5482539" lon="10.4784009"><ele>267.25</ele><time>2026-03-29T07:13:20.29Z</time></trkpt><trkpt lat="45.5481908" lon="10.4782738"><ele>267.5</ele><time>2026-03-29T07:13:21.29Z</time></trkpt><trkpt lat="45.5481254" lon="10.4781472"><ele>267.75</ele><time>2026-03-29T07:13:22.289Z</time></trkpt><trkpt lat="45.5480572" lon="10.4780091"><ele>268.0</ele><time>2026-03-29T07:13:23.289Z</time></trkpt><trkpt lat="45.5479874" lon="10.4778653"><ele>268.75</ele><time>2026-03-29T07:13:24.289Z</time></trkpt><trkpt lat="45.5479213" lon="10.4777219"><ele>269.5</ele><time>2026-03-29T07:13:25.29Z</time></trkpt><trkpt lat="45.5478587" lon="10.4775659"><ele>270.25</ele><time>2026-03-29T07:13:26.29Z</time></trkpt><trkpt lat="45.5478028" lon="10.4774114"><ele>271.0</ele><time>2026-03-29T07:13:27.289Z</time></trkpt><trkpt lat="45.5477489" lon="10.4772493"><ele>273.5</ele><time>2026-03-29T07:13:28.289Z</time></trkpt><trkpt lat="45.5476907" lon="10.4770805"><ele>276.0</ele><time>2026-03-29T07:13:29.29Z</time></trkpt><trkpt lat="45.5476258" lon="10.4769298"><ele>278.5</ele><time>2026-03-29T07:13:30.29Z</time></trkpt><trkpt lat="45.5475682" lon="10.476796"><ele>281.0</ele><time>2026-03-29T07:13:31.29Z</time></trkpt><trkpt lat="45.5475135" lon="10.4766743"><ele>281.0</ele><time>2026-03-29T07:13:32.29Z</time></trkpt><trkpt lat="45.5474664" lon="10.4765728"><ele>281.0</ele><time>2026-03-29T07:13:33.289Z</time></trkpt><trkpt lat="45.5474139" lon="10.4764911"><ele>281.0</ele><time>2026-03-29T07:13:34.29Z</time></trkpt><trkpt lat="45.5473542" lon="10.4764195"><ele>281.0</ele><time>2026-03-29T07:13:35.289Z</time></trkpt><trkpt lat="45.5472857" lon="10.4763492"><ele>281.0</ele><time>2026-03-29T07:13:36.289Z</time></trkpt><trkpt lat="45.5472185" lon="10.4762696"><ele>281.0</ele><time>2026-03-29T07:13:37.289Z</time></trkpt><trkpt lat="45.5471562" lon="10.4761869"><ele>281.83333333333337</ele><time>2026-03-29T07:13:38.289Z</time></trkpt><trkpt lat="45.5470966" lon="10.4760907"><ele>282.6666666666667</ele><time>2026-03-29T07:13:39.29Z</time></trkpt><trkpt lat="45.5470436" lon="10.4759955"><ele>283.5</ele><time>2026-03-29T07:13:40.29Z</time></trkpt><trkpt lat="45.5469937" lon="10.4758947"><ele>284.3333333333333</ele><time>2026-03-29T07:13:41.289Z</time></trkpt><trkpt lat="45.5469495" lon="10.4757851"><ele>285.16666666666663</ele><time>2026-03-29T07:13:42.289Z</time></trkpt><trkpt lat="45.546895" lon="10.4756713"><ele>286.0</ele><time>2026-03-29T07:13:43.29Z</time></trkpt><trkpt lat="45.5468333" lon="10.4755586"><ele>285.8</ele><time>2026-03-29T07:13:44.29Z</time></trkpt><trkpt lat="45.5467679" lon="10.4754678"><ele>285.6</ele><time>2026-03-29T07:13:45.289Z</time></trkpt><trkpt lat="45.5467007" lon="10.4753805"><ele>285.4</ele><time>2026-03-29T07:13:46.29Z</time></trkpt><trkpt lat="45.5466368" lon="10.4752967"><ele>285.2</ele><time>2026-03-29T07:13:47.289Z</time></trkpt><trkpt lat="45.5465695" lon="10.4752133"><ele>285.0</ele><time>2026-03-29T07:13:48.289Z</time></trkpt><trkpt lat="45.5464988" lon="10.475127"><ele>285.0</ele><time>2026-03-29T07:13:49.29Z</time></trkpt><trkpt lat="45.5464248" lon="10.4750491"><ele>285.0</ele><time>2026-03-29T07:13:50.289Z</time></trkpt><trkpt lat="45.5463522" lon="10.4749697"><ele>285.0</ele><time>2026-03-29T07:13:51.29Z</time></trkpt><trkpt lat="45.5463023" lon="10.4748904"><ele>285.0</ele><time>2026-03-29T07:13:52.289Z</time></trkpt><trkpt lat="45.5462561" lon="10.4748212"><ele>285.0</ele><time>2026-03-29T07:13:53.29Z</time></trkpt><trkpt lat="45.5461902" lon="10.4746969"><ele>285.0</ele><time>2026-03-29T07:13:55.289Z</time></trkpt><trkpt lat="45.5461831" lon="10.474538"><ele>284.8</ele><time>2026-03-29T07:13:57.29Z</time></trkpt><trkpt lat="45.5461894" lon="10.4744289"><ele>284.6</ele><time>2026-03-29T07:13:58.29Z</time></trkpt><trkpt lat="45.5462129" lon="10.4743004"><ele>284.4</ele><time>2026-03-29T07:13:59.29Z</time></trkpt><trkpt lat="45.5462514" lon="10.4741567"><ele>284.2</ele><time>2026-03-29T07:14:00.289Z</time></trkpt><trkpt lat="45.5463227" lon="10.4739886"><ele>284.0</ele><time>2026-03-29T07:14:01.29Z</time></trkpt><trkpt lat="45.546405" lon="10.4738114"><ele>281.75</ele><time>2026-03-29T07:14:02.29Z</time></trkpt><trkpt lat="45.5464849" lon="10.4736461"><ele>279.5</ele><time>2026-03-29T07:14:03.29Z</time></trkpt><trkpt lat="45.5465669" lon="10.473491"><ele>277.25</ele><time>2026-03-29T07:14:04.289Z</time></trkpt><trkpt lat="45.5466351" lon="10.4733459"><ele>275.0</ele><time>2026-03-29T07:14:05.29Z</time></trkpt><trkpt lat="45.5466969" lon="10.4732033"><ele>275.0</ele><time>2026-03-29T07:14:06.289Z</time></trkpt><trkpt lat="45.5467562" lon="10.4730659"><ele>275.0</ele><time>2026-03-29T07:14:07.29Z</time></trkpt><trkpt lat="45.5468106" lon="10.4729314"><ele>275.0</ele><time>2026-03-29T07:14:08.29Z</time></trkpt><trkpt lat="45.5468607" lon="10.4728065"><ele>275.0</ele><time>2026-03-29T07:14:09.289Z</time></trkpt><trkpt lat="45.5469113" lon="10.4726951"><ele>275.0</ele><time>2026-03-29T07:14:10.289Z</time></trkpt><trkpt lat="45.5469716" lon="10.4725965"><ele>274.33333333333337</ele><time>2026-03-29T07:14:11.289Z</time></trkpt><trkpt lat="45.5470458" lon="10.4725145"><ele>273.6666666666667</ele><time>2026-03-29T07:14:12.29Z</time></trkpt><trkpt lat="45.5471266" lon="10.4724513"><ele>273.0</ele><time>2026-03-29T07:14:13.289Z</time></trkpt><trkpt lat="45.5472068" lon="10.4724027"><ele>272.3333333333333</ele><time>2026-03-29T07:14:14.289Z</time></trkpt><trkpt lat="45.5472772" lon="10.4723896"><ele>271.66666666666663</ele><time>2026-03-29T07:14:15.29Z</time></trkpt><trkpt lat="45.5473435" lon="10.4724033"><ele>271.0</ele><time>2026-03-29T07:14:16.29Z</time></trkpt><trkpt lat="45.5474215" lon="10.4724606"><ele>271.0</ele><time>2026-03-29T07:14:17.289Z</time></trkpt><trkpt lat="45.5475113" lon="10.4725378"><ele>271.0</ele><time>2026-03-29T07:14:18.289Z</time></trkpt><trkpt lat="45.547615" lon="10.4726275"><ele>271.0</ele><time>2026-03-29T07:14:19.289Z</time></trkpt><trkpt lat="45.547724" lon="10.4727292"><ele>271.0</ele><time>2026-03-29T07:14:20.289Z</time></trkpt><trkpt lat="45.5478422" lon="10.4728212"><ele>271.5</ele><time>2026-03-29T07:14:21.29Z</time></trkpt><trkpt lat="45.5479636" lon="10.4728996"><ele>272.0</ele><time>2026-03-29T07:14:22.29Z</time></trkpt><trkpt lat="45.5480815" lon="10.4729728"><ele>272.5</ele><time>2026-03-29T07:14:23.29Z</time></trkpt><trkpt lat="45.548184" lon="10.4730452"><ele>273.0</ele><time>2026-03-29T07:14:24.29Z</time></trkpt><trkpt lat="45.5482774" lon="10.4731093"><ele>275.25</ele><time>2026-03-29T07:14:25.289Z</time></trkpt><trkpt lat="45.5483766" lon="10.4731804"><ele>277.5</ele><time>2026-03-29T07:14:26.29Z</time></trkpt><trkpt lat="45.5484777" lon="10.47326"><ele>279.75</ele><time>2026-03-29T07:14:27.29Z</time></trkpt><trkpt lat="45.5485818" lon="10.473341"><ele>282.0</ele><time>2026-03-29T07:14:28.29Z</time></trkpt><trkpt lat="45.5486805" lon="10.4734319"><ele>282.0</ele><time>2026-03-29T07:14:29.289Z</time></trkpt><trkpt lat="45.5487837" lon="10.4735272"><ele>282.0</ele><time>2026-03-29T07:14:30.289Z</time></trkpt><trkpt lat="45.5488883" lon="10.4736245"><ele>282.0</ele><time>2026-03-29T07:14:31.289Z</time></trkpt><trkpt lat="45.5490023" lon="10.4737267"><ele>282.0</ele><time>2026-03-29T07:14:32.29Z</time></trkpt><trkpt lat="45.5491165" lon="10.4738175"><ele>283.0</ele><time>2026-03-29T07:14:33.29Z</time></trkpt><trkpt lat="45.5492318" lon="10.4739109"><ele>284.0</ele><time>2026-03-29T07:14:34.29Z</time></trkpt><trkpt lat="45.5493442" lon="10.4740198"><ele>285.0</ele><time>2026-03-29T07:14:35.289Z</time></trkpt><trkpt lat="45.5494452" lon="10.4741406"><ele>286.0</ele><time>2026-03-29T07:14:36.289Z</time></trkpt><trkpt lat="45.5495432" lon="10.4742653"><ele>286.0</ele><time>2026-03-29T07:14:37.289Z</time></trkpt><trkpt lat="45.5496384" lon="10.4743902"><ele>286.0</ele><time>2026-03-29T07:14:38.29Z</time></trkpt><trkpt lat="45.54974" lon="10.4745101"><ele>286.0</ele><time>2026-03-29T07:14:39.29Z</time></trkpt><trkpt lat="45.549847" lon="10.4746195"><ele>286.0</ele><time>2026-03-29T07:14:40.289Z</time></trkpt><trkpt lat="45.5499637" lon="10.4747252"><ele>286.75</ele><time>2026-03-29T07:14:41.29Z</time></trkpt><trkpt lat="45.5500849" lon="10.4748352"><ele>287.5</ele><time>2026-03-29T07:14:42.289Z</time></trkpt><trkpt lat="45.5502094" lon="10.4749442"><ele>288.25</ele><time>2026-03-29T07:14:43.29Z</time></trkpt><trkpt lat="45.5503296" lon="10.4750608"><ele>289.0</ele><time>2026-03-29T07:14:44.29Z</time></trkpt><trkpt lat="45.550446" lon="10.4751825"><ele>289.0</ele><time>2026-03-29T07:14:45.289Z</time></trkpt><trkpt lat="45.550556" lon="10.4753137"><ele>289.0</ele><time>2026-03-29T07:14:46.289Z</time></trkpt><trkpt lat="45.5506604" lon="10.4754516"><ele>289.0</ele><time>2026-03-29T07:14:47.29Z</time></trkpt><trkpt lat="45.5507604" lon="10.4755849"><ele>289.0</ele><time>2026-03-29T07:14:48.289Z</time></trkpt><trkpt lat="45.5508703" lon="10.4757161"><ele>290.25</ele><time>2026-03-29T07:14:49.29Z</time></trkpt><trkpt lat="45.5509823" lon="10.4758411"><ele>291.5</ele><time>2026-03-29T07:14:50.29Z</time></trkpt><trkpt lat="45.5510899" lon="10.4759588"><ele>292.75</ele><time>2026-03-29T07:14:51.29Z</time></trkpt><trkpt lat="45.5512179" lon="10.4760578"><ele>294.0</ele><time>2026-03-29T07:14:52.29Z</time></trkpt><trkpt lat="45.5513585" lon="10.476157"><ele>294.0</ele><time>2026-03-29T07:14:53.29Z</time></trkpt><trkpt lat="45.5515058" lon="10.4762478"><ele>294.0</ele><time>2026-03-29T07:14:54.29Z</time></trkpt><trkpt lat="45.5516459" lon="10.4763349"><ele>294.0</ele><time>2026-03-29T07:14:55.289Z</time></trkpt><trkpt lat="45.5517789" lon="10.4764263"><ele>295.5</ele><time>2026-03-29T07:14:56.289Z</time></trkpt><trkpt lat="45.5519134" lon="10.4765205"><ele>297.0</ele><time>2026-03-29T07:14:57.289Z</time></trkpt><trkpt lat="45.5520419" lon="10.4766209"><ele>298.5</ele><time>2026-03-29T07:14:58.29Z</time></trkpt><trkpt lat="45.5521685" lon="10.4767311"><ele>300.0</ele><time>2026-03-29T07:14:59.29Z</time></trkpt><trkpt lat="45.5522805" lon="10.4768493"><ele>300.0</ele><time>2026-03-29T07:15:00.289Z</time></trkpt><trkpt lat="45.5523893" lon="10.4769693"><ele>300.0</ele><time>2026-03-29T07:15:01.289Z</time></trkpt><trkpt lat="45.5524976" lon="10.4770931"><ele>300.0</ele><time>2026-03-29T07:15:02.289Z</time></trkpt><trkpt lat="45.5526019" lon="10.4772218"><ele>300.0</ele><time>2026-03-29T07:15:03.29Z</time></trkpt><trkpt lat="45.5527078" lon="10.4773444"><ele>301.25</ele><time>2026-03-29T07:15:04.29Z</time></trkpt><trkpt lat="45.5528182" lon="10.477464"><ele>302.5</ele><time>2026-03-29T07:15:05.289Z</time></trkpt><trkpt lat="45.552937" lon="10.4775867"><ele>303.75</ele><time>2026-03-29T07:15:06.289Z</time></trkpt><trkpt lat="45.5530612" lon="10.4777176"><ele>305.0</ele><time>2026-03-29T07:15:07.29Z</time></trkpt><trkpt lat="45.5531833" lon="10.4778437"><ele>307.25</ele><time>2026-03-29T07:15:08.289Z</time></trkpt><trkpt lat="45.5533083" lon="10.4779713"><ele>309.5</ele><time>2026-03-29T07:15:09.29Z</time></trkpt><trkpt lat="45.5534204" lon="10.4781132"><ele>311.75</ele><time>2026-03-29T07:15:10.29Z</time></trkpt><trkpt lat="45.5535128" lon="10.4782629"><ele>314.0</ele><time>2026-03-29T07:15:11.29Z</time></trkpt><trkpt lat="45.5535967" lon="10.4784219"><ele>314.0</ele><time>2026-03-29T07:15:12.29Z</time></trkpt><trkpt lat="45.5536682" lon="10.4785777"><ele>314.0</ele><time>2026-03-29T07:15:13.29Z</time></trkpt><trkpt lat="45.5537279" lon="10.4787356"><ele>314.0</ele><time>2026-03-29T07:15:14.29Z</time></trkpt><trkpt lat="45.5537852" lon="10.4788832"><ele>314.0</ele><time>2026-03-29T07:15:15.29Z</time></trkpt><trkpt lat="45.5538447" lon="10.4790291"><ele>313.75</ele><time>2026-03-29T07:15:16.289Z</time></trkpt><trkpt lat="45.5538866" lon="10.4791771"><ele>313.5</ele><time>2026-03-29T07:15:17.289Z</time></trkpt><trkpt lat="45.5539046" lon="10.4793357"><ele>313.25</ele><time>2026-03-29T07:15:18.29Z</time></trkpt><trkpt lat="45.5539132" lon="10.4795012"><ele>313.0</ele><time>2026-03-29T07:15:19.29Z</time></trkpt><trkpt lat="45.5539155" lon="10.4796723"><ele>314.0</ele><time>2026-03-29T07:15:20.29Z</time></trkpt><trkpt lat="45.5539213" lon="10.47985"><ele>315.0</ele><time>2026-03-29T07:15:21.29Z</time></trkpt><trkpt lat="45.5539616" lon="10.4800319"><ele>316.0</ele><time>2026-03-29T07:15:22.289Z</time></trkpt><trkpt lat="45.5540045" lon="10.4802069"><ele>317.0</ele><time>2026-03-29T07:15:23.289Z</time></trkpt><trkpt lat="45.5540544" lon="10.480369"><ele>317.8</ele><time>2026-03-29T07:15:24.29Z</time></trkpt><trkpt lat="45.5541049" lon="10.480517"><ele>318.6</ele><time>2026-03-29T07:15:25.29Z</time></trkpt><trkpt lat="45.5541597" lon="10.4806675"><ele>319.40000000000003</ele><time>2026-03-29T07:15:26.29Z</time></trkpt><trkpt lat="45.5542104" lon="10.4808098"><ele>320.2</ele><time>2026-03-29T07:15:27.29Z</time></trkpt><trkpt lat="45.5542412" lon="10.4809448"><ele>321.0</ele><time>2026-03-29T07:15:28.289Z</time></trkpt><trkpt lat="45.5542567" lon="10.4810584"><ele>321.0</ele><time>2026-03-29T07:15:29.289Z</time></trkpt><trkpt lat="45.5542749" lon="10.4811541"><ele>321.0</ele><time>2026-03-29T07:15:30.29Z</time></trkpt><trkpt lat="45.5543164" lon="10.4812838"><ele>321.0</ele><time>2026-03-29T07:15:32.29Z</time></trkpt><trkpt lat="45.5544069" lon="10.481405"><ele>321.0</ele><time>2026-03-29T07:15:34.29Z</time></trkpt><trkpt lat="45.5544745" lon="10.4814763"><ele>321.0</ele><time>2026-03-29T07:15:35.288Z</time></trkpt><trkpt lat="45.5545504" lon="10.4815578"><ele>320.8</ele><time>2026-03-29T07:15:36.289Z</time></trkpt><trkpt lat="45.5546357" lon="10.4816344"><ele>320.6</ele><time>2026-03-29T07:15:37.288Z</time></trkpt><trkpt lat="45.5547345" lon="10.4817094"><ele>320.4</ele><time>2026-03-29T07:15:38.288Z</time></trkpt><trkpt lat="45.554828" lon="10.4817851"><ele>320.2</ele><time>2026-03-29T07:15:39.288Z</time></trkpt><trkpt lat="45.554916" lon="10.4818562"><ele>320.0</ele><time>2026-03-29T07:15:40.289Z</time></trkpt><trkpt lat="45.5549899" lon="10.4819269"><ele>320.0</ele><time>2026-03-29T07:15:41.289Z</time></trkpt><trkpt lat="45.5550597" lon="10.4819967"><ele>320.0</ele><time>2026-03-29T07:15:42.289Z</time></trkpt><trkpt lat="45.5551285" lon="10.4820688"><ele>320.0</ele><time>2026-03-29T07:15:43.289Z</time></trkpt><trkpt lat="45.5551942" lon="10.4821553"><ele>320.0</ele><time>2026-03-29T07:15:44.288Z</time></trkpt><trkpt lat="45.5552686" lon="10.4822426"><ele>320.0</ele><time>2026-03-29T07:15:45.289Z</time></trkpt><trkpt lat="45.5553555" lon="10.4823188"><ele>321.0</ele><time>2026-03-29T07:15:46.289Z</time></trkpt><trkpt lat="45.555441" lon="10.482387"><ele>322.0</ele><time>2026-03-29T07:15:47.288Z</time></trkpt><trkpt lat="45.5555273" lon="10.4824491"><ele>323.0</ele><time>2026-03-29T07:15:48.288Z</time></trkpt><trkpt lat="45.5556226" lon="10.4825027"><ele>324.0</ele><time>2026-03-29T07:15:49.289Z</time></trkpt><trkpt lat="45.5557278" lon="10.4825522"><ele>325.0</ele><time>2026-03-29T07:15:50.289Z</time></trkpt><trkpt lat="45.5558352" lon="10.4826029"><ele>325.0</ele><time>2026-03-29T07:15:51.289Z</time></trkpt><trkpt lat="45.5559411" lon="10.4826571"><ele>325.0</ele><time>2026-03-29T07:15:52.289Z</time></trkpt><trkpt lat="45.5560462" lon="10.4827185"><ele>325.0</ele><time>2026-03-29T07:15:53.289Z</time></trkpt><trkpt lat="45.5561488" lon="10.482773"><ele>325.0</ele><time>2026-03-29T07:15:54.288Z</time></trkpt><trkpt lat="45.5562533" lon="10.4828291"><ele>325.0</ele><time>2026-03-29T07:15:55.288Z</time></trkpt><trkpt lat="45.5563544" lon="10.4828829"><ele>326.4</ele><time>2026-03-29T07:15:56.288Z</time></trkpt><trkpt lat="45.5564616" lon="10.4829393"><ele>327.8</ele><time>2026-03-29T07:15:57.289Z</time></trkpt><trkpt lat="45.5565556" lon="10.4829872"><ele>329.20000000000005</ele><time>2026-03-29T07:15:58.289Z</time></trkpt><trkpt lat="45.5566449" lon="10.48304"><ele>330.6</ele><time>2026-03-29T07:15:59.289Z</time></trkpt><trkpt lat="45.5567276" lon="10.483084"><ele>332.0</ele><time>2026-03-29T07:16:00.288Z</time></trkpt><trkpt lat="45.5568166" lon="10.4831086"><ele>332.0</ele><time>2026-03-29T07:16:01.289Z</time></trkpt><trkpt lat="45.5569108" lon="10.4831267"><ele>332.0</ele><time>2026-03-29T07:16:02.289Z</time></trkpt><trkpt lat="45.5570144" lon="10.4831447"><ele>332.0</ele><time>2026-03-29T07:16:03.288Z</time></trkpt><trkpt lat="45.5571118" lon="10.4831644"><ele>332.0</ele><time>2026-03-29T07:16:04.288Z</time></trkpt><trkpt lat="45.5572096" lon="10.483185"><ele>332.0</ele><time>2026-03-29T07:16:05.288Z</time></trkpt><trkpt lat="45.5573177" lon="10.4831899"><ele>332.0</ele><time>2026-03-29T07:16:06.289Z</time></trkpt><trkpt lat="45.5574308" lon="10.4831894"><ele>332.0</ele><time>2026-03-29T07:16:07.289Z</time></trkpt><trkpt lat="45.5575487" lon="10.4831946"><ele>332.0</ele><time>2026-03-29T07:16:08.289Z</time></trkpt><trkpt lat="45.5576726" lon="10.4832001"><ele>332.0</ele><time>2026-03-29T07:16:09.289Z</time></trkpt><trkpt lat="45.5577998" lon="10.4832135"><ele>331.5</ele><time>2026-03-29T07:16:10.288Z</time></trkpt><trkpt lat="45.5579302" lon="10.4832308"><ele>331.0</ele><time>2026-03-29T07:16:11.288Z</time></trkpt><trkpt lat="45.5580625" lon="10.4832522"><ele>330.5</ele><time>2026-03-29T07:16:12.289Z</time></trkpt><trkpt lat="45.558196" lon="10.4832739"><ele>330.0</ele><time>2026-03-29T07:16:13.288Z</time></trkpt><trkpt lat="45.5583247" lon="10.4832949"><ele>330.0</ele><time>2026-03-29T07:16:14.289Z</time></trkpt><trkpt lat="45.5584481" lon="10.4833175"><ele>330.0</ele><time>2026-03-29T07:16:15.289Z</time></trkpt><trkpt lat="45.5585633" lon="10.4833379"><ele>330.0</ele><time>2026-03-29T07:16:16.288Z</time></trkpt><trkpt lat="45.5586797" lon="10.4833528"><ele>330.0</ele><time>2026-03-29T07:16:17.288Z</time></trkpt><trkpt lat="45.5587972" lon="10.4833717"><ele>329.75</ele><time>2026-03-29T07:16:18.288Z</time></trkpt><trkpt lat="45.5589162" lon="10.483398"><ele>329.5</ele><time>2026-03-29T07:16:19.289Z</time></trkpt><trkpt lat="45.5590381" lon="10.4834225"><ele>329.25</ele><time>2026-03-29T07:16:20.288Z</time></trkpt><trkpt lat="45.55917" lon="10.4834518"><ele>329.0</ele><time>2026-03-29T07:16:21.288Z</time></trkpt><trkpt lat="45.5592983" lon="10.4834755"><ele>329.0</ele><time>2026-03-29T07:16:22.288Z</time></trkpt><trkpt lat="45.559426" lon="10.4834929"><ele>329.0</ele><time>2026-03-29T07:16:23.288Z</time></trkpt><trkpt lat="45.5595419" lon="10.4835139"><ele>329.0</ele><time>2026-03-29T07:16:24.289Z</time></trkpt><trkpt lat="45.5596495" lon="10.4835328"><ele>329.0</ele><time>2026-03-29T07:16:25.288Z</time></trkpt><trkpt lat="45.559763" lon="10.4835453"><ele>328.25</ele><time>2026-03-29T07:16:26.288Z</time></trkpt><trkpt lat="45.5598759" lon="10.4835547"><ele>327.5</ele><time>2026-03-29T07:16:27.289Z</time></trkpt><trkpt lat="45.5599997" lon="10.4835522"><ele>326.75</ele><time>2026-03-29T07:16:28.288Z</time></trkpt><trkpt lat="45.5601147" lon="10.4835344"><ele>326.0</ele><time>2026-03-29T07:16:29.288Z</time></trkpt><trkpt lat="45.5602359" lon="10.4835115"><ele>326.0</ele><time>2026-03-29T07:16:30.289Z</time></trkpt><trkpt lat="45.5603572" lon="10.4834757"><ele>326.0</ele><time>2026-03-29T07:16:31.288Z</time></trkpt><trkpt lat="45.5604762" lon="10.4834301"><ele>326.0</ele><time>2026-03-29T07:16:32.288Z</time></trkpt><trkpt lat="45.5605979" lon="10.4833674"><ele>326.0</ele><time>2026-03-29T07:16:33.288Z</time></trkpt><trkpt lat="45.5607142" lon="10.4832954"><ele>325.6</ele><time>2026-03-29T07:16:34.289Z</time></trkpt><trkpt lat="45.5608188" lon="10.4832209"><ele>325.20000000000005</ele><time>2026-03-29T07:16:35.289Z</time></trkpt><trkpt lat="45.5609212" lon="10.4831442"><ele>324.79999999999995</ele><time>2026-03-29T07:16:36.288Z</time></trkpt><trkpt lat="45.5610073" lon="10.4830821"><ele>324.4</ele><time>2026-03-29T07:16:37.288Z</time></trkpt><trkpt lat="45.5610962" lon="10.4830356"><ele>324.0</ele><time>2026-03-29T07:16:38.289Z</time></trkpt><trkpt lat="45.5611819" lon="10.4830081"><ele>324.0</ele><time>2026-03-29T07:16:39.288Z</time></trkpt><trkpt lat="45.5612578" lon="10.482981"><ele>324.0</ele><time>2026-03-29T07:16:40.289Z</time></trkpt><trkpt lat="45.5613293" lon="10.4829574"><ele>324.0</ele><time>2026-03-29T07:16:41.289Z</time></trkpt><trkpt lat="45.5614118" lon="10.4829065"><ele>324.0</ele><time>2026-03-29T07:16:43.288Z</time></trkpt><trkpt lat="45.5613836" lon="10.4827922"><ele>324.0</ele><time>2026-03-29T07:16:46.289Z</time></trkpt><trkpt lat="45.5613532" lon="10.4827092"><ele>324.0</ele><time>2026-03-29T07:16:47.289Z</time></trkpt><trkpt lat="45.5612956" lon="10.4825855"><ele>324.0</ele><time>2026-03-29T07:16:48.288Z</time></trkpt><trkpt lat="45.5612254" lon="10.4824352"><ele>324.0</ele><time>2026-03-29T07:16:49.288Z</time></trkpt><trkpt lat="45.561152" lon="10.4822724"><ele>324.0</ele><time>2026-03-29T07:16:50.288Z</time></trkpt><trkpt lat="45.5610874" lon="10.482106"><ele>324.0</ele><time>2026-03-29T07:16:51.289Z</time></trkpt><trkpt lat="45.5610256" lon="10.4819363"><ele>323.75</ele><time>2026-03-29T07:16:52.289Z</time></trkpt><trkpt lat="45.5609623" lon="10.4817786"><ele>323.5</ele><time>2026-03-29T07:16:53.288Z</time></trkpt><trkpt lat="45.5608927" lon="10.481634"><ele>323.25</ele><time>2026-03-29T07:16:54.289Z</time></trkpt><trkpt lat="45.5608117" lon="10.4814901"><ele>323.0</ele><time>2026-03-29T07:16:55.289Z</time></trkpt><trkpt lat="45.5607149" lon="10.4813623"><ele>325.0</ele><time>2026-03-29T07:16:56.288Z</time></trkpt><trkpt lat="45.5606042" lon="10.481265"><ele>327.0</ele><time>2026-03-29T07:16:57.289Z</time></trkpt><trkpt lat="45.5604926" lon="10.4811923"><ele>329.0</ele><time>2026-03-29T07:16:58.289Z</time></trkpt><trkpt lat="45.5603692" lon="10.4811346"><ele>331.0</ele><time>2026-03-29T07:16:59.288Z</time></trkpt><trkpt lat="45.5602508" lon="10.4810728"><ele>332.5</ele><time>2026-03-29T07:17:00.289Z</time></trkpt><trkpt lat="45.560126" lon="10.4810179"><ele>334.0</ele><time>2026-03-29T07:17:01.289Z</time></trkpt><trkpt lat="45.5600072" lon="10.4809634"><ele>335.5</ele><time>2026-03-29T07:17:02.288Z</time></trkpt><trkpt lat="45.5599082" lon="10.4809058"><ele>337.0</ele><time>2026-03-29T07:17:03.289Z</time></trkpt><trkpt lat="45.5598308" lon="10.4808162"><ele>337.0</ele><time>2026-03-29T07:17:04.288Z</time></trkpt><trkpt lat="45.5597613" lon="10.4807007"><ele>337.0</ele><time>2026-03-29T07:17:05.288Z</time></trkpt><trkpt lat="45.5597149" lon="10.4805759"><ele>337.0</ele><time>2026-03-29T07:17:06.289Z</time></trkpt><trkpt lat="45.5596903" lon="10.4804555"><ele>337.0</ele><time>2026-03-29T07:17:07.289Z</time></trkpt><trkpt lat="45.5596767" lon="10.4803452"><ele>337.0</ele><time>2026-03-29T07:17:08.289Z</time></trkpt><trkpt lat="45.5596674" lon="10.480247"><ele>337.0</ele><time>2026-03-29T07:17:09.288Z</time></trkpt><trkpt lat="45.5596635" lon="10.4801446"><ele>338.0</ele><time>2026-03-29T07:17:10.288Z</time></trkpt><trkpt lat="45.55966" lon="10.4800298"><ele>339.0</ele><time>2026-03-29T07:17:11.288Z</time></trkpt><trkpt lat="45.5596586" lon="10.4799093"><ele>340.0</ele><time>2026-03-29T07:17:12.289Z</time></trkpt><trkpt lat="45.5596604" lon="10.479772"><ele>341.0</ele><time>2026-03-29T07:17:13.288Z</time></trkpt><trkpt lat="45.5596646" lon="10.4796238"><ele>342.0</ele><time>2026-03-29T07:17:14.288Z</time></trkpt><trkpt lat="45.5596817" lon="10.4794698"><ele>342.0</ele><time>2026-03-29T07:17:15.289Z</time></trkpt><trkpt lat="45.5597133" lon="10.4793171"><ele>342.0</ele><time>2026-03-29T07:17:16.288Z</time></trkpt><trkpt lat="45.5597656" lon="10.479148"><ele>342.0</ele><time>2026-03-29T07:17:17.289Z</time></trkpt><trkpt lat="45.5598257" lon="10.4789734"><ele>342.0</ele><time>2026-03-29T07:17:18.288Z</time></trkpt><trkpt lat="45.5598825" lon="10.4787938"><ele>341.0</ele><time>2026-03-29T07:17:19.289Z</time></trkpt><trkpt lat="45.5599322" lon="10.4786272"><ele>340.0</ele><time>2026-03-29T07:17:20.288Z</time></trkpt><trkpt lat="45.559977" lon="10.4784647"><ele>339.0</ele><time>2026-03-29T07:17:21.289Z</time></trkpt><trkpt lat="45.5600133" lon="10.4782978"><ele>338.0</ele><time>2026-03-29T07:17:22.288Z</time></trkpt><trkpt lat="45.5600391" lon="10.4781129"><ele>337.5</ele><time>2026-03-29T07:17:23.288Z</time></trkpt><trkpt lat="45.5600459" lon="10.4779251"><ele>337.0</ele><time>2026-03-29T07:17:24.288Z</time></trkpt><trkpt lat="45.5600454" lon="10.4777384"><ele>336.5</ele><time>2026-03-29T07:17:25.288Z</time></trkpt><trkpt lat="45.5600447" lon="10.4775583"><ele>336.0</ele><time>2026-03-29T07:17:26.289Z</time></trkpt><trkpt lat="45.5600371" lon="10.4773853"><ele>336.0</ele><time>2026-03-29T07:17:27.288Z</time></trkpt><trkpt lat="45.5600226" lon="10.4772167"><ele>336.0</ele><time>2026-03-29T07:17:28.289Z</time></trkpt><trkpt lat="45.5600059" lon="10.4770498"><ele>336.0</ele><time>2026-03-29T07:17:29.288Z</time></trkpt><trkpt lat="45.5599903" lon="10.4768998"><ele>336.0</ele><time>2026-03-29T07:17:30.289Z</time></trkpt><trkpt lat="45.5600023" lon="10.4767505"><ele>336.0</ele><time>2026-03-29T07:17:31.289Z</time></trkpt><trkpt lat="45.5600265" lon="10.4766057"><ele>334.25</ele><time>2026-03-29T07:17:32.289Z</time></trkpt><trkpt lat="45.5600653" lon="10.4764664"><ele>332.5</ele><time>2026-03-29T07:17:33.289Z</time></trkpt><trkpt lat="45.5601202" lon="10.4763223"><ele>330.75</ele><time>2026-03-29T07:17:34.289Z</time></trkpt><trkpt lat="45.5601936" lon="10.4761769"><ele>329.0</ele><time>2026-03-29T07:17:35.289Z</time></trkpt><trkpt lat="45.5602668" lon="10.4760478"><ele>327.2</ele><time>2026-03-29T07:17:36.288Z</time></trkpt><trkpt lat="45.560335" lon="10.4759256"><ele>325.4</ele><time>2026-03-29T07:17:37.288Z</time></trkpt><trkpt lat="45.5604" lon="10.4758172"><ele>323.6</ele><time>2026-03-29T07:17:38.288Z</time></trkpt><trkpt lat="45.5604548" lon="10.4757219"><ele>321.8</ele><time>2026-03-29T07:17:39.289Z</time></trkpt><trkpt lat="45.5605102" lon="10.4756463"><ele>320.0</ele><time>2026-03-29T07:17:40.289Z</time></trkpt><trkpt lat="45.5605953" lon="10.4756152"><ele>320.0</ele><time>2026-03-29T07:17:42.288Z</time></trkpt><trkpt lat="45.5606731" lon="10.4756867"><ele>320.0</ele><time>2026-03-29T07:17:44.288Z</time></trkpt><trkpt lat="45.5607682" lon="10.4757847"><ele>320.0</ele><time>2026-03-29T07:17:46.289Z</time></trkpt><trkpt lat="45.5608388" lon="10.4758265"><ele>320.0</ele><time>2026-03-29T07:17:47.288Z</time></trkpt><trkpt lat="45.5609263" lon="10.4758637"><ele>320.0</ele><time>2026-03-29T07:17:48.289Z</time></trkpt><trkpt lat="45.5610102" lon="10.4759012"><ele>320.0</ele><time>2026-03-29T07:17:49.288Z</time></trkpt><trkpt lat="45.5610975" lon="10.4759392"><ele>320.0</ele><time>2026-03-29T07:17:50.289Z</time></trkpt><trkpt lat="45.5611868" lon="10.4759921"><ele>320.0</ele><time>2026-03-29T07:17:51.288Z</time></trkpt><trkpt lat="45.5612816" lon="10.4760556"><ele>320.0</ele><time>2026-03-29T07:17:52.288Z</time></trkpt><trkpt lat="45.5613791" lon="10.476117"><ele>320.0</ele><time>2026-03-29T07:17:53.288Z</time></trkpt><trkpt lat="45.561479" lon="10.4761829"><ele>319.6</ele><time>2026-03-29T07:17:54.288Z</time></trkpt><trkpt lat="45.5615726" lon="10.476261"><ele>319.2</ele><time>2026-03-29T07:17:55.289Z</time></trkpt><trkpt lat="45.561656" lon="10.4763536"><ele>318.8</ele><time>2026-03-29T07:17:56.288Z</time></trkpt><trkpt lat="45.5617253" lon="10.4764622"><ele>318.4</ele><time>2026-03-29T07:17:57.289Z</time></trkpt><trkpt lat="45.5617926" lon="10.4765799"><ele>318.0</ele><time>2026-03-29T07:17:58.289Z</time></trkpt><trkpt lat="45.5618703" lon="10.4766855"><ele>321.8</ele><time>2026-03-29T07:17:59.289Z</time></trkpt><trkpt lat="45.5619606" lon="10.4767785"><ele>325.6</ele><time>2026-03-29T07:18:00.289Z</time></trkpt><trkpt lat="45.5620576" lon="10.4768553"><ele>329.40000000000003</ele><time>2026-03-29T07:18:01.288Z</time></trkpt><trkpt lat="45.5621459" lon="10.4769185"><ele>333.20000000000005</ele><time>2026-03-29T07:18:02.289Z</time></trkpt><trkpt lat="45.5622299" lon="10.476966"><ele>337.0</ele><time>2026-03-29T07:18:03.289Z</time></trkpt><trkpt lat="45.5623081" lon="10.4769951"><ele>337.6</ele><time>2026-03-29T07:18:04.289Z</time></trkpt><trkpt lat="45.5623896" lon="10.4770057"><ele>338.20000000000005</ele><time>2026-03-29T07:18:05.289Z</time></trkpt><trkpt lat="45.5624773" lon="10.476985"><ele>338.8</ele><time>2026-03-29T07:18:06.289Z</time></trkpt><trkpt lat="45.5625795" lon="10.4769109"><ele>339.4</ele><time>2026-03-29T07:18:07.288Z</time></trkpt><trkpt lat="45.5627006" lon="10.4767846"><ele>340.0</ele><time>2026-03-29T07:18:08.288Z</time></trkpt><trkpt lat="45.5628674" lon="10.4765685"><ele>341.66666666666663</ele><time>2026-03-29T07:18:09.289Z</time></trkpt><trkpt lat="45.5630145" lon="10.4764056"><ele>343.3333333333333</ele><time>2026-03-29T07:18:10.288Z</time></trkpt><trkpt lat="45.5631434" lon="10.4762769"><ele>345.0</ele><time>2026-03-29T07:18:11.289Z</time></trkpt><trkpt lat="45.5632622" lon="10.4761712"><ele>342.5</ele><time>2026-03-29T07:18:12.289Z</time></trkpt><trkpt lat="45.5633787" lon="10.4760772"><ele>340.0</ele><time>2026-03-29T07:18:13.288Z</time></trkpt><trkpt lat="45.5634892" lon="10.4759915"><ele>337.5</ele><time>2026-03-29T07:18:14.288Z</time></trkpt><trkpt lat="45.5635875" lon="10.4759177"><ele>335.0</ele><time>2026-03-29T07:18:15.289Z</time></trkpt><trkpt lat="45.5636758" lon="10.4758481"><ele>335.0</ele><time>2026-03-29T07:18:16.288Z</time></trkpt><trkpt lat="45.5637457" lon="10.4757872"><ele>335.0</ele><time>2026-03-29T07:18:17.288Z</time></trkpt><trkpt lat="45.5638112" lon="10.4757362"><ele>335.0</ele><time>2026-03-29T07:18:18.289Z</time></trkpt><trkpt lat="45.5638745" lon="10.4756761"><ele>335.0</ele><time>2026-03-29T07:18:19.289Z</time></trkpt><trkpt lat="45.5639259" lon="10.4756226"><ele>335.0</ele><time>2026-03-29T07:18:20.288Z</time></trkpt><trkpt lat="45.5640106" lon="10.4755242"><ele>335.0</ele><time>2026-03-29T07:18:22.289Z</time></trkpt><trkpt lat="45.5641021" lon="10.4755392"><ele>335.0</ele><time>2026-03-29T07:18:25.288Z</time></trkpt><trkpt lat="45.564191" lon="10.4756811"><ele>335.0</ele><time>2026-03-29T07:18:27.288Z</time></trkpt><trkpt lat="45.5642359" lon="10.4757866"><ele>335.0</ele><time>2026-03-29T07:18:28.289Z</time></trkpt><trkpt lat="45.564279" lon="10.4759173"><ele>335.0</ele><time>2026-03-29T07:18:29.289Z</time></trkpt><trkpt lat="45.5643331" lon="10.4760632"><ele>335.0</ele><time>2026-03-29T07:18:30.288Z</time></trkpt><trkpt lat="45.5643913" lon="10.4762045"><ele>334.25</ele><time>2026-03-29T07:18:31.288Z</time></trkpt><trkpt lat="45.5644493" lon="10.4763455"><ele>333.5</ele><time>2026-03-29T07:18:32.289Z</time></trkpt><trkpt lat="45.5645087" lon="10.4764834"><ele>332.75</ele><time>2026-03-29T07:18:33.288Z</time></trkpt><trkpt lat="45.5645594" lon="10.476625"><ele>332.0</ele><time>2026-03-29T07:18:34.289Z</time></trkpt><trkpt lat="45.564604" lon="10.4767694"><ele>332.0</ele><time>2026-03-29T07:18:35.288Z</time></trkpt><trkpt lat="45.5646352" lon="10.4768983"><ele>332.0</ele><time>2026-03-29T07:18:36.289Z</time></trkpt><trkpt lat="45.5646612" lon="10.4770256"><ele>332.0</ele><time>2026-03-29T07:18:37.288Z</time></trkpt><trkpt lat="45.5646666" lon="10.4771606"><ele>332.0</ele><time>2026-03-29T07:18:38.289Z</time></trkpt><trkpt lat="45.5646707" lon="10.4772898"><ele>332.0</ele><time>2026-03-29T07:18:39.289Z</time></trkpt><trkpt lat="45.5646759" lon="10.47741"><ele>332.6666666666667</ele><time>2026-03-29T07:18:40.289Z</time></trkpt><trkpt lat="45.5646861" lon="10.4775185"><ele>333.33333333333337</ele><time>2026-03-29T07:18:41.288Z</time></trkpt><trkpt lat="45.564694" lon="10.4776787"><ele>334.0</ele><time>2026-03-29T07:18:43.289Z</time></trkpt><trkpt lat="45.5646471" lon="10.4777884"><ele>334.6666666666667</ele><time>2026-03-29T07:18:45.289Z</time></trkpt><trkpt lat="45.5645777" lon="10.4778354"><ele>335.3333333333333</ele><time>2026-03-29T07:18:46.288Z</time></trkpt><trkpt lat="45.564504" lon="10.4778846"><ele>336.0</ele><time>2026-03-29T07:18:47.289Z</time></trkpt><trkpt lat="45.5644323" lon="10.4779428"><ele>337.0</ele><time>2026-03-29T07:18:48.289Z</time></trkpt><trkpt lat="45.5643688" lon="10.4780141"><ele>338.0</ele><time>2026-03-29T07:18:49.288Z</time></trkpt><trkpt lat="45.5643179" lon="10.4781026"><ele>339.0</ele><time>2026-03-29T07:18:50.288Z</time></trkpt><trkpt lat="45.5642931" lon="10.4781921"><ele>340.0</ele><time>2026-03-29T07:18:51.288Z</time></trkpt><trkpt lat="45.5642886" lon="10.4782865"><ele>341.0</ele><time>2026-03-29T07:18:52.289Z</time></trkpt><trkpt lat="45.5643002" lon="10.4783948"><ele>342.0</ele><time>2026-03-29T07:18:53.289Z</time></trkpt><trkpt lat="45.5643329" lon="10.4785063"><ele>342.0</ele><time>2026-03-29T07:18:54.289Z</time></trkpt><trkpt lat="45.5643815" lon="10.4786109"><ele>342.0</ele><time>2026-03-29T07:18:55.289Z</time></trkpt><trkpt lat="45.5644601" lon="10.4787048"><ele>342.0</ele><time>2026-03-29T07:18:56.288Z</time></trkpt><trkpt lat="45.564556" lon="10.4787931"><ele>342.0</ele><time>2026-03-29T07:18:57.289Z</time></trkpt><trkpt lat="45.5646799" lon="10.4788747"><ele>342.0</ele><time>2026-03-29T07:18:58.289Z</time></trkpt><trkpt lat="45.5647879" lon="10.4789545"><ele>342.40000000000003</ele><time>2026-03-29T07:18:59.289Z</time></trkpt><trkpt lat="45.5648891" lon="10.4790129"><ele>342.8</ele><time>2026-03-29T07:19:00.289Z</time></trkpt><trkpt lat="45.5649765" lon="10.4790567"><ele>343.2</ele><time>2026-03-29T07:19:01.289Z</time></trkpt><trkpt lat="45.5650606" lon="10.4790844"><ele>343.6</ele><time>2026-03-29T07:19:02.289Z</time></trkpt><trkpt lat="45.5651422" lon="10.4790997"><ele>344.0</ele><time>2026-03-29T07:19:03.288Z</time></trkpt><trkpt lat="45.5652244" lon="10.4791151"><ele>344.0</ele><time>2026-03-29T07:19:04.289Z</time></trkpt><trkpt lat="45.5653133" lon="10.4791234"><ele>344.0</ele><time>2026-03-29T07:19:05.288Z</time></trkpt><trkpt lat="45.5654112" lon="10.4791277"><ele>344.0</ele><time>2026-03-29T07:19:06.289Z</time></trkpt><trkpt lat="45.5655077" lon="10.4791235"><ele>344.0</ele><time>2026-03-29T07:19:07.289Z</time></trkpt><trkpt lat="45.5655947" lon="10.4791132"><ele>344.0</ele><time>2026-03-29T07:19:08.288Z</time></trkpt><trkpt lat="45.5656866" lon="10.4790994"><ele>344.4</ele><time>2026-03-29T07:19:09.289Z</time></trkpt><trkpt lat="45.5657768" lon="10.4790943"><ele>344.79999999999995</ele><time>2026-03-29T07:19:10.288Z</time></trkpt><trkpt lat="45.5658688" lon="10.479074"><ele>345.20000000000005</ele><time>2026-03-29T07:19:11.288Z</time></trkpt><trkpt lat="45.5659646" lon="10.4790308"><ele>345.6</ele><time>2026-03-29T07:19:12.288Z</time></trkpt><trkpt lat="45.566061" lon="10.4789838"><ele>346.0</ele><time>2026-03-29T07:19:13.289Z</time></trkpt><trkpt lat="45.5661501" lon="10.4789475"><ele>346.8</ele><time>2026-03-29T07:19:14.289Z</time></trkpt><trkpt lat="45.5662418" lon="10.4789022"><ele>347.6</ele><time>2026-03-29T07:19:15.289Z</time></trkpt><trkpt lat="45.5663382" lon="10.4788593"><ele>348.4</ele><time>2026-03-29T07:19:16.288Z</time></trkpt><trkpt lat="45.5664432" lon="10.4788287"><ele>349.2</ele><time>2026-03-29T07:19:17.288Z</time></trkpt><trkpt lat="45.5665389" lon="10.4788094"><ele>350.0</ele><time>2026-03-29T07:19:18.289Z</time></trkpt><trkpt lat="45.5666335" lon="10.4788021"><ele>350.0</ele><time>2026-03-29T07:19:19.289Z</time></trkpt><trkpt lat="45.5667351" lon="10.4787915"><ele>350.0</ele><time>2026-03-29T07:19:20.288Z</time></trkpt><trkpt lat="45.5668439" lon="10.4787792"><ele>350.0</ele><time>2026-03-29T07:19:21.289Z</time></trkpt><trkpt lat="45.5669517" lon="10.4787607"><ele>350.0</ele><time>2026-03-29T07:19:22.289Z</time></trkpt><trkpt lat="45.5670556" lon="10.4787263"><ele>350.0</ele><time>2026-03-29T07:19:23.289Z</time></trkpt><trkpt lat="45.5671484" lon="10.478693"><ele>349.7142857142857</ele><time>2026-03-29T07:19:24.289Z</time></trkpt><trkpt lat="45.5672247" lon="10.4786672"><ele>349.42857142857144</ele><time>2026-03-29T07:19:25.288Z</time></trkpt><trkpt lat="45.5672889" lon="10.4786545"><ele>349.1428571428571</ele><time>2026-03-29T07:19:26.288Z</time></trkpt><trkpt lat="45.5673617" lon="10.4786542"><ele>348.8571428571429</ele><time>2026-03-29T07:19:27.288Z</time></trkpt><trkpt lat="45.567428" lon="10.4786513"><ele>348.57142857142856</ele><time>2026-03-29T07:19:28.288Z</time></trkpt><trkpt lat="45.5674986" lon="10.4786433"><ele>348.2857142857143</ele><time>2026-03-29T07:19:29.289Z</time></trkpt><trkpt lat="45.5675666" lon="10.4786362"><ele>348.0</ele><time>2026-03-29T07:19:30.288Z</time></trkpt><trkpt lat="45.5676352" lon="10.4786371"><ele>348.0</ele><time>2026-03-29T07:19:31.289Z</time></trkpt><trkpt lat="45.5677069" lon="10.4786393"><ele>348.0</ele><time>2026-03-29T07:19:32.289Z</time></trkpt><trkpt lat="45.5677893" lon="10.4786528"><ele>348.0</ele><time>2026-03-29T07:19:33.288Z</time></trkpt><trkpt lat="45.5678682" lon="10.4786699"><ele>348.0</ele><time>2026-03-29T07:19:34.288Z</time></trkpt><trkpt lat="45.5679463" lon="10.4786836"><ele>348.0</ele><time>2026-03-29T07:19:35.289Z</time></trkpt><trkpt lat="45.5680224" lon="10.4786888"><ele>348.0</ele><time>2026-03-29T07:19:36.288Z</time></trkpt><trkpt lat="45.5680987" lon="10.4786945"><ele>348.5</ele><time>2026-03-29T07:19:37.289Z</time></trkpt><trkpt lat="45.5681762" lon="10.4787012"><ele>349.0</ele><time>2026-03-29T07:19:38.289Z</time></trkpt><trkpt lat="45.5682572" lon="10.478715"><ele>349.5</ele><time>2026-03-29T07:19:39.289Z</time></trkpt><trkpt lat="45.5683385" lon="10.4787331"><ele>350.0</ele><time>2026-03-29T07:19:40.288Z</time></trkpt><trkpt lat="45.5684135" lon="10.4787519"><ele>350.5</ele><time>2026-03-29T07:19:41.289Z</time></trkpt><trkpt lat="45.5684877" lon="10.4787594"><ele>351.0</ele><time>2026-03-29T07:19:42.288Z</time></trkpt><trkpt lat="45.568558" lon="10.4787675"><ele>351.1666666666667</ele><time>2026-03-29T07:19:43.289Z</time></trkpt><trkpt lat="45.5686469" lon="10.4787686"><ele>351.3333333333333</ele><time>2026-03-29T07:19:45.288Z</time></trkpt><trkpt lat="45.5687192" lon="10.4787631"><ele>351.5</ele><time>2026-03-29T07:19:49.289Z</time></trkpt><trkpt lat="45.5687816" lon="10.4787795"><ele>351.66666666666663</ele><time>2026-03-29T07:19:52.288Z</time></trkpt><trkpt lat="45.568838" lon="10.4788361"><ele>351.8333333333333</ele><time>2026-03-29T07:19:54.288Z</time></trkpt><trkpt lat="45.5688832" lon="10.4789437"><ele>352.0</ele><time>2026-03-29T07:19:56.289Z</time></trkpt><trkpt lat="45.5689001" lon="10.4790449"><ele>352.0</ele><time>2026-03-29T07:19:58.288Z</time></trkpt><trkpt lat="45.5689125" lon="10.4791561"><ele>352.0</ele><time>2026-03-29T07:20:00.288Z</time></trkpt><trkpt lat="45.568932" lon="10.4792747"><ele>352.0</ele><time>2026-03-29T07:20:02.288Z</time></trkpt><trkpt lat="45.5689838" lon="10.4793895"><ele>352.0</ele><time>2026-03-29T07:20:04.288Z</time></trkpt><trkpt lat="45.5690492" lon="10.4794781"><ele>352.0</ele><time>2026-03-29T07:20:06.288Z</time></trkpt><trkpt lat="45.569123" lon="10.4795349"><ele>352.0</ele><time>2026-03-29T07:20:08.288Z</time></trkpt><trkpt lat="45.5692103" lon="10.4796091"><ele>350.20000000000005</ele><time>2026-03-29T07:20:10.289Z</time></trkpt><trkpt lat="45.5692737" lon="10.4797064"><ele>348.4</ele><time>2026-03-29T07:20:12.289Z</time></trkpt><trkpt lat="45.5693183" lon="10.4798417"><ele>346.6</ele><time>2026-03-29T07:20:14.289Z</time></trkpt><trkpt lat="45.5693829" lon="10.479976"><ele>344.79999999999995</ele><time>2026-03-29T07:20:16.289Z</time></trkpt><trkpt lat="45.5694747" lon="10.4800839"><ele>343.0</ele><time>2026-03-29T07:20:18.288Z</time></trkpt><trkpt lat="45.5695613" lon="10.4801669"><ele>342.5</ele><time>2026-03-29T07:20:20.289Z</time></trkpt><trkpt lat="45.5696716" lon="10.4802392"><ele>342.0</ele><time>2026-03-29T07:20:22.288Z</time></trkpt><trkpt lat="45.5697397" lon="10.4802805"><ele>341.5</ele><time>2026-03-29T07:20:23.288Z</time></trkpt><trkpt lat="45.5698073" lon="10.4803188"><ele>341.0</ele><time>2026-03-29T07:20:24.288Z</time></trkpt><trkpt lat="45.5698682" lon="10.4803551"><ele>340.5</ele><time>2026-03-29T07:20:25.289Z</time></trkpt><trkpt lat="45.5699406" lon="10.480385"><ele>340.0</ele><time>2026-03-29T07:20:26.288Z</time></trkpt><trkpt lat="45.5700427" lon="10.4804314"><ele>336.6</ele><time>2026-03-29T07:20:28.289Z</time></trkpt><trkpt lat="45.5701333" lon="10.4804544"><ele>333.2</ele><time>2026-03-29T07:20:30.288Z</time></trkpt><trkpt lat="45.570231" lon="10.4804837"><ele>329.79999999999995</ele><time>2026-03-29T07:20:32.288Z</time></trkpt><trkpt lat="45.5703394" lon="10.4805081"><ele>326.4</ele><time>2026-03-29T07:20:34.289Z</time></trkpt><trkpt lat="45.57044" lon="10.4805386"><ele>323.0</ele><time>2026-03-29T07:20:36.289Z</time></trkpt><trkpt lat="45.5705491" lon="10.4805834"><ele>322.4</ele><time>2026-03-29T07:20:38.288Z</time></trkpt><trkpt lat="45.5706753" lon="10.480621"><ele>321.79999999999995</ele><time>2026-03-29T07:20:40.288Z</time></trkpt><trkpt lat="45.5707382" lon="10.4806473"><ele>321.2</ele><time>2026-03-29T07:20:41.289Z</time></trkpt><trkpt lat="45.5708448" lon="10.4806978"><ele>320.6</ele><time>2026-03-29T07:20:43.288Z</time></trkpt><trkpt lat="45.5709364" lon="10.480737"><ele>320.0</ele><time>2026-03-29T07:20:45.289Z</time></trkpt><trkpt lat="45.5710094" lon="10.4807664"><ele>320.0</ele><time>2026-03-29T07:20:47.288Z</time></trkpt><trkpt lat="45.5710358" lon="10.4808573"><ele>320.0</ele><time>2026-03-29T07:20:49.289Z</time></trkpt><trkpt lat="45.571022" lon="10.481003"><ele>320.0</ele><time>2026-03-29T07:20:51.288Z</time></trkpt><trkpt lat="45.5709717" lon="10.4811598"><ele>320.0</ele><time>2026-03-29T07:20:53.288Z</time></trkpt><trkpt lat="45.570881" lon="10.4812652"><ele>320.0</ele><time>2026-03-29T07:20:55.289Z</time></trkpt><trkpt lat="45.5708142" lon="10.4813054"><ele>317.83333333333337</ele><time>2026-03-29T07:20:56.288Z</time></trkpt><trkpt lat="45.5707411" lon="10.4813527"><ele>315.6666666666667</ele><time>2026-03-29T07:20:57.288Z</time></trkpt><trkpt lat="45.5706713" lon="10.4814015"><ele>313.5</ele><time>2026-03-29T07:20:58.288Z</time></trkpt><trkpt lat="45.5706151" lon="10.4814701"><ele>311.3333333333333</ele><time>2026-03-29T07:20:59.288Z</time></trkpt><trkpt lat="45.5705718" lon="10.4815628"><ele>309.16666666666663</ele><time>2026-03-29T07:21:00.288Z</time></trkpt><trkpt lat="45.5705384" lon="10.4816783"><ele>307.0</ele><time>2026-03-29T07:21:01.288Z</time></trkpt><trkpt lat="45.5705199" lon="10.4818096"><ele>307.0</ele><time>2026-03-29T07:21:02.289Z</time></trkpt><trkpt lat="45.5705062" lon="10.4819213"><ele>307.0</ele><time>2026-03-29T07:21:03.288Z</time></trkpt><trkpt lat="45.5704999" lon="10.4820151"><ele>307.0</ele><time>2026-03-29T07:21:04.288Z</time></trkpt><trkpt lat="45.5705" lon="10.4821804"><ele>307.0</ele><time>2026-03-29T07:21:06.289Z</time></trkpt><trkpt lat="45.5704989" lon="10.4823081"><ele>307.0</ele><time>2026-03-29T07:21:08.289Z</time></trkpt><trkpt lat="45.5704978" lon="10.4824214"><ele>307.0</ele><time>2026-03-29T07:21:11.288Z</time></trkpt><trkpt lat="45.5705872" lon="10.482476"><ele>306.6</ele><time>2026-03-29T07:21:14.289Z</time></trkpt><trkpt lat="45.5706527" lon="10.4824835"><ele>306.2</ele><time>2026-03-29T07:21:15.289Z</time></trkpt><trkpt lat="45.5707341" lon="10.4824923"><ele>305.8</ele><time>2026-03-29T07:21:16.289Z</time></trkpt><trkpt lat="45.5708306" lon="10.4825057"><ele>305.4</ele><time>2026-03-29T07:21:17.289Z</time></trkpt><trkpt lat="45.5709447" lon="10.4825217"><ele>305.0</ele><time>2026-03-29T07:21:18.289Z</time></trkpt><trkpt lat="45.5710695" lon="10.482529"><ele>303.75</ele><time>2026-03-29T07:21:19.289Z</time></trkpt><trkpt lat="45.5711981" lon="10.4825426"><ele>302.5</ele><time>2026-03-29T07:21:20.289Z</time></trkpt><trkpt lat="45.5713214" lon="10.4825505"><ele>301.25</ele><time>2026-03-29T07:21:21.289Z</time></trkpt><trkpt lat="45.5714405" lon="10.4825521"><ele>300.0</ele><time>2026-03-29T07:21:22.288Z</time></trkpt><trkpt lat="45.5715505" lon="10.4825611"><ele>300.0</ele><time>2026-03-29T07:21:23.288Z</time></trkpt><trkpt lat="45.5716545" lon="10.4825671"><ele>300.0</ele><time>2026-03-29T07:21:24.289Z</time></trkpt><trkpt lat="45.5717572" lon="10.4825717"><ele>300.0</ele><time>2026-03-29T07:21:25.289Z</time></trkpt><trkpt lat="45.5718543" lon="10.4825692"><ele>300.0</ele><time>2026-03-29T07:21:26.288Z</time></trkpt><trkpt lat="45.5719443" lon="10.4825705"><ele>300.0</ele><time>2026-03-29T07:21:27.289Z</time></trkpt><trkpt lat="45.5720238" lon="10.4825734"><ele>299.71428571428567</ele><time>2026-03-29T07:21:28.289Z</time></trkpt><trkpt lat="45.5720949" lon="10.4825711"><ele>299.42857142857144</ele><time>2026-03-29T07:21:29.289Z</time></trkpt><trkpt lat="45.5721596" lon="10.4825724"><ele>299.1428571428571</ele><time>2026-03-29T07:21:30.288Z</time></trkpt><trkpt lat="45.5722306" lon="10.4825792"><ele>298.85714285714283</ele><time>2026-03-29T07:21:31.289Z</time></trkpt><trkpt lat="45.5723073" lon="10.4825864"><ele>298.57142857142856</ele><time>2026-03-29T07:21:32.289Z</time></trkpt><trkpt lat="45.5723807" lon="10.4825949"><ele>298.2857142857143</ele><time>2026-03-29T07:21:33.289Z</time></trkpt><trkpt lat="45.5724693" lon="10.4825962"><ele>298.0</ele><time>2026-03-29T07:21:34.289Z</time></trkpt><trkpt lat="45.5725721" lon="10.4826004"><ele>298.0</ele><time>2026-03-29T07:21:35.289Z</time></trkpt><trkpt lat="45.5726793" lon="10.4826093"><ele>298.0</ele><time>2026-03-29T07:21:36.288Z</time></trkpt><trkpt lat="45.5727891" lon="10.4826189"><ele>298.0</ele><time>2026-03-29T07:21:37.289Z</time></trkpt><trkpt lat="45.5729026" lon="10.4826319"><ele>298.0</ele><time>2026-03-29T07:21:38.289Z</time></trkpt><trkpt lat="45.5730227" lon="10.4826285"><ele>296.5</ele><time>2026-03-29T07:21:39.288Z</time></trkpt><trkpt lat="45.5731396" lon="10.4826305"><ele>295.0</ele><time>2026-03-29T07:21:40.289Z</time></trkpt><trkpt lat="45.5732533" lon="10.4826382"><ele>293.5</ele><time>2026-03-29T07:21:41.288Z</time></trkpt><trkpt lat="45.5733747" lon="10.4826448"><ele>292.0</ele><time>2026-03-29T07:21:42.288Z</time></trkpt><trkpt lat="45.5734983" lon="10.4826526"><ele>292.0</ele><time>2026-03-29T07:21:43.288Z</time></trkpt><trkpt lat="45.5736211" lon="10.482673"><ele>292.0</ele><time>2026-03-29T07:21:44.289Z</time></trkpt><trkpt lat="45.573742" lon="10.4826813"><ele>292.0</ele><time>2026-03-29T07:21:45.289Z</time></trkpt><trkpt lat="45.5738576" lon="10.4826831"><ele>292.0</ele><time>2026-03-29T07:21:46.289Z</time></trkpt><trkpt lat="45.5739765" lon="10.4826781"><ele>291.0</ele><time>2026-03-29T07:21:47.288Z</time></trkpt><trkpt lat="45.5740998" lon="10.4826763"><ele>290.0</ele><time>2026-03-29T07:21:48.289Z</time></trkpt><trkpt lat="45.5742197" lon="10.4826773"><ele>289.0</ele><time>2026-03-29T07:21:49.289Z</time></trkpt><trkpt lat="45.5743434" lon="10.4826861"><ele>288.0</ele><time>2026-03-29T07:21:50.289Z</time></trkpt><trkpt lat="45.5744661" lon="10.4826921"><ele>288.5</ele><time>2026-03-29T07:21:51.289Z</time></trkpt><trkpt lat="45.5745888" lon="10.482701"><ele>289.0</ele><time>2026-03-29T07:21:52.288Z</time></trkpt><trkpt lat="45.5747234" lon="10.4827072"><ele>289.5</ele><time>2026-03-29T07:21:53.289Z</time></trkpt><trkpt lat="45.5748538" lon="10.4827097"><ele>290.0</ele><time>2026-03-29T07:21:54.288Z</time></trkpt><trkpt lat="45.5749822" lon="10.4827059"><ele>290.0</ele><time>2026-03-29T07:21:55.288Z</time></trkpt><trkpt lat="45.5751036" lon="10.4826885"><ele>290.0</ele><time>2026-03-29T07:21:56.289Z</time></trkpt><trkpt lat="45.5752248" lon="10.4826606"><ele>290.0</ele><time>2026-03-29T07:21:57.287Z</time></trkpt><trkpt lat="45.5753448" lon="10.4826288"><ele>290.0</ele><time>2026-03-29T07:21:58.287Z</time></trkpt><trkpt lat="45.5754599" lon="10.4825963"><ele>289.0</ele><time>2026-03-29T07:21:59.287Z</time></trkpt><trkpt lat="45.5755758" lon="10.4825669"><ele>288.0</ele><time>2026-03-29T07:22:00.287Z</time></trkpt><trkpt lat="45.5756883" lon="10.4825402"><ele>287.0</ele><time>2026-03-29T07:22:01.288Z</time></trkpt><trkpt lat="45.575804" lon="10.4825177"><ele>286.0</ele><time>2026-03-29T07:22:02.287Z</time></trkpt><trkpt lat="45.5759307" lon="10.4824954"><ele>286.0</ele><time>2026-03-29T07:22:03.288Z</time></trkpt><trkpt lat="45.5760491" lon="10.4824798"><ele>286.0</ele><time>2026-03-29T07:22:04.287Z</time></trkpt><trkpt lat="45.5761664" lon="10.4824603"><ele>286.0</ele><time>2026-03-29T07:22:05.287Z</time></trkpt><trkpt lat="45.5762858" lon="10.482439"><ele>286.0</ele><time>2026-03-29T07:22:06.288Z</time></trkpt><trkpt lat="45.5764173" lon="10.4824156"><ele>285.5</ele><time>2026-03-29T07:22:07.287Z</time></trkpt><trkpt lat="45.5765522" lon="10.4824006"><ele>285.0</ele><time>2026-03-29T07:22:08.288Z</time></trkpt><trkpt lat="45.5766864" lon="10.4823861"><ele>284.5</ele><time>2026-03-29T07:22:09.287Z</time></trkpt><trkpt lat="45.5768107" lon="10.4823764"><ele>284.0</ele><time>2026-03-29T07:22:10.288Z</time></trkpt><trkpt lat="45.5769141" lon="10.4823656"><ele>284.0</ele><time>2026-03-29T07:22:11.288Z</time></trkpt><trkpt lat="45.5770088" lon="10.4823591"><ele>284.0</ele><time>2026-03-29T07:22:12.288Z</time></trkpt><trkpt lat="45.5771122" lon="10.4823483"><ele>284.0</ele><time>2026-03-29T07:22:13.288Z</time></trkpt><trkpt lat="45.5772215" lon="10.4823412"><ele>284.0</ele><time>2026-03-29T07:22:14.287Z</time></trkpt><trkpt lat="45.5773517" lon="10.4823263"><ele>284.0</ele><time>2026-03-29T07:22:15.287Z</time></trkpt><trkpt lat="45.5774886" lon="10.4823167"><ele>283.5</ele><time>2026-03-29T07:22:16.287Z</time></trkpt><trkpt lat="45.5776194" lon="10.4823091"><ele>283.0</ele><time>2026-03-29T07:22:17.288Z</time></trkpt><trkpt lat="45.5777598" lon="10.4823038"><ele>282.5</ele><time>2026-03-29T07:22:18.287Z</time></trkpt><trkpt lat="45.5778943" lon="10.4823015"><ele>282.0</ele><time>2026-03-29T07:22:19.287Z</time></trkpt><trkpt lat="45.5780347" lon="10.4823051"><ele>280.6666666666667</ele><time>2026-03-29T07:22:20.287Z</time></trkpt><trkpt lat="45.5781869" lon="10.4823062"><ele>279.33333333333337</ele><time>2026-03-29T07:22:21.287Z</time></trkpt><trkpt lat="45.5783375" lon="10.4823089"><ele>278.0</ele><time>2026-03-29T07:22:22.287Z</time></trkpt><trkpt lat="45.5784939" lon="10.4823121"><ele>278.0</ele><time>2026-03-29T07:22:23.288Z</time></trkpt><trkpt lat="45.5786606" lon="10.4823154"><ele>278.0</ele><time>2026-03-29T07:22:24.287Z</time></trkpt><trkpt lat="45.5788264" lon="10.4823211"><ele>278.0</ele><time>2026-03-29T07:22:25.287Z</time></trkpt><trkpt lat="45.5789941" lon="10.4823251"><ele>277.0</ele><time>2026-03-29T07:22:26.288Z</time></trkpt><trkpt lat="45.5791551" lon="10.4823325"><ele>276.0</ele><time>2026-03-29T07:22:27.287Z</time></trkpt><trkpt lat="45.5793201" lon="10.4823474"><ele>275.0</ele><time>2026-03-29T07:22:28.288Z</time></trkpt><trkpt lat="45.5794828" lon="10.482377"><ele>274.0</ele><time>2026-03-29T07:22:29.287Z</time></trkpt><trkpt lat="45.5796459" lon="10.4824253"><ele>273.0</ele><time>2026-03-29T07:22:30.287Z</time></trkpt><trkpt lat="45.5798115" lon="10.4824881"><ele>272.0</ele><time>2026-03-29T07:22:31.288Z</time></trkpt><trkpt lat="45.579975" lon="10.4825583"><ele>272.0</ele><time>2026-03-29T07:22:32.288Z</time></trkpt><trkpt lat="45.5801452" lon="10.4826288"><ele>272.0</ele><time>2026-03-29T07:22:33.288Z</time></trkpt><trkpt lat="45.5803028" lon="10.4827051"><ele>272.0</ele><time>2026-03-29T07:22:34.288Z</time></trkpt><trkpt lat="45.5804566" lon="10.4827794"><ele>272.0</ele><time>2026-03-29T07:22:35.288Z</time></trkpt><trkpt lat="45.580606" lon="10.482854"><ele>272.0</ele><time>2026-03-29T07:22:36.287Z</time></trkpt><trkpt lat="45.5807496" lon="10.4829189"><ele>272.0</ele><time>2026-03-29T07:22:37.288Z</time></trkpt><trkpt lat="45.5808808" lon="10.482981"><ele>272.0</ele><time>2026-03-29T07:22:38.288Z</time></trkpt><trkpt lat="45.5809948" lon="10.4830336"><ele>272.33333333333337</ele><time>2026-03-29T07:22:39.287Z</time></trkpt><trkpt lat="45.5810975" lon="10.4830837"><ele>272.6666666666667</ele><time>2026-03-29T07:22:40.287Z</time></trkpt><trkpt lat="45.5811861" lon="10.4831241"><ele>273.0</ele><time>2026-03-29T07:22:41.288Z</time></trkpt><trkpt lat="45.581261" lon="10.48316"><ele>273.3333333333333</ele><time>2026-03-29T07:22:42.287Z</time></trkpt><trkpt lat="45.5813284" lon="10.4831869"><ele>273.66666666666663</ele><time>2026-03-29T07:22:43.287Z</time></trkpt><trkpt lat="45.5814208" lon="10.4832212"><ele>274.0</ele><time>2026-03-29T07:22:45.287Z</time></trkpt><trkpt lat="45.5814788" lon="10.4831237"><ele>274.2</ele><time>2026-03-29T07:22:48.287Z</time></trkpt><trkpt lat="45.581496" lon="10.4830287"><ele>274.4</ele><time>2026-03-29T07:22:49.287Z</time></trkpt><trkpt lat="45.5815213" lon="10.4828875"><ele>274.6</ele><time>2026-03-29T07:22:50.288Z</time></trkpt><trkpt lat="45.5815612" lon="10.482719"><ele>274.8</ele><time>2026-03-29T07:22:51.288Z</time></trkpt><trkpt lat="45.5816054" lon="10.4825456"><ele>275.0</ele><time>2026-03-29T07:22:52.288Z</time></trkpt><trkpt lat="45.5816601" lon="10.4823656"><ele>274.5</ele><time>2026-03-29T07:22:53.287Z</time></trkpt><trkpt lat="45.5817166" lon="10.4821758"><ele>274.0</ele><time>2026-03-29T07:22:54.288Z</time></trkpt><trkpt lat="45.581769" lon="10.4819801"><ele>273.5</ele><time>2026-03-29T07:22:55.287Z</time></trkpt><trkpt lat="45.5818219" lon="10.4817994"><ele>273.0</ele><time>2026-03-29T07:22:56.288Z</time></trkpt><trkpt lat="45.5818763" lon="10.4816205"><ele>273.0</ele><time>2026-03-29T07:22:57.288Z</time></trkpt><trkpt lat="45.5819328" lon="10.481435"><ele>273.0</ele><time>2026-03-29T07:22:58.288Z</time></trkpt><trkpt lat="45.581992" lon="10.4812401"><ele>273.0</ele><time>2026-03-29T07:22:59.288Z</time></trkpt><trkpt lat="45.5820595" lon="10.4810334"><ele>274.3333333333333</ele><time>2026-03-29T07:23:00.287Z</time></trkpt><trkpt lat="45.5821257" lon="10.4808301"><ele>275.66666666666663</ele><time>2026-03-29T07:23:01.287Z</time></trkpt><trkpt lat="45.5821886" lon="10.4806253"><ele>277.0</ele><time>2026-03-29T07:23:02.288Z</time></trkpt><trkpt lat="45.5822499" lon="10.4804287"><ele>277.0</ele><time>2026-03-29T07:23:03.287Z</time></trkpt><trkpt lat="45.5823066" lon="10.4802459"><ele>277.0</ele><time>2026-03-29T07:23:04.288Z</time></trkpt><trkpt lat="45.5823557" lon="10.4800728"><ele>277.0</ele><time>2026-03-29T07:23:05.287Z</time></trkpt><trkpt lat="45.582398" lon="10.4799039"><ele>277.0</ele><time>2026-03-29T07:23:06.287Z</time></trkpt><trkpt lat="45.5824217" lon="10.4797346"><ele>277.0</ele><time>2026-03-29T07:23:07.287Z</time></trkpt><trkpt lat="45.5824161" lon="10.479569"><ele>277.0</ele><time>2026-03-29T07:23:08.288Z</time></trkpt><trkpt lat="45.5823911" lon="10.4793977"><ele>277.0</ele><time>2026-03-29T07:23:09.287Z</time></trkpt><trkpt lat="45.5823554" lon="10.4792144"><ele>277.0</ele><time>2026-03-29T07:23:10.288Z</time></trkpt><trkpt lat="45.5823179" lon="10.4790182"><ele>277.0</ele><time>2026-03-29T07:23:11.288Z</time></trkpt><trkpt lat="45.5822715" lon="10.4788174"><ele>277.0</ele><time>2026-03-29T07:23:12.288Z</time></trkpt><trkpt lat="45.5822234" lon="10.478624"><ele>277.0</ele><time>2026-03-29T07:23:13.287Z</time></trkpt><trkpt lat="45.582169" lon="10.4784447"><ele>277.0</ele><time>2026-03-29T07:23:14.288Z</time></trkpt><trkpt lat="45.5821015" lon="10.4782721"><ele>276.5</ele><time>2026-03-29T07:23:15.287Z</time></trkpt><trkpt lat="45.5820125" lon="10.4781106"><ele>276.0</ele><time>2026-03-29T07:23:16.288Z</time></trkpt><trkpt lat="45.5819149" lon="10.4779629"><ele>275.5</ele><time>2026-03-29T07:23:17.288Z</time></trkpt><trkpt lat="45.5818141" lon="10.4778375"><ele>275.0</ele><time>2026-03-29T07:23:18.287Z</time></trkpt><trkpt lat="45.5817131" lon="10.4777329"><ele>275.0</ele><time>2026-03-29T07:23:19.288Z</time></trkpt><trkpt lat="45.5816121" lon="10.4776565"><ele>275.0</ele><time>2026-03-29T07:23:20.287Z</time></trkpt><trkpt lat="45.5815287" lon="10.4775651"><ele>275.0</ele><time>2026-03-29T07:23:21.287Z</time></trkpt><trkpt lat="45.5814332" lon="10.4774757"><ele>275.0</ele><time>2026-03-29T07:23:22.287Z</time></trkpt><trkpt lat="45.5813354" lon="10.4773966"><ele>275.0</ele><time>2026-03-29T07:23:23.288Z</time></trkpt><trkpt lat="45.5812496" lon="10.4773152"><ele>275.0</ele><time>2026-03-29T07:23:24.288Z</time></trkpt><trkpt lat="45.5811903" lon="10.4772219"><ele>275.0</ele><time>2026-03-29T07:23:25.288Z</time></trkpt><trkpt lat="45.5811461" lon="10.4771123"><ele>275.0</ele><time>2026-03-29T07:23:26.287Z</time></trkpt><trkpt lat="45.5811283" lon="10.4769729"><ele>275.0</ele><time>2026-03-29T07:23:27.288Z</time></trkpt><trkpt lat="45.5811288" lon="10.4768182"><ele>275.0</ele><time>2026-03-29T07:23:28.288Z</time></trkpt><trkpt lat="45.5811404" lon="10.4766537"><ele>273.0</ele><time>2026-03-29T07:23:29.288Z</time></trkpt><trkpt lat="45.5811505" lon="10.4764896"><ele>271.0</ele><time>2026-03-29T07:23:30.287Z</time></trkpt><trkpt lat="45.5811483" lon="10.4763303"><ele>269.0</ele><time>2026-03-29T07:23:31.287Z</time></trkpt><trkpt lat="45.5811438" lon="10.4761648"><ele>267.0</ele><time>2026-03-29T07:23:32.287Z</time></trkpt><trkpt lat="45.5811459" lon="10.4759975"><ele>267.0</ele><time>2026-03-29T07:23:33.288Z</time></trkpt><trkpt lat="45.5811543" lon="10.4758349"><ele>267.0</ele><time>2026-03-29T07:23:34.287Z</time></trkpt><trkpt lat="45.5811687" lon="10.4756651"><ele>267.0</ele><time>2026-03-29T07:23:35.288Z</time></trkpt><trkpt lat="45.5811818" lon="10.4755063"><ele>267.0</ele><time>2026-03-29T07:23:36.288Z</time></trkpt><trkpt lat="45.5811982" lon="10.4753548"><ele>267.5</ele><time>2026-03-29T07:23:37.287Z</time></trkpt><trkpt lat="45.5812184" lon="10.4752001"><ele>268.0</ele><time>2026-03-29T07:23:38.287Z</time></trkpt><trkpt lat="45.5812423" lon="10.4750405"><ele>268.5</ele><time>2026-03-29T07:23:39.288Z</time></trkpt><trkpt lat="45.5812662" lon="10.4748813"><ele>269.0</ele><time>2026-03-29T07:23:40.287Z</time></trkpt><trkpt lat="45.5812876" lon="10.4747158"><ele>268.5</ele><time>2026-03-29T07:23:41.288Z</time></trkpt><trkpt lat="45.5812993" lon="10.4745448"><ele>268.0</ele><time>2026-03-29T07:23:42.288Z</time></trkpt><trkpt lat="45.5813107" lon="10.4743714"><ele>267.5</ele><time>2026-03-29T07:23:43.288Z</time></trkpt><trkpt lat="45.5813177" lon="10.474199"><ele>267.0</ele><time>2026-03-29T07:23:44.287Z</time></trkpt><trkpt lat="45.5813163" lon="10.4740289"><ele>267.0</ele><time>2026-03-29T07:23:45.287Z</time></trkpt><trkpt lat="45.5813467" lon="10.473854"><ele>267.0</ele><time>2026-03-29T07:23:46.288Z</time></trkpt><trkpt lat="45.5813595" lon="10.4737081"><ele>267.0</ele><time>2026-03-29T07:23:47.287Z</time></trkpt><trkpt lat="45.5813948" lon="10.473556"><ele>267.0</ele><time>2026-03-29T07:23:48.288Z</time></trkpt><trkpt lat="45.5814381" lon="10.4733931"><ele>265.5</ele><time>2026-03-29T07:23:49.287Z</time></trkpt><trkpt lat="45.5815018" lon="10.473234"><ele>264.0</ele><time>2026-03-29T07:23:50.288Z</time></trkpt><trkpt lat="45.5815773" lon="10.4730802"><ele>262.5</ele><time>2026-03-29T07:23:51.288Z</time></trkpt><trkpt lat="45.5816511" lon="10.4729563"><ele>261.0</ele><time>2026-03-29T07:23:52.287Z</time></trkpt><trkpt lat="45.5817342" lon="10.4728505"><ele>261.5</ele><time>2026-03-29T07:23:53.287Z</time></trkpt><trkpt lat="45.5818386" lon="10.472766"><ele>262.0</ele><time>2026-03-29T07:23:54.288Z</time></trkpt><trkpt lat="45.5819471" lon="10.4726782"><ele>262.5</ele><time>2026-03-29T07:23:55.287Z</time></trkpt><trkpt lat="45.5820533" lon="10.4725921"><ele>263.0</ele><time>2026-03-29T07:23:56.288Z</time></trkpt><trkpt lat="45.5821622" lon="10.4724957"><ele>263.0</ele><time>2026-03-29T07:23:57.288Z</time></trkpt><trkpt lat="45.582284" lon="10.4723921"><ele>263.0</ele><time>2026-03-29T07:23:58.288Z</time></trkpt><trkpt lat="45.5824103" lon="10.4722838"><ele>263.0</ele><time>2026-03-29T07:23:59.287Z</time></trkpt><trkpt lat="45.5825254" lon="10.4721853"><ele>263.0</ele><time>2026-03-29T07:24:00.288Z</time></trkpt><trkpt lat="45.5826452" lon="10.4720821"><ele>261.5</ele><time>2026-03-29T07:24:01.287Z</time></trkpt><trkpt lat="45.5827666" lon="10.4719783"><ele>260.0</ele><time>2026-03-29T07:24:02.287Z</time></trkpt><trkpt lat="45.5828618" lon="10.471871"><ele>258.5</ele><time>2026-03-29T07:24:03.287Z</time></trkpt><trkpt lat="45.5829435" lon="10.471751"><ele>257.0</ele><time>2026-03-29T07:24:04.287Z</time></trkpt><trkpt lat="45.5830197" lon="10.4716148"><ele>257.75</ele><time>2026-03-29T07:24:05.287Z</time></trkpt><trkpt lat="45.5830952" lon="10.4714689"><ele>258.5</ele><time>2026-03-29T07:24:06.288Z</time></trkpt><trkpt lat="45.5831786" lon="10.4713225"><ele>259.25</ele><time>2026-03-29T07:24:07.287Z</time></trkpt><trkpt lat="45.583261" lon="10.4711794"><ele>260.0</ele><time>2026-03-29T07:24:08.287Z</time></trkpt><trkpt lat="45.5833437" lon="10.4710419"><ele>260.0</ele><time>2026-03-29T07:24:09.287Z</time></trkpt><trkpt lat="45.5834277" lon="10.4709135"><ele>260.0</ele><time>2026-03-29T07:24:10.288Z</time></trkpt><trkpt lat="45.5835112" lon="10.4707819"><ele>260.0</ele><time>2026-03-29T07:24:11.288Z</time></trkpt><trkpt lat="45.5836034" lon="10.4706663"><ele>260.0</ele><time>2026-03-29T07:24:12.288Z</time></trkpt><trkpt lat="45.5836967" lon="10.4705539"><ele>260.25</ele><time>2026-03-29T07:24:13.288Z</time></trkpt><trkpt lat="45.5838075" lon="10.4704558"><ele>260.5</ele><time>2026-03-29T07:24:14.287Z</time></trkpt><trkpt lat="45.5839407" lon="10.4703589"><ele>260.75</ele><time>2026-03-29T07:24:15.287Z</time></trkpt><trkpt lat="45.5840762" lon="10.4702682"><ele>261.0</ele><time>2026-03-29T07:24:16.287Z</time></trkpt><trkpt lat="45.5842148" lon="10.4701751"><ele>260.25</ele><time>2026-03-29T07:24:17.288Z</time></trkpt><trkpt lat="45.5843486" lon="10.4700863"><ele>259.5</ele><time>2026-03-29T07:24:18.287Z</time></trkpt><trkpt lat="45.5844723" lon="10.4699933"><ele>258.75</ele><time>2026-03-29T07:24:19.288Z</time></trkpt><trkpt lat="45.5845973" lon="10.4699006"><ele>258.0</ele><time>2026-03-29T07:24:20.287Z</time></trkpt><trkpt lat="45.5847142" lon="10.4697973"><ele>258.0</ele><time>2026-03-29T07:24:21.288Z</time></trkpt><trkpt lat="45.5848275" lon="10.4696766"><ele>258.0</ele><time>2026-03-29T07:24:22.287Z</time></trkpt><trkpt lat="45.5849371" lon="10.469553"><ele>258.0</ele><time>2026-03-29T07:24:23.287Z</time></trkpt><trkpt lat="45.5850324" lon="10.4694161"><ele>258.0</ele><time>2026-03-29T07:24:24.287Z</time></trkpt><trkpt lat="45.5851276" lon="10.4692663"><ele>257.0</ele><time>2026-03-29T07:24:25.288Z</time></trkpt><trkpt lat="45.5852192" lon="10.4690954"><ele>256.0</ele><time>2026-03-29T07:24:26.288Z</time></trkpt><trkpt lat="45.5853086" lon="10.4689039"><ele>255.0</ele><time>2026-03-29T07:24:27.288Z</time></trkpt><trkpt lat="45.5854002" lon="10.4687059"><ele>252.66666666666669</ele><time>2026-03-29T07:24:28.288Z</time></trkpt><trkpt lat="45.5854916" lon="10.4684986"><ele>250.33333333333334</ele><time>2026-03-29T07:24:29.288Z</time></trkpt><trkpt lat="45.5855883" lon="10.4682801"><ele>248.0</ele><time>2026-03-29T07:24:30.287Z</time></trkpt><trkpt lat="45.5856825" lon="10.4680717"><ele>248.0</ele><time>2026-03-29T07:24:31.287Z</time></trkpt><trkpt lat="45.5857758" lon="10.4678631"><ele>248.0</ele><time>2026-03-29T07:24:32.288Z</time></trkpt><trkpt lat="45.5858688" lon="10.4676597"><ele>248.0</ele><time>2026-03-29T07:24:33.288Z</time></trkpt><trkpt lat="45.5859574" lon="10.4674563"><ele>248.0</ele><time>2026-03-29T07:24:34.288Z</time></trkpt><trkpt lat="45.5860504" lon="10.4672648"><ele>248.0</ele><time>2026-03-29T07:24:35.288Z</time></trkpt><trkpt lat="45.586157" lon="10.4670875"><ele>248.0</ele><time>2026-03-29T07:24:36.287Z</time></trkpt><trkpt lat="45.5862711" lon="10.4669287"><ele>250.33333333333334</ele><time>2026-03-29T07:24:37.287Z</time></trkpt><trkpt lat="45.586387" lon="10.4667698"><ele>252.66666666666669</ele><time>2026-03-29T07:24:38.287Z</time></trkpt><trkpt lat="45.5865051" lon="10.4666146"><ele>255.0</ele><time>2026-03-29T07:24:39.287Z</time></trkpt><trkpt lat="45.5866222" lon="10.4664551"><ele>255.0</ele><time>2026-03-29T07:24:40.287Z</time></trkpt><trkpt lat="45.5867313" lon="10.4662964"><ele>255.0</ele><time>2026-03-29T07:24:41.288Z</time></trkpt><trkpt lat="45.5868419" lon="10.466142"><ele>255.0</ele><time>2026-03-29T07:24:42.287Z</time></trkpt><trkpt lat="45.5869526" lon="10.4659886"><ele>256.6666666666667</ele><time>2026-03-29T07:24:43.288Z</time></trkpt><trkpt lat="45.5870586" lon="10.4658207"><ele>258.33333333333337</ele><time>2026-03-29T07:24:44.287Z</time></trkpt><trkpt lat="45.5871737" lon="10.4656659"><ele>260.0</ele><time>2026-03-29T07:24:45.288Z</time></trkpt><trkpt lat="45.5872845" lon="10.4655196"><ele>260.2</ele><time>2026-03-29T07:24:46.287Z</time></trkpt><trkpt lat="45.5873856" lon="10.4653965"><ele>260.4</ele><time>2026-03-29T07:24:47.288Z</time></trkpt><trkpt lat="45.5874664" lon="10.465278"><ele>260.6</ele><time>2026-03-29T07:24:48.287Z</time></trkpt><trkpt lat="45.5875407" lon="10.465178"><ele>260.8</ele><time>2026-03-29T07:24:49.288Z</time></trkpt><trkpt lat="45.5876072" lon="10.4650911"><ele>261.0</ele><time>2026-03-29T07:24:50.288Z</time></trkpt><trkpt lat="45.5876685" lon="10.4650109"><ele>261.0</ele><time>2026-03-29T07:24:51.288Z</time></trkpt><trkpt lat="45.5877305" lon="10.4649484"><ele>261.0</ele><time>2026-03-29T07:24:52.287Z</time></trkpt><trkpt lat="45.5878116" lon="10.4648999"><ele>261.0</ele><time>2026-03-29T07:24:54.288Z</time></trkpt><trkpt lat="45.5878711" lon="10.4650009"><ele>261.0</ele><time>2026-03-29T07:24:56.287Z</time></trkpt><trkpt lat="45.58791" lon="10.465092"><ele>261.0</ele><time>2026-03-29T07:24:57.288Z</time></trkpt><trkpt lat="45.5879567" lon="10.4651972"><ele>261.0</ele><time>2026-03-29T07:24:58.287Z</time></trkpt><trkpt lat="45.5880094" lon="10.465297"><ele>262.0</ele><time>2026-03-29T07:24:59.287Z</time></trkpt><trkpt lat="45.5880605" lon="10.4653799"><ele>263.0</ele><time>2026-03-29T07:25:00.288Z</time></trkpt><trkpt lat="45.5881328" lon="10.4654891"><ele>264.0</ele><time>2026-03-29T07:25:02.288Z</time></trkpt><trkpt lat="45.5881121" lon="10.4656147"><ele>265.0</ele><time>2026-03-29T07:25:05.287Z</time></trkpt><trkpt lat="45.5880189" lon="10.4657836"><ele>266.0</ele><time>2026-03-29T07:25:07.288Z</time></trkpt><trkpt lat="45.5879497" lon="10.4659117"><ele>266.5</ele><time>2026-03-29T07:25:08.287Z</time></trkpt><trkpt lat="45.5878633" lon="10.4660562"><ele>267.0</ele><time>2026-03-29T07:25:09.287Z</time></trkpt><trkpt lat="45.5877812" lon="10.4662066"><ele>267.5</ele><time>2026-03-29T07:25:10.287Z</time></trkpt><trkpt lat="45.5877074" lon="10.4663537"><ele>268.0</ele><time>2026-03-29T07:25:11.288Z</time></trkpt><trkpt lat="45.5876435" lon="10.466483"><ele>267.0</ele><time>2026-03-29T07:25:12.287Z</time></trkpt><trkpt lat="45.587585" lon="10.4666045"><ele>266.0</ele><time>2026-03-29T07:25:13.287Z</time></trkpt><trkpt lat="45.5875378" lon="10.4667192"><ele>265.0</ele><time>2026-03-29T07:25:14.287Z</time></trkpt><trkpt lat="45.5875039" lon="10.4668305"><ele>264.0</ele><time>2026-03-29T07:25:15.287Z</time></trkpt><trkpt lat="45.5874802" lon="10.4669475"><ele>263.0</ele><time>2026-03-29T07:25:16.288Z</time></trkpt><trkpt lat="45.5874681" lon="10.46707"><ele>263.33333333333337</ele><time>2026-03-29T07:25:17.287Z</time></trkpt><trkpt lat="45.5874695" lon="10.4672065"><ele>263.6666666666667</ele><time>2026-03-29T07:25:18.287Z</time></trkpt><trkpt lat="45.587469" lon="10.4673396"><ele>264.0</ele><time>2026-03-29T07:25:19.287Z</time></trkpt><trkpt lat="45.5874726" lon="10.4674611"><ele>264.3333333333333</ele><time>2026-03-29T07:25:20.288Z</time></trkpt><trkpt lat="45.587484" lon="10.4675795"><ele>264.66666666666663</ele><time>2026-03-29T07:25:21.288Z</time></trkpt><trkpt lat="45.5875118" lon="10.4676917"><ele>265.0</ele><time>2026-03-29T07:25:22.288Z</time></trkpt><trkpt lat="45.5875466" lon="10.4677946"><ele>264.99999999999994</ele><time>2026-03-29T07:25:23.287Z</time></trkpt><trkpt lat="45.5875884" lon="10.4678882"><ele>265.0</ele><time>2026-03-29T07:25:24.287Z</time></trkpt><trkpt lat="45.5876377" lon="10.4679691"><ele>265.0</ele><time>2026-03-29T07:25:25.287Z</time></trkpt><trkpt lat="45.587692" lon="10.4680352"><ele>265.0</ele><time>2026-03-29T07:25:26.288Z</time></trkpt><trkpt lat="45.5877538" lon="10.4681016"><ele>265.0</ele><time>2026-03-29T07:25:27.287Z</time></trkpt><trkpt lat="45.5878194" lon="10.4681599"><ele>264.99999999999994</ele><time>2026-03-29T07:25:28.288Z</time></trkpt><trkpt lat="45.5878812" lon="10.4682082"><ele>265.0</ele><time>2026-03-29T07:25:29.288Z</time></trkpt><trkpt lat="45.5879799" lon="10.4682657"><ele>265.0</ele><time>2026-03-29T07:25:31.287Z</time></trkpt><trkpt lat="45.5880417" lon="10.468369"><ele>265.0</ele><time>2026-03-29T07:25:33.288Z</time></trkpt><trkpt lat="45.5880933" lon="10.4685033"><ele>265.0</ele><time>2026-03-29T07:25:35.288Z</time></trkpt><trkpt lat="45.5881573" lon="10.4686314"><ele>265.0</ele><time>2026-03-29T07:25:37.288Z</time></trkpt><trkpt lat="45.5882335" lon="10.4687638"><ele>265.0</ele><time>2026-03-29T07:25:39.287Z</time></trkpt><trkpt lat="45.5882742" lon="10.4688501"><ele>263.8</ele><time>2026-03-29T07:25:40.288Z</time></trkpt><trkpt lat="45.58831" lon="10.468949"><ele>262.6</ele><time>2026-03-29T07:25:41.288Z</time></trkpt><trkpt lat="45.5883478" lon="10.4690563"><ele>261.4</ele><time>2026-03-29T07:25:42.287Z</time></trkpt><trkpt lat="45.5883847" lon="10.4691737"><ele>260.2</ele><time>2026-03-29T07:25:43.287Z</time></trkpt><trkpt lat="45.5884179" lon="10.4693148"><ele>259.0</ele><time>2026-03-29T07:25:44.287Z</time></trkpt><trkpt lat="45.5884538" lon="10.4694705"><ele>258.66666666666663</ele><time>2026-03-29T07:25:45.288Z</time></trkpt><trkpt lat="45.5884879" lon="10.469613"><ele>258.3333333333333</ele><time>2026-03-29T07:25:46.287Z</time></trkpt><trkpt lat="45.5885269" lon="10.4697422"><ele>258.0</ele><time>2026-03-29T07:25:47.287Z</time></trkpt><trkpt lat="45.5885701" lon="10.4698534"><ele>257.6666666666667</ele><time>2026-03-29T07:25:48.287Z</time></trkpt><trkpt lat="45.5886146" lon="10.4699505"><ele>257.33333333333337</ele><time>2026-03-29T07:25:49.287Z</time></trkpt><trkpt lat="45.5886513" lon="10.4700312"><ele>257.0</ele><time>2026-03-29T07:25:50.287Z</time></trkpt><trkpt lat="45.5886952" lon="10.4701414"><ele>258.2</ele><time>2026-03-29T07:25:52.287Z</time></trkpt><trkpt lat="45.5887209" lon="10.4702465"><ele>259.4</ele><time>2026-03-29T07:25:54.287Z</time></trkpt><trkpt lat="45.5887298" lon="10.4703941"><ele>260.6</ele><time>2026-03-29T07:25:56.287Z</time></trkpt><trkpt lat="45.5887275" lon="10.47056"><ele>261.8</ele><time>2026-03-29T07:25:58.288Z</time></trkpt><trkpt lat="45.5887316" lon="10.4707153"><ele>263.0</ele><time>2026-03-29T07:26:00.288Z</time></trkpt><trkpt lat="45.5887464" lon="10.4708616"><ele>263.0</ele><time>2026-03-29T07:26:02.288Z</time></trkpt><trkpt lat="45.5887589" lon="10.4710327"><ele>263.0</ele><time>2026-03-29T07:26:04.287Z</time></trkpt><trkpt lat="45.5887599" lon="10.4711466"><ele>263.0</ele><time>2026-03-29T07:26:05.288Z</time></trkpt><trkpt lat="45.5887567" lon="10.4712792"><ele>263.0</ele><time>2026-03-29T07:26:06.287Z</time></trkpt><trkpt lat="45.5887518" lon="10.4714234"><ele>263.0</ele><time>2026-03-29T07:26:07.288Z</time></trkpt><trkpt lat="45.5887447" lon="10.4715664"><ele>263.1666666666667</ele><time>2026-03-29T07:26:08.288Z</time></trkpt><trkpt lat="45.5887457" lon="10.4717099"><ele>263.33333333333337</ele><time>2026-03-29T07:26:09.288Z</time></trkpt><trkpt lat="45.5887481" lon="10.4718486"><ele>263.5</ele><time>2026-03-29T07:26:10.287Z</time></trkpt><trkpt lat="45.588758" lon="10.4719709"><ele>263.6666666666667</ele><time>2026-03-29T07:26:11.287Z</time></trkpt><trkpt lat="45.5887646" lon="10.4720871"><ele>263.8333333333333</ele><time>2026-03-29T07:26:12.288Z</time></trkpt><trkpt lat="45.5887693" lon="10.4721987"><ele>264.0</ele><time>2026-03-29T07:26:13.288Z</time></trkpt><trkpt lat="45.5887743" lon="10.4723119"><ele>264.3333333333333</ele><time>2026-03-29T07:26:14.287Z</time></trkpt><trkpt lat="45.5887844" lon="10.472431"><ele>264.6666666666667</ele><time>2026-03-29T07:26:15.287Z</time></trkpt><trkpt lat="45.5887992" lon="10.4725486"><ele>265.0</ele><time>2026-03-29T07:26:16.288Z</time></trkpt><trkpt lat="45.588817" lon="10.4726686"><ele>265.33333333333337</ele><time>2026-03-29T07:26:17.287Z</time></trkpt><trkpt lat="45.5888351" lon="10.4727989"><ele>265.6666666666667</ele><time>2026-03-29T07:26:18.287Z</time></trkpt><trkpt lat="45.5888568" lon="10.4729293"><ele>266.0</ele><time>2026-03-29T07:26:19.288Z</time></trkpt><trkpt lat="45.5888774" lon="10.4730524"><ele>266.1666666666667</ele><time>2026-03-29T07:26:20.287Z</time></trkpt><trkpt lat="45.5888986" lon="10.4731747"><ele>266.33333333333337</ele><time>2026-03-29T07:26:21.288Z</time></trkpt><trkpt lat="45.5889198" lon="10.473295"><ele>266.5</ele><time>2026-03-29T07:26:22.288Z</time></trkpt><trkpt lat="45.588936" lon="10.4734128"><ele>266.6666666666667</ele><time>2026-03-29T07:26:23.288Z</time></trkpt><trkpt lat="45.5889529" lon="10.4735312"><ele>266.8333333333333</ele><time>2026-03-29T07:26:24.288Z</time></trkpt><trkpt lat="45.588961" lon="10.4736446"><ele>267.0</ele><time>2026-03-29T07:26:25.287Z</time></trkpt><trkpt lat="45.5889586" lon="10.4737531"><ele>266.8333333333333</ele><time>2026-03-29T07:26:26.288Z</time></trkpt><trkpt lat="45.5889519" lon="10.4738668"><ele>266.6666666666667</ele><time>2026-03-29T07:26:27.288Z</time></trkpt><trkpt lat="45.5889379" lon="10.4739921"><ele>266.5</ele><time>2026-03-29T07:26:28.288Z</time></trkpt><trkpt lat="45.5889216" lon="10.4741268"><ele>266.33333333333337</ele><time>2026-03-29T07:26:29.288Z</time></trkpt><trkpt lat="45.5889089" lon="10.4742535"><ele>266.1666666666667</ele><time>2026-03-29T07:26:30.287Z</time></trkpt><trkpt lat="45.5888856" lon="10.4743848"><ele>266.0</ele><time>2026-03-29T07:26:31.287Z</time></trkpt><trkpt lat="45.5888678" lon="10.4745162"><ele>265.6666666666667</ele><time>2026-03-29T07:26:32.288Z</time></trkpt><trkpt lat="45.5888616" lon="10.4746411"><ele>265.33333333333337</ele><time>2026-03-29T07:26:33.287Z</time></trkpt><trkpt lat="45.5888669" lon="10.4747667"><ele>265.0</ele><time>2026-03-29T07:26:34.287Z</time></trkpt><trkpt lat="45.5888782" lon="10.4748881"><ele>264.6666666666667</ele><time>2026-03-29T07:26:35.288Z</time></trkpt><trkpt lat="45.588898" lon="10.4750135"><ele>264.3333333333333</ele><time>2026-03-29T07:26:36.287Z</time></trkpt><trkpt lat="45.5889191" lon="10.4751416"><ele>264.0</ele><time>2026-03-29T07:26:37.287Z</time></trkpt><trkpt lat="45.5889263" lon="10.4752579"><ele>264.0</ele><time>2026-03-29T07:26:38.287Z</time></trkpt><trkpt lat="45.58892" lon="10.4753555"><ele>264.0</ele><time>2026-03-29T07:26:39.288Z</time></trkpt><trkpt lat="45.5889046" lon="10.4754685"><ele>264.0</ele><time>2026-03-29T07:26:40.287Z</time></trkpt><trkpt lat="45.5888834" lon="10.4755811"><ele>264.0</ele><time>2026-03-29T07:26:41.288Z</time></trkpt><trkpt lat="45.5888531" lon="10.4756886"><ele>264.0</ele><time>2026-03-29T07:26:42.288Z</time></trkpt><trkpt lat="45.5888287" lon="10.4757821"><ele>264.0</ele><time>2026-03-29T07:26:43.288Z</time></trkpt><trkpt lat="45.5888179" lon="10.4759673"><ele>264.1666666666667</ele><time>2026-03-29T07:26:45.287Z</time></trkpt><trkpt lat="45.5888343" lon="10.4760736"><ele>264.3333333333333</ele><time>2026-03-29T07:26:46.288Z</time></trkpt><trkpt lat="45.5888679" lon="10.4761878"><ele>264.5</ele><time>2026-03-29T07:26:47.287Z</time></trkpt><trkpt lat="45.588909" lon="10.4763093"><ele>264.66666666666663</ele><time>2026-03-29T07:26:48.288Z</time></trkpt><trkpt lat="45.5889414" lon="10.4764366"><ele>264.8333333333333</ele><time>2026-03-29T07:26:49.288Z</time></trkpt><trkpt lat="45.5889566" lon="10.4765675"><ele>265.0</ele><time>2026-03-29T07:26:50.288Z</time></trkpt><trkpt lat="45.5889629" lon="10.4766967"><ele>265.2</ele><time>2026-03-29T07:26:51.288Z</time></trkpt><trkpt lat="45.5889653" lon="10.4768254"><ele>265.4</ele><time>2026-03-29T07:26:52.288Z</time></trkpt><trkpt lat="45.5889723" lon="10.4769647"><ele>265.6</ele><time>2026-03-29T07:26:53.288Z</time></trkpt><trkpt lat="45.5889841" lon="10.4771014"><ele>265.8</ele><time>2026-03-29T07:26:54.288Z</time></trkpt><trkpt lat="45.5889951" lon="10.477232"><ele>266.0</ele><time>2026-03-29T07:26:55.287Z</time></trkpt><trkpt lat="45.5890019" lon="10.4773557"><ele>267.0</ele><time>2026-03-29T07:26:56.288Z</time></trkpt><trkpt lat="45.5890033" lon="10.4774735"><ele>268.0</ele><time>2026-03-29T07:26:57.287Z</time></trkpt><trkpt lat="45.588999" lon="10.4775864"><ele>269.0</ele><time>2026-03-29T07:26:58.288Z</time></trkpt><trkpt lat="45.5890003" lon="10.4776961"><ele>270.0</ele><time>2026-03-29T07:26:59.287Z</time></trkpt><trkpt lat="45.5890067" lon="10.4777972"><ele>271.0</ele><time>2026-03-29T07:27:00.287Z</time></trkpt><trkpt lat="45.5890113" lon="10.4778896"><ele>272.0</ele><time>2026-03-29T07:27:01.287Z</time></trkpt><trkpt lat="45.5890111" lon="10.478031"><ele>272.5</ele><time>2026-03-29T07:27:03.288Z</time></trkpt><trkpt lat="45.5890242" lon="10.4781303"><ele>273.0</ele><time>2026-03-29T07:27:05.288Z</time></trkpt><trkpt lat="45.589083" lon="10.4781914"><ele>273.5</ele><time>2026-03-29T07:27:07.287Z</time></trkpt><trkpt lat="45.5891848" lon="10.4782169"><ele>274.0</ele><time>2026-03-29T07:27:09.288Z</time></trkpt><trkpt lat="45.5892565" lon="10.4782231"><ele>274.5</ele><time>2026-03-29T07:27:10.288Z</time></trkpt><trkpt lat="45.5893375" lon="10.478243"><ele>275.0</ele><time>2026-03-29T07:27:11.287Z</time></trkpt><trkpt lat="45.589425" lon="10.4782688"><ele>275.4</ele><time>2026-03-29T07:27:12.287Z</time></trkpt><trkpt lat="45.5895235" lon="10.4783046"><ele>275.8</ele><time>2026-03-29T07:27:13.287Z</time></trkpt><trkpt lat="45.589629" lon="10.4783534"><ele>276.2</ele><time>2026-03-29T07:27:14.287Z</time></trkpt><trkpt lat="45.5897275" lon="10.478405"><ele>276.6</ele><time>2026-03-29T07:27:15.288Z</time></trkpt><trkpt lat="45.589816" lon="10.4784662"><ele>277.0</ele><time>2026-03-29T07:27:16.288Z</time></trkpt><trkpt lat="45.5899019" lon="10.4785345"><ele>277.0</ele><time>2026-03-29T07:27:17.287Z</time></trkpt><trkpt lat="45.589989" lon="10.4786062"><ele>277.0</ele><time>2026-03-29T07:27:18.287Z</time></trkpt><trkpt lat="45.5900734" lon="10.4786909"><ele>277.0</ele><time>2026-03-29T07:27:19.288Z</time></trkpt><trkpt lat="45.5901561" lon="10.4787634"><ele>277.0</ele><time>2026-03-29T07:27:20.287Z</time></trkpt><trkpt lat="45.5902421" lon="10.4788317"><ele>277.0</ele><time>2026-03-29T07:27:21.288Z</time></trkpt><trkpt lat="45.5903236" lon="10.4788893"><ele>277.66666666666663</ele><time>2026-03-29T07:27:22.287Z</time></trkpt><trkpt lat="45.5903999" lon="10.4789366"><ele>278.3333333333333</ele><time>2026-03-29T07:27:23.288Z</time></trkpt><trkpt lat="45.5904715" lon="10.4789713"><ele>279.0</ele><time>2026-03-29T07:27:24.288Z</time></trkpt><trkpt lat="45.5905475" lon="10.4790128"><ele>279.6666666666667</ele><time>2026-03-29T07:27:25.288Z</time></trkpt><trkpt lat="45.590633" lon="10.4790648"><ele>280.33333333333337</ele><time>2026-03-29T07:27:26.288Z</time></trkpt><trkpt lat="45.5907221" lon="10.4791214"><ele>281.0</ele><time>2026-03-29T07:27:27.287Z</time></trkpt><trkpt lat="45.5908086" lon="10.4791844"><ele>281.0</ele><time>2026-03-29T07:27:28.288Z</time></trkpt><trkpt lat="45.5908897" lon="10.4792443"><ele>281.0</ele><time>2026-03-29T07:27:29.288Z</time></trkpt><trkpt lat="45.5909601" lon="10.4792974"><ele>281.0</ele><time>2026-03-29T07:27:30.287Z</time></trkpt><trkpt lat="45.5910278" lon="10.4793484"><ele>281.0</ele><time>2026-03-29T07:27:31.287Z</time></trkpt><trkpt lat="45.5910872" lon="10.4793961"><ele>281.0</ele><time>2026-03-29T07:27:32.287Z</time></trkpt><trkpt lat="45.591148" lon="10.4794343"><ele>281.0</ele><time>2026-03-29T07:27:33.287Z</time></trkpt><trkpt lat="45.5912191" lon="10.4794633"><ele>281.1666666666667</ele><time>2026-03-29T07:27:34.288Z</time></trkpt><trkpt lat="45.5912907" lon="10.4794805"><ele>281.33333333333337</ele><time>2026-03-29T07:27:35.288Z</time></trkpt><trkpt lat="45.5913681" lon="10.4794962"><ele>281.5</ele><time>2026-03-29T07:27:36.288Z</time></trkpt><trkpt lat="45.5914501" lon="10.4795133"><ele>281.6666666666667</ele><time>2026-03-29T07:27:37.288Z</time></trkpt><trkpt lat="45.591524" lon="10.4795426"><ele>281.8333333333333</ele><time>2026-03-29T07:27:38.287Z</time></trkpt><trkpt lat="45.5916125" lon="10.4795661"><ele>282.0</ele><time>2026-03-29T07:27:39.287Z</time></trkpt><trkpt lat="45.5917093" lon="10.4795898"><ele>283.0</ele><time>2026-03-29T07:27:40.287Z</time></trkpt><trkpt lat="45.5918124" lon="10.479618"><ele>284.0</ele><time>2026-03-29T07:27:41.288Z</time></trkpt><trkpt lat="45.591918" lon="10.4796525"><ele>285.0</ele><time>2026-03-29T07:27:42.287Z</time></trkpt><trkpt lat="45.5920231" lon="10.479691"><ele>286.0</ele><time>2026-03-29T07:27:43.287Z</time></trkpt><trkpt lat="45.592127" lon="10.4797245"><ele>287.0</ele><time>2026-03-29T07:27:44.288Z</time></trkpt><trkpt lat="45.5922308" lon="10.4797633"><ele>287.6</ele><time>2026-03-29T07:27:45.287Z</time></trkpt><trkpt lat="45.5923262" lon="10.4798215"><ele>288.2</ele><time>2026-03-29T07:27:46.287Z</time></trkpt><trkpt lat="45.5924246" lon="10.4798896"><ele>288.8</ele><time>2026-03-29T07:27:47.288Z</time></trkpt><trkpt lat="45.5925134" lon="10.4799547"><ele>289.4</ele><time>2026-03-29T07:27:48.287Z</time></trkpt><trkpt lat="45.5925933" lon="10.4800066"><ele>290.0</ele><time>2026-03-29T07:27:49.288Z</time></trkpt><trkpt lat="45.5926804" lon="10.4800417"><ele>290.0</ele><time>2026-03-29T07:27:50.288Z</time></trkpt><trkpt lat="45.5927747" lon="10.4800738"><ele>290.0</ele><time>2026-03-29T07:27:51.288Z</time></trkpt><trkpt lat="45.5928728" lon="10.4800968"><ele>290.0</ele><time>2026-03-29T07:27:52.287Z</time></trkpt><trkpt lat="45.5929636" lon="10.4801142"><ele>290.0</ele><time>2026-03-29T07:27:53.288Z</time></trkpt><trkpt lat="45.593049" lon="10.4801198"><ele>290.0</ele><time>2026-03-29T07:27:54.288Z</time></trkpt><trkpt lat="45.5931328" lon="10.4801152"><ele>290.2</ele><time>2026-03-29T07:27:55.287Z</time></trkpt><trkpt lat="45.5932244" lon="10.4801048"><ele>290.4</ele><time>2026-03-29T07:27:56.287Z</time></trkpt><trkpt lat="45.5933176" lon="10.4800856"><ele>290.6</ele><time>2026-03-29T07:27:57.287Z</time></trkpt><trkpt lat="45.593414" lon="10.480041"><ele>290.8</ele><time>2026-03-29T07:27:58.286Z</time></trkpt><trkpt lat="45.5935137" lon="10.4799834"><ele>291.0</ele><time>2026-03-29T07:27:59.287Z</time></trkpt><trkpt lat="45.5936217" lon="10.4799557"><ele>291.75</ele><time>2026-03-29T07:28:00.286Z</time></trkpt><trkpt lat="45.5937343" lon="10.4799577"><ele>292.5</ele><time>2026-03-29T07:28:01.286Z</time></trkpt><trkpt lat="45.5938639" lon="10.4799803"><ele>293.25</ele><time>2026-03-29T07:28:02.287Z</time></trkpt><trkpt lat="45.5940028" lon="10.4800095"><ele>294.0</ele><time>2026-03-29T07:28:03.287Z</time></trkpt><trkpt lat="45.5941312" lon="10.4800431"><ele>294.0</ele><time>2026-03-29T07:28:04.287Z</time></trkpt><trkpt lat="45.5942305" lon="10.4800595"><ele>294.0</ele><time>2026-03-29T07:28:05.286Z</time></trkpt><trkpt lat="45.5943044" lon="10.4800732"><ele>294.0</ele><time>2026-03-29T07:28:06.286Z</time></trkpt><trkpt lat="45.5943888" lon="10.4799591"><ele>294.0</ele><time>2026-03-29T07:28:09.287Z</time></trkpt><trkpt lat="45.5944235" lon="10.4798222"><ele>294.0</ele><time>2026-03-29T07:28:10.286Z</time></trkpt><trkpt lat="45.5944657" lon="10.4796442"><ele>295.0</ele><time>2026-03-29T07:28:11.287Z</time></trkpt><trkpt lat="45.594512" lon="10.4794405"><ele>296.0</ele><time>2026-03-29T07:28:12.287Z</time></trkpt><trkpt lat="45.5945389" lon="10.479243"><ele>297.0</ele><time>2026-03-29T07:28:13.287Z</time></trkpt><trkpt lat="45.5945247" lon="10.4790531"><ele>298.0</ele><time>2026-03-29T07:28:14.287Z</time></trkpt><trkpt lat="45.5944714" lon="10.4788719"><ele>301.3333333333333</ele><time>2026-03-29T07:28:15.286Z</time></trkpt><trkpt lat="45.5943689" lon="10.4786911"><ele>304.6666666666667</ele><time>2026-03-29T07:28:16.287Z</time></trkpt><trkpt lat="45.5942436" lon="10.4784824"><ele>308.0</ele><time>2026-03-29T07:28:17.287Z</time></trkpt><trkpt lat="45.5941123" lon="10.478268"><ele>308.0</ele><time>2026-03-29T07:28:18.287Z</time></trkpt><trkpt lat="45.5939916" lon="10.478087"><ele>308.0</ele><time>2026-03-29T07:28:19.286Z</time></trkpt><trkpt lat="45.5938963" lon="10.4779335"><ele>308.0</ele><time>2026-03-29T07:28:20.286Z</time></trkpt><trkpt lat="45.5938286" lon="10.477791"><ele>308.0</ele><time>2026-03-29T07:28:21.287Z</time></trkpt><trkpt lat="45.5937723" lon="10.4776574"><ele>308.4</ele><time>2026-03-29T07:28:22.286Z</time></trkpt><trkpt lat="45.5937229" lon="10.4775264"><ele>308.8</ele><time>2026-03-29T07:28:23.287Z</time></trkpt><trkpt lat="45.5936757" lon="10.4774027"><ele>309.2</ele><time>2026-03-29T07:28:24.286Z</time></trkpt><trkpt lat="45.5936258" lon="10.477277"><ele>309.6</ele><time>2026-03-29T07:28:25.287Z</time></trkpt><trkpt lat="45.5935735" lon="10.4771382"><ele>310.0</ele><time>2026-03-29T07:28:26.286Z</time></trkpt><trkpt lat="45.5935222" lon="10.476995"><ele>311.0</ele><time>2026-03-29T07:28:27.286Z</time></trkpt><trkpt lat="45.5934805" lon="10.4768465"><ele>312.0</ele><time>2026-03-29T07:28:28.286Z</time></trkpt><trkpt lat="45.593442" lon="10.4766916"><ele>313.0</ele><time>2026-03-29T07:28:29.286Z</time></trkpt><trkpt lat="45.5934099" lon="10.4765245"><ele>314.0</ele><time>2026-03-29T07:28:30.286Z</time></trkpt><trkpt lat="45.5933762" lon="10.4763537"><ele>317.0</ele><time>2026-03-29T07:28:31.287Z</time></trkpt><trkpt lat="45.5933444" lon="10.4761872"><ele>320.0</ele><time>2026-03-29T07:28:32.287Z</time></trkpt><trkpt lat="45.5933155" lon="10.4760294"><ele>323.0</ele><time>2026-03-29T07:28:33.286Z</time></trkpt><trkpt lat="45.5932776" lon="10.4758752"><ele>326.0</ele><time>2026-03-29T07:28:34.287Z</time></trkpt><trkpt lat="45.593247" lon="10.475721"><ele>326.0</ele><time>2026-03-29T07:28:35.286Z</time></trkpt><trkpt lat="45.5932147" lon="10.4755642"><ele>326.0</ele><time>2026-03-29T07:28:36.286Z</time></trkpt><trkpt lat="45.5931833" lon="10.4754049"><ele>326.0</ele><time>2026-03-29T07:28:37.286Z</time></trkpt><trkpt lat="45.5931544" lon="10.4752448"><ele>326.0</ele><time>2026-03-29T07:28:38.287Z</time></trkpt><trkpt lat="45.5931371" lon="10.4750858"><ele>327.0</ele><time>2026-03-29T07:28:39.286Z</time></trkpt><trkpt lat="45.593116" lon="10.4749335"><ele>328.0</ele><time>2026-03-29T07:28:40.287Z</time></trkpt><trkpt lat="45.5930972" lon="10.474785"><ele>329.0</ele><time>2026-03-29T07:28:41.287Z</time></trkpt><trkpt lat="45.5930781" lon="10.4746445"><ele>330.0</ele><time>2026-03-29T07:28:42.286Z</time></trkpt><trkpt lat="45.5930623" lon="10.4745163"><ele>331.0</ele><time>2026-03-29T07:28:43.286Z</time></trkpt><trkpt lat="45.5930473" lon="10.4744041"><ele>331.8</ele><time>2026-03-29T07:28:44.287Z</time></trkpt><trkpt lat="45.5930363" lon="10.4742985"><ele>332.6</ele><time>2026-03-29T07:28:45.287Z</time></trkpt><trkpt lat="45.5930253" lon="10.4742005"><ele>333.4</ele><time>2026-03-29T07:28:46.286Z</time></trkpt><trkpt lat="45.5930155" lon="10.4740399"><ele>334.2</ele><time>2026-03-29T07:28:48.287Z</time></trkpt><trkpt lat="45.5930304" lon="10.4738606"><ele>335.0</ele><time>2026-03-29T07:28:50.286Z</time></trkpt><trkpt lat="45.593068" lon="10.4736944"><ele>335.0</ele><time>2026-03-29T07:28:52.287Z</time></trkpt><trkpt lat="45.5930689" lon="10.473599"><ele>335.0</ele><time>2026-03-29T07:28:53.287Z</time></trkpt><trkpt lat="45.5930444" lon="10.4734936"><ele>335.0</ele><time>2026-03-29T07:28:54.287Z</time></trkpt><trkpt lat="45.5930145" lon="10.4733799"><ele>335.0</ele><time>2026-03-29T07:28:55.286Z</time></trkpt><trkpt lat="45.5929864" lon="10.4732694"><ele>335.0</ele><time>2026-03-29T07:28:56.287Z</time></trkpt><trkpt lat="45.5929699" lon="10.4731673"><ele>335.0</ele><time>2026-03-29T07:28:57.286Z</time></trkpt><trkpt lat="45.5929394" lon="10.4730251"><ele>334.5</ele><time>2026-03-29T07:28:59.286Z</time></trkpt><trkpt lat="45.592915" lon="10.4729274"><ele>334.0</ele><time>2026-03-29T07:29:01.287Z</time></trkpt><trkpt lat="45.5928751" lon="10.4727933"><ele>333.5</ele><time>2026-03-29T07:29:03.286Z</time></trkpt><trkpt lat="45.5928467" lon="10.472707"><ele>333.0</ele><time>2026-03-29T07:29:04.287Z</time></trkpt><trkpt lat="45.5928133" lon="10.4726117"><ele>332.5</ele><time>2026-03-29T07:29:05.286Z</time></trkpt><trkpt lat="45.5927735" lon="10.4725214"><ele>332.0</ele><time>2026-03-29T07:29:06.286Z</time></trkpt><trkpt lat="45.5927348" lon="10.47243"><ele>329.6666666666667</ele><time>2026-03-29T07:29:07.287Z</time></trkpt><trkpt lat="45.5926936" lon="10.4723353"><ele>327.33333333333337</ele><time>2026-03-29T07:29:08.286Z</time></trkpt><trkpt lat="45.5926532" lon="10.472237"><ele>325.0</ele><time>2026-03-29T07:29:09.287Z</time></trkpt><trkpt lat="45.5926208" lon="10.4721433"><ele>322.6666666666667</ele><time>2026-03-29T07:29:10.286Z</time></trkpt><trkpt lat="45.5925676" lon="10.4719983"><ele>320.3333333333333</ele><time>2026-03-29T07:29:12.287Z</time></trkpt><trkpt lat="45.5925268" lon="10.4718802"><ele>318.0</ele><time>2026-03-29T07:29:14.287Z</time></trkpt><trkpt lat="45.5924964" lon="10.4717709"><ele>318.0</ele><time>2026-03-29T07:29:16.286Z</time></trkpt><trkpt lat="45.5924523" lon="10.4716634"><ele>318.0</ele><time>2026-03-29T07:29:18.286Z</time></trkpt><trkpt lat="45.5923863" lon="10.4715137"><ele>318.0</ele><time>2026-03-29T07:29:20.287Z</time></trkpt><trkpt lat="45.5923503" lon="10.4714265"><ele>318.0</ele><time>2026-03-29T07:29:21.287Z</time></trkpt><trkpt lat="45.5923292" lon="10.4713275"><ele>318.0</ele><time>2026-03-29T07:29:22.286Z</time></trkpt><trkpt lat="45.5922903" lon="10.4712406"><ele>318.0</ele><time>2026-03-29T07:29:23.287Z</time></trkpt><trkpt lat="45.5922458" lon="10.4711459"><ele>318.6</ele><time>2026-03-29T07:29:24.287Z</time></trkpt><trkpt lat="45.5922001" lon="10.4710413"><ele>319.20000000000005</ele><time>2026-03-29T07:29:25.287Z</time></trkpt><trkpt lat="45.5921573" lon="10.4709286"><ele>319.8</ele><time>2026-03-29T07:29:26.286Z</time></trkpt><trkpt lat="45.592123" lon="10.4708065"><ele>320.40000000000003</ele><time>2026-03-29T07:29:27.286Z</time></trkpt><trkpt lat="45.5920912" lon="10.4706816"><ele>321.0</ele><time>2026-03-29T07:29:28.287Z</time></trkpt><trkpt lat="45.59206" lon="10.4705577"><ele>322.0</ele><time>2026-03-29T07:29:29.286Z</time></trkpt><trkpt lat="45.5920292" lon="10.4704301"><ele>323.0</ele><time>2026-03-29T07:29:30.286Z</time></trkpt><trkpt lat="45.5920038" lon="10.4702983"><ele>324.0</ele><time>2026-03-29T07:29:31.287Z</time></trkpt><trkpt lat="45.5919898" lon="10.470168"><ele>325.0</ele><time>2026-03-29T07:29:32.287Z</time></trkpt><trkpt lat="45.5919848" lon="10.4700388"><ele>326.0</ele><time>2026-03-29T07:29:33.287Z</time></trkpt><trkpt lat="45.5919868" lon="10.4699025"><ele>323.1666666666667</ele><time>2026-03-29T07:29:34.286Z</time></trkpt><trkpt lat="45.5919877" lon="10.4697687"><ele>320.33333333333337</ele><time>2026-03-29T07:29:35.286Z</time></trkpt><trkpt lat="45.5919859" lon="10.4696385"><ele>317.5</ele><time>2026-03-29T07:29:36.287Z</time></trkpt><trkpt lat="45.5919799" lon="10.4695138"><ele>314.6666666666667</ele><time>2026-03-29T07:29:37.286Z</time></trkpt><trkpt lat="45.5919533" lon="10.4693984"><ele>311.8333333333333</ele><time>2026-03-29T07:29:38.286Z</time></trkpt><trkpt lat="45.5919101" lon="10.4693068"><ele>309.0</ele><time>2026-03-29T07:29:39.287Z</time></trkpt><trkpt lat="45.5918494" lon="10.4692371"><ele>308.8333333333333</ele><time>2026-03-29T07:29:40.286Z</time></trkpt><trkpt lat="45.5917755" lon="10.4691992"><ele>308.6666666666667</ele><time>2026-03-29T07:29:41.286Z</time></trkpt><trkpt lat="45.5916902" lon="10.4691932"><ele>308.5</ele><time>2026-03-29T07:29:42.287Z</time></trkpt><trkpt lat="45.5916014" lon="10.4692205"><ele>308.33333333333337</ele><time>2026-03-29T07:29:43.287Z</time></trkpt><trkpt lat="45.5915272" lon="10.4692862"><ele>308.1666666666667</ele><time>2026-03-29T07:29:44.286Z</time></trkpt><trkpt lat="45.5914632" lon="10.4693848"><ele>308.0</ele><time>2026-03-29T07:29:45.287Z</time></trkpt><trkpt lat="45.5914087" lon="10.4694916"><ele>308.0</ele><time>2026-03-29T07:29:46.287Z</time></trkpt><trkpt lat="45.5913643" lon="10.4695756"><ele>308.0</ele><time>2026-03-29T07:29:47.286Z</time></trkpt><trkpt lat="45.5913084" lon="10.4696249"><ele>308.0</ele><time>2026-03-29T07:29:48.286Z</time></trkpt><trkpt lat="45.5911914" lon="10.4696532"><ele>308.0</ele><time>2026-03-29T07:29:50.287Z</time></trkpt><trkpt lat="45.591136" lon="10.469608"><ele>308.0</ele><time>2026-03-29T07:29:51.287Z</time></trkpt><trkpt lat="45.5910744" lon="10.4695417"><ele>308.0</ele><time>2026-03-29T07:29:52.287Z</time></trkpt><trkpt lat="45.5910125" lon="10.4694442"><ele>306.4</ele><time>2026-03-29T07:29:53.286Z</time></trkpt><trkpt lat="45.5909594" lon="10.4693381"><ele>304.8</ele><time>2026-03-29T07:29:54.286Z</time></trkpt><trkpt lat="45.5909126" lon="10.4692223"><ele>303.2</ele><time>2026-03-29T07:29:55.287Z</time></trkpt><trkpt lat="45.59088" lon="10.4690881"><ele>301.6</ele><time>2026-03-29T07:29:56.286Z</time></trkpt><trkpt lat="45.5908588" lon="10.4689494"><ele>300.0</ele><time>2026-03-29T07:29:57.287Z</time></trkpt><trkpt lat="45.5908375" lon="10.4688156"><ele>299.2</ele><time>2026-03-29T07:29:58.287Z</time></trkpt><trkpt lat="45.5908205" lon="10.4686826"><ele>298.4</ele><time>2026-03-29T07:29:59.287Z</time></trkpt><trkpt lat="45.5907982" lon="10.4685576"><ele>297.6</ele><time>2026-03-29T07:30:00.286Z</time></trkpt><trkpt lat="45.5907754" lon="10.4684229"><ele>296.8</ele><time>2026-03-29T07:30:01.286Z</time></trkpt><trkpt lat="45.5907462" lon="10.4682818"><ele>296.0</ele><time>2026-03-29T07:30:02.287Z</time></trkpt><trkpt lat="45.5907129" lon="10.4681348"><ele>296.0</ele><time>2026-03-29T07:30:03.287Z</time></trkpt><trkpt lat="45.5906781" lon="10.4679811"><ele>296.0</ele><time>2026-03-29T07:30:04.286Z</time></trkpt><trkpt lat="45.5906465" lon="10.4678284"><ele>296.0</ele><time>2026-03-29T07:30:05.287Z</time></trkpt><trkpt lat="45.5906121" lon="10.4676742"><ele>296.0</ele><time>2026-03-29T07:30:06.286Z</time></trkpt><trkpt lat="45.5905747" lon="10.4675179"><ele>295.40000000000003</ele><time>2026-03-29T07:30:07.287Z</time></trkpt><trkpt lat="45.5905408" lon="10.4673698"><ele>294.8</ele><time>2026-03-29T07:30:08.286Z</time></trkpt><trkpt lat="45.5905106" lon="10.4672218"><ele>294.20000000000005</ele><time>2026-03-29T07:30:09.286Z</time></trkpt><trkpt lat="45.5904864" lon="10.467067"><ele>293.6</ele><time>2026-03-29T07:30:10.286Z</time></trkpt><trkpt lat="45.5904684" lon="10.4669175"><ele>293.0</ele><time>2026-03-29T07:30:11.287Z</time></trkpt><trkpt lat="45.5904494" lon="10.4667723"><ele>291.8</ele><time>2026-03-29T07:30:12.287Z</time></trkpt><trkpt lat="45.5904316" lon="10.4666477"><ele>290.6</ele><time>2026-03-29T07:30:13.287Z</time></trkpt><trkpt lat="45.5904179" lon="10.4665407"><ele>289.4</ele><time>2026-03-29T07:30:14.286Z</time></trkpt><trkpt lat="45.5903853" lon="10.4663663"><ele>288.2</ele><time>2026-03-29T07:30:16.286Z</time></trkpt><trkpt lat="45.5903629" lon="10.4662634"><ele>287.0</ele><time>2026-03-29T07:30:17.286Z</time></trkpt><trkpt lat="45.590334" lon="10.4661451"><ele>285.6</ele><time>2026-03-29T07:30:18.287Z</time></trkpt><trkpt lat="45.590291" lon="10.4660133"><ele>284.2</ele><time>2026-03-29T07:30:19.286Z</time></trkpt><trkpt lat="45.5902351" lon="10.4658817"><ele>282.8</ele><time>2026-03-29T07:30:20.286Z</time></trkpt><trkpt lat="45.5901686" lon="10.4657425"><ele>281.4</ele><time>2026-03-29T07:30:21.287Z</time></trkpt><trkpt lat="45.5900967" lon="10.465602"><ele>280.0</ele><time>2026-03-29T07:30:22.286Z</time></trkpt><trkpt lat="45.5900179" lon="10.4654526"><ele>278.75</ele><time>2026-03-29T07:30:23.286Z</time></trkpt><trkpt lat="45.5899369" lon="10.4653119"><ele>277.5</ele><time>2026-03-29T07:30:24.286Z</time></trkpt><trkpt lat="45.5898597" lon="10.465175"><ele>276.25</ele><time>2026-03-29T07:30:25.286Z</time></trkpt><trkpt lat="45.5897786" lon="10.4650505"><ele>275.0</ele><time>2026-03-29T07:30:26.287Z</time></trkpt><trkpt lat="45.5896847" lon="10.4649495"><ele>275.0</ele><time>2026-03-29T07:30:27.287Z</time></trkpt><trkpt lat="45.5895793" lon="10.4648726"><ele>275.0</ele><time>2026-03-29T07:30:28.286Z</time></trkpt><trkpt lat="45.589461" lon="10.4648153"><ele>275.0</ele><time>2026-03-29T07:30:29.286Z</time></trkpt><trkpt lat="45.5893411" lon="10.4647764"><ele>275.0</ele><time>2026-03-29T07:30:30.286Z</time></trkpt><trkpt lat="45.5892162" lon="10.4647575"><ele>275.0</ele><time>2026-03-29T07:30:31.286Z</time></trkpt><trkpt lat="45.58909" lon="10.4647594"><ele>275.0</ele><time>2026-03-29T07:30:32.286Z</time></trkpt><trkpt lat="45.5889619" lon="10.4647802"><ele>275.0</ele><time>2026-03-29T07:30:33.286Z</time></trkpt><trkpt lat="45.5888402" lon="10.4648097"><ele>275.0</ele><time>2026-03-29T07:30:34.287Z</time></trkpt><trkpt lat="45.5887292" lon="10.4648379"><ele>273.2</ele><time>2026-03-29T07:30:35.286Z</time></trkpt><trkpt lat="45.5886327" lon="10.4648508"><ele>271.4</ele><time>2026-03-29T07:30:36.286Z</time></trkpt><trkpt lat="45.5885347" lon="10.4648495"><ele>269.6</ele><time>2026-03-29T07:30:37.287Z</time></trkpt><trkpt lat="45.5884481" lon="10.4648209"><ele>267.8</ele><time>2026-03-29T07:30:38.287Z</time></trkpt><trkpt lat="45.5883906" lon="10.4647439"><ele>266.0</ele><time>2026-03-29T07:30:39.287Z</time></trkpt><trkpt lat="45.5883615" lon="10.4646258"><ele>265.75</ele><time>2026-03-29T07:30:40.287Z</time></trkpt><trkpt lat="45.5883466" lon="10.4644707"><ele>265.5</ele><time>2026-03-29T07:30:41.286Z</time></trkpt><trkpt lat="45.5883294" lon="10.4643045"><ele>265.25</ele><time>2026-03-29T07:30:42.286Z</time></trkpt><trkpt lat="45.5883076" lon="10.4641381"><ele>265.0</ele><time>2026-03-29T07:30:43.287Z</time></trkpt><trkpt lat="45.588285" lon="10.4639762"><ele>265.0</ele><time>2026-03-29T07:30:44.286Z</time></trkpt><trkpt lat="45.5882581" lon="10.4638182"><ele>265.0</ele><time>2026-03-29T07:30:45.286Z</time></trkpt><trkpt lat="45.5882248" lon="10.463661"><ele>265.0</ele><time>2026-03-29T07:30:46.286Z</time></trkpt><trkpt lat="45.5881958" lon="10.4635118"><ele>265.0</ele><time>2026-03-29T07:30:47.287Z</time></trkpt><trkpt lat="45.588165" lon="10.4633598"><ele>265.0</ele><time>2026-03-29T07:30:48.286Z</time></trkpt><trkpt lat="45.5881493" lon="10.4632102"><ele>265.0</ele><time>2026-03-29T07:30:49.287Z</time></trkpt><trkpt lat="45.5881475" lon="10.4630564"><ele>265.0</ele><time>2026-03-29T07:30:50.286Z</time></trkpt><trkpt lat="45.5881721" lon="10.4629006"><ele>265.0</ele><time>2026-03-29T07:30:51.286Z</time></trkpt><trkpt lat="45.5882106" lon="10.4627538"><ele>265.0</ele><time>2026-03-29T07:30:52.287Z</time></trkpt><trkpt lat="45.5882593" lon="10.462618"><ele>265.0</ele><time>2026-03-29T07:30:53.286Z</time></trkpt><trkpt lat="45.5883156" lon="10.4624884"><ele>265.0</ele><time>2026-03-29T07:30:54.286Z</time></trkpt><trkpt lat="45.5883657" lon="10.4623483"><ele>265.0</ele><time>2026-03-29T07:30:55.287Z</time></trkpt><trkpt lat="45.5884232" lon="10.4621989"><ele>265.0</ele><time>2026-03-29T07:30:56.287Z</time></trkpt><trkpt lat="45.588479" lon="10.4620492"><ele>265.0</ele><time>2026-03-29T07:30:57.287Z</time></trkpt><trkpt lat="45.5885385" lon="10.4618945"><ele>265.25</ele><time>2026-03-29T07:30:58.287Z</time></trkpt><trkpt lat="45.5885907" lon="10.4617328"><ele>265.5</ele><time>2026-03-29T07:30:59.287Z</time></trkpt><trkpt lat="45.5886236" lon="10.4615426"><ele>265.75</ele><time>2026-03-29T07:31:00.287Z</time></trkpt><trkpt lat="45.588642" lon="10.4613495"><ele>266.0</ele><time>2026-03-29T07:31:01.287Z</time></trkpt><trkpt lat="45.5886603" lon="10.4611599"><ele>264.75</ele><time>2026-03-29T07:31:02.287Z</time></trkpt><trkpt lat="45.5886775" lon="10.4609666"><ele>263.5</ele><time>2026-03-29T07:31:03.287Z</time></trkpt><trkpt lat="45.5886902" lon="10.4607781"><ele>262.25</ele><time>2026-03-29T07:31:04.287Z</time></trkpt><trkpt lat="45.5886936" lon="10.4605954"><ele>261.0</ele><time>2026-03-29T07:31:05.287Z</time></trkpt><trkpt lat="45.5887" lon="10.4604173"><ele>260.5</ele><time>2026-03-29T07:31:06.286Z</time></trkpt><trkpt lat="45.5886952" lon="10.4602321"><ele>260.0</ele><time>2026-03-29T07:31:07.286Z</time></trkpt><trkpt lat="45.5886896" lon="10.4600356"><ele>259.5</ele><time>2026-03-29T07:31:08.286Z</time></trkpt><trkpt lat="45.588684" lon="10.4598284"><ele>259.0</ele><time>2026-03-29T07:31:09.287Z</time></trkpt><trkpt lat="45.5886798" lon="10.459623"><ele>259.25</ele><time>2026-03-29T07:31:10.286Z</time></trkpt><trkpt lat="45.5886751" lon="10.459422"><ele>259.5</ele><time>2026-03-29T07:31:11.286Z</time></trkpt><trkpt lat="45.5886774" lon="10.4592263"><ele>259.75</ele><time>2026-03-29T07:31:12.287Z</time></trkpt><trkpt lat="45.5886957" lon="10.459037"><ele>260.0</ele><time>2026-03-29T07:31:13.287Z</time></trkpt><trkpt lat="45.5887444" lon="10.458859"><ele>259.25</ele><time>2026-03-29T07:31:14.287Z</time></trkpt><trkpt lat="45.5888173" lon="10.4586895"><ele>258.5</ele><time>2026-03-29T07:31:15.286Z</time></trkpt><trkpt lat="45.5888963" lon="10.4585265"><ele>257.75</ele><time>2026-03-29T07:31:16.286Z</time></trkpt><trkpt lat="45.5889779" lon="10.4583558"><ele>257.0</ele><time>2026-03-29T07:31:17.287Z</time></trkpt><trkpt lat="45.5890554" lon="10.4581768"><ele>257.0</ele><time>2026-03-29T07:31:18.286Z</time></trkpt><trkpt lat="45.589134" lon="10.4579955"><ele>257.0</ele><time>2026-03-29T07:31:19.287Z</time></trkpt><trkpt lat="45.5892118" lon="10.4578155"><ele>257.0</ele><time>2026-03-29T07:31:20.287Z</time></trkpt><trkpt lat="45.5892864" lon="10.4576511"><ele>257.0</ele><time>2026-03-29T07:31:21.286Z</time></trkpt><trkpt lat="45.5893601" lon="10.4574923"><ele>259.0</ele><time>2026-03-29T07:31:22.286Z</time></trkpt><trkpt lat="45.5894294" lon="10.4573327"><ele>261.0</ele><time>2026-03-29T07:31:23.286Z</time></trkpt><trkpt lat="45.5895215" lon="10.4571854"><ele>263.0</ele><time>2026-03-29T07:31:24.287Z</time></trkpt><trkpt lat="45.5896124" lon="10.4570362"><ele>265.0</ele><time>2026-03-29T07:31:25.287Z</time></trkpt><trkpt lat="45.5897072" lon="10.4568933"><ele>259.75</ele><time>2026-03-29T07:31:26.286Z</time></trkpt><trkpt lat="45.5897862" lon="10.4567401"><ele>254.5</ele><time>2026-03-29T07:31:27.286Z</time></trkpt><trkpt lat="45.5898492" lon="10.4565833"><ele>249.25</ele><time>2026-03-29T07:31:28.286Z</time></trkpt><trkpt lat="45.5898959" lon="10.45642"><ele>244.0</ele><time>2026-03-29T07:31:29.287Z</time></trkpt><trkpt lat="45.5899313" lon="10.4562584"><ele>243.2</ele><time>2026-03-29T07:31:30.286Z</time></trkpt><trkpt lat="45.5899627" lon="10.456116"><ele>242.39999999999998</ele><time>2026-03-29T07:31:31.287Z</time></trkpt><trkpt lat="45.5899971" lon="10.4559702"><ele>241.6</ele><time>2026-03-29T07:31:32.286Z</time></trkpt><trkpt lat="45.5900101" lon="10.4558219"><ele>240.8</ele><time>2026-03-29T07:31:33.287Z</time></trkpt><trkpt lat="45.5899823" lon="10.4556727"><ele>240.0</ele><time>2026-03-29T07:31:34.287Z</time></trkpt><trkpt lat="45.5899318" lon="10.4555344"><ele>237.0</ele><time>2026-03-29T07:31:35.286Z</time></trkpt><trkpt lat="45.5898488" lon="10.4553925"><ele>234.0</ele><time>2026-03-29T07:31:36.287Z</time></trkpt><trkpt lat="45.5897544" lon="10.4552536"><ele>231.0</ele><time>2026-03-29T07:31:37.287Z</time></trkpt><trkpt lat="45.5896687" lon="10.4551377"><ele>228.0</ele><time>2026-03-29T07:31:38.287Z</time></trkpt><trkpt lat="45.5895976" lon="10.4550281"><ele>228.0</ele><time>2026-03-29T07:31:39.287Z</time></trkpt><trkpt lat="45.5895506" lon="10.4549111"><ele>228.0</ele><time>2026-03-29T07:31:40.287Z</time></trkpt><trkpt lat="45.5895326" lon="10.4547883"><ele>228.0</ele><time>2026-03-29T07:31:41.287Z</time></trkpt><trkpt lat="45.5895457" lon="10.4546449"><ele>228.0</ele><time>2026-03-29T07:31:42.286Z</time></trkpt><trkpt lat="45.5895855" lon="10.4545008"><ele>228.0</ele><time>2026-03-29T07:31:43.287Z</time></trkpt><trkpt lat="45.589635" lon="10.4543417"><ele>227.2</ele><time>2026-03-29T07:31:44.287Z</time></trkpt><trkpt lat="45.5896621" lon="10.4542053"><ele>226.4</ele><time>2026-03-29T07:31:45.287Z</time></trkpt><trkpt lat="45.5896553" lon="10.4540752"><ele>225.59999999999997</ele><time>2026-03-29T07:31:46.286Z</time></trkpt><trkpt lat="45.5896298" lon="10.4539525"><ele>224.79999999999998</ele><time>2026-03-29T07:31:47.286Z</time></trkpt><trkpt lat="45.5895611" lon="10.4538477"><ele>224.0</ele><time>2026-03-29T07:31:48.287Z</time></trkpt><trkpt lat="45.5894584" lon="10.4537446"><ele>224.0</ele><time>2026-03-29T07:31:49.286Z</time></trkpt><trkpt lat="45.5893414" lon="10.4536396"><ele>224.0</ele><time>2026-03-29T07:31:50.287Z</time></trkpt><trkpt lat="45.5892193" lon="10.4535287"><ele>224.0</ele><time>2026-03-29T07:31:51.286Z</time></trkpt><trkpt lat="45.5891045" lon="10.4534286"><ele>224.0</ele><time>2026-03-29T07:31:52.286Z</time></trkpt><trkpt lat="45.5890159" lon="10.4533202"><ele>224.0</ele><time>2026-03-29T07:31:53.286Z</time></trkpt><trkpt lat="45.5889546" lon="10.4532014"><ele>223.99999999999997</ele><time>2026-03-29T07:31:54.286Z</time></trkpt><trkpt lat="45.588914" lon="10.4530717"><ele>223.99999999999997</ele><time>2026-03-29T07:31:55.286Z</time></trkpt><trkpt lat="45.588905" lon="10.4529237"><ele>224.0</ele><time>2026-03-29T07:31:56.287Z</time></trkpt><trkpt lat="45.5889173" lon="10.4527601"><ele>224.0</ele><time>2026-03-29T07:31:57.287Z</time></trkpt><trkpt lat="45.5889438" lon="10.4526193"><ele>223.0</ele><time>2026-03-29T07:31:58.287Z</time></trkpt><trkpt lat="45.5889834" lon="10.4524841"><ele>221.99999999999997</ele><time>2026-03-29T07:31:59.287Z</time></trkpt><trkpt lat="45.5890374" lon="10.4523639"><ele>220.99999999999997</ele><time>2026-03-29T07:32:00.286Z</time></trkpt><trkpt lat="45.5890825" lon="10.4522464"><ele>220.0</ele><time>2026-03-29T07:32:01.287Z</time></trkpt><trkpt lat="45.5891094" lon="10.4521172"><ele>219.0</ele><time>2026-03-29T07:32:02.286Z</time></trkpt><trkpt lat="45.5891058" lon="10.4519807"><ele>219.0</ele><time>2026-03-29T07:32:03.287Z</time></trkpt><trkpt lat="45.589054" lon="10.4518438"><ele>219.0</ele><time>2026-03-29T07:32:04.286Z</time></trkpt><trkpt lat="45.5889673" lon="10.4517094"><ele>219.0</ele><time>2026-03-29T07:32:05.286Z</time></trkpt><trkpt lat="45.5888635" lon="10.4515765"><ele>219.0</ele><time>2026-03-29T07:32:06.286Z</time></trkpt><trkpt lat="45.588758" lon="10.4514359"><ele>221.0</ele><time>2026-03-29T07:32:07.287Z</time></trkpt><trkpt lat="45.5886519" lon="10.4512878"><ele>223.0</ele><time>2026-03-29T07:32:08.287Z</time></trkpt><trkpt lat="45.5885596" lon="10.4511297"><ele>225.0</ele><time>2026-03-29T07:32:09.287Z</time></trkpt><trkpt lat="45.5884617" lon="10.4509717"><ele>227.0</ele><time>2026-03-29T07:32:10.287Z</time></trkpt><trkpt lat="45.5883648" lon="10.4508155"><ele>227.0</ele><time>2026-03-29T07:32:11.287Z</time></trkpt><trkpt lat="45.5882767" lon="10.4506589"><ele>227.0</ele><time>2026-03-29T07:32:12.286Z</time></trkpt><trkpt lat="45.5881959" lon="10.4504971"><ele>227.0</ele><time>2026-03-29T07:32:13.286Z</time></trkpt><trkpt lat="45.5881247" lon="10.4503389"><ele>227.0</ele><time>2026-03-29T07:32:14.287Z</time></trkpt><trkpt lat="45.5880496" lon="10.4501801"><ele>224.75</ele><time>2026-03-29T07:32:15.287Z</time></trkpt><trkpt lat="45.5879673" lon="10.4500348"><ele>222.5</ele><time>2026-03-29T07:32:16.286Z</time></trkpt><trkpt lat="45.5878829" lon="10.4498956"><ele>220.25</ele><time>2026-03-29T07:32:17.287Z</time></trkpt><trkpt lat="45.5877966" lon="10.4497581"><ele>218.0</ele><time>2026-03-29T07:32:18.286Z</time></trkpt><trkpt lat="45.5877075" lon="10.4496263"><ele>218.2</ele><time>2026-03-29T07:32:19.287Z</time></trkpt><trkpt lat="45.5876209" lon="10.4495004"><ele>218.4</ele><time>2026-03-29T07:32:20.286Z</time></trkpt><trkpt lat="45.5875353" lon="10.4493871"><ele>218.59999999999997</ele><time>2026-03-29T07:32:21.286Z</time></trkpt><trkpt lat="45.5874652" lon="10.4492843"><ele>218.79999999999998</ele><time>2026-03-29T07:32:22.286Z</time></trkpt><trkpt lat="45.5874037" lon="10.4491817"><ele>219.0</ele><time>2026-03-29T07:32:23.287Z</time></trkpt><trkpt lat="45.587369" lon="10.4490819"><ele>219.0</ele><time>2026-03-29T07:32:24.287Z</time></trkpt><trkpt lat="45.587355" lon="10.4489851"><ele>219.0</ele><time>2026-03-29T07:32:25.286Z</time></trkpt><trkpt lat="45.5873361" lon="10.4488945"><ele>219.0</ele><time>2026-03-29T07:32:26.287Z</time></trkpt><trkpt lat="45.5872433" lon="10.4488325"><ele>219.0</ele><time>2026-03-29T07:32:28.287Z</time></trkpt><trkpt lat="45.5871701" lon="10.4488589"><ele>219.0</ele><time>2026-03-29T07:32:29.287Z</time></trkpt><trkpt lat="45.5870943" lon="10.4488925"><ele>219.0</ele><time>2026-03-29T07:32:30.286Z</time></trkpt><trkpt lat="45.5870135" lon="10.4489142"><ele>218.5</ele><time>2026-03-29T07:32:31.286Z</time></trkpt><trkpt lat="45.5869335" lon="10.4489149"><ele>218.0</ele><time>2026-03-29T07:32:32.286Z</time></trkpt><trkpt lat="45.5868554" lon="10.4488837"><ele>217.5</ele><time>2026-03-29T07:32:33.287Z</time></trkpt><trkpt lat="45.5867856" lon="10.4488166"><ele>217.0</ele><time>2026-03-29T07:32:34.286Z</time></trkpt><trkpt lat="45.5867279" lon="10.4487153"><ele>216.5</ele><time>2026-03-29T07:32:35.287Z</time></trkpt><trkpt lat="45.5866898" lon="10.4485845"><ele>216.0</ele><time>2026-03-29T07:32:36.287Z</time></trkpt><trkpt lat="45.5866659" lon="10.4484435"><ele>216.0</ele><time>2026-03-29T07:32:37.287Z</time></trkpt><trkpt lat="45.586647" lon="10.4482977"><ele>216.0</ele><time>2026-03-29T07:32:38.287Z</time></trkpt><trkpt lat="45.5866395" lon="10.4481326"><ele>216.0</ele><time>2026-03-29T07:32:39.287Z</time></trkpt><trkpt lat="45.5866273" lon="10.4479639"><ele>216.0</ele><time>2026-03-29T07:32:40.287Z</time></trkpt><trkpt lat="45.5866034" lon="10.4477883"><ele>215.0</ele><time>2026-03-29T07:32:41.286Z</time></trkpt><trkpt lat="45.5865655" lon="10.4476112"><ele>214.0</ele><time>2026-03-29T07:32:42.287Z</time></trkpt><trkpt lat="45.5865282" lon="10.4474349"><ele>213.0</ele><time>2026-03-29T07:32:43.287Z</time></trkpt><trkpt lat="45.5864941" lon="10.4472527"><ele>212.0</ele><time>2026-03-29T07:32:44.286Z</time></trkpt><trkpt lat="45.5864638" lon="10.4470721"><ele>211.75</ele><time>2026-03-29T07:32:45.286Z</time></trkpt><trkpt lat="45.5864245" lon="10.4469003"><ele>211.5</ele><time>2026-03-29T07:32:46.287Z</time></trkpt><trkpt lat="45.5863821" lon="10.4467325"><ele>211.25</ele><time>2026-03-29T07:32:47.286Z</time></trkpt><trkpt lat="45.5863252" lon="10.4465752"><ele>211.0</ele><time>2026-03-29T07:32:48.287Z</time></trkpt><trkpt lat="45.5862618" lon="10.4464137"><ele>210.25</ele><time>2026-03-29T07:32:49.287Z</time></trkpt><trkpt lat="45.5862081" lon="10.4462552"><ele>209.5</ele><time>2026-03-29T07:32:50.287Z</time></trkpt><trkpt lat="45.5861436" lon="10.4461056"><ele>208.75</ele><time>2026-03-29T07:32:51.286Z</time></trkpt><trkpt lat="45.5860746" lon="10.4459449"><ele>208.0</ele><time>2026-03-29T07:32:52.287Z</time></trkpt><trkpt lat="45.5860056" lon="10.4457832"><ele>208.0</ele><time>2026-03-29T07:32:53.287Z</time></trkpt><trkpt lat="45.5859434" lon="10.4456187"><ele>208.0</ele><time>2026-03-29T07:32:54.287Z</time></trkpt><trkpt lat="45.5858882" lon="10.4454509"><ele>208.0</ele><time>2026-03-29T07:32:55.287Z</time></trkpt><trkpt lat="45.585836" lon="10.4452809"><ele>208.0</ele><time>2026-03-29T07:32:56.287Z</time></trkpt><trkpt lat="45.5857808" lon="10.4451073"><ele>208.0</ele><time>2026-03-29T07:32:57.287Z</time></trkpt><trkpt lat="45.5857242" lon="10.4449244"><ele>208.0</ele><time>2026-03-29T07:32:58.287Z</time></trkpt><trkpt lat="45.5856648" lon="10.4447418"><ele>208.0</ele><time>2026-03-29T07:32:59.286Z</time></trkpt><trkpt lat="45.5856136" lon="10.4445533"><ele>208.0</ele><time>2026-03-29T07:33:00.287Z</time></trkpt><trkpt lat="45.585556" lon="10.4443742"><ele>207.75</ele><time>2026-03-29T07:33:01.286Z</time></trkpt><trkpt lat="45.5854906" lon="10.4442022"><ele>207.5</ele><time>2026-03-29T07:33:02.287Z</time></trkpt><trkpt lat="45.5854318" lon="10.444029"><ele>207.25</ele><time>2026-03-29T07:33:03.287Z</time></trkpt><trkpt lat="45.5853799" lon="10.4438554"><ele>207.0</ele><time>2026-03-29T07:33:04.286Z</time></trkpt><trkpt lat="45.5853342" lon="10.4436861"><ele>206.75</ele><time>2026-03-29T07:33:05.287Z</time></trkpt><trkpt lat="45.5852968" lon="10.4435202"><ele>206.5</ele><time>2026-03-29T07:33:06.285Z</time></trkpt><trkpt lat="45.5852511" lon="10.443349"><ele>206.25</ele><time>2026-03-29T07:33:07.285Z</time></trkpt><trkpt lat="45.5852077" lon="10.443185"><ele>206.0</ele><time>2026-03-29T07:33:08.286Z</time></trkpt><trkpt lat="45.5851709" lon="10.4430165"><ele>206.0</ele><time>2026-03-29T07:33:09.286Z</time></trkpt><trkpt lat="45.5851366" lon="10.4428402"><ele>206.0</ele><time>2026-03-29T07:33:10.286Z</time></trkpt><trkpt lat="45.5850963" lon="10.4426699"><ele>206.0</ele><time>2026-03-29T07:33:11.286Z</time></trkpt><trkpt lat="45.5850537" lon="10.4425113"><ele>206.0</ele><time>2026-03-29T07:33:12.285Z</time></trkpt><trkpt lat="45.5850037" lon="10.4423781"><ele>206.00000000000003</ele><time>2026-03-29T07:33:13.285Z</time></trkpt><trkpt lat="45.5849537" lon="10.4422584"><ele>206.0</ele><time>2026-03-29T07:33:14.286Z</time></trkpt><trkpt lat="45.5849094" lon="10.442151"><ele>206.0</ele><time>2026-03-29T07:33:15.286Z</time></trkpt><trkpt lat="45.5848736" lon="10.4420595"><ele>206.0</ele><time>2026-03-29T07:33:16.286Z</time></trkpt><trkpt lat="45.5848231" lon="10.4419051"><ele>206.00000000000003</ele><time>2026-03-29T07:33:18.286Z</time></trkpt><trkpt lat="45.5847892" lon="10.4418191"><ele>206.0</ele><time>2026-03-29T07:33:19.286Z</time></trkpt><trkpt lat="45.5847545" lon="10.4417384"><ele>205.83333333333334</ele><time>2026-03-29T07:33:20.286Z</time></trkpt><trkpt lat="45.5846455" lon="10.4416664"><ele>205.66666666666669</ele><time>2026-03-29T07:33:22.285Z</time></trkpt><trkpt lat="45.5845789" lon="10.4416816"><ele>205.5</ele><time>2026-03-29T07:33:23.285Z</time></trkpt><trkpt lat="45.5845076" lon="10.4416955"><ele>205.33333333333331</ele><time>2026-03-29T07:33:24.285Z</time></trkpt><trkpt lat="45.5844295" lon="10.441699"><ele>205.16666666666666</ele><time>2026-03-29T07:33:25.285Z</time></trkpt><trkpt lat="45.5843469" lon="10.4416825"><ele>205.0</ele><time>2026-03-29T07:33:26.286Z</time></trkpt><trkpt lat="45.5842608" lon="10.4416392"><ele>205.0</ele><time>2026-03-29T07:33:27.286Z</time></trkpt><trkpt lat="45.5841689" lon="10.4415904"><ele>205.0</ele><time>2026-03-29T07:33:28.285Z</time></trkpt><trkpt lat="45.5840709" lon="10.4415456"><ele>205.0</ele><time>2026-03-29T07:33:29.285Z</time></trkpt><trkpt lat="45.5839692" lon="10.4415037"><ele>205.0</ele><time>2026-03-29T07:33:30.286Z</time></trkpt><trkpt lat="45.5838709" lon="10.4414619"><ele>205.0</ele><time>2026-03-29T07:33:31.285Z</time></trkpt><trkpt lat="45.5837766" lon="10.4414195"><ele>205.0</ele><time>2026-03-29T07:33:32.285Z</time></trkpt><trkpt lat="45.5836842" lon="10.4413798"><ele>205.0</ele><time>2026-03-29T07:33:33.285Z</time></trkpt><trkpt lat="45.5835904" lon="10.4413516"><ele>205.0</ele><time>2026-03-29T07:33:34.285Z</time></trkpt><trkpt lat="45.5834988" lon="10.4413243"><ele>205.0</ele><time>2026-03-29T07:33:35.286Z</time></trkpt><trkpt lat="45.5834118" lon="10.4412979"><ele>205.0</ele><time>2026-03-29T07:33:36.285Z</time></trkpt><trkpt lat="45.5833366" lon="10.4412819"><ele>205.0</ele><time>2026-03-29T07:33:37.285Z</time></trkpt><trkpt lat="45.5832283" lon="10.4412445"><ele>205.0</ele><time>2026-03-29T07:33:39.285Z</time></trkpt><trkpt lat="45.5831432" lon="10.4411784"><ele>205.0</ele><time>2026-03-29T07:33:41.286Z</time></trkpt><trkpt lat="45.5830717" lon="10.4412008"><ele>205.0</ele><time>2026-03-29T07:33:43.286Z</time></trkpt><trkpt lat="45.5830302" lon="10.4413027"><ele>205.0</ele><time>2026-03-29T07:33:45.286Z</time></trkpt><trkpt lat="45.5829868" lon="10.4414329"><ele>205.0</ele><time>2026-03-29T07:33:47.285Z</time></trkpt><trkpt lat="45.5828988" lon="10.4415656"><ele>205.0</ele><time>2026-03-29T07:33:49.286Z</time></trkpt><trkpt lat="45.5828334" lon="10.4416363"><ele>205.0</ele><time>2026-03-29T07:33:50.285Z</time></trkpt><trkpt lat="45.5827646" lon="10.4417125"><ele>205.0</ele><time>2026-03-29T07:33:51.286Z</time></trkpt><trkpt lat="45.5827001" lon="10.4417936"><ele>205.0</ele><time>2026-03-29T07:33:52.285Z</time></trkpt><trkpt lat="45.5826344" lon="10.4418775"><ele>205.0</ele><time>2026-03-29T07:33:53.286Z</time></trkpt><trkpt lat="45.5825683" lon="10.44196"><ele>205.0</ele><time>2026-03-29T07:33:54.286Z</time></trkpt><trkpt lat="45.5824965" lon="10.4420436"><ele>205.0</ele><time>2026-03-29T07:33:55.286Z</time></trkpt><trkpt lat="45.5824218" lon="10.4421307"><ele>205.0</ele><time>2026-03-29T07:33:56.286Z</time></trkpt><trkpt lat="45.5823453" lon="10.442232"><ele>205.0</ele><time>2026-03-29T07:33:57.286Z</time></trkpt><trkpt lat="45.5822648" lon="10.4423488"><ele>204.66666666666666</ele><time>2026-03-29T07:33:58.285Z</time></trkpt><trkpt lat="45.582127" lon="10.4426172"><ele>204.33333333333331</ele><time>2026-03-29T07:34:00.285Z</time></trkpt><trkpt lat="45.5820648" lon="10.4427588"><ele>204.0</ele><time>2026-03-29T07:34:01.286Z</time></trkpt><trkpt lat="45.5820085" lon="10.442903"><ele>203.5</ele><time>2026-03-29T07:34:02.286Z</time></trkpt><trkpt lat="45.58194" lon="10.4430495"><ele>203.0</ele><time>2026-03-29T07:34:03.285Z</time></trkpt><trkpt lat="45.5818616" lon="10.4431823"><ele>202.5</ele><time>2026-03-29T07:34:04.285Z</time></trkpt><trkpt lat="45.5817784" lon="10.4433091"><ele>202.0</ele><time>2026-03-29T07:34:05.286Z</time></trkpt><trkpt lat="45.5816839" lon="10.4434229"><ele>202.0</ele><time>2026-03-29T07:34:06.286Z</time></trkpt><trkpt lat="45.5815824" lon="10.4435343"><ele>202.0</ele><time>2026-03-29T07:34:07.285Z</time></trkpt><trkpt lat="45.5814777" lon="10.4436332"><ele>202.0</ele><time>2026-03-29T07:34:08.285Z</time></trkpt><trkpt lat="45.5813728" lon="10.4437285"><ele>202.0</ele><time>2026-03-29T07:34:09.285Z</time></trkpt><trkpt lat="45.5812618" lon="10.4438165"><ele>202.0</ele><time>2026-03-29T07:34:10.285Z</time></trkpt><trkpt lat="45.5811482" lon="10.4438988"><ele>202.0</ele><time>2026-03-29T07:34:11.286Z</time></trkpt><trkpt lat="45.5810275" lon="10.44396"><ele>202.0</ele><time>2026-03-29T07:34:12.286Z</time></trkpt><trkpt lat="45.5809038" lon="10.4440238"><ele>202.0</ele><time>2026-03-29T07:34:13.285Z</time></trkpt><trkpt lat="45.5807811" lon="10.4440723"><ele>202.0</ele><time>2026-03-29T07:34:14.285Z</time></trkpt><trkpt lat="45.5806462" lon="10.4441168"><ele>202.0</ele><time>2026-03-29T07:34:15.285Z</time></trkpt><trkpt lat="45.5805047" lon="10.4441625"><ele>202.0</ele><time>2026-03-29T07:34:16.285Z</time></trkpt><trkpt lat="45.5803627" lon="10.4442197"><ele>202.0</ele><time>2026-03-29T07:34:17.285Z</time></trkpt><trkpt lat="45.5802161" lon="10.4442764"><ele>201.75</ele><time>2026-03-29T07:34:18.285Z</time></trkpt><trkpt lat="45.5800768" lon="10.4443332"><ele>201.5</ele><time>2026-03-29T07:34:19.286Z</time></trkpt><trkpt lat="45.5799412" lon="10.444389"><ele>201.25</ele><time>2026-03-29T07:34:20.286Z</time></trkpt><trkpt lat="45.5798102" lon="10.4444326"><ele>201.0</ele><time>2026-03-29T07:34:21.286Z</time></trkpt><trkpt lat="45.5796816" lon="10.4444733"><ele>201.0</ele><time>2026-03-29T07:34:22.286Z</time></trkpt><trkpt lat="45.5795547" lon="10.4445182"><ele>201.0</ele><time>2026-03-29T07:34:23.285Z</time></trkpt><trkpt lat="45.5794333" lon="10.4445582"><ele>201.0</ele><time>2026-03-29T07:34:24.285Z</time></trkpt><trkpt lat="45.5793109" lon="10.4446006"><ele>201.0</ele><time>2026-03-29T07:34:25.285Z</time></trkpt><trkpt lat="45.5791864" lon="10.4446576"><ele>201.5</ele><time>2026-03-29T07:34:26.286Z</time></trkpt><trkpt lat="45.5790553" lon="10.4447315"><ele>202.0</ele><time>2026-03-29T07:34:27.286Z</time></trkpt><trkpt lat="45.5789235" lon="10.4448196"><ele>202.5</ele><time>2026-03-29T07:34:28.285Z</time></trkpt><trkpt lat="45.5787912" lon="10.4449149"><ele>203.0</ele><time>2026-03-29T07:34:29.285Z</time></trkpt><trkpt lat="45.5786597" lon="10.4450052"><ele>203.0</ele><time>2026-03-29T07:34:30.285Z</time></trkpt><trkpt lat="45.578531" lon="10.4450809"><ele>203.0</ele><time>2026-03-29T07:34:31.285Z</time></trkpt><trkpt lat="45.5784091" lon="10.4451404"><ele>203.0</ele><time>2026-03-29T07:34:32.285Z</time></trkpt><trkpt lat="45.5782981" lon="10.445177"><ele>203.0</ele><time>2026-03-29T07:34:33.285Z</time></trkpt><trkpt lat="45.578192" lon="10.4451973"><ele>203.00000000000003</ele><time>2026-03-29T07:34:34.285Z</time></trkpt><trkpt lat="45.5780989" lon="10.4452196"><ele>203.0</ele><time>2026-03-29T07:34:35.286Z</time></trkpt><trkpt lat="45.5780211" lon="10.4452214"><ele>203.0</ele><time>2026-03-29T07:34:36.286Z</time></trkpt><trkpt lat="45.5779526" lon="10.4451799"><ele>203.0</ele><time>2026-03-29T07:34:37.285Z</time></trkpt><trkpt lat="45.5779038" lon="10.4451074"><ele>203.00000000000003</ele><time>2026-03-29T07:34:38.285Z</time></trkpt><trkpt lat="45.5778679" lon="10.4449917"><ele>203.0</ele><time>2026-03-29T07:34:39.286Z</time></trkpt><trkpt lat="45.5778373" lon="10.4448439"><ele>202.75</ele><time>2026-03-29T07:34:40.286Z</time></trkpt><trkpt lat="45.5778201" lon="10.4446736"><ele>202.5</ele><time>2026-03-29T07:34:41.286Z</time></trkpt><trkpt lat="45.5778009" lon="10.444487"><ele>202.25</ele><time>2026-03-29T07:34:42.285Z</time></trkpt><trkpt lat="45.5777653" lon="10.4442846"><ele>202.0</ele><time>2026-03-29T07:34:43.285Z</time></trkpt><trkpt lat="45.5777189" lon="10.4440777"><ele>202.0</ele><time>2026-03-29T07:34:44.285Z</time></trkpt><trkpt lat="45.5776603" lon="10.4438698"><ele>202.0</ele><time>2026-03-29T07:34:45.286Z</time></trkpt><trkpt lat="45.5775918" lon="10.4436664"><ele>202.0</ele><time>2026-03-29T07:34:46.285Z</time></trkpt><trkpt lat="45.5775296" lon="10.4434701"><ele>201.25</ele><time>2026-03-29T07:34:47.285Z</time></trkpt><trkpt lat="45.5774853" lon="10.443278"><ele>200.5</ele><time>2026-03-29T07:34:48.285Z</time></trkpt><trkpt lat="45.5774426" lon="10.4431012"><ele>199.75</ele><time>2026-03-29T07:34:49.285Z</time></trkpt><trkpt lat="45.5774034" lon="10.4429433"><ele>199.0</ele><time>2026-03-29T07:34:50.285Z</time></trkpt><trkpt lat="45.5773578" lon="10.4427984"><ele>198.66666666666666</ele><time>2026-03-29T07:34:51.286Z</time></trkpt><trkpt lat="45.5773154" lon="10.4426711"><ele>198.33333333333331</ele><time>2026-03-29T07:34:52.286Z</time></trkpt><trkpt lat="45.5772561" lon="10.4425674"><ele>198.0</ele><time>2026-03-29T07:34:53.285Z</time></trkpt><trkpt lat="45.5771917" lon="10.4424859"><ele>197.66666666666669</ele><time>2026-03-29T07:34:54.285Z</time></trkpt><trkpt lat="45.5771366" lon="10.4424008"><ele>197.33333333333334</ele><time>2026-03-29T07:34:55.285Z</time></trkpt><trkpt lat="45.5770944" lon="10.4422994"><ele>197.0</ele><time>2026-03-29T07:34:56.286Z</time></trkpt><trkpt lat="45.57705" lon="10.442223"><ele>197.39999999999998</ele><time>2026-03-29T07:34:57.286Z</time></trkpt><trkpt lat="45.57694" lon="10.4422009"><ele>197.79999999999998</ele><time>2026-03-29T07:34:59.286Z</time></trkpt><trkpt lat="45.576882" lon="10.4422565"><ele>198.2</ele><time>2026-03-29T07:35:00.285Z</time></trkpt><trkpt lat="45.5768169" lon="10.442337"><ele>198.6</ele><time>2026-03-29T07:35:01.286Z</time></trkpt><trkpt lat="45.5767466" lon="10.4424398"><ele>199.0</ele><time>2026-03-29T07:35:02.286Z</time></trkpt><trkpt lat="45.5766726" lon="10.4425317"><ele>199.0</ele><time>2026-03-29T07:35:03.286Z</time></trkpt><trkpt lat="45.5765945" lon="10.4426181"><ele>199.0</ele><time>2026-03-29T07:35:04.285Z</time></trkpt><trkpt lat="45.576521" lon="10.4427041"><ele>199.0</ele><time>2026-03-29T07:35:05.285Z</time></trkpt><trkpt lat="45.5764496" lon="10.4427955"><ele>199.0</ele><time>2026-03-29T07:35:06.285Z</time></trkpt><trkpt lat="45.576375" lon="10.4428792"><ele>199.0</ele><time>2026-03-29T07:35:07.285Z</time></trkpt><trkpt lat="45.5762981" lon="10.4429432"><ele>199.33333333333331</ele><time>2026-03-29T07:35:08.285Z</time></trkpt><trkpt lat="45.5762197" lon="10.4429908"><ele>199.66666666666666</ele><time>2026-03-29T07:35:09.286Z</time></trkpt><trkpt lat="45.5761401" lon="10.4430422"><ele>200.0</ele><time>2026-03-29T07:35:10.285Z</time></trkpt><trkpt lat="45.5760817" lon="10.4431204"><ele>200.33333333333331</ele><time>2026-03-29T07:35:11.286Z</time></trkpt><trkpt lat="45.5760476" lon="10.4432128"><ele>200.66666666666666</ele><time>2026-03-29T07:35:12.285Z</time></trkpt><trkpt lat="45.5760391" lon="10.4433214"><ele>201.0</ele><time>2026-03-29T07:35:13.285Z</time></trkpt><trkpt lat="45.5760442" lon="10.4434453"><ele>201.20000000000002</ele><time>2026-03-29T07:35:14.286Z</time></trkpt><trkpt lat="45.5760408" lon="10.4435829"><ele>201.4</ele><time>2026-03-29T07:35:15.285Z</time></trkpt><trkpt lat="45.5760151" lon="10.4437171"><ele>201.6</ele><time>2026-03-29T07:35:16.286Z</time></trkpt><trkpt lat="45.575974" lon="10.443845"><ele>201.8</ele><time>2026-03-29T07:35:17.286Z</time></trkpt><trkpt lat="45.575912" lon="10.4439776"><ele>202.0</ele><time>2026-03-29T07:35:18.285Z</time></trkpt><trkpt lat="45.575847" lon="10.4441138"><ele>201.99999999999997</ele><time>2026-03-29T07:35:19.286Z</time></trkpt><trkpt lat="45.575789" lon="10.4442485"><ele>202.0</ele><time>2026-03-29T07:35:20.285Z</time></trkpt><trkpt lat="45.5757413" lon="10.4443736"><ele>202.0</ele><time>2026-03-29T07:35:21.285Z</time></trkpt><trkpt lat="45.5757019" lon="10.4444852"><ele>202.0</ele><time>2026-03-29T07:35:22.286Z</time></trkpt><trkpt lat="45.5756783" lon="10.4445786"><ele>201.99999999999997</ele><time>2026-03-29T07:35:23.285Z</time></trkpt><trkpt lat="45.5756658" lon="10.4446732"><ele>202.0</ele><time>2026-03-29T07:35:25.286Z</time></trkpt><trkpt lat="45.5756517" lon="10.444777"><ele>202.0</ele><time>2026-03-29T07:35:29.285Z</time></trkpt><trkpt lat="45.575585" lon="10.4449053"><ele>202.0</ele><time>2026-03-29T07:35:31.286Z</time></trkpt><trkpt lat="45.5755402" lon="10.4449977"><ele>202.0</ele><time>2026-03-29T07:35:32.286Z</time></trkpt><trkpt lat="45.5754904" lon="10.4451"><ele>202.0</ele><time>2026-03-29T07:35:33.285Z</time></trkpt><trkpt lat="45.5754402" lon="10.4452087"><ele>202.0</ele><time>2026-03-29T07:35:34.286Z</time></trkpt><trkpt lat="45.5753881" lon="10.4453187"><ele>202.0</ele><time>2026-03-29T07:35:35.286Z</time></trkpt><trkpt lat="45.5753309" lon="10.4454364"><ele>202.0</ele><time>2026-03-29T07:35:36.286Z</time></trkpt><trkpt lat="45.5752678" lon="10.4455787"><ele>202.0</ele><time>2026-03-29T07:35:37.285Z</time></trkpt><trkpt lat="45.5751997" lon="10.4457349"><ele>202.0</ele><time>2026-03-29T07:35:38.286Z</time></trkpt><trkpt lat="45.5751281" lon="10.4458884"><ele>203.0</ele><time>2026-03-29T07:35:39.286Z</time></trkpt><trkpt lat="45.5750468" lon="10.446031"><ele>204.0</ele><time>2026-03-29T07:35:40.286Z</time></trkpt><trkpt lat="45.5749621" lon="10.4461678"><ele>205.0</ele><time>2026-03-29T07:35:41.286Z</time></trkpt><trkpt lat="45.5748701" lon="10.4463013"><ele>206.0</ele><time>2026-03-29T07:35:42.286Z</time></trkpt><trkpt lat="45.5747718" lon="10.4464397"><ele>206.75</ele><time>2026-03-29T07:35:43.285Z</time></trkpt><trkpt lat="45.5746636" lon="10.4465714"><ele>207.5</ele><time>2026-03-29T07:35:44.286Z</time></trkpt><trkpt lat="45.5745541" lon="10.4467087"><ele>208.25</ele><time>2026-03-29T07:35:45.286Z</time></trkpt><trkpt lat="45.5744432" lon="10.446847"><ele>209.0</ele><time>2026-03-29T07:35:46.286Z</time></trkpt><trkpt lat="45.5743315" lon="10.4469921"><ele>210.0</ele><time>2026-03-29T07:35:47.285Z</time></trkpt><trkpt lat="45.5742255" lon="10.4471441"><ele>211.0</ele><time>2026-03-29T07:35:48.285Z</time></trkpt><trkpt lat="45.5741229" lon="10.4472966"><ele>212.0</ele><time>2026-03-29T07:35:49.285Z</time></trkpt><trkpt lat="45.5740227" lon="10.4474455"><ele>213.0</ele><time>2026-03-29T07:35:50.285Z</time></trkpt><trkpt lat="45.5739231" lon="10.4475877"><ele>213.0</ele><time>2026-03-29T07:35:51.285Z</time></trkpt><trkpt lat="45.5738272" lon="10.4477369"><ele>213.0</ele><time>2026-03-29T07:35:52.285Z</time></trkpt><trkpt lat="45.5737283" lon="10.4478793"><ele>213.0</ele><time>2026-03-29T07:35:53.285Z</time></trkpt><trkpt lat="45.5736427" lon="10.4480184"><ele>213.0</ele><time>2026-03-29T07:35:54.285Z</time></trkpt><trkpt lat="45.5735656" lon="10.4481765"><ele>214.75</ele><time>2026-03-29T07:35:55.286Z</time></trkpt><trkpt lat="45.5735012" lon="10.4483393"><ele>216.5</ele><time>2026-03-29T07:35:56.285Z</time></trkpt><trkpt lat="45.5734474" lon="10.4485123"><ele>218.25</ele><time>2026-03-29T07:35:57.286Z</time></trkpt><trkpt lat="45.5733878" lon="10.4486967"><ele>220.0</ele><time>2026-03-29T07:35:58.285Z</time></trkpt><trkpt lat="45.5733298" lon="10.4488908"><ele>220.5</ele><time>2026-03-29T07:35:59.286Z</time></trkpt><trkpt lat="45.5732812" lon="10.4490955"><ele>221.0</ele><time>2026-03-29T07:36:00.286Z</time></trkpt><trkpt lat="45.5732421" lon="10.4493041"><ele>221.5</ele><time>2026-03-29T07:36:01.286Z</time></trkpt><trkpt lat="45.5731968" lon="10.4494969"><ele>222.0</ele><time>2026-03-29T07:36:02.285Z</time></trkpt><trkpt lat="45.573139" lon="10.4496784"><ele>222.0</ele><time>2026-03-29T07:36:03.286Z</time></trkpt><trkpt lat="45.5730675" lon="10.4498573"><ele>222.0</ele><time>2026-03-29T07:36:04.285Z</time></trkpt><trkpt lat="45.572983" lon="10.4500293"><ele>222.0</ele><time>2026-03-29T07:36:05.286Z</time></trkpt><trkpt lat="45.5728826" lon="10.4501955"><ele>222.0</ele><time>2026-03-29T07:36:06.286Z</time></trkpt><trkpt lat="45.5727675" lon="10.4503529"><ele>222.66666666666669</ele><time>2026-03-29T07:36:07.285Z</time></trkpt><trkpt lat="45.5726417" lon="10.4505047"><ele>223.33333333333334</ele><time>2026-03-29T07:36:08.286Z</time></trkpt><trkpt lat="45.5725131" lon="10.450657"><ele>224.0</ele><time>2026-03-29T07:36:09.285Z</time></trkpt><trkpt lat="45.5723825" lon="10.4508138"><ele>224.0</ele><time>2026-03-29T07:36:10.286Z</time></trkpt><trkpt lat="45.5722544" lon="10.4509676"><ele>224.0</ele><time>2026-03-29T07:36:11.285Z</time></trkpt><trkpt lat="45.5721333" lon="10.4511337"><ele>224.0</ele><time>2026-03-29T07:36:12.286Z</time></trkpt><trkpt lat="45.5720059" lon="10.4512952"><ele>224.33333333333334</ele><time>2026-03-29T07:36:13.286Z</time></trkpt><trkpt lat="45.5718857" lon="10.4514688"><ele>224.66666666666669</ele><time>2026-03-29T07:36:14.286Z</time></trkpt><trkpt lat="45.5717752" lon="10.4516399"><ele>225.0</ele><time>2026-03-29T07:36:15.285Z</time></trkpt><trkpt lat="45.5716678" lon="10.4518213"><ele>225.0</ele><time>2026-03-29T07:36:16.285Z</time></trkpt><trkpt lat="45.5715581" lon="10.4520064"><ele>225.0</ele><time>2026-03-29T07:36:17.286Z</time></trkpt><trkpt lat="45.5714449" lon="10.4521992"><ele>225.0</ele><time>2026-03-29T07:36:18.285Z</time></trkpt><trkpt lat="45.5713313" lon="10.4523972"><ele>225.0</ele><time>2026-03-29T07:36:19.286Z</time></trkpt><trkpt lat="45.5712163" lon="10.4525761"><ele>225.0</ele><time>2026-03-29T07:36:20.286Z</time></trkpt><trkpt lat="45.5711014" lon="10.4527544"><ele>225.0</ele><time>2026-03-29T07:36:21.286Z</time></trkpt><trkpt lat="45.5709978" lon="10.4529287"><ele>225.33333333333331</ele><time>2026-03-29T07:36:22.285Z</time></trkpt><trkpt lat="45.5708797" lon="10.4530872"><ele>225.66666666666666</ele><time>2026-03-29T07:36:23.286Z</time></trkpt><trkpt lat="45.5707619" lon="10.4532398"><ele>226.0</ele><time>2026-03-29T07:36:24.286Z</time></trkpt><trkpt lat="45.5706368" lon="10.4533805"><ele>226.0</ele><time>2026-03-29T07:36:25.286Z</time></trkpt><trkpt lat="45.570511" lon="10.4535054"><ele>226.0</ele><time>2026-03-29T07:36:26.286Z</time></trkpt><trkpt lat="45.5703903" lon="10.4536261"><ele>226.0</ele><time>2026-03-29T07:36:27.285Z</time></trkpt><trkpt lat="45.5702666" lon="10.4537496"><ele>227.33333333333331</ele><time>2026-03-29T07:36:28.285Z</time></trkpt><trkpt lat="45.5701418" lon="10.4538828"><ele>228.66666666666669</ele><time>2026-03-29T07:36:29.286Z</time></trkpt><trkpt lat="45.5700129" lon="10.4540196"><ele>230.0</ele><time>2026-03-29T07:36:30.286Z</time></trkpt><trkpt lat="45.5698793" lon="10.4541564"><ele>230.0</ele><time>2026-03-29T07:36:31.285Z</time></trkpt><trkpt lat="45.5697475" lon="10.4542988"><ele>230.0</ele><time>2026-03-29T07:36:32.286Z</time></trkpt><trkpt lat="45.5696151" lon="10.4544354"><ele>230.0</ele><time>2026-03-29T07:36:33.285Z</time></trkpt><trkpt lat="45.5694789" lon="10.454575"><ele>231.66666666666669</ele><time>2026-03-29T07:36:34.286Z</time></trkpt><trkpt lat="45.569339" lon="10.4547116"><ele>233.33333333333331</ele><time>2026-03-29T07:36:35.285Z</time></trkpt><trkpt lat="45.569197" lon="10.4548508"><ele>235.0</ele><time>2026-03-29T07:36:36.285Z</time></trkpt><trkpt lat="45.5690534" lon="10.454989"><ele>235.0</ele><time>2026-03-29T07:36:37.285Z</time></trkpt><trkpt lat="45.5689154" lon="10.4551206"><ele>235.0</ele><time>2026-03-29T07:36:38.286Z</time></trkpt><trkpt lat="45.5687693" lon="10.4552437"><ele>235.0</ele><time>2026-03-29T07:36:39.286Z</time></trkpt><trkpt lat="45.5686204" lon="10.4553666"><ele>235.66666666666666</ele><time>2026-03-29T07:36:40.285Z</time></trkpt><trkpt lat="45.5684847" lon="10.4554836"><ele>236.33333333333331</ele><time>2026-03-29T07:36:41.285Z</time></trkpt><trkpt lat="45.5683552" lon="10.4555937"><ele>237.0</ele><time>2026-03-29T07:36:42.286Z</time></trkpt><trkpt lat="45.568225" lon="10.4557101"><ele>237.0</ele><time>2026-03-29T07:36:43.286Z</time></trkpt><trkpt lat="45.5680994" lon="10.4558348"><ele>237.0</ele><time>2026-03-29T07:36:44.285Z</time></trkpt><trkpt lat="45.5679904" lon="10.4559654"><ele>237.0</ele><time>2026-03-29T07:36:45.286Z</time></trkpt><trkpt lat="45.5678895" lon="10.4561033"><ele>237.0</ele><time>2026-03-29T07:36:46.286Z</time></trkpt><trkpt lat="45.567803" lon="10.4562349"><ele>237.25</ele><time>2026-03-29T07:36:47.286Z</time></trkpt><trkpt lat="45.5677191" lon="10.4563709"><ele>237.5</ele><time>2026-03-29T07:36:48.285Z</time></trkpt><trkpt lat="45.5676369" lon="10.4565176"><ele>237.75</ele><time>2026-03-29T07:36:49.285Z</time></trkpt><trkpt lat="45.5675507" lon="10.4566607"><ele>238.0</ele><time>2026-03-29T07:36:50.285Z</time></trkpt><trkpt lat="45.5674663" lon="10.4567933"><ele>238.0</ele><time>2026-03-29T07:36:51.286Z</time></trkpt><trkpt lat="45.567384" lon="10.4569211"><ele>238.0</ele><time>2026-03-29T07:36:52.285Z</time></trkpt><trkpt lat="45.567307" lon="10.4570351"><ele>238.0</ele><time>2026-03-29T07:36:53.286Z</time></trkpt><trkpt lat="45.5672292" lon="10.4571449"><ele>238.0</ele><time>2026-03-29T07:36:54.286Z</time></trkpt><trkpt lat="45.5671626" lon="10.4572552"><ele>238.0</ele><time>2026-03-29T07:36:55.285Z</time></trkpt><trkpt lat="45.5670982" lon="10.457359"><ele>238.16666666666666</ele><time>2026-03-29T07:36:56.286Z</time></trkpt><trkpt lat="45.5670426" lon="10.4574475"><ele>238.33333333333331</ele><time>2026-03-29T07:36:57.286Z</time></trkpt><trkpt lat="45.5669879" lon="10.4575323"><ele>238.5</ele><time>2026-03-29T07:36:58.285Z</time></trkpt><trkpt lat="45.566923" lon="10.457623"><ele>238.66666666666669</ele><time>2026-03-29T07:36:59.286Z</time></trkpt><trkpt lat="45.5668586" lon="10.4577223"><ele>238.83333333333334</ele><time>2026-03-29T07:37:00.286Z</time></trkpt><trkpt lat="45.5667976" lon="10.457825"><ele>239.0</ele><time>2026-03-29T07:37:01.286Z</time></trkpt><trkpt lat="45.5667416" lon="10.4579195"><ele>238.39999999999998</ele><time>2026-03-29T07:37:02.286Z</time></trkpt><trkpt lat="45.5666822" lon="10.4580116"><ele>237.79999999999998</ele><time>2026-03-29T07:37:03.285Z</time></trkpt><trkpt lat="45.5666149" lon="10.458096"><ele>237.20000000000002</ele><time>2026-03-29T07:37:04.286Z</time></trkpt><trkpt lat="45.5665486" lon="10.4581967"><ele>236.60000000000002</ele><time>2026-03-29T07:37:05.286Z</time></trkpt><trkpt lat="45.5664811" lon="10.4582928"><ele>236.0</ele><time>2026-03-29T07:37:06.286Z</time></trkpt><trkpt lat="45.5664111" lon="10.4583899"><ele>236.00000000000003</ele><time>2026-03-29T07:37:07.286Z</time></trkpt><trkpt lat="45.566344" lon="10.4584856"><ele>236.0</ele><time>2026-03-29T07:37:08.286Z</time></trkpt><trkpt lat="45.5662807" lon="10.4585674"><ele>236.0</ele><time>2026-03-29T07:37:09.285Z</time></trkpt><trkpt lat="45.5662195" lon="10.4586285"><ele>236.0</ele><time>2026-03-29T07:37:10.285Z</time></trkpt><trkpt lat="45.5661616" lon="10.4586681"><ele>236.00000000000003</ele><time>2026-03-29T07:37:11.286Z</time></trkpt><trkpt lat="45.5660983" lon="10.45869"><ele>236.0</ele><time>2026-03-29T07:37:12.286Z</time></trkpt><trkpt lat="45.5660198" lon="10.4586975"><ele>236.50000000000003</ele><time>2026-03-29T07:37:13.286Z</time></trkpt><trkpt lat="45.5659358" lon="10.4586845"><ele>237.0</ele><time>2026-03-29T07:37:14.286Z</time></trkpt><trkpt lat="45.56585" lon="10.458649"><ele>237.5</ele><time>2026-03-29T07:37:15.285Z</time></trkpt><trkpt lat="45.5657731" lon="10.4586024"><ele>238.0</ele><time>2026-03-29T07:37:16.286Z</time></trkpt><trkpt lat="45.5657048" lon="10.4585601"><ele>238.50000000000003</ele><time>2026-03-29T07:37:17.286Z</time></trkpt><trkpt lat="45.5656419" lon="10.4585259"><ele>239.0</ele><time>2026-03-29T07:37:18.286Z</time></trkpt><trkpt lat="45.5655803" lon="10.4584989"><ele>239.00000000000003</ele><time>2026-03-29T07:37:19.285Z</time></trkpt><trkpt lat="45.5655119" lon="10.458475"><ele>239.0</ele><time>2026-03-29T07:37:20.286Z</time></trkpt><trkpt lat="45.5654417" lon="10.4584548"><ele>239.0</ele><time>2026-03-29T07:37:21.285Z</time></trkpt><trkpt lat="45.5653687" lon="10.4584392"><ele>239.0</ele><time>2026-03-29T07:37:22.286Z</time></trkpt><trkpt lat="45.565284" lon="10.4584314"><ele>239.00000000000003</ele><time>2026-03-29T07:37:23.285Z</time></trkpt><trkpt lat="45.5651946" lon="10.4584191"><ele>239.0</ele><time>2026-03-29T07:37:24.285Z</time></trkpt><trkpt lat="45.565111" lon="10.4583991"><ele>238.79999999999998</ele><time>2026-03-29T07:37:25.285Z</time></trkpt><trkpt lat="45.5650351" lon="10.4583601"><ele>238.59999999999997</ele><time>2026-03-29T07:37:26.286Z</time></trkpt><trkpt lat="45.5649624" lon="10.4583148"><ele>238.4</ele><time>2026-03-29T07:37:27.285Z</time></trkpt><trkpt lat="45.5648786" lon="10.4582646"><ele>238.2</ele><time>2026-03-29T07:37:28.286Z</time></trkpt><trkpt lat="45.5647872" lon="10.4582102"><ele>238.0</ele><time>2026-03-29T07:37:29.286Z</time></trkpt><trkpt lat="45.564695" lon="10.4581472"><ele>238.0</ele><time>2026-03-29T07:37:30.285Z</time></trkpt><trkpt lat="45.5646048" lon="10.4580844"><ele>238.0</ele><time>2026-03-29T07:37:31.285Z</time></trkpt><trkpt lat="45.5645172" lon="10.458024"><ele>238.0</ele><time>2026-03-29T07:37:32.286Z</time></trkpt><trkpt lat="45.5644236" lon="10.4579812"><ele>238.0</ele><time>2026-03-29T07:37:33.286Z</time></trkpt><trkpt lat="45.5643245" lon="10.4579294"><ele>238.0</ele><time>2026-03-29T07:37:34.285Z</time></trkpt><trkpt lat="45.5642257" lon="10.4578855"><ele>237.60000000000002</ele><time>2026-03-29T07:37:35.285Z</time></trkpt><trkpt lat="45.5641292" lon="10.4578355"><ele>237.20000000000002</ele><time>2026-03-29T07:37:36.285Z</time></trkpt><trkpt lat="45.5640284" lon="10.4577759"><ele>236.8</ele><time>2026-03-29T07:37:37.285Z</time></trkpt><trkpt lat="45.5639216" lon="10.4577135"><ele>236.4</ele><time>2026-03-29T07:37:38.285Z</time></trkpt><trkpt lat="45.563811" lon="10.4576561"><ele>236.0</ele><time>2026-03-29T07:37:39.286Z</time></trkpt><trkpt lat="45.5637103" lon="10.4576072"><ele>236.0</ele><time>2026-03-29T07:37:40.285Z</time></trkpt><trkpt lat="45.5636176" lon="10.4575738"><ele>236.0</ele><time>2026-03-29T07:37:41.286Z</time></trkpt><trkpt lat="45.5635383" lon="10.4575323"><ele>236.0</ele><time>2026-03-29T07:37:42.286Z</time></trkpt><trkpt lat="45.5634715" lon="10.4575015"><ele>236.0</ele><time>2026-03-29T07:37:43.285Z</time></trkpt><trkpt lat="45.5634051" lon="10.4574853"><ele>236.0</ele><time>2026-03-29T07:37:44.285Z</time></trkpt><trkpt lat="45.5633407" lon="10.4574938"><ele>236.0</ele><time>2026-03-29T07:37:45.285Z</time></trkpt><trkpt lat="45.5632802" lon="10.4575309"><ele>236.0</ele><time>2026-03-29T07:37:46.285Z</time></trkpt><trkpt lat="45.5632423" lon="10.457619"><ele>236.00000000000003</ele><time>2026-03-29T07:37:47.286Z</time></trkpt><trkpt lat="45.5632197" lon="10.4577238"><ele>236.0</ele><time>2026-03-29T07:37:48.286Z</time></trkpt><trkpt lat="45.5632058" lon="10.4578515"><ele>236.0</ele><time>2026-03-29T07:37:49.286Z</time></trkpt><trkpt lat="45.5632008" lon="10.4579879"><ele>236.0</ele><time>2026-03-29T07:37:50.286Z</time></trkpt><trkpt lat="45.5631962" lon="10.458125"><ele>236.00000000000003</ele><time>2026-03-29T07:37:51.286Z</time></trkpt><trkpt lat="45.5631896" lon="10.4582503"><ele>236.0</ele><time>2026-03-29T07:37:52.285Z</time></trkpt><trkpt lat="45.5631777" lon="10.4583662"><ele>236.50000000000003</ele><time>2026-03-29T07:37:53.286Z</time></trkpt><trkpt lat="45.5631618" lon="10.4584696"><ele>237.0</ele><time>2026-03-29T07:37:54.285Z</time></trkpt><trkpt lat="45.5631397" lon="10.4585664"><ele>237.5</ele><time>2026-03-29T07:37:55.286Z</time></trkpt><trkpt lat="45.5631184" lon="10.4586719"><ele>238.0</ele><time>2026-03-29T07:37:56.286Z</time></trkpt><trkpt lat="45.5630963" lon="10.4587901"><ele>238.50000000000003</ele><time>2026-03-29T07:37:57.285Z</time></trkpt><trkpt lat="45.5630681" lon="10.4589238"><ele>239.0</ele><time>2026-03-29T07:37:58.286Z</time></trkpt><trkpt lat="45.5630404" lon="10.4590649"><ele>239.39999999999998</ele><time>2026-03-29T07:37:59.285Z</time></trkpt><trkpt lat="45.5629981" lon="10.4592081"><ele>239.79999999999998</ele><time>2026-03-29T07:38:00.285Z</time></trkpt><trkpt lat="45.5629635" lon="10.4593649"><ele>240.20000000000002</ele><time>2026-03-29T07:38:01.285Z</time></trkpt><trkpt lat="45.5629256" lon="10.4595179"><ele>240.60000000000002</ele><time>2026-03-29T07:38:02.286Z</time></trkpt><trkpt lat="45.5628886" lon="10.4596614"><ele>241.0</ele><time>2026-03-29T07:38:03.285Z</time></trkpt><trkpt lat="45.5628571" lon="10.4597922"><ele>241.20000000000002</ele><time>2026-03-29T07:38:04.285Z</time></trkpt><trkpt lat="45.562815" lon="10.459906"><ele>241.40000000000003</ele><time>2026-03-29T07:38:05.286Z</time></trkpt><trkpt lat="45.5627783" lon="10.4600004"><ele>241.6</ele><time>2026-03-29T07:38:06.286Z</time></trkpt><trkpt lat="45.5627275" lon="10.4601035"><ele>241.8</ele><time>2026-03-29T07:38:08.286Z</time></trkpt><trkpt lat="45.5626166" lon="10.4600093"><ele>242.0</ele><time>2026-03-29T07:38:10.286Z</time></trkpt><trkpt lat="45.5625431" lon="10.4599513"><ele>242.0</ele><time>2026-03-29T07:38:11.286Z</time></trkpt><trkpt lat="45.562454" lon="10.4598967"><ele>242.0</ele><time>2026-03-29T07:38:12.285Z</time></trkpt><trkpt lat="45.562352" lon="10.4598474"><ele>242.0</ele><time>2026-03-29T07:38:13.286Z</time></trkpt><trkpt lat="45.5622376" lon="10.4597961"><ele>242.0</ele><time>2026-03-29T07:38:14.285Z</time></trkpt><trkpt lat="45.562117" lon="10.4597495"><ele>242.0</ele><time>2026-03-29T07:38:15.285Z</time></trkpt><trkpt lat="45.5619957" lon="10.4597084"><ele>241.5</ele><time>2026-03-29T07:38:16.286Z</time></trkpt><trkpt lat="45.5618797" lon="10.4596577"><ele>241.0</ele><time>2026-03-29T07:38:17.285Z</time></trkpt><trkpt lat="45.5617654" lon="10.4596096"><ele>240.5</ele><time>2026-03-29T07:38:18.285Z</time></trkpt><trkpt lat="45.5616486" lon="10.459554"><ele>240.0</ele><time>2026-03-29T07:38:19.286Z</time></trkpt><trkpt lat="45.5615372" lon="10.4594973"><ele>239.5</ele><time>2026-03-29T07:38:20.286Z</time></trkpt><trkpt lat="45.5614244" lon="10.4594426"><ele>239.0</ele><time>2026-03-29T07:38:21.286Z</time></trkpt><trkpt lat="45.5613099" lon="10.4593974"><ele>238.5</ele><time>2026-03-29T07:38:22.285Z</time></trkpt><trkpt lat="45.5611995" lon="10.459362"><ele>238.0</ele><time>2026-03-29T07:38:23.284Z</time></trkpt><trkpt lat="45.5610826" lon="10.459341"><ele>237.0</ele><time>2026-03-29T07:38:24.285Z</time></trkpt><trkpt lat="45.560961" lon="10.4593255"><ele>236.0</ele><time>2026-03-29T07:38:25.284Z</time></trkpt><trkpt lat="45.5608332" lon="10.4593179"><ele>235.0</ele><time>2026-03-29T07:38:26.285Z</time></trkpt><trkpt lat="45.5607024" lon="10.4593082"><ele>234.0</ele><time>2026-03-29T07:38:27.284Z</time></trkpt><trkpt lat="45.5605623" lon="10.4592966"><ele>234.0</ele><time>2026-03-29T07:38:28.285Z</time></trkpt><trkpt lat="45.5604198" lon="10.4592839"><ele>234.0</ele><time>2026-03-29T07:38:29.284Z</time></trkpt><trkpt lat="45.5602778" lon="10.4592621"><ele>234.0</ele><time>2026-03-29T07:38:30.284Z</time></trkpt><trkpt lat="45.5601407" lon="10.4592397"><ele>234.0</ele><time>2026-03-29T07:38:31.284Z</time></trkpt><trkpt lat="45.5600121" lon="10.4592061"><ele>233.6</ele><time>2026-03-29T07:38:32.285Z</time></trkpt><trkpt lat="45.5599056" lon="10.4591548"><ele>233.2</ele><time>2026-03-29T07:38:33.285Z</time></trkpt><trkpt lat="45.5598225" lon="10.4590612"><ele>232.79999999999998</ele><time>2026-03-29T07:38:34.285Z</time></trkpt><trkpt lat="45.5597804" lon="10.4589173"><ele>232.39999999999998</ele><time>2026-03-29T07:38:35.284Z</time></trkpt><trkpt lat="45.5597698" lon="10.4587441"><ele>232.0</ele><time>2026-03-29T07:38:36.285Z</time></trkpt><trkpt lat="45.5597813" lon="10.4585481"><ele>231.5</ele><time>2026-03-29T07:38:37.285Z</time></trkpt><trkpt lat="45.559813" lon="10.4583435"><ele>231.0</ele><time>2026-03-29T07:38:38.285Z</time></trkpt><trkpt lat="45.5598406" lon="10.4581342"><ele>230.5</ele><time>2026-03-29T07:38:39.285Z</time></trkpt><trkpt lat="45.5598544" lon="10.4579239"><ele>230.0</ele><time>2026-03-29T07:38:40.284Z</time></trkpt><trkpt lat="45.559868" lon="10.4577089"><ele>230.0</ele><time>2026-03-29T07:38:41.285Z</time></trkpt><trkpt lat="45.5598862" lon="10.4575035"><ele>230.0</ele><time>2026-03-29T07:38:42.285Z</time></trkpt><trkpt lat="45.5599033" lon="10.4573103"><ele>230.0</ele><time>2026-03-29T07:38:43.284Z</time></trkpt><trkpt lat="45.5599164" lon="10.4571278"><ele>230.0</ele><time>2026-03-29T07:38:44.285Z</time></trkpt><trkpt lat="45.5599343" lon="10.4569506"><ele>230.0</ele><time>2026-03-29T07:38:45.285Z</time></trkpt><trkpt lat="45.5599461" lon="10.4567685"><ele>230.0</ele><time>2026-03-29T07:38:46.285Z</time></trkpt><trkpt lat="45.5599512" lon="10.4565975"><ele>230.0</ele><time>2026-03-29T07:38:47.284Z</time></trkpt><trkpt lat="45.5599601" lon="10.4564319"><ele>230.0</ele><time>2026-03-29T07:38:48.285Z</time></trkpt><trkpt lat="45.5599738" lon="10.4562766"><ele>230.0</ele><time>2026-03-29T07:38:49.284Z</time></trkpt><trkpt lat="45.5599885" lon="10.4561201"><ele>230.0</ele><time>2026-03-29T07:38:50.285Z</time></trkpt><trkpt lat="45.5599993" lon="10.4559669"><ele>230.0</ele><time>2026-03-29T07:38:51.284Z</time></trkpt><trkpt lat="45.5600066" lon="10.4558171"><ele>230.0</ele><time>2026-03-29T07:38:52.285Z</time></trkpt><trkpt lat="45.5600157" lon="10.4556677"><ele>230.0</ele><time>2026-03-29T07:38:53.284Z</time></trkpt><trkpt lat="45.5600195" lon="10.4555175"><ele>230.0</ele><time>2026-03-29T07:38:54.285Z</time></trkpt><trkpt lat="45.560018" lon="10.4553787"><ele>230.0</ele><time>2026-03-29T07:38:55.285Z</time></trkpt><trkpt lat="45.5600304" lon="10.4552526"><ele>230.0</ele><time>2026-03-29T07:38:56.284Z</time></trkpt><trkpt lat="45.5600357" lon="10.4551478"><ele>230.0</ele><time>2026-03-29T07:38:57.284Z</time></trkpt><trkpt lat="45.5600261" lon="10.455007"><ele>230.0</ele><time>2026-03-29T07:38:59.285Z</time></trkpt><trkpt lat="45.5599361" lon="10.4549597"><ele>230.0</ele><time>2026-03-29T07:39:02.284Z</time></trkpt><trkpt lat="45.5598741" lon="10.4549773"><ele>230.0</ele><time>2026-03-29T07:39:03.285Z</time></trkpt><trkpt lat="45.5597919" lon="10.4549896"><ele>230.0</ele><time>2026-03-29T07:39:04.284Z</time></trkpt><trkpt lat="45.5596859" lon="10.4550069"><ele>230.0</ele><time>2026-03-29T07:39:05.285Z</time></trkpt><trkpt lat="45.5595786" lon="10.4550223"><ele>230.0</ele><time>2026-03-29T07:39:06.284Z</time></trkpt><trkpt lat="45.5594629" lon="10.4550464"><ele>229.25</ele><time>2026-03-29T07:39:07.285Z</time></trkpt><trkpt lat="45.5593428" lon="10.4550694"><ele>228.5</ele><time>2026-03-29T07:39:08.285Z</time></trkpt><trkpt lat="45.5592136" lon="10.4550825"><ele>227.75</ele><time>2026-03-29T07:39:09.285Z</time></trkpt><trkpt lat="45.5590858" lon="10.4550787"><ele>227.0</ele><time>2026-03-29T07:39:10.284Z</time></trkpt><trkpt lat="45.558955" lon="10.4550708"><ele>227.0</ele><time>2026-03-29T07:39:11.285Z</time></trkpt><trkpt lat="45.5588199" lon="10.4550734"><ele>227.0</ele><time>2026-03-29T07:39:12.284Z</time></trkpt><trkpt lat="45.5586825" lon="10.4550826"><ele>227.0</ele><time>2026-03-29T07:39:13.285Z</time></trkpt><trkpt lat="45.5585452" lon="10.4551105"><ele>227.0</ele><time>2026-03-29T07:39:14.285Z</time></trkpt><trkpt lat="45.5584129" lon="10.4551458"><ele>226.0</ele><time>2026-03-29T07:39:15.284Z</time></trkpt><trkpt lat="45.5582834" lon="10.4551831"><ele>225.0</ele><time>2026-03-29T07:39:16.284Z</time></trkpt><trkpt lat="45.5581564" lon="10.4552231"><ele>224.0</ele><time>2026-03-29T07:39:17.284Z</time></trkpt><trkpt lat="45.5580386" lon="10.455258"><ele>223.0</ele><time>2026-03-29T07:39:18.285Z</time></trkpt><trkpt lat="45.5579276" lon="10.4552906"><ele>224.0</ele><time>2026-03-29T07:39:19.284Z</time></trkpt><trkpt lat="45.5578289" lon="10.4553183"><ele>225.0</ele><time>2026-03-29T07:39:20.285Z</time></trkpt><trkpt lat="45.5577544" lon="10.4553809"><ele>226.0</ele><time>2026-03-29T07:39:21.285Z</time></trkpt><trkpt lat="45.5576967" lon="10.4554705"><ele>227.0</ele><time>2026-03-29T07:39:22.284Z</time></trkpt><trkpt lat="45.5576595" lon="10.4555892"><ele>228.0</ele><time>2026-03-29T07:39:23.284Z</time></trkpt><trkpt lat="45.5576455" lon="10.4557344"><ele>228.0</ele><time>2026-03-29T07:39:24.284Z</time></trkpt><trkpt lat="45.5576512" lon="10.4558997"><ele>228.0</ele><time>2026-03-29T07:39:25.284Z</time></trkpt><trkpt lat="45.5576471" lon="10.4560794"><ele>228.0</ele><time>2026-03-29T07:39:26.285Z</time></trkpt><trkpt lat="45.5576231" lon="10.4562527"><ele>228.0</ele><time>2026-03-29T07:39:27.285Z</time></trkpt><trkpt lat="45.5575734" lon="10.4564097"><ele>228.60000000000002</ele><time>2026-03-29T07:39:28.285Z</time></trkpt><trkpt lat="45.5575108" lon="10.4565433"><ele>229.20000000000002</ele><time>2026-03-29T07:39:29.284Z</time></trkpt><trkpt lat="45.5574411" lon="10.4566559"><ele>229.8</ele><time>2026-03-29T07:39:30.285Z</time></trkpt><trkpt lat="45.557362" lon="10.456754"><ele>230.4</ele><time>2026-03-29T07:39:31.285Z</time></trkpt><trkpt lat="45.5572671" lon="10.4568446"><ele>231.0</ele><time>2026-03-29T07:39:32.285Z</time></trkpt><trkpt lat="45.5571717" lon="10.4569312"><ele>231.0</ele><time>2026-03-29T07:39:33.284Z</time></trkpt><trkpt lat="45.5570762" lon="10.4570217"><ele>231.0</ele><time>2026-03-29T07:39:34.285Z</time></trkpt><trkpt lat="45.5569761" lon="10.4571221"><ele>231.0</ele><time>2026-03-29T07:39:35.285Z</time></trkpt><trkpt lat="45.55686" lon="10.4572203"><ele>231.0</ele><time>2026-03-29T07:39:36.285Z</time></trkpt><trkpt lat="45.5567506" lon="10.4573307"><ele>233.25</ele><time>2026-03-29T07:39:37.284Z</time></trkpt><trkpt lat="45.5566315" lon="10.4574273"><ele>235.5</ele><time>2026-03-29T07:39:38.285Z</time></trkpt><trkpt lat="45.5565013" lon="10.4574999"><ele>237.75</ele><time>2026-03-29T07:39:39.284Z</time></trkpt><trkpt lat="45.556377" lon="10.4575661"><ele>240.0</ele><time>2026-03-29T07:39:40.285Z</time></trkpt><trkpt lat="45.5562622" lon="10.4576472"><ele>239.6</ele><time>2026-03-29T07:39:41.285Z</time></trkpt><trkpt lat="45.5561568" lon="10.4577336"><ele>239.2</ele><time>2026-03-29T07:39:42.285Z</time></trkpt><trkpt lat="45.5560696" lon="10.4578326"><ele>238.8</ele><time>2026-03-29T07:39:43.284Z</time></trkpt><trkpt lat="45.5559981" lon="10.4579414"><ele>238.4</ele><time>2026-03-29T07:39:44.285Z</time></trkpt><trkpt lat="45.555941" lon="10.4580694"><ele>238.0</ele><time>2026-03-29T07:39:45.284Z</time></trkpt><trkpt lat="45.5558854" lon="10.4581984"><ele>239.8</ele><time>2026-03-29T07:39:46.285Z</time></trkpt><trkpt lat="45.5558273" lon="10.4583119"><ele>241.60000000000002</ele><time>2026-03-29T07:39:47.284Z</time></trkpt><trkpt lat="45.5557516" lon="10.4583983"><ele>243.39999999999998</ele><time>2026-03-29T07:39:48.285Z</time></trkpt><trkpt lat="45.5556566" lon="10.4584605"><ele>245.2</ele><time>2026-03-29T07:39:49.284Z</time></trkpt><trkpt lat="45.555541" lon="10.4585161"><ele>247.0</ele><time>2026-03-29T07:39:50.285Z</time></trkpt><trkpt lat="45.5554124" lon="10.458583"><ele>246.0</ele><time>2026-03-29T07:39:51.285Z</time></trkpt><trkpt lat="45.5552787" lon="10.458657"><ele>245.0</ele><time>2026-03-29T07:39:52.285Z</time></trkpt><trkpt lat="45.5551397" lon="10.4587287"><ele>244.0</ele><time>2026-03-29T07:39:53.284Z</time></trkpt><trkpt lat="45.5549988" lon="10.4587935"><ele>243.0</ele><time>2026-03-29T07:39:54.285Z</time></trkpt><trkpt lat="45.5548637" lon="10.4588456"><ele>243.2</ele><time>2026-03-29T07:39:55.284Z</time></trkpt><trkpt lat="45.5547399" lon="10.4589026"><ele>243.4</ele><time>2026-03-29T07:39:56.285Z</time></trkpt><trkpt lat="45.5546311" lon="10.4589673"><ele>243.59999999999997</ele><time>2026-03-29T07:39:57.284Z</time></trkpt><trkpt lat="45.5545462" lon="10.4590235"><ele>243.79999999999998</ele><time>2026-03-29T07:39:58.284Z</time></trkpt><trkpt lat="45.554475" lon="10.4590879"><ele>244.0</ele><time>2026-03-29T07:39:59.285Z</time></trkpt><trkpt lat="45.554423" lon="10.4591478"><ele>243.99999999999997</ele><time>2026-03-29T07:40:00.284Z</time></trkpt><trkpt lat="45.5543784" lon="10.4592523"><ele>244.0</ele><time>2026-03-29T07:40:02.285Z</time></trkpt><trkpt lat="45.5543196" lon="10.4593516"><ele>244.0</ele><time>2026-03-29T07:40:20.285Z</time></trkpt><trkpt lat="45.5542142" lon="10.4594242"><ele>244.0</ele><time>2026-03-29T07:40:22.284Z</time></trkpt><trkpt lat="45.5541517" lon="10.4594792"><ele>243.99999999999997</ele><time>2026-03-29T07:40:23.284Z</time></trkpt><trkpt lat="45.5540965" lon="10.4595441"><ele>244.0</ele><time>2026-03-29T07:40:24.285Z</time></trkpt><trkpt lat="45.5540457" lon="10.4596136"><ele>243.57142857142856</ele><time>2026-03-29T07:40:25.285Z</time></trkpt><trkpt lat="45.5539902" lon="10.4596883"><ele>243.14285714285714</ele><time>2026-03-29T07:40:26.285Z</time></trkpt><trkpt lat="45.5539363" lon="10.4597615"><ele>242.71428571428572</ele><time>2026-03-29T07:40:27.285Z</time></trkpt><trkpt lat="45.5538872" lon="10.4598304"><ele>242.28571428571428</ele><time>2026-03-29T07:40:28.285Z</time></trkpt><trkpt lat="45.553842" lon="10.4599045"><ele>241.8571428571429</ele><time>2026-03-29T07:40:29.285Z</time></trkpt><trkpt lat="45.5537965" lon="10.4599851"><ele>241.42857142857144</ele><time>2026-03-29T07:40:30.285Z</time></trkpt><trkpt lat="45.5537433" lon="10.4600811"><ele>241.0</ele><time>2026-03-29T07:40:31.284Z</time></trkpt><trkpt lat="45.5536914" lon="10.4601713"><ele>241.0</ele><time>2026-03-29T07:40:32.285Z</time></trkpt><trkpt lat="45.5536522" lon="10.4602586"><ele>241.00000000000003</ele><time>2026-03-29T07:40:33.284Z</time></trkpt><trkpt lat="45.5536108" lon="10.4603523"><ele>241.0</ele><time>2026-03-29T07:40:34.285Z</time></trkpt><trkpt lat="45.5535734" lon="10.4604476"><ele>241.0</ele><time>2026-03-29T07:40:35.285Z</time></trkpt><trkpt lat="45.5535395" lon="10.4605244"><ele>241.00000000000003</ele><time>2026-03-29T07:40:36.284Z</time></trkpt><trkpt lat="45.5535024" lon="10.460601"><ele>241.0</ele><time>2026-03-29T07:40:37.284Z</time></trkpt><trkpt lat="45.5534614" lon="10.4606815"><ele>241.0</ele><time>2026-03-29T07:40:38.284Z</time></trkpt><trkpt lat="45.5534193" lon="10.4607524"><ele>241.60000000000002</ele><time>2026-03-29T07:40:39.284Z</time></trkpt><trkpt lat="45.5533446" lon="10.4608528"><ele>242.20000000000002</ele><time>2026-03-29T07:40:41.285Z</time></trkpt><trkpt lat="45.5532544" lon="10.460908"><ele>242.79999999999998</ele><time>2026-03-29T07:40:43.284Z</time></trkpt><trkpt lat="45.5531453" lon="10.4609579"><ele>243.39999999999998</ele><time>2026-03-29T07:40:45.284Z</time></trkpt><trkpt lat="45.553027" lon="10.4609895"><ele>244.0</ele><time>2026-03-29T07:40:47.285Z</time></trkpt><trkpt lat="45.5529448" lon="10.4610159"><ele>243.99999999999997</ele><time>2026-03-29T07:40:49.284Z</time></trkpt><trkpt lat="45.5529137" lon="10.4610949"><ele>244.0</ele><time>2026-03-29T07:40:51.285Z</time></trkpt><trkpt lat="45.5529088" lon="10.4612516"><ele>244.0</ele><time>2026-03-29T07:40:53.284Z</time></trkpt><trkpt lat="45.5528982" lon="10.4613464"><ele>244.0</ele><time>2026-03-29T07:40:54.284Z</time></trkpt><trkpt lat="45.5528799" lon="10.4614356"><ele>243.99999999999997</ele><time>2026-03-29T07:40:55.285Z</time></trkpt><trkpt lat="45.5528283" lon="10.4615553"><ele>244.0</ele><time>2026-03-29T07:40:57.285Z</time></trkpt><trkpt lat="45.552735" lon="10.4615798"><ele>243.99999999999997</ele><time>2026-03-29T07:40:59.284Z</time></trkpt><trkpt lat="45.5526655" lon="10.4615771"><ele>244.0</ele><time>2026-03-29T07:41:00.284Z</time></trkpt><trkpt lat="45.5525879" lon="10.4615832"><ele>244.0</ele><time>2026-03-29T07:41:01.285Z</time></trkpt><trkpt lat="45.5525122" lon="10.4615979"><ele>244.0</ele><time>2026-03-29T07:41:02.284Z</time></trkpt><trkpt lat="45.5524417" lon="10.4616087"><ele>243.99999999999997</ele><time>2026-03-29T07:41:03.285Z</time></trkpt><trkpt lat="45.5523258" lon="10.4616065"><ele>244.0</ele><time>2026-03-29T07:41:05.285Z</time></trkpt><trkpt lat="45.5522354" lon="10.4615508"><ele>244.0</ele><time>2026-03-29T07:41:07.285Z</time></trkpt><trkpt lat="45.5521645" lon="10.4614374"><ele>243.99999999999997</ele><time>2026-03-29T07:41:09.284Z</time></trkpt><trkpt lat="45.5520847" lon="10.4613653"><ele>243.99999999999997</ele><time>2026-03-29T07:41:11.284Z</time></trkpt><trkpt lat="45.5520227" lon="10.4613284"><ele>244.0</ele><time>2026-03-29T07:41:13.285Z</time></trkpt><trkpt lat="45.5519648" lon="10.4612457"><ele>244.0</ele><time>2026-03-29T07:41:15.284Z</time></trkpt><trkpt lat="45.5518836" lon="10.461109"><ele>243.66666666666666</ele><time>2026-03-29T07:41:17.285Z</time></trkpt><trkpt lat="45.5518148" lon="10.4610608"><ele>243.33333333333331</ele><time>2026-03-29T07:41:18.285Z</time></trkpt><trkpt lat="45.5517318" lon="10.4610247"><ele>243.0</ele><time>2026-03-29T07:41:19.284Z</time></trkpt><trkpt lat="45.5516507" lon="10.4610026"><ele>242.66666666666669</ele><time>2026-03-29T07:41:20.284Z</time></trkpt><trkpt lat="45.5515686" lon="10.4609925"><ele>242.33333333333334</ele><time>2026-03-29T07:41:21.284Z</time></trkpt><trkpt lat="45.5514802" lon="10.4609953"><ele>242.0</ele><time>2026-03-29T07:41:22.284Z</time></trkpt><trkpt lat="45.551388" lon="10.4610085"><ele>242.00000000000003</ele><time>2026-03-29T07:41:23.284Z</time></trkpt><trkpt lat="45.5512962" lon="10.4610274"><ele>242.0</ele><time>2026-03-29T07:41:24.284Z</time></trkpt><trkpt lat="45.5512105" lon="10.4610481"><ele>242.0</ele><time>2026-03-29T07:41:25.285Z</time></trkpt><trkpt lat="45.5511313" lon="10.4610671"><ele>242.0</ele><time>2026-03-29T07:41:26.285Z</time></trkpt><trkpt lat="45.5510606" lon="10.4610822"><ele>242.00000000000003</ele><time>2026-03-29T07:41:27.284Z</time></trkpt><trkpt lat="45.5509954" lon="10.4610941"><ele>242.0</ele><time>2026-03-29T07:41:28.285Z</time></trkpt><trkpt lat="45.5509297" lon="10.4610985"><ele>241.8</ele><time>2026-03-29T07:41:29.284Z</time></trkpt><trkpt lat="45.550816" lon="10.4610708"><ele>241.6</ele><time>2026-03-29T07:41:31.284Z</time></trkpt><trkpt lat="45.5507234" lon="10.4609564"><ele>241.40000000000003</ele><time>2026-03-29T07:41:33.285Z</time></trkpt><trkpt lat="45.5506979" lon="10.460872"><ele>241.20000000000002</ele><time>2026-03-29T07:41:34.285Z</time></trkpt><trkpt lat="45.5506938" lon="10.4607779"><ele>241.0</ele><time>2026-03-29T07:41:35.285Z</time></trkpt><trkpt lat="45.5506913" lon="10.4606171"><ele>240.99999999999997</ele><time>2026-03-29T07:41:37.285Z</time></trkpt><trkpt lat="45.5507048" lon="10.4604788"><ele>241.0</ele><time>2026-03-29T07:41:39.285Z</time></trkpt><trkpt lat="45.5507048" lon="10.4603526"><ele>241.0</ele><time>2026-03-29T07:41:41.285Z</time></trkpt><trkpt lat="45.5506548" lon="10.4602709"><ele>241.0</ele><time>2026-03-29T07:41:43.284Z</time></trkpt><trkpt lat="45.5505583" lon="10.4602417"><ele>240.99999999999997</ele><time>2026-03-29T07:41:45.285Z</time></trkpt><trkpt lat="45.5504906" lon="10.4602416"><ele>241.0</ele><time>2026-03-29T07:41:46.285Z</time></trkpt><trkpt lat="45.5504054" lon="10.4602492"><ele>240.60000000000002</ele><time>2026-03-29T07:41:47.285Z</time></trkpt><trkpt lat="45.550302" lon="10.4602666"><ele>240.20000000000002</ele><time>2026-03-29T07:41:48.284Z</time></trkpt><trkpt lat="45.5501976" lon="10.4602868"><ele>239.79999999999998</ele><time>2026-03-29T07:41:49.284Z</time></trkpt><trkpt lat="45.5500809" lon="10.4603109"><ele>239.39999999999998</ele><time>2026-03-29T07:41:50.284Z</time></trkpt><trkpt lat="45.5499692" lon="10.4603302"><ele>239.0</ele><time>2026-03-29T07:41:51.284Z</time></trkpt><trkpt lat="45.5498648" lon="10.4603503"><ele>239.00000000000003</ele><time>2026-03-29T07:41:52.284Z</time></trkpt><trkpt lat="45.5497664" lon="10.4603693"><ele>239.0</ele><time>2026-03-29T07:41:53.285Z</time></trkpt><trkpt lat="45.5496738" lon="10.4603885"><ele>239.0</ele><time>2026-03-29T07:41:54.284Z</time></trkpt><trkpt lat="45.5495939" lon="10.4604021"><ele>239.0</ele><time>2026-03-29T07:41:55.284Z</time></trkpt><trkpt lat="45.5495262" lon="10.4604132"><ele>239.00000000000003</ele><time>2026-03-29T07:41:56.284Z</time></trkpt><trkpt lat="45.5494224" lon="10.4603922"><ele>239.0</ele><time>2026-03-29T07:41:58.285Z</time></trkpt><trkpt lat="45.5493523" lon="10.4602608"><ele>240.25</ele><time>2026-03-29T07:42:00.285Z</time></trkpt><trkpt lat="45.5493045" lon="10.4601357"><ele>241.5</ele><time>2026-03-29T07:42:01.285Z</time></trkpt><trkpt lat="45.549227" lon="10.4599985"><ele>242.75</ele><time>2026-03-29T07:42:02.285Z</time></trkpt><trkpt lat="45.5491195" lon="10.4598548"><ele>244.0</ele><time>2026-03-29T07:42:03.284Z</time></trkpt><trkpt lat="45.5490054" lon="10.4597118"><ele>243.75</ele><time>2026-03-29T07:42:04.285Z</time></trkpt><trkpt lat="45.5488895" lon="10.459572"><ele>243.5</ele><time>2026-03-29T07:42:05.284Z</time></trkpt><trkpt lat="45.5487739" lon="10.4594508"><ele>243.25</ele><time>2026-03-29T07:42:06.284Z</time></trkpt><trkpt lat="45.5486678" lon="10.4593488"><ele>243.0</ele><time>2026-03-29T07:42:07.284Z</time></trkpt><trkpt lat="45.5485834" lon="10.4592564"><ele>243.33333333333334</ele><time>2026-03-29T07:42:08.285Z</time></trkpt><trkpt lat="45.5485069" lon="10.4591747"><ele>243.66666666666669</ele><time>2026-03-29T07:42:09.284Z</time></trkpt><trkpt lat="45.5484394" lon="10.4590994"><ele>244.0</ele><time>2026-03-29T07:42:10.284Z</time></trkpt><trkpt lat="45.5483745" lon="10.4590397"><ele>244.33333333333334</ele><time>2026-03-29T07:42:11.284Z</time></trkpt><trkpt lat="45.5483085" lon="10.4590123"><ele>244.66666666666669</ele><time>2026-03-29T07:42:12.284Z</time></trkpt><trkpt lat="45.5482389" lon="10.4590411"><ele>245.0</ele><time>2026-03-29T07:42:13.285Z</time></trkpt><trkpt lat="45.5481759" lon="10.4591168"><ele>245.0</ele><time>2026-03-29T07:42:14.284Z</time></trkpt><trkpt lat="45.5481318" lon="10.4592145"><ele>245.0</ele><time>2026-03-29T07:42:15.285Z</time></trkpt><trkpt lat="45.548117" lon="10.4593326"><ele>245.0</ele><time>2026-03-29T07:42:16.284Z</time></trkpt><trkpt lat="45.5481367" lon="10.4594584"><ele>245.0</ele><time>2026-03-29T07:42:17.284Z</time></trkpt><trkpt lat="45.5481667" lon="10.4595972"><ele>245.0</ele><time>2026-03-29T07:42:18.285Z</time></trkpt><trkpt lat="45.5481944" lon="10.4597418"><ele>245.0</ele><time>2026-03-29T07:42:19.285Z</time></trkpt><trkpt lat="45.5482018" lon="10.4598939"><ele>245.0</ele><time>2026-03-29T07:42:20.284Z</time></trkpt><trkpt lat="45.5481842" lon="10.460062"><ele>245.0</ele><time>2026-03-29T07:42:21.284Z</time></trkpt><trkpt lat="45.5481432" lon="10.4602453"><ele>245.0</ele><time>2026-03-29T07:42:22.285Z</time></trkpt><trkpt lat="45.5480794" lon="10.4604507"><ele>245.0</ele><time>2026-03-29T07:42:23.284Z</time></trkpt><trkpt lat="45.5479954" lon="10.4606761"><ele>245.0</ele><time>2026-03-29T07:42:24.285Z</time></trkpt><trkpt lat="45.5479088" lon="10.4609093"><ele>245.0</ele><time>2026-03-29T07:42:25.284Z</time></trkpt><trkpt lat="45.5478387" lon="10.4611581"><ele>245.66666666666669</ele><time>2026-03-29T07:42:26.285Z</time></trkpt><trkpt lat="45.5477832" lon="10.4614202"><ele>246.33333333333331</ele><time>2026-03-29T07:42:27.285Z</time></trkpt><trkpt lat="45.547743" lon="10.4616993"><ele>247.0</ele><time>2026-03-29T07:42:28.284Z</time></trkpt><trkpt lat="45.5477116" lon="10.4619917"><ele>248.0</ele><time>2026-03-29T07:42:29.284Z</time></trkpt><trkpt lat="45.5476925" lon="10.4622913"><ele>249.0</ele><time>2026-03-29T07:42:30.285Z</time></trkpt><trkpt lat="45.5476572" lon="10.4625879"><ele>250.0</ele><time>2026-03-29T07:42:31.284Z</time></trkpt><trkpt lat="45.5476208" lon="10.4628778"><ele>251.33333333333331</ele><time>2026-03-29T07:42:32.284Z</time></trkpt><trkpt lat="45.5475887" lon="10.4631538"><ele>252.66666666666669</ele><time>2026-03-29T07:42:33.285Z</time></trkpt><trkpt lat="45.5475642" lon="10.4634041"><ele>254.0</ele><time>2026-03-29T07:42:34.285Z</time></trkpt><trkpt lat="45.5475382" lon="10.4636303"><ele>254.75</ele><time>2026-03-29T07:42:35.285Z</time></trkpt><trkpt lat="45.5475112" lon="10.4638356"><ele>255.5</ele><time>2026-03-29T07:42:36.284Z</time></trkpt><trkpt lat="45.5474909" lon="10.4640179"><ele>256.25</ele><time>2026-03-29T07:42:37.285Z</time></trkpt><trkpt lat="45.5474787" lon="10.4641814"><ele>257.0</ele><time>2026-03-29T07:42:38.285Z</time></trkpt><trkpt lat="45.5474689" lon="10.4643428"><ele>257.0</ele><time>2026-03-29T07:42:39.284Z</time></trkpt><trkpt lat="45.5474561" lon="10.4645025"><ele>257.0</ele><time>2026-03-29T07:42:40.285Z</time></trkpt><trkpt lat="45.5474412" lon="10.4646451"><ele>257.0</ele><time>2026-03-29T07:42:41.285Z</time></trkpt><trkpt lat="45.54743" lon="10.464757"><ele>257.0</ele><time>2026-03-29T07:42:42.285Z</time></trkpt><trkpt lat="45.5473924" lon="10.4648827"><ele>257.0</ele><time>2026-03-29T07:42:44.285Z</time></trkpt><trkpt lat="45.5473086" lon="10.4649029"><ele>256.8</ele><time>2026-03-29T07:42:46.285Z</time></trkpt><trkpt lat="45.5472395" lon="10.4648879"><ele>256.6</ele><time>2026-03-29T07:42:47.285Z</time></trkpt><trkpt lat="45.547156" lon="10.4648537"><ele>256.40000000000003</ele><time>2026-03-29T07:42:48.284Z</time></trkpt><trkpt lat="45.5470597" lon="10.4648072"><ele>256.2</ele><time>2026-03-29T07:42:49.285Z</time></trkpt><trkpt lat="45.5469508" lon="10.4647724"><ele>256.0</ele><time>2026-03-29T07:42:50.285Z</time></trkpt><trkpt lat="45.5468303" lon="10.4647572"><ele>255.5</ele><time>2026-03-29T07:42:51.285Z</time></trkpt><trkpt lat="45.5467076" lon="10.4647488"><ele>255.0</ele><time>2026-03-29T07:42:52.285Z</time></trkpt><trkpt lat="45.5465817" lon="10.464738"><ele>254.5</ele><time>2026-03-29T07:42:53.284Z</time></trkpt><trkpt lat="45.546452" lon="10.4647209"><ele>254.0</ele><time>2026-03-29T07:42:54.284Z</time></trkpt><trkpt lat="45.546335" lon="10.4646868"><ele>254.0</ele><time>2026-03-29T07:42:55.285Z</time></trkpt><trkpt lat="45.5462155" lon="10.4646382"><ele>254.0</ele><time>2026-03-29T07:42:56.284Z</time></trkpt><trkpt lat="45.5460803" lon="10.4645736"><ele>254.0</ele><time>2026-03-29T07:42:57.284Z</time></trkpt><trkpt lat="45.5459404" lon="10.4645125"><ele>254.0</ele><time>2026-03-29T07:42:58.285Z</time></trkpt><trkpt lat="45.5458052" lon="10.4644477"><ele>253.75</ele><time>2026-03-29T07:42:59.285Z</time></trkpt><trkpt lat="45.5456652" lon="10.4643961"><ele>253.5</ele><time>2026-03-29T07:43:00.285Z</time></trkpt><trkpt lat="45.5455258" lon="10.464354"><ele>253.25</ele><time>2026-03-29T07:43:01.284Z</time></trkpt><trkpt lat="45.5453941" lon="10.4643183"><ele>253.0</ele><time>2026-03-29T07:43:02.284Z</time></trkpt><trkpt lat="45.5452697" lon="10.4642759"><ele>252.75</ele><time>2026-03-29T07:43:03.285Z</time></trkpt><trkpt lat="45.545158" lon="10.4642373"><ele>252.5</ele><time>2026-03-29T07:43:04.284Z</time></trkpt><trkpt lat="45.5450382" lon="10.4641972"><ele>252.25</ele><time>2026-03-29T07:43:05.285Z</time></trkpt><trkpt lat="45.5449265" lon="10.4641507"><ele>252.0</ele><time>2026-03-29T07:43:06.285Z</time></trkpt><trkpt lat="45.5448163" lon="10.464109"><ele>252.0</ele><time>2026-03-29T07:43:07.285Z</time></trkpt><trkpt lat="45.5446991" lon="10.4640722"><ele>252.0</ele><time>2026-03-29T07:43:08.285Z</time></trkpt><trkpt lat="45.5445708" lon="10.4640264"><ele>252.0</ele><time>2026-03-29T07:43:09.284Z</time></trkpt><trkpt lat="45.5444301" lon="10.4639866"><ele>252.0</ele><time>2026-03-29T07:43:10.285Z</time></trkpt><trkpt lat="45.5442896" lon="10.4639419"><ele>252.0</ele><time>2026-03-29T07:43:11.284Z</time></trkpt><trkpt lat="45.544159" lon="10.4639063"><ele>252.0</ele><time>2026-03-29T07:43:12.284Z</time></trkpt><trkpt lat="45.54404" lon="10.4638703"><ele>252.0</ele><time>2026-03-29T07:43:13.285Z</time></trkpt><trkpt lat="45.5439398" lon="10.4638368"><ele>252.0</ele><time>2026-03-29T07:43:14.284Z</time></trkpt><trkpt lat="45.5438619" lon="10.4638126"><ele>252.0</ele><time>2026-03-29T07:43:15.284Z</time></trkpt><trkpt lat="45.5437953" lon="10.4638081"><ele>252.2</ele><time>2026-03-29T07:43:16.284Z</time></trkpt><trkpt lat="45.5436904" lon="10.4638112"><ele>252.39999999999998</ele><time>2026-03-29T07:43:18.285Z</time></trkpt><trkpt lat="45.5436288" lon="10.4637453"><ele>252.60000000000002</ele><time>2026-03-29T07:43:20.284Z</time></trkpt><trkpt lat="45.5436092" lon="10.463654"><ele>252.8</ele><time>2026-03-29T07:43:21.284Z</time></trkpt><trkpt lat="45.5435941" lon="10.4635172"><ele>253.0</ele><time>2026-03-29T07:43:22.285Z</time></trkpt><trkpt lat="45.5435766" lon="10.4633496"><ele>253.0</ele><time>2026-03-29T07:43:23.285Z</time></trkpt><trkpt lat="45.5435538" lon="10.4631792"><ele>253.0</ele><time>2026-03-29T07:43:24.284Z</time></trkpt><trkpt lat="45.5435267" lon="10.4630158"><ele>253.0</ele><time>2026-03-29T07:43:25.285Z</time></trkpt><trkpt lat="45.5434963" lon="10.4628653"><ele>253.0</ele><time>2026-03-29T07:43:26.285Z</time></trkpt><trkpt lat="45.5434649" lon="10.4627236"><ele>253.0</ele><time>2026-03-29T07:43:27.284Z</time></trkpt><trkpt lat="45.543439" lon="10.4625833"><ele>253.0</ele><time>2026-03-29T07:43:28.284Z</time></trkpt><trkpt lat="45.543419" lon="10.4624465"><ele>253.0</ele><time>2026-03-29T07:43:29.284Z</time></trkpt><trkpt lat="45.5434062" lon="10.4623205"><ele>253.0</ele><time>2026-03-29T07:43:30.284Z</time></trkpt><trkpt lat="45.5434026" lon="10.4621904"><ele>253.0</ele><time>2026-03-29T07:43:31.284Z</time></trkpt><trkpt lat="45.5434003" lon="10.4620453"><ele>253.2</ele><time>2026-03-29T07:43:32.284Z</time></trkpt><trkpt lat="45.5434001" lon="10.4618932"><ele>253.4</ele><time>2026-03-29T07:43:33.284Z</time></trkpt><trkpt lat="45.5433941" lon="10.4617514"><ele>253.59999999999997</ele><time>2026-03-29T07:43:34.284Z</time></trkpt><trkpt lat="45.5433849" lon="10.4616152"><ele>253.79999999999998</ele><time>2026-03-29T07:43:35.285Z</time></trkpt><trkpt lat="45.5433575" lon="10.4614738"><ele>254.0</ele><time>2026-03-29T07:43:36.284Z</time></trkpt><trkpt lat="45.5433185" lon="10.4613344"><ele>254.2</ele><time>2026-03-29T07:43:37.284Z</time></trkpt><trkpt lat="45.5432764" lon="10.4611957"><ele>254.39999999999998</ele><time>2026-03-29T07:43:38.285Z</time></trkpt><trkpt lat="45.5432364" lon="10.4610656"><ele>254.6</ele><time>2026-03-29T07:43:39.284Z</time></trkpt><trkpt lat="45.5431951" lon="10.460945"><ele>254.8</ele><time>2026-03-29T07:43:40.284Z</time></trkpt><trkpt lat="45.5431588" lon="10.4608357"><ele>255.0</ele><time>2026-03-29T07:43:41.284Z</time></trkpt><trkpt lat="45.5431327" lon="10.4607481"><ele>255.0</ele><time>2026-03-29T07:43:42.284Z</time></trkpt><trkpt lat="45.5430965" lon="10.4606073"><ele>255.0</ele><time>2026-03-29T07:43:44.285Z</time></trkpt><trkpt lat="45.5431152" lon="10.4604721"><ele>255.0</ele><time>2026-03-29T07:43:46.284Z</time></trkpt><trkpt lat="45.5431268" lon="10.4603206"><ele>255.0</ele><time>2026-03-29T07:43:48.285Z</time></trkpt><trkpt lat="45.5431129" lon="10.4601828"><ele>255.0</ele><time>2026-03-29T07:43:50.284Z</time></trkpt><trkpt lat="45.5430781" lon="10.4600066"><ele>255.16666666666666</ele><time>2026-03-29T07:43:52.285Z</time></trkpt><trkpt lat="45.5430489" lon="10.4599024"><ele>255.33333333333331</ele><time>2026-03-29T07:43:53.284Z</time></trkpt><trkpt lat="45.5430143" lon="10.4597973"><ele>255.5</ele><time>2026-03-29T07:43:54.285Z</time></trkpt><trkpt lat="45.54298" lon="10.459696"><ele>255.66666666666666</ele><time>2026-03-29T07:43:55.285Z</time></trkpt><trkpt lat="45.5429475" lon="10.4595943"><ele>255.83333333333331</ele><time>2026-03-29T07:43:56.285Z</time></trkpt><trkpt lat="45.5429184" lon="10.4594922"><ele>256.0</ele><time>2026-03-29T07:43:57.285Z</time></trkpt><trkpt lat="45.542893" lon="10.4593934"><ele>256.16666666666663</ele><time>2026-03-29T07:43:58.284Z</time></trkpt><trkpt lat="45.542877" lon="10.4593001"><ele>256.3333333333333</ele><time>2026-03-29T07:43:59.285Z</time></trkpt><trkpt lat="45.5428504" lon="10.4591231"><ele>256.5</ele><time>2026-03-29T07:44:01.284Z</time></trkpt><trkpt lat="45.542855" lon="10.4590318"><ele>256.6666666666667</ele><time>2026-03-29T07:44:02.285Z</time></trkpt><trkpt lat="45.5428672" lon="10.4588861"><ele>256.83333333333337</ele><time>2026-03-29T07:44:04.284Z</time></trkpt><trkpt lat="45.5429177" lon="10.4588159"><ele>257.0</ele><time>2026-03-29T07:44:06.285Z</time></trkpt><trkpt lat="45.5430123" lon="10.4588232"><ele>256.5</ele><time>2026-03-29T07:44:08.284Z</time></trkpt><trkpt lat="45.5430811" lon="10.4588446"><ele>256.0</ele><time>2026-03-29T07:44:09.285Z</time></trkpt><trkpt lat="45.5431517" lon="10.4588653"><ele>255.5</ele><time>2026-03-29T07:44:10.285Z</time></trkpt><trkpt lat="45.5432171" lon="10.4588683"><ele>255.0</ele><time>2026-03-29T07:44:11.284Z</time></trkpt><trkpt lat="45.5433121" lon="10.4588366"><ele>254.50000000000003</ele><time>2026-03-29T07:44:13.283Z</time></trkpt><trkpt lat="45.5433311" lon="10.4586934"><ele>254.0</ele><time>2026-03-29T07:44:15.283Z</time></trkpt><trkpt lat="45.5433257" lon="10.4586009"><ele>253.57142857142858</ele><time>2026-03-29T07:44:16.283Z</time></trkpt><trkpt lat="45.5433134" lon="10.4584958"><ele>253.1428571428571</ele><time>2026-03-29T07:44:17.283Z</time></trkpt><trkpt lat="45.5432992" lon="10.4583864"><ele>252.7142857142857</ele><time>2026-03-29T07:44:18.284Z</time></trkpt><trkpt lat="45.5432874" lon="10.4582828"><ele>252.28571428571428</ele><time>2026-03-29T07:44:19.283Z</time></trkpt><trkpt lat="45.543282" lon="10.4581904"><ele>251.85714285714283</ele><time>2026-03-29T07:44:20.284Z</time></trkpt><trkpt lat="45.5432784" lon="10.4580949"><ele>251.4285714285714</ele><time>2026-03-29T07:44:21.283Z</time></trkpt><trkpt lat="45.5432785" lon="10.4579964"><ele>250.99999999999997</ele><time>2026-03-29T07:44:22.284Z</time></trkpt><trkpt lat="45.5432782" lon="10.4578932"><ele>250.71428571428567</ele><time>2026-03-29T07:44:23.283Z</time></trkpt><trkpt lat="45.5432759" lon="10.4577866"><ele>250.42857142857142</ele><time>2026-03-29T07:44:24.283Z</time></trkpt><trkpt lat="45.5432746" lon="10.4576851"><ele>250.1428571428571</ele><time>2026-03-29T07:44:25.283Z</time></trkpt><trkpt lat="45.5432749" lon="10.4575883"><ele>249.85714285714283</ele><time>2026-03-29T07:44:26.284Z</time></trkpt><trkpt lat="45.5432817" lon="10.4574951"><ele>249.57142857142856</ele><time>2026-03-29T07:44:27.283Z</time></trkpt><trkpt lat="45.5432986" lon="10.4573929"><ele>249.28571428571428</ele><time>2026-03-29T07:44:28.283Z</time></trkpt><trkpt lat="45.5433277" lon="10.4572848"><ele>249.0</ele><time>2026-03-29T07:44:29.283Z</time></trkpt><trkpt lat="45.5433722" lon="10.4571733"><ele>248.6</ele><time>2026-03-29T07:44:30.284Z</time></trkpt><trkpt lat="45.5434125" lon="10.4570617"><ele>248.2</ele><time>2026-03-29T07:44:31.284Z</time></trkpt><trkpt lat="45.5434568" lon="10.4569439"><ele>247.79999999999998</ele><time>2026-03-29T07:44:32.283Z</time></trkpt><trkpt lat="45.5435001" lon="10.4568221"><ele>247.39999999999998</ele><time>2026-03-29T07:44:33.284Z</time></trkpt><trkpt lat="45.5435358" lon="10.456703"><ele>247.0</ele><time>2026-03-29T07:44:34.283Z</time></trkpt><trkpt lat="45.5435642" lon="10.456579"><ele>247.0</ele><time>2026-03-29T07:44:35.284Z</time></trkpt><trkpt lat="45.5435825" lon="10.4564519"><ele>247.0</ele><time>2026-03-29T07:44:36.284Z</time></trkpt><trkpt lat="45.5435895" lon="10.4563193"><ele>247.0</ele><time>2026-03-29T07:44:37.283Z</time></trkpt><trkpt lat="45.5435931" lon="10.4561828"><ele>247.0</ele><time>2026-03-29T07:44:38.284Z</time></trkpt><trkpt lat="45.5435948" lon="10.4560448"><ele>247.0</ele><time>2026-03-29T07:44:39.283Z</time></trkpt><trkpt lat="45.5435928" lon="10.4559014"><ele>247.0</ele><time>2026-03-29T07:44:40.283Z</time></trkpt><trkpt lat="45.5435916" lon="10.4557559"><ele>247.0</ele><time>2026-03-29T07:44:41.283Z</time></trkpt><trkpt lat="45.5435901" lon="10.4556187"><ele>247.0</ele><time>2026-03-29T07:44:42.283Z</time></trkpt><trkpt lat="45.5435921" lon="10.455482"><ele>247.0</ele><time>2026-03-29T07:44:43.283Z</time></trkpt><trkpt lat="45.5435969" lon="10.4553435"><ele>247.0</ele><time>2026-03-29T07:44:44.284Z</time></trkpt><trkpt lat="45.5436071" lon="10.4552058"><ele>246.49999999999997</ele><time>2026-03-29T07:44:45.284Z</time></trkpt><trkpt lat="45.5436101" lon="10.4550763"><ele>246.0</ele><time>2026-03-29T07:44:46.284Z</time></trkpt><trkpt lat="45.5436063" lon="10.4549548"><ele>245.5</ele><time>2026-03-29T07:44:47.284Z</time></trkpt><trkpt lat="45.5436065" lon="10.4548434"><ele>245.0</ele><time>2026-03-29T07:44:48.284Z</time></trkpt><trkpt lat="45.5436237" lon="10.4547405"><ele>244.49999999999997</ele><time>2026-03-29T07:44:49.283Z</time></trkpt><trkpt lat="45.5436417" lon="10.4546428"><ele>244.0</ele><time>2026-03-29T07:44:50.283Z</time></trkpt><trkpt lat="45.5436557" lon="10.4545515"><ele>243.33333333333331</ele><time>2026-03-29T07:44:51.283Z</time></trkpt><trkpt lat="45.5436634" lon="10.4544586"><ele>242.66666666666666</ele><time>2026-03-29T07:44:52.284Z</time></trkpt><trkpt lat="45.5436551" lon="10.4543638"><ele>242.0</ele><time>2026-03-29T07:44:53.284Z</time></trkpt><trkpt lat="45.5436402" lon="10.4542701"><ele>241.33333333333331</ele><time>2026-03-29T07:44:54.283Z</time></trkpt><trkpt lat="45.5436217" lon="10.4541776"><ele>240.66666666666666</ele><time>2026-03-29T07:44:55.284Z</time></trkpt><trkpt lat="45.5435921" lon="10.4540164"><ele>240.0</ele><time>2026-03-29T07:44:57.283Z</time></trkpt><trkpt lat="45.5435575" lon="10.4538587"><ele>240.0</ele><time>2026-03-29T07:44:59.284Z</time></trkpt><trkpt lat="45.5435334" lon="10.4537246"><ele>240.0</ele><time>2026-03-29T07:45:01.283Z</time></trkpt><trkpt lat="45.5435312" lon="10.4536164"><ele>240.0</ele><time>2026-03-29T07:45:03.284Z</time></trkpt><trkpt lat="45.5434853" lon="10.4535297"><ele>240.0</ele><time>2026-03-29T07:45:08.284Z</time></trkpt><trkpt lat="45.5434013" lon="10.453461"><ele>240.0</ele><time>2026-03-29T07:45:10.284Z</time></trkpt><trkpt lat="45.5433409" lon="10.4534162"><ele>240.0</ele><time>2026-03-29T07:45:11.284Z</time></trkpt><trkpt lat="45.543284" lon="10.4533555"><ele>240.0</ele><time>2026-03-29T07:45:12.284Z</time></trkpt><trkpt lat="45.5432244" lon="10.4532798"><ele>240.0</ele><time>2026-03-29T07:45:13.284Z</time></trkpt><trkpt lat="45.5431645" lon="10.4531954"><ele>240.0</ele><time>2026-03-29T07:45:14.283Z</time></trkpt><trkpt lat="45.5431075" lon="10.4531046"><ele>240.0</ele><time>2026-03-29T07:45:15.283Z</time></trkpt><trkpt lat="45.54306" lon="10.4529955"><ele>240.0</ele><time>2026-03-29T07:45:16.284Z</time></trkpt><trkpt lat="45.5430229" lon="10.452874"><ele>240.0</ele><time>2026-03-29T07:45:17.284Z</time></trkpt><trkpt lat="45.5429922" lon="10.4527537"><ele>240.0</ele><time>2026-03-29T07:45:18.284Z</time></trkpt><trkpt lat="45.5429736" lon="10.4526426"><ele>240.0</ele><time>2026-03-29T07:45:19.284Z</time></trkpt><trkpt lat="45.5429556" lon="10.4525496"><ele>240.0</ele><time>2026-03-29T07:45:20.283Z</time></trkpt><trkpt lat="45.5429446" lon="10.4523937"><ele>240.0</ele><time>2026-03-29T07:45:22.283Z</time></trkpt><trkpt lat="45.5430018" lon="10.4522481"><ele>240.0</ele><time>2026-03-29T07:45:24.284Z</time></trkpt><trkpt lat="45.5430531" lon="10.4521766"><ele>240.0</ele><time>2026-03-29T07:45:25.284Z</time></trkpt><trkpt lat="45.5431105" lon="10.4521022"><ele>239.33333333333334</ele><time>2026-03-29T07:45:26.284Z</time></trkpt><trkpt lat="45.5431626" lon="10.4520367"><ele>238.66666666666669</ele><time>2026-03-29T07:45:27.284Z</time></trkpt><trkpt lat="45.5432509" lon="10.4519171"><ele>238.0</ele><time>2026-03-29T07:45:29.284Z</time></trkpt><trkpt lat="45.5433002" lon="10.4517755"><ele>237.33333333333334</ele><time>2026-03-29T07:45:31.283Z</time></trkpt><trkpt lat="45.5432964" lon="10.4516781"><ele>236.66666666666669</ele><time>2026-03-29T07:45:32.283Z</time></trkpt><trkpt lat="45.5432802" lon="10.4515673"><ele>236.0</ele><time>2026-03-29T07:45:33.283Z</time></trkpt><trkpt lat="45.543257" lon="10.451447"><ele>236.00000000000003</ele><time>2026-03-29T07:45:34.284Z</time></trkpt><trkpt lat="45.5432354" lon="10.4513355"><ele>236.0</ele><time>2026-03-29T07:45:35.284Z</time></trkpt><trkpt lat="45.5432143" lon="10.4512282"><ele>236.0</ele><time>2026-03-29T07:45:36.283Z</time></trkpt><trkpt lat="45.543199" lon="10.4511264"><ele>236.0</ele><time>2026-03-29T07:45:37.283Z</time></trkpt><trkpt lat="45.5431872" lon="10.4510333"><ele>236.00000000000003</ele><time>2026-03-29T07:45:38.284Z</time></trkpt><trkpt lat="45.5431801" lon="10.450861"><ele>236.0</ele><time>2026-03-29T07:45:40.283Z</time></trkpt><trkpt lat="45.5431858" lon="10.450712"><ele>236.0</ele><time>2026-03-29T07:45:42.284Z</time></trkpt><trkpt lat="45.5431875" lon="10.4505779"><ele>236.00000000000003</ele><time>2026-03-29T07:45:44.284Z</time></trkpt><trkpt lat="45.5431964" lon="10.4504346"><ele>236.00000000000003</ele><time>2026-03-29T07:45:46.284Z</time></trkpt><trkpt lat="45.5432078" lon="10.4502846"><ele>236.0</ele><time>2026-03-29T07:45:48.284Z</time></trkpt><trkpt lat="45.5432363" lon="10.4501441"><ele>236.0</ele><time>2026-03-29T07:45:50.284Z</time></trkpt><trkpt lat="45.5432436" lon="10.4500177"><ele>236.00000000000003</ele><time>2026-03-29T07:45:52.284Z</time></trkpt><trkpt lat="45.5432637" lon="10.4498938"><ele>236.0</ele><time>2026-03-29T07:45:54.284Z</time></trkpt><trkpt lat="45.5432981" lon="10.449783"><ele>236.0</ele><time>2026-03-29T07:45:56.284Z</time></trkpt><trkpt lat="45.5433303" lon="10.4496637"><ele>236.0</ele><time>2026-03-29T07:45:58.283Z</time></trkpt><trkpt lat="45.5433494" lon="10.4495617"><ele>236.00000000000003</ele><time>2026-03-29T07:46:00.283Z</time></trkpt><trkpt lat="45.5433818" lon="10.4494325"><ele>236.0</ele><time>2026-03-29T07:46:03.283Z</time></trkpt><trkpt lat="45.5434027" lon="10.4493296"><ele>235.60000000000002</ele><time>2026-03-29T07:46:05.284Z</time></trkpt><trkpt lat="45.5434336" lon="10.4492333"><ele>235.20000000000002</ele><time>2026-03-29T07:46:07.284Z</time></trkpt><trkpt lat="45.5434797" lon="10.4491264"><ele>234.79999999999998</ele><time>2026-03-29T07:46:09.284Z</time></trkpt><trkpt lat="45.5435161" lon="10.4490091"><ele>234.39999999999998</ele><time>2026-03-29T07:46:11.283Z</time></trkpt><trkpt lat="45.5435385" lon="10.4488751"><ele>234.0</ele><time>2026-03-29T07:46:13.284Z</time></trkpt><trkpt lat="45.5435219" lon="10.4487268"><ele>233.39999999999998</ele><time>2026-03-29T07:46:15.284Z</time></trkpt><trkpt lat="45.543459" lon="10.4485794"><ele>232.79999999999998</ele><time>2026-03-29T07:46:17.284Z</time></trkpt><trkpt lat="45.5434137" lon="10.4485019"><ele>232.20000000000002</ele><time>2026-03-29T07:46:18.284Z</time></trkpt><trkpt lat="45.5433696" lon="10.4484311"><ele>231.60000000000002</ele><time>2026-03-29T07:46:19.283Z</time></trkpt><trkpt lat="45.5432824" lon="10.4482984"><ele>231.0</ele><time>2026-03-29T07:46:21.283Z</time></trkpt><trkpt lat="45.5432279" lon="10.4482238"><ele>231.0</ele><time>2026-03-29T07:46:22.283Z</time></trkpt><trkpt lat="45.5431769" lon="10.4481619"><ele>231.00000000000003</ele><time>2026-03-29T07:46:23.283Z</time></trkpt><trkpt lat="45.5430823" lon="10.4480649"><ele>231.00000000000003</ele><time>2026-03-29T07:46:25.284Z</time></trkpt><trkpt lat="45.5429966" lon="10.4479639"><ele>231.0</ele><time>2026-03-29T07:46:27.283Z</time></trkpt><trkpt lat="45.5429296" lon="10.4478371"><ele>231.0</ele><time>2026-03-29T07:46:29.283Z</time></trkpt><trkpt lat="45.542907" lon="10.4477032"><ele>230.33333333333334</ele><time>2026-03-29T07:46:31.283Z</time></trkpt><trkpt lat="45.5429398" lon="10.4475885"><ele>229.66666666666669</ele><time>2026-03-29T07:46:33.283Z</time></trkpt><trkpt lat="45.542999" lon="10.4474498"><ele>229.0</ele><time>2026-03-29T07:46:35.283Z</time></trkpt><trkpt lat="45.5430462" lon="10.4473569"><ele>228.33333333333334</ele><time>2026-03-29T07:46:36.283Z</time></trkpt><trkpt lat="45.5430979" lon="10.447279"><ele>227.66666666666669</ele><time>2026-03-29T07:46:37.283Z</time></trkpt><trkpt lat="45.5431483" lon="10.4472068"><ele>227.0</ele><time>2026-03-29T07:46:38.284Z</time></trkpt><trkpt lat="45.5432339" lon="10.4471043"><ele>227.0</ele><time>2026-03-29T07:46:40.283Z</time></trkpt><trkpt lat="45.543304" lon="10.4470316"><ele>227.0</ele><time>2026-03-29T07:46:42.284Z</time></trkpt><trkpt lat="45.5433816" lon="10.4469204"><ele>227.0</ele><time>2026-03-29T07:46:44.284Z</time></trkpt><trkpt lat="45.5434579" lon="10.4467905"><ele>227.0</ele><time>2026-03-29T07:46:46.284Z</time></trkpt><trkpt lat="45.5434977" lon="10.4467144"><ele>227.0</ele><time>2026-03-29T07:46:47.283Z</time></trkpt><trkpt lat="45.5435574" lon="10.4465641"><ele>227.0</ele><time>2026-03-29T07:46:49.284Z</time></trkpt><trkpt lat="45.543604" lon="10.4464616"><ele>227.0</ele><time>2026-03-29T07:46:51.283Z</time></trkpt><trkpt lat="45.5436398" lon="10.4463813"><ele>227.0</ele><time>2026-03-29T07:46:55.283Z</time></trkpt><trkpt lat="45.5435962" lon="10.446188"><ele>227.0</ele><time>2026-03-29T07:47:04.284Z</time></trkpt><trkpt lat="45.543543" lon="10.4460431"><ele>227.0</ele><time>2026-03-29T07:47:05.283Z</time></trkpt><trkpt lat="45.5434814" lon="10.4458928"><ele>227.5</ele><time>2026-03-29T07:47:06.283Z</time></trkpt><trkpt lat="45.5434151" lon="10.4457361"><ele>228.0</ele><time>2026-03-29T07:47:07.284Z</time></trkpt><trkpt lat="45.543353" lon="10.4455872"><ele>228.5</ele><time>2026-03-29T07:47:08.284Z</time></trkpt><trkpt lat="45.5432885" lon="10.4454411"><ele>229.0</ele><time>2026-03-29T07:47:09.284Z</time></trkpt><trkpt lat="45.5432141" lon="10.4452878"><ele>229.5</ele><time>2026-03-29T07:47:10.283Z</time></trkpt><trkpt lat="45.5431406" lon="10.4451358"><ele>230.0</ele><time>2026-03-29T07:47:11.283Z</time></trkpt><trkpt lat="45.543066" lon="10.4449781"><ele>230.5</ele><time>2026-03-29T07:47:12.284Z</time></trkpt><trkpt lat="45.5429843" lon="10.4448088"><ele>231.0</ele><time>2026-03-29T07:47:13.284Z</time></trkpt><trkpt lat="45.5429089" lon="10.4446378"><ele>229.75</ele><time>2026-03-29T07:47:14.284Z</time></trkpt><trkpt lat="45.5428393" lon="10.4444751"><ele>228.5</ele><time>2026-03-29T07:47:15.283Z</time></trkpt><trkpt lat="45.5427811" lon="10.4443255"><ele>227.25</ele><time>2026-03-29T07:47:16.283Z</time></trkpt><trkpt lat="45.5427202" lon="10.4441853"><ele>226.0</ele><time>2026-03-29T07:47:17.283Z</time></trkpt><trkpt lat="45.5426667" lon="10.4440529"><ele>226.0</ele><time>2026-03-29T07:47:18.284Z</time></trkpt><trkpt lat="45.5426046" lon="10.4439349"><ele>226.00000000000003</ele><time>2026-03-29T07:47:19.283Z</time></trkpt><trkpt lat="45.5425353" lon="10.4438326"><ele>226.00000000000003</ele><time>2026-03-29T07:47:20.283Z</time></trkpt><trkpt lat="45.5424634" lon="10.4437493"><ele>226.0</ele><time>2026-03-29T07:47:21.284Z</time></trkpt><trkpt lat="45.54239" lon="10.4436811"><ele>226.0</ele><time>2026-03-29T07:47:22.283Z</time></trkpt><trkpt lat="45.5423102" lon="10.4436275"><ele>224.33333333333331</ele><time>2026-03-29T07:47:23.283Z</time></trkpt><trkpt lat="45.5422259" lon="10.4435864"><ele>222.66666666666666</ele><time>2026-03-29T07:47:24.283Z</time></trkpt><trkpt lat="45.5421385" lon="10.4435586"><ele>221.0</ele><time>2026-03-29T07:47:25.283Z</time></trkpt><trkpt lat="45.5420564" lon="10.443533"><ele>219.33333333333331</ele><time>2026-03-29T07:47:26.284Z</time></trkpt><trkpt lat="45.5419691" lon="10.4435226"><ele>217.66666666666666</ele><time>2026-03-29T07:47:27.284Z</time></trkpt><trkpt lat="45.5419036" lon="10.4435125"><ele>216.0</ele><time>2026-03-29T07:47:28.283Z</time></trkpt><trkpt lat="45.5418208" lon="10.4434904"><ele>216.0</ele><time>2026-03-29T07:47:30.284Z</time></trkpt><trkpt lat="45.5417351" lon="10.4435552"><ele>216.00000000000003</ele><time>2026-03-29T07:47:33.284Z</time></trkpt><trkpt lat="45.5417024" lon="10.4437242"><ele>216.00000000000003</ele><time>2026-03-29T07:47:35.283Z</time></trkpt><trkpt lat="45.5416823" lon="10.4438407"><ele>216.0</ele><time>2026-03-29T07:47:36.284Z</time></trkpt><trkpt lat="45.5416528" lon="10.4439718"><ele>216.0</ele><time>2026-03-29T07:47:37.283Z</time></trkpt><trkpt lat="45.5416182" lon="10.4441095"><ele>217.4</ele><time>2026-03-29T07:47:38.283Z</time></trkpt><trkpt lat="45.541589" lon="10.4442495"><ele>218.8</ele><time>2026-03-29T07:47:39.284Z</time></trkpt><trkpt lat="45.5415567" lon="10.4443903"><ele>220.20000000000002</ele><time>2026-03-29T07:47:40.284Z</time></trkpt><trkpt lat="45.5415163" lon="10.4445278"><ele>221.60000000000002</ele><time>2026-03-29T07:47:41.284Z</time></trkpt><trkpt lat="45.5414808" lon="10.4446708"><ele>223.0</ele><time>2026-03-29T07:47:42.283Z</time></trkpt><trkpt lat="45.5414429" lon="10.4448187"><ele>223.4</ele><time>2026-03-29T07:47:43.284Z</time></trkpt><trkpt lat="45.541408" lon="10.4449624"><ele>223.8</ele><time>2026-03-29T07:47:44.284Z</time></trkpt><trkpt lat="45.5413791" lon="10.4451"><ele>224.2</ele><time>2026-03-29T07:47:45.283Z</time></trkpt><trkpt lat="45.5413487" lon="10.4452307"><ele>224.6</ele><time>2026-03-29T07:47:46.283Z</time></trkpt><trkpt lat="45.5413194" lon="10.4453462"><ele>225.0</ele><time>2026-03-29T07:47:47.283Z</time></trkpt><trkpt lat="45.5412941" lon="10.4454518"><ele>224.8</ele><time>2026-03-29T07:47:48.284Z</time></trkpt><trkpt lat="45.5412696" lon="10.4455537"><ele>224.6</ele><time>2026-03-29T07:47:49.284Z</time></trkpt><trkpt lat="45.5412422" lon="10.4456489"><ele>224.39999999999998</ele><time>2026-03-29T07:47:50.284Z</time></trkpt><trkpt lat="45.5411552" lon="10.4457703"><ele>224.2</ele><time>2026-03-29T07:47:52.283Z</time></trkpt><trkpt lat="45.5410194" lon="10.4458007"><ele>224.0</ele><time>2026-03-29T07:47:54.284Z</time></trkpt><trkpt lat="45.5409139" lon="10.4457824"><ele>224.0</ele><time>2026-03-29T07:47:55.283Z</time></trkpt><trkpt lat="45.5408031" lon="10.4457407"><ele>224.0</ele><time>2026-03-29T07:47:56.284Z</time></trkpt><trkpt lat="45.5406851" lon="10.4456898"><ele>224.0</ele><time>2026-03-29T07:47:57.283Z</time></trkpt><trkpt lat="45.5405677" lon="10.445639"><ele>224.0</ele><time>2026-03-29T07:47:58.283Z</time></trkpt><trkpt lat="45.5404529" lon="10.4455885"><ele>223.5</ele><time>2026-03-29T07:47:59.284Z</time></trkpt><trkpt lat="45.5403396" lon="10.4455497"><ele>223.0</ele><time>2026-03-29T07:48:00.283Z</time></trkpt><trkpt lat="45.5402222" lon="10.4455163"><ele>222.5</ele><time>2026-03-29T07:48:01.283Z</time></trkpt><trkpt lat="45.5401023" lon="10.445496"><ele>222.0</ele><time>2026-03-29T07:48:02.283Z</time></trkpt><trkpt lat="45.5400038" lon="10.445459"><ele>221.83333333333334</ele><time>2026-03-29T07:48:03.284Z</time></trkpt><trkpt lat="45.5399238" lon="10.445418"><ele>221.66666666666669</ele><time>2026-03-29T07:48:04.283Z</time></trkpt><trkpt lat="45.5398559" lon="10.4453875"><ele>221.5</ele><time>2026-03-29T07:48:05.283Z</time></trkpt><trkpt lat="45.5397699" lon="10.4453516"><ele>221.33333333333334</ele><time>2026-03-29T07:48:07.283Z</time></trkpt><trkpt lat="45.539681" lon="10.445356"><ele>221.16666666666669</ele><time>2026-03-29T07:48:11.283Z</time></trkpt><trkpt lat="45.5395842" lon="10.4453133"><ele>221.0</ele><time>2026-03-29T07:48:13.283Z</time></trkpt><trkpt lat="45.5395205" lon="10.4452875"><ele>220.66666666666669</ele><time>2026-03-29T07:48:14.284Z</time></trkpt><trkpt lat="45.539454" lon="10.4452586"><ele>220.33333333333334</ele><time>2026-03-29T07:48:15.284Z</time></trkpt><trkpt lat="45.5393834" lon="10.4452188"><ele>220.0</ele><time>2026-03-29T07:48:16.284Z</time></trkpt><trkpt lat="45.5393044" lon="10.445176"><ele>219.66666666666669</ele><time>2026-03-29T07:48:17.284Z</time></trkpt><trkpt lat="45.5392121" lon="10.4451436"><ele>219.33333333333334</ele><time>2026-03-29T07:48:18.283Z</time></trkpt><trkpt lat="45.5391303" lon="10.4451165"><ele>219.0</ele><time>2026-03-29T07:48:19.284Z</time></trkpt><trkpt lat="45.5390556" lon="10.4450916"><ele>219.0</ele><time>2026-03-29T07:48:20.283Z</time></trkpt><trkpt lat="45.5389903" lon="10.4450465"><ele>219.0</ele><time>2026-03-29T07:48:21.284Z</time></trkpt><trkpt lat="45.5389289" lon="10.4449883"><ele>219.0</ele><time>2026-03-29T07:48:22.284Z</time></trkpt><trkpt lat="45.5388175" lon="10.4449218"><ele>219.0</ele><time>2026-03-29T07:48:24.284Z</time></trkpt><trkpt lat="45.5387407" lon="10.4449266"><ele>219.0</ele><time>2026-03-29T07:48:25.283Z</time></trkpt><trkpt lat="45.5386544" lon="10.4449225"><ele>219.0</ele><time>2026-03-29T07:48:26.284Z</time></trkpt><trkpt lat="45.5385545" lon="10.4449057"><ele>219.5</ele><time>2026-03-29T07:48:27.284Z</time></trkpt><trkpt lat="45.5384383" lon="10.4448753"><ele>220.0</ele><time>2026-03-29T07:48:28.283Z</time></trkpt><trkpt lat="45.5383248" lon="10.4448351"><ele>220.5</ele><time>2026-03-29T07:48:29.283Z</time></trkpt><trkpt lat="45.5382204" lon="10.4447934"><ele>221.0</ele><time>2026-03-29T07:48:30.283Z</time></trkpt><trkpt lat="45.5381138" lon="10.4447514"><ele>221.0</ele><time>2026-03-29T07:48:31.284Z</time></trkpt><trkpt lat="45.5380016" lon="10.444717"><ele>221.0</ele><time>2026-03-29T07:48:32.283Z</time></trkpt><trkpt lat="45.5378764" lon="10.4446804"><ele>221.0</ele><time>2026-03-29T07:48:33.283Z</time></trkpt><trkpt lat="45.5377435" lon="10.4446357"><ele>221.0</ele><time>2026-03-29T07:48:34.284Z</time></trkpt><trkpt lat="45.537616" lon="10.4445817"><ele>220.25</ele><time>2026-03-29T07:48:35.283Z</time></trkpt><trkpt lat="45.5374809" lon="10.4445291"><ele>219.5</ele><time>2026-03-29T07:48:36.283Z</time></trkpt><trkpt lat="45.5373425" lon="10.4444768"><ele>218.75</ele><time>2026-03-29T07:48:37.284Z</time></trkpt><trkpt lat="45.5372031" lon="10.4444333"><ele>218.0</ele><time>2026-03-29T07:48:38.284Z</time></trkpt><trkpt lat="45.5370613" lon="10.4443918"><ele>217.5</ele><time>2026-03-29T07:48:39.283Z</time></trkpt><trkpt lat="45.5369216" lon="10.4443545"><ele>217.0</ele><time>2026-03-29T07:48:40.283Z</time></trkpt><trkpt lat="45.5367801" lon="10.4443312"><ele>216.5</ele><time>2026-03-29T07:48:41.284Z</time></trkpt><trkpt lat="45.5366295" lon="10.444324"><ele>216.0</ele><time>2026-03-29T07:48:42.284Z</time></trkpt><trkpt lat="45.5364762" lon="10.44432"><ele>216.0</ele><time>2026-03-29T07:48:43.284Z</time></trkpt><trkpt lat="45.5363235" lon="10.4443248"><ele>216.0</ele><time>2026-03-29T07:48:44.284Z</time></trkpt><trkpt lat="45.5361747" lon="10.4443364"><ele>216.0</ele><time>2026-03-29T07:48:45.283Z</time></trkpt><trkpt lat="45.5360212" lon="10.4443528"><ele>214.66666666666669</ele><time>2026-03-29T07:48:46.284Z</time></trkpt><trkpt lat="45.5358688" lon="10.4443704"><ele>213.33333333333334</ele><time>2026-03-29T07:48:47.283Z</time></trkpt><trkpt lat="45.5357181" lon="10.4443899"><ele>212.0</ele><time>2026-03-29T07:48:48.284Z</time></trkpt><trkpt lat="45.5355696" lon="10.4444024"><ele>212.0</ele><time>2026-03-29T07:48:49.283Z</time></trkpt><trkpt lat="45.5354232" lon="10.4444104"><ele>212.0</ele><time>2026-03-29T07:48:50.284Z</time></trkpt><trkpt lat="45.5352823" lon="10.4443984"><ele>212.0</ele><time>2026-03-29T07:48:51.284Z</time></trkpt><trkpt lat="45.5351423" lon="10.4443706"><ele>212.0</ele><time>2026-03-29T07:48:52.284Z</time></trkpt><trkpt lat="45.5350012" lon="10.4443184"><ele>211.75</ele><time>2026-03-29T07:48:53.284Z</time></trkpt><trkpt lat="45.5348553" lon="10.4442545"><ele>211.5</ele><time>2026-03-29T07:48:54.284Z</time></trkpt><trkpt lat="45.5347168" lon="10.4441776"><ele>211.25</ele><time>2026-03-29T07:48:55.284Z</time></trkpt><trkpt lat="45.5345855" lon="10.4440943"><ele>211.0</ele><time>2026-03-29T07:48:56.283Z</time></trkpt><trkpt lat="45.5344597" lon="10.444016"><ele>211.0</ele><time>2026-03-29T07:48:57.284Z</time></trkpt><trkpt lat="45.534327" lon="10.4439544"><ele>211.0</ele><time>2026-03-29T07:48:58.283Z</time></trkpt><trkpt lat="45.5341871" lon="10.4439172"><ele>211.0</ele><time>2026-03-29T07:48:59.284Z</time></trkpt><trkpt lat="45.5340466" lon="10.4439003"><ele>211.0</ele><time>2026-03-29T07:49:00.284Z</time></trkpt><trkpt lat="45.5339084" lon="10.4438968"><ele>211.0</ele><time>2026-03-29T07:49:01.284Z</time></trkpt><trkpt lat="45.5337689" lon="10.4438897"><ele>211.0</ele><time>2026-03-29T07:49:02.284Z</time></trkpt><trkpt lat="45.5336164" lon="10.4438793"><ele>211.0</ele><time>2026-03-29T07:49:03.284Z</time></trkpt><trkpt lat="45.5334535" lon="10.4438713"><ele>210.66666666666666</ele><time>2026-03-29T07:49:04.284Z</time></trkpt><trkpt lat="45.5332846" lon="10.4438644"><ele>210.33333333333331</ele><time>2026-03-29T07:49:05.284Z</time></trkpt><trkpt lat="45.5331267" lon="10.4438658"><ele>210.0</ele><time>2026-03-29T07:49:06.283Z</time></trkpt><trkpt lat="45.5329612" lon="10.4438573"><ele>210.33333333333331</ele><time>2026-03-29T07:49:07.284Z</time></trkpt><trkpt lat="45.532808" lon="10.4438511"><ele>210.66666666666666</ele><time>2026-03-29T07:49:08.284Z</time></trkpt><trkpt lat="45.5326548" lon="10.4438421"><ele>211.0</ele><time>2026-03-29T07:49:09.283Z</time></trkpt><trkpt lat="45.5324931" lon="10.443831"><ele>211.0</ele><time>2026-03-29T07:49:10.284Z</time></trkpt><trkpt lat="45.5323381" lon="10.4438094"><ele>211.0</ele><time>2026-03-29T07:49:11.284Z</time></trkpt><trkpt lat="45.5321812" lon="10.4437874"><ele>211.0</ele><time>2026-03-29T07:49:12.284Z</time></trkpt><trkpt lat="45.5320368" lon="10.4437576"><ele>210.5</ele><time>2026-03-29T07:49:13.284Z</time></trkpt><trkpt lat="45.5318937" lon="10.4437358"><ele>210.0</ele><time>2026-03-29T07:49:14.283Z</time></trkpt><trkpt lat="45.5317575" lon="10.4436991"><ele>209.5</ele><time>2026-03-29T07:49:15.283Z</time></trkpt><trkpt lat="45.5316228" lon="10.4436749"><ele>209.0</ele><time>2026-03-29T07:49:16.283Z</time></trkpt><trkpt lat="45.5314958" lon="10.4436417"><ele>209.0</ele><time>2026-03-29T07:49:17.284Z</time></trkpt><trkpt lat="45.5313734" lon="10.4436049"><ele>209.0</ele><time>2026-03-29T07:49:18.283Z</time></trkpt><trkpt lat="45.5312572" lon="10.4435737"><ele>209.0</ele><time>2026-03-29T07:49:19.284Z</time></trkpt><trkpt lat="45.5311434" lon="10.4435472"><ele>209.0</ele><time>2026-03-29T07:49:20.284Z</time></trkpt><trkpt lat="45.531038" lon="10.443519"><ele>209.00000000000003</ele><time>2026-03-29T07:49:21.284Z</time></trkpt><trkpt lat="45.5309415" lon="10.4434795"><ele>209.0</ele><time>2026-03-29T07:49:22.283Z</time></trkpt><trkpt lat="45.5308562" lon="10.4434312"><ele>209.0</ele><time>2026-03-29T07:49:23.284Z</time></trkpt><trkpt lat="45.5307888" lon="10.4433614"><ele>209.0</ele><time>2026-03-29T07:49:24.283Z</time></trkpt><trkpt lat="45.5307306" lon="10.4432789"><ele>209.00000000000003</ele><time>2026-03-29T07:49:25.284Z</time></trkpt><trkpt lat="45.5306764" lon="10.4431878"><ele>209.0</ele><time>2026-03-29T07:49:26.284Z</time></trkpt><trkpt lat="45.5306187" lon="10.443115"><ele>209.00000000000003</ele><time>2026-03-29T07:49:27.284Z</time></trkpt><trkpt lat="45.5305556" lon="10.4430719"><ele>209.0</ele><time>2026-03-29T07:49:28.284Z</time></trkpt><trkpt lat="45.5304922" lon="10.4430631"><ele>209.0</ele><time>2026-03-29T07:49:29.283Z</time></trkpt><trkpt lat="45.5304315" lon="10.4430872"><ele>209.0</ele><time>2026-03-29T07:49:30.284Z</time></trkpt><trkpt lat="45.5303766" lon="10.443258"><ele>209.00000000000003</ele><time>2026-03-29T07:49:32.284Z</time></trkpt><trkpt lat="45.5303863" lon="10.4433808"><ele>209.0</ele><time>2026-03-29T07:49:33.283Z</time></trkpt><trkpt lat="45.5304156" lon="10.4435003"><ele>209.0</ele><time>2026-03-29T07:49:34.284Z</time></trkpt><trkpt lat="45.5304617" lon="10.4436361"><ele>209.0</ele><time>2026-03-29T07:49:35.283Z</time></trkpt><trkpt lat="45.5305029" lon="10.4437798"><ele>209.0</ele><time>2026-03-29T07:49:36.284Z</time></trkpt><trkpt lat="45.5305225" lon="10.4439303"><ele>209.0</ele><time>2026-03-29T07:49:37.284Z</time></trkpt><trkpt lat="45.5305263" lon="10.4440847"><ele>209.0</ele><time>2026-03-29T07:49:38.283Z</time></trkpt><trkpt lat="45.5305118" lon="10.4442514"><ele>209.0</ele><time>2026-03-29T07:49:39.284Z</time></trkpt><trkpt lat="45.5304828" lon="10.4444129"><ele>209.0</ele><time>2026-03-29T07:49:40.283Z</time></trkpt><trkpt lat="45.5304497" lon="10.4445889"><ele>209.0</ele><time>2026-03-29T07:49:41.284Z</time></trkpt><trkpt lat="45.530411" lon="10.4447762"><ele>209.0</ele><time>2026-03-29T07:49:42.283Z</time></trkpt><trkpt lat="45.5303705" lon="10.4449723"><ele>210.0</ele><time>2026-03-29T07:49:43.283Z</time></trkpt><trkpt lat="45.5303315" lon="10.4451696"><ele>211.0</ele><time>2026-03-29T07:49:44.284Z</time></trkpt><trkpt lat="45.5302956" lon="10.4453697"><ele>212.0</ele><time>2026-03-29T07:49:45.284Z</time></trkpt><trkpt lat="45.530263" lon="10.4455712"><ele>213.0</ele><time>2026-03-29T07:49:46.284Z</time></trkpt><trkpt lat="45.5302225" lon="10.4457822"><ele>213.0</ele><time>2026-03-29T07:49:47.284Z</time></trkpt><trkpt lat="45.530183" lon="10.445983"><ele>213.0</ele><time>2026-03-29T07:49:48.283Z</time></trkpt><trkpt lat="45.5301461" lon="10.4461814"><ele>213.0</ele><time>2026-03-29T07:49:49.283Z</time></trkpt><trkpt lat="45.53011" lon="10.4463725"><ele>213.0</ele><time>2026-03-29T07:49:50.284Z</time></trkpt><trkpt lat="45.5300693" lon="10.4465503"><ele>212.75</ele><time>2026-03-29T07:49:51.284Z</time></trkpt><trkpt lat="45.5300127" lon="10.4467245"><ele>212.5</ele><time>2026-03-29T07:49:52.284Z</time></trkpt><trkpt lat="45.5299471" lon="10.4468938"><ele>212.25</ele><time>2026-03-29T07:49:53.283Z</time></trkpt><trkpt lat="45.5298663" lon="10.4470488"><ele>212.0</ele><time>2026-03-29T07:49:54.284Z</time></trkpt><trkpt lat="45.5297846" lon="10.447178"><ele>211.5</ele><time>2026-03-29T07:49:55.283Z</time></trkpt><trkpt lat="45.5296945" lon="10.4472839"><ele>211.0</ele><time>2026-03-29T07:49:56.282Z</time></trkpt><trkpt lat="45.5295969" lon="10.4473711"><ele>210.5</ele><time>2026-03-29T07:49:57.282Z</time></trkpt><trkpt lat="45.5294853" lon="10.4474544"><ele>210.0</ele><time>2026-03-29T07:49:58.282Z</time></trkpt><trkpt lat="45.5293677" lon="10.4475318"><ele>209.25</ele><time>2026-03-29T07:49:59.283Z</time></trkpt><trkpt lat="45.5292477" lon="10.4476197"><ele>208.5</ele><time>2026-03-29T07:50:00.282Z</time></trkpt><trkpt lat="45.5291179" lon="10.4477163"><ele>207.75</ele><time>2026-03-29T07:50:01.283Z</time></trkpt><trkpt lat="45.5289912" lon="10.4478346"><ele>207.0</ele><time>2026-03-29T07:50:02.282Z</time></trkpt><trkpt lat="45.5288594" lon="10.4479839"><ele>207.0</ele><time>2026-03-29T07:50:03.283Z</time></trkpt><trkpt lat="45.5287441" lon="10.4481283"><ele>207.0</ele><time>2026-03-29T07:50:04.282Z</time></trkpt><trkpt lat="45.5286442" lon="10.4482986"><ele>207.0</ele><time>2026-03-29T07:50:05.282Z</time></trkpt><trkpt lat="45.5285654" lon="10.4484811"><ele>207.33333333333331</ele><time>2026-03-29T07:50:06.283Z</time></trkpt><trkpt lat="45.5285101" lon="10.4486851"><ele>207.66666666666666</ele><time>2026-03-29T07:50:07.282Z</time></trkpt><trkpt lat="45.5284823" lon="10.4488982"><ele>208.0</ele><time>2026-03-29T07:50:08.282Z</time></trkpt><trkpt lat="45.5284762" lon="10.4491097"><ele>208.0</ele><time>2026-03-29T07:50:09.282Z</time></trkpt><trkpt lat="45.528491" lon="10.4493222"><ele>208.0</ele><time>2026-03-29T07:50:10.283Z</time></trkpt><trkpt lat="45.5285155" lon="10.4495327"><ele>208.0</ele><time>2026-03-29T07:50:11.282Z</time></trkpt><trkpt lat="45.528531" lon="10.4497391"><ele>208.0</ele><time>2026-03-29T07:50:12.282Z</time></trkpt><trkpt lat="45.5285292" lon="10.4499413"><ele>208.0</ele><time>2026-03-29T07:50:13.282Z</time></trkpt><trkpt lat="45.5285175" lon="10.4501426"><ele>208.0</ele><time>2026-03-29T07:50:14.282Z</time></trkpt><trkpt lat="45.5284926" lon="10.4503482"><ele>208.0</ele><time>2026-03-29T07:50:15.283Z</time></trkpt><trkpt lat="45.5284459" lon="10.450553"><ele>208.0</ele><time>2026-03-29T07:50:16.283Z</time></trkpt><trkpt lat="45.5283746" lon="10.4507519"><ele>208.0</ele><time>2026-03-29T07:50:17.283Z</time></trkpt><trkpt lat="45.5283002" lon="10.4509294"><ele>208.0</ele><time>2026-03-29T07:50:18.283Z</time></trkpt><trkpt lat="45.5282097" lon="10.451092"><ele>208.0</ele><time>2026-03-29T07:50:19.283Z</time></trkpt><trkpt lat="45.5281031" lon="10.4512415"><ele>208.0</ele><time>2026-03-29T07:50:20.282Z</time></trkpt><trkpt lat="45.5279942" lon="10.451377"><ele>208.0</ele><time>2026-03-29T07:50:21.282Z</time></trkpt><trkpt lat="45.5278934" lon="10.451494"><ele>208.0</ele><time>2026-03-29T07:50:22.283Z</time></trkpt><trkpt lat="45.5278047" lon="10.4516005"><ele>208.0</ele><time>2026-03-29T07:50:23.283Z</time></trkpt><trkpt lat="45.5277169" lon="10.451712"><ele>208.0</ele><time>2026-03-29T07:50:24.283Z</time></trkpt><trkpt lat="45.5276288" lon="10.4518317"><ele>208.0</ele><time>2026-03-29T07:50:25.283Z</time></trkpt><trkpt lat="45.5275401" lon="10.4519696"><ele>208.0</ele><time>2026-03-29T07:50:26.282Z</time></trkpt><trkpt lat="45.52745" lon="10.4521176"><ele>208.0</ele><time>2026-03-29T07:50:27.283Z</time></trkpt><trkpt lat="45.5273682" lon="10.452274"><ele>208.0</ele><time>2026-03-29T07:50:28.282Z</time></trkpt><trkpt lat="45.5272938" lon="10.4524348"><ele>207.60000000000002</ele><time>2026-03-29T07:50:29.282Z</time></trkpt><trkpt lat="45.5272288" lon="10.4525776"><ele>207.20000000000002</ele><time>2026-03-29T07:50:30.283Z</time></trkpt><trkpt lat="45.5271776" lon="10.4527067"><ele>206.8</ele><time>2026-03-29T07:50:31.283Z</time></trkpt><trkpt lat="45.5271265" lon="10.4528248"><ele>206.4</ele><time>2026-03-29T07:50:32.282Z</time></trkpt><trkpt lat="45.5270739" lon="10.4529251"><ele>206.0</ele><time>2026-03-29T07:50:33.283Z</time></trkpt><trkpt lat="45.5270215" lon="10.4530176"><ele>206.0</ele><time>2026-03-29T07:50:34.282Z</time></trkpt><trkpt lat="45.5269714" lon="10.4531079"><ele>206.0</ele><time>2026-03-29T07:50:35.282Z</time></trkpt><trkpt lat="45.5269216" lon="10.45319"><ele>206.0</ele><time>2026-03-29T07:50:36.283Z</time></trkpt><trkpt lat="45.5268499" lon="10.4532852"><ele>206.0</ele><time>2026-03-29T07:50:37.283Z</time></trkpt><trkpt lat="45.5267869" lon="10.4534016"><ele>206.0</ele><time>2026-03-29T07:50:38.283Z</time></trkpt><trkpt lat="45.5267268" lon="10.4535227"><ele>206.0</ele><time>2026-03-29T07:50:39.282Z</time></trkpt><trkpt lat="45.5266554" lon="10.4536485"><ele>206.0</ele><time>2026-03-29T07:50:40.283Z</time></trkpt><trkpt lat="45.5265646" lon="10.453784"><ele>206.0</ele><time>2026-03-29T07:50:41.283Z</time></trkpt><trkpt lat="45.5264861" lon="10.4539155"><ele>206.0</ele><time>2026-03-29T07:50:42.282Z</time></trkpt><trkpt lat="45.5264158" lon="10.454063"><ele>205.75</ele><time>2026-03-29T07:50:43.283Z</time></trkpt><trkpt lat="45.526348" lon="10.4542222"><ele>205.5</ele><time>2026-03-29T07:50:44.282Z</time></trkpt><trkpt lat="45.5262864" lon="10.4543784"><ele>205.25</ele><time>2026-03-29T07:50:45.283Z</time></trkpt><trkpt lat="45.5262322" lon="10.4545496"><ele>205.0</ele><time>2026-03-29T07:50:46.282Z</time></trkpt><trkpt lat="45.5261741" lon="10.4547365"><ele>205.0</ele><time>2026-03-29T07:50:47.283Z</time></trkpt><trkpt lat="45.5261132" lon="10.4549159"><ele>205.0</ele><time>2026-03-29T07:50:48.282Z</time></trkpt><trkpt lat="45.5260514" lon="10.4550989"><ele>205.0</ele><time>2026-03-29T07:50:49.282Z</time></trkpt><trkpt lat="45.5259859" lon="10.4552706"><ele>205.0</ele><time>2026-03-29T07:50:50.283Z</time></trkpt><trkpt lat="45.5259272" lon="10.455439"><ele>205.0</ele><time>2026-03-29T07:50:51.283Z</time></trkpt><trkpt lat="45.5258653" lon="10.4555978"><ele>205.0</ele><time>2026-03-29T07:50:52.282Z</time></trkpt><trkpt lat="45.5258096" lon="10.4557593"><ele>205.0</ele><time>2026-03-29T07:50:53.283Z</time></trkpt><trkpt lat="45.5257514" lon="10.4559248"><ele>205.0</ele><time>2026-03-29T07:50:54.283Z</time></trkpt><trkpt lat="45.5257009" lon="10.4560841"><ele>205.0</ele><time>2026-03-29T07:50:55.282Z</time></trkpt><trkpt lat="45.5256531" lon="10.4562406"><ele>205.0</ele><time>2026-03-29T07:50:56.282Z</time></trkpt><trkpt lat="45.5256107" lon="10.456381"><ele>205.0</ele><time>2026-03-29T07:50:57.283Z</time></trkpt><trkpt lat="45.5255656" lon="10.4565026"><ele>205.0</ele><time>2026-03-29T07:50:58.283Z</time></trkpt><trkpt lat="45.5255232" lon="10.4566079"><ele>205.0</ele><time>2026-03-29T07:50:59.283Z</time></trkpt><trkpt lat="45.5254823" lon="10.4566954"><ele>204.99999999999997</ele><time>2026-03-29T07:51:00.282Z</time></trkpt><trkpt lat="45.5254354" lon="10.4567602"><ele>205.0</ele><time>2026-03-29T07:51:01.283Z</time></trkpt><trkpt lat="45.5253774" lon="10.4567992"><ele>205.0</ele><time>2026-03-29T07:51:02.283Z</time></trkpt><trkpt lat="45.5252637" lon="10.4568485"><ele>205.0</ele><time>2026-03-29T07:51:04.283Z</time></trkpt><trkpt lat="45.525172" lon="10.4569375"><ele>204.99999999999997</ele><time>2026-03-29T07:51:06.282Z</time></trkpt><trkpt lat="45.5251253" lon="10.4569979"><ele>205.0</ele><time>2026-03-29T07:51:07.282Z</time></trkpt><trkpt lat="45.5250839" lon="10.4570914"><ele>204.6</ele><time>2026-03-29T07:51:08.282Z</time></trkpt><trkpt lat="45.5250393" lon="10.4571795"><ele>204.2</ele><time>2026-03-29T07:51:09.282Z</time></trkpt><trkpt lat="45.5249705" lon="10.4572992"><ele>203.8</ele><time>2026-03-29T07:51:11.282Z</time></trkpt><trkpt lat="45.5249173" lon="10.4573596"><ele>203.4</ele><time>2026-03-29T07:51:14.282Z</time></trkpt><trkpt lat="45.5248023" lon="10.4573553"><ele>203.0</ele><time>2026-03-29T07:51:17.283Z</time></trkpt><trkpt lat="45.5246978" lon="10.4573262"><ele>203.00000000000003</ele><time>2026-03-29T07:51:19.283Z</time></trkpt><trkpt lat="45.5245931" lon="10.4573063"><ele>203.0</ele><time>2026-03-29T07:51:21.282Z</time></trkpt><trkpt lat="45.5245302" lon="10.4572977"><ele>203.0</ele><time>2026-03-29T07:51:22.283Z</time></trkpt><trkpt lat="45.5244627" lon="10.4572902"><ele>203.0</ele><time>2026-03-29T07:51:23.282Z</time></trkpt><trkpt lat="45.5243864" lon="10.457272"><ele>203.00000000000003</ele><time>2026-03-29T07:51:24.283Z</time></trkpt><trkpt lat="45.5242993" lon="10.4572537"><ele>203.0</ele><time>2026-03-29T07:51:25.283Z</time></trkpt><trkpt lat="45.524203" lon="10.457243"><ele>202.60000000000002</ele><time>2026-03-29T07:51:26.282Z</time></trkpt><trkpt lat="45.5241017" lon="10.4572328"><ele>202.20000000000002</ele><time>2026-03-29T07:51:27.283Z</time></trkpt><trkpt lat="45.5239877" lon="10.4572206"><ele>201.8</ele><time>2026-03-29T07:51:28.282Z</time></trkpt><trkpt lat="45.5238756" lon="10.4572116"><ele>201.4</ele><time>2026-03-29T07:51:29.282Z</time></trkpt><trkpt lat="45.5237657" lon="10.4571909"><ele>201.0</ele><time>2026-03-29T07:51:30.283Z</time></trkpt><trkpt lat="45.5236608" lon="10.4571682"><ele>200.4</ele><time>2026-03-29T07:51:31.282Z</time></trkpt><trkpt lat="45.5235603" lon="10.4571357"><ele>199.8</ele><time>2026-03-29T07:51:32.283Z</time></trkpt><trkpt lat="45.5234622" lon="10.4571071"><ele>199.20000000000002</ele><time>2026-03-29T07:51:33.283Z</time></trkpt><trkpt lat="45.5233657" lon="10.4570802"><ele>198.60000000000002</ele><time>2026-03-29T07:51:34.283Z</time></trkpt><trkpt lat="45.5232695" lon="10.4570495"><ele>198.0</ele><time>2026-03-29T07:51:35.283Z</time></trkpt><trkpt lat="45.523173" lon="10.4570134"><ele>198.0</ele><time>2026-03-29T07:51:36.283Z</time></trkpt><trkpt lat="45.5230691" lon="10.4569733"><ele>198.0</ele><time>2026-03-29T07:51:37.283Z</time></trkpt><trkpt lat="45.5229567" lon="10.456937"><ele>198.0</ele><time>2026-03-29T07:51:38.282Z</time></trkpt><trkpt lat="45.5228441" lon="10.4568986"><ele>198.0</ele><time>2026-03-29T07:51:39.283Z</time></trkpt><trkpt lat="45.5227242" lon="10.4568564"><ele>197.5</ele><time>2026-03-29T07:51:40.283Z</time></trkpt><trkpt lat="45.5226028" lon="10.4568079"><ele>197.0</ele><time>2026-03-29T07:51:41.282Z</time></trkpt><trkpt lat="45.5224727" lon="10.456756"><ele>196.5</ele><time>2026-03-29T07:51:42.283Z</time></trkpt><trkpt lat="45.5223305" lon="10.4566934"><ele>196.0</ele><time>2026-03-29T07:51:43.283Z</time></trkpt><trkpt lat="45.5221824" lon="10.4566273"><ele>195.33333333333331</ele><time>2026-03-29T07:51:44.282Z</time></trkpt><trkpt lat="45.5220293" lon="10.4565684"><ele>194.66666666666669</ele><time>2026-03-29T07:51:45.282Z</time></trkpt><trkpt lat="45.5218767" lon="10.4565154"><ele>194.0</ele><time>2026-03-29T07:51:46.282Z</time></trkpt><trkpt lat="45.5217316" lon="10.4564693"><ele>194.0</ele><time>2026-03-29T07:51:47.283Z</time></trkpt><trkpt lat="45.5215966" lon="10.4564298"><ele>194.0</ele><time>2026-03-29T07:51:48.283Z</time></trkpt><trkpt lat="45.5214634" lon="10.4563917"><ele>194.0</ele><time>2026-03-29T07:51:49.283Z</time></trkpt><trkpt lat="45.5213375" lon="10.4563581"><ele>194.0</ele><time>2026-03-29T07:51:50.282Z</time></trkpt><trkpt lat="45.5212162" lon="10.4563058"><ele>193.75</ele><time>2026-03-29T07:51:51.282Z</time></trkpt><trkpt lat="45.5210883" lon="10.4562259"><ele>193.5</ele><time>2026-03-29T07:51:52.282Z</time></trkpt><trkpt lat="45.520956" lon="10.4561341"><ele>193.25</ele><time>2026-03-29T07:51:53.282Z</time></trkpt><trkpt lat="45.5208223" lon="10.4560368"><ele>193.0</ele><time>2026-03-29T07:51:54.283Z</time></trkpt><trkpt lat="45.5206857" lon="10.4559367"><ele>193.0</ele><time>2026-03-29T07:51:55.283Z</time></trkpt><trkpt lat="45.5205458" lon="10.4558425"><ele>193.0</ele><time>2026-03-29T07:51:56.283Z</time></trkpt><trkpt lat="45.5204108" lon="10.4557564"><ele>193.0</ele><time>2026-03-29T07:51:57.283Z</time></trkpt><trkpt lat="45.5202768" lon="10.4556684"><ele>192.75</ele><time>2026-03-29T07:51:58.283Z</time></trkpt><trkpt lat="45.5201469" lon="10.4555881"><ele>192.5</ele><time>2026-03-29T07:51:59.283Z</time></trkpt><trkpt lat="45.5200229" lon="10.4555125"><ele>192.25</ele><time>2026-03-29T07:52:00.283Z</time></trkpt><trkpt lat="45.5198903" lon="10.4554363"><ele>192.0</ele><time>2026-03-29T07:52:01.283Z</time></trkpt><trkpt lat="45.5197576" lon="10.4553581"><ele>192.0</ele><time>2026-03-29T07:52:02.282Z</time></trkpt><trkpt lat="45.5196307" lon="10.4552901"><ele>192.0</ele><time>2026-03-29T07:52:03.283Z</time></trkpt><trkpt lat="45.5195024" lon="10.4552299"><ele>192.0</ele><time>2026-03-29T07:52:04.282Z</time></trkpt><trkpt lat="45.5193674" lon="10.4551693"><ele>192.0</ele><time>2026-03-29T07:52:05.283Z</time></trkpt><trkpt lat="45.5192328" lon="10.4551105"><ele>191.5</ele><time>2026-03-29T07:52:06.282Z</time></trkpt><trkpt lat="45.5191074" lon="10.4550539"><ele>191.0</ele><time>2026-03-29T07:52:07.283Z</time></trkpt><trkpt lat="45.5189864" lon="10.4549924"><ele>190.5</ele><time>2026-03-29T07:52:08.282Z</time></trkpt><trkpt lat="45.518871" lon="10.4549342"><ele>190.0</ele><time>2026-03-29T07:52:09.282Z</time></trkpt><trkpt lat="45.5187531" lon="10.45488"><ele>190.0</ele><time>2026-03-29T07:52:10.283Z</time></trkpt><trkpt lat="45.5186486" lon="10.4548337"><ele>190.0</ele><time>2026-03-29T07:52:11.283Z</time></trkpt><trkpt lat="45.5185607" lon="10.4547889"><ele>190.0</ele><time>2026-03-29T07:52:12.283Z</time></trkpt><trkpt lat="45.5184749" lon="10.4547542"><ele>190.0</ele><time>2026-03-29T07:52:13.282Z</time></trkpt><trkpt lat="45.5183966" lon="10.454721"><ele>190.0</ele><time>2026-03-29T07:52:14.283Z</time></trkpt><trkpt lat="45.5183249" lon="10.4546784"><ele>190.0</ele><time>2026-03-29T07:52:15.283Z</time></trkpt><trkpt lat="45.5182612" lon="10.4546093"><ele>190.0</ele><time>2026-03-29T07:52:16.283Z</time></trkpt><trkpt lat="45.5182084" lon="10.4545041"><ele>190.0</ele><time>2026-03-29T07:52:17.282Z</time></trkpt><trkpt lat="45.518147" lon="10.4543778"><ele>190.0</ele><time>2026-03-29T07:52:18.283Z</time></trkpt><trkpt lat="45.5180822" lon="10.454242"><ele>190.0</ele><time>2026-03-29T07:52:19.282Z</time></trkpt><trkpt lat="45.5180027" lon="10.4541214"><ele>190.0</ele><time>2026-03-29T07:52:20.283Z</time></trkpt><trkpt lat="45.5179209" lon="10.4540193"><ele>190.0</ele><time>2026-03-29T07:52:21.282Z</time></trkpt><trkpt lat="45.5178403" lon="10.4539218"><ele>190.0</ele><time>2026-03-29T07:52:22.283Z</time></trkpt><trkpt lat="45.5177618" lon="10.4538203"><ele>190.0</ele><time>2026-03-29T07:52:23.283Z</time></trkpt><trkpt lat="45.517696" lon="10.4537115"><ele>190.0</ele><time>2026-03-29T07:52:24.282Z</time></trkpt><trkpt lat="45.5176441" lon="10.4535857"><ele>189.6</ele><time>2026-03-29T07:52:25.283Z</time></trkpt><trkpt lat="45.5176119" lon="10.4534488"><ele>189.2</ele><time>2026-03-29T07:52:26.283Z</time></trkpt><trkpt lat="45.5176033" lon="10.4533122"><ele>188.8</ele><time>2026-03-29T07:52:27.282Z</time></trkpt><trkpt lat="45.5176141" lon="10.4531712"><ele>188.4</ele><time>2026-03-29T07:52:28.283Z</time></trkpt><trkpt lat="45.517627" lon="10.4530353"><ele>188.0</ele><time>2026-03-29T07:52:29.282Z</time></trkpt><trkpt lat="45.5176365" lon="10.4529"><ele>188.0</ele><time>2026-03-29T07:52:30.283Z</time></trkpt><trkpt lat="45.5176349" lon="10.4527573"><ele>188.0</ele><time>2026-03-29T07:52:31.283Z</time></trkpt><trkpt lat="45.5176248" lon="10.4526133"><ele>188.0</ele><time>2026-03-29T07:52:32.283Z</time></trkpt><trkpt lat="45.5176052" lon="10.4524777"><ele>188.0</ele><time>2026-03-29T07:52:33.282Z</time></trkpt><trkpt lat="45.5175925" lon="10.4523384"><ele>188.0</ele><time>2026-03-29T07:52:34.282Z</time></trkpt><trkpt lat="45.5175903" lon="10.4521856"><ele>188.2</ele><time>2026-03-29T07:52:35.282Z</time></trkpt><trkpt lat="45.5175901" lon="10.4520329"><ele>188.4</ele><time>2026-03-29T07:52:36.283Z</time></trkpt><trkpt lat="45.5175969" lon="10.4518799"><ele>188.6</ele><time>2026-03-29T07:52:37.283Z</time></trkpt><trkpt lat="45.5176127" lon="10.451721"><ele>188.79999999999998</ele><time>2026-03-29T07:52:38.282Z</time></trkpt><trkpt lat="45.5176251" lon="10.4515617"><ele>189.0</ele><time>2026-03-29T07:52:39.282Z</time></trkpt><trkpt lat="45.5176382" lon="10.451408"><ele>188.75</ele><time>2026-03-29T07:52:40.282Z</time></trkpt><trkpt lat="45.5176433" lon="10.451252"><ele>188.5</ele><time>2026-03-29T07:52:41.282Z</time></trkpt><trkpt lat="45.5176449" lon="10.4510914"><ele>188.25</ele><time>2026-03-29T07:52:42.283Z</time></trkpt><trkpt lat="45.5176351" lon="10.4509282"><ele>188.0</ele><time>2026-03-29T07:52:43.283Z</time></trkpt><trkpt lat="45.5176084" lon="10.450765"><ele>188.0</ele><time>2026-03-29T07:52:44.283Z</time></trkpt><trkpt lat="45.5175738" lon="10.4506077"><ele>188.0</ele><time>2026-03-29T07:52:45.282Z</time></trkpt><trkpt lat="45.5175431" lon="10.4504564"><ele>188.0</ele><time>2026-03-29T07:52:46.282Z</time></trkpt><trkpt lat="45.5175013" lon="10.4503027"><ele>188.0</ele><time>2026-03-29T07:52:47.282Z</time></trkpt><trkpt lat="45.5174525" lon="10.4501466"><ele>188.0</ele><time>2026-03-29T07:52:48.282Z</time></trkpt><trkpt lat="45.5174054" lon="10.4499934"><ele>188.0</ele><time>2026-03-29T07:52:49.283Z</time></trkpt><trkpt lat="45.51736" lon="10.4498435"><ele>188.0</ele><time>2026-03-29T07:52:50.282Z</time></trkpt><trkpt lat="45.5173029" lon="10.4497003"><ele>188.0</ele><time>2026-03-29T07:52:51.282Z</time></trkpt><trkpt lat="45.5172395" lon="10.4495536"><ele>188.0</ele><time>2026-03-29T07:52:52.282Z</time></trkpt><trkpt lat="45.5171816" lon="10.449409"><ele>188.0</ele><time>2026-03-29T07:52:53.282Z</time></trkpt><trkpt lat="45.5171299" lon="10.4492558"><ele>188.0</ele><time>2026-03-29T07:52:54.282Z</time></trkpt><trkpt lat="45.5170954" lon="10.4491093"><ele>188.0</ele><time>2026-03-29T07:52:55.283Z</time></trkpt><trkpt lat="45.5170596" lon="10.4489688"><ele>188.0</ele><time>2026-03-29T07:52:56.282Z</time></trkpt><trkpt lat="45.5170151" lon="10.4488239"><ele>187.60000000000002</ele><time>2026-03-29T07:52:57.283Z</time></trkpt><trkpt lat="45.5169636" lon="10.4486694"><ele>187.20000000000002</ele><time>2026-03-29T07:52:58.282Z</time></trkpt><trkpt lat="45.5169059" lon="10.4485257"><ele>186.8</ele><time>2026-03-29T07:52:59.283Z</time></trkpt><trkpt lat="45.5168418" lon="10.448408"><ele>186.4</ele><time>2026-03-29T07:53:00.283Z</time></trkpt><trkpt lat="45.5167655" lon="10.4483204"><ele>186.0</ele><time>2026-03-29T07:53:01.283Z</time></trkpt><trkpt lat="45.5166744" lon="10.4482457"><ele>186.0</ele><time>2026-03-29T07:53:02.283Z</time></trkpt><trkpt lat="45.5165768" lon="10.4481688"><ele>186.0</ele><time>2026-03-29T07:53:03.283Z</time></trkpt><trkpt lat="45.5164676" lon="10.4480964"><ele>186.0</ele><time>2026-03-29T07:53:04.282Z</time></trkpt><trkpt lat="45.5163461" lon="10.4480401"><ele>186.0</ele><time>2026-03-29T07:53:05.283Z</time></trkpt><trkpt lat="45.5162302" lon="10.4479891"><ele>185.5</ele><time>2026-03-29T07:53:06.283Z</time></trkpt><trkpt lat="45.5161274" lon="10.4479413"><ele>185.0</ele><time>2026-03-29T07:53:07.283Z</time></trkpt><trkpt lat="45.5160444" lon="10.4478952"><ele>184.5</ele><time>2026-03-29T07:53:08.283Z</time></trkpt><trkpt lat="45.5159736" lon="10.4478466"><ele>184.0</ele><time>2026-03-29T07:53:09.283Z</time></trkpt><trkpt lat="45.5159071" lon="10.4478055"><ele>183.5</ele><time>2026-03-29T07:53:10.282Z</time></trkpt><trkpt lat="45.5158428" lon="10.4477715"><ele>183.0</ele><time>2026-03-29T07:53:11.283Z</time></trkpt><trkpt lat="45.5157477" lon="10.4477348"><ele>183.0</ele><time>2026-03-29T07:53:13.282Z</time></trkpt><trkpt lat="45.5156623" lon="10.447649"><ele>183.0</ele><time>2026-03-29T07:53:42.282Z</time></trkpt><trkpt lat="45.5155999" lon="10.447617"><ele>183.0</ele><time>2026-03-29T07:53:43.282Z</time></trkpt><trkpt lat="45.5155113" lon="10.4475686"><ele>183.0</ele><time>2026-03-29T07:53:44.282Z</time></trkpt><trkpt lat="45.5154002" lon="10.447499"><ele>183.0</ele><time>2026-03-29T07:53:45.283Z</time></trkpt><trkpt lat="45.5152767" lon="10.4474245"><ele>182.8</ele><time>2026-03-29T07:53:46.282Z</time></trkpt><trkpt lat="45.5151669" lon="10.4473554"><ele>182.60000000000002</ele><time>2026-03-29T07:53:47.282Z</time></trkpt><trkpt lat="45.5150757" lon="10.4473033"><ele>182.39999999999998</ele><time>2026-03-29T07:53:48.282Z</time></trkpt><trkpt lat="45.5150022" lon="10.4472563"><ele>182.2</ele><time>2026-03-29T07:53:49.282Z</time></trkpt><trkpt lat="45.5149072" lon="10.447198"><ele>182.0</ele><time>2026-03-29T07:53:51.282Z</time></trkpt><trkpt lat="45.5148756" lon="10.4470891"><ele>181.8</ele><time>2026-03-29T07:53:53.282Z</time></trkpt><trkpt lat="45.5149072" lon="10.4470056"><ele>181.6</ele><time>2026-03-29T07:53:54.283Z</time></trkpt><trkpt lat="45.514954" lon="10.446891"><ele>181.4</ele><time>2026-03-29T07:53:55.282Z</time></trkpt><trkpt lat="45.5150069" lon="10.4467452"><ele>181.20000000000002</ele><time>2026-03-29T07:53:56.283Z</time></trkpt><trkpt lat="45.5150744" lon="10.4465594"><ele>181.0</ele><time>2026-03-29T07:53:57.283Z</time></trkpt><trkpt lat="45.5151461" lon="10.4463675"><ele>181.25</ele><time>2026-03-29T07:53:58.283Z</time></trkpt><trkpt lat="45.5152077" lon="10.4461882"><ele>181.5</ele><time>2026-03-29T07:53:59.283Z</time></trkpt><trkpt lat="45.5152569" lon="10.4460331"><ele>181.75</ele><time>2026-03-29T07:54:00.282Z</time></trkpt><trkpt lat="45.5153004" lon="10.4458972"><ele>182.0</ele><time>2026-03-29T07:54:01.283Z</time></trkpt><trkpt lat="45.5153389" lon="10.4457686"><ele>182.0</ele><time>2026-03-29T07:54:02.283Z</time></trkpt><trkpt lat="45.5153722" lon="10.4456259"><ele>182.0</ele><time>2026-03-29T07:54:03.282Z</time></trkpt><trkpt lat="45.5154082" lon="10.4454724"><ele>182.0</ele><time>2026-03-29T07:54:04.283Z</time></trkpt><trkpt lat="45.515444" lon="10.445321"><ele>182.0</ele><time>2026-03-29T07:54:05.282Z</time></trkpt><trkpt lat="45.515477" lon="10.4451622"><ele>182.0</ele><time>2026-03-29T07:54:06.283Z</time></trkpt><trkpt lat="45.5155089" lon="10.4449958"><ele>182.0</ele><time>2026-03-29T07:54:07.283Z</time></trkpt><trkpt lat="45.5155508" lon="10.4448303"><ele>182.0</ele><time>2026-03-29T07:54:08.282Z</time></trkpt><trkpt lat="45.5155848" lon="10.4446706"><ele>182.0</ele><time>2026-03-29T07:54:09.282Z</time></trkpt><trkpt lat="45.5156159" lon="10.4445158"><ele>182.0</ele><time>2026-03-29T07:54:10.283Z</time></trkpt><trkpt lat="45.5156452" lon="10.4443625"><ele>182.0</ele><time>2026-03-29T07:54:11.282Z</time></trkpt><trkpt lat="45.515676" lon="10.444211"><ele>182.0</ele><time>2026-03-29T07:54:12.282Z</time></trkpt><trkpt lat="45.5157052" lon="10.4440704"><ele>182.0</ele><time>2026-03-29T07:54:13.282Z</time></trkpt><trkpt lat="45.5157375" lon="10.4439504"><ele>182.0</ele><time>2026-03-29T07:54:14.283Z</time></trkpt><trkpt lat="45.5157693" lon="10.4438464"><ele>182.0</ele><time>2026-03-29T07:54:15.282Z</time></trkpt><trkpt lat="45.5158104" lon="10.443737"><ele>182.0</ele><time>2026-03-29T07:54:16.283Z</time></trkpt><trkpt lat="45.5158502" lon="10.4436451"><ele>182.0</ele><time>2026-03-29T07:54:17.282Z</time></trkpt><trkpt lat="45.5159189" lon="10.4435068"><ele>182.0</ele><time>2026-03-29T07:54:19.282Z</time></trkpt><trkpt lat="45.5159607" lon="10.443425"><ele>182.0</ele><time>2026-03-29T07:54:20.282Z</time></trkpt><trkpt lat="45.5160061" lon="10.4433162"><ele>182.0</ele><time>2026-03-29T07:54:21.282Z</time></trkpt><trkpt lat="45.51605" lon="10.4431803"><ele>182.0</ele><time>2026-03-29T07:54:22.282Z</time></trkpt><trkpt lat="45.5160855" lon="10.443028"><ele>182.0</ele><time>2026-03-29T07:54:23.282Z</time></trkpt><trkpt lat="45.5161178" lon="10.4428777"><ele>182.0</ele><time>2026-03-29T07:54:24.283Z</time></trkpt><trkpt lat="45.5161487" lon="10.4427444"><ele>182.0</ele><time>2026-03-29T07:54:25.282Z</time></trkpt><trkpt lat="45.516177" lon="10.442621"><ele>182.0</ele><time>2026-03-29T07:54:26.283Z</time></trkpt><trkpt lat="45.5161915" lon="10.4425"><ele>182.0</ele><time>2026-03-29T07:54:27.282Z</time></trkpt><trkpt lat="45.5161975" lon="10.4423589"><ele>182.0</ele><time>2026-03-29T07:54:28.283Z</time></trkpt><trkpt lat="45.5161965" lon="10.442207"><ele>182.0</ele><time>2026-03-29T07:54:29.283Z</time></trkpt><trkpt lat="45.5162031" lon="10.4420587"><ele>182.0</ele><time>2026-03-29T07:54:30.282Z</time></trkpt><trkpt lat="45.5162185" lon="10.4419101"><ele>182.0</ele><time>2026-03-29T07:54:31.283Z</time></trkpt><trkpt lat="45.5162454" lon="10.4417703"><ele>182.0</ele><time>2026-03-29T07:54:32.282Z</time></trkpt><trkpt lat="45.5162683" lon="10.4416098"><ele>182.0</ele><time>2026-03-29T07:54:33.282Z</time></trkpt><trkpt lat="45.5162847" lon="10.4414701"><ele>182.0</ele><time>2026-03-29T07:54:34.282Z</time></trkpt><trkpt lat="45.5163031" lon="10.4413408"><ele>182.0</ele><time>2026-03-29T07:54:35.283Z</time></trkpt><trkpt lat="45.5163268" lon="10.4412338"><ele>182.0</ele><time>2026-03-29T07:54:36.282Z</time></trkpt><trkpt lat="45.5163496" lon="10.4411356"><ele>182.0</ele><time>2026-03-29T07:54:37.283Z</time></trkpt><trkpt lat="45.5163734" lon="10.4410482"><ele>182.0</ele><time>2026-03-29T07:54:38.282Z</time></trkpt><trkpt lat="45.5163863" lon="10.4409157"><ele>182.0</ele><time>2026-03-29T07:54:40.283Z</time></trkpt><trkpt lat="45.516367" lon="10.4408184"><ele>182.0</ele><time>2026-03-29T07:54:42.282Z</time></trkpt><trkpt lat="45.5162769" lon="10.4407302"><ele>182.0</ele><time>2026-03-29T07:54:44.283Z</time></trkpt><trkpt lat="45.5162091" lon="10.4406744"><ele>182.0</ele><time>2026-03-29T07:54:45.283Z</time></trkpt><trkpt lat="45.5161403" lon="10.4406058"><ele>182.0</ele><time>2026-03-29T07:54:46.283Z</time></trkpt><trkpt lat="45.5160871" lon="10.4405271"><ele>182.0</ele><time>2026-03-29T07:54:47.282Z</time></trkpt><trkpt lat="45.5160418" lon="10.4404289"><ele>182.0</ele><time>2026-03-29T07:54:48.282Z</time></trkpt><trkpt lat="45.5160276" lon="10.4403202"><ele>182.0</ele><time>2026-03-29T07:54:49.283Z</time></trkpt><trkpt lat="45.516048" lon="10.4401899"><ele>182.0</ele><time>2026-03-29T07:54:50.282Z</time></trkpt><trkpt lat="45.5160882" lon="10.4400367"><ele>182.0</ele><time>2026-03-29T07:54:51.282Z</time></trkpt><trkpt lat="45.5161259" lon="10.4398779"><ele>182.0</ele><time>2026-03-29T07:54:52.283Z</time></trkpt><trkpt lat="45.5161727" lon="10.4397302"><ele>182.0</ele><time>2026-03-29T07:54:53.283Z</time></trkpt><trkpt lat="45.5162211" lon="10.4396113"><ele>182.0</ele><time>2026-03-29T07:54:54.282Z</time></trkpt><trkpt lat="45.516267" lon="10.4395023"><ele>182.0</ele><time>2026-03-29T07:54:55.282Z</time></trkpt><trkpt lat="45.5163271" lon="10.43939"><ele>182.0</ele><time>2026-03-29T07:54:56.283Z</time></trkpt><trkpt lat="45.5163753" lon="10.4392823"><ele>182.8</ele><time>2026-03-29T07:54:57.282Z</time></trkpt><trkpt lat="45.5164233" lon="10.4391649"><ele>183.6</ele><time>2026-03-29T07:54:58.282Z</time></trkpt><trkpt lat="45.5164857" lon="10.4390376"><ele>184.4</ele><time>2026-03-29T07:54:59.283Z</time></trkpt><trkpt lat="45.5165579" lon="10.4389124"><ele>185.20000000000002</ele><time>2026-03-29T07:55:00.282Z</time></trkpt><trkpt lat="45.5166194" lon="10.4387966"><ele>186.0</ele><time>2026-03-29T07:55:01.283Z</time></trkpt><trkpt lat="45.5166628" lon="10.4386844"><ele>186.66666666666666</ele><time>2026-03-29T07:55:02.282Z</time></trkpt><trkpt lat="45.5166942" lon="10.4385981"><ele>187.33333333333334</ele><time>2026-03-29T07:55:03.282Z</time></trkpt><trkpt lat="45.5167307" lon="10.438501"><ele>188.0</ele><time>2026-03-29T07:55:05.283Z</time></trkpt><trkpt lat="45.5167979" lon="10.4385424"><ele>188.66666666666669</ele><time>2026-03-29T07:55:07.283Z</time></trkpt><trkpt lat="45.5168667" lon="10.4385975"><ele>189.33333333333334</ele><time>2026-03-29T07:55:08.282Z</time></trkpt><trkpt lat="45.516953" lon="10.4386519"><ele>190.0</ele><time>2026-03-29T07:55:09.282Z</time></trkpt><trkpt lat="45.5170507" lon="10.4386741"><ele>190.25</ele><time>2026-03-29T07:55:10.282Z</time></trkpt><trkpt lat="45.5171571" lon="10.4386683"><ele>190.5</ele><time>2026-03-29T07:55:11.283Z</time></trkpt><trkpt lat="45.5172859" lon="10.4386212"><ele>190.75</ele><time>2026-03-29T07:55:12.283Z</time></trkpt><trkpt lat="45.5174195" lon="10.43856"><ele>191.0</ele><time>2026-03-29T07:55:13.283Z</time></trkpt><trkpt lat="45.5175402" lon="10.4384832"><ele>191.0</ele><time>2026-03-29T07:55:14.282Z</time></trkpt><trkpt lat="45.5176578" lon="10.4384219"><ele>191.0</ele><time>2026-03-29T07:55:15.282Z</time></trkpt><trkpt lat="45.5177557" lon="10.4383733"><ele>191.0</ele><time>2026-03-29T07:55:16.283Z</time></trkpt><trkpt lat="45.5178321" lon="10.4383409"><ele>191.0</ele><time>2026-03-29T07:55:17.283Z</time></trkpt><trkpt lat="45.5179031" lon="10.4382938"><ele>191.0</ele><time>2026-03-29T07:55:18.282Z</time></trkpt><trkpt lat="45.5179771" lon="10.4382313"><ele>191.0</ele><time>2026-03-29T07:55:19.283Z</time></trkpt><trkpt lat="45.5180593" lon="10.4381519"><ele>191.0</ele><time>2026-03-29T07:55:20.283Z</time></trkpt><trkpt lat="45.5181441" lon="10.4380587"><ele>191.0</ele><time>2026-03-29T07:55:21.282Z</time></trkpt><trkpt lat="45.518233" lon="10.4379431"><ele>191.0</ele><time>2026-03-29T07:55:22.283Z</time></trkpt><trkpt lat="45.5183229" lon="10.4378328"><ele>191.0</ele><time>2026-03-29T07:55:23.282Z</time></trkpt><trkpt lat="45.518422" lon="10.4377444"><ele>191.0</ele><time>2026-03-29T07:55:24.283Z</time></trkpt><trkpt lat="45.5185101" lon="10.4376748"><ele>191.0</ele><time>2026-03-29T07:55:25.282Z</time></trkpt><trkpt lat="45.5186025" lon="10.4376007"><ele>191.0</ele><time>2026-03-29T07:55:26.283Z</time></trkpt><trkpt lat="45.5186978" lon="10.4375129"><ele>191.0</ele><time>2026-03-29T07:55:27.283Z</time></trkpt><trkpt lat="45.5188018" lon="10.4374245"><ele>191.0</ele><time>2026-03-29T07:55:28.283Z</time></trkpt><trkpt lat="45.518918" lon="10.4373269"><ele>190.5</ele><time>2026-03-29T07:55:29.282Z</time></trkpt><trkpt lat="45.5190316" lon="10.4372237"><ele>190.0</ele><time>2026-03-29T07:55:30.283Z</time></trkpt><trkpt lat="45.5191503" lon="10.4371188"><ele>189.5</ele><time>2026-03-29T07:55:31.282Z</time></trkpt><trkpt lat="45.5192662" lon="10.4370279"><ele>189.0</ele><time>2026-03-29T07:55:32.282Z</time></trkpt><trkpt lat="45.5193839" lon="10.4369367"><ele>188.79999999999998</ele><time>2026-03-29T07:55:33.282Z</time></trkpt><trkpt lat="45.5194899" lon="10.4368579"><ele>188.6</ele><time>2026-03-29T07:55:34.283Z</time></trkpt><trkpt lat="45.5195803" lon="10.436786"><ele>188.4</ele><time>2026-03-29T07:55:35.283Z</time></trkpt><trkpt lat="45.5196595" lon="10.4367219"><ele>188.2</ele><time>2026-03-29T07:55:36.283Z</time></trkpt><trkpt lat="45.5197289" lon="10.4366683"><ele>188.0</ele><time>2026-03-29T07:55:37.283Z</time></trkpt><trkpt lat="45.5197975" lon="10.4366238"><ele>188.5</ele><time>2026-03-29T07:55:38.282Z</time></trkpt><trkpt lat="45.5198634" lon="10.4366117"><ele>189.0</ele><time>2026-03-29T07:55:39.283Z</time></trkpt><trkpt lat="45.5199279" lon="10.4366325"><ele>189.5</ele><time>2026-03-29T07:55:40.283Z</time></trkpt><trkpt lat="45.5199949" lon="10.4366612"><ele>190.0</ele><time>2026-03-29T07:55:41.283Z</time></trkpt><trkpt lat="45.5200851" lon="10.436684"><ele>190.5</ele><time>2026-03-29T07:55:43.282Z</time></trkpt><trkpt lat="45.5201424" lon="10.4365979"><ele>191.0</ele><time>2026-03-29T07:55:46.282Z</time></trkpt><trkpt lat="45.520171" lon="10.4363952"><ele>190.8</ele><time>2026-03-29T07:55:48.283Z</time></trkpt><trkpt lat="45.520195" lon="10.4362529"><ele>190.60000000000002</ele><time>2026-03-29T07:55:49.282Z</time></trkpt><trkpt lat="45.5202225" lon="10.4361099"><ele>190.4</ele><time>2026-03-29T07:55:50.282Z</time></trkpt><trkpt lat="45.5202484" lon="10.4359701"><ele>190.2</ele><time>2026-03-29T07:55:51.283Z</time></trkpt><trkpt lat="45.5202801" lon="10.4358285"><ele>190.0</ele><time>2026-03-29T07:55:52.283Z</time></trkpt><trkpt lat="45.5203236" lon="10.4357008"><ele>190.0</ele><time>2026-03-29T07:55:53.282Z</time></trkpt><trkpt lat="45.5203702" lon="10.4355918"><ele>190.0</ele><time>2026-03-29T07:55:54.282Z</time></trkpt><trkpt lat="45.5204157" lon="10.4354922"><ele>190.0</ele><time>2026-03-29T07:55:55.282Z</time></trkpt><trkpt lat="45.5204685" lon="10.4354033"><ele>190.0</ele><time>2026-03-29T07:55:56.283Z</time></trkpt><trkpt lat="45.5205311" lon="10.435332"><ele>190.0</ele><time>2026-03-29T07:55:57.282Z</time></trkpt><trkpt lat="45.5205986" lon="10.4352593"><ele>190.0</ele><time>2026-03-29T07:55:58.282Z</time></trkpt><trkpt lat="45.5206808" lon="10.4352002"><ele>191.0</ele><time>2026-03-29T07:55:59.283Z</time></trkpt><trkpt lat="45.5207763" lon="10.4351517"><ele>192.0</ele><time>2026-03-29T07:56:00.282Z</time></trkpt><trkpt lat="45.5208717" lon="10.435093"><ele>193.0</ele><time>2026-03-29T07:56:01.283Z</time></trkpt><trkpt lat="45.5209601" lon="10.435022"><ele>194.0</ele><time>2026-03-29T07:56:02.283Z</time></trkpt><trkpt lat="45.5210414" lon="10.434941"><ele>195.0</ele><time>2026-03-29T07:56:03.283Z</time></trkpt><trkpt lat="45.5211219" lon="10.4348437"><ele>195.0</ele><time>2026-03-29T07:56:04.282Z</time></trkpt><trkpt lat="45.5211995" lon="10.4347395"><ele>195.0</ele><time>2026-03-29T07:56:05.281Z</time></trkpt><trkpt lat="45.5212684" lon="10.4346554"><ele>195.0</ele><time>2026-03-29T07:56:06.281Z</time></trkpt><trkpt lat="45.5213339" lon="10.4345588"><ele>195.0</ele><time>2026-03-29T07:56:07.281Z</time></trkpt><trkpt lat="45.5214023" lon="10.4344644"><ele>195.0</ele><time>2026-03-29T07:56:08.282Z</time></trkpt><trkpt lat="45.5214789" lon="10.4343767"><ele>195.2</ele><time>2026-03-29T07:56:09.281Z</time></trkpt><trkpt lat="45.52155" lon="10.4342899"><ele>195.4</ele><time>2026-03-29T07:56:10.281Z</time></trkpt><trkpt lat="45.5216273" lon="10.4342036"><ele>195.60000000000002</ele><time>2026-03-29T07:56:11.282Z</time></trkpt><trkpt lat="45.5216976" lon="10.4341252"><ele>195.8</ele><time>2026-03-29T07:56:12.282Z</time></trkpt><trkpt lat="45.5217741" lon="10.4340481"><ele>196.0</ele><time>2026-03-29T07:56:13.281Z</time></trkpt><trkpt lat="45.5218585" lon="10.4339767"><ele>195.99999999999997</ele><time>2026-03-29T07:56:14.282Z</time></trkpt><trkpt lat="45.5219464" lon="10.4339202"><ele>196.0</ele><time>2026-03-29T07:56:15.282Z</time></trkpt><trkpt lat="45.5220392" lon="10.4338713"><ele>196.0</ele><time>2026-03-29T07:56:16.281Z</time></trkpt><trkpt lat="45.5221216" lon="10.4338251"><ele>196.0</ele><time>2026-03-29T07:56:17.282Z</time></trkpt><trkpt lat="45.5221885" lon="10.4337734"><ele>195.99999999999997</ele><time>2026-03-29T07:56:18.282Z</time></trkpt><trkpt lat="45.5222436" lon="10.4337045"><ele>196.0</ele><time>2026-03-29T07:56:19.282Z</time></trkpt><trkpt lat="45.522284" lon="10.4336211"><ele>196.0</ele><time>2026-03-29T07:56:20.281Z</time></trkpt><trkpt lat="45.5223018" lon="10.4335267"><ele>196.0</ele><time>2026-03-29T07:56:21.281Z</time></trkpt><trkpt lat="45.5222972" lon="10.4334157"><ele>196.0</ele><time>2026-03-29T07:56:22.281Z</time></trkpt><trkpt lat="45.5222607" lon="10.433275"><ele>196.0</ele><time>2026-03-29T07:56:23.281Z</time></trkpt><trkpt lat="45.5222081" lon="10.4331226"><ele>196.0</ele><time>2026-03-29T07:56:24.281Z</time></trkpt><trkpt lat="45.522155" lon="10.4329718"><ele>196.20000000000002</ele><time>2026-03-29T07:56:25.281Z</time></trkpt><trkpt lat="45.522105" lon="10.4328395"><ele>196.4</ele><time>2026-03-29T07:56:26.281Z</time></trkpt><trkpt lat="45.5220632" lon="10.4327226"><ele>196.6</ele><time>2026-03-29T07:56:27.282Z</time></trkpt><trkpt lat="45.5220349" lon="10.4326287"><ele>196.8</ele><time>2026-03-29T07:56:28.281Z</time></trkpt><trkpt lat="45.5219756" lon="10.4325119"><ele>197.0</ele><time>2026-03-29T07:56:30.281Z</time></trkpt><trkpt lat="45.5218858" lon="10.4324654"><ele>196.0</ele><time>2026-03-29T07:56:32.282Z</time></trkpt><trkpt lat="45.5218136" lon="10.432459"><ele>195.0</ele><time>2026-03-29T07:56:33.282Z</time></trkpt><trkpt lat="45.5216887" lon="10.4324823"><ele>194.0</ele><time>2026-03-29T07:56:34.281Z</time></trkpt><trkpt lat="45.5215346" lon="10.4325154"><ele>193.0</ele><time>2026-03-29T07:56:35.282Z</time></trkpt><trkpt lat="45.5213652" lon="10.4325452"><ele>192.66666666666666</ele><time>2026-03-29T07:56:36.282Z</time></trkpt><trkpt lat="45.5211835" lon="10.4325602"><ele>192.33333333333331</ele><time>2026-03-29T07:56:37.281Z</time></trkpt><trkpt lat="45.5209969" lon="10.4325486"><ele>192.0</ele><time>2026-03-29T07:56:38.281Z</time></trkpt><trkpt lat="45.5208029" lon="10.4325068"><ele>192.0</ele><time>2026-03-29T07:56:39.281Z</time></trkpt><trkpt lat="45.5206119" lon="10.4324275"><ele>192.0</ele><time>2026-03-29T07:56:40.281Z</time></trkpt><trkpt lat="45.5204172" lon="10.4323245"><ele>192.0</ele><time>2026-03-29T07:56:41.282Z</time></trkpt><trkpt lat="45.5202273" lon="10.4322229"><ele>190.33333333333334</ele><time>2026-03-29T07:56:42.281Z</time></trkpt><trkpt lat="45.5200423" lon="10.4321264"><ele>188.66666666666669</ele><time>2026-03-29T07:56:43.281Z</time></trkpt><trkpt lat="45.5198693" lon="10.4320414"><ele>187.0</ele><time>2026-03-29T07:56:44.282Z</time></trkpt><trkpt lat="45.5197049" lon="10.431965"><ele>188.66666666666669</ele><time>2026-03-29T07:56:45.282Z</time></trkpt><trkpt lat="45.519544" lon="10.4319112"><ele>190.33333333333334</ele><time>2026-03-29T07:56:46.281Z</time></trkpt><trkpt lat="45.5193772" lon="10.4318713"><ele>192.0</ele><time>2026-03-29T07:56:47.282Z</time></trkpt><trkpt lat="45.5192127" lon="10.4318539"><ele>192.0</ele><time>2026-03-29T07:56:48.282Z</time></trkpt><trkpt lat="45.5190475" lon="10.4318475"><ele>192.0</ele><time>2026-03-29T07:56:49.282Z</time></trkpt><trkpt lat="45.51888" lon="10.4318279"><ele>192.0</ele><time>2026-03-29T07:56:50.282Z</time></trkpt><trkpt lat="45.518713" lon="10.4318117"><ele>192.0</ele><time>2026-03-29T07:56:51.281Z</time></trkpt><trkpt lat="45.5185463" lon="10.4317908"><ele>192.0</ele><time>2026-03-29T07:56:52.282Z</time></trkpt><trkpt lat="45.5183726" lon="10.4317958"><ele>192.0</ele><time>2026-03-29T07:56:53.281Z</time></trkpt><trkpt lat="45.5181947" lon="10.4318064"><ele>192.0</ele><time>2026-03-29T07:56:54.281Z</time></trkpt><trkpt lat="45.5180239" lon="10.4318052"><ele>192.0</ele><time>2026-03-29T07:56:55.282Z</time></trkpt><trkpt lat="45.5178613" lon="10.4317991"><ele>192.0</ele><time>2026-03-29T07:56:56.282Z</time></trkpt><trkpt lat="45.5176999" lon="10.4317926"><ele>192.33333333333331</ele><time>2026-03-29T07:56:57.282Z</time></trkpt><trkpt lat="45.5175362" lon="10.4317917"><ele>192.66666666666666</ele><time>2026-03-29T07:56:58.282Z</time></trkpt><trkpt lat="45.5173679" lon="10.4317927"><ele>193.0</ele><time>2026-03-29T07:56:59.282Z</time></trkpt><trkpt lat="45.5172008" lon="10.4317882"><ele>192.0</ele><time>2026-03-29T07:57:00.281Z</time></trkpt><trkpt lat="45.5170364" lon="10.4317742"><ele>191.0</ele><time>2026-03-29T07:57:01.282Z</time></trkpt><trkpt lat="45.5168754" lon="10.4317363"><ele>190.0</ele><time>2026-03-29T07:57:02.281Z</time></trkpt><trkpt lat="45.5167153" lon="10.4316723"><ele>190.0</ele><time>2026-03-29T07:57:03.281Z</time></trkpt><trkpt lat="45.5165546" lon="10.4315908"><ele>190.0</ele><time>2026-03-29T07:57:04.281Z</time></trkpt><trkpt lat="45.5163943" lon="10.43149"><ele>190.0</ele><time>2026-03-29T07:57:05.282Z</time></trkpt><trkpt lat="45.5162379" lon="10.4313808"><ele>188.33333333333334</ele><time>2026-03-29T07:57:06.282Z</time></trkpt><trkpt lat="45.5160813" lon="10.4312735"><ele>186.66666666666666</ele><time>2026-03-29T07:57:07.282Z</time></trkpt><trkpt lat="45.51593" lon="10.4311667"><ele>185.0</ele><time>2026-03-29T07:57:08.281Z</time></trkpt><trkpt lat="45.5157835" lon="10.431068"><ele>185.0</ele><time>2026-03-29T07:57:09.281Z</time></trkpt><trkpt lat="45.5156437" lon="10.4309586"><ele>185.0</ele><time>2026-03-29T07:57:10.281Z</time></trkpt><trkpt lat="45.5155062" lon="10.430856"><ele>185.0</ele><time>2026-03-29T07:57:11.282Z</time></trkpt><trkpt lat="45.5153688" lon="10.4307444"><ele>184.66666666666666</ele><time>2026-03-29T07:57:12.281Z</time></trkpt><trkpt lat="45.5152328" lon="10.4306118"><ele>184.33333333333334</ele><time>2026-03-29T07:57:13.282Z</time></trkpt><trkpt lat="45.5151029" lon="10.4304549"><ele>184.0</ele><time>2026-03-29T07:57:14.282Z</time></trkpt><trkpt lat="45.514966" lon="10.4302834"><ele>184.0</ele><time>2026-03-29T07:57:15.281Z</time></trkpt><trkpt lat="45.5148244" lon="10.4301238"><ele>184.0</ele><time>2026-03-29T07:57:16.282Z</time></trkpt><trkpt lat="45.5146739" lon="10.4299963"><ele>184.0</ele><time>2026-03-29T07:57:17.282Z</time></trkpt><trkpt lat="45.5145145" lon="10.4298869"><ele>183.33333333333334</ele><time>2026-03-29T07:57:18.282Z</time></trkpt><trkpt lat="45.5143401" lon="10.4297896"><ele>182.66666666666666</ele><time>2026-03-29T07:57:19.282Z</time></trkpt><trkpt lat="45.5141683" lon="10.4296692"><ele>182.0</ele><time>2026-03-29T07:57:20.282Z</time></trkpt><trkpt lat="45.5139736" lon="10.4295756"><ele>181.66666666666666</ele><time>2026-03-29T07:57:21.281Z</time></trkpt><trkpt lat="45.5137777" lon="10.4294927"><ele>181.33333333333334</ele><time>2026-03-29T07:57:22.282Z</time></trkpt><trkpt lat="45.5135994" lon="10.4294029"><ele>181.0</ele><time>2026-03-29T07:57:23.281Z</time></trkpt><trkpt lat="45.5134439" lon="10.4293199"><ele>182.0</ele><time>2026-03-29T07:57:24.281Z</time></trkpt><trkpt lat="45.51329" lon="10.4292471"><ele>183.0</ele><time>2026-03-29T07:57:25.282Z</time></trkpt><trkpt lat="45.513141" lon="10.4291684"><ele>184.0</ele><time>2026-03-29T07:57:26.281Z</time></trkpt><trkpt lat="45.5129981" lon="10.4290951"><ele>184.0</ele><time>2026-03-29T07:57:27.281Z</time></trkpt><trkpt lat="45.5128438" lon="10.4290193"><ele>184.0</ele><time>2026-03-29T07:57:28.281Z</time></trkpt><trkpt lat="45.5126997" lon="10.4289327"><ele>184.0</ele><time>2026-03-29T07:57:29.281Z</time></trkpt><trkpt lat="45.5125629" lon="10.4288422"><ele>184.25</ele><time>2026-03-29T07:57:30.281Z</time></trkpt><trkpt lat="45.5124298" lon="10.4287614"><ele>184.5</ele><time>2026-03-29T07:57:31.281Z</time></trkpt><trkpt lat="45.5123016" lon="10.428686"><ele>184.75</ele><time>2026-03-29T07:57:32.282Z</time></trkpt><trkpt lat="45.5121654" lon="10.4286245"><ele>185.0</ele><time>2026-03-29T07:57:33.282Z</time></trkpt><trkpt lat="45.5120379" lon="10.4285594"><ele>184.2</ele><time>2026-03-29T07:57:34.282Z</time></trkpt><trkpt lat="45.5119263" lon="10.4284853"><ele>183.4</ele><time>2026-03-29T07:57:35.282Z</time></trkpt><trkpt lat="45.5118137" lon="10.428435"><ele>182.60000000000002</ele><time>2026-03-29T07:57:36.282Z</time></trkpt><trkpt lat="45.5117293" lon="10.4283871"><ele>181.8</ele><time>2026-03-29T07:57:37.282Z</time></trkpt><trkpt lat="45.5116619" lon="10.4283391"><ele>181.0</ele><time>2026-03-29T07:57:38.281Z</time></trkpt><trkpt lat="45.511585" lon="10.4282552"><ele>181.0</ele><time>2026-03-29T07:57:40.281Z</time></trkpt><trkpt lat="45.5115747" lon="10.4281212"><ele>181.0</ele><time>2026-03-29T07:57:42.281Z</time></trkpt><trkpt lat="45.511609" lon="10.4280285"><ele>181.0</ele><time>2026-03-29T07:57:43.282Z</time></trkpt><trkpt lat="45.5116534" lon="10.4279122"><ele>181.0</ele><time>2026-03-29T07:57:44.282Z</time></trkpt><trkpt lat="45.5117143" lon="10.4277717"><ele>181.0</ele><time>2026-03-29T07:57:45.282Z</time></trkpt><trkpt lat="45.5117848" lon="10.4276199"><ele>180.5</ele><time>2026-03-29T07:57:46.281Z</time></trkpt><trkpt lat="45.5118617" lon="10.42746"><ele>180.0</ele><time>2026-03-29T07:57:47.281Z</time></trkpt><trkpt lat="45.5119446" lon="10.4272998"><ele>179.5</ele><time>2026-03-29T07:57:48.281Z</time></trkpt><trkpt lat="45.5120301" lon="10.4271462"><ele>179.0</ele><time>2026-03-29T07:57:49.282Z</time></trkpt><trkpt lat="45.5121004" lon="10.4269849"><ele>180.5</ele><time>2026-03-29T07:57:50.282Z</time></trkpt><trkpt lat="45.5121543" lon="10.4268048"><ele>182.0</ele><time>2026-03-29T07:57:51.282Z</time></trkpt><trkpt lat="45.5121754" lon="10.4266135"><ele>183.5</ele><time>2026-03-29T07:57:52.281Z</time></trkpt><trkpt lat="45.5121694" lon="10.4264234"><ele>185.0</ele><time>2026-03-29T07:57:53.282Z</time></trkpt><trkpt lat="45.5121348" lon="10.4262498"><ele>183.75</ele><time>2026-03-29T07:57:54.282Z</time></trkpt><trkpt lat="45.5120731" lon="10.4260624"><ele>182.5</ele><time>2026-03-29T07:57:55.282Z</time></trkpt><trkpt lat="45.5120241" lon="10.4258948"><ele>181.25</ele><time>2026-03-29T07:57:56.282Z</time></trkpt><trkpt lat="45.5119881" lon="10.4257236"><ele>180.0</ele><time>2026-03-29T07:57:57.282Z</time></trkpt><trkpt lat="45.5119587" lon="10.4255502"><ele>180.4</ele><time>2026-03-29T07:57:58.281Z</time></trkpt><trkpt lat="45.5119307" lon="10.425381"><ele>180.8</ele><time>2026-03-29T07:57:59.282Z</time></trkpt><trkpt lat="45.5119079" lon="10.4252299"><ele>181.2</ele><time>2026-03-29T07:58:00.282Z</time></trkpt><trkpt lat="45.5118867" lon="10.4250967"><ele>181.6</ele><time>2026-03-29T07:58:01.281Z</time></trkpt><trkpt lat="45.5118632" lon="10.4249875"><ele>182.0</ele><time>2026-03-29T07:58:02.281Z</time></trkpt><trkpt lat="45.5118389" lon="10.424895"><ele>182.0</ele><time>2026-03-29T07:58:03.282Z</time></trkpt><trkpt lat="45.5118238" lon="10.4248033"><ele>182.0</ele><time>2026-03-29T07:58:04.282Z</time></trkpt><trkpt lat="45.5117921" lon="10.424678"><ele>182.0</ele><time>2026-03-29T07:58:06.281Z</time></trkpt><trkpt lat="45.5117005" lon="10.4247501"><ele>182.0</ele><time>2026-03-29T07:58:09.281Z</time></trkpt><trkpt lat="45.5116653" lon="10.4248257"><ele>182.0</ele><time>2026-03-29T07:58:10.281Z</time></trkpt><trkpt lat="45.5116171" lon="10.4249247"><ele>182.0</ele><time>2026-03-29T07:58:11.281Z</time></trkpt><trkpt lat="45.5115584" lon="10.425032"><ele>182.0</ele><time>2026-03-29T07:58:12.282Z</time></trkpt><trkpt lat="45.5114864" lon="10.4251516"><ele>182.0</ele><time>2026-03-29T07:58:13.281Z</time></trkpt><trkpt lat="45.511409" lon="10.4252634"><ele>182.0</ele><time>2026-03-29T07:58:14.281Z</time></trkpt><trkpt lat="45.5113374" lon="10.4253658"><ele>182.0</ele><time>2026-03-29T07:58:15.281Z</time></trkpt><trkpt lat="45.5112644" lon="10.425452"><ele>182.0</ele><time>2026-03-29T07:58:16.282Z</time></trkpt><trkpt lat="45.5111959" lon="10.4255294"><ele>180.39999999999998</ele><time>2026-03-29T07:58:17.281Z</time></trkpt><trkpt lat="45.5111262" lon="10.4256079"><ele>178.79999999999998</ele><time>2026-03-29T07:58:18.282Z</time></trkpt><trkpt lat="45.5110497" lon="10.4256985"><ele>177.2</ele><time>2026-03-29T07:58:19.281Z</time></trkpt><trkpt lat="45.5109743" lon="10.4257937"><ele>175.6</ele><time>2026-03-29T07:58:20.282Z</time></trkpt><trkpt lat="45.5109037" lon="10.4258857"><ele>174.0</ele><time>2026-03-29T07:58:21.282Z</time></trkpt><trkpt lat="45.5108518" lon="10.4259749"><ele>174.0</ele><time>2026-03-29T07:58:22.281Z</time></trkpt><trkpt lat="45.510809" lon="10.4260529"><ele>174.0</ele><time>2026-03-29T07:58:23.282Z</time></trkpt><trkpt lat="45.5107678" lon="10.4261219"><ele>174.0</ele><time>2026-03-29T07:58:24.281Z</time></trkpt><trkpt lat="45.5106718" lon="10.4262331"><ele>174.0</ele><time>2026-03-29T07:58:26.282Z</time></trkpt><trkpt lat="45.5106114" lon="10.4262792"><ele>174.0</ele><time>2026-03-29T07:58:27.282Z</time></trkpt><trkpt lat="45.5105442" lon="10.4263032"><ele>174.0</ele><time>2026-03-29T07:58:28.282Z</time></trkpt><trkpt lat="45.5104685" lon="10.4262971"><ele>173.6</ele><time>2026-03-29T07:58:29.281Z</time></trkpt><trkpt lat="45.5103816" lon="10.4262613"><ele>173.2</ele><time>2026-03-29T07:58:30.282Z</time></trkpt><trkpt lat="45.510288" lon="10.4262139"><ele>172.79999999999998</ele><time>2026-03-29T07:58:31.282Z</time></trkpt><trkpt lat="45.5101916" lon="10.4261598"><ele>172.39999999999998</ele><time>2026-03-29T07:58:32.282Z</time></trkpt><trkpt lat="45.5100928" lon="10.426112"><ele>172.0</ele><time>2026-03-29T07:58:33.281Z</time></trkpt><trkpt lat="45.5099978" lon="10.4260622"><ele>172.0</ele><time>2026-03-29T07:58:34.282Z</time></trkpt><trkpt lat="45.5099079" lon="10.4260213"><ele>172.0</ele><time>2026-03-29T07:58:35.282Z</time></trkpt><trkpt lat="45.5098142" lon="10.4259755"><ele>172.0</ele><time>2026-03-29T07:58:36.281Z</time></trkpt><trkpt lat="45.5097178" lon="10.4259251"><ele>172.0</ele><time>2026-03-29T07:58:37.282Z</time></trkpt><trkpt lat="45.5096205" lon="10.425868"><ele>172.0</ele><time>2026-03-29T07:58:38.282Z</time></trkpt><trkpt lat="45.5095153" lon="10.425815"><ele>172.0</ele><time>2026-03-29T07:58:39.281Z</time></trkpt><trkpt lat="45.5094057" lon="10.4257648"><ele>172.0</ele><time>2026-03-29T07:58:40.282Z</time></trkpt><trkpt lat="45.509297" lon="10.4257169"><ele>172.0</ele><time>2026-03-29T07:58:41.282Z</time></trkpt><trkpt lat="45.5092042" lon="10.4256744"><ele>172.0</ele><time>2026-03-29T07:58:42.281Z</time></trkpt><trkpt lat="45.5091236" lon="10.4256316"><ele>172.0</ele><time>2026-03-29T07:58:43.282Z</time></trkpt><trkpt lat="45.5090452" lon="10.4255927"><ele>172.0</ele><time>2026-03-29T07:58:44.282Z</time></trkpt><trkpt lat="45.5089719" lon="10.4255544"><ele>172.0</ele><time>2026-03-29T07:58:45.282Z</time></trkpt><trkpt lat="45.5089101" lon="10.4255173"><ele>172.0</ele><time>2026-03-29T07:58:46.281Z</time></trkpt><trkpt lat="45.5088121" lon="10.4254619"><ele>172.0</ele><time>2026-03-29T07:58:48.281Z</time></trkpt><trkpt lat="45.5087557" lon="10.4253984"><ele>172.0</ele><time>2026-03-29T07:58:50.282Z</time></trkpt><trkpt lat="45.5087169" lon="10.4252883"><ele>172.0</ele><time>2026-03-29T07:58:52.281Z</time></trkpt><trkpt lat="45.508638" lon="10.4252449"><ele>171.2</ele><time>2026-03-29T07:58:54.282Z</time></trkpt><trkpt lat="45.5085223" lon="10.4252302"><ele>170.39999999999998</ele><time>2026-03-29T07:58:56.281Z</time></trkpt><trkpt lat="45.508463" lon="10.4251874"><ele>169.60000000000002</ele><time>2026-03-29T07:58:57.281Z</time></trkpt><trkpt lat="45.5083964" lon="10.425126"><ele>168.8</ele><time>2026-03-29T07:58:58.281Z</time></trkpt><trkpt lat="45.5083224" lon="10.4250368"><ele>168.0</ele><time>2026-03-29T07:58:59.282Z</time></trkpt><trkpt lat="45.5082409" lon="10.4249467"><ele>168.0</ele><time>2026-03-29T07:59:00.281Z</time></trkpt><trkpt lat="45.5081609" lon="10.4248554"><ele>168.0</ele><time>2026-03-29T07:59:01.282Z</time></trkpt><trkpt lat="45.5080831" lon="10.4247559"><ele>168.0</ele><time>2026-03-29T07:59:02.282Z</time></trkpt><trkpt lat="45.5079999" lon="10.4246648"><ele>168.0</ele><time>2026-03-29T07:59:03.282Z</time></trkpt><trkpt lat="45.5079128" lon="10.4245813"><ele>168.0</ele><time>2026-03-29T07:59:04.281Z</time></trkpt><trkpt lat="45.5078275" lon="10.4244971"><ele>168.16666666666666</ele><time>2026-03-29T07:59:05.281Z</time></trkpt><trkpt lat="45.5077503" lon="10.4244123"><ele>168.33333333333334</ele><time>2026-03-29T07:59:06.282Z</time></trkpt><trkpt lat="45.5076804" lon="10.424332"><ele>168.5</ele><time>2026-03-29T07:59:07.282Z</time></trkpt><trkpt lat="45.5076202" lon="10.4242557"><ele>168.66666666666669</ele><time>2026-03-29T07:59:08.282Z</time></trkpt><trkpt lat="45.50757" lon="10.4241801"><ele>168.83333333333334</ele><time>2026-03-29T07:59:09.281Z</time></trkpt><trkpt lat="45.507493" lon="10.4240753"><ele>169.0</ele><time>2026-03-29T07:59:11.282Z</time></trkpt><trkpt lat="45.507437" lon="10.423951"><ele>169.2</ele><time>2026-03-29T07:59:13.282Z</time></trkpt><trkpt lat="45.5073672" lon="10.4237916"><ele>169.39999999999998</ele><time>2026-03-29T07:59:15.281Z</time></trkpt><trkpt lat="45.5073185" lon="10.4237117"><ele>169.6</ele><time>2026-03-29T07:59:16.281Z</time></trkpt><trkpt lat="45.5072626" lon="10.4236368"><ele>169.8</ele><time>2026-03-29T07:59:17.282Z</time></trkpt><trkpt lat="45.5071867" lon="10.4235813"><ele>170.0</ele><time>2026-03-29T07:59:18.281Z</time></trkpt><trkpt lat="45.5070881" lon="10.4235437"><ele>169.0</ele><time>2026-03-29T07:59:19.282Z</time></trkpt><trkpt lat="45.5069535" lon="10.4235264"><ele>168.0</ele><time>2026-03-29T07:59:20.282Z</time></trkpt><trkpt lat="45.5067955" lon="10.4235021"><ele>167.0</ele><time>2026-03-29T07:59:21.281Z</time></trkpt><trkpt lat="45.5066302" lon="10.4234756"><ele>167.0</ele><time>2026-03-29T07:59:22.282Z</time></trkpt><trkpt lat="45.5064642" lon="10.4234589"><ele>167.0</ele><time>2026-03-29T07:59:23.281Z</time></trkpt><trkpt lat="45.5063091" lon="10.423444"><ele>167.0</ele><time>2026-03-29T07:59:24.281Z</time></trkpt><trkpt lat="45.5061591" lon="10.423432"><ele>167.0</ele><time>2026-03-29T07:59:25.281Z</time></trkpt><trkpt lat="45.5060174" lon="10.4234281"><ele>167.0</ele><time>2026-03-29T07:59:26.282Z</time></trkpt><trkpt lat="45.5058867" lon="10.4234236"><ele>167.0</ele><time>2026-03-29T07:59:27.282Z</time></trkpt><trkpt lat="45.5057682" lon="10.4234013"><ele>167.0</ele><time>2026-03-29T07:59:28.281Z</time></trkpt><trkpt lat="45.5056658" lon="10.423352"><ele>167.0</ele><time>2026-03-29T07:59:29.282Z</time></trkpt><trkpt lat="45.5055774" lon="10.4232645"><ele>167.0</ele><time>2026-03-29T07:59:30.282Z</time></trkpt><trkpt lat="45.5054932" lon="10.4231699"><ele>167.0</ele><time>2026-03-29T07:59:31.281Z</time></trkpt><trkpt lat="45.5054103" lon="10.4230862"><ele>167.0</ele><time>2026-03-29T07:59:32.281Z</time></trkpt><trkpt lat="45.5053288" lon="10.4230139"><ele>167.0</ele><time>2026-03-29T07:59:33.282Z</time></trkpt><trkpt lat="45.50526" lon="10.4229537"><ele>167.2</ele><time>2026-03-29T07:59:34.281Z</time></trkpt><trkpt lat="45.5052024" lon="10.4229126"><ele>167.39999999999998</ele><time>2026-03-29T07:59:35.282Z</time></trkpt><trkpt lat="45.5051387" lon="10.4228721"><ele>167.60000000000002</ele><time>2026-03-29T07:59:36.281Z</time></trkpt><trkpt lat="45.5050562" lon="10.4228397"><ele>167.8</ele><time>2026-03-29T07:59:37.282Z</time></trkpt><trkpt lat="45.5049436" lon="10.4228276"><ele>168.0</ele><time>2026-03-29T07:59:38.281Z</time></trkpt><trkpt lat="45.5047941" lon="10.4228303"><ele>168.0</ele><time>2026-03-29T07:59:39.282Z</time></trkpt><trkpt lat="45.504635" lon="10.422836"><ele>168.0</ele><time>2026-03-29T07:59:40.282Z</time></trkpt><trkpt lat="45.5044795" lon="10.4228417"><ele>168.0</ele><time>2026-03-29T07:59:41.282Z</time></trkpt><trkpt lat="45.504337" lon="10.4228368"><ele>168.0</ele><time>2026-03-29T07:59:42.281Z</time></trkpt><trkpt lat="45.5041995" lon="10.4228306"><ele>168.0</ele><time>2026-03-29T07:59:43.281Z</time></trkpt><trkpt lat="45.5040666" lon="10.422802"><ele>168.0</ele><time>2026-03-29T07:59:44.281Z</time></trkpt><trkpt lat="45.5039238" lon="10.4227865"><ele>168.0</ele><time>2026-03-29T07:59:45.281Z</time></trkpt><trkpt lat="45.5037967" lon="10.4227766"><ele>167.8</ele><time>2026-03-29T07:59:46.282Z</time></trkpt><trkpt lat="45.5036841" lon="10.4227737"><ele>167.60000000000002</ele><time>2026-03-29T07:59:47.281Z</time></trkpt><trkpt lat="45.5035831" lon="10.4227774"><ele>167.39999999999998</ele><time>2026-03-29T07:59:48.282Z</time></trkpt><trkpt lat="45.5034868" lon="10.4227873"><ele>167.2</ele><time>2026-03-29T07:59:49.281Z</time></trkpt><trkpt lat="45.5033706" lon="10.4228133"><ele>167.0</ele><time>2026-03-29T07:59:50.281Z</time></trkpt><trkpt lat="45.5032444" lon="10.4228737"><ele>167.0</ele><time>2026-03-29T07:59:51.282Z</time></trkpt><trkpt lat="45.5031025" lon="10.422962"><ele>167.0</ele><time>2026-03-29T07:59:52.281Z</time></trkpt><trkpt lat="45.5029599" lon="10.4230711"><ele>167.0</ele><time>2026-03-29T07:59:53.281Z</time></trkpt><trkpt lat="45.5028129" lon="10.4232236"><ele>166.0</ele><time>2026-03-29T07:59:54.282Z</time></trkpt><trkpt lat="45.5026782" lon="10.4233632"><ele>165.0</ele><time>2026-03-29T07:59:55.281Z</time></trkpt><trkpt lat="45.5025509" lon="10.423475"><ele>164.0</ele><time>2026-03-29T07:59:56.281Z</time></trkpt><trkpt lat="45.5024191" lon="10.4235602"><ele>164.0</ele><time>2026-03-29T07:59:57.281Z</time></trkpt><trkpt lat="45.5022807" lon="10.4236084"><ele>164.0</ele><time>2026-03-29T07:59:58.281Z</time></trkpt><trkpt lat="45.5021377" lon="10.4236235"><ele>164.0</ele><time>2026-03-29T07:59:59.282Z</time></trkpt><trkpt lat="45.5020038" lon="10.4236146"><ele>164.0</ele><time>2026-03-29T08:00:00.282Z</time></trkpt><trkpt lat="45.5018895" lon="10.4235875"><ele>163.6</ele><time>2026-03-29T08:00:01.281Z</time></trkpt><trkpt lat="45.5017895" lon="10.4235738"><ele>163.2</ele><time>2026-03-29T08:00:02.282Z</time></trkpt><trkpt lat="45.5016906" lon="10.4235713"><ele>162.79999999999998</ele><time>2026-03-29T08:00:03.281Z</time></trkpt><trkpt lat="45.5015816" lon="10.4235781"><ele>162.39999999999998</ele><time>2026-03-29T08:00:04.281Z</time></trkpt><trkpt lat="45.50146" lon="10.4235823"><ele>162.0</ele><time>2026-03-29T08:00:05.282Z</time></trkpt><trkpt lat="45.5013288" lon="10.4235904"><ele>161.75</ele><time>2026-03-29T08:00:06.281Z</time></trkpt><trkpt lat="45.5011887" lon="10.4236099"><ele>161.5</ele><time>2026-03-29T08:00:07.282Z</time></trkpt><trkpt lat="45.5010435" lon="10.4236329"><ele>161.25</ele><time>2026-03-29T08:00:08.282Z</time></trkpt><trkpt lat="45.5008939" lon="10.4236491"><ele>161.0</ele><time>2026-03-29T08:00:09.281Z</time></trkpt><trkpt lat="45.5007443" lon="10.4236741"><ele>161.0</ele><time>2026-03-29T08:00:10.281Z</time></trkpt><trkpt lat="45.5006014" lon="10.4236911"><ele>161.0</ele><time>2026-03-29T08:00:11.281Z</time></trkpt><trkpt lat="45.5004562" lon="10.423707"><ele>161.0</ele><time>2026-03-29T08:00:12.281Z</time></trkpt><trkpt lat="45.5003096" lon="10.4237136"><ele>161.0</ele><time>2026-03-29T08:00:13.282Z</time></trkpt><trkpt lat="45.5001728" lon="10.4237272"><ele>160.75</ele><time>2026-03-29T08:00:14.281Z</time></trkpt><trkpt lat="45.5000465" lon="10.4237562"><ele>160.5</ele><time>2026-03-29T08:00:15.282Z</time></trkpt><trkpt lat="45.4999289" lon="10.4237981"><ele>160.25</ele><time>2026-03-29T08:00:16.282Z</time></trkpt><trkpt lat="45.4998123" lon="10.4238607"><ele>160.0</ele><time>2026-03-29T08:00:17.282Z</time></trkpt><trkpt lat="45.4996922" lon="10.4239411"><ele>159.66666666666669</ele><time>2026-03-29T08:00:18.281Z</time></trkpt><trkpt lat="45.4995616" lon="10.4240279"><ele>159.33333333333334</ele><time>2026-03-29T08:00:19.282Z</time></trkpt><trkpt lat="45.4994218" lon="10.4241332"><ele>159.0</ele><time>2026-03-29T08:00:20.282Z</time></trkpt><trkpt lat="45.4992816" lon="10.4242378"><ele>159.0</ele><time>2026-03-29T08:00:21.281Z</time></trkpt><trkpt lat="45.4991403" lon="10.4243437"><ele>159.0</ele><time>2026-03-29T08:00:22.282Z</time></trkpt><trkpt lat="45.4990003" lon="10.4244384"><ele>159.0</ele><time>2026-03-29T08:00:23.281Z</time></trkpt><trkpt lat="45.4988471" lon="10.4245273"><ele>159.0</ele><time>2026-03-29T08:00:24.281Z</time></trkpt><trkpt lat="45.4987025" lon="10.4246107"><ele>159.0</ele><time>2026-03-29T08:00:25.282Z</time></trkpt><trkpt lat="45.4985465" lon="10.4247106"><ele>159.0</ele><time>2026-03-29T08:00:26.282Z</time></trkpt><trkpt lat="45.4983961" lon="10.424817"><ele>159.0</ele><time>2026-03-29T08:00:27.282Z</time></trkpt><trkpt lat="45.4982473" lon="10.4249298"><ele>159.0</ele><time>2026-03-29T08:00:28.282Z</time></trkpt><trkpt lat="45.4981016" lon="10.4250349"><ele>159.0</ele><time>2026-03-29T08:00:29.282Z</time></trkpt><trkpt lat="45.4979567" lon="10.4251363"><ele>158.33333333333334</ele><time>2026-03-29T08:00:30.282Z</time></trkpt><trkpt lat="45.4978179" lon="10.4252393"><ele>157.66666666666669</ele><time>2026-03-29T08:00:31.281Z</time></trkpt><trkpt lat="45.497681" lon="10.4253397"><ele>157.0</ele><time>2026-03-29T08:00:32.282Z</time></trkpt><trkpt lat="45.4975412" lon="10.4254515"><ele>157.0</ele><time>2026-03-29T08:00:33.281Z</time></trkpt><trkpt lat="45.4973975" lon="10.4255653"><ele>157.0</ele><time>2026-03-29T08:00:34.282Z</time></trkpt><trkpt lat="45.4972478" lon="10.4256846"><ele>157.0</ele><time>2026-03-29T08:00:35.282Z</time></trkpt><trkpt lat="45.4971031" lon="10.425804"><ele>157.33333333333334</ele><time>2026-03-29T08:00:36.281Z</time></trkpt><trkpt lat="45.4969694" lon="10.4259296"><ele>157.66666666666666</ele><time>2026-03-29T08:00:37.281Z</time></trkpt><trkpt lat="45.4968438" lon="10.4260615"><ele>158.0</ele><time>2026-03-29T08:00:38.281Z</time></trkpt><trkpt lat="45.4967249" lon="10.4261971"><ele>157.66666666666666</ele><time>2026-03-29T08:00:39.281Z</time></trkpt><trkpt lat="45.4966053" lon="10.4263441"><ele>157.33333333333334</ele><time>2026-03-29T08:00:40.282Z</time></trkpt><trkpt lat="45.496486" lon="10.4264893"><ele>157.0</ele><time>2026-03-29T08:00:41.281Z</time></trkpt><trkpt lat="45.4963648" lon="10.4266386"><ele>157.0</ele><time>2026-03-29T08:00:42.281Z</time></trkpt><trkpt lat="45.4962477" lon="10.4267678"><ele>157.0</ele><time>2026-03-29T08:00:43.281Z</time></trkpt><trkpt lat="45.496131" lon="10.4268961"><ele>157.0</ele><time>2026-03-29T08:00:44.282Z</time></trkpt><trkpt lat="45.4960193" lon="10.4270282"><ele>157.0</ele><time>2026-03-29T08:00:45.281Z</time></trkpt><trkpt lat="45.4959016" lon="10.4271638"><ele>157.0</ele><time>2026-03-29T08:00:46.281Z</time></trkpt><trkpt lat="45.4957847" lon="10.4273003"><ele>157.0</ele><time>2026-03-29T08:00:47.281Z</time></trkpt><trkpt lat="45.4956667" lon="10.4274354"><ele>157.0</ele><time>2026-03-29T08:00:48.281Z</time></trkpt><trkpt lat="45.495545" lon="10.4275602"><ele>156.66666666666669</ele><time>2026-03-29T08:00:49.282Z</time></trkpt><trkpt lat="45.4954125" lon="10.427683"><ele>156.33333333333334</ele><time>2026-03-29T08:00:50.281Z</time></trkpt><trkpt lat="45.4952722" lon="10.4278021"><ele>156.0</ele><time>2026-03-29T08:00:51.281Z</time></trkpt><trkpt lat="45.4951388" lon="10.427914"><ele>155.75</ele><time>2026-03-29T08:00:52.281Z</time></trkpt><trkpt lat="45.4950091" lon="10.4280282"><ele>155.5</ele><time>2026-03-29T08:00:53.282Z</time></trkpt><trkpt lat="45.4948888" lon="10.4281383"><ele>155.25</ele><time>2026-03-29T08:00:54.281Z</time></trkpt><trkpt lat="45.4947743" lon="10.428233"><ele>155.0</ele><time>2026-03-29T08:00:55.281Z</time></trkpt><trkpt lat="45.4946649" lon="10.4283217"><ele>155.0</ele><time>2026-03-29T08:00:56.281Z</time></trkpt><trkpt lat="45.4945611" lon="10.4284154"><ele>155.0</ele><time>2026-03-29T08:00:57.282Z</time></trkpt><trkpt lat="45.4944541" lon="10.4285102"><ele>155.0</ele><time>2026-03-29T08:00:58.282Z</time></trkpt><trkpt lat="45.4943457" lon="10.428608"><ele>155.0</ele><time>2026-03-29T08:00:59.282Z</time></trkpt><trkpt lat="45.4942379" lon="10.4287073"><ele>155.0</ele><time>2026-03-29T08:01:00.282Z</time></trkpt><trkpt lat="45.4941282" lon="10.4288059"><ele>155.0</ele><time>2026-03-29T08:01:01.281Z</time></trkpt><trkpt lat="45.49402" lon="10.4289104"><ele>155.0</ele><time>2026-03-29T08:01:02.281Z</time></trkpt><trkpt lat="45.4939142" lon="10.4290064"><ele>155.0</ele><time>2026-03-29T08:01:03.281Z</time></trkpt><trkpt lat="45.4938207" lon="10.4290956"><ele>154.8</ele><time>2026-03-29T08:01:04.281Z</time></trkpt><trkpt lat="45.4937369" lon="10.4291826"><ele>154.6</ele><time>2026-03-29T08:01:05.282Z</time></trkpt><trkpt lat="45.493657" lon="10.429265"><ele>154.4</ele><time>2026-03-29T08:01:06.282Z</time></trkpt><trkpt lat="45.4935828" lon="10.4293303"><ele>154.2</ele><time>2026-03-29T08:01:07.281Z</time></trkpt><trkpt lat="45.4935207" lon="10.4293847"><ele>154.0</ele><time>2026-03-29T08:01:08.281Z</time></trkpt><trkpt lat="45.4934342" lon="10.4294685"><ele>154.0</ele><time>2026-03-29T08:01:10.282Z</time></trkpt><trkpt lat="45.4933638" lon="10.4295615"><ele>154.0</ele><time>2026-03-29T08:01:12.282Z</time></trkpt><trkpt lat="45.4932975" lon="10.4296555"><ele>154.0</ele><time>2026-03-29T08:01:14.282Z</time></trkpt><trkpt lat="45.4932255" lon="10.4297305"><ele>154.0</ele><time>2026-03-29T08:01:16.282Z</time></trkpt><trkpt lat="45.4931423" lon="10.429758"><ele>154.0</ele><time>2026-03-29T08:01:18.281Z</time></trkpt><trkpt lat="45.4930265" lon="10.4297117"><ele>154.0</ele><time>2026-03-29T08:01:20.281Z</time></trkpt><trkpt lat="45.4929459" lon="10.4296464"><ele>154.0</ele><time>2026-03-29T08:01:21.282Z</time></trkpt><trkpt lat="45.4928596" lon="10.4295632"><ele>154.0</ele><time>2026-03-29T08:01:22.281Z</time></trkpt><trkpt lat="45.492764" lon="10.429462"><ele>154.0</ele><time>2026-03-29T08:01:23.282Z</time></trkpt><trkpt lat="45.4926612" lon="10.4293638"><ele>154.0</ele><time>2026-03-29T08:01:24.281Z</time></trkpt><trkpt lat="45.4925412" lon="10.4292803"><ele>154.0</ele><time>2026-03-29T08:01:25.282Z</time></trkpt><trkpt lat="45.4924083" lon="10.4292429"><ele>154.0</ele><time>2026-03-29T08:01:26.282Z</time></trkpt><trkpt lat="45.4922607" lon="10.4292424"><ele>154.0</ele><time>2026-03-29T08:01:27.282Z</time></trkpt><trkpt lat="45.4921089" lon="10.4292506"><ele>154.0</ele><time>2026-03-29T08:01:28.281Z</time></trkpt><trkpt lat="45.4919588" lon="10.4292615"><ele>153.66666666666669</ele><time>2026-03-29T08:01:29.281Z</time></trkpt><trkpt lat="45.491805" lon="10.429273"><ele>153.33333333333334</ele><time>2026-03-29T08:01:30.282Z</time></trkpt><trkpt lat="45.4916418" lon="10.4292698"><ele>153.0</ele><time>2026-03-29T08:01:31.281Z</time></trkpt><trkpt lat="45.491492" lon="10.4292552"><ele>153.0</ele><time>2026-03-29T08:01:32.282Z</time></trkpt><trkpt lat="45.4913621" lon="10.4292403"><ele>153.0</ele><time>2026-03-29T08:01:33.281Z</time></trkpt><trkpt lat="45.4912399" lon="10.4292235"><ele>153.0</ele><time>2026-03-29T08:01:34.281Z</time></trkpt><trkpt lat="45.4911327" lon="10.4292061"><ele>153.0</ele><time>2026-03-29T08:01:35.281Z</time></trkpt><trkpt lat="45.4910416" lon="10.4291938"><ele>153.4</ele><time>2026-03-29T08:01:36.281Z</time></trkpt><trkpt lat="45.4909559" lon="10.4291976"><ele>153.8</ele><time>2026-03-29T08:01:37.282Z</time></trkpt><trkpt lat="45.4908791" lon="10.4292315"><ele>154.2</ele><time>2026-03-29T08:01:38.281Z</time></trkpt><trkpt lat="45.4907942" lon="10.4292985"><ele>154.6</ele><time>2026-03-29T08:01:39.282Z</time></trkpt><trkpt lat="45.4907385" lon="10.4294109"><ele>155.0</ele><time>2026-03-29T08:01:40.281Z</time></trkpt><trkpt lat="45.4907046" lon="10.4295728"><ele>154.66666666666666</ele><time>2026-03-29T08:01:41.282Z</time></trkpt><trkpt lat="45.4906846" lon="10.4297742"><ele>154.33333333333334</ele><time>2026-03-29T08:01:42.282Z</time></trkpt><trkpt lat="45.4906661" lon="10.4300118"><ele>154.0</ele><time>2026-03-29T08:01:43.282Z</time></trkpt><trkpt lat="45.4906493" lon="10.4302658"><ele>152.66666666666669</ele><time>2026-03-29T08:01:44.281Z</time></trkpt><trkpt lat="45.4906257" lon="10.4305118"><ele>151.33333333333334</ele><time>2026-03-29T08:01:45.282Z</time></trkpt><trkpt lat="45.4905918" lon="10.4307518"><ele>150.0</ele><time>2026-03-29T08:01:46.281Z</time></trkpt><trkpt lat="45.4905554" lon="10.4309753"><ele>150.0</ele><time>2026-03-29T08:01:47.282Z</time></trkpt><trkpt lat="45.4905202" lon="10.4311501"><ele>150.0</ele><time>2026-03-29T08:01:48.281Z</time></trkpt><trkpt lat="45.4904879" lon="10.4312869"><ele>150.0</ele><time>2026-03-29T08:01:49.282Z</time></trkpt><trkpt lat="45.4904399" lon="10.4313958"><ele>150.0</ele><time>2026-03-29T08:01:50.282Z</time></trkpt><trkpt lat="45.4903802" lon="10.4314818"><ele>150.0</ele><time>2026-03-29T08:01:51.281Z</time></trkpt><trkpt lat="45.4902827" lon="10.4315388"><ele>150.33333333333334</ele><time>2026-03-29T08:01:52.282Z</time></trkpt><trkpt lat="45.490149" lon="10.4315819"><ele>150.66666666666669</ele><time>2026-03-29T08:01:53.282Z</time></trkpt><trkpt lat="45.489998" lon="10.4316329"><ele>151.0</ele><time>2026-03-29T08:01:54.281Z</time></trkpt><trkpt lat="45.4898398" lon="10.4316822"><ele>151.0</ele><time>2026-03-29T08:01:55.281Z</time></trkpt><trkpt lat="45.4896777" lon="10.4317235"><ele>151.0</ele><time>2026-03-29T08:01:56.282Z</time></trkpt><trkpt lat="45.4895147" lon="10.4317576"><ele>151.0</ele><time>2026-03-29T08:01:57.282Z</time></trkpt><trkpt lat="45.489346" lon="10.4317798"><ele>150.66666666666669</ele><time>2026-03-29T08:01:58.281Z</time></trkpt><trkpt lat="45.4891685" lon="10.4317983"><ele>150.33333333333334</ele><time>2026-03-29T08:01:59.282Z</time></trkpt><trkpt lat="45.4889859" lon="10.4318191"><ele>150.0</ele><time>2026-03-29T08:02:00.281Z</time></trkpt><trkpt lat="45.4888006" lon="10.4318522"><ele>150.0</ele><time>2026-03-29T08:02:01.281Z</time></trkpt><trkpt lat="45.4886167" lon="10.4318989"><ele>150.0</ele><time>2026-03-29T08:02:02.282Z</time></trkpt><trkpt lat="45.4884349" lon="10.4319618"><ele>150.0</ele><time>2026-03-29T08:02:03.282Z</time></trkpt><trkpt lat="45.4882502" lon="10.4320394"><ele>150.0</ele><time>2026-03-29T08:02:04.282Z</time></trkpt><trkpt lat="45.488069" lon="10.4321241"><ele>150.0</ele><time>2026-03-29T08:02:05.281Z</time></trkpt><trkpt lat="45.4878931" lon="10.4322067"><ele>150.0</ele><time>2026-03-29T08:02:06.282Z</time></trkpt><trkpt lat="45.4877289" lon="10.4322868"><ele>150.33333333333334</ele><time>2026-03-29T08:02:07.281Z</time></trkpt><trkpt lat="45.4875764" lon="10.4323624"><ele>150.66666666666669</ele><time>2026-03-29T08:02:08.282Z</time></trkpt><trkpt lat="45.4874227" lon="10.4324322"><ele>151.0</ele><time>2026-03-29T08:02:09.281Z</time></trkpt><trkpt lat="45.4872766" lon="10.4324964"><ele>151.0</ele><time>2026-03-29T08:02:10.282Z</time></trkpt><trkpt lat="45.4871317" lon="10.4325582"><ele>151.0</ele><time>2026-03-29T08:02:11.282Z</time></trkpt><trkpt lat="45.4869845" lon="10.4326172"><ele>151.0</ele><time>2026-03-29T08:02:12.282Z</time></trkpt><trkpt lat="45.4868316" lon="10.4326744"><ele>151.0</ele><time>2026-03-29T08:02:13.281Z</time></trkpt><trkpt lat="45.4866772" lon="10.4327124"><ele>151.0</ele><time>2026-03-29T08:02:14.282Z</time></trkpt><trkpt lat="45.4865232" lon="10.4327588"><ele>151.0</ele><time>2026-03-29T08:02:15.281Z</time></trkpt><trkpt lat="45.4863683" lon="10.4328132"><ele>150.5</ele><time>2026-03-29T08:02:16.281Z</time></trkpt><trkpt lat="45.4862179" lon="10.4328506"><ele>150.0</ele><time>2026-03-29T08:02:17.281Z</time></trkpt><trkpt lat="45.4860698" lon="10.4328699"><ele>149.5</ele><time>2026-03-29T08:02:18.281Z</time></trkpt><trkpt lat="45.4859234" lon="10.4328661"><ele>149.0</ele><time>2026-03-29T08:02:19.281Z</time></trkpt><trkpt lat="45.4857833" lon="10.432832"><ele>149.0</ele><time>2026-03-29T08:02:20.281Z</time></trkpt><trkpt lat="45.4856553" lon="10.4327627"><ele>149.0</ele><time>2026-03-29T08:02:21.282Z</time></trkpt><trkpt lat="45.485518" lon="10.4326567"><ele>149.0</ele><time>2026-03-29T08:02:22.282Z</time></trkpt><trkpt lat="45.4853724" lon="10.4325452"><ele>149.0</ele><time>2026-03-29T08:02:23.281Z</time></trkpt><trkpt lat="45.4852135" lon="10.4324303"><ele>149.0</ele><time>2026-03-29T08:02:24.282Z</time></trkpt><trkpt lat="45.4850493" lon="10.4323291"><ele>149.0</ele><time>2026-03-29T08:02:25.282Z</time></trkpt><trkpt lat="45.4848695" lon="10.4322441"><ele>149.0</ele><time>2026-03-29T08:02:26.282Z</time></trkpt><trkpt lat="45.484678" lon="10.4321744"><ele>149.0</ele><time>2026-03-29T08:02:27.281Z</time></trkpt><trkpt lat="45.4844767" lon="10.4321081"><ele>149.0</ele><time>2026-03-29T08:02:28.281Z</time></trkpt><trkpt lat="45.4842695" lon="10.4320398"><ele>148.66666666666666</ele><time>2026-03-29T08:02:29.282Z</time></trkpt><trkpt lat="45.484063" lon="10.4319694"><ele>148.33333333333334</ele><time>2026-03-29T08:02:30.282Z</time></trkpt><trkpt lat="45.4838667" lon="10.4318988"><ele>148.0</ele><time>2026-03-29T08:02:31.282Z</time></trkpt><trkpt lat="45.4836809" lon="10.4318267"><ele>147.0</ele><time>2026-03-29T08:02:32.282Z</time></trkpt><trkpt lat="45.4834992" lon="10.4317552"><ele>146.0</ele><time>2026-03-29T08:02:33.282Z</time></trkpt><trkpt lat="45.4833218" lon="10.4316935"><ele>145.0</ele><time>2026-03-29T08:02:34.281Z</time></trkpt><trkpt lat="45.4831366" lon="10.4316309"><ele>145.0</ele><time>2026-03-29T08:02:35.281Z</time></trkpt><trkpt lat="45.4829439" lon="10.4315785"><ele>145.0</ele><time>2026-03-29T08:02:36.281Z</time></trkpt><trkpt lat="45.4827442" lon="10.4315361"><ele>145.0</ele><time>2026-03-29T08:02:37.28Z</time></trkpt><trkpt lat="45.4825401" lon="10.4315002"><ele>145.0</ele><time>2026-03-29T08:02:38.281Z</time></trkpt><trkpt lat="45.4823407" lon="10.4314639"><ele>145.0</ele><time>2026-03-29T08:02:39.281Z</time></trkpt><trkpt lat="45.4821507" lon="10.4314361"><ele>145.0</ele><time>2026-03-29T08:02:40.28Z</time></trkpt><trkpt lat="45.4819634" lon="10.4314179"><ele>145.0</ele><time>2026-03-29T08:02:41.28Z</time></trkpt><trkpt lat="45.4817796" lon="10.4314167"><ele>145.0</ele><time>2026-03-29T08:02:42.28Z</time></trkpt><trkpt lat="45.4816031" lon="10.4314355"><ele>145.0</ele><time>2026-03-29T08:02:43.28Z</time></trkpt><trkpt lat="45.4814314" lon="10.4314611"><ele>144.66666666666669</ele><time>2026-03-29T08:02:44.281Z</time></trkpt><trkpt lat="45.4812605" lon="10.4314877"><ele>144.33333333333334</ele><time>2026-03-29T08:02:45.281Z</time></trkpt><trkpt lat="45.4810945" lon="10.4314976"><ele>144.0</ele><time>2026-03-29T08:02:46.281Z</time></trkpt><trkpt lat="45.4809442" lon="10.4314925"><ele>144.0</ele><time>2026-03-29T08:02:47.28Z</time></trkpt><trkpt lat="45.4807977" lon="10.4314568"><ele>144.0</ele><time>2026-03-29T08:02:48.281Z</time></trkpt><trkpt lat="45.4806566" lon="10.4313813"><ele>144.0</ele><time>2026-03-29T08:02:49.281Z</time></trkpt><trkpt lat="45.480508" lon="10.4312769"><ele>143.66666666666666</ele><time>2026-03-29T08:02:50.281Z</time></trkpt><trkpt lat="45.4803636" lon="10.4311599"><ele>143.33333333333331</ele><time>2026-03-29T08:02:51.28Z</time></trkpt><trkpt lat="45.480218" lon="10.4310389"><ele>143.0</ele><time>2026-03-29T08:02:52.28Z</time></trkpt><trkpt lat="45.4800665" lon="10.4309235"><ele>143.0</ele><time>2026-03-29T08:02:53.281Z</time></trkpt><trkpt lat="45.4799039" lon="10.4308164"><ele>143.0</ele><time>2026-03-29T08:02:54.281Z</time></trkpt><trkpt lat="45.4797255" lon="10.430701"><ele>143.0</ele><time>2026-03-29T08:02:55.28Z</time></trkpt><trkpt lat="45.4795461" lon="10.4305951"><ele>142.66666666666666</ele><time>2026-03-29T08:02:56.28Z</time></trkpt><trkpt lat="45.4793582" lon="10.4304994"><ele>142.33333333333334</ele><time>2026-03-29T08:02:57.281Z</time></trkpt><trkpt lat="45.479169" lon="10.4304319"><ele>142.0</ele><time>2026-03-29T08:02:58.281Z</time></trkpt><trkpt lat="45.478977" lon="10.4303773"><ele>141.66666666666669</ele><time>2026-03-29T08:02:59.281Z</time></trkpt><trkpt lat="45.4787886" lon="10.4303283"><ele>141.33333333333334</ele><time>2026-03-29T08:03:00.28Z</time></trkpt><trkpt lat="45.4786189" lon="10.4302771"><ele>141.0</ele><time>2026-03-29T08:03:01.281Z</time></trkpt><trkpt lat="45.4784442" lon="10.430225"><ele>141.0</ele><time>2026-03-29T08:03:02.281Z</time></trkpt><trkpt lat="45.4782687" lon="10.4301741"><ele>141.0</ele><time>2026-03-29T08:03:03.28Z</time></trkpt><trkpt lat="45.4780948" lon="10.4301252"><ele>141.0</ele><time>2026-03-29T08:03:04.281Z</time></trkpt><trkpt lat="45.4779228" lon="10.4300876"><ele>140.75</ele><time>2026-03-29T08:03:05.281Z</time></trkpt><trkpt lat="45.4777644" lon="10.4300479"><ele>140.5</ele><time>2026-03-29T08:03:06.28Z</time></trkpt><trkpt lat="45.4776122" lon="10.4300212"><ele>140.25</ele><time>2026-03-29T08:03:07.281Z</time></trkpt><trkpt lat="45.477482" lon="10.4300069"><ele>140.0</ele><time>2026-03-29T08:03:08.28Z</time></trkpt><trkpt lat="45.4773721" lon="10.4299917"><ele>140.0</ele><time>2026-03-29T08:03:09.281Z</time></trkpt><trkpt lat="45.4772737" lon="10.4299856"><ele>140.0</ele><time>2026-03-29T08:03:10.28Z</time></trkpt><trkpt lat="45.4771983" lon="10.4299828"><ele>140.0</ele><time>2026-03-29T08:03:11.28Z</time></trkpt><trkpt lat="45.4771349" lon="10.4300056"><ele>140.0</ele><time>2026-03-29T08:03:12.28Z</time></trkpt><trkpt lat="45.4770778" lon="10.4300639"><ele>140.0</ele><time>2026-03-29T08:03:13.281Z</time></trkpt><trkpt lat="45.4770365" lon="10.4301777"><ele>140.0</ele><time>2026-03-29T08:03:14.28Z</time></trkpt><trkpt lat="45.4770097" lon="10.4303398"><ele>139.8</ele><time>2026-03-29T08:03:15.28Z</time></trkpt><trkpt lat="45.4769872" lon="10.4305243"><ele>139.6</ele><time>2026-03-29T08:03:16.28Z</time></trkpt><trkpt lat="45.4769617" lon="10.4306941"><ele>139.4</ele><time>2026-03-29T08:03:17.281Z</time></trkpt><trkpt lat="45.4769297" lon="10.4308379"><ele>139.2</ele><time>2026-03-29T08:03:18.281Z</time></trkpt><trkpt lat="45.4768804" lon="10.4309311"><ele>139.0</ele><time>2026-03-29T08:03:19.281Z</time></trkpt><trkpt lat="45.4768078" lon="10.4309916"><ele>139.0</ele><time>2026-03-29T08:03:20.281Z</time></trkpt><trkpt lat="45.4767118" lon="10.4310119"><ele>139.0</ele><time>2026-03-29T08:03:21.281Z</time></trkpt><trkpt lat="45.4765956" lon="10.4309824"><ele>139.0</ele><time>2026-03-29T08:03:22.281Z</time></trkpt><trkpt lat="45.4764553" lon="10.4309153"><ele>139.0</ele><time>2026-03-29T08:03:23.28Z</time></trkpt><trkpt lat="45.4763086" lon="10.430832"><ele>139.33333333333334</ele><time>2026-03-29T08:03:24.28Z</time></trkpt><trkpt lat="45.476151" lon="10.4307476"><ele>139.66666666666666</ele><time>2026-03-29T08:03:25.281Z</time></trkpt><trkpt lat="45.4759857" lon="10.4306661"><ele>140.0</ele><time>2026-03-29T08:03:26.28Z</time></trkpt><trkpt lat="45.4758153" lon="10.4305837"><ele>140.0</ele><time>2026-03-29T08:03:27.28Z</time></trkpt><trkpt lat="45.4756449" lon="10.4304964"><ele>140.0</ele><time>2026-03-29T08:03:28.281Z</time></trkpt><trkpt lat="45.4754812" lon="10.4303991"><ele>140.0</ele><time>2026-03-29T08:03:29.281Z</time></trkpt><trkpt lat="45.475325" lon="10.4302979"><ele>139.66666666666666</ele><time>2026-03-29T08:03:30.28Z</time></trkpt><trkpt lat="45.4751686" lon="10.4302055"><ele>139.33333333333334</ele><time>2026-03-29T08:03:31.28Z</time></trkpt><trkpt lat="45.474999" lon="10.4301094"><ele>139.0</ele><time>2026-03-29T08:03:32.28Z</time></trkpt><trkpt lat="45.4748202" lon="10.4300246"><ele>139.0</ele><time>2026-03-29T08:03:33.28Z</time></trkpt><trkpt lat="45.4746392" lon="10.4299372"><ele>139.0</ele><time>2026-03-29T08:03:34.28Z</time></trkpt><trkpt lat="45.4744642" lon="10.4298553"><ele>139.0</ele><time>2026-03-29T08:03:35.28Z</time></trkpt><trkpt lat="45.4743051" lon="10.4297747"><ele>138.75</ele><time>2026-03-29T08:03:36.281Z</time></trkpt><trkpt lat="45.4741671" lon="10.4297069"><ele>138.5</ele><time>2026-03-29T08:03:37.281Z</time></trkpt><trkpt lat="45.4740447" lon="10.4296467"><ele>138.25</ele><time>2026-03-29T08:03:38.28Z</time></trkpt><trkpt lat="45.4739363" lon="10.4295933"><ele>138.0</ele><time>2026-03-29T08:03:39.28Z</time></trkpt><trkpt lat="45.4738387" lon="10.4295482"><ele>137.83333333333334</ele><time>2026-03-29T08:03:40.281Z</time></trkpt><trkpt lat="45.4737568" lon="10.4295107"><ele>137.66666666666666</ele><time>2026-03-29T08:03:41.28Z</time></trkpt><trkpt lat="45.4736968" lon="10.4294789"><ele>137.5</ele><time>2026-03-29T08:03:42.281Z</time></trkpt><trkpt lat="45.4736344" lon="10.4294573"><ele>137.33333333333331</ele><time>2026-03-29T08:03:45.281Z</time></trkpt><trkpt lat="45.4735856" lon="10.429592"><ele>137.16666666666666</ele><time>2026-03-29T08:03:53.281Z</time></trkpt><trkpt lat="45.4735608" lon="10.4297157"><ele>137.0</ele><time>2026-03-29T08:03:54.281Z</time></trkpt><trkpt lat="45.4735386" lon="10.4298589"><ele>137.0</ele><time>2026-03-29T08:03:55.281Z</time></trkpt><trkpt lat="45.4735155" lon="10.4300179"><ele>137.0</ele><time>2026-03-29T08:03:56.28Z</time></trkpt><trkpt lat="45.4734882" lon="10.4301923"><ele>137.0</ele><time>2026-03-29T08:03:57.28Z</time></trkpt><trkpt lat="45.4734677" lon="10.4303736"><ele>137.0</ele><time>2026-03-29T08:03:58.281Z</time></trkpt><trkpt lat="45.4734409" lon="10.4305631"><ele>137.0</ele><time>2026-03-29T08:03:59.28Z</time></trkpt><trkpt lat="45.4734119" lon="10.4307659"><ele>137.0</ele><time>2026-03-29T08:04:00.281Z</time></trkpt><trkpt lat="45.4733669" lon="10.4309778"><ele>137.0</ele><time>2026-03-29T08:04:01.281Z</time></trkpt><trkpt lat="45.4733158" lon="10.4311933"><ele>137.66666666666666</ele><time>2026-03-29T08:04:02.281Z</time></trkpt><trkpt lat="45.4732445" lon="10.4314118"><ele>138.33333333333334</ele><time>2026-03-29T08:04:03.28Z</time></trkpt><trkpt lat="45.4731765" lon="10.4316317"><ele>139.0</ele><time>2026-03-29T08:04:04.281Z</time></trkpt><trkpt lat="45.4731091" lon="10.4318569"><ele>139.0</ele><time>2026-03-29T08:04:05.281Z</time></trkpt><trkpt lat="45.4730395" lon="10.4320828"><ele>139.0</ele><time>2026-03-29T08:04:06.28Z</time></trkpt><trkpt lat="45.4729818" lon="10.4323106"><ele>139.0</ele><time>2026-03-29T08:04:07.281Z</time></trkpt><trkpt lat="45.4729174" lon="10.4325411"><ele>139.0</ele><time>2026-03-29T08:04:08.28Z</time></trkpt><trkpt lat="45.4728545" lon="10.4327726"><ele>139.0</ele><time>2026-03-29T08:04:09.281Z</time></trkpt><trkpt lat="45.472791" lon="10.4329987"><ele>139.0</ele><time>2026-03-29T08:04:10.28Z</time></trkpt><trkpt lat="45.47273" lon="10.4332342"><ele>139.33333333333334</ele><time>2026-03-29T08:04:11.28Z</time></trkpt><trkpt lat="45.4726651" lon="10.4334672"><ele>139.66666666666666</ele><time>2026-03-29T08:04:12.281Z</time></trkpt><trkpt lat="45.4725961" lon="10.4336983"><ele>140.0</ele><time>2026-03-29T08:04:13.281Z</time></trkpt><trkpt lat="45.47254" lon="10.4339173"><ele>139.5</ele><time>2026-03-29T08:04:14.281Z</time></trkpt><trkpt lat="45.4724929" lon="10.4341144"><ele>139.0</ele><time>2026-03-29T08:04:15.281Z</time></trkpt><trkpt lat="45.4724425" lon="10.4343007"><ele>138.5</ele><time>2026-03-29T08:04:16.281Z</time></trkpt><trkpt lat="45.4723924" lon="10.4344881"><ele>138.0</ele><time>2026-03-29T08:04:17.28Z</time></trkpt><trkpt lat="45.4723504" lon="10.4346607"><ele>137.75</ele><time>2026-03-29T08:04:18.281Z</time></trkpt><trkpt lat="45.4722993" lon="10.4348199"><ele>137.5</ele><time>2026-03-29T08:04:19.281Z</time></trkpt><trkpt lat="45.4722444" lon="10.434967"><ele>137.25</ele><time>2026-03-29T08:04:20.281Z</time></trkpt><trkpt lat="45.4721709" lon="10.4351184"><ele>137.0</ele><time>2026-03-29T08:04:21.281Z</time></trkpt><trkpt lat="45.4721209" lon="10.435275"><ele>137.0</ele><time>2026-03-29T08:04:22.281Z</time></trkpt><trkpt lat="45.4721069" lon="10.4354406"><ele>137.0</ele><time>2026-03-29T08:04:23.281Z</time></trkpt><trkpt lat="45.4720891" lon="10.4356384"><ele>137.0</ele><time>2026-03-29T08:04:24.28Z</time></trkpt><trkpt lat="45.4720377" lon="10.435875"><ele>137.0</ele><time>2026-03-29T08:04:25.281Z</time></trkpt><trkpt lat="45.4719626" lon="10.4361434"><ele>138.0</ele><time>2026-03-29T08:04:26.28Z</time></trkpt><trkpt lat="45.4718716" lon="10.4364426"><ele>139.0</ele><time>2026-03-29T08:04:27.281Z</time></trkpt><trkpt lat="45.4717737" lon="10.4367495"><ele>139.0</ele><time>2026-03-29T08:04:28.28Z</time></trkpt><trkpt lat="45.4716765" lon="10.4370573"><ele>139.0</ele><time>2026-03-29T08:04:29.28Z</time></trkpt><trkpt lat="45.4715871" lon="10.4373587"><ele>138.66666666666669</ele><time>2026-03-29T08:04:30.28Z</time></trkpt><trkpt lat="45.4715046" lon="10.4376544"><ele>138.33333333333334</ele><time>2026-03-29T08:04:31.281Z</time></trkpt><trkpt lat="45.471436" lon="10.4379423"><ele>138.0</ele><time>2026-03-29T08:04:32.281Z</time></trkpt><trkpt lat="45.4713646" lon="10.438222"><ele>138.0</ele><time>2026-03-29T08:04:33.281Z</time></trkpt><trkpt lat="45.4712861" lon="10.4384972"><ele>138.0</ele><time>2026-03-29T08:04:34.28Z</time></trkpt><trkpt lat="45.4712094" lon="10.4387691"><ele>138.0</ele><time>2026-03-29T08:04:35.28Z</time></trkpt><trkpt lat="45.4711349" lon="10.4390244"><ele>138.0</ele><time>2026-03-29T08:04:36.28Z</time></trkpt><trkpt lat="45.471071" lon="10.4392559"><ele>138.0</ele><time>2026-03-29T08:04:37.28Z</time></trkpt><trkpt lat="45.4710134" lon="10.4394739"><ele>138.0</ele><time>2026-03-29T08:04:38.281Z</time></trkpt><trkpt lat="45.4709685" lon="10.4396626"><ele>138.20000000000002</ele><time>2026-03-29T08:04:39.281Z</time></trkpt><trkpt lat="45.4709378" lon="10.4398248"><ele>138.4</ele><time>2026-03-29T08:04:40.281Z</time></trkpt><trkpt lat="45.470915" lon="10.439981"><ele>138.60000000000002</ele><time>2026-03-29T08:04:41.281Z</time></trkpt><trkpt lat="45.4709001" lon="10.4401043"><ele>138.8</ele><time>2026-03-29T08:04:42.281Z</time></trkpt><trkpt lat="45.4708815" lon="10.4402117"><ele>139.0</ele><time>2026-03-29T08:04:43.28Z</time></trkpt><trkpt lat="45.470848" lon="10.4403025"><ele>139.0</ele><time>2026-03-29T08:04:44.281Z</time></trkpt><trkpt lat="45.4707978" lon="10.4403695"><ele>139.0</ele><time>2026-03-29T08:04:45.281Z</time></trkpt><trkpt lat="45.4707248" lon="10.4404043"><ele>139.0</ele><time>2026-03-29T08:04:46.28Z</time></trkpt><trkpt lat="45.4706361" lon="10.4404106"><ele>139.0</ele><time>2026-03-29T08:04:47.281Z</time></trkpt><trkpt lat="45.4705332" lon="10.4403969"><ele>139.0</ele><time>2026-03-29T08:04:48.28Z</time></trkpt><trkpt lat="45.4704121" lon="10.4403737"><ele>139.25</ele><time>2026-03-29T08:04:49.28Z</time></trkpt><trkpt lat="45.47028" lon="10.4403518"><ele>139.5</ele><time>2026-03-29T08:04:50.281Z</time></trkpt><trkpt lat="45.4701414" lon="10.4403412"><ele>139.75</ele><time>2026-03-29T08:04:51.28Z</time></trkpt><trkpt lat="45.470002" lon="10.4403468"><ele>140.0</ele><time>2026-03-29T08:04:52.28Z</time></trkpt><trkpt lat="45.4698571" lon="10.4403644"><ele>140.0</ele><time>2026-03-29T08:04:53.281Z</time></trkpt><trkpt lat="45.4697171" lon="10.4403826"><ele>140.0</ele><time>2026-03-29T08:04:54.28Z</time></trkpt><trkpt lat="45.4695863" lon="10.4403938"><ele>140.0</ele><time>2026-03-29T08:04:55.281Z</time></trkpt><trkpt lat="45.4694517" lon="10.4404207"><ele>140.0</ele><time>2026-03-29T08:04:56.281Z</time></trkpt><trkpt lat="45.4693315" lon="10.4404497"><ele>139.6</ele><time>2026-03-29T08:04:57.281Z</time></trkpt><trkpt lat="45.4692114" lon="10.4404676"><ele>139.2</ele><time>2026-03-29T08:04:58.28Z</time></trkpt><trkpt lat="45.4690972" lon="10.4404906"><ele>138.8</ele><time>2026-03-29T08:04:59.28Z</time></trkpt><trkpt lat="45.4690012" lon="10.4405126"><ele>138.4</ele><time>2026-03-29T08:05:00.281Z</time></trkpt><trkpt lat="45.4689218" lon="10.4405448"><ele>138.0</ele><time>2026-03-29T08:05:01.28Z</time></trkpt><trkpt lat="45.4688465" lon="10.4405841"><ele>138.33333333333334</ele><time>2026-03-29T08:05:02.28Z</time></trkpt><trkpt lat="45.4687692" lon="10.4406115"><ele>138.66666666666666</ele><time>2026-03-29T08:05:03.281Z</time></trkpt><trkpt lat="45.4686891" lon="10.440634"><ele>139.0</ele><time>2026-03-29T08:05:04.28Z</time></trkpt><trkpt lat="45.4686041" lon="10.4406522"><ele>139.33333333333331</ele><time>2026-03-29T08:05:05.28Z</time></trkpt><trkpt lat="45.4685139" lon="10.4406717"><ele>139.66666666666666</ele><time>2026-03-29T08:05:06.28Z</time></trkpt><trkpt lat="45.4684268" lon="10.4406816"><ele>140.0</ele><time>2026-03-29T08:05:07.28Z</time></trkpt><trkpt lat="45.4683473" lon="10.4406869"><ele>140.0</ele><time>2026-03-29T08:05:08.281Z</time></trkpt><trkpt lat="45.4682689" lon="10.4406839"><ele>140.0</ele><time>2026-03-29T08:05:09.281Z</time></trkpt><trkpt lat="45.4681897" lon="10.4406597"><ele>140.0</ele><time>2026-03-29T08:05:10.281Z</time></trkpt><trkpt lat="45.468109" lon="10.4406166"><ele>140.0</ele><time>2026-03-29T08:05:11.281Z</time></trkpt><trkpt lat="45.4680167" lon="10.4405916"><ele>140.0</ele><time>2026-03-29T08:05:12.28Z</time></trkpt><trkpt lat="45.4679237" lon="10.4405832"><ele>140.0</ele><time>2026-03-29T08:05:13.281Z</time></trkpt><trkpt lat="45.4678277" lon="10.4405875"><ele>139.75</ele><time>2026-03-29T08:05:14.281Z</time></trkpt><trkpt lat="45.467715" lon="10.4406187"><ele>139.5</ele><time>2026-03-29T08:05:15.28Z</time></trkpt><trkpt lat="45.4675952" lon="10.44065"><ele>139.25</ele><time>2026-03-29T08:05:16.28Z</time></trkpt><trkpt lat="45.4674657" lon="10.4406749"><ele>139.0</ele><time>2026-03-29T08:05:17.281Z</time></trkpt><trkpt lat="45.4673188" lon="10.4407007"><ele>139.0</ele><time>2026-03-29T08:05:18.281Z</time></trkpt><trkpt lat="45.4671575" lon="10.4407297"><ele>139.0</ele><time>2026-03-29T08:05:19.281Z</time></trkpt><trkpt lat="45.467" lon="10.4407459"><ele>139.0</ele><time>2026-03-29T08:05:20.281Z</time></trkpt><trkpt lat="45.4668466" lon="10.4407649"><ele>138.0</ele><time>2026-03-29T08:05:21.28Z</time></trkpt><trkpt lat="45.4666916" lon="10.4407858"><ele>137.0</ele><time>2026-03-29T08:05:22.281Z</time></trkpt><trkpt lat="45.4665298" lon="10.4408085"><ele>136.0</ele><time>2026-03-29T08:05:23.28Z</time></trkpt><trkpt lat="45.4663614" lon="10.4408355"><ele>135.66666666666669</ele><time>2026-03-29T08:05:24.28Z</time></trkpt><trkpt lat="45.4661913" lon="10.4408661"><ele>135.33333333333334</ele><time>2026-03-29T08:05:25.281Z</time></trkpt><trkpt lat="45.4660141" lon="10.4409083"><ele>135.0</ele><time>2026-03-29T08:05:26.28Z</time></trkpt><trkpt lat="45.4658298" lon="10.440956"><ele>135.0</ele><time>2026-03-29T08:05:27.28Z</time></trkpt><trkpt lat="45.465645" lon="10.4410121"><ele>135.0</ele><time>2026-03-29T08:05:28.28Z</time></trkpt><trkpt lat="45.4654591" lon="10.4410778"><ele>135.0</ele><time>2026-03-29T08:05:29.281Z</time></trkpt><trkpt lat="45.4652726" lon="10.4411347"><ele>134.66666666666666</ele><time>2026-03-29T08:05:30.28Z</time></trkpt><trkpt lat="45.4650942" lon="10.441189"><ele>134.33333333333331</ele><time>2026-03-29T08:05:31.281Z</time></trkpt><trkpt lat="45.4649272" lon="10.4412473"><ele>134.0</ele><time>2026-03-29T08:05:32.281Z</time></trkpt><trkpt lat="45.4647663" lon="10.4412968"><ele>134.66666666666666</ele><time>2026-03-29T08:05:33.28Z</time></trkpt><trkpt lat="45.464602" lon="10.4413415"><ele>135.33333333333334</ele><time>2026-03-29T08:05:34.28Z</time></trkpt><trkpt lat="45.4644304" lon="10.4413805"><ele>136.0</ele><time>2026-03-29T08:05:35.28Z</time></trkpt><trkpt lat="45.4642368" lon="10.4414061"><ele>136.0</ele><time>2026-03-29T08:05:36.28Z</time></trkpt><trkpt lat="45.4640206" lon="10.4414209"><ele>136.0</ele><time>2026-03-29T08:05:37.28Z</time></trkpt><trkpt lat="45.4638001" lon="10.4414288"><ele>136.0</ele><time>2026-03-29T08:05:38.281Z</time></trkpt><trkpt lat="45.463584" lon="10.4414355"><ele>135.66666666666669</ele><time>2026-03-29T08:05:39.281Z</time></trkpt><trkpt lat="45.4633649" lon="10.4414507"><ele>135.33333333333334</ele><time>2026-03-29T08:05:40.281Z</time></trkpt><trkpt lat="45.4631583" lon="10.4414722"><ele>135.0</ele><time>2026-03-29T08:05:41.281Z</time></trkpt><trkpt lat="45.4629571" lon="10.4414997"><ele>134.66666666666666</ele><time>2026-03-29T08:05:42.28Z</time></trkpt><trkpt lat="45.4627593" lon="10.4415342"><ele>134.33333333333331</ele><time>2026-03-29T08:05:43.281Z</time></trkpt><trkpt lat="45.4625653" lon="10.4415772"><ele>134.0</ele><time>2026-03-29T08:05:44.281Z</time></trkpt><trkpt lat="45.4623783" lon="10.441625"><ele>134.0</ele><time>2026-03-29T08:05:45.281Z</time></trkpt><trkpt lat="45.4622006" lon="10.4416733"><ele>134.0</ele><time>2026-03-29T08:05:46.28Z</time></trkpt><trkpt lat="45.4620305" lon="10.4417216"><ele>134.0</ele><time>2026-03-29T08:05:47.281Z</time></trkpt><trkpt lat="45.4618583" lon="10.4417708"><ele>134.0</ele><time>2026-03-29T08:05:48.281Z</time></trkpt><trkpt lat="45.4616872" lon="10.4418237"><ele>134.0</ele><time>2026-03-29T08:05:49.28Z</time></trkpt><trkpt lat="45.4615169" lon="10.4418763"><ele>134.0</ele><time>2026-03-29T08:05:50.28Z</time></trkpt><trkpt lat="45.461341" lon="10.4419285"><ele>133.66666666666666</ele><time>2026-03-29T08:05:51.281Z</time></trkpt><trkpt lat="45.461159" lon="10.4419827"><ele>133.33333333333334</ele><time>2026-03-29T08:05:52.28Z</time></trkpt><trkpt lat="45.460977" lon="10.4420394"><ele>133.0</ele><time>2026-03-29T08:05:53.281Z</time></trkpt><trkpt lat="45.4607813" lon="10.4420895"><ele>133.0</ele><time>2026-03-29T08:05:54.281Z</time></trkpt><trkpt lat="45.4605834" lon="10.4421509"><ele>133.0</ele><time>2026-03-29T08:05:55.28Z</time></trkpt><trkpt lat="45.4603818" lon="10.4422091"><ele>133.0</ele><time>2026-03-29T08:05:56.281Z</time></trkpt><trkpt lat="45.4601816" lon="10.4422577"><ele>133.0</ele><time>2026-03-29T08:05:57.281Z</time></trkpt><trkpt lat="45.4599893" lon="10.4423028"><ele>133.0</ele><time>2026-03-29T08:05:58.28Z</time></trkpt><trkpt lat="45.4598024" lon="10.4423605"><ele>133.0</ele><time>2026-03-29T08:05:59.281Z</time></trkpt><trkpt lat="45.459621" lon="10.4424081"><ele>132.33333333333334</ele><time>2026-03-29T08:06:00.281Z</time></trkpt><trkpt lat="45.4594418" lon="10.4424532"><ele>131.66666666666666</ele><time>2026-03-29T08:06:01.281Z</time></trkpt><trkpt lat="45.4592803" lon="10.4425059"><ele>131.0</ele><time>2026-03-29T08:06:02.28Z</time></trkpt><trkpt lat="45.4591249" lon="10.4425559"><ele>131.0</ele><time>2026-03-29T08:06:03.28Z</time></trkpt><trkpt lat="45.4589774" lon="10.4425991"><ele>131.0</ele><time>2026-03-29T08:06:04.28Z</time></trkpt><trkpt lat="45.4588493" lon="10.4426336"><ele>131.0</ele><time>2026-03-29T08:06:05.281Z</time></trkpt><trkpt lat="45.458738" lon="10.4426659"><ele>131.0</ele><time>2026-03-29T08:06:06.281Z</time></trkpt><trkpt lat="45.4586376" lon="10.4426938"><ele>130.83333333333331</ele><time>2026-03-29T08:06:07.281Z</time></trkpt><trkpt lat="45.4585499" lon="10.442721"><ele>130.66666666666666</ele><time>2026-03-29T08:06:08.28Z</time></trkpt><trkpt lat="45.4584793" lon="10.4427478"><ele>130.5</ele><time>2026-03-29T08:06:09.28Z</time></trkpt><trkpt lat="45.4584035" lon="10.4428677"><ele>130.33333333333334</ele><time>2026-03-29T08:06:11.28Z</time></trkpt><trkpt lat="45.4583888" lon="10.4429751"><ele>130.16666666666669</ele><time>2026-03-29T08:06:12.28Z</time></trkpt><trkpt lat="45.4583796" lon="10.4430945"><ele>130.0</ele><time>2026-03-29T08:06:13.281Z</time></trkpt><trkpt lat="45.4583571" lon="10.4431962"><ele>130.0</ele><time>2026-03-29T08:06:14.28Z</time></trkpt><trkpt lat="45.4582602" lon="10.443327"><ele>130.0</ele><time>2026-03-29T08:06:16.28Z</time></trkpt><trkpt lat="45.4581606" lon="10.4433672"><ele>130.0</ele><time>2026-03-29T08:06:17.28Z</time></trkpt><trkpt lat="45.4580245" lon="10.4433912"><ele>130.0</ele><time>2026-03-29T08:06:18.28Z</time></trkpt><trkpt lat="45.457867" lon="10.443404"><ele>130.0</ele><time>2026-03-29T08:06:19.281Z</time></trkpt><trkpt lat="45.4577097" lon="10.4434094"><ele>130.0</ele><time>2026-03-29T08:06:20.28Z</time></trkpt><trkpt lat="45.4575583" lon="10.4434148"><ele>130.0</ele><time>2026-03-29T08:06:21.281Z</time></trkpt><trkpt lat="45.4574159" lon="10.4434421"><ele>130.0</ele><time>2026-03-29T08:06:22.281Z</time></trkpt><trkpt lat="45.4572799" lon="10.4434846"><ele>130.0</ele><time>2026-03-29T08:06:23.281Z</time></trkpt><trkpt lat="45.4571386" lon="10.4435316"><ele>130.0</ele><time>2026-03-29T08:06:24.28Z</time></trkpt><trkpt lat="45.4569783" lon="10.4435546"><ele>130.0</ele><time>2026-03-29T08:06:25.281Z</time></trkpt><trkpt lat="45.4568223" lon="10.4435475"><ele>129.66666666666669</ele><time>2026-03-29T08:06:26.281Z</time></trkpt><trkpt lat="45.4566611" lon="10.4435171"><ele>129.33333333333334</ele><time>2026-03-29T08:06:27.28Z</time></trkpt><trkpt lat="45.4564993" lon="10.4434773"><ele>129.0</ele><time>2026-03-29T08:06:28.281Z</time></trkpt><trkpt lat="45.4563394" lon="10.4434414"><ele>129.66666666666666</ele><time>2026-03-29T08:06:29.281Z</time></trkpt><trkpt lat="45.456171" lon="10.4434169"><ele>130.33333333333331</ele><time>2026-03-29T08:06:30.281Z</time></trkpt><trkpt lat="45.4560169" lon="10.443398"><ele>131.0</ele><time>2026-03-29T08:06:31.28Z</time></trkpt><trkpt lat="45.4558878" lon="10.4433773"><ele>131.0</ele><time>2026-03-29T08:06:32.281Z</time></trkpt><trkpt lat="45.4557988" lon="10.4433616"><ele>131.0</ele><time>2026-03-29T08:06:33.28Z</time></trkpt><trkpt lat="45.4557045" lon="10.4433467"><ele>131.0</ele><time>2026-03-29T08:06:35.28Z</time></trkpt><trkpt lat="45.4555845" lon="10.4433461"><ele>131.0</ele><time>2026-03-29T08:06:37.28Z</time></trkpt><trkpt lat="45.4555079" lon="10.4433488"><ele>131.0</ele><time>2026-03-29T08:06:38.28Z</time></trkpt><trkpt lat="45.4554221" lon="10.4433574"><ele>130.5</ele><time>2026-03-29T08:06:39.28Z</time></trkpt><trkpt lat="45.4553274" lon="10.4433906"><ele>130.0</ele><time>2026-03-29T08:06:40.28Z</time></trkpt><trkpt lat="45.4552221" lon="10.4434415"><ele>129.5</ele><time>2026-03-29T08:06:41.28Z</time></trkpt><trkpt lat="45.4551061" lon="10.4435039"><ele>129.0</ele><time>2026-03-29T08:06:42.281Z</time></trkpt><trkpt lat="45.4549908" lon="10.4435628"><ele>129.0</ele><time>2026-03-29T08:06:43.281Z</time></trkpt><trkpt lat="45.4548795" lon="10.4436126"><ele>129.0</ele><time>2026-03-29T08:06:44.281Z</time></trkpt><trkpt lat="45.4547648" lon="10.4436597"><ele>129.0</ele><time>2026-03-29T08:06:45.281Z</time></trkpt><trkpt lat="45.4546439" lon="10.4437111"><ele>129.0</ele><time>2026-03-29T08:06:46.281Z</time></trkpt><trkpt lat="45.454519" lon="10.4437595"><ele>128.75</ele><time>2026-03-29T08:06:47.28Z</time></trkpt><trkpt lat="45.4543951" lon="10.4438129"><ele>128.5</ele><time>2026-03-29T08:06:48.28Z</time></trkpt><trkpt lat="45.4542777" lon="10.4438569"><ele>128.25</ele><time>2026-03-29T08:06:49.28Z</time></trkpt><trkpt lat="45.4541532" lon="10.4438963"><ele>128.0</ele><time>2026-03-29T08:06:50.28Z</time></trkpt><trkpt lat="45.4540266" lon="10.4439143"><ele>128.0</ele><time>2026-03-29T08:06:51.28Z</time></trkpt><trkpt lat="45.4538943" lon="10.4439221"><ele>128.0</ele><time>2026-03-29T08:06:52.281Z</time></trkpt><trkpt lat="45.4537615" lon="10.443927"><ele>128.0</ele><time>2026-03-29T08:06:53.281Z</time></trkpt><trkpt lat="45.4536222" lon="10.4439392"><ele>128.0</ele><time>2026-03-29T08:06:54.28Z</time></trkpt><trkpt lat="45.4534737" lon="10.4439517"><ele>128.0</ele><time>2026-03-29T08:06:55.281Z</time></trkpt><trkpt lat="45.4533213" lon="10.4439762"><ele>128.0</ele><time>2026-03-29T08:06:56.28Z</time></trkpt><trkpt lat="45.4531644" lon="10.4440065"><ele>128.0</ele><time>2026-03-29T08:06:57.28Z</time></trkpt><trkpt lat="45.4529957" lon="10.4440401"><ele>127.33333333333333</ele><time>2026-03-29T08:06:58.28Z</time></trkpt><trkpt lat="45.4528384" lon="10.4440649"><ele>126.66666666666666</ele><time>2026-03-29T08:06:59.281Z</time></trkpt><trkpt lat="45.4526839" lon="10.4440964"><ele>126.0</ele><time>2026-03-29T08:07:00.281Z</time></trkpt><trkpt lat="45.4525301" lon="10.4441281"><ele>126.0</ele><time>2026-03-29T08:07:01.28Z</time></trkpt><trkpt lat="45.4523774" lon="10.4441625"><ele>126.0</ele><time>2026-03-29T08:07:02.28Z</time></trkpt><trkpt lat="45.4522287" lon="10.4441926"><ele>126.0</ele><time>2026-03-29T08:07:03.281Z</time></trkpt><trkpt lat="45.4520822" lon="10.4442196"><ele>126.25</ele><time>2026-03-29T08:07:04.28Z</time></trkpt><trkpt lat="45.4519386" lon="10.4442511"><ele>126.5</ele><time>2026-03-29T08:07:05.28Z</time></trkpt><trkpt lat="45.4517943" lon="10.444289"><ele>126.75</ele><time>2026-03-29T08:07:06.28Z</time></trkpt><trkpt lat="45.4516434" lon="10.4443294"><ele>127.0</ele><time>2026-03-29T08:07:07.28Z</time></trkpt><trkpt lat="45.4515015" lon="10.4443639"><ele>127.0</ele><time>2026-03-29T08:07:08.28Z</time></trkpt><trkpt lat="45.4513613" lon="10.4443816"><ele>127.0</ele><time>2026-03-29T08:07:09.281Z</time></trkpt><trkpt lat="45.4512131" lon="10.444395"><ele>127.0</ele><time>2026-03-29T08:07:10.28Z</time></trkpt><trkpt lat="45.4510599" lon="10.4444158"><ele>127.0</ele><time>2026-03-29T08:07:11.28Z</time></trkpt><trkpt lat="45.4509087" lon="10.4444404"><ele>126.33333333333334</ele><time>2026-03-29T08:07:12.28Z</time></trkpt><trkpt lat="45.4507559" lon="10.4444668"><ele>125.66666666666666</ele><time>2026-03-29T08:07:13.281Z</time></trkpt><trkpt lat="45.4506071" lon="10.4444921"><ele>125.0</ele><time>2026-03-29T08:07:14.28Z</time></trkpt><trkpt lat="45.4504524" lon="10.4445151"><ele>124.5</ele><time>2026-03-29T08:07:15.28Z</time></trkpt><trkpt lat="45.4503015" lon="10.4445485"><ele>124.0</ele><time>2026-03-29T08:07:16.281Z</time></trkpt><trkpt lat="45.4501557" lon="10.444576"><ele>123.5</ele><time>2026-03-29T08:07:17.281Z</time></trkpt><trkpt lat="45.4500152" lon="10.4445992"><ele>123.0</ele><time>2026-03-29T08:07:18.28Z</time></trkpt><trkpt lat="45.4498776" lon="10.444622"><ele>123.25</ele><time>2026-03-29T08:07:19.28Z</time></trkpt><trkpt lat="45.4497345" lon="10.4446457"><ele>123.5</ele><time>2026-03-29T08:07:20.281Z</time></trkpt><trkpt lat="45.4495876" lon="10.4446725"><ele>123.75</ele><time>2026-03-29T08:07:21.28Z</time></trkpt><trkpt lat="45.4494461" lon="10.4447025"><ele>124.0</ele><time>2026-03-29T08:07:22.281Z</time></trkpt><trkpt lat="45.4493002" lon="10.4447328"><ele>124.25</ele><time>2026-03-29T08:07:23.28Z</time></trkpt><trkpt lat="45.4491545" lon="10.4447504"><ele>124.5</ele><time>2026-03-29T08:07:24.28Z</time></trkpt><trkpt lat="45.4490138" lon="10.4447675"><ele>124.75</ele><time>2026-03-29T08:07:25.281Z</time></trkpt><trkpt lat="45.4488684" lon="10.4447853"><ele>125.0</ele><time>2026-03-29T08:07:26.281Z</time></trkpt><trkpt lat="45.4487299" lon="10.4448008"><ele>124.5</ele><time>2026-03-29T08:07:27.281Z</time></trkpt><trkpt lat="45.4485899" lon="10.4448228"><ele>124.0</ele><time>2026-03-29T08:07:28.281Z</time></trkpt><trkpt lat="45.4484448" lon="10.4448491"><ele>123.5</ele><time>2026-03-29T08:07:29.28Z</time></trkpt><trkpt lat="45.4483058" lon="10.4448721"><ele>123.0</ele><time>2026-03-29T08:07:30.281Z</time></trkpt><trkpt lat="45.4481603" lon="10.4448979"><ele>123.0</ele><time>2026-03-29T08:07:31.28Z</time></trkpt><trkpt lat="45.4480016" lon="10.444927"><ele>123.0</ele><time>2026-03-29T08:07:32.281Z</time></trkpt><trkpt lat="45.4478503" lon="10.4449638"><ele>123.0</ele><time>2026-03-29T08:07:33.281Z</time></trkpt><trkpt lat="45.4477036" lon="10.445001"><ele>122.5</ele><time>2026-03-29T08:07:34.281Z</time></trkpt><trkpt lat="45.4475641" lon="10.4450222"><ele>122.0</ele><time>2026-03-29T08:07:35.281Z</time></trkpt><trkpt lat="45.4474284" lon="10.4450394"><ele>121.5</ele><time>2026-03-29T08:07:36.281Z</time></trkpt><trkpt lat="45.4472815" lon="10.4450585"><ele>121.0</ele><time>2026-03-29T08:07:37.28Z</time></trkpt><trkpt lat="45.4471194" lon="10.4450886"><ele>121.0</ele><time>2026-03-29T08:07:38.281Z</time></trkpt><trkpt lat="45.4469708" lon="10.4451185"><ele>121.0</ele><time>2026-03-29T08:07:39.28Z</time></trkpt><trkpt lat="45.4468386" lon="10.4451503"><ele>121.0</ele><time>2026-03-29T08:07:40.281Z</time></trkpt><trkpt lat="45.4467138" lon="10.4451735"><ele>121.0</ele><time>2026-03-29T08:07:41.28Z</time></trkpt><trkpt lat="45.4465943" lon="10.4451972"><ele>121.0</ele><time>2026-03-29T08:07:42.28Z</time></trkpt><trkpt lat="45.4464786" lon="10.4452159"><ele>121.0</ele><time>2026-03-29T08:07:43.28Z</time></trkpt><trkpt lat="45.4463553" lon="10.445231"><ele>121.0</ele><time>2026-03-29T08:07:44.28Z</time></trkpt><trkpt lat="45.4462272" lon="10.4452332"><ele>121.0</ele><time>2026-03-29T08:07:45.28Z</time></trkpt><trkpt lat="45.4460948" lon="10.4452196"><ele>121.0</ele><time>2026-03-29T08:07:46.281Z</time></trkpt><trkpt lat="45.4459479" lon="10.4451949"><ele>121.0</ele><time>2026-03-29T08:07:47.281Z</time></trkpt><trkpt lat="45.4457856" lon="10.4451847"><ele>121.0</ele><time>2026-03-29T08:07:48.28Z</time></trkpt><trkpt lat="45.4456274" lon="10.4451744"><ele>121.0</ele><time>2026-03-29T08:07:49.281Z</time></trkpt><trkpt lat="45.445464" lon="10.4451643"><ele>121.0</ele><time>2026-03-29T08:07:50.281Z</time></trkpt><trkpt lat="45.4452832" lon="10.4451646"><ele>121.0</ele><time>2026-03-29T08:07:51.28Z</time></trkpt><trkpt lat="45.4451002" lon="10.4451717"><ele>121.33333333333334</ele><time>2026-03-29T08:07:52.28Z</time></trkpt><trkpt lat="45.4449222" lon="10.4451752"><ele>121.66666666666666</ele><time>2026-03-29T08:07:53.281Z</time></trkpt><trkpt lat="45.4447438" lon="10.4451604"><ele>122.0</ele><time>2026-03-29T08:07:54.28Z</time></trkpt><trkpt lat="45.4445542" lon="10.4451694"><ele>121.33333333333333</ele><time>2026-03-29T08:07:55.28Z</time></trkpt><trkpt lat="45.4443681" lon="10.4451675"><ele>120.66666666666666</ele><time>2026-03-29T08:07:56.28Z</time></trkpt><trkpt lat="45.4441743" lon="10.4451597"><ele>120.0</ele><time>2026-03-29T08:07:57.281Z</time></trkpt><trkpt lat="45.443972" lon="10.4451615"><ele>120.33333333333334</ele><time>2026-03-29T08:07:58.281Z</time></trkpt><trkpt lat="45.4437666" lon="10.4451615"><ele>120.66666666666667</ele><time>2026-03-29T08:07:59.281Z</time></trkpt><trkpt lat="45.4435614" lon="10.4451666"><ele>121.0</ele><time>2026-03-29T08:08:00.281Z</time></trkpt><trkpt lat="45.4433627" lon="10.4451738"><ele>121.0</ele><time>2026-03-29T08:08:01.281Z</time></trkpt><trkpt lat="45.4431709" lon="10.4451726"><ele>121.0</ele><time>2026-03-29T08:08:02.28Z</time></trkpt><trkpt lat="45.4429892" lon="10.4451744"><ele>121.0</ele><time>2026-03-29T08:08:03.28Z</time></trkpt><trkpt lat="45.4428056" lon="10.4451715"><ele>121.33333333333334</ele><time>2026-03-29T08:08:04.281Z</time></trkpt><trkpt lat="45.4426301" lon="10.4451639"><ele>121.66666666666666</ele><time>2026-03-29T08:08:05.281Z</time></trkpt><trkpt lat="45.4424707" lon="10.4451529"><ele>122.0</ele><time>2026-03-29T08:08:06.281Z</time></trkpt><trkpt lat="45.4423121" lon="10.4451574"><ele>122.0</ele><time>2026-03-29T08:08:07.28Z</time></trkpt><trkpt lat="45.4421455" lon="10.4451685"><ele>122.0</ele><time>2026-03-29T08:08:08.281Z</time></trkpt><trkpt lat="45.44197" lon="10.445171"><ele>122.0</ele><time>2026-03-29T08:08:09.281Z</time></trkpt><trkpt lat="45.4417952" lon="10.4451784"><ele>121.66666666666666</ele><time>2026-03-29T08:08:10.281Z</time></trkpt><trkpt lat="45.4416156" lon="10.445188"><ele>121.33333333333334</ele><time>2026-03-29T08:08:11.28Z</time></trkpt><trkpt lat="45.4414286" lon="10.4451919"><ele>121.0</ele><time>2026-03-29T08:08:12.28Z</time></trkpt><trkpt lat="45.4412323" lon="10.4451815"><ele>120.66666666666667</ele><time>2026-03-29T08:08:13.28Z</time></trkpt><trkpt lat="45.4410477" lon="10.4451755"><ele>120.33333333333334</ele><time>2026-03-29T08:08:14.28Z</time></trkpt><trkpt lat="45.4408693" lon="10.4451654"><ele>120.0</ele><time>2026-03-29T08:08:15.281Z</time></trkpt><trkpt lat="45.4406931" lon="10.4451604"><ele>120.0</ele><time>2026-03-29T08:08:16.281Z</time></trkpt><trkpt lat="45.4405253" lon="10.4451637"><ele>120.0</ele><time>2026-03-29T08:08:17.28Z</time></trkpt><trkpt lat="45.4403681" lon="10.4451599"><ele>120.0</ele><time>2026-03-29T08:08:18.28Z</time></trkpt><trkpt lat="45.4402225" lon="10.4451627"><ele>120.0</ele><time>2026-03-29T08:08:19.28Z</time></trkpt><trkpt lat="45.4400951" lon="10.4451681"><ele>120.0</ele><time>2026-03-29T08:08:20.281Z</time></trkpt><trkpt lat="45.4399855" lon="10.4451723"><ele>120.0</ele><time>2026-03-29T08:08:21.28Z</time></trkpt><trkpt lat="45.4399029" lon="10.4451769"><ele>120.0</ele><time>2026-03-29T08:08:22.28Z</time></trkpt><trkpt lat="45.4398363" lon="10.4451819"><ele>120.0</ele><time>2026-03-29T08:08:23.281Z</time></trkpt><trkpt lat="45.4397343" lon="10.4451612"><ele>120.0</ele><time>2026-03-29T08:08:25.28Z</time></trkpt><trkpt lat="45.4396394" lon="10.4451245"><ele>120.0</ele><time>2026-03-29T08:08:31.281Z</time></trkpt><trkpt lat="45.4395483" lon="10.4451544"><ele>120.0</ele><time>2026-03-29T08:08:32.281Z</time></trkpt><trkpt lat="45.4394188" lon="10.4451919"><ele>120.0</ele><time>2026-03-29T08:08:33.28Z</time></trkpt><trkpt lat="45.4392619" lon="10.445232"><ele>120.0</ele><time>2026-03-29T08:08:34.28Z</time></trkpt><trkpt lat="45.4390887" lon="10.4452816"><ele>120.0</ele><time>2026-03-29T08:08:35.281Z</time></trkpt><trkpt lat="45.4389288" lon="10.4453365"><ele>120.0</ele><time>2026-03-29T08:08:36.281Z</time></trkpt><trkpt lat="45.4387765" lon="10.4453931"><ele>120.0</ele><time>2026-03-29T08:08:37.281Z</time></trkpt><trkpt lat="45.4386427" lon="10.4454409"><ele>120.0</ele><time>2026-03-29T08:08:38.28Z</time></trkpt><trkpt lat="45.438518" lon="10.4454845"><ele>120.0</ele><time>2026-03-29T08:08:39.281Z</time></trkpt><trkpt lat="45.4383914" lon="10.4455194"><ele>120.0</ele><time>2026-03-29T08:08:40.28Z</time></trkpt><trkpt lat="45.4382627" lon="10.4455579"><ele>120.0</ele><time>2026-03-29T08:08:41.28Z</time></trkpt><trkpt lat="45.4381384" lon="10.4456046"><ele>120.0</ele><time>2026-03-29T08:08:42.281Z</time></trkpt><trkpt lat="45.4380103" lon="10.4456461"><ele>120.0</ele><time>2026-03-29T08:08:43.281Z</time></trkpt><trkpt lat="45.4378797" lon="10.4456876"><ele>120.0</ele><time>2026-03-29T08:08:44.28Z</time></trkpt><trkpt lat="45.4377437" lon="10.4457377"><ele>120.0</ele><time>2026-03-29T08:08:45.281Z</time></trkpt><trkpt lat="45.4376175" lon="10.4457861"><ele>120.0</ele><time>2026-03-29T08:08:46.281Z</time></trkpt><trkpt lat="45.4374992" lon="10.4458299"><ele>120.0</ele><time>2026-03-29T08:08:47.28Z</time></trkpt><trkpt lat="45.4373883" lon="10.4458834"><ele>120.0</ele><time>2026-03-29T08:08:48.281Z</time></trkpt><trkpt lat="45.4372819" lon="10.4459407"><ele>120.0</ele><time>2026-03-29T08:08:49.281Z</time></trkpt><trkpt lat="45.4371804" lon="10.4460029"><ele>120.0</ele><time>2026-03-29T08:08:50.281Z</time></trkpt><trkpt lat="45.4370864" lon="10.4460862"><ele>120.0</ele><time>2026-03-29T08:08:51.28Z</time></trkpt><trkpt lat="45.4369979" lon="10.4462048"><ele>120.0</ele><time>2026-03-29T08:08:52.28Z</time></trkpt><trkpt lat="45.436905" lon="10.4463345"><ele>119.5</ele><time>2026-03-29T08:08:53.281Z</time></trkpt><trkpt lat="45.4368087" lon="10.4464724"><ele>119.0</ele><time>2026-03-29T08:08:54.281Z</time></trkpt><trkpt lat="45.4367092" lon="10.446613"><ele>118.5</ele><time>2026-03-29T08:08:55.281Z</time></trkpt><trkpt lat="45.4366119" lon="10.4467415"><ele>118.0</ele><time>2026-03-29T08:08:56.28Z</time></trkpt><trkpt lat="45.4365131" lon="10.4468722"><ele>118.0</ele><time>2026-03-29T08:08:57.281Z</time></trkpt><trkpt lat="45.4364174" lon="10.4470007"><ele>118.0</ele><time>2026-03-29T08:08:58.281Z</time></trkpt><trkpt lat="45.4363249" lon="10.4471297"><ele>118.0</ele><time>2026-03-29T08:08:59.281Z</time></trkpt><trkpt lat="45.4362354" lon="10.4472566"><ele>118.0</ele><time>2026-03-29T08:09:00.28Z</time></trkpt><trkpt lat="45.436143" lon="10.4473846"><ele>117.75</ele><time>2026-03-29T08:09:01.281Z</time></trkpt><trkpt lat="45.4360445" lon="10.4475138"><ele>117.5</ele><time>2026-03-29T08:09:02.28Z</time></trkpt><trkpt lat="45.4359392" lon="10.4476492"><ele>117.25</ele><time>2026-03-29T08:09:03.28Z</time></trkpt><trkpt lat="45.4358307" lon="10.4477815"><ele>117.0</ele><time>2026-03-29T08:09:04.281Z</time></trkpt><trkpt lat="45.4357204" lon="10.4479018"><ele>117.0</ele><time>2026-03-29T08:09:05.281Z</time></trkpt><trkpt lat="45.4356135" lon="10.4480146"><ele>117.0</ele><time>2026-03-29T08:09:06.281Z</time></trkpt><trkpt lat="45.4355109" lon="10.448129"><ele>117.0</ele><time>2026-03-29T08:09:07.281Z</time></trkpt><trkpt lat="45.4354122" lon="10.4482426"><ele>117.0</ele><time>2026-03-29T08:09:08.281Z</time></trkpt><trkpt lat="45.4353119" lon="10.448357"><ele>117.0</ele><time>2026-03-29T08:09:09.28Z</time></trkpt><trkpt lat="45.4352125" lon="10.4484783"><ele>117.0</ele><time>2026-03-29T08:09:10.281Z</time></trkpt><trkpt lat="45.4351099" lon="10.448611"><ele>117.0</ele><time>2026-03-29T08:09:11.281Z</time></trkpt><trkpt lat="45.4350008" lon="10.4487487"><ele>117.0</ele><time>2026-03-29T08:09:12.28Z</time></trkpt><trkpt lat="45.4348927" lon="10.4488959"><ele>117.0</ele><time>2026-03-29T08:09:13.281Z</time></trkpt><trkpt lat="45.4347817" lon="10.4490442"><ele>117.0</ele><time>2026-03-29T08:09:14.281Z</time></trkpt><trkpt lat="45.4346763" lon="10.4491998"><ele>117.0</ele><time>2026-03-29T08:09:15.28Z</time></trkpt><trkpt lat="45.4345723" lon="10.4493597"><ele>117.0</ele><time>2026-03-29T08:09:16.28Z</time></trkpt><trkpt lat="45.4344711" lon="10.4495059"><ele>117.0</ele><time>2026-03-29T08:09:17.28Z</time></trkpt><trkpt lat="45.4343762" lon="10.4496373"><ele>117.0</ele><time>2026-03-29T08:09:18.281Z</time></trkpt><trkpt lat="45.4342875" lon="10.4497542"><ele>117.0</ele><time>2026-03-29T08:09:19.281Z</time></trkpt><trkpt lat="45.4342105" lon="10.4498638"><ele>117.0</ele><time>2026-03-29T08:09:20.279Z</time></trkpt><trkpt lat="45.4341335" lon="10.449963"><ele>116.99999999999999</ele><time>2026-03-29T08:09:21.28Z</time></trkpt><trkpt lat="45.434053" lon="10.4500603"><ele>116.99999999999999</ele><time>2026-03-29T08:09:22.279Z</time></trkpt><trkpt lat="45.4339709" lon="10.4501596"><ele>117.0</ele><time>2026-03-29T08:09:23.279Z</time></trkpt><trkpt lat="45.4338823" lon="10.4502726"><ele>117.0</ele><time>2026-03-29T08:09:24.28Z</time></trkpt><trkpt lat="45.4337846" lon="10.4503988"><ele>117.0</ele><time>2026-03-29T08:09:25.28Z</time></trkpt><trkpt lat="45.4336857" lon="10.4505323"><ele>117.0</ele><time>2026-03-29T08:09:26.279Z</time></trkpt><trkpt lat="45.4335831" lon="10.4506707"><ele>117.0</ele><time>2026-03-29T08:09:27.28Z</time></trkpt><trkpt lat="45.4334783" lon="10.4508102"><ele>117.0</ele><time>2026-03-29T08:09:28.28Z</time></trkpt><trkpt lat="45.433373" lon="10.4509492"><ele>117.0</ele><time>2026-03-29T08:09:29.279Z</time></trkpt><trkpt lat="45.4332663" lon="10.451076"><ele>117.0</ele><time>2026-03-29T08:09:30.279Z</time></trkpt><trkpt lat="45.4331618" lon="10.4512116"><ele>117.0</ele><time>2026-03-29T08:09:31.28Z</time></trkpt><trkpt lat="45.4330543" lon="10.4513513"><ele>117.0</ele><time>2026-03-29T08:09:32.28Z</time></trkpt><trkpt lat="45.4329471" lon="10.4514943"><ele>116.75</ele><time>2026-03-29T08:09:33.28Z</time></trkpt><trkpt lat="45.4328454" lon="10.4516287"><ele>116.5</ele><time>2026-03-29T08:09:34.279Z</time></trkpt><trkpt lat="45.4327515" lon="10.4517596"><ele>116.25</ele><time>2026-03-29T08:09:35.279Z</time></trkpt><trkpt lat="45.4326632" lon="10.4518891"><ele>116.0</ele><time>2026-03-29T08:09:36.279Z</time></trkpt><trkpt lat="45.4325702" lon="10.4520215"><ele>116.0</ele><time>2026-03-29T08:09:37.279Z</time></trkpt><trkpt lat="45.43247" lon="10.4521632"><ele>116.0</ele><time>2026-03-29T08:09:38.279Z</time></trkpt><trkpt lat="45.4323701" lon="10.4523021"><ele>116.0</ele><time>2026-03-29T08:09:39.279Z</time></trkpt><trkpt lat="45.4322682" lon="10.4524507"><ele>116.0</ele><time>2026-03-29T08:09:40.279Z</time></trkpt><trkpt lat="45.4321712" lon="10.4526008"><ele>116.0</ele><time>2026-03-29T08:09:41.28Z</time></trkpt><trkpt lat="45.4320768" lon="10.4527467"><ele>116.0</ele><time>2026-03-29T08:09:42.28Z</time></trkpt><trkpt lat="45.4319843" lon="10.452882"><ele>116.0</ele><time>2026-03-29T08:09:43.28Z</time></trkpt><trkpt lat="45.4318937" lon="10.4530204"><ele>116.0</ele><time>2026-03-29T08:09:44.279Z</time></trkpt><trkpt lat="45.4318032" lon="10.4531663"><ele>116.0</ele><time>2026-03-29T08:09:45.28Z</time></trkpt><trkpt lat="45.4317171" lon="10.453313"><ele>116.0</ele><time>2026-03-29T08:09:46.28Z</time></trkpt><trkpt lat="45.4316336" lon="10.4534476"><ele>116.0</ele><time>2026-03-29T08:09:47.28Z</time></trkpt><trkpt lat="45.4315455" lon="10.4535728"><ele>116.0</ele><time>2026-03-29T08:09:48.28Z</time></trkpt><trkpt lat="45.431452" lon="10.4537093"><ele>116.0</ele><time>2026-03-29T08:09:49.279Z</time></trkpt><trkpt lat="45.4313569" lon="10.4538581"><ele>116.0</ele><time>2026-03-29T08:09:50.28Z</time></trkpt><trkpt lat="45.4312706" lon="10.4539965"><ele>116.0</ele><time>2026-03-29T08:09:51.279Z</time></trkpt><trkpt lat="45.4311796" lon="10.4541302"><ele>116.0</ele><time>2026-03-29T08:09:52.28Z</time></trkpt><trkpt lat="45.4310903" lon="10.454262"><ele>116.0</ele><time>2026-03-29T08:09:53.28Z</time></trkpt><trkpt lat="45.4310033" lon="10.4543879"><ele>116.0</ele><time>2026-03-29T08:09:54.28Z</time></trkpt><trkpt lat="45.4309187" lon="10.4544935"><ele>116.0</ele><time>2026-03-29T08:09:55.279Z</time></trkpt><trkpt lat="45.4308451" lon="10.4545645"><ele>116.0</ele><time>2026-03-29T08:09:56.28Z</time></trkpt><trkpt lat="45.4307696" lon="10.4546005"><ele>116.0</ele><time>2026-03-29T08:09:57.28Z</time></trkpt><trkpt lat="45.4306867" lon="10.4546265"><ele>116.0</ele><time>2026-03-29T08:09:58.279Z</time></trkpt><trkpt lat="45.4306043" lon="10.4546803"><ele>116.0</ele><time>2026-03-29T08:09:59.28Z</time></trkpt><trkpt lat="45.4305036" lon="10.4547772"><ele>116.0</ele><time>2026-03-29T08:10:00.279Z</time></trkpt><trkpt lat="45.4303925" lon="10.4549029"><ele>116.0</ele><time>2026-03-29T08:10:01.28Z</time></trkpt><trkpt lat="45.4302721" lon="10.4550378"><ele>115.66666666666666</ele><time>2026-03-29T08:10:02.279Z</time></trkpt><trkpt lat="45.430148" lon="10.4551692"><ele>115.33333333333334</ele><time>2026-03-29T08:10:03.28Z</time></trkpt><trkpt lat="45.4300234" lon="10.4552949"><ele>115.0</ele><time>2026-03-29T08:10:04.28Z</time></trkpt><trkpt lat="45.4298978" lon="10.4554125"><ele>115.0</ele><time>2026-03-29T08:10:05.279Z</time></trkpt><trkpt lat="45.4297744" lon="10.4555233"><ele>115.0</ele><time>2026-03-29T08:10:06.279Z</time></trkpt><trkpt lat="45.4296587" lon="10.4556418"><ele>115.0</ele><time>2026-03-29T08:10:07.28Z</time></trkpt><trkpt lat="45.4295523" lon="10.455752"><ele>115.0</ele><time>2026-03-29T08:10:08.28Z</time></trkpt><trkpt lat="45.4294516" lon="10.4558495"><ele>115.0</ele><time>2026-03-29T08:10:09.28Z</time></trkpt><trkpt lat="45.4293564" lon="10.4559385"><ele>115.0</ele><time>2026-03-29T08:10:10.28Z</time></trkpt><trkpt lat="45.4292693" lon="10.4560301"><ele>115.0</ele><time>2026-03-29T08:10:11.279Z</time></trkpt><trkpt lat="45.4291764" lon="10.4561205"><ele>115.0</ele><time>2026-03-29T08:10:12.279Z</time></trkpt><trkpt lat="45.4290771" lon="10.4562083"><ele>115.0</ele><time>2026-03-29T08:10:13.279Z</time></trkpt><trkpt lat="45.4289904" lon="10.4562869"><ele>115.0</ele><time>2026-03-29T08:10:14.279Z</time></trkpt><trkpt lat="45.4289057" lon="10.4563656"><ele>115.0</ele><time>2026-03-29T08:10:15.28Z</time></trkpt><trkpt lat="45.4288202" lon="10.4564474"><ele>115.0</ele><time>2026-03-29T08:10:16.279Z</time></trkpt><trkpt lat="45.4287288" lon="10.4565191"><ele>115.0</ele><time>2026-03-29T08:10:17.279Z</time></trkpt><trkpt lat="45.4286395" lon="10.4565919"><ele>115.00000000000001</ele><time>2026-03-29T08:10:18.279Z</time></trkpt><trkpt lat="45.4285652" lon="10.456663"><ele>115.0</ele><time>2026-03-29T08:10:19.28Z</time></trkpt><trkpt lat="45.4284984" lon="10.4567349"><ele>115.0</ele><time>2026-03-29T08:10:20.28Z</time></trkpt><trkpt lat="45.4284365" lon="10.4567984"><ele>115.0</ele><time>2026-03-29T08:10:21.279Z</time></trkpt><trkpt lat="45.428385" lon="10.4568508"><ele>115.00000000000001</ele><time>2026-03-29T08:10:22.279Z</time></trkpt><trkpt lat="45.4282904" lon="10.4568956"><ele>115.0</ele><time>2026-03-29T08:10:24.279Z</time></trkpt><trkpt lat="45.4281712" lon="10.4568463"><ele>115.00000000000001</ele><time>2026-03-29T08:10:26.28Z</time></trkpt><trkpt lat="45.4281032" lon="10.4568008"><ele>115.0</ele><time>2026-03-29T08:10:27.279Z</time></trkpt><trkpt lat="45.4280296" lon="10.4567546"><ele>115.0</ele><time>2026-03-29T08:10:28.279Z</time></trkpt><trkpt lat="45.4279482" lon="10.4567026"><ele>115.0</ele><time>2026-03-29T08:10:29.28Z</time></trkpt><trkpt lat="45.4278656" lon="10.4566489"><ele>115.00000000000001</ele><time>2026-03-29T08:10:30.279Z</time></trkpt><trkpt lat="45.4277792" lon="10.4565959"><ele>115.0</ele><time>2026-03-29T08:10:31.279Z</time></trkpt><trkpt lat="45.4276906" lon="10.4565361"><ele>115.0</ele><time>2026-03-29T08:10:32.279Z</time></trkpt><trkpt lat="45.4275962" lon="10.4564747"><ele>115.0</ele><time>2026-03-29T08:10:33.279Z</time></trkpt><trkpt lat="45.4274934" lon="10.4564067"><ele>115.0</ele><time>2026-03-29T08:10:34.28Z</time></trkpt><trkpt lat="45.4273861" lon="10.4563347"><ele>115.0</ele><time>2026-03-29T08:10:35.279Z</time></trkpt><trkpt lat="45.4272801" lon="10.4562684"><ele>114.8</ele><time>2026-03-29T08:10:36.28Z</time></trkpt><trkpt lat="45.4271799" lon="10.4562122"><ele>114.6</ele><time>2026-03-29T08:10:37.28Z</time></trkpt><trkpt lat="45.4270838" lon="10.4561584"><ele>114.4</ele><time>2026-03-29T08:10:38.279Z</time></trkpt><trkpt lat="45.4269876" lon="10.4561009"><ele>114.2</ele><time>2026-03-29T08:10:39.28Z</time></trkpt><trkpt lat="45.4268984" lon="10.4560441"><ele>114.0</ele><time>2026-03-29T08:10:40.28Z</time></trkpt><trkpt lat="45.4268148" lon="10.4559856"><ele>113.6</ele><time>2026-03-29T08:10:41.279Z</time></trkpt><trkpt lat="45.4267294" lon="10.4559281"><ele>113.2</ele><time>2026-03-29T08:10:42.28Z</time></trkpt><trkpt lat="45.4266443" lon="10.4558702"><ele>112.79999999999998</ele><time>2026-03-29T08:10:43.279Z</time></trkpt><trkpt lat="45.4265527" lon="10.4557997"><ele>112.39999999999999</ele><time>2026-03-29T08:10:44.28Z</time></trkpt><trkpt lat="45.4264462" lon="10.4557287"><ele>112.0</ele><time>2026-03-29T08:10:45.279Z</time></trkpt><trkpt lat="45.4263363" lon="10.4556577"><ele>112.0</ele><time>2026-03-29T08:10:46.28Z</time></trkpt><trkpt lat="45.4262118" lon="10.4555845"><ele>112.0</ele><time>2026-03-29T08:10:47.279Z</time></trkpt><trkpt lat="45.4260821" lon="10.4555027"><ele>112.0</ele><time>2026-03-29T08:10:48.28Z</time></trkpt><trkpt lat="45.4259485" lon="10.455416"><ele>112.0</ele><time>2026-03-29T08:10:49.28Z</time></trkpt><trkpt lat="45.4258123" lon="10.4553248"><ele>112.0</ele><time>2026-03-29T08:10:50.28Z</time></trkpt><trkpt lat="45.4256732" lon="10.4552456"><ele>112.0</ele><time>2026-03-29T08:10:51.28Z</time></trkpt><trkpt lat="45.4255458" lon="10.4551672"><ele>112.0</ele><time>2026-03-29T08:10:52.279Z</time></trkpt><trkpt lat="45.4254219" lon="10.455089"><ele>112.0</ele><time>2026-03-29T08:10:53.279Z</time></trkpt><trkpt lat="45.4253017" lon="10.4550157"><ele>112.25</ele><time>2026-03-29T08:10:54.28Z</time></trkpt><trkpt lat="45.4251786" lon="10.4549411"><ele>112.5</ele><time>2026-03-29T08:10:55.28Z</time></trkpt><trkpt lat="45.4250603" lon="10.4548643"><ele>112.75</ele><time>2026-03-29T08:10:56.279Z</time></trkpt><trkpt lat="45.424935" lon="10.4547704"><ele>113.0</ele><time>2026-03-29T08:10:57.279Z</time></trkpt><trkpt lat="45.4247988" lon="10.4546793"><ele>112.66666666666666</ele><time>2026-03-29T08:10:58.279Z</time></trkpt><trkpt lat="45.4246468" lon="10.4545829"><ele>112.33333333333334</ele><time>2026-03-29T08:10:59.279Z</time></trkpt><trkpt lat="45.4244993" lon="10.4544887"><ele>112.0</ele><time>2026-03-29T08:11:00.279Z</time></trkpt><trkpt lat="45.4243675" lon="10.4544018"><ele>112.0</ele><time>2026-03-29T08:11:01.28Z</time></trkpt><trkpt lat="45.4242424" lon="10.4543291"><ele>112.0</ele><time>2026-03-29T08:11:02.279Z</time></trkpt><trkpt lat="45.4241088" lon="10.4542636"><ele>112.0</ele><time>2026-03-29T08:11:03.279Z</time></trkpt><trkpt lat="45.4239726" lon="10.4541978"><ele>112.0</ele><time>2026-03-29T08:11:04.279Z</time></trkpt><trkpt lat="45.4238426" lon="10.4541286"><ele>111.75</ele><time>2026-03-29T08:11:05.28Z</time></trkpt><trkpt lat="45.4237197" lon="10.4540564"><ele>111.5</ele><time>2026-03-29T08:11:06.279Z</time></trkpt><trkpt lat="45.4236031" lon="10.4539773"><ele>111.25</ele><time>2026-03-29T08:11:07.28Z</time></trkpt><trkpt lat="45.4234756" lon="10.4538969"><ele>111.0</ele><time>2026-03-29T08:11:08.28Z</time></trkpt><trkpt lat="45.4233459" lon="10.4538147"><ele>110.75</ele><time>2026-03-29T08:11:09.279Z</time></trkpt><trkpt lat="45.4232162" lon="10.4537224"><ele>110.5</ele><time>2026-03-29T08:11:10.28Z</time></trkpt><trkpt lat="45.4230851" lon="10.4536442"><ele>110.25</ele><time>2026-03-29T08:11:11.28Z</time></trkpt><trkpt lat="45.4229522" lon="10.4535632"><ele>110.0</ele><time>2026-03-29T08:11:12.279Z</time></trkpt><trkpt lat="45.4228203" lon="10.4534784"><ele>110.0</ele><time>2026-03-29T08:11:13.28Z</time></trkpt><trkpt lat="45.4226946" lon="10.4533988"><ele>110.0</ele><time>2026-03-29T08:11:14.28Z</time></trkpt><trkpt lat="45.4225845" lon="10.4533235"><ele>110.0</ele><time>2026-03-29T08:11:15.28Z</time></trkpt><trkpt lat="45.4224811" lon="10.4532564"><ele>110.0</ele><time>2026-03-29T08:11:16.279Z</time></trkpt><trkpt lat="45.4223889" lon="10.4531885"><ele>110.0</ele><time>2026-03-29T08:11:17.28Z</time></trkpt><trkpt lat="45.4223003" lon="10.4531326"><ele>110.0</ele><time>2026-03-29T08:11:18.28Z</time></trkpt><trkpt lat="45.4222024" lon="10.4530768"><ele>110.0</ele><time>2026-03-29T08:11:19.28Z</time></trkpt><trkpt lat="45.4221019" lon="10.4530246"><ele>110.0</ele><time>2026-03-29T08:11:20.279Z</time></trkpt><trkpt lat="45.4220028" lon="10.4529696"><ele>110.0</ele><time>2026-03-29T08:11:21.279Z</time></trkpt><trkpt lat="45.4219011" lon="10.452911"><ele>110.0</ele><time>2026-03-29T08:11:22.279Z</time></trkpt><trkpt lat="45.4217885" lon="10.4528408"><ele>110.0</ele><time>2026-03-29T08:11:23.279Z</time></trkpt><trkpt lat="45.4216673" lon="10.4527781"><ele>110.0</ele><time>2026-03-29T08:11:24.28Z</time></trkpt><trkpt lat="45.4215508" lon="10.4527119"><ele>110.0</ele><time>2026-03-29T08:11:25.28Z</time></trkpt><trkpt lat="45.4214444" lon="10.4526501"><ele>110.0</ele><time>2026-03-29T08:11:26.28Z</time></trkpt><trkpt lat="45.4213433" lon="10.4525915"><ele>110.0</ele><time>2026-03-29T08:11:27.279Z</time></trkpt><trkpt lat="45.4212383" lon="10.4525192"><ele>110.0</ele><time>2026-03-29T08:11:28.28Z</time></trkpt><trkpt lat="45.4211263" lon="10.4524442"><ele>110.0</ele><time>2026-03-29T08:11:29.28Z</time></trkpt><trkpt lat="45.4210115" lon="10.4523668"><ele>109.75</ele><time>2026-03-29T08:11:30.28Z</time></trkpt><trkpt lat="45.4208981" lon="10.4522945"><ele>109.5</ele><time>2026-03-29T08:11:31.28Z</time></trkpt><trkpt lat="45.4207857" lon="10.4522248"><ele>109.25</ele><time>2026-03-29T08:11:32.28Z</time></trkpt><trkpt lat="45.4206708" lon="10.4521441"><ele>109.0</ele><time>2026-03-29T08:11:33.279Z</time></trkpt><trkpt lat="45.420555" lon="10.4520562"><ele>109.0</ele><time>2026-03-29T08:11:34.279Z</time></trkpt><trkpt lat="45.4204304" lon="10.4519727"><ele>109.0</ele><time>2026-03-29T08:11:35.279Z</time></trkpt><trkpt lat="45.4203061" lon="10.451889"><ele>109.0</ele><time>2026-03-29T08:11:36.279Z</time></trkpt><trkpt lat="45.4201846" lon="10.45181"><ele>109.0</ele><time>2026-03-29T08:11:37.28Z</time></trkpt><trkpt lat="45.4200655" lon="10.4517265"><ele>109.0</ele><time>2026-03-29T08:11:38.28Z</time></trkpt><trkpt lat="45.4199492" lon="10.4516507"><ele>109.0</ele><time>2026-03-29T08:11:39.279Z</time></trkpt><trkpt lat="45.4198289" lon="10.451577"><ele>109.0</ele><time>2026-03-29T08:11:40.279Z</time></trkpt><trkpt lat="45.4197052" lon="10.4515145"><ele>109.0</ele><time>2026-03-29T08:11:41.279Z</time></trkpt><trkpt lat="45.4195852" lon="10.4514466"><ele>108.5</ele><time>2026-03-29T08:11:42.28Z</time></trkpt><trkpt lat="45.4194612" lon="10.4513594"><ele>108.0</ele><time>2026-03-29T08:11:43.28Z</time></trkpt><trkpt lat="45.4193314" lon="10.4512713"><ele>107.5</ele><time>2026-03-29T08:11:44.279Z</time></trkpt><trkpt lat="45.4192026" lon="10.4511837"><ele>107.0</ele><time>2026-03-29T08:11:45.28Z</time></trkpt><trkpt lat="45.4190694" lon="10.4511021"><ele>106.75</ele><time>2026-03-29T08:11:46.28Z</time></trkpt><trkpt lat="45.4189509" lon="10.4510207"><ele>106.5</ele><time>2026-03-29T08:11:47.28Z</time></trkpt><trkpt lat="45.4188292" lon="10.4509431"><ele>106.25</ele><time>2026-03-29T08:11:48.28Z</time></trkpt><trkpt lat="45.4187027" lon="10.4508712"><ele>106.0</ele><time>2026-03-29T08:11:49.28Z</time></trkpt><trkpt lat="45.4185794" lon="10.4507956"><ele>105.75</ele><time>2026-03-29T08:11:50.28Z</time></trkpt><trkpt lat="45.4184506" lon="10.4507221"><ele>105.5</ele><time>2026-03-29T08:11:51.28Z</time></trkpt><trkpt lat="45.4183156" lon="10.4506444"><ele>105.25</ele><time>2026-03-29T08:11:52.28Z</time></trkpt><trkpt lat="45.4181846" lon="10.4505611"><ele>105.0</ele><time>2026-03-29T08:11:53.279Z</time></trkpt><trkpt lat="45.4180625" lon="10.4504808"><ele>104.5</ele><time>2026-03-29T08:11:54.28Z</time></trkpt><trkpt lat="45.4179459" lon="10.4504058"><ele>104.0</ele><time>2026-03-29T08:11:55.28Z</time></trkpt><trkpt lat="45.4178359" lon="10.4503397"><ele>103.5</ele><time>2026-03-29T08:11:56.28Z</time></trkpt><trkpt lat="45.4177227" lon="10.4502705"><ele>103.0</ele><time>2026-03-29T08:11:57.279Z</time></trkpt><trkpt lat="45.4176082" lon="10.4501956"><ele>103.0</ele><time>2026-03-29T08:11:58.28Z</time></trkpt><trkpt lat="45.4174905" lon="10.4501171"><ele>103.0</ele><time>2026-03-29T08:11:59.279Z</time></trkpt><trkpt lat="45.4173836" lon="10.4500473"><ele>103.0</ele><time>2026-03-29T08:12:00.28Z</time></trkpt><trkpt lat="45.4172899" lon="10.4499853"><ele>103.0</ele><time>2026-03-29T08:12:01.279Z</time></trkpt><trkpt lat="45.4172025" lon="10.4499284"><ele>103.0</ele><time>2026-03-29T08:12:02.28Z</time></trkpt><trkpt lat="45.4171265" lon="10.4498826"><ele>103.4</ele><time>2026-03-29T08:12:03.28Z</time></trkpt><trkpt lat="45.417029" lon="10.4498189"><ele>103.80000000000001</ele><time>2026-03-29T08:12:05.279Z</time></trkpt><trkpt lat="45.4169565" lon="10.4498333"><ele>104.2</ele><time>2026-03-29T08:12:07.28Z</time></trkpt><trkpt lat="45.416874" lon="10.4499913"><ele>104.6</ele><time>2026-03-29T08:12:09.279Z</time></trkpt><trkpt lat="45.4168192" lon="10.450111"><ele>105.0</ele><time>2026-03-29T08:12:10.28Z</time></trkpt><trkpt lat="45.4167439" lon="10.4502472"><ele>105.0</ele><time>2026-03-29T08:12:11.28Z</time></trkpt><trkpt lat="45.4166667" lon="10.4503894"><ele>105.0</ele><time>2026-03-29T08:12:12.28Z</time></trkpt><trkpt lat="45.4165834" lon="10.4505452"><ele>105.0</ele><time>2026-03-29T08:12:13.28Z</time></trkpt><trkpt lat="45.4164913" lon="10.4507002"><ele>105.0</ele><time>2026-03-29T08:12:14.28Z</time></trkpt><trkpt lat="45.4163881" lon="10.4508538"><ele>105.25</ele><time>2026-03-29T08:12:15.279Z</time></trkpt><trkpt lat="45.4162783" lon="10.4510077"><ele>105.5</ele><time>2026-03-29T08:12:16.28Z</time></trkpt><trkpt lat="45.4161737" lon="10.451163"><ele>105.75</ele><time>2026-03-29T08:12:17.279Z</time></trkpt><trkpt lat="45.4160833" lon="10.451315"><ele>106.0</ele><time>2026-03-29T08:12:18.279Z</time></trkpt><trkpt lat="45.4160005" lon="10.451456"><ele>105.6</ele><time>2026-03-29T08:12:19.279Z</time></trkpt><trkpt lat="45.4159253" lon="10.4515832"><ele>105.19999999999999</ele><time>2026-03-29T08:12:20.28Z</time></trkpt><trkpt lat="45.4158545" lon="10.4516988"><ele>104.80000000000001</ele><time>2026-03-29T08:12:21.279Z</time></trkpt><trkpt lat="45.4157825" lon="10.4518115"><ele>104.4</ele><time>2026-03-29T08:12:22.279Z</time></trkpt><trkpt lat="45.4157065" lon="10.4519259"><ele>104.0</ele><time>2026-03-29T08:12:23.28Z</time></trkpt><trkpt lat="45.4156253" lon="10.4520584"><ele>103.75</ele><time>2026-03-29T08:12:24.28Z</time></trkpt><trkpt lat="45.4155403" lon="10.4522035"><ele>103.5</ele><time>2026-03-29T08:12:25.28Z</time></trkpt><trkpt lat="45.4154522" lon="10.452349"><ele>103.25</ele><time>2026-03-29T08:12:26.279Z</time></trkpt><trkpt lat="45.4153616" lon="10.4524909"><ele>103.0</ele><time>2026-03-29T08:12:27.279Z</time></trkpt><trkpt lat="45.4152782" lon="10.4526228"><ele>103.0</ele><time>2026-03-29T08:12:28.279Z</time></trkpt><trkpt lat="45.4152026" lon="10.4527497"><ele>103.0</ele><time>2026-03-29T08:12:29.28Z</time></trkpt><trkpt lat="45.4151354" lon="10.4528614"><ele>103.0</ele><time>2026-03-29T08:12:30.279Z</time></trkpt><trkpt lat="45.4150752" lon="10.452959"><ele>103.0</ele><time>2026-03-29T08:12:31.279Z</time></trkpt><trkpt lat="45.4150245" lon="10.4530365"><ele>103.0</ele><time>2026-03-29T08:12:32.28Z</time></trkpt><trkpt lat="45.4149744" lon="10.4531095"><ele>103.60000000000001</ele><time>2026-03-29T08:12:33.279Z</time></trkpt><trkpt lat="45.4149253" lon="10.4531817"><ele>104.2</ele><time>2026-03-29T08:12:34.28Z</time></trkpt><trkpt lat="45.414857" lon="10.4533072"><ele>104.8</ele><time>2026-03-29T08:12:36.28Z</time></trkpt><trkpt lat="45.4148737" lon="10.4534129"><ele>105.4</ele><time>2026-03-29T08:12:38.28Z</time></trkpt><trkpt lat="45.4149902" lon="10.4535179"><ele>106.0</ele><time>2026-03-29T08:12:40.28Z</time></trkpt><trkpt lat="45.4150711" lon="10.4535959"><ele>106.0</ele><time>2026-03-29T08:12:41.28Z</time></trkpt><trkpt lat="45.4151602" lon="10.4536804"><ele>106.0</ele><time>2026-03-29T08:12:42.279Z</time></trkpt><trkpt lat="45.4152585" lon="10.4537707"><ele>106.0</ele><time>2026-03-29T08:12:43.28Z</time></trkpt><trkpt lat="45.4153703" lon="10.4538683"><ele>106.0</ele><time>2026-03-29T08:12:44.279Z</time></trkpt><trkpt lat="45.4154744" lon="10.4539725"><ele>106.0</ele><time>2026-03-29T08:12:45.279Z</time></trkpt><trkpt lat="45.4155772" lon="10.4540645"><ele>106.0</ele><time>2026-03-29T08:12:46.28Z</time></trkpt><trkpt lat="45.4156701" lon="10.454144"><ele>106.0</ele><time>2026-03-29T08:12:47.279Z</time></trkpt><trkpt lat="45.415756" lon="10.4542138"><ele>106.0</ele><time>2026-03-29T08:12:48.28Z</time></trkpt><trkpt lat="45.4158311" lon="10.4542823"><ele>106.0</ele><time>2026-03-29T08:12:49.28Z</time></trkpt><trkpt lat="45.4158979" lon="10.4543456"><ele>106.0</ele><time>2026-03-29T08:12:50.28Z</time></trkpt><trkpt lat="45.4159548" lon="10.4543974"><ele>106.0</ele><time>2026-03-29T08:12:51.28Z</time></trkpt><trkpt lat="45.4160209" lon="10.4545232"><ele>106.0</ele><time>2026-03-29T08:12:53.279Z</time></trkpt><trkpt lat="45.4160022" lon="10.4547187"><ele>106.0</ele><time>2026-03-29T08:12:55.28Z</time></trkpt><trkpt lat="45.4159795" lon="10.4548509"><ele>106.0</ele><time>2026-03-29T08:12:56.279Z</time></trkpt><trkpt lat="45.4159518" lon="10.4550085"><ele>106.0</ele><time>2026-03-29T08:12:57.279Z</time></trkpt><trkpt lat="45.4159196" lon="10.4551834"><ele>106.0</ele><time>2026-03-29T08:12:58.28Z</time></trkpt><trkpt lat="45.4158952" lon="10.4553653"><ele>106.0</ele><time>2026-03-29T08:12:59.28Z</time></trkpt><trkpt lat="45.4158709" lon="10.4555343"><ele>106.0</ele><time>2026-03-29T08:13:00.279Z</time></trkpt><trkpt lat="45.4158507" lon="10.4557046"><ele>106.0</ele><time>2026-03-29T08:13:01.28Z</time></trkpt><trkpt lat="45.4158291" lon="10.4558816"><ele>106.0</ele><time>2026-03-29T08:13:02.28Z</time></trkpt><trkpt lat="45.4158079" lon="10.4560468"><ele>106.0</ele><time>2026-03-29T08:13:03.279Z</time></trkpt><trkpt lat="45.4157859" lon="10.4562"><ele>106.0</ele><time>2026-03-29T08:13:04.279Z</time></trkpt><trkpt lat="45.4157665" lon="10.456364"><ele>106.0</ele><time>2026-03-29T08:13:05.28Z</time></trkpt><trkpt lat="45.4157466" lon="10.4565293"><ele>106.0</ele><time>2026-03-29T08:13:06.279Z</time></trkpt><trkpt lat="45.4157191" lon="10.4566959"><ele>106.0</ele><time>2026-03-29T08:13:07.279Z</time></trkpt><trkpt lat="45.4156958" lon="10.4568567"><ele>106.0</ele><time>2026-03-29T08:13:08.279Z</time></trkpt><trkpt lat="45.4156758" lon="10.4570153"><ele>105.75</ele><time>2026-03-29T08:13:09.279Z</time></trkpt><trkpt lat="45.4156532" lon="10.4571684"><ele>105.5</ele><time>2026-03-29T08:13:10.28Z</time></trkpt><trkpt lat="45.4156381" lon="10.457327"><ele>105.25</ele><time>2026-03-29T08:13:11.28Z</time></trkpt><trkpt lat="45.4156272" lon="10.4574864"><ele>105.0</ele><time>2026-03-29T08:13:12.28Z</time></trkpt><trkpt lat="45.4156093" lon="10.4576492"><ele>105.0</ele><time>2026-03-29T08:13:13.279Z</time></trkpt><trkpt lat="45.4155902" lon="10.4578084"><ele>105.0</ele><time>2026-03-29T08:13:14.279Z</time></trkpt><trkpt lat="45.4155799" lon="10.4579681"><ele>105.0</ele><time>2026-03-29T08:13:15.279Z</time></trkpt><trkpt lat="45.4155689" lon="10.4581232"><ele>105.0</ele><time>2026-03-29T08:13:16.28Z</time></trkpt><trkpt lat="45.4155575" lon="10.458284"><ele>105.0</ele><time>2026-03-29T08:13:17.28Z</time></trkpt><trkpt lat="45.4155459" lon="10.458445"><ele>104.75</ele><time>2026-03-29T08:13:18.279Z</time></trkpt><trkpt lat="45.4155381" lon="10.4585973"><ele>104.5</ele><time>2026-03-29T08:13:19.279Z</time></trkpt><trkpt lat="45.4155245" lon="10.4587546"><ele>104.25</ele><time>2026-03-29T08:13:20.279Z</time></trkpt><trkpt lat="45.4155143" lon="10.4589167"><ele>104.0</ele><time>2026-03-29T08:13:21.279Z</time></trkpt><trkpt lat="45.4155089" lon="10.4590873"><ele>104.0</ele><time>2026-03-29T08:13:22.28Z</time></trkpt><trkpt lat="45.4155066" lon="10.4592632"><ele>104.0</ele><time>2026-03-29T08:13:23.28Z</time></trkpt><trkpt lat="45.4155036" lon="10.4594515"><ele>104.0</ele><time>2026-03-29T08:13:24.279Z</time></trkpt><trkpt lat="45.4154945" lon="10.4596322"><ele>104.0</ele><time>2026-03-29T08:13:25.28Z</time></trkpt><trkpt lat="45.4154809" lon="10.4598183"><ele>104.0</ele><time>2026-03-29T08:13:26.28Z</time></trkpt><trkpt lat="45.4154701" lon="10.4600035"><ele>104.0</ele><time>2026-03-29T08:13:27.28Z</time></trkpt><trkpt lat="45.4154629" lon="10.460179"><ele>104.0</ele><time>2026-03-29T08:13:28.28Z</time></trkpt><trkpt lat="45.4154566" lon="10.4603528"><ele>104.0</ele><time>2026-03-29T08:13:29.279Z</time></trkpt><trkpt lat="45.4154512" lon="10.4605293"><ele>104.0</ele><time>2026-03-29T08:13:30.279Z</time></trkpt><trkpt lat="45.4154404" lon="10.4606962"><ele>104.0</ele><time>2026-03-29T08:13:31.279Z</time></trkpt><trkpt lat="45.4154301" lon="10.4608541"><ele>104.0</ele><time>2026-03-29T08:13:32.279Z</time></trkpt><trkpt lat="45.415423" lon="10.4610142"><ele>104.0</ele><time>2026-03-29T08:13:33.28Z</time></trkpt><trkpt lat="45.4154184" lon="10.461185"><ele>104.25</ele><time>2026-03-29T08:13:34.28Z</time></trkpt><trkpt lat="45.4154106" lon="10.4613515"><ele>104.5</ele><time>2026-03-29T08:13:35.28Z</time></trkpt><trkpt lat="45.4154059" lon="10.4615157"><ele>104.75</ele><time>2026-03-29T08:13:36.28Z</time></trkpt><trkpt lat="45.4153998" lon="10.4616958"><ele>105.0</ele><time>2026-03-29T08:13:37.279Z</time></trkpt><trkpt lat="45.4153979" lon="10.4618795"><ele>105.0</ele><time>2026-03-29T08:13:38.28Z</time></trkpt><trkpt lat="45.4153962" lon="10.4620611"><ele>105.0</ele><time>2026-03-29T08:13:39.28Z</time></trkpt><trkpt lat="45.4153928" lon="10.4622429"><ele>105.0</ele><time>2026-03-29T08:13:40.279Z</time></trkpt><trkpt lat="45.415386" lon="10.4624188"><ele>105.0</ele><time>2026-03-29T08:13:41.28Z</time></trkpt><trkpt lat="45.4153731" lon="10.4625913"><ele>105.0</ele><time>2026-03-29T08:13:42.28Z</time></trkpt><trkpt lat="45.415365" lon="10.4627584"><ele>105.0</ele><time>2026-03-29T08:13:43.28Z</time></trkpt><trkpt lat="45.4153593" lon="10.4629231"><ele>105.0</ele><time>2026-03-29T08:13:44.28Z</time></trkpt><trkpt lat="45.415355" lon="10.4630938"><ele>105.0</ele><time>2026-03-29T08:13:45.28Z</time></trkpt><trkpt lat="45.4153552" lon="10.4632661"><ele>105.0</ele><time>2026-03-29T08:13:46.279Z</time></trkpt><trkpt lat="45.4153587" lon="10.4634367"><ele>105.0</ele><time>2026-03-29T08:13:47.28Z</time></trkpt><trkpt lat="45.4153674" lon="10.4635996"><ele>105.0</ele><time>2026-03-29T08:13:48.28Z</time></trkpt><trkpt lat="45.4153791" lon="10.4637553"><ele>105.0</ele><time>2026-03-29T08:13:49.28Z</time></trkpt><trkpt lat="45.4153914" lon="10.4639007"><ele>105.0</ele><time>2026-03-29T08:13:50.28Z</time></trkpt><trkpt lat="45.4154042" lon="10.4640397"><ele>105.6</ele><time>2026-03-29T08:13:51.279Z</time></trkpt><trkpt lat="45.4154217" lon="10.4641781"><ele>106.2</ele><time>2026-03-29T08:13:52.28Z</time></trkpt><trkpt lat="45.4154323" lon="10.464315"><ele>106.80000000000001</ele><time>2026-03-29T08:13:53.279Z</time></trkpt><trkpt lat="45.415446" lon="10.4644591"><ele>107.4</ele><time>2026-03-29T08:13:54.28Z</time></trkpt><trkpt lat="45.4154641" lon="10.4646124"><ele>108.0</ele><time>2026-03-29T08:13:55.279Z</time></trkpt><trkpt lat="45.415482" lon="10.4647881"><ele>107.75</ele><time>2026-03-29T08:13:56.28Z</time></trkpt><trkpt lat="45.4154986" lon="10.4649861"><ele>107.5</ele><time>2026-03-29T08:13:57.279Z</time></trkpt><trkpt lat="45.4155086" lon="10.4651937"><ele>107.25</ele><time>2026-03-29T08:13:58.279Z</time></trkpt><trkpt lat="45.4155239" lon="10.4654135"><ele>107.0</ele><time>2026-03-29T08:13:59.28Z</time></trkpt><trkpt lat="45.4155453" lon="10.4656448"><ele>107.0</ele><time>2026-03-29T08:14:00.28Z</time></trkpt><trkpt lat="45.4155653" lon="10.4658747"><ele>107.0</ele><time>2026-03-29T08:14:01.28Z</time></trkpt><trkpt lat="45.4155842" lon="10.4661077"><ele>107.0</ele><time>2026-03-29T08:14:02.279Z</time></trkpt><trkpt lat="45.4155968" lon="10.4663321"><ele>107.0</ele><time>2026-03-29T08:14:03.279Z</time></trkpt><trkpt lat="45.415608" lon="10.4665476"><ele>107.0</ele><time>2026-03-29T08:14:04.28Z</time></trkpt><trkpt lat="45.4156159" lon="10.4667403"><ele>107.0</ele><time>2026-03-29T08:14:05.28Z</time></trkpt><trkpt lat="45.415615" lon="10.4669289"><ele>107.0</ele><time>2026-03-29T08:14:06.279Z</time></trkpt><trkpt lat="45.4156093" lon="10.4671264"><ele>107.0</ele><time>2026-03-29T08:14:07.279Z</time></trkpt><trkpt lat="45.4155958" lon="10.4673281"><ele>107.0</ele><time>2026-03-29T08:14:08.279Z</time></trkpt><trkpt lat="45.4155868" lon="10.4675144"><ele>107.0</ele><time>2026-03-29T08:14:09.28Z</time></trkpt><trkpt lat="45.4155653" lon="10.4677022"><ele>107.0</ele><time>2026-03-29T08:14:10.28Z</time></trkpt><trkpt lat="45.4155416" lon="10.4678873"><ele>107.25</ele><time>2026-03-29T08:14:11.279Z</time></trkpt><trkpt lat="45.4155174" lon="10.4680744"><ele>107.5</ele><time>2026-03-29T08:14:12.279Z</time></trkpt><trkpt lat="45.4154937" lon="10.4682565"><ele>107.75</ele><time>2026-03-29T08:14:13.28Z</time></trkpt><trkpt lat="45.4154732" lon="10.4684365"><ele>108.0</ele><time>2026-03-29T08:14:14.279Z</time></trkpt><trkpt lat="45.4154488" lon="10.4686133"><ele>107.75</ele><time>2026-03-29T08:14:15.279Z</time></trkpt><trkpt lat="45.4154291" lon="10.4687868"><ele>107.5</ele><time>2026-03-29T08:14:16.28Z</time></trkpt><trkpt lat="45.4154177" lon="10.4689804"><ele>107.25</ele><time>2026-03-29T08:14:17.28Z</time></trkpt><trkpt lat="45.4154031" lon="10.4691815"><ele>107.0</ele><time>2026-03-29T08:14:18.28Z</time></trkpt><trkpt lat="45.4153852" lon="10.4693782"><ele>107.0</ele><time>2026-03-29T08:14:19.279Z</time></trkpt><trkpt lat="45.4153665" lon="10.4695787"><ele>107.0</ele><time>2026-03-29T08:14:20.279Z</time></trkpt><trkpt lat="45.4153456" lon="10.4697756"><ele>107.0</ele><time>2026-03-29T08:14:21.279Z</time></trkpt><trkpt lat="45.4153185" lon="10.4699772"><ele>107.0</ele><time>2026-03-29T08:14:22.279Z</time></trkpt><trkpt lat="45.4152904" lon="10.4701774"><ele>107.25</ele><time>2026-03-29T08:14:23.28Z</time></trkpt><trkpt lat="45.4152655" lon="10.4703834"><ele>107.5</ele><time>2026-03-29T08:14:24.28Z</time></trkpt><trkpt lat="45.4152446" lon="10.4705917"><ele>107.75</ele><time>2026-03-29T08:14:25.279Z</time></trkpt><trkpt lat="45.4152209" lon="10.4707972"><ele>108.0</ele><time>2026-03-29T08:14:26.28Z</time></trkpt><trkpt lat="45.4151969" lon="10.4709994"><ele>108.5</ele><time>2026-03-29T08:14:27.28Z</time></trkpt><trkpt lat="45.4151803" lon="10.4711922"><ele>109.0</ele><time>2026-03-29T08:14:28.28Z</time></trkpt><trkpt lat="45.4151593" lon="10.4713774"><ele>109.5</ele><time>2026-03-29T08:14:29.279Z</time></trkpt><trkpt lat="45.4151465" lon="10.4715644"><ele>110.0</ele><time>2026-03-29T08:14:30.279Z</time></trkpt><trkpt lat="45.4151317" lon="10.4717459"><ele>110.2</ele><time>2026-03-29T08:14:31.28Z</time></trkpt><trkpt lat="45.4151212" lon="10.4718929"><ele>110.4</ele><time>2026-03-29T08:14:32.28Z</time></trkpt><trkpt lat="45.4151192" lon="10.4720048"><ele>110.6</ele><time>2026-03-29T08:14:33.279Z</time></trkpt><trkpt lat="45.4151114" lon="10.4721344"><ele>110.8</ele><time>2026-03-29T08:14:35.28Z</time></trkpt><trkpt lat="45.4151005" lon="10.4722963"><ele>111.0</ele><time>2026-03-29T08:14:58.279Z</time></trkpt><trkpt lat="45.4150898" lon="10.4724319"><ele>111.0</ele><time>2026-03-29T08:14:59.279Z</time></trkpt><trkpt lat="45.415069" lon="10.4725769"><ele>111.0</ele><time>2026-03-29T08:15:00.28Z</time></trkpt><trkpt lat="45.4150495" lon="10.4727171"><ele>111.0</ele><time>2026-03-29T08:15:01.279Z</time></trkpt><trkpt lat="45.4150309" lon="10.4728487"><ele>111.0</ele><time>2026-03-29T08:15:02.279Z</time></trkpt><trkpt lat="45.4150229" lon="10.4729628"><ele>111.0</ele><time>2026-03-29T08:15:03.28Z</time></trkpt><trkpt lat="45.4150212" lon="10.4730573"><ele>111.0</ele><time>2026-03-29T08:15:04.279Z</time></trkpt><trkpt lat="45.4150035" lon="10.4732204"><ele>111.0</ele><time>2026-03-29T08:15:06.28Z</time></trkpt><trkpt lat="45.4149798" lon="10.4733691"><ele>111.0</ele><time>2026-03-29T08:15:08.279Z</time></trkpt><trkpt lat="45.4150128" lon="10.4732177"><ele>111.0</ele><time>2026-03-29T08:15:46.279Z</time></trkpt><trkpt lat="45.415026" lon="10.4730599"><ele>111.0</ele><time>2026-03-29T08:15:47.279Z</time></trkpt><trkpt lat="45.4150373" lon="10.4728726"><ele>111.0</ele><time>2026-03-29T08:15:48.279Z</time></trkpt><trkpt lat="45.4150499" lon="10.4726847"><ele>111.0</ele><time>2026-03-29T08:15:49.278Z</time></trkpt><trkpt lat="45.4150604" lon="10.4725176"><ele>111.0</ele><time>2026-03-29T08:15:50.278Z</time></trkpt><trkpt lat="45.415069" lon="10.4723784"><ele>111.0</ele><time>2026-03-29T08:15:51.278Z</time></trkpt><trkpt lat="45.4150831" lon="10.472265"><ele>111.0</ele><time>2026-03-29T08:15:52.278Z</time></trkpt><trkpt lat="45.4150951" lon="10.4721724"><ele>111.0</ele><time>2026-03-29T08:15:53.279Z</time></trkpt><trkpt lat="45.4151105" lon="10.4720599"><ele>111.0</ele><time>2026-03-29T08:15:55.279Z</time></trkpt><trkpt lat="45.415199" lon="10.4720213"><ele>111.0</ele><time>2026-03-29T08:15:58.278Z</time></trkpt><trkpt lat="45.4152646" lon="10.4720309"><ele>111.0</ele><time>2026-03-29T08:15:59.279Z</time></trkpt><trkpt lat="45.4153436" lon="10.472049"><ele>111.0</ele><time>2026-03-29T08:16:00.279Z</time></trkpt><trkpt lat="45.4154455" lon="10.4720629"><ele>111.0</ele><time>2026-03-29T08:16:01.279Z</time></trkpt><trkpt lat="45.4155464" lon="10.472068"><ele>111.0</ele><time>2026-03-29T08:16:02.278Z</time></trkpt><trkpt lat="45.4156455" lon="10.472075"><ele>111.0</ele><time>2026-03-29T08:16:03.279Z</time></trkpt><trkpt lat="45.4157434" lon="10.4720736"><ele>111.0</ele><time>2026-03-29T08:16:04.279Z</time></trkpt><trkpt lat="45.4158455" lon="10.472079"><ele>111.0</ele><time>2026-03-29T08:16:05.279Z</time></trkpt><trkpt lat="45.4159499" lon="10.4720953"><ele>111.0</ele><time>2026-03-29T08:16:06.278Z</time></trkpt><trkpt lat="45.4160527" lon="10.4721112"><ele>111.0</ele><time>2026-03-29T08:16:07.279Z</time></trkpt><trkpt lat="45.4161577" lon="10.4721241"><ele>111.0</ele><time>2026-03-29T08:16:08.279Z</time></trkpt><trkpt lat="45.4162607" lon="10.4721341"><ele>111.0</ele><time>2026-03-29T08:16:09.278Z</time></trkpt><trkpt lat="45.4163642" lon="10.4721429"><ele>111.0</ele><time>2026-03-29T08:16:10.279Z</time></trkpt><trkpt lat="45.4164688" lon="10.4721534"><ele>111.0</ele><time>2026-03-29T08:16:11.279Z</time></trkpt><trkpt lat="45.416575" lon="10.4721617"><ele>111.0</ele><time>2026-03-29T08:16:12.278Z</time></trkpt><trkpt lat="45.4166819" lon="10.472174"><ele>111.0</ele><time>2026-03-29T08:16:13.278Z</time></trkpt><trkpt lat="45.4167931" lon="10.4721871"><ele>111.0</ele><time>2026-03-29T08:16:14.279Z</time></trkpt><trkpt lat="45.4169019" lon="10.472204"><ele>111.0</ele><time>2026-03-29T08:16:15.279Z</time></trkpt><trkpt lat="45.4170059" lon="10.4722264"><ele>111.0</ele><time>2026-03-29T08:16:16.278Z</time></trkpt><trkpt lat="45.4171177" lon="10.4722379"><ele>111.25</ele><time>2026-03-29T08:16:17.279Z</time></trkpt><trkpt lat="45.4172355" lon="10.4722547"><ele>111.5</ele><time>2026-03-29T08:16:18.279Z</time></trkpt><trkpt lat="45.417352" lon="10.4722643"><ele>111.75</ele><time>2026-03-29T08:16:19.278Z</time></trkpt><trkpt lat="45.4174692" lon="10.4722741"><ele>112.0</ele><time>2026-03-29T08:16:20.279Z</time></trkpt><trkpt lat="45.4175918" lon="10.4722928"><ele>112.0</ele><time>2026-03-29T08:16:21.279Z</time></trkpt><trkpt lat="45.417713" lon="10.4723082"><ele>112.0</ele><time>2026-03-29T08:16:22.278Z</time></trkpt><trkpt lat="45.4178383" lon="10.4723199"><ele>112.0</ele><time>2026-03-29T08:16:23.279Z</time></trkpt><trkpt lat="45.4179666" lon="10.472335"><ele>112.0</ele><time>2026-03-29T08:16:24.278Z</time></trkpt><trkpt lat="45.4180893" lon="10.4723512"><ele>112.0</ele><time>2026-03-29T08:16:25.279Z</time></trkpt><trkpt lat="45.4182142" lon="10.472373"><ele>112.0</ele><time>2026-03-29T08:16:26.279Z</time></trkpt><trkpt lat="45.4183275" lon="10.4723939"><ele>112.0</ele><time>2026-03-29T08:16:27.278Z</time></trkpt><trkpt lat="45.4184419" lon="10.4724108"><ele>112.0</ele><time>2026-03-29T08:16:28.278Z</time></trkpt><trkpt lat="45.4185664" lon="10.4724191"><ele>112.0</ele><time>2026-03-29T08:16:29.278Z</time></trkpt><trkpt lat="45.4186812" lon="10.4724195"><ele>112.0</ele><time>2026-03-29T08:16:30.279Z</time></trkpt><trkpt lat="45.418795" lon="10.4724249"><ele>112.0</ele><time>2026-03-29T08:16:31.278Z</time></trkpt><trkpt lat="45.4189118" lon="10.4724322"><ele>112.0</ele><time>2026-03-29T08:16:32.279Z</time></trkpt><trkpt lat="45.4190278" lon="10.4724412"><ele>111.8</ele><time>2026-03-29T08:16:33.278Z</time></trkpt><trkpt lat="45.419141" lon="10.4724566"><ele>111.6</ele><time>2026-03-29T08:16:34.279Z</time></trkpt><trkpt lat="45.4192427" lon="10.4724726"><ele>111.39999999999999</ele><time>2026-03-29T08:16:35.278Z</time></trkpt><trkpt lat="45.419334" lon="10.4724896"><ele>111.19999999999999</ele><time>2026-03-29T08:16:36.279Z</time></trkpt><trkpt lat="45.4194148" lon="10.4725099"><ele>111.0</ele><time>2026-03-29T08:16:37.278Z</time></trkpt><trkpt lat="45.4195215" lon="10.4725426"><ele>111.0</ele><time>2026-03-29T08:16:39.279Z</time></trkpt><trkpt lat="45.4195543" lon="10.4726451"><ele>111.0</ele><time>2026-03-29T08:16:42.278Z</time></trkpt><trkpt lat="45.4194938" lon="10.4728499"><ele>111.0</ele><time>2026-03-29T08:16:44.278Z</time></trkpt><trkpt lat="45.4194434" lon="10.4729977"><ele>111.0</ele><time>2026-03-29T08:16:45.278Z</time></trkpt><trkpt lat="45.4193986" lon="10.4731623"><ele>111.0</ele><time>2026-03-29T08:16:46.279Z</time></trkpt><trkpt lat="45.4193582" lon="10.4733288"><ele>111.0</ele><time>2026-03-29T08:16:47.279Z</time></trkpt><trkpt lat="45.4193193" lon="10.4735042"><ele>111.0</ele><time>2026-03-29T08:16:48.278Z</time></trkpt><trkpt lat="45.4192753" lon="10.4736737"><ele>111.0</ele><time>2026-03-29T08:16:49.279Z</time></trkpt><trkpt lat="45.41922" lon="10.4738485"><ele>111.0</ele><time>2026-03-29T08:16:50.278Z</time></trkpt><trkpt lat="45.4191693" lon="10.4740284"><ele>111.0</ele><time>2026-03-29T08:16:51.279Z</time></trkpt><trkpt lat="45.4191208" lon="10.4742199"><ele>111.0</ele><time>2026-03-29T08:16:52.279Z</time></trkpt><trkpt lat="45.4190679" lon="10.4744163"><ele>111.0</ele><time>2026-03-29T08:16:53.279Z</time></trkpt><trkpt lat="45.4190156" lon="10.4746165"><ele>111.0</ele><time>2026-03-29T08:16:54.278Z</time></trkpt><trkpt lat="45.4189674" lon="10.4748212"><ele>111.0</ele><time>2026-03-29T08:16:55.279Z</time></trkpt><trkpt lat="45.4189309" lon="10.4750249"><ele>111.0</ele><time>2026-03-29T08:16:56.279Z</time></trkpt><trkpt lat="45.4189115" lon="10.4752292"><ele>111.0</ele><time>2026-03-29T08:16:57.279Z</time></trkpt><trkpt lat="45.4189015" lon="10.4754433"><ele>111.5</ele><time>2026-03-29T08:16:58.279Z</time></trkpt><trkpt lat="45.4188988" lon="10.4756587"><ele>112.0</ele><time>2026-03-29T08:16:59.278Z</time></trkpt><trkpt lat="45.4188876" lon="10.4758559"><ele>112.5</ele><time>2026-03-29T08:17:00.278Z</time></trkpt><trkpt lat="45.418874" lon="10.4760263"><ele>113.0</ele><time>2026-03-29T08:17:01.278Z</time></trkpt><trkpt lat="45.4188649" lon="10.4761921"><ele>113.33333333333333</ele><time>2026-03-29T08:17:02.278Z</time></trkpt><trkpt lat="45.4188534" lon="10.47634"><ele>113.66666666666666</ele><time>2026-03-29T08:17:03.278Z</time></trkpt><trkpt lat="45.418832" lon="10.4764617"><ele>114.0</ele><time>2026-03-29T08:17:04.279Z</time></trkpt><trkpt lat="45.418806" lon="10.4765593"><ele>114.33333333333334</ele><time>2026-03-29T08:17:05.279Z</time></trkpt><trkpt lat="45.4187579" lon="10.4766378"><ele>114.66666666666667</ele><time>2026-03-29T08:17:06.278Z</time></trkpt><trkpt lat="45.4186983" lon="10.4767079"><ele>115.0</ele><time>2026-03-29T08:17:07.278Z</time></trkpt><trkpt lat="45.4186494" lon="10.4767858"><ele>115.0</ele><time>2026-03-29T08:17:08.279Z</time></trkpt><trkpt lat="45.4186212" lon="10.476897"><ele>115.0</ele><time>2026-03-29T08:17:09.278Z</time></trkpt><trkpt lat="45.4186074" lon="10.4770364"><ele>115.0</ele><time>2026-03-29T08:17:10.278Z</time></trkpt><trkpt lat="45.418577" lon="10.4771812"><ele>115.0</ele><time>2026-03-29T08:17:11.279Z</time></trkpt><trkpt lat="45.4185283" lon="10.4773304"><ele>115.0</ele><time>2026-03-29T08:17:12.278Z</time></trkpt><trkpt lat="45.4184674" lon="10.4774696"><ele>116.0</ele><time>2026-03-29T08:17:13.278Z</time></trkpt><trkpt lat="45.4183982" lon="10.4775847"><ele>117.0</ele><time>2026-03-29T08:17:14.279Z</time></trkpt><trkpt lat="45.4183274" lon="10.4776806"><ele>118.0</ele><time>2026-03-29T08:17:15.279Z</time></trkpt><trkpt lat="45.4182579" lon="10.4777761"><ele>119.0</ele><time>2026-03-29T08:17:16.278Z</time></trkpt><trkpt lat="45.4181909" lon="10.4778873"><ele>120.0</ele><time>2026-03-29T08:17:17.279Z</time></trkpt><trkpt lat="45.4181343" lon="10.4780229"><ele>119.5</ele><time>2026-03-29T08:17:18.278Z</time></trkpt><trkpt lat="45.4180869" lon="10.4781827"><ele>119.0</ele><time>2026-03-29T08:17:19.279Z</time></trkpt><trkpt lat="45.4180414" lon="10.4783497"><ele>118.5</ele><time>2026-03-29T08:17:20.278Z</time></trkpt><trkpt lat="45.4179983" lon="10.4785154"><ele>118.0</ele><time>2026-03-29T08:17:21.278Z</time></trkpt><trkpt lat="45.417957" lon="10.4786887"><ele>119.0</ele><time>2026-03-29T08:17:22.278Z</time></trkpt><trkpt lat="45.4179108" lon="10.4788562"><ele>120.00000000000001</ele><time>2026-03-29T08:17:23.278Z</time></trkpt><trkpt lat="45.4178769" lon="10.4790162"><ele>121.00000000000001</ele><time>2026-03-29T08:17:24.278Z</time></trkpt><trkpt lat="45.4178465" lon="10.4791583"><ele>122.0</ele><time>2026-03-29T08:17:25.278Z</time></trkpt><trkpt lat="45.4178264" lon="10.4792929"><ele>123.0</ele><time>2026-03-29T08:17:26.278Z</time></trkpt><trkpt lat="45.4178316" lon="10.4794257"><ele>123.0</ele><time>2026-03-29T08:17:27.279Z</time></trkpt><trkpt lat="45.417861" lon="10.4795636"><ele>123.0</ele><time>2026-03-29T08:17:28.279Z</time></trkpt><trkpt lat="45.4179126" lon="10.4797096"><ele>123.0</ele><time>2026-03-29T08:17:29.279Z</time></trkpt><trkpt lat="45.4179749" lon="10.4798601"><ele>123.0</ele><time>2026-03-29T08:17:30.279Z</time></trkpt><trkpt lat="45.4180299" lon="10.4800147"><ele>124.0</ele><time>2026-03-29T08:17:31.279Z</time></trkpt><trkpt lat="45.4180793" lon="10.480176"><ele>125.0</ele><time>2026-03-29T08:17:32.279Z</time></trkpt><trkpt lat="45.4181206" lon="10.4803261"><ele>126.0</ele><time>2026-03-29T08:17:33.279Z</time></trkpt><trkpt lat="45.4181624" lon="10.4804678"><ele>127.0</ele><time>2026-03-29T08:17:34.279Z</time></trkpt><trkpt lat="45.4182121" lon="10.4806108"><ele>127.0</ele><time>2026-03-29T08:17:35.278Z</time></trkpt><trkpt lat="45.4182788" lon="10.4807413"><ele>126.99999999999999</ele><time>2026-03-29T08:17:36.279Z</time></trkpt><trkpt lat="45.4183615" lon="10.4808516"><ele>126.99999999999999</ele><time>2026-03-29T08:17:37.278Z</time></trkpt><trkpt lat="45.4184502" lon="10.4809451"><ele>127.0</ele><time>2026-03-29T08:17:38.279Z</time></trkpt><trkpt lat="45.4185359" lon="10.4810258"><ele>127.0</ele><time>2026-03-29T08:17:39.279Z</time></trkpt><trkpt lat="45.4186172" lon="10.4811014"><ele>127.00000000000001</ele><time>2026-03-29T08:17:40.279Z</time></trkpt><trkpt lat="45.418688" lon="10.481162"><ele>127.0</ele><time>2026-03-29T08:17:41.278Z</time></trkpt><trkpt lat="45.4187349" lon="10.481252"><ele>127.0</ele><time>2026-03-29T08:17:42.278Z</time></trkpt><trkpt lat="45.4187694" lon="10.481355"><ele>127.0</ele><time>2026-03-29T08:17:43.278Z</time></trkpt><trkpt lat="45.4187785" lon="10.4814675"><ele>127.00000000000001</ele><time>2026-03-29T08:17:44.279Z</time></trkpt><trkpt lat="45.4187644" lon="10.4815782"><ele>127.0</ele><time>2026-03-29T08:17:45.279Z</time></trkpt><trkpt lat="45.4187379" lon="10.481673"><ele>127.00000000000001</ele><time>2026-03-29T08:17:46.278Z</time></trkpt><trkpt lat="45.4186972" lon="10.4817437"><ele>127.0</ele><time>2026-03-29T08:17:47.278Z</time></trkpt><trkpt lat="45.4186564" lon="10.4818698"><ele>127.0</ele><time>2026-03-29T08:17:49.279Z</time></trkpt><trkpt lat="45.4186952" lon="10.4820007"><ele>127.0</ele><time>2026-03-29T08:17:51.279Z</time></trkpt><trkpt lat="45.4187336" lon="10.4820769"><ele>127.00000000000001</ele><time>2026-03-29T08:17:52.279Z</time></trkpt><trkpt lat="45.4187607" lon="10.4821706"><ele>127.0</ele><time>2026-03-29T08:17:53.278Z</time></trkpt><trkpt lat="45.4187742" lon="10.4823033"><ele>127.0</ele><time>2026-03-29T08:17:54.278Z</time></trkpt><trkpt lat="45.4187693" lon="10.482449"><ele>126.99999999999999</ele><time>2026-03-29T08:17:55.278Z</time></trkpt><trkpt lat="45.4187664" lon="10.4826061"><ele>126.99999999999999</ele><time>2026-03-29T08:17:56.278Z</time></trkpt><trkpt lat="45.4187676" lon="10.4827526"><ele>127.0</ele><time>2026-03-29T08:17:57.278Z</time></trkpt><trkpt lat="45.4187693" lon="10.4828861"><ele>127.0</ele><time>2026-03-29T08:17:58.278Z</time></trkpt><trkpt lat="45.4187914" lon="10.483007"><ele>126.6</ele><time>2026-03-29T08:17:59.278Z</time></trkpt><trkpt lat="45.4188326" lon="10.4831088"><ele>126.19999999999999</ele><time>2026-03-29T08:18:00.279Z</time></trkpt><trkpt lat="45.4188927" lon="10.4832067"><ele>125.8</ele><time>2026-03-29T08:18:01.278Z</time></trkpt><trkpt lat="45.4189778" lon="10.483287"><ele>125.4</ele><time>2026-03-29T08:18:02.278Z</time></trkpt><trkpt lat="45.4190744" lon="10.4833668"><ele>125.0</ele><time>2026-03-29T08:18:03.278Z</time></trkpt><trkpt lat="45.4191654" lon="10.4834512"><ele>124.99999999999999</ele><time>2026-03-29T08:18:04.279Z</time></trkpt><trkpt lat="45.4192526" lon="10.4835472"><ele>125.0</ele><time>2026-03-29T08:18:05.279Z</time></trkpt><trkpt lat="45.4193259" lon="10.4836483"><ele>125.0</ele><time>2026-03-29T08:18:06.279Z</time></trkpt><trkpt lat="45.4193816" lon="10.4837426"><ele>125.0</ele><time>2026-03-29T08:18:07.279Z</time></trkpt><trkpt lat="45.4194095" lon="10.4838424"><ele>124.99999999999999</ele><time>2026-03-29T08:18:08.279Z</time></trkpt><trkpt lat="45.4194149" lon="10.4839495"><ele>125.0</ele><time>2026-03-29T08:18:09.278Z</time></trkpt><trkpt lat="45.4194076" lon="10.4840743"><ele>125.49999999999999</ele><time>2026-03-29T08:18:10.279Z</time></trkpt><trkpt lat="45.4193892" lon="10.4842265"><ele>126.0</ele><time>2026-03-29T08:18:11.279Z</time></trkpt><trkpt lat="45.4193634" lon="10.4843759"><ele>126.5</ele><time>2026-03-29T08:18:12.279Z</time></trkpt><trkpt lat="45.419357" lon="10.4844988"><ele>127.0</ele><time>2026-03-29T08:18:13.279Z</time></trkpt><trkpt lat="45.4193735" lon="10.4845993"><ele>127.49999999999999</ele><time>2026-03-29T08:18:14.278Z</time></trkpt><trkpt lat="45.4194093" lon="10.4846864"><ele>128.0</ele><time>2026-03-29T08:18:15.278Z</time></trkpt><trkpt lat="45.4194581" lon="10.4847723"><ele>128.0</ele><time>2026-03-29T08:18:16.279Z</time></trkpt><trkpt lat="45.4195233" lon="10.4848604"><ele>128.0</ele><time>2026-03-29T08:18:17.278Z</time></trkpt><trkpt lat="45.4195972" lon="10.4849411"><ele>128.0</ele><time>2026-03-29T08:18:18.279Z</time></trkpt><trkpt lat="45.4196754" lon="10.4850183"><ele>128.0</ele><time>2026-03-29T08:18:19.279Z</time></trkpt><trkpt lat="45.4197613" lon="10.4851005"><ele>128.0</ele><time>2026-03-29T08:18:20.279Z</time></trkpt><trkpt lat="45.4198536" lon="10.4851755"><ele>128.0</ele><time>2026-03-29T08:18:21.278Z</time></trkpt><trkpt lat="45.4199512" lon="10.4852491"><ele>128.0</ele><time>2026-03-29T08:18:22.278Z</time></trkpt><trkpt lat="45.420055" lon="10.4853107"><ele>128.0</ele><time>2026-03-29T08:18:23.278Z</time></trkpt><trkpt lat="45.4201546" lon="10.4853668"><ele>128.0</ele><time>2026-03-29T08:18:24.279Z</time></trkpt><trkpt lat="45.4202602" lon="10.4854119"><ele>128.0</ele><time>2026-03-29T08:18:25.279Z</time></trkpt><trkpt lat="45.4203637" lon="10.485449"><ele>130.20000000000002</ele><time>2026-03-29T08:18:26.278Z</time></trkpt><trkpt lat="45.4204655" lon="10.4854817"><ele>132.4</ele><time>2026-03-29T08:18:27.279Z</time></trkpt><trkpt lat="45.420564" lon="10.4855029"><ele>134.60000000000002</ele><time>2026-03-29T08:18:28.279Z</time></trkpt><trkpt lat="45.4206561" lon="10.4855264"><ele>136.8</ele><time>2026-03-29T08:18:29.278Z</time></trkpt><trkpt lat="45.4207519" lon="10.4855275"><ele>139.0</ele><time>2026-03-29T08:18:30.279Z</time></trkpt><trkpt lat="45.4208637" lon="10.4855115"><ele>139.0</ele><time>2026-03-29T08:18:31.279Z</time></trkpt><trkpt lat="45.4209758" lon="10.4854855"><ele>139.0</ele><time>2026-03-29T08:18:32.278Z</time></trkpt><trkpt lat="45.4210865" lon="10.4854638"><ele>139.0</ele><time>2026-03-29T08:18:33.278Z</time></trkpt><trkpt lat="45.4211954" lon="10.4854605"><ele>139.0</ele><time>2026-03-29T08:18:34.278Z</time></trkpt><trkpt lat="45.4213094" lon="10.4854731"><ele>139.0</ele><time>2026-03-29T08:18:35.279Z</time></trkpt><trkpt lat="45.4214324" lon="10.4855016"><ele>139.25</ele><time>2026-03-29T08:18:36.278Z</time></trkpt><trkpt lat="45.4215575" lon="10.4855395"><ele>139.5</ele><time>2026-03-29T08:18:37.279Z</time></trkpt><trkpt lat="45.421678" lon="10.4855724"><ele>139.75</ele><time>2026-03-29T08:18:38.279Z</time></trkpt><trkpt lat="45.4217918" lon="10.485608"><ele>140.0</ele><time>2026-03-29T08:18:39.279Z</time></trkpt><trkpt lat="45.4219023" lon="10.4856583"><ele>140.0</ele><time>2026-03-29T08:18:40.278Z</time></trkpt><trkpt lat="45.4219975" lon="10.4857205"><ele>140.0</ele><time>2026-03-29T08:18:41.278Z</time></trkpt><trkpt lat="45.4220849" lon="10.485791"><ele>140.0</ele><time>2026-03-29T08:18:42.279Z</time></trkpt><trkpt lat="45.422164" lon="10.4858686"><ele>140.0</ele><time>2026-03-29T08:18:43.279Z</time></trkpt><trkpt lat="45.4222291" lon="10.4859581"><ele>140.0</ele><time>2026-03-29T08:18:44.279Z</time></trkpt><trkpt lat="45.4222903" lon="10.4860471"><ele>140.4</ele><time>2026-03-29T08:18:45.279Z</time></trkpt><trkpt lat="45.4223337" lon="10.486155"><ele>140.8</ele><time>2026-03-29T08:18:46.279Z</time></trkpt><trkpt lat="45.4223745" lon="10.4862715"><ele>141.2</ele><time>2026-03-29T08:18:47.279Z</time></trkpt><trkpt lat="45.4223969" lon="10.4864029"><ele>141.6</ele><time>2026-03-29T08:18:48.279Z</time></trkpt><trkpt lat="45.422412" lon="10.4865405"><ele>142.0</ele><time>2026-03-29T08:18:49.279Z</time></trkpt><trkpt lat="45.4224192" lon="10.4866871"><ele>142.5</ele><time>2026-03-29T08:18:50.278Z</time></trkpt><trkpt lat="45.4224181" lon="10.4868532"><ele>143.0</ele><time>2026-03-29T08:18:51.279Z</time></trkpt><trkpt lat="45.4224044" lon="10.4870282"><ele>143.5</ele><time>2026-03-29T08:18:52.279Z</time></trkpt><trkpt lat="45.4224043" lon="10.4872077"><ele>144.0</ele><time>2026-03-29T08:18:53.278Z</time></trkpt><trkpt lat="45.4223898" lon="10.4873744"><ele>144.6</ele><time>2026-03-29T08:18:54.279Z</time></trkpt><trkpt lat="45.4223828" lon="10.4875363"><ele>145.2</ele><time>2026-03-29T08:18:55.279Z</time></trkpt><trkpt lat="45.4223897" lon="10.4876943"><ele>145.79999999999998</ele><time>2026-03-29T08:18:56.278Z</time></trkpt><trkpt lat="45.4224098" lon="10.4878495"><ele>146.4</ele><time>2026-03-29T08:18:57.279Z</time></trkpt><trkpt lat="45.4224446" lon="10.4879938"><ele>147.0</ele><time>2026-03-29T08:18:58.279Z</time></trkpt><trkpt lat="45.4224914" lon="10.4881321"><ele>147.6</ele><time>2026-03-29T08:18:59.279Z</time></trkpt><trkpt lat="45.4225524" lon="10.4882511"><ele>148.2</ele><time>2026-03-29T08:19:00.279Z</time></trkpt><trkpt lat="45.4226195" lon="10.488352"><ele>148.8</ele><time>2026-03-29T08:19:01.279Z</time></trkpt><trkpt lat="45.4226939" lon="10.48844"><ele>149.4</ele><time>2026-03-29T08:19:02.278Z</time></trkpt><trkpt lat="45.4227712" lon="10.488525"><ele>150.0</ele><time>2026-03-29T08:19:03.278Z</time></trkpt><trkpt lat="45.4228591" lon="10.4885967"><ele>150.0</ele><time>2026-03-29T08:19:04.279Z</time></trkpt><trkpt lat="45.4229825" lon="10.4886932"><ele>150.0</ele><time>2026-03-29T08:19:05.278Z</time></trkpt><trkpt lat="45.4231278" lon="10.4888053"><ele>150.0</ele><time>2026-03-29T08:19:06.279Z</time></trkpt><trkpt lat="45.4232836" lon="10.4889011"><ele>150.75</ele><time>2026-03-29T08:19:07.279Z</time></trkpt><trkpt lat="45.4234133" lon="10.4889831"><ele>151.5</ele><time>2026-03-29T08:19:08.279Z</time></trkpt><trkpt lat="45.4235365" lon="10.4890577"><ele>152.25</ele><time>2026-03-29T08:19:09.278Z</time></trkpt><trkpt lat="45.4236461" lon="10.4891345"><ele>153.0</ele><time>2026-03-29T08:19:10.278Z</time></trkpt><trkpt lat="45.4237469" lon="10.4892412"><ele>153.0</ele><time>2026-03-29T08:19:11.279Z</time></trkpt><trkpt lat="45.4238413" lon="10.4893652"><ele>153.0</ele><time>2026-03-29T08:19:12.278Z</time></trkpt><trkpt lat="45.4239315" lon="10.4895176"><ele>153.0</ele><time>2026-03-29T08:19:13.278Z</time></trkpt><trkpt lat="45.4240273" lon="10.4896727"><ele>153.0</ele><time>2026-03-29T08:19:14.279Z</time></trkpt><trkpt lat="45.4241383" lon="10.4898296"><ele>152.66666666666666</ele><time>2026-03-29T08:19:15.279Z</time></trkpt><trkpt lat="45.4242512" lon="10.489983"><ele>152.33333333333331</ele><time>2026-03-29T08:19:16.278Z</time></trkpt><trkpt lat="45.4243624" lon="10.490132"><ele>152.0</ele><time>2026-03-29T08:19:17.278Z</time></trkpt><trkpt lat="45.4244803" lon="10.4902835"><ele>153.25</ele><time>2026-03-29T08:19:18.278Z</time></trkpt><trkpt lat="45.4246023" lon="10.4904248"><ele>154.5</ele><time>2026-03-29T08:19:19.279Z</time></trkpt><trkpt lat="45.4247105" lon="10.4905521"><ele>155.75</ele><time>2026-03-29T08:19:20.279Z</time></trkpt><trkpt lat="45.4248069" lon="10.4906654"><ele>157.0</ele><time>2026-03-29T08:19:21.279Z</time></trkpt><trkpt lat="45.4248914" lon="10.4907763"><ele>157.0</ele><time>2026-03-29T08:19:22.279Z</time></trkpt><trkpt lat="45.4249586" lon="10.4908873"><ele>157.0</ele><time>2026-03-29T08:19:23.278Z</time></trkpt><trkpt lat="45.4250061" lon="10.4909973"><ele>157.0</ele><time>2026-03-29T08:19:24.279Z</time></trkpt><trkpt lat="45.4250389" lon="10.4911119"><ele>157.0</ele><time>2026-03-29T08:19:25.278Z</time></trkpt><trkpt lat="45.4250563" lon="10.491228"><ele>157.0</ele><time>2026-03-29T08:19:26.279Z</time></trkpt><trkpt lat="45.4250572" lon="10.4913437"><ele>157.0</ele><time>2026-03-29T08:19:27.279Z</time></trkpt><trkpt lat="45.4250509" lon="10.491474"><ele>156.2</ele><time>2026-03-29T08:19:28.278Z</time></trkpt><trkpt lat="45.425037" lon="10.4916185"><ele>155.39999999999998</ele><time>2026-03-29T08:19:29.278Z</time></trkpt><trkpt lat="45.4250215" lon="10.4917726"><ele>154.60000000000002</ele><time>2026-03-29T08:19:30.279Z</time></trkpt><trkpt lat="45.425016" lon="10.491929"><ele>153.8</ele><time>2026-03-29T08:19:31.279Z</time></trkpt><trkpt lat="45.4250117" lon="10.4920846"><ele>153.0</ele><time>2026-03-29T08:19:32.279Z</time></trkpt><trkpt lat="45.425008" lon="10.4922403"><ele>152.16666666666666</ele><time>2026-03-29T08:19:33.278Z</time></trkpt><trkpt lat="45.4250047" lon="10.4923766"><ele>151.33333333333334</ele><time>2026-03-29T08:19:34.278Z</time></trkpt><trkpt lat="45.4250089" lon="10.4925046"><ele>150.5</ele><time>2026-03-29T08:19:35.279Z</time></trkpt><trkpt lat="45.4250332" lon="10.4926286"><ele>149.66666666666669</ele><time>2026-03-29T08:19:36.278Z</time></trkpt><trkpt lat="45.42507" lon="10.4927282"><ele>148.83333333333334</ele><time>2026-03-29T08:19:37.279Z</time></trkpt><trkpt lat="45.4251196" lon="10.4928018"><ele>148.0</ele><time>2026-03-29T08:19:38.278Z</time></trkpt><trkpt lat="45.4251884" lon="10.4928763"><ele>147.25</ele><time>2026-03-29T08:19:39.279Z</time></trkpt><trkpt lat="45.4252868" lon="10.4929424"><ele>146.5</ele><time>2026-03-29T08:19:40.278Z</time></trkpt><trkpt lat="45.4254054" lon="10.49301"><ele>145.75</ele><time>2026-03-29T08:19:41.279Z</time></trkpt><trkpt lat="45.4255395" lon="10.493081"><ele>145.0</ele><time>2026-03-29T08:19:42.278Z</time></trkpt><trkpt lat="45.4256775" lon="10.4931578"><ele>145.0</ele><time>2026-03-29T08:19:43.278Z</time></trkpt><trkpt lat="45.425801" lon="10.4932384"><ele>145.0</ele><time>2026-03-29T08:19:44.279Z</time></trkpt><trkpt lat="45.4259154" lon="10.4933127"><ele>145.0</ele><time>2026-03-29T08:19:45.278Z</time></trkpt><trkpt lat="45.4260271" lon="10.4933811"><ele>145.0</ele><time>2026-03-29T08:19:46.279Z</time></trkpt><trkpt lat="45.4261362" lon="10.4934342"><ele>145.0</ele><time>2026-03-29T08:19:47.279Z</time></trkpt><trkpt lat="45.4262508" lon="10.4934915"><ele>145.0</ele><time>2026-03-29T08:19:48.279Z</time></trkpt><trkpt lat="45.4263629" lon="10.4935508"><ele>145.0</ele><time>2026-03-29T08:19:49.278Z</time></trkpt><trkpt lat="45.4264704" lon="10.4936149"><ele>145.0</ele><time>2026-03-29T08:19:50.279Z</time></trkpt><trkpt lat="45.426573" lon="10.4936882"><ele>144.25</ele><time>2026-03-29T08:19:51.279Z</time></trkpt><trkpt lat="45.4266725" lon="10.4937717"><ele>143.5</ele><time>2026-03-29T08:19:52.279Z</time></trkpt><trkpt lat="45.426767" lon="10.4938636"><ele>142.75</ele><time>2026-03-29T08:19:53.278Z</time></trkpt><trkpt lat="45.4268689" lon="10.4939619"><ele>142.0</ele><time>2026-03-29T08:19:54.278Z</time></trkpt><trkpt lat="45.4269702" lon="10.494052"><ele>142.0</ele><time>2026-03-29T08:19:55.279Z</time></trkpt><trkpt lat="45.4270528" lon="10.4941256"><ele>142.0</ele><time>2026-03-29T08:19:56.278Z</time></trkpt><trkpt lat="45.427139" lon="10.4941664"><ele>142.0</ele><time>2026-03-29T08:19:57.279Z</time></trkpt><trkpt lat="45.4272229" lon="10.4941708"><ele>142.0</ele><time>2026-03-29T08:19:58.279Z</time></trkpt><trkpt lat="45.4273166" lon="10.4941431"><ele>142.0</ele><time>2026-03-29T08:19:59.279Z</time></trkpt><trkpt lat="45.4274161" lon="10.4941158"><ele>142.75</ele><time>2026-03-29T08:20:00.279Z</time></trkpt><trkpt lat="45.4275267" lon="10.4940849"><ele>143.5</ele><time>2026-03-29T08:20:01.278Z</time></trkpt><trkpt lat="45.4276442" lon="10.4940571"><ele>144.25</ele><time>2026-03-29T08:20:02.278Z</time></trkpt><trkpt lat="45.4277701" lon="10.4940388"><ele>145.0</ele><time>2026-03-29T08:20:03.278Z</time></trkpt><trkpt lat="45.4279031" lon="10.4940349"><ele>145.75</ele><time>2026-03-29T08:20:04.279Z</time></trkpt><trkpt lat="45.4280307" lon="10.4940304"><ele>146.5</ele><time>2026-03-29T08:20:05.278Z</time></trkpt><trkpt lat="45.4281513" lon="10.4940375"><ele>147.25</ele><time>2026-03-29T08:20:06.278Z</time></trkpt><trkpt lat="45.4282654" lon="10.4940564"><ele>148.0</ele><time>2026-03-29T08:20:07.278Z</time></trkpt><trkpt lat="45.4283781" lon="10.4940976"><ele>148.0</ele><time>2026-03-29T08:20:08.278Z</time></trkpt><trkpt lat="45.4285" lon="10.4941665"><ele>148.0</ele><time>2026-03-29T08:20:09.279Z</time></trkpt><trkpt lat="45.4286226" lon="10.494241"><ele>148.0</ele><time>2026-03-29T08:20:10.279Z</time></trkpt><trkpt lat="45.4287508" lon="10.4943198"><ele>148.0</ele><time>2026-03-29T08:20:11.279Z</time></trkpt><trkpt lat="45.4288881" lon="10.4943822"><ele>148.5</ele><time>2026-03-29T08:20:12.279Z</time></trkpt><trkpt lat="45.4290258" lon="10.4944548"><ele>149.0</ele><time>2026-03-29T08:20:13.278Z</time></trkpt><trkpt lat="45.4291614" lon="10.4945122"><ele>149.5</ele><time>2026-03-29T08:20:14.279Z</time></trkpt><trkpt lat="45.4292813" lon="10.4945784"><ele>150.0</ele><time>2026-03-29T08:20:15.279Z</time></trkpt><trkpt lat="45.4294038" lon="10.4946537"><ele>148.5</ele><time>2026-03-29T08:20:16.278Z</time></trkpt><trkpt lat="45.4295175" lon="10.4947335"><ele>147.0</ele><time>2026-03-29T08:20:17.279Z</time></trkpt><trkpt lat="45.4296316" lon="10.4948345"><ele>145.5</ele><time>2026-03-29T08:20:18.278Z</time></trkpt><trkpt lat="45.4297447" lon="10.4949468"><ele>144.0</ele><time>2026-03-29T08:20:19.278Z</time></trkpt><trkpt lat="45.4298518" lon="10.4950787"><ele>145.5</ele><time>2026-03-29T08:20:20.278Z</time></trkpt><trkpt lat="45.4299505" lon="10.4951985"><ele>147.0</ele><time>2026-03-29T08:20:21.279Z</time></trkpt><trkpt lat="45.4300441" lon="10.4953156"><ele>148.5</ele><time>2026-03-29T08:20:22.279Z</time></trkpt><trkpt lat="45.4301304" lon="10.4954353"><ele>150.0</ele><time>2026-03-29T08:20:23.279Z</time></trkpt><trkpt lat="45.4302108" lon="10.4955463"><ele>150.0</ele><time>2026-03-29T08:20:24.278Z</time></trkpt><trkpt lat="45.4302751" lon="10.4956659"><ele>150.0</ele><time>2026-03-29T08:20:25.279Z</time></trkpt><trkpt lat="45.4303276" lon="10.4957996"><ele>150.0</ele><time>2026-03-29T08:20:26.279Z</time></trkpt><trkpt lat="45.4303755" lon="10.4959454"><ele>150.0</ele><time>2026-03-29T08:20:27.278Z</time></trkpt><trkpt lat="45.4304278" lon="10.4960852"><ele>150.0</ele><time>2026-03-29T08:20:28.279Z</time></trkpt><trkpt lat="45.4304906" lon="10.4962109"><ele>151.6</ele><time>2026-03-29T08:20:29.279Z</time></trkpt><trkpt lat="45.4305609" lon="10.4963323"><ele>153.2</ele><time>2026-03-29T08:20:30.279Z</time></trkpt><trkpt lat="45.4306424" lon="10.4964469"><ele>154.8</ele><time>2026-03-29T08:20:31.279Z</time></trkpt><trkpt lat="45.4307321" lon="10.4965503"><ele>156.4</ele><time>2026-03-29T08:20:32.278Z</time></trkpt><trkpt lat="45.4308174" lon="10.4966454"><ele>158.0</ele><time>2026-03-29T08:20:33.278Z</time></trkpt><trkpt lat="45.4309068" lon="10.4967309"><ele>158.0</ele><time>2026-03-29T08:20:34.278Z</time></trkpt><trkpt lat="45.431009" lon="10.496817"><ele>158.0</ele><time>2026-03-29T08:20:35.278Z</time></trkpt><trkpt lat="45.4311128" lon="10.496914"><ele>158.0</ele><time>2026-03-29T08:20:36.279Z</time></trkpt><trkpt lat="45.4312085" lon="10.4969936"><ele>158.0</ele><time>2026-03-29T08:20:37.279Z</time></trkpt><trkpt lat="45.4312924" lon="10.4970713"><ele>157.6</ele><time>2026-03-29T08:20:38.279Z</time></trkpt><trkpt lat="45.4313657" lon="10.497163"><ele>157.20000000000002</ele><time>2026-03-29T08:20:39.279Z</time></trkpt><trkpt lat="45.4314197" lon="10.4972602"><ele>156.8</ele><time>2026-03-29T08:20:40.279Z</time></trkpt><trkpt lat="45.4314607" lon="10.4973766"><ele>156.4</ele><time>2026-03-29T08:20:41.278Z</time></trkpt><trkpt lat="45.4314951" lon="10.4975064"><ele>156.0</ele><time>2026-03-29T08:20:42.279Z</time></trkpt><trkpt lat="45.4315387" lon="10.4976543"><ele>156.0</ele><time>2026-03-29T08:20:43.278Z</time></trkpt><trkpt lat="45.4315876" lon="10.497809"><ele>156.0</ele><time>2026-03-29T08:20:44.278Z</time></trkpt><trkpt lat="45.4316326" lon="10.4979605"><ele>156.0</ele><time>2026-03-29T08:20:45.279Z</time></trkpt><trkpt lat="45.4316742" lon="10.4980982"><ele>156.0</ele><time>2026-03-29T08:20:46.279Z</time></trkpt><trkpt lat="45.4317108" lon="10.4982268"><ele>156.0</ele><time>2026-03-29T08:20:47.279Z</time></trkpt><trkpt lat="45.4317386" lon="10.4983486"><ele>155.0</ele><time>2026-03-29T08:20:48.279Z</time></trkpt><trkpt lat="45.4317521" lon="10.4984585"><ele>154.0</ele><time>2026-03-29T08:20:49.278Z</time></trkpt><trkpt lat="45.4317482" lon="10.4986164"><ele>153.0</ele><time>2026-03-29T08:20:51.278Z</time></trkpt><trkpt lat="45.4317467" lon="10.4987156"><ele>152.0</ele><time>2026-03-29T08:20:52.279Z</time></trkpt><trkpt lat="45.4317433" lon="10.498823"><ele>151.0</ele><time>2026-03-29T08:20:53.279Z</time></trkpt><trkpt lat="45.4317394" lon="10.4989323"><ele>150.0</ele><time>2026-03-29T08:20:54.278Z</time></trkpt><trkpt lat="45.4317289" lon="10.4990436"><ele>150.0</ele><time>2026-03-29T08:20:55.278Z</time></trkpt><trkpt lat="45.4317118" lon="10.4991669"><ele>150.0</ele><time>2026-03-29T08:20:56.278Z</time></trkpt><trkpt lat="45.4316936" lon="10.4992879"><ele>150.0</ele><time>2026-03-29T08:20:57.279Z</time></trkpt><trkpt lat="45.4316785" lon="10.4994132"><ele>150.0</ele><time>2026-03-29T08:20:58.278Z</time></trkpt><trkpt lat="45.4316644" lon="10.4995379"><ele>150.0</ele><time>2026-03-29T08:20:59.279Z</time></trkpt><trkpt lat="45.4316508" lon="10.4996508"><ele>150.0</ele><time>2026-03-29T08:21:00.278Z</time></trkpt><trkpt lat="45.4316355" lon="10.4997621"><ele>150.0</ele><time>2026-03-29T08:21:01.278Z</time></trkpt><trkpt lat="45.4316163" lon="10.499871"><ele>150.0</ele><time>2026-03-29T08:21:02.278Z</time></trkpt><trkpt lat="45.431595" lon="10.4999782"><ele>150.0</ele><time>2026-03-29T08:21:03.279Z</time></trkpt><trkpt lat="45.43158" lon="10.5000844"><ele>150.0</ele><time>2026-03-29T08:21:04.279Z</time></trkpt><trkpt lat="45.4315604" lon="10.5001918"><ele>150.0</ele><time>2026-03-29T08:21:05.279Z</time></trkpt><trkpt lat="45.43154" lon="10.5002919"><ele>150.0</ele><time>2026-03-29T08:21:06.279Z</time></trkpt><trkpt lat="45.4315264" lon="10.5003983"><ele>149.6</ele><time>2026-03-29T08:21:07.278Z</time></trkpt><trkpt lat="45.4315041" lon="10.5005073"><ele>149.2</ele><time>2026-03-29T08:21:08.278Z</time></trkpt><trkpt lat="45.4314795" lon="10.500616"><ele>148.8</ele><time>2026-03-29T08:21:09.278Z</time></trkpt><trkpt lat="45.4314553" lon="10.5007371"><ele>148.4</ele><time>2026-03-29T08:21:10.279Z</time></trkpt><trkpt lat="45.4314277" lon="10.5008716"><ele>148.0</ele><time>2026-03-29T08:21:11.278Z</time></trkpt><trkpt lat="45.4314019" lon="10.5010189"><ele>148.0</ele><time>2026-03-29T08:21:12.279Z</time></trkpt><trkpt lat="45.4313741" lon="10.501179"><ele>148.0</ele><time>2026-03-29T08:21:13.278Z</time></trkpt><trkpt lat="45.4313462" lon="10.5013414"><ele>148.0</ele><time>2026-03-29T08:21:14.279Z</time></trkpt><trkpt lat="45.4313145" lon="10.5014972"><ele>148.0</ele><time>2026-03-29T08:21:15.279Z</time></trkpt><trkpt lat="45.4312928" lon="10.5016359"><ele>148.0</ele><time>2026-03-29T08:21:16.279Z</time></trkpt><trkpt lat="45.4312717" lon="10.5017554"><ele>147.8</ele><time>2026-03-29T08:21:17.278Z</time></trkpt><trkpt lat="45.4312542" lon="10.5018582"><ele>147.60000000000002</ele><time>2026-03-29T08:21:18.278Z</time></trkpt><trkpt lat="45.4312353" lon="10.5019478"><ele>147.39999999999998</ele><time>2026-03-29T08:21:19.278Z</time></trkpt><trkpt lat="45.4311734" lon="10.5020357"><ele>147.2</ele><time>2026-03-29T08:21:21.279Z</time></trkpt><trkpt lat="45.431092" lon="10.5020195"><ele>147.0</ele><time>2026-03-29T08:21:23.279Z</time></trkpt><trkpt lat="45.4309721" lon="10.5018992"><ele>147.0</ele><time>2026-03-29T08:21:25.279Z</time></trkpt><trkpt lat="45.4308878" lon="10.5017984"><ele>147.0</ele><time>2026-03-29T08:21:26.278Z</time></trkpt><trkpt lat="45.4307785" lon="10.5016729"><ele>147.0</ele><time>2026-03-29T08:21:27.278Z</time></trkpt><trkpt lat="45.4306497" lon="10.501535"><ele>147.0</ele><time>2026-03-29T08:21:28.279Z</time></trkpt><trkpt lat="45.4305153" lon="10.5014005"><ele>147.0</ele><time>2026-03-29T08:21:29.279Z</time></trkpt><trkpt lat="45.4303887" lon="10.5012789"><ele>147.0</ele><time>2026-03-29T08:21:30.279Z</time></trkpt><trkpt lat="45.4302772" lon="10.501165"><ele>147.0</ele><time>2026-03-29T08:21:31.279Z</time></trkpt><trkpt lat="45.43017" lon="10.5010571"><ele>147.0</ele><time>2026-03-29T08:21:32.279Z</time></trkpt><trkpt lat="45.4300713" lon="10.5009572"><ele>146.6</ele><time>2026-03-29T08:21:33.279Z</time></trkpt><trkpt lat="45.4299835" lon="10.5008642"><ele>146.2</ele><time>2026-03-29T08:21:34.278Z</time></trkpt><trkpt lat="45.4299037" lon="10.5007817"><ele>145.8</ele><time>2026-03-29T08:21:35.279Z</time></trkpt><trkpt lat="45.4298353" lon="10.500718"><ele>145.4</ele><time>2026-03-29T08:21:36.278Z</time></trkpt><trkpt lat="45.4297379" lon="10.5006654"><ele>145.0</ele><time>2026-03-29T08:21:38.277Z</time></trkpt><trkpt lat="45.4296542" lon="10.5007385"><ele>146.0</ele><time>2026-03-29T08:21:40.277Z</time></trkpt><trkpt lat="45.4296145" lon="10.5008288"><ele>147.0</ele><time>2026-03-29T08:21:41.278Z</time></trkpt><trkpt lat="45.4295718" lon="10.5009503"><ele>148.0</ele><time>2026-03-29T08:21:42.278Z</time></trkpt><trkpt lat="45.4295162" lon="10.5010899"><ele>149.0</ele><time>2026-03-29T08:21:43.277Z</time></trkpt><trkpt lat="45.4294512" lon="10.5012241"><ele>150.0</ele><time>2026-03-29T08:21:44.278Z</time></trkpt><trkpt lat="45.4293788" lon="10.5013598"><ele>150.25</ele><time>2026-03-29T08:21:45.277Z</time></trkpt><trkpt lat="45.4293005" lon="10.5014916"><ele>150.5</ele><time>2026-03-29T08:21:46.277Z</time></trkpt><trkpt lat="45.4292185" lon="10.5016188"><ele>150.75</ele><time>2026-03-29T08:21:47.278Z</time></trkpt><trkpt lat="45.4291455" lon="10.5017484"><ele>151.0</ele><time>2026-03-29T08:21:48.277Z</time></trkpt><trkpt lat="45.4290878" lon="10.5018758"><ele>151.0</ele><time>2026-03-29T08:21:49.278Z</time></trkpt><trkpt lat="45.4290456" lon="10.5020071"><ele>151.0</ele><time>2026-03-29T08:21:50.277Z</time></trkpt><trkpt lat="45.4290042" lon="10.5021404"><ele>151.0</ele><time>2026-03-29T08:21:51.278Z</time></trkpt><trkpt lat="45.4289586" lon="10.5022795"><ele>151.0</ele><time>2026-03-29T08:21:52.278Z</time></trkpt><trkpt lat="45.4289151" lon="10.502421"><ele>151.0</ele><time>2026-03-29T08:21:53.278Z</time></trkpt><trkpt lat="45.4288761" lon="10.502558"><ele>151.16666666666669</ele><time>2026-03-29T08:21:54.277Z</time></trkpt><trkpt lat="45.4288285" lon="10.5026743"><ele>151.33333333333334</ele><time>2026-03-29T08:21:55.278Z</time></trkpt><trkpt lat="45.4287776" lon="10.5027826"><ele>151.5</ele><time>2026-03-29T08:21:56.278Z</time></trkpt><trkpt lat="45.4287284" lon="10.5028837"><ele>151.66666666666666</ele><time>2026-03-29T08:21:57.278Z</time></trkpt><trkpt lat="45.4286832" lon="10.5029696"><ele>151.83333333333331</ele><time>2026-03-29T08:21:58.277Z</time></trkpt><trkpt lat="45.4286372" lon="10.5030427"><ele>152.0</ele><time>2026-03-29T08:21:59.278Z</time></trkpt><trkpt lat="45.428583" lon="10.5030965"><ele>151.7142857142857</ele><time>2026-03-29T08:22:00.278Z</time></trkpt><trkpt lat="45.4285127" lon="10.5031302"><ele>151.42857142857144</ele><time>2026-03-29T08:22:01.278Z</time></trkpt><trkpt lat="45.4284388" lon="10.5031557"><ele>151.14285714285714</ele><time>2026-03-29T08:22:02.277Z</time></trkpt><trkpt lat="45.4283672" lon="10.5031913"><ele>150.85714285714283</ele><time>2026-03-29T08:22:03.278Z</time></trkpt><trkpt lat="45.4283019" lon="10.5032367"><ele>150.57142857142856</ele><time>2026-03-29T08:22:04.277Z</time></trkpt><trkpt lat="45.4282403" lon="10.5032947"><ele>150.28571428571428</ele><time>2026-03-29T08:22:05.278Z</time></trkpt><trkpt lat="45.4281896" lon="10.5033682"><ele>150.0</ele><time>2026-03-29T08:22:06.278Z</time></trkpt><trkpt lat="45.4281404" lon="10.5034558"><ele>150.0</ele><time>2026-03-29T08:22:07.278Z</time></trkpt><trkpt lat="45.4280943" lon="10.5035519"><ele>150.0</ele><time>2026-03-29T08:22:08.278Z</time></trkpt><trkpt lat="45.4280497" lon="10.5036348"><ele>150.0</ele><time>2026-03-29T08:22:09.277Z</time></trkpt><trkpt lat="45.4280024" lon="10.5037032"><ele>150.0</ele><time>2026-03-29T08:22:10.277Z</time></trkpt><trkpt lat="45.4279001" lon="10.5037828"><ele>150.0</ele><time>2026-03-29T08:22:12.277Z</time></trkpt><trkpt lat="45.4278399" lon="10.5038147"><ele>150.0</ele><time>2026-03-29T08:22:13.278Z</time></trkpt><trkpt lat="45.4277754" lon="10.5038509"><ele>148.16666666666666</ele><time>2026-03-29T08:22:14.277Z</time></trkpt><trkpt lat="45.4277111" lon="10.5039059"><ele>146.33333333333334</ele><time>2026-03-29T08:22:15.278Z</time></trkpt><trkpt lat="45.4276384" lon="10.5039753"><ele>144.5</ele><time>2026-03-29T08:22:16.278Z</time></trkpt><trkpt lat="45.4275671" lon="10.5040438"><ele>142.66666666666669</ele><time>2026-03-29T08:22:17.277Z</time></trkpt><trkpt lat="45.4274939" lon="10.5040988"><ele>140.83333333333334</ele><time>2026-03-29T08:22:18.278Z</time></trkpt><trkpt lat="45.4274051" lon="10.5041368"><ele>139.0</ele><time>2026-03-29T08:22:19.278Z</time></trkpt><trkpt lat="45.4273115" lon="10.5041516"><ele>139.0</ele><time>2026-03-29T08:22:20.277Z</time></trkpt><trkpt lat="45.4272132" lon="10.5041494"><ele>139.0</ele><time>2026-03-29T08:22:21.278Z</time></trkpt><trkpt lat="45.4271229" lon="10.5041381"><ele>139.0</ele><time>2026-03-29T08:22:22.278Z</time></trkpt><trkpt lat="45.4270393" lon="10.5041189"><ele>139.0</ele><time>2026-03-29T08:22:23.278Z</time></trkpt><trkpt lat="45.426962" lon="10.5041018"><ele>139.0</ele><time>2026-03-29T08:22:24.278Z</time></trkpt><trkpt lat="45.426885" lon="10.5040847"><ele>139.0</ele><time>2026-03-29T08:22:25.278Z</time></trkpt><trkpt lat="45.4268021" lon="10.5040792"><ele>139.16666666666669</ele><time>2026-03-29T08:22:26.278Z</time></trkpt><trkpt lat="45.4267203" lon="10.5040772"><ele>139.33333333333334</ele><time>2026-03-29T08:22:27.277Z</time></trkpt><trkpt lat="45.4266371" lon="10.5040815"><ele>139.5</ele><time>2026-03-29T08:22:28.278Z</time></trkpt><trkpt lat="45.42655" lon="10.5041028"><ele>139.66666666666666</ele><time>2026-03-29T08:22:29.278Z</time></trkpt><trkpt lat="45.4264658" lon="10.5041487"><ele>139.83333333333331</ele><time>2026-03-29T08:22:30.278Z</time></trkpt><trkpt lat="45.4263749" lon="10.5042131"><ele>140.0</ele><time>2026-03-29T08:22:31.277Z</time></trkpt><trkpt lat="45.4262896" lon="10.5042915"><ele>139.66666666666666</ele><time>2026-03-29T08:22:32.278Z</time></trkpt><trkpt lat="45.4262094" lon="10.5043693"><ele>139.33333333333331</ele><time>2026-03-29T08:22:33.278Z</time></trkpt><trkpt lat="45.4261339" lon="10.5044463"><ele>139.0</ele><time>2026-03-29T08:22:34.277Z</time></trkpt><trkpt lat="45.4260634" lon="10.5045223"><ele>138.66666666666666</ele><time>2026-03-29T08:22:35.278Z</time></trkpt><trkpt lat="45.4259998" lon="10.5045928"><ele>138.33333333333334</ele><time>2026-03-29T08:22:36.278Z</time></trkpt><trkpt lat="45.4259407" lon="10.5046578"><ele>138.0</ele><time>2026-03-29T08:22:37.278Z</time></trkpt><trkpt lat="45.4258828" lon="10.5047202"><ele>136.20000000000002</ele><time>2026-03-29T08:22:38.278Z</time></trkpt><trkpt lat="45.4258252" lon="10.5047806"><ele>134.4</ele><time>2026-03-29T08:22:39.278Z</time></trkpt><trkpt lat="45.4257694" lon="10.5048327"><ele>132.60000000000002</ele><time>2026-03-29T08:22:40.278Z</time></trkpt><trkpt lat="45.4256989" lon="10.5049198"><ele>130.8</ele><time>2026-03-29T08:22:42.277Z</time></trkpt><trkpt lat="45.4257615" lon="10.5049805"><ele>129.0</ele><time>2026-03-29T08:22:48.277Z</time></trkpt><trkpt lat="45.4259195" lon="10.5049313"><ele>129.0</ele><time>2026-03-29T08:22:50.278Z</time></trkpt><trkpt lat="45.4260306" lon="10.5048915"><ele>129.0</ele><time>2026-03-29T08:22:51.278Z</time></trkpt><trkpt lat="45.4261457" lon="10.5048563"><ele>129.0</ele><time>2026-03-29T08:22:52.278Z</time></trkpt><trkpt lat="45.4262599" lon="10.5048073"><ele>129.0</ele><time>2026-03-29T08:22:53.277Z</time></trkpt><trkpt lat="45.4263718" lon="10.50475"><ele>128.75</ele><time>2026-03-29T08:22:54.278Z</time></trkpt><trkpt lat="45.4264838" lon="10.5046974"><ele>128.5</ele><time>2026-03-29T08:22:55.277Z</time></trkpt><trkpt lat="45.4265896" lon="10.5046638"><ele>128.25</ele><time>2026-03-29T08:22:56.278Z</time></trkpt><trkpt lat="45.4266984" lon="10.5046392"><ele>128.0</ele><time>2026-03-29T08:22:57.278Z</time></trkpt><trkpt lat="45.4268153" lon="10.5046284"><ele>128.0</ele><time>2026-03-29T08:22:58.277Z</time></trkpt><trkpt lat="45.426942" lon="10.5046274"><ele>128.0</ele><time>2026-03-29T08:22:59.278Z</time></trkpt><trkpt lat="45.4270708" lon="10.5046283"><ele>128.0</ele><time>2026-03-29T08:23:00.278Z</time></trkpt><trkpt lat="45.4272032" lon="10.5046394"><ele>128.0</ele><time>2026-03-29T08:23:01.278Z</time></trkpt><trkpt lat="45.4273273" lon="10.50465"><ele>128.5</ele><time>2026-03-29T08:23:02.278Z</time></trkpt><trkpt lat="45.4274465" lon="10.5046791"><ele>129.0</ele><time>2026-03-29T08:23:03.277Z</time></trkpt><trkpt lat="45.4275647" lon="10.5047228"><ele>129.5</ele><time>2026-03-29T08:23:04.277Z</time></trkpt><trkpt lat="45.4276943" lon="10.5047792"><ele>130.0</ele><time>2026-03-29T08:23:05.278Z</time></trkpt><trkpt lat="45.4278285" lon="10.5048549"><ele>131.33333333333334</ele><time>2026-03-29T08:23:06.277Z</time></trkpt><trkpt lat="45.4279769" lon="10.5049442"><ele>132.66666666666666</ele><time>2026-03-29T08:23:07.277Z</time></trkpt><trkpt lat="45.4281231" lon="10.5050264"><ele>134.0</ele><time>2026-03-29T08:23:08.278Z</time></trkpt><trkpt lat="45.4282675" lon="10.505099"><ele>134.0</ele><time>2026-03-29T08:23:09.277Z</time></trkpt><trkpt lat="45.4284134" lon="10.5051633"><ele>134.0</ele><time>2026-03-29T08:23:10.278Z</time></trkpt><trkpt lat="45.4285643" lon="10.505234"><ele>134.0</ele><time>2026-03-29T08:23:11.278Z</time></trkpt><trkpt lat="45.4287216" lon="10.5053083"><ele>133.33333333333331</ele><time>2026-03-29T08:23:12.278Z</time></trkpt><trkpt lat="45.428882" lon="10.5053753"><ele>132.66666666666666</ele><time>2026-03-29T08:23:13.278Z</time></trkpt><trkpt lat="45.4290456" lon="10.5054372"><ele>132.0</ele><time>2026-03-29T08:23:14.278Z</time></trkpt><trkpt lat="45.4292076" lon="10.5055065"><ele>132.0</ele><time>2026-03-29T08:23:15.277Z</time></trkpt><trkpt lat="45.4293618" lon="10.5055787"><ele>132.0</ele><time>2026-03-29T08:23:16.278Z</time></trkpt><trkpt lat="45.4295086" lon="10.5056543"><ele>132.0</ele><time>2026-03-29T08:23:17.277Z</time></trkpt><trkpt lat="45.4296402" lon="10.5057396"><ele>133.5</ele><time>2026-03-29T08:23:18.278Z</time></trkpt><trkpt lat="45.4297575" lon="10.5058309"><ele>135.0</ele><time>2026-03-29T08:23:19.278Z</time></trkpt><trkpt lat="45.4298647" lon="10.50592"><ele>136.5</ele><time>2026-03-29T08:23:20.278Z</time></trkpt><trkpt lat="45.4299758" lon="10.506015"><ele>138.0</ele><time>2026-03-29T08:23:21.278Z</time></trkpt><trkpt lat="45.4300939" lon="10.5061043"><ele>138.0</ele><time>2026-03-29T08:23:22.277Z</time></trkpt><trkpt lat="45.4302196" lon="10.5061768"><ele>138.0</ele><time>2026-03-29T08:23:23.278Z</time></trkpt><trkpt lat="45.4303613" lon="10.5062258"><ele>138.0</ele><time>2026-03-29T08:23:24.277Z</time></trkpt><trkpt lat="45.4305094" lon="10.5062514"><ele>138.0</ele><time>2026-03-29T08:23:25.278Z</time></trkpt><trkpt lat="45.4306659" lon="10.5062729"><ele>137.0</ele><time>2026-03-29T08:23:26.277Z</time></trkpt><trkpt lat="45.4308237" lon="10.5062838"><ele>136.0</ele><time>2026-03-29T08:23:27.277Z</time></trkpt><trkpt lat="45.4309804" lon="10.5062852"><ele>135.0</ele><time>2026-03-29T08:23:28.277Z</time></trkpt><trkpt lat="45.431139" lon="10.506289"><ele>135.0</ele><time>2026-03-29T08:23:29.278Z</time></trkpt><trkpt lat="45.4312849" lon="10.5062979"><ele>135.0</ele><time>2026-03-29T08:23:30.278Z</time></trkpt><trkpt lat="45.4314189" lon="10.5063193"><ele>135.0</ele><time>2026-03-29T08:23:31.278Z</time></trkpt><trkpt lat="45.4315391" lon="10.5063482"><ele>135.0</ele><time>2026-03-29T08:23:32.278Z</time></trkpt><trkpt lat="45.431644" lon="10.5063828"><ele>135.5</ele><time>2026-03-29T08:23:33.278Z</time></trkpt><trkpt lat="45.431738" lon="10.5063926"><ele>136.0</ele><time>2026-03-29T08:23:34.277Z</time></trkpt><trkpt lat="45.4318193" lon="10.506406"><ele>136.5</ele><time>2026-03-29T08:23:35.277Z</time></trkpt><trkpt lat="45.4318805" lon="10.506428"><ele>137.0</ele><time>2026-03-29T08:23:36.278Z</time></trkpt><trkpt lat="45.4319283" lon="10.5065122"><ele>137.5</ele><time>2026-03-29T08:23:38.277Z</time></trkpt><trkpt lat="45.4319086" lon="10.5066694"><ele>138.0</ele><time>2026-03-29T08:23:40.278Z</time></trkpt><trkpt lat="45.4318485" lon="10.506803"><ele>138.0</ele><time>2026-03-29T08:23:41.277Z</time></trkpt><trkpt lat="45.4317653" lon="10.5069515"><ele>138.0</ele><time>2026-03-29T08:23:42.278Z</time></trkpt><trkpt lat="45.431674" lon="10.5071076"><ele>138.0</ele><time>2026-03-29T08:23:43.278Z</time></trkpt><trkpt lat="45.4315801" lon="10.5072323"><ele>138.0</ele><time>2026-03-29T08:23:44.278Z</time></trkpt><trkpt lat="45.4314692" lon="10.507327"><ele>138.75</ele><time>2026-03-29T08:23:45.278Z</time></trkpt><trkpt lat="45.4313422" lon="10.5074045"><ele>139.5</ele><time>2026-03-29T08:23:46.277Z</time></trkpt><trkpt lat="45.4312022" lon="10.5074665"><ele>140.25</ele><time>2026-03-29T08:23:47.277Z</time></trkpt><trkpt lat="45.43106" lon="10.5075338"><ele>141.0</ele><time>2026-03-29T08:23:48.277Z</time></trkpt><trkpt lat="45.4309184" lon="10.5076259"><ele>138.66666666666666</ele><time>2026-03-29T08:23:49.278Z</time></trkpt><trkpt lat="45.43078" lon="10.5077453"><ele>136.33333333333331</ele><time>2026-03-29T08:23:50.277Z</time></trkpt><trkpt lat="45.4306437" lon="10.5078725"><ele>134.0</ele><time>2026-03-29T08:23:51.277Z</time></trkpt><trkpt lat="45.4305094" lon="10.5080083"><ele>132.0</ele><time>2026-03-29T08:23:52.278Z</time></trkpt><trkpt lat="45.4303768" lon="10.5081566"><ele>130.0</ele><time>2026-03-29T08:23:53.278Z</time></trkpt><trkpt lat="45.430241" lon="10.5083084"><ele>128.0</ele><time>2026-03-29T08:23:54.278Z</time></trkpt><trkpt lat="45.4301043" lon="10.5084484"><ele>128.0</ele><time>2026-03-29T08:23:55.277Z</time></trkpt><trkpt lat="45.4299741" lon="10.5085767"><ele>128.0</ele><time>2026-03-29T08:23:56.277Z</time></trkpt><trkpt lat="45.4298529" lon="10.508731"><ele>128.0</ele><time>2026-03-29T08:23:57.278Z</time></trkpt><trkpt lat="45.4297377" lon="10.5089037"><ele>127.0</ele><time>2026-03-29T08:23:58.278Z</time></trkpt><trkpt lat="45.4296381" lon="10.5091125"><ele>126.0</ele><time>2026-03-29T08:23:59.277Z</time></trkpt><trkpt lat="45.4295389" lon="10.5093251"><ele>125.0</ele><time>2026-03-29T08:24:00.277Z</time></trkpt><trkpt lat="45.4294347" lon="10.5095495"><ele>124.66666666666666</ele><time>2026-03-29T08:24:01.277Z</time></trkpt><trkpt lat="45.4293311" lon="10.5097817"><ele>124.33333333333334</ele><time>2026-03-29T08:24:02.277Z</time></trkpt><trkpt lat="45.4292214" lon="10.5100218"><ele>124.0</ele><time>2026-03-29T08:24:03.277Z</time></trkpt><trkpt lat="45.4291183" lon="10.5102632"><ele>123.66666666666667</ele><time>2026-03-29T08:24:04.277Z</time></trkpt><trkpt lat="45.4290191" lon="10.5104698"><ele>123.33333333333334</ele><time>2026-03-29T08:24:05.277Z</time></trkpt><trkpt lat="45.4289278" lon="10.5106704"><ele>123.0</ele><time>2026-03-29T08:24:06.277Z</time></trkpt><trkpt lat="45.4288468" lon="10.5108349"><ele>122.4</ele><time>2026-03-29T08:24:07.278Z</time></trkpt><trkpt lat="45.4287822" lon="10.5109629"><ele>121.80000000000001</ele><time>2026-03-29T08:24:08.278Z</time></trkpt><trkpt lat="45.4287332" lon="10.5110544"><ele>121.2</ele><time>2026-03-29T08:24:09.277Z</time></trkpt><trkpt lat="45.4286724" lon="10.5111761"><ele>120.6</ele><time>2026-03-29T08:24:11.278Z</time></trkpt><trkpt lat="45.42868" lon="10.5113212"><ele>120.0</ele><time>2026-03-29T08:24:13.278Z</time></trkpt><trkpt lat="45.4287159" lon="10.5114283"><ele>120.0</ele><time>2026-03-29T08:24:14.277Z</time></trkpt><trkpt lat="45.4287432" lon="10.5115533"><ele>120.0</ele><time>2026-03-29T08:24:15.278Z</time></trkpt><trkpt lat="45.4287415" lon="10.5116984"><ele>120.0</ele><time>2026-03-29T08:24:16.278Z</time></trkpt><trkpt lat="45.4287204" lon="10.5118538"><ele>120.0</ele><time>2026-03-29T08:24:17.277Z</time></trkpt><trkpt lat="45.4286941" lon="10.512009"><ele>120.0</ele><time>2026-03-29T08:24:18.277Z</time></trkpt><trkpt lat="45.4286735" lon="10.5121622"><ele>120.75</ele><time>2026-03-29T08:24:19.277Z</time></trkpt><trkpt lat="45.4286543" lon="10.5123246"><ele>121.5</ele><time>2026-03-29T08:24:20.278Z</time></trkpt><trkpt lat="45.4286305" lon="10.5125056"><ele>122.25</ele><time>2026-03-29T08:24:21.277Z</time></trkpt><trkpt lat="45.4286063" lon="10.5127027"><ele>123.0</ele><time>2026-03-29T08:24:22.278Z</time></trkpt><trkpt lat="45.4285772" lon="10.5129051"><ele>123.0</ele><time>2026-03-29T08:24:23.277Z</time></trkpt><trkpt lat="45.4285439" lon="10.5131053"><ele>123.0</ele><time>2026-03-29T08:24:24.278Z</time></trkpt><trkpt lat="45.4285166" lon="10.5133047"><ele>123.0</ele><time>2026-03-29T08:24:25.278Z</time></trkpt><trkpt lat="45.4284876" lon="10.5134981"><ele>123.0</ele><time>2026-03-29T08:24:26.278Z</time></trkpt><trkpt lat="45.4284643" lon="10.5136707"><ele>122.80000000000001</ele><time>2026-03-29T08:24:27.277Z</time></trkpt><trkpt lat="45.4284459" lon="10.5138232"><ele>122.60000000000001</ele><time>2026-03-29T08:24:28.278Z</time></trkpt><trkpt lat="45.4284268" lon="10.5139587"><ele>122.39999999999999</ele><time>2026-03-29T08:24:29.278Z</time></trkpt><trkpt lat="45.4284014" lon="10.5140814"><ele>122.19999999999999</ele><time>2026-03-29T08:24:30.278Z</time></trkpt><trkpt lat="45.4283738" lon="10.5141746"><ele>122.0</ele><time>2026-03-29T08:24:31.278Z</time></trkpt><trkpt lat="45.4282943" lon="10.5142839"><ele>121.99999999999999</ele><time>2026-03-29T08:24:33.277Z</time></trkpt><trkpt lat="45.4282285" lon="10.5143816"><ele>122.0</ele><time>2026-03-29T08:24:35.277Z</time></trkpt><trkpt lat="45.428259" lon="10.5145077"><ele>122.0</ele><time>2026-03-29T08:24:37.277Z</time></trkpt><trkpt lat="45.428289" lon="10.5145919"><ele>122.0</ele><time>2026-03-29T08:24:38.278Z</time></trkpt><trkpt lat="45.4283043" lon="10.5146862"><ele>121.99999999999999</ele><time>2026-03-29T08:24:39.277Z</time></trkpt><trkpt lat="45.4282974" lon="10.5147758"><ele>122.0</ele><time>2026-03-29T08:24:40.277Z</time></trkpt><trkpt lat="45.4282666" lon="10.5149212"><ele>121.99999999999999</ele><time>2026-03-29T08:24:42.277Z</time></trkpt><trkpt lat="45.4282564" lon="10.5150283"><ele>122.0</ele><time>2026-03-29T08:24:44.278Z</time></trkpt><trkpt lat="45.4282407" lon="10.5151681"><ele>122.0</ele><time>2026-03-29T08:24:46.278Z</time></trkpt><trkpt lat="45.4282029" lon="10.5153338"><ele>122.0</ele><time>2026-03-29T08:24:48.278Z</time></trkpt><trkpt lat="45.4281851" lon="10.5154247"><ele>121.99999999999999</ele><time>2026-03-29T08:24:49.277Z</time></trkpt><trkpt lat="45.4281704" lon="10.5155203"><ele>122.0</ele><time>2026-03-29T08:24:50.278Z</time></trkpt><trkpt lat="45.4281545" lon="10.515618"><ele>121.99999999999999</ele><time>2026-03-29T08:24:51.278Z</time></trkpt><trkpt lat="45.4281459" lon="10.5157297"><ele>122.0</ele><time>2026-03-29T08:24:52.278Z</time></trkpt><trkpt lat="45.4281314" lon="10.5158322"><ele>122.0</ele><time>2026-03-29T08:24:53.277Z</time></trkpt><trkpt lat="45.4281099" lon="10.5159191"><ele>122.0</ele><time>2026-03-29T08:24:54.278Z</time></trkpt><trkpt lat="45.4280466" lon="10.516042"><ele>121.99999999999999</ele><time>2026-03-29T08:24:56.278Z</time></trkpt><trkpt lat="45.4279791" lon="10.5160827"><ele>122.0</ele><time>2026-03-29T08:24:58.278Z</time></trkpt><trkpt lat="45.4278635" lon="10.5160758"><ele>122.0</ele><time>2026-03-29T08:25:00.277Z</time></trkpt><trkpt lat="45.4277765" lon="10.5160406"><ele>121.99999999999999</ele><time>2026-03-29T08:25:01.278Z</time></trkpt><trkpt lat="45.4276799" lon="10.5159988"><ele>121.99999999999999</ele><time>2026-03-29T08:25:02.278Z</time></trkpt><trkpt lat="45.4275741" lon="10.5159505"><ele>122.0</ele><time>2026-03-29T08:25:03.278Z</time></trkpt><trkpt lat="45.4274766" lon="10.5158748"><ele>122.0</ele><time>2026-03-29T08:25:04.278Z</time></trkpt><trkpt lat="45.4273933" lon="10.5157937"><ele>121.99999999999999</ele><time>2026-03-29T08:25:05.278Z</time></trkpt><trkpt lat="45.4273247" lon="10.5157148"><ele>122.0</ele><time>2026-03-29T08:25:06.278Z</time></trkpt><trkpt lat="45.4272752" lon="10.5156485"><ele>122.0</ele><time>2026-03-29T08:25:07.277Z</time></trkpt><trkpt lat="45.4272238" lon="10.5155667"><ele>122.0</ele><time>2026-03-29T08:25:09.277Z</time></trkpt><trkpt lat="45.4271653" lon="10.5154302"><ele>121.99999999999999</ele><time>2026-03-29T08:25:11.277Z</time></trkpt><trkpt lat="45.4271216" lon="10.5153615"><ele>122.0</ele><time>2026-03-29T08:25:12.277Z</time></trkpt><trkpt lat="45.4270634" lon="10.515323"><ele>121.99999999999999</ele><time>2026-03-29T08:25:13.278Z</time></trkpt><trkpt lat="45.4269979" lon="10.5153318"><ele>122.0</ele><time>2026-03-29T08:25:14.277Z</time></trkpt><trkpt lat="45.4269312" lon="10.5153994"><ele>122.0</ele><time>2026-03-29T08:25:15.277Z</time></trkpt><trkpt lat="45.4268599" lon="10.5154851"><ele>122.0</ele><time>2026-03-29T08:25:16.278Z</time></trkpt><trkpt lat="45.4267861" lon="10.5155635"><ele>121.99999999999999</ele><time>2026-03-29T08:25:17.277Z</time></trkpt><trkpt lat="45.4267014" lon="10.5156084"><ele>122.0</ele><time>2026-03-29T08:25:18.277Z</time></trkpt><trkpt lat="45.4265944" lon="10.5156127"><ele>122.0</ele><time>2026-03-29T08:25:19.278Z</time></trkpt><trkpt lat="45.4264649" lon="10.515564"><ele>122.0</ele><time>2026-03-29T08:25:20.277Z</time></trkpt><trkpt lat="45.4263202" lon="10.5154831"><ele>122.0</ele><time>2026-03-29T08:25:21.277Z</time></trkpt><trkpt lat="45.4261643" lon="10.5153863"><ele>122.0</ele><time>2026-03-29T08:25:22.277Z</time></trkpt><trkpt lat="45.4259911" lon="10.5152819"><ele>122.0</ele><time>2026-03-29T08:25:23.278Z</time></trkpt><trkpt lat="45.4258216" lon="10.5151713"><ele>122.0</ele><time>2026-03-29T08:25:24.278Z</time></trkpt><trkpt lat="45.4256532" lon="10.51506"><ele>122.0</ele><time>2026-03-29T08:25:25.277Z</time></trkpt><trkpt lat="45.4255004" lon="10.5149446"><ele>122.0</ele><time>2026-03-29T08:25:26.278Z</time></trkpt><trkpt lat="45.425346" lon="10.5148236"><ele>122.0</ele><time>2026-03-29T08:25:27.277Z</time></trkpt><trkpt lat="45.4251852" lon="10.5147149"><ele>122.0</ele><time>2026-03-29T08:25:28.277Z</time></trkpt><trkpt lat="45.4250277" lon="10.514602"><ele>122.0</ele><time>2026-03-29T08:25:29.277Z</time></trkpt><trkpt lat="45.4248849" lon="10.5144904"><ele>122.0</ele><time>2026-03-29T08:25:30.278Z</time></trkpt><trkpt lat="45.4247503" lon="10.5143694"><ele>121.5</ele><time>2026-03-29T08:25:31.277Z</time></trkpt><trkpt lat="45.4246242" lon="10.5142545"><ele>121.0</ele><time>2026-03-29T08:25:32.278Z</time></trkpt><trkpt lat="45.4245078" lon="10.5141391"><ele>120.5</ele><time>2026-03-29T08:25:33.277Z</time></trkpt><trkpt lat="45.4243845" lon="10.5140271"><ele>120.0</ele><time>2026-03-29T08:25:34.277Z</time></trkpt><trkpt lat="45.4242679" lon="10.5139305"><ele>120.0</ele><time>2026-03-29T08:25:35.277Z</time></trkpt><trkpt lat="45.424154" lon="10.5138382"><ele>120.0</ele><time>2026-03-29T08:25:36.278Z</time></trkpt><trkpt lat="45.4240489" lon="10.5137404"><ele>120.0</ele><time>2026-03-29T08:25:37.277Z</time></trkpt><trkpt lat="45.4239448" lon="10.5136407"><ele>120.0</ele><time>2026-03-29T08:25:38.278Z</time></trkpt><trkpt lat="45.4238345" lon="10.5135432"><ele>120.0</ele><time>2026-03-29T08:25:39.277Z</time></trkpt><trkpt lat="45.4237195" lon="10.5134412"><ele>120.0</ele><time>2026-03-29T08:25:40.277Z</time></trkpt><trkpt lat="45.4236089" lon="10.5133402"><ele>120.0</ele><time>2026-03-29T08:25:41.277Z</time></trkpt><trkpt lat="45.4234904" lon="10.5132277"><ele>120.0</ele><time>2026-03-29T08:25:42.277Z</time></trkpt><trkpt lat="45.4233482" lon="10.5131128"><ele>120.0</ele><time>2026-03-29T08:25:43.278Z</time></trkpt><trkpt lat="45.4231875" lon="10.5129786"><ele>120.0</ele><time>2026-03-29T08:25:44.277Z</time></trkpt><trkpt lat="45.4230209" lon="10.5128449"><ele>120.0</ele><time>2026-03-29T08:25:45.278Z</time></trkpt><trkpt lat="45.4228548" lon="10.5127223"><ele>120.66666666666666</ele><time>2026-03-29T08:25:46.277Z</time></trkpt><trkpt lat="45.422705" lon="10.512613"><ele>121.33333333333333</ele><time>2026-03-29T08:25:47.278Z</time></trkpt><trkpt lat="45.4225604" lon="10.5125217"><ele>122.0</ele><time>2026-03-29T08:25:48.278Z</time></trkpt><trkpt lat="45.4224238" lon="10.5124165"><ele>122.0</ele><time>2026-03-29T08:25:49.278Z</time></trkpt><trkpt lat="45.4223056" lon="10.5122835"><ele>122.0</ele><time>2026-03-29T08:25:50.278Z</time></trkpt><trkpt lat="45.422201" lon="10.5121308"><ele>122.0</ele><time>2026-03-29T08:25:51.277Z</time></trkpt><trkpt lat="45.4220932" lon="10.511975"><ele>121.8</ele><time>2026-03-29T08:25:52.277Z</time></trkpt><trkpt lat="45.4220176" lon="10.5118218"><ele>121.6</ele><time>2026-03-29T08:25:53.277Z</time></trkpt><trkpt lat="45.4219562" lon="10.5116896"><ele>121.39999999999999</ele><time>2026-03-29T08:25:54.277Z</time></trkpt><trkpt lat="45.4219073" lon="10.5115674"><ele>121.19999999999999</ele><time>2026-03-29T08:25:55.278Z</time></trkpt><trkpt lat="45.4218798" lon="10.5114258"><ele>121.0</ele><time>2026-03-29T08:25:56.278Z</time></trkpt><trkpt lat="45.4218725" lon="10.5112637"><ele>120.8</ele><time>2026-03-29T08:25:57.277Z</time></trkpt><trkpt lat="45.4218706" lon="10.5110955"><ele>120.6</ele><time>2026-03-29T08:25:58.277Z</time></trkpt><trkpt lat="45.4218595" lon="10.5109539"><ele>120.4</ele><time>2026-03-29T08:25:59.278Z</time></trkpt><trkpt lat="45.4218295" lon="10.5108461"><ele>120.2</ele><time>2026-03-29T08:26:00.277Z</time></trkpt><trkpt lat="45.421756" lon="10.510784"><ele>120.0</ele><time>2026-03-29T08:26:01.278Z</time></trkpt><trkpt lat="45.4216593" lon="10.5107457"><ele>120.0</ele><time>2026-03-29T08:26:02.278Z</time></trkpt><trkpt lat="45.4215561" lon="10.5107"><ele>120.0</ele><time>2026-03-29T08:26:03.277Z</time></trkpt><trkpt lat="45.4214505" lon="10.5106245"><ele>120.0</ele><time>2026-03-29T08:26:04.278Z</time></trkpt><trkpt lat="45.4213355" lon="10.5105468"><ele>120.0</ele><time>2026-03-29T08:26:05.277Z</time></trkpt><trkpt lat="45.4212162" lon="10.5104856"><ele>120.5</ele><time>2026-03-29T08:26:06.277Z</time></trkpt><trkpt lat="45.4210991" lon="10.5104561"><ele>121.0</ele><time>2026-03-29T08:26:07.278Z</time></trkpt><trkpt lat="45.4209849" lon="10.5104714"><ele>121.5</ele><time>2026-03-29T08:26:08.278Z</time></trkpt><trkpt lat="45.4208758" lon="10.5105294"><ele>122.0</ele><time>2026-03-29T08:26:09.278Z</time></trkpt><trkpt lat="45.420779" lon="10.5105989"><ele>122.0</ele><time>2026-03-29T08:26:10.277Z</time></trkpt><trkpt lat="45.4207085" lon="10.5107012"><ele>121.99999999999999</ele><time>2026-03-29T08:26:11.277Z</time></trkpt><trkpt lat="45.420651" lon="10.5108214"><ele>121.99999999999999</ele><time>2026-03-29T08:26:12.277Z</time></trkpt><trkpt lat="45.420632" lon="10.5109285"><ele>122.0</ele><time>2026-03-29T08:26:13.278Z</time></trkpt><trkpt lat="45.4206006" lon="10.5111002"><ele>122.0</ele><time>2026-03-29T08:26:14.278Z</time></trkpt><trkpt lat="45.4205865" lon="10.5112804"><ele>121.75</ele><time>2026-03-29T08:26:15.277Z</time></trkpt><trkpt lat="45.4206066" lon="10.5114531"><ele>121.5</ele><time>2026-03-29T08:26:16.278Z</time></trkpt><trkpt lat="45.4206452" lon="10.5116084"><ele>121.25</ele><time>2026-03-29T08:26:17.278Z</time></trkpt><trkpt lat="45.4207014" lon="10.5117497"><ele>121.0</ele><time>2026-03-29T08:26:18.277Z</time></trkpt><trkpt lat="45.4207645" lon="10.5118613"><ele>121.0</ele><time>2026-03-29T08:26:19.278Z</time></trkpt><trkpt lat="45.4208189" lon="10.5119548"><ele>121.0</ele><time>2026-03-29T08:26:20.277Z</time></trkpt><trkpt lat="45.4208455" lon="10.5120442"><ele>121.0</ele><time>2026-03-29T08:26:21.278Z</time></trkpt><trkpt lat="45.4208452" lon="10.5121956"><ele>121.0</ele><time>2026-03-29T08:26:23.277Z</time></trkpt><trkpt lat="45.4207893" lon="10.5122704"><ele>121.0</ele><time>2026-03-29T08:26:25.277Z</time></trkpt><trkpt lat="45.4206465" lon="10.5122677"><ele>121.0</ele><time>2026-03-29T08:26:27.278Z</time></trkpt><trkpt lat="45.4205441" lon="10.5122838"><ele>121.0</ele><time>2026-03-29T08:26:28.278Z</time></trkpt><trkpt lat="45.4204168" lon="10.5123251"><ele>121.0</ele><time>2026-03-29T08:26:29.278Z</time></trkpt><trkpt lat="45.4202814" lon="10.5123808"><ele>121.0</ele><time>2026-03-29T08:26:30.278Z</time></trkpt><trkpt lat="45.4201412" lon="10.5124437"><ele>121.0</ele><time>2026-03-29T08:26:31.278Z</time></trkpt><trkpt lat="45.4200087" lon="10.5125122"><ele>121.0</ele><time>2026-03-29T08:26:32.278Z</time></trkpt><trkpt lat="45.4198867" lon="10.5125789"><ele>121.0</ele><time>2026-03-29T08:26:33.277Z</time></trkpt><trkpt lat="45.4197667" lon="10.5126299"><ele>121.0</ele><time>2026-03-29T08:26:34.277Z</time></trkpt><trkpt lat="45.4196556" lon="10.5126712"><ele>121.25</ele><time>2026-03-29T08:26:35.277Z</time></trkpt><trkpt lat="45.4195402" lon="10.5127009"><ele>121.5</ele><time>2026-03-29T08:26:36.277Z</time></trkpt><trkpt lat="45.4194177" lon="10.5127179"><ele>121.75</ele><time>2026-03-29T08:26:37.277Z</time></trkpt><trkpt lat="45.4192851" lon="10.5127274"><ele>122.0</ele><time>2026-03-29T08:26:38.278Z</time></trkpt><trkpt lat="45.4191466" lon="10.5127319"><ele>122.0</ele><time>2026-03-29T08:26:39.278Z</time></trkpt><trkpt lat="45.4190044" lon="10.5127343"><ele>122.0</ele><time>2026-03-29T08:26:40.277Z</time></trkpt><trkpt lat="45.4188606" lon="10.5127388"><ele>122.0</ele><time>2026-03-29T08:26:41.277Z</time></trkpt><trkpt lat="45.4187162" lon="10.5127525"><ele>122.0</ele><time>2026-03-29T08:26:42.277Z</time></trkpt><trkpt lat="45.4185761" lon="10.512768"><ele>120.75</ele><time>2026-03-29T08:26:43.277Z</time></trkpt><trkpt lat="45.4184427" lon="10.5127854"><ele>119.5</ele><time>2026-03-29T08:26:44.277Z</time></trkpt><trkpt lat="45.4183114" lon="10.5127953"><ele>118.25</ele><time>2026-03-29T08:26:45.277Z</time></trkpt><trkpt lat="45.4181763" lon="10.5128005"><ele>117.0</ele><time>2026-03-29T08:26:46.278Z</time></trkpt><trkpt lat="45.4180419" lon="10.5128069"><ele>116.5</ele><time>2026-03-29T08:26:47.278Z</time></trkpt><trkpt lat="45.4179168" lon="10.5128114"><ele>116.0</ele><time>2026-03-29T08:26:48.277Z</time></trkpt><trkpt lat="45.417797" lon="10.5128168"><ele>115.5</ele><time>2026-03-29T08:26:49.278Z</time></trkpt><trkpt lat="45.4176802" lon="10.5128207"><ele>115.0</ele><time>2026-03-29T08:26:50.278Z</time></trkpt><trkpt lat="45.4175652" lon="10.5128312"><ele>115.0</ele><time>2026-03-29T08:26:51.278Z</time></trkpt><trkpt lat="45.4174632" lon="10.512839"><ele>115.0</ele><time>2026-03-29T08:26:52.278Z</time></trkpt><trkpt lat="45.4173772" lon="10.5128412"><ele>115.0</ele><time>2026-03-29T08:26:53.278Z</time></trkpt><trkpt lat="45.4172954" lon="10.5128429"><ele>115.0</ele><time>2026-03-29T08:26:54.277Z</time></trkpt><trkpt lat="45.4172027" lon="10.5128447"><ele>115.0</ele><time>2026-03-29T08:26:55.277Z</time></trkpt><trkpt lat="45.417097" lon="10.5128554"><ele>115.25</ele><time>2026-03-29T08:26:56.278Z</time></trkpt><trkpt lat="45.4169803" lon="10.5128724"><ele>115.5</ele><time>2026-03-29T08:26:57.278Z</time></trkpt><trkpt lat="45.4168513" lon="10.5128841"><ele>115.75</ele><time>2026-03-29T08:26:58.277Z</time></trkpt><trkpt lat="45.416714" lon="10.5129015"><ele>116.0</ele><time>2026-03-29T08:26:59.278Z</time></trkpt><trkpt lat="45.4165686" lon="10.5129165"><ele>116.0</ele><time>2026-03-29T08:27:00.277Z</time></trkpt><trkpt lat="45.4164135" lon="10.5129282"><ele>116.0</ele><time>2026-03-29T08:27:01.277Z</time></trkpt><trkpt lat="45.4162539" lon="10.5129366"><ele>116.0</ele><time>2026-03-29T08:27:02.278Z</time></trkpt><trkpt lat="45.416096" lon="10.512945"><ele>116.0</ele><time>2026-03-29T08:27:03.278Z</time></trkpt><trkpt lat="45.4159426" lon="10.5129544"><ele>116.0</ele><time>2026-03-29T08:27:04.277Z</time></trkpt><trkpt lat="45.4157874" lon="10.5129672"><ele>116.0</ele><time>2026-03-29T08:27:05.278Z</time></trkpt><trkpt lat="45.4156372" lon="10.5129588"><ele>116.0</ele><time>2026-03-29T08:27:06.277Z</time></trkpt><trkpt lat="45.415492" lon="10.5129435"><ele>116.0</ele><time>2026-03-29T08:27:07.278Z</time></trkpt><trkpt lat="45.4153519" lon="10.5129199"><ele>116.0</ele><time>2026-03-29T08:27:08.277Z</time></trkpt><trkpt lat="45.4152325" lon="10.51289"><ele>116.0</ele><time>2026-03-29T08:27:09.278Z</time></trkpt><trkpt lat="45.4151414" lon="10.5128592"><ele>115.83333333333333</ele><time>2026-03-29T08:27:10.277Z</time></trkpt><trkpt lat="45.4150666" lon="10.5128251"><ele>115.66666666666666</ele><time>2026-03-29T08:27:11.278Z</time></trkpt><trkpt lat="45.4149695" lon="10.5128236"><ele>115.5</ele><time>2026-03-29T08:27:13.277Z</time></trkpt><trkpt lat="45.4149326" lon="10.5129201"><ele>115.33333333333334</ele><time>2026-03-29T08:27:15.277Z</time></trkpt><trkpt lat="45.4149238" lon="10.513021"><ele>115.16666666666667</ele><time>2026-03-29T08:27:16.278Z</time></trkpt><trkpt lat="45.4149224" lon="10.513148"><ele>115.0</ele><time>2026-03-29T08:27:17.278Z</time></trkpt><trkpt lat="45.4149247" lon="10.5133025"><ele>115.16666666666667</ele><time>2026-03-29T08:27:18.277Z</time></trkpt><trkpt lat="45.4149289" lon="10.5134592"><ele>115.33333333333334</ele><time>2026-03-29T08:27:19.278Z</time></trkpt><trkpt lat="45.4149325" lon="10.5135965"><ele>115.5</ele><time>2026-03-29T08:27:20.277Z</time></trkpt><trkpt lat="45.4149388" lon="10.5137121"><ele>115.66666666666666</ele><time>2026-03-29T08:27:21.277Z</time></trkpt><trkpt lat="45.4149416" lon="10.5138155"><ele>115.83333333333333</ele><time>2026-03-29T08:27:22.277Z</time></trkpt><trkpt lat="45.4149236" lon="10.5139016"><ele>116.0</ele><time>2026-03-29T08:27:23.278Z</time></trkpt><trkpt lat="45.4148421" lon="10.5140122"><ele>116.0</ele><time>2026-03-29T08:27:25.277Z</time></trkpt><trkpt lat="45.4147538" lon="10.5140165"><ele>116.0</ele><time>2026-03-29T08:27:26.277Z</time></trkpt><trkpt lat="45.4146441" lon="10.5140033"><ele>116.0</ele><time>2026-03-29T08:27:27.278Z</time></trkpt><trkpt lat="45.414512" lon="10.5139922"><ele>116.0</ele><time>2026-03-29T08:27:28.278Z</time></trkpt><trkpt lat="45.4143826" lon="10.5139778"><ele>116.0</ele><time>2026-03-29T08:27:29.278Z</time></trkpt><trkpt lat="45.414266" lon="10.5139847"><ele>116.0</ele><time>2026-03-29T08:27:30.277Z</time></trkpt><trkpt lat="45.414162" lon="10.5140132"><ele>116.0</ele><time>2026-03-29T08:27:31.278Z</time></trkpt><trkpt lat="45.4140588" lon="10.5140755"><ele>116.0</ele><time>2026-03-29T08:27:32.278Z</time></trkpt><trkpt lat="45.4139609" lon="10.5141537"><ele>116.0</ele><time>2026-03-29T08:27:33.278Z</time></trkpt><trkpt lat="45.4138556" lon="10.5142216"><ele>116.4</ele><time>2026-03-29T08:27:34.278Z</time></trkpt><trkpt lat="45.4137353" lon="10.5142597"><ele>116.8</ele><time>2026-03-29T08:27:35.278Z</time></trkpt><trkpt lat="45.4136184" lon="10.5142843"><ele>117.20000000000002</ele><time>2026-03-29T08:27:36.278Z</time></trkpt><trkpt lat="45.4135206" lon="10.5143244"><ele>117.60000000000001</ele><time>2026-03-29T08:27:37.277Z</time></trkpt><trkpt lat="45.4134478" lon="10.5143792"><ele>118.0</ele><time>2026-03-29T08:27:38.277Z</time></trkpt><trkpt lat="45.4133867" lon="10.5144739"><ele>117.5</ele><time>2026-03-29T08:27:39.277Z</time></trkpt><trkpt lat="45.4133472" lon="10.5146034"><ele>117.0</ele><time>2026-03-29T08:27:40.278Z</time></trkpt><trkpt lat="45.4133221" lon="10.5147605"><ele>116.5</ele><time>2026-03-29T08:27:41.277Z</time></trkpt><trkpt lat="45.4133001" lon="10.5149503"><ele>116.0</ele><time>2026-03-29T08:27:42.278Z</time></trkpt><trkpt lat="45.4132714" lon="10.5151515"><ele>116.0</ele><time>2026-03-29T08:27:43.277Z</time></trkpt><trkpt lat="45.413237" lon="10.5153554"><ele>116.0</ele><time>2026-03-29T08:27:44.277Z</time></trkpt><trkpt lat="45.4131868" lon="10.5155482"><ele>116.0</ele><time>2026-03-29T08:27:45.277Z</time></trkpt><trkpt lat="45.413128" lon="10.5157261"><ele>116.0</ele><time>2026-03-29T08:27:46.278Z</time></trkpt><trkpt lat="45.4130669" lon="10.5158958"><ele>116.0</ele><time>2026-03-29T08:27:47.278Z</time></trkpt><trkpt lat="45.4130065" lon="10.516068"><ele>116.0</ele><time>2026-03-29T08:27:48.277Z</time></trkpt><trkpt lat="45.4129481" lon="10.5162323"><ele>116.0</ele><time>2026-03-29T08:27:49.277Z</time></trkpt><trkpt lat="45.4128851" lon="10.5163881"><ele>116.0</ele><time>2026-03-29T08:27:50.277Z</time></trkpt><trkpt lat="45.4128209" lon="10.5165498"><ele>115.5</ele><time>2026-03-29T08:27:51.278Z</time></trkpt><trkpt lat="45.4127636" lon="10.5167163"><ele>115.0</ele><time>2026-03-29T08:27:52.278Z</time></trkpt><trkpt lat="45.4127097" lon="10.516895"><ele>114.5</ele><time>2026-03-29T08:27:53.278Z</time></trkpt><trkpt lat="45.4126634" lon="10.5170745"><ele>114.0</ele><time>2026-03-29T08:27:54.278Z</time></trkpt><trkpt lat="45.4126177" lon="10.5172414"><ele>114.0</ele><time>2026-03-29T08:27:55.277Z</time></trkpt><trkpt lat="45.4125606" lon="10.5173982"><ele>114.0</ele><time>2026-03-29T08:27:56.278Z</time></trkpt><trkpt lat="45.4124905" lon="10.5175413"><ele>114.0</ele><time>2026-03-29T08:27:57.278Z</time></trkpt><trkpt lat="45.412403" lon="10.5176639"><ele>114.0</ele><time>2026-03-29T08:27:58.278Z</time></trkpt><trkpt lat="45.4123048" lon="10.5177749"><ele>114.0</ele><time>2026-03-29T08:27:59.276Z</time></trkpt><trkpt lat="45.4121945" lon="10.5178952"><ele>114.0</ele><time>2026-03-29T08:28:00.276Z</time></trkpt><trkpt lat="45.4120878" lon="10.5179878"><ele>114.0</ele><time>2026-03-29T08:28:01.277Z</time></trkpt><trkpt lat="45.4119825" lon="10.5180919"><ele>114.0</ele><time>2026-03-29T08:28:02.277Z</time></trkpt><trkpt lat="45.4118882" lon="10.5182119"><ele>115.25</ele><time>2026-03-29T08:28:03.277Z</time></trkpt><trkpt lat="45.4118086" lon="10.5183437"><ele>116.5</ele><time>2026-03-29T08:28:04.277Z</time></trkpt><trkpt lat="45.41174" lon="10.5184857"><ele>117.75</ele><time>2026-03-29T08:28:05.277Z</time></trkpt><trkpt lat="45.4116728" lon="10.5186328"><ele>119.0</ele><time>2026-03-29T08:28:06.276Z</time></trkpt><trkpt lat="45.4116038" lon="10.5187738"><ele>119.0</ele><time>2026-03-29T08:28:07.276Z</time></trkpt><trkpt lat="45.4115356" lon="10.5189058"><ele>119.0</ele><time>2026-03-29T08:28:08.276Z</time></trkpt><trkpt lat="45.4114705" lon="10.5190201"><ele>119.0</ele><time>2026-03-29T08:28:09.276Z</time></trkpt><trkpt lat="45.4114091" lon="10.5191202"><ele>119.0</ele><time>2026-03-29T08:28:10.277Z</time></trkpt><trkpt lat="45.4113612" lon="10.5191998"><ele>119.0</ele><time>2026-03-29T08:28:11.277Z</time></trkpt><trkpt lat="45.4113125" lon="10.5193325"><ele>118.99999999999999</ele><time>2026-03-29T08:28:13.276Z</time></trkpt><trkpt lat="45.4113629" lon="10.5194578"><ele>119.0</ele><time>2026-03-29T08:28:15.276Z</time></trkpt><trkpt lat="45.4114183" lon="10.5195226"><ele>119.0</ele><time>2026-03-29T08:28:16.276Z</time></trkpt><trkpt lat="45.4114788" lon="10.5196008"><ele>119.0</ele><time>2026-03-29T08:28:17.276Z</time></trkpt><trkpt lat="45.411529" lon="10.5196991"><ele>118.99999999999999</ele><time>2026-03-29T08:28:18.276Z</time></trkpt><trkpt lat="45.4115681" lon="10.519831"><ele>119.0</ele><time>2026-03-29T08:28:19.277Z</time></trkpt><trkpt lat="45.4115865" lon="10.5199875"><ele>118.5</ele><time>2026-03-29T08:28:20.277Z</time></trkpt><trkpt lat="45.4115787" lon="10.5201605"><ele>118.0</ele><time>2026-03-29T08:28:21.276Z</time></trkpt><trkpt lat="45.4115721" lon="10.5203337"><ele>117.5</ele><time>2026-03-29T08:28:22.277Z</time></trkpt><trkpt lat="45.4115667" lon="10.5204977"><ele>117.0</ele><time>2026-03-29T08:28:23.277Z</time></trkpt><trkpt lat="45.4115661" lon="10.5206413"><ele>116.83333333333333</ele><time>2026-03-29T08:28:24.276Z</time></trkpt><trkpt lat="45.4115666" lon="10.5207681"><ele>116.66666666666666</ele><time>2026-03-29T08:28:25.277Z</time></trkpt><trkpt lat="45.4115879" lon="10.5208782"><ele>116.5</ele><time>2026-03-29T08:28:26.277Z</time></trkpt><trkpt lat="45.4116371" lon="10.5209755"><ele>116.33333333333333</ele><time>2026-03-29T08:28:27.276Z</time></trkpt><trkpt lat="45.4117128" lon="10.5210527"><ele>116.16666666666666</ele><time>2026-03-29T08:28:28.276Z</time></trkpt><trkpt lat="45.4118063" lon="10.5211075"><ele>116.0</ele><time>2026-03-29T08:28:29.276Z</time></trkpt><trkpt lat="45.4119132" lon="10.5211437"><ele>115.99999999999999</ele><time>2026-03-29T08:28:30.277Z</time></trkpt><trkpt lat="45.4120044" lon="10.5211791"><ele>116.0</ele><time>2026-03-29T08:28:31.277Z</time></trkpt><trkpt lat="45.4120748" lon="10.5212268"><ele>116.0</ele><time>2026-03-29T08:28:32.277Z</time></trkpt><trkpt lat="45.4121353" lon="10.521296"><ele>116.0</ele><time>2026-03-29T08:28:33.276Z</time></trkpt><trkpt lat="45.4121781" lon="10.5213892"><ele>115.99999999999999</ele><time>2026-03-29T08:28:34.277Z</time></trkpt><trkpt lat="45.4121986" lon="10.5214949"><ele>116.0</ele><time>2026-03-29T08:28:35.277Z</time></trkpt><trkpt lat="45.4121976" lon="10.5216312"><ele>116.19999999999999</ele><time>2026-03-29T08:28:36.277Z</time></trkpt><trkpt lat="45.4121702" lon="10.5217769"><ele>116.39999999999999</ele><time>2026-03-29T08:28:37.276Z</time></trkpt><trkpt lat="45.4121315" lon="10.521914"><ele>116.6</ele><time>2026-03-29T08:28:38.276Z</time></trkpt><trkpt lat="45.41209" lon="10.5220329"><ele>116.8</ele><time>2026-03-29T08:28:39.276Z</time></trkpt><trkpt lat="45.4120523" lon="10.5221153"><ele>117.0</ele><time>2026-03-29T08:28:40.277Z</time></trkpt><trkpt lat="45.4119698" lon="10.5221932"><ele>117.0</ele><time>2026-03-29T08:28:42.277Z</time></trkpt><trkpt lat="45.4118571" lon="10.5221184"><ele>116.99999999999999</ele><time>2026-03-29T08:28:44.277Z</time></trkpt><trkpt lat="45.4117862" lon="10.5220444"><ele>116.99999999999999</ele><time>2026-03-29T08:28:45.276Z</time></trkpt><trkpt lat="45.4116928" lon="10.5219722"><ele>117.0</ele><time>2026-03-29T08:28:46.276Z</time></trkpt><trkpt lat="45.4115903" lon="10.5219176"><ele>117.0</ele><time>2026-03-29T08:28:47.276Z</time></trkpt><trkpt lat="45.4114876" lon="10.5218851"><ele>117.0</ele><time>2026-03-29T08:28:48.277Z</time></trkpt><trkpt lat="45.4113841" lon="10.5218742"><ele>117.0</ele><time>2026-03-29T08:28:49.276Z</time></trkpt><trkpt lat="45.4112705" lon="10.5218742"><ele>117.0</ele><time>2026-03-29T08:28:50.277Z</time></trkpt><trkpt lat="45.4111538" lon="10.5218912"><ele>117.0</ele><time>2026-03-29T08:28:51.277Z</time></trkpt><trkpt lat="45.4110368" lon="10.5219214"><ele>117.0</ele><time>2026-03-29T08:28:52.276Z</time></trkpt><trkpt lat="45.4109152" lon="10.5219685"><ele>117.0</ele><time>2026-03-29T08:28:53.277Z</time></trkpt><trkpt lat="45.4107877" lon="10.5220181"><ele>117.0</ele><time>2026-03-29T08:28:54.276Z</time></trkpt><trkpt lat="45.4106587" lon="10.5220769"><ele>117.0</ele><time>2026-03-29T08:28:55.276Z</time></trkpt><trkpt lat="45.4105274" lon="10.5221372"><ele>117.75</ele><time>2026-03-29T08:28:56.277Z</time></trkpt><trkpt lat="45.4103937" lon="10.5221935"><ele>118.5</ele><time>2026-03-29T08:28:57.276Z</time></trkpt><trkpt lat="45.4102715" lon="10.5222564"><ele>119.25</ele><time>2026-03-29T08:28:58.277Z</time></trkpt><trkpt lat="45.410144" lon="10.5223057"><ele>120.0</ele><time>2026-03-29T08:28:59.276Z</time></trkpt><trkpt lat="45.4100196" lon="10.5223523"><ele>120.0</ele><time>2026-03-29T08:29:00.277Z</time></trkpt><trkpt lat="45.4098961" lon="10.5223998"><ele>120.0</ele><time>2026-03-29T08:29:01.276Z</time></trkpt><trkpt lat="45.4097762" lon="10.522458"><ele>120.0</ele><time>2026-03-29T08:29:02.277Z</time></trkpt><trkpt lat="45.4096573" lon="10.5225145"><ele>120.0</ele><time>2026-03-29T08:29:03.277Z</time></trkpt><trkpt lat="45.4095292" lon="10.5225786"><ele>121.25</ele><time>2026-03-29T08:29:04.277Z</time></trkpt><trkpt lat="45.4094045" lon="10.5226384"><ele>122.5</ele><time>2026-03-29T08:29:05.277Z</time></trkpt><trkpt lat="45.4092792" lon="10.5226916"><ele>123.75</ele><time>2026-03-29T08:29:06.277Z</time></trkpt><trkpt lat="45.4091493" lon="10.5227378"><ele>125.0</ele><time>2026-03-29T08:29:07.276Z</time></trkpt><trkpt lat="45.4090168" lon="10.5227824"><ele>125.0</ele><time>2026-03-29T08:29:08.276Z</time></trkpt><trkpt lat="45.4088882" lon="10.5228364"><ele>125.0</ele><time>2026-03-29T08:29:09.276Z</time></trkpt><trkpt lat="45.408767" lon="10.5228877"><ele>125.0</ele><time>2026-03-29T08:29:10.276Z</time></trkpt><trkpt lat="45.4086606" lon="10.5229312"><ele>125.0</ele><time>2026-03-29T08:29:11.277Z</time></trkpt><trkpt lat="45.4085684" lon="10.522978"><ele>125.4</ele><time>2026-03-29T08:29:12.277Z</time></trkpt><trkpt lat="45.4084841" lon="10.5230064"><ele>125.8</ele><time>2026-03-29T08:29:13.276Z</time></trkpt><trkpt lat="45.4084" lon="10.523"><ele>126.19999999999999</ele><time>2026-03-29T08:29:14.276Z</time></trkpt><trkpt lat="45.4083072" lon="10.5230351"><ele>126.6</ele><time>2026-03-29T08:29:15.276Z</time></trkpt><trkpt lat="45.408216" lon="10.5231042"><ele>127.0</ele><time>2026-03-29T08:29:16.277Z</time></trkpt><trkpt lat="45.4081215" lon="10.5231792"><ele>127.0</ele><time>2026-03-29T08:29:17.277Z</time></trkpt><trkpt lat="45.4080248" lon="10.5232631"><ele>126.99999999999999</ele><time>2026-03-29T08:29:18.277Z</time></trkpt><trkpt lat="45.4079336" lon="10.5233399"><ele>126.99999999999999</ele><time>2026-03-29T08:29:19.276Z</time></trkpt><trkpt lat="45.4078563" lon="10.5234069"><ele>127.0</ele><time>2026-03-29T08:29:20.276Z</time></trkpt><trkpt lat="45.4077919" lon="10.523453"><ele>127.0</ele><time>2026-03-29T08:29:21.277Z</time></trkpt><trkpt lat="45.4077308" lon="10.5235028"><ele>127.28571428571429</ele><time>2026-03-29T08:29:22.277Z</time></trkpt><trkpt lat="45.4076728" lon="10.5235549"><ele>127.57142857142856</ele><time>2026-03-29T08:29:23.277Z</time></trkpt><trkpt lat="45.4076135" lon="10.5236099"><ele>127.85714285714285</ele><time>2026-03-29T08:29:24.277Z</time></trkpt><trkpt lat="45.4075571" lon="10.5236646"><ele>128.14285714285714</ele><time>2026-03-29T08:29:25.277Z</time></trkpt><trkpt lat="45.4075019" lon="10.523722"><ele>128.42857142857142</ele><time>2026-03-29T08:29:26.276Z</time></trkpt><trkpt lat="45.4074422" lon="10.5237765"><ele>128.7142857142857</ele><time>2026-03-29T08:29:27.277Z</time></trkpt><trkpt lat="45.407389" lon="10.5238253"><ele>129.0</ele><time>2026-03-29T08:29:28.277Z</time></trkpt><trkpt lat="45.4072847" lon="10.5239253"><ele>129.14285714285714</ele><time>2026-03-29T08:29:30.276Z</time></trkpt><trkpt lat="45.4072278" lon="10.5239698"><ele>129.28571428571428</ele><time>2026-03-29T08:29:31.276Z</time></trkpt><trkpt lat="45.4071653" lon="10.5240044"><ele>129.42857142857144</ele><time>2026-03-29T08:29:32.277Z</time></trkpt><trkpt lat="45.4071033" lon="10.5240387"><ele>129.57142857142856</ele><time>2026-03-29T08:29:33.276Z</time></trkpt><trkpt lat="45.4070389" lon="10.5240761"><ele>129.71428571428572</ele><time>2026-03-29T08:29:34.277Z</time></trkpt><trkpt lat="45.4069776" lon="10.5241187"><ele>129.85714285714286</ele><time>2026-03-29T08:29:35.276Z</time></trkpt><trkpt lat="45.4069147" lon="10.5241598"><ele>130.0</ele><time>2026-03-29T08:29:36.276Z</time></trkpt><trkpt lat="45.4068467" lon="10.5242014"><ele>130.66666666666669</ele><time>2026-03-29T08:29:37.277Z</time></trkpt><trkpt lat="45.4067768" lon="10.5242482"><ele>131.33333333333334</ele><time>2026-03-29T08:29:38.277Z</time></trkpt><trkpt lat="45.4067044" lon="10.5242942"><ele>132.0</ele><time>2026-03-29T08:29:39.277Z</time></trkpt><trkpt lat="45.4066283" lon="10.524352"><ele>132.66666666666666</ele><time>2026-03-29T08:29:40.276Z</time></trkpt><trkpt lat="45.406552" lon="10.5244023"><ele>133.33333333333331</ele><time>2026-03-29T08:29:41.277Z</time></trkpt><trkpt lat="45.4064764" lon="10.5244517"><ele>134.0</ele><time>2026-03-29T08:29:42.277Z</time></trkpt><trkpt lat="45.4064029" lon="10.5245121"><ele>134.0</ele><time>2026-03-29T08:29:43.277Z</time></trkpt><trkpt lat="45.4063282" lon="10.5245822"><ele>134.0</ele><time>2026-03-29T08:29:44.276Z</time></trkpt><trkpt lat="45.4062573" lon="10.5246651"><ele>134.0</ele><time>2026-03-29T08:29:45.276Z</time></trkpt><trkpt lat="45.4061853" lon="10.5247574"><ele>134.0</ele><time>2026-03-29T08:29:46.276Z</time></trkpt><trkpt lat="45.4061099" lon="10.5248593"><ele>134.0</ele><time>2026-03-29T08:29:47.277Z</time></trkpt><trkpt lat="45.4060361" lon="10.524969"><ele>133.25</ele><time>2026-03-29T08:29:48.276Z</time></trkpt><trkpt lat="45.4059537" lon="10.5250838"><ele>132.5</ele><time>2026-03-29T08:29:49.276Z</time></trkpt><trkpt lat="45.405854" lon="10.5252025"><ele>131.75</ele><time>2026-03-29T08:29:50.277Z</time></trkpt><trkpt lat="45.4057551" lon="10.5253256"><ele>131.0</ele><time>2026-03-29T08:29:51.277Z</time></trkpt><trkpt lat="45.4056596" lon="10.5254613"><ele>131.0</ele><time>2026-03-29T08:29:52.276Z</time></trkpt><trkpt lat="45.4055651" lon="10.5256097"><ele>131.0</ele><time>2026-03-29T08:29:53.277Z</time></trkpt><trkpt lat="45.4054723" lon="10.5257544"><ele>131.0</ele><time>2026-03-29T08:29:54.277Z</time></trkpt><trkpt lat="45.4053784" lon="10.5258997"><ele>131.0</ele><time>2026-03-29T08:29:55.277Z</time></trkpt><trkpt lat="45.4052857" lon="10.526035"><ele>131.25</ele><time>2026-03-29T08:29:56.277Z</time></trkpt><trkpt lat="45.4051846" lon="10.5261656"><ele>131.5</ele><time>2026-03-29T08:29:57.277Z</time></trkpt><trkpt lat="45.4050786" lon="10.5263057"><ele>131.75</ele><time>2026-03-29T08:29:58.276Z</time></trkpt><trkpt lat="45.4049595" lon="10.5264409"><ele>132.0</ele><time>2026-03-29T08:29:59.277Z</time></trkpt><trkpt lat="45.4048449" lon="10.5265871"><ele>132.0</ele><time>2026-03-29T08:30:00.276Z</time></trkpt><trkpt lat="45.404735" lon="10.5267494"><ele>132.0</ele><time>2026-03-29T08:30:01.277Z</time></trkpt><trkpt lat="45.404627" lon="10.5269025"><ele>132.0</ele><time>2026-03-29T08:30:02.276Z</time></trkpt><trkpt lat="45.4045194" lon="10.527052"><ele>132.25</ele><time>2026-03-29T08:30:03.277Z</time></trkpt><trkpt lat="45.4044193" lon="10.5271965"><ele>132.5</ele><time>2026-03-29T08:30:04.277Z</time></trkpt><trkpt lat="45.4043261" lon="10.5273356"><ele>132.75</ele><time>2026-03-29T08:30:05.277Z</time></trkpt><trkpt lat="45.4042421" lon="10.5274581"><ele>133.0</ele><time>2026-03-29T08:30:06.276Z</time></trkpt><trkpt lat="45.4041643" lon="10.5275695"><ele>133.0</ele><time>2026-03-29T08:30:07.277Z</time></trkpt><trkpt lat="45.4040935" lon="10.5276633"><ele>133.0</ele><time>2026-03-29T08:30:08.276Z</time></trkpt><trkpt lat="45.4040145" lon="10.5277225"><ele>133.0</ele><time>2026-03-29T08:30:09.276Z</time></trkpt><trkpt lat="45.403932" lon="10.5277545"><ele>133.0</ele><time>2026-03-29T08:30:10.277Z</time></trkpt><trkpt lat="45.4038438" lon="10.5277564"><ele>133.0</ele><time>2026-03-29T08:30:11.276Z</time></trkpt><trkpt lat="45.4037385" lon="10.527742"><ele>133.5</ele><time>2026-03-29T08:30:12.277Z</time></trkpt><trkpt lat="45.4036203" lon="10.5277372"><ele>134.0</ele><time>2026-03-29T08:30:13.277Z</time></trkpt><trkpt lat="45.4034917" lon="10.5277581"><ele>134.5</ele><time>2026-03-29T08:30:14.276Z</time></trkpt><trkpt lat="45.4033565" lon="10.5277947"><ele>135.0</ele><time>2026-03-29T08:30:15.276Z</time></trkpt><trkpt lat="45.4032319" lon="10.5278261"><ele>135.0</ele><time>2026-03-29T08:30:16.277Z</time></trkpt><trkpt lat="45.4031165" lon="10.5278529"><ele>135.0</ele><time>2026-03-29T08:30:17.276Z</time></trkpt><trkpt lat="45.4030129" lon="10.5278758"><ele>135.0</ele><time>2026-03-29T08:30:18.276Z</time></trkpt><trkpt lat="45.4029192" lon="10.527901"><ele>135.0</ele><time>2026-03-29T08:30:19.276Z</time></trkpt><trkpt lat="45.4028294" lon="10.5279217"><ele>135.0</ele><time>2026-03-29T08:30:20.277Z</time></trkpt><trkpt lat="45.4027466" lon="10.5279535"><ele>135.75</ele><time>2026-03-29T08:30:21.276Z</time></trkpt><trkpt lat="45.4026588" lon="10.5280088"><ele>136.5</ele><time>2026-03-29T08:30:22.277Z</time></trkpt><trkpt lat="45.4025456" lon="10.5280852"><ele>137.25</ele><time>2026-03-29T08:30:23.277Z</time></trkpt><trkpt lat="45.4024399" lon="10.5281823"><ele>138.0</ele><time>2026-03-29T08:30:24.276Z</time></trkpt><trkpt lat="45.4023356" lon="10.5282804"><ele>138.0</ele><time>2026-03-29T08:30:25.277Z</time></trkpt><trkpt lat="45.4022293" lon="10.5283688"><ele>138.0</ele><time>2026-03-29T08:30:26.276Z</time></trkpt><trkpt lat="45.4021291" lon="10.5284655"><ele>138.0</ele><time>2026-03-29T08:30:27.276Z</time></trkpt><trkpt lat="45.4020328" lon="10.5285607"><ele>138.0</ele><time>2026-03-29T08:30:28.277Z</time></trkpt><trkpt lat="45.401934" lon="10.5286515"><ele>137.75</ele><time>2026-03-29T08:30:29.277Z</time></trkpt><trkpt lat="45.4018294" lon="10.5287395"><ele>137.5</ele><time>2026-03-29T08:30:30.276Z</time></trkpt><trkpt lat="45.4017219" lon="10.5288217"><ele>137.25</ele><time>2026-03-29T08:30:31.277Z</time></trkpt><trkpt lat="45.4016173" lon="10.5289088"><ele>137.0</ele><time>2026-03-29T08:30:32.276Z</time></trkpt><trkpt lat="45.4015076" lon="10.5290034"><ele>137.0</ele><time>2026-03-29T08:30:33.277Z</time></trkpt><trkpt lat="45.401396" lon="10.5291039"><ele>137.0</ele><time>2026-03-29T08:30:34.276Z</time></trkpt><trkpt lat="45.4012813" lon="10.529209"><ele>137.0</ele><time>2026-03-29T08:30:35.277Z</time></trkpt><trkpt lat="45.4011668" lon="10.5293113"><ele>137.0</ele><time>2026-03-29T08:30:36.277Z</time></trkpt><trkpt lat="45.4010468" lon="10.5294102"><ele>136.75</ele><time>2026-03-29T08:30:37.277Z</time></trkpt><trkpt lat="45.4009268" lon="10.5295033"><ele>136.5</ele><time>2026-03-29T08:30:38.276Z</time></trkpt><trkpt lat="45.4008076" lon="10.5296045"><ele>136.25</ele><time>2026-03-29T08:30:39.277Z</time></trkpt><trkpt lat="45.4006836" lon="10.5297078"><ele>136.0</ele><time>2026-03-29T08:30:40.276Z</time></trkpt><trkpt lat="45.4005511" lon="10.5298188"><ele>136.33333333333334</ele><time>2026-03-29T08:30:41.277Z</time></trkpt><trkpt lat="45.4004178" lon="10.5299331"><ele>136.66666666666666</ele><time>2026-03-29T08:30:42.276Z</time></trkpt><trkpt lat="45.4002839" lon="10.5300474"><ele>137.0</ele><time>2026-03-29T08:30:43.277Z</time></trkpt><trkpt lat="45.4001597" lon="10.530162"><ele>137.0</ele><time>2026-03-29T08:30:44.277Z</time></trkpt><trkpt lat="45.4000464" lon="10.5302678"><ele>137.0</ele><time>2026-03-29T08:30:45.277Z</time></trkpt><trkpt lat="45.3999451" lon="10.5303583"><ele>137.0</ele><time>2026-03-29T08:30:46.277Z</time></trkpt><trkpt lat="45.39985" lon="10.5304501"><ele>137.0</ele><time>2026-03-29T08:30:47.277Z</time></trkpt><trkpt lat="45.3997535" lon="10.5305483"><ele>135.25</ele><time>2026-03-29T08:30:48.277Z</time></trkpt><trkpt lat="45.399655" lon="10.5306658"><ele>133.5</ele><time>2026-03-29T08:30:49.276Z</time></trkpt><trkpt lat="45.3995514" lon="10.5307861"><ele>131.75</ele><time>2026-03-29T08:30:50.276Z</time></trkpt><trkpt lat="45.3994617" lon="10.5308926"><ele>130.0</ele><time>2026-03-29T08:30:51.277Z</time></trkpt><trkpt lat="45.399385" lon="10.5309849"><ele>130.0</ele><time>2026-03-29T08:30:52.277Z</time></trkpt><trkpt lat="45.3993159" lon="10.5310901"><ele>130.0</ele><time>2026-03-29T08:30:53.276Z</time></trkpt><trkpt lat="45.3992509" lon="10.5312234"><ele>130.0</ele><time>2026-03-29T08:30:54.277Z</time></trkpt><trkpt lat="45.3991803" lon="10.5313724"><ele>130.0</ele><time>2026-03-29T08:30:55.276Z</time></trkpt><trkpt lat="45.3991098" lon="10.5315334"><ele>130.5</ele><time>2026-03-29T08:30:56.277Z</time></trkpt><trkpt lat="45.3990417" lon="10.5316903"><ele>131.0</ele><time>2026-03-29T08:30:57.277Z</time></trkpt><trkpt lat="45.3989672" lon="10.5318327"><ele>131.5</ele><time>2026-03-29T08:30:58.277Z</time></trkpt><trkpt lat="45.3988849" lon="10.5319628"><ele>132.0</ele><time>2026-03-29T08:30:59.277Z</time></trkpt><trkpt lat="45.3987979" lon="10.5320742"><ele>131.2</ele><time>2026-03-29T08:31:00.277Z</time></trkpt><trkpt lat="45.3987113" lon="10.5321731"><ele>130.39999999999998</ele><time>2026-03-29T08:31:01.277Z</time></trkpt><trkpt lat="45.3986294" lon="10.5322661"><ele>129.60000000000002</ele><time>2026-03-29T08:31:02.277Z</time></trkpt><trkpt lat="45.3985515" lon="10.532363"><ele>128.8</ele><time>2026-03-29T08:31:03.277Z</time></trkpt><trkpt lat="45.3984797" lon="10.5324472"><ele>128.0</ele><time>2026-03-29T08:31:04.276Z</time></trkpt><trkpt lat="45.39842" lon="10.5325201"><ele>128.0</ele><time>2026-03-29T08:31:05.276Z</time></trkpt><trkpt lat="45.3983712" lon="10.5325777"><ele>128.0</ele><time>2026-03-29T08:31:06.277Z</time></trkpt><trkpt lat="45.3983012" lon="10.5326565"><ele>128.0</ele><time>2026-03-29T08:31:08.277Z</time></trkpt><trkpt lat="45.3983124" lon="10.53279"><ele>128.0</ele><time>2026-03-29T08:31:11.276Z</time></trkpt><trkpt lat="45.3983853" lon="10.5329401"><ele>128.0</ele><time>2026-03-29T08:31:13.277Z</time></trkpt><trkpt lat="45.3984311" lon="10.5330252"><ele>128.0</ele><time>2026-03-29T08:31:14.276Z</time></trkpt><trkpt lat="45.3984844" lon="10.5331107"><ele>128.0</ele><time>2026-03-29T08:31:15.276Z</time></trkpt><trkpt lat="45.3985417" lon="10.5332106"><ele>128.0</ele><time>2026-03-29T08:31:16.276Z</time></trkpt><trkpt lat="45.3985922" lon="10.5333213"><ele>128.0</ele><time>2026-03-29T08:31:17.277Z</time></trkpt><trkpt lat="45.3986364" lon="10.5334478"><ele>128.0</ele><time>2026-03-29T08:31:18.277Z</time></trkpt><trkpt lat="45.3986737" lon="10.5335852"><ele>127.80000000000001</ele><time>2026-03-29T08:31:19.276Z</time></trkpt><trkpt lat="45.3987043" lon="10.5337328"><ele>127.60000000000001</ele><time>2026-03-29T08:31:20.277Z</time></trkpt><trkpt lat="45.3987421" lon="10.5338719"><ele>127.39999999999999</ele><time>2026-03-29T08:31:21.276Z</time></trkpt><trkpt lat="45.3987989" lon="10.5339881"><ele>127.19999999999999</ele><time>2026-03-29T08:31:22.277Z</time></trkpt><trkpt lat="45.3988746" lon="10.5341001"><ele>127.0</ele><time>2026-03-29T08:31:23.276Z</time></trkpt><trkpt lat="45.3989744" lon="10.5342094"><ele>127.0</ele><time>2026-03-29T08:31:24.277Z</time></trkpt><trkpt lat="45.3990853" lon="10.5343143"><ele>127.0</ele><time>2026-03-29T08:31:25.277Z</time></trkpt><trkpt lat="45.3991865" lon="10.5344169"><ele>127.0</ele><time>2026-03-29T08:31:26.277Z</time></trkpt><trkpt lat="45.3992669" lon="10.5345315"><ele>127.0</ele><time>2026-03-29T08:31:27.276Z</time></trkpt><trkpt lat="45.3993349" lon="10.5346568"><ele>127.8</ele><time>2026-03-29T08:31:28.277Z</time></trkpt><trkpt lat="45.3993904" lon="10.5347934"><ele>128.6</ele><time>2026-03-29T08:31:29.276Z</time></trkpt><trkpt lat="45.3994344" lon="10.5349421"><ele>129.39999999999998</ele><time>2026-03-29T08:31:30.276Z</time></trkpt><trkpt lat="45.399467" lon="10.5350856"><ele>130.2</ele><time>2026-03-29T08:31:31.277Z</time></trkpt><trkpt lat="45.3994919" lon="10.5352136"><ele>131.0</ele><time>2026-03-29T08:31:32.276Z</time></trkpt><trkpt lat="45.3995073" lon="10.5353242"><ele>131.0</ele><time>2026-03-29T08:31:33.276Z</time></trkpt><trkpt lat="45.3995146" lon="10.5354232"><ele>131.0</ele><time>2026-03-29T08:31:34.276Z</time></trkpt><trkpt lat="45.3995132" lon="10.5355349"><ele>131.0</ele><time>2026-03-29T08:31:35.277Z</time></trkpt><trkpt lat="45.3995086" lon="10.5356695"><ele>131.0</ele><time>2026-03-29T08:31:36.276Z</time></trkpt><trkpt lat="45.3994981" lon="10.5358256"><ele>131.0</ele><time>2026-03-29T08:31:37.277Z</time></trkpt><trkpt lat="45.3994861" lon="10.5359875"><ele>131.0</ele><time>2026-03-29T08:31:38.276Z</time></trkpt><trkpt lat="45.3994725" lon="10.5361384"><ele>131.0</ele><time>2026-03-29T08:31:39.276Z</time></trkpt><trkpt lat="45.3994568" lon="10.5362711"><ele>131.0</ele><time>2026-03-29T08:31:40.276Z</time></trkpt><trkpt lat="45.3994496" lon="10.5363853"><ele>131.0</ele><time>2026-03-29T08:31:41.277Z</time></trkpt><trkpt lat="45.3994397" lon="10.5364874"><ele>131.0</ele><time>2026-03-29T08:31:42.277Z</time></trkpt><trkpt lat="45.3994262" lon="10.5365752"><ele>131.0</ele><time>2026-03-29T08:31:43.276Z</time></trkpt><trkpt lat="45.3994148" lon="10.5366684"><ele>130.5</ele><time>2026-03-29T08:31:44.277Z</time></trkpt><trkpt lat="45.3994081" lon="10.5367631"><ele>130.0</ele><time>2026-03-29T08:31:45.277Z</time></trkpt><trkpt lat="45.3994029" lon="10.5368548"><ele>129.5</ele><time>2026-03-29T08:31:46.276Z</time></trkpt><trkpt lat="45.399397" lon="10.5370011"><ele>129.0</ele><time>2026-03-29T08:31:48.277Z</time></trkpt><trkpt lat="45.3993995" lon="10.5371194"><ele>128.5</ele><time>2026-03-29T08:31:51.277Z</time></trkpt><trkpt lat="45.3993592" lon="10.5372649"><ele>128.0</ele><time>2026-03-29T08:34:52.276Z</time></trkpt><trkpt lat="45.3993379" lon="10.5373605"><ele>127.2</ele><time>2026-03-29T08:34:53.275Z</time></trkpt><trkpt lat="45.3993104" lon="10.5374815"><ele>126.4</ele><time>2026-03-29T08:34:54.276Z</time></trkpt><trkpt lat="45.3992747" lon="10.5376176"><ele>125.60000000000001</ele><time>2026-03-29T08:34:55.276Z</time></trkpt><trkpt lat="45.3992432" lon="10.537759"><ele>124.80000000000001</ele><time>2026-03-29T08:34:56.276Z</time></trkpt><trkpt lat="45.3992128" lon="10.5378854"><ele>124.0</ele><time>2026-03-29T08:34:57.275Z</time></trkpt><trkpt lat="45.3991901" lon="10.5380042"><ele>123.50000000000001</ele><time>2026-03-29T08:34:58.275Z</time></trkpt><trkpt lat="45.3991699" lon="10.5381132"><ele>123.0</ele><time>2026-03-29T08:34:59.275Z</time></trkpt><trkpt lat="45.3991469" lon="10.5382294"><ele>122.5</ele><time>2026-03-29T08:35:00.276Z</time></trkpt><trkpt lat="45.3991241" lon="10.5383515"><ele>122.0</ele><time>2026-03-29T08:35:01.275Z</time></trkpt><trkpt lat="45.3991075" lon="10.5384874"><ele>121.50000000000001</ele><time>2026-03-29T08:35:02.275Z</time></trkpt><trkpt lat="45.3990959" lon="10.5386241"><ele>121.0</ele><time>2026-03-29T08:35:03.276Z</time></trkpt><trkpt lat="45.3990844" lon="10.5387641"><ele>120.8</ele><time>2026-03-29T08:35:04.275Z</time></trkpt><trkpt lat="45.3990746" lon="10.5389119"><ele>120.6</ele><time>2026-03-29T08:35:05.275Z</time></trkpt><trkpt lat="45.3990669" lon="10.5390544"><ele>120.4</ele><time>2026-03-29T08:35:06.275Z</time></trkpt><trkpt lat="45.3990556" lon="10.5391977"><ele>120.2</ele><time>2026-03-29T08:35:07.276Z</time></trkpt><trkpt lat="45.3990419" lon="10.5393329"><ele>120.0</ele><time>2026-03-29T08:35:08.275Z</time></trkpt><trkpt lat="45.3990245" lon="10.5394646"><ele>119.0</ele><time>2026-03-29T08:35:09.275Z</time></trkpt><trkpt lat="45.399014" lon="10.5396035"><ele>118.0</ele><time>2026-03-29T08:35:10.275Z</time></trkpt><trkpt lat="45.3989999" lon="10.5397368"><ele>117.0</ele><time>2026-03-29T08:35:11.276Z</time></trkpt><trkpt lat="45.3989724" lon="10.5398718"><ele>116.0</ele><time>2026-03-29T08:35:12.275Z</time></trkpt><trkpt lat="45.3989337" lon="10.5400115"><ele>115.0</ele><time>2026-03-29T08:35:13.276Z</time></trkpt><trkpt lat="45.3988901" lon="10.5401569"><ele>115.0</ele><time>2026-03-29T08:35:14.275Z</time></trkpt><trkpt lat="45.398848" lon="10.5403075"><ele>115.0</ele><time>2026-03-29T08:35:15.276Z</time></trkpt><trkpt lat="45.3988056" lon="10.5404569"><ele>115.0</ele><time>2026-03-29T08:35:16.275Z</time></trkpt><trkpt lat="45.3987641" lon="10.540599"><ele>115.0</ele><time>2026-03-29T08:35:17.276Z</time></trkpt><trkpt lat="45.3987255" lon="10.5407323"><ele>115.0</ele><time>2026-03-29T08:35:18.275Z</time></trkpt><trkpt lat="45.3986924" lon="10.540855"><ele>114.66666666666667</ele><time>2026-03-29T08:35:19.275Z</time></trkpt><trkpt lat="45.3986566" lon="10.5409675"><ele>114.33333333333334</ele><time>2026-03-29T08:35:20.275Z</time></trkpt><trkpt lat="45.3986274" lon="10.5410752"><ele>114.0</ele><time>2026-03-29T08:35:21.275Z</time></trkpt><trkpt lat="45.398603" lon="10.5411807"><ele>113.66666666666666</ele><time>2026-03-29T08:35:22.275Z</time></trkpt><trkpt lat="45.3985945" lon="10.5412925"><ele>113.33333333333333</ele><time>2026-03-29T08:35:23.276Z</time></trkpt><trkpt lat="45.3985995" lon="10.5414015"><ele>113.0</ele><time>2026-03-29T08:35:24.275Z</time></trkpt><trkpt lat="45.3986178" lon="10.5415058"><ele>112.99999999999999</ele><time>2026-03-29T08:35:25.275Z</time></trkpt><trkpt lat="45.3986575" lon="10.5416072"><ele>113.0</ele><time>2026-03-29T08:35:26.276Z</time></trkpt><trkpt lat="45.3987109" lon="10.5416991"><ele>113.0</ele><time>2026-03-29T08:35:27.276Z</time></trkpt><trkpt lat="45.3987673" lon="10.5417939"><ele>113.0</ele><time>2026-03-29T08:35:28.276Z</time></trkpt><trkpt lat="45.3988107" lon="10.5418892"><ele>112.99999999999999</ele><time>2026-03-29T08:35:29.276Z</time></trkpt><trkpt lat="45.3988247" lon="10.5419878"><ele>113.0</ele><time>2026-03-29T08:35:30.276Z</time></trkpt><trkpt lat="45.3988234" lon="10.5421148"><ele>112.60000000000001</ele><time>2026-03-29T08:35:31.276Z</time></trkpt><trkpt lat="45.3987984" lon="10.5422369"><ele>112.20000000000002</ele><time>2026-03-29T08:35:32.275Z</time></trkpt><trkpt lat="45.3987462" lon="10.5423648"><ele>111.8</ele><time>2026-03-29T08:35:33.275Z</time></trkpt><trkpt lat="45.398692" lon="10.5425021"><ele>111.4</ele><time>2026-03-29T08:35:34.276Z</time></trkpt><trkpt lat="45.3986468" lon="10.5426433"><ele>111.0</ele><time>2026-03-29T08:35:35.275Z</time></trkpt><trkpt lat="45.3986086" lon="10.542802"><ele>111.0</ele><time>2026-03-29T08:35:36.276Z</time></trkpt><trkpt lat="45.3985819" lon="10.5429665"><ele>111.0</ele><time>2026-03-29T08:35:37.276Z</time></trkpt><trkpt lat="45.3985467" lon="10.5431269"><ele>111.0</ele><time>2026-03-29T08:35:38.276Z</time></trkpt><trkpt lat="45.3985047" lon="10.5432882"><ele>111.0</ele><time>2026-03-29T08:35:39.275Z</time></trkpt><trkpt lat="45.3984419" lon="10.5434658"><ele>111.0</ele><time>2026-03-29T08:35:40.275Z</time></trkpt><trkpt lat="45.3983741" lon="10.5436573"><ele>111.0</ele><time>2026-03-29T08:35:41.276Z</time></trkpt><trkpt lat="45.3983037" lon="10.5438652"><ele>111.0</ele><time>2026-03-29T08:35:42.275Z</time></trkpt><trkpt lat="45.3982341" lon="10.5440596"><ele>111.5</ele><time>2026-03-29T08:35:43.275Z</time></trkpt><trkpt lat="45.398164" lon="10.5442453"><ele>112.0</ele><time>2026-03-29T08:35:44.276Z</time></trkpt><trkpt lat="45.3980862" lon="10.544409"><ele>112.5</ele><time>2026-03-29T08:35:45.276Z</time></trkpt><trkpt lat="45.3980085" lon="10.5445626"><ele>113.0</ele><time>2026-03-29T08:35:46.275Z</time></trkpt><trkpt lat="45.3979284" lon="10.5447003"><ele>113.0</ele><time>2026-03-29T08:35:47.275Z</time></trkpt><trkpt lat="45.3978544" lon="10.5448351"><ele>113.00000000000001</ele><time>2026-03-29T08:35:48.276Z</time></trkpt><trkpt lat="45.397796" lon="10.5449599"><ele>113.00000000000001</ele><time>2026-03-29T08:35:49.276Z</time></trkpt><trkpt lat="45.3977489" lon="10.5450956"><ele>113.0</ele><time>2026-03-29T08:35:50.275Z</time></trkpt><trkpt lat="45.3977057" lon="10.5452424"><ele>113.0</ele><time>2026-03-29T08:35:51.276Z</time></trkpt><trkpt lat="45.3976658" lon="10.5453927"><ele>112.99999999999999</ele><time>2026-03-29T08:35:52.275Z</time></trkpt><trkpt lat="45.3976374" lon="10.5455255"><ele>113.0</ele><time>2026-03-29T08:35:53.275Z</time></trkpt><trkpt lat="45.3976108" lon="10.5456492"><ele>113.0</ele><time>2026-03-29T08:35:54.275Z</time></trkpt><trkpt lat="45.3975936" lon="10.5457612"><ele>113.0</ele><time>2026-03-29T08:35:55.276Z</time></trkpt><trkpt lat="45.3975815" lon="10.5458773"><ele>112.99999999999999</ele><time>2026-03-29T08:35:56.275Z</time></trkpt><trkpt lat="45.3975807" lon="10.5460001"><ele>113.0</ele><time>2026-03-29T08:35:57.275Z</time></trkpt><trkpt lat="45.3975888" lon="10.5461269"><ele>113.0</ele><time>2026-03-29T08:35:58.276Z</time></trkpt><trkpt lat="45.3976104" lon="10.5462707"><ele>113.00000000000001</ele><time>2026-03-29T08:35:59.276Z</time></trkpt><trkpt lat="45.3976361" lon="10.546424"><ele>113.00000000000001</ele><time>2026-03-29T08:36:00.275Z</time></trkpt><trkpt lat="45.3976619" lon="10.5465838"><ele>113.0</ele><time>2026-03-29T08:36:01.276Z</time></trkpt><trkpt lat="45.3976708" lon="10.5467485"><ele>113.0</ele><time>2026-03-29T08:36:02.276Z</time></trkpt><trkpt lat="45.3976591" lon="10.5469142"><ele>113.75</ele><time>2026-03-29T08:36:03.275Z</time></trkpt><trkpt lat="45.3976329" lon="10.5470838"><ele>114.5</ele><time>2026-03-29T08:36:04.275Z</time></trkpt><trkpt lat="45.3975984" lon="10.5472504"><ele>115.25</ele><time>2026-03-29T08:36:05.276Z</time></trkpt><trkpt lat="45.3975558" lon="10.5474129"><ele>116.0</ele><time>2026-03-29T08:36:06.276Z</time></trkpt><trkpt lat="45.3975146" lon="10.5475692"><ele>116.0</ele><time>2026-03-29T08:36:07.276Z</time></trkpt><trkpt lat="45.397474" lon="10.5477148"><ele>116.0</ele><time>2026-03-29T08:36:08.275Z</time></trkpt><trkpt lat="45.3974451" lon="10.5478582"><ele>116.0</ele><time>2026-03-29T08:36:09.276Z</time></trkpt><trkpt lat="45.3974218" lon="10.5479974"><ele>116.0</ele><time>2026-03-29T08:36:10.275Z</time></trkpt><trkpt lat="45.3974077" lon="10.5481191"><ele>116.0</ele><time>2026-03-29T08:36:11.275Z</time></trkpt><trkpt lat="45.3973979" lon="10.5482322"><ele>116.16666666666666</ele><time>2026-03-29T08:36:12.275Z</time></trkpt><trkpt lat="45.3973864" lon="10.548341"><ele>116.33333333333333</ele><time>2026-03-29T08:36:13.275Z</time></trkpt><trkpt lat="45.3973737" lon="10.5484403"><ele>116.5</ele><time>2026-03-29T08:36:14.276Z</time></trkpt><trkpt lat="45.3973632" lon="10.548543"><ele>116.66666666666666</ele><time>2026-03-29T08:36:15.276Z</time></trkpt><trkpt lat="45.3973493" lon="10.5486459"><ele>116.83333333333333</ele><time>2026-03-29T08:36:16.276Z</time></trkpt><trkpt lat="45.3973323" lon="10.5487558"><ele>117.0</ele><time>2026-03-29T08:36:17.276Z</time></trkpt><trkpt lat="45.3973121" lon="10.5488653"><ele>117.5</ele><time>2026-03-29T08:36:18.275Z</time></trkpt><trkpt lat="45.3972927" lon="10.5489709"><ele>118.0</ele><time>2026-03-29T08:36:19.275Z</time></trkpt><trkpt lat="45.397281" lon="10.5490794"><ele>118.5</ele><time>2026-03-29T08:36:20.275Z</time></trkpt><trkpt lat="45.3972749" lon="10.5491969"><ele>119.0</ele><time>2026-03-29T08:36:21.275Z</time></trkpt><trkpt lat="45.3972674" lon="10.5493241"><ele>119.5</ele><time>2026-03-29T08:36:22.275Z</time></trkpt><trkpt lat="45.3972563" lon="10.5494552"><ele>120.0</ele><time>2026-03-29T08:36:23.275Z</time></trkpt><trkpt lat="45.3972369" lon="10.5495966"><ele>120.4</ele><time>2026-03-29T08:36:24.275Z</time></trkpt><trkpt lat="45.3972179" lon="10.5497267"><ele>120.8</ele><time>2026-03-29T08:36:25.275Z</time></trkpt><trkpt lat="45.397197" lon="10.5498536"><ele>121.19999999999999</ele><time>2026-03-29T08:36:26.275Z</time></trkpt><trkpt lat="45.3971808" lon="10.5499916"><ele>121.6</ele><time>2026-03-29T08:36:27.276Z</time></trkpt><trkpt lat="45.3971617" lon="10.5501429"><ele>122.0</ele><time>2026-03-29T08:36:28.276Z</time></trkpt><trkpt lat="45.3971418" lon="10.550297"><ele>120.6</ele><time>2026-03-29T08:36:29.275Z</time></trkpt><trkpt lat="45.3971191" lon="10.5504475"><ele>119.19999999999999</ele><time>2026-03-29T08:36:30.276Z</time></trkpt><trkpt lat="45.3970922" lon="10.5505971"><ele>117.8</ele><time>2026-03-29T08:36:31.276Z</time></trkpt><trkpt lat="45.3970538" lon="10.5507498"><ele>116.4</ele><time>2026-03-29T08:36:32.275Z</time></trkpt><trkpt lat="45.3970161" lon="10.5508883"><ele>115.0</ele><time>2026-03-29T08:36:33.276Z</time></trkpt><trkpt lat="45.3969747" lon="10.5510163"><ele>115.00000000000001</ele><time>2026-03-29T08:36:34.275Z</time></trkpt><trkpt lat="45.3969397" lon="10.5511427"><ele>115.0</ele><time>2026-03-29T08:36:35.275Z</time></trkpt><trkpt lat="45.3969187" lon="10.5512506"><ele>115.0</ele><time>2026-03-29T08:36:36.275Z</time></trkpt><trkpt lat="45.3969079" lon="10.5513592"><ele>115.0</ele><time>2026-03-29T08:36:37.275Z</time></trkpt><trkpt lat="45.3968964" lon="10.5515168"><ele>115.00000000000001</ele><time>2026-03-29T08:36:39.276Z</time></trkpt><trkpt lat="45.3968947" lon="10.5516271"><ele>115.0</ele><time>2026-03-29T08:36:41.275Z</time></trkpt><trkpt lat="45.3968395" lon="10.5517199"><ele>116.2</ele><time>2026-03-29T08:36:44.276Z</time></trkpt><trkpt lat="45.3967339" lon="10.5517356"><ele>117.4</ele><time>2026-03-29T08:36:46.276Z</time></trkpt><trkpt lat="45.3966557" lon="10.5517323"><ele>118.6</ele><time>2026-03-29T08:36:47.276Z</time></trkpt><trkpt lat="45.3965555" lon="10.551719"><ele>119.8</ele><time>2026-03-29T08:36:48.276Z</time></trkpt><trkpt lat="45.3964443" lon="10.5517109"><ele>121.0</ele><time>2026-03-29T08:36:49.276Z</time></trkpt><trkpt lat="45.3963291" lon="10.5517111"><ele>121.16666666666667</ele><time>2026-03-29T08:36:50.276Z</time></trkpt><trkpt lat="45.3962147" lon="10.5517163"><ele>121.33333333333334</ele><time>2026-03-29T08:36:51.276Z</time></trkpt><trkpt lat="45.3961139" lon="10.5517285"><ele>121.5</ele><time>2026-03-29T08:36:52.276Z</time></trkpt><trkpt lat="45.3960241" lon="10.551728"><ele>121.66666666666666</ele><time>2026-03-29T08:36:53.275Z</time></trkpt><trkpt lat="45.3959529" lon="10.5517334"><ele>121.83333333333333</ele><time>2026-03-29T08:36:54.276Z</time></trkpt><trkpt lat="45.3958895" lon="10.551743"><ele>122.0</ele><time>2026-03-29T08:36:55.275Z</time></trkpt><trkpt lat="45.3957992" lon="10.5517482"><ele>121.99999999999999</ele><time>2026-03-29T08:36:57.276Z</time></trkpt><trkpt lat="45.3957281" lon="10.5517646"><ele>122.0</ele><time>2026-03-29T08:37:49.276Z</time></trkpt><trkpt lat="45.3956656" lon="10.5517781"><ele>122.0</ele><time>2026-03-29T08:37:50.276Z</time></trkpt><trkpt lat="45.3955866" lon="10.5517931"><ele>122.0</ele><time>2026-03-29T08:37:51.276Z</time></trkpt><trkpt lat="45.3954853" lon="10.5518009"><ele>121.99999999999999</ele><time>2026-03-29T08:37:52.275Z</time></trkpt><trkpt lat="45.3953709" lon="10.5517987"><ele>122.0</ele><time>2026-03-29T08:37:53.276Z</time></trkpt><trkpt lat="45.395246" lon="10.5517737"><ele>122.25</ele><time>2026-03-29T08:37:54.276Z</time></trkpt><trkpt lat="45.3951196" lon="10.5517269"><ele>122.5</ele><time>2026-03-29T08:37:55.275Z</time></trkpt><trkpt lat="45.3950042" lon="10.5516685"><ele>122.75</ele><time>2026-03-29T08:37:56.275Z</time></trkpt><trkpt lat="45.3948883" lon="10.5516264"><ele>123.0</ele><time>2026-03-29T08:37:57.275Z</time></trkpt><trkpt lat="45.3947787" lon="10.5516013"><ele>123.0</ele><time>2026-03-29T08:37:58.275Z</time></trkpt><trkpt lat="45.3946759" lon="10.5515807"><ele>123.00000000000001</ele><time>2026-03-29T08:37:59.276Z</time></trkpt><trkpt lat="45.3945744" lon="10.5515559"><ele>123.00000000000001</ele><time>2026-03-29T08:38:00.276Z</time></trkpt><trkpt lat="45.3944727" lon="10.5515609"><ele>123.0</ele><time>2026-03-29T08:38:01.276Z</time></trkpt><trkpt lat="45.3943578" lon="10.5515686"><ele>123.0</ele><time>2026-03-29T08:38:02.276Z</time></trkpt><trkpt lat="45.3942397" lon="10.5515879"><ele>121.5</ele><time>2026-03-29T08:38:03.276Z</time></trkpt><trkpt lat="45.3941286" lon="10.5516232"><ele>120.0</ele><time>2026-03-29T08:38:04.275Z</time></trkpt><trkpt lat="45.3940204" lon="10.5516584"><ele>118.5</ele><time>2026-03-29T08:38:05.275Z</time></trkpt><trkpt lat="45.3939085" lon="10.5516974"><ele>117.0</ele><time>2026-03-29T08:38:06.275Z</time></trkpt><trkpt lat="45.393802" lon="10.551743"><ele>116.0</ele><time>2026-03-29T08:38:07.276Z</time></trkpt><trkpt lat="45.3936962" lon="10.551783"><ele>114.99999999999999</ele><time>2026-03-29T08:38:08.276Z</time></trkpt><trkpt lat="45.3935957" lon="10.5518292"><ele>113.99999999999999</ele><time>2026-03-29T08:38:09.276Z</time></trkpt><trkpt lat="45.393507" lon="10.5518704"><ele>113.0</ele><time>2026-03-29T08:38:10.275Z</time></trkpt><trkpt lat="45.3934291" lon="10.5518931"><ele>112.0</ele><time>2026-03-29T08:38:11.275Z</time></trkpt><trkpt lat="45.3933494" lon="10.5519162"><ele>112.00000000000001</ele><time>2026-03-29T08:38:12.276Z</time></trkpt><trkpt lat="45.3932733" lon="10.55191"><ele>112.0</ele><time>2026-03-29T08:38:13.275Z</time></trkpt><trkpt lat="45.393201" lon="10.55189"><ele>112.0</ele><time>2026-03-29T08:38:14.275Z</time></trkpt><trkpt lat="45.3931403" lon="10.5518493"><ele>112.0</ele><time>2026-03-29T08:38:15.275Z</time></trkpt><trkpt lat="45.3930763" lon="10.5517653"><ele>112.00000000000001</ele><time>2026-03-29T08:38:16.275Z</time></trkpt><trkpt lat="45.3930055" lon="10.5516716"><ele>112.0</ele><time>2026-03-29T08:38:17.276Z</time></trkpt><trkpt lat="45.3929144" lon="10.5515861"><ele>111.5</ele><time>2026-03-29T08:38:18.275Z</time></trkpt><trkpt lat="45.3928129" lon="10.5515158"><ele>111.0</ele><time>2026-03-29T08:38:19.275Z</time></trkpt><trkpt lat="45.3927072" lon="10.551444"><ele>110.5</ele><time>2026-03-29T08:38:20.276Z</time></trkpt><trkpt lat="45.3925924" lon="10.5513787"><ele>110.0</ele><time>2026-03-29T08:38:21.276Z</time></trkpt><trkpt lat="45.3924667" lon="10.5513344"><ele>110.0</ele><time>2026-03-29T08:38:22.275Z</time></trkpt><trkpt lat="45.3923304" lon="10.5513036"><ele>110.0</ele><time>2026-03-29T08:38:23.276Z</time></trkpt><trkpt lat="45.392195" lon="10.5512461"><ele>110.0</ele><time>2026-03-29T08:38:24.276Z</time></trkpt><trkpt lat="45.3920684" lon="10.5511866"><ele>110.0</ele><time>2026-03-29T08:38:25.276Z</time></trkpt><trkpt lat="45.3919438" lon="10.5511321"><ele>111.5</ele><time>2026-03-29T08:38:26.276Z</time></trkpt><trkpt lat="45.3918226" lon="10.551078"><ele>113.0</ele><time>2026-03-29T08:38:27.276Z</time></trkpt><trkpt lat="45.3916956" lon="10.5510239"><ele>114.5</ele><time>2026-03-29T08:38:28.276Z</time></trkpt><trkpt lat="45.3915618" lon="10.5509812"><ele>116.0</ele><time>2026-03-29T08:38:29.276Z</time></trkpt><trkpt lat="45.3914321" lon="10.5509348"><ele>116.75</ele><time>2026-03-29T08:38:30.275Z</time></trkpt><trkpt lat="45.3912937" lon="10.550878"><ele>117.5</ele><time>2026-03-29T08:38:31.276Z</time></trkpt><trkpt lat="45.3911577" lon="10.5508139"><ele>118.25</ele><time>2026-03-29T08:38:32.276Z</time></trkpt><trkpt lat="45.3910332" lon="10.5507566"><ele>119.0</ele><time>2026-03-29T08:38:33.275Z</time></trkpt><trkpt lat="45.3909252" lon="10.5507133"><ele>118.99999999999999</ele><time>2026-03-29T08:38:34.275Z</time></trkpt><trkpt lat="45.3908358" lon="10.5506689"><ele>119.0</ele><time>2026-03-29T08:38:35.275Z</time></trkpt><trkpt lat="45.3907589" lon="10.5506309"><ele>119.0</ele><time>2026-03-29T08:38:36.276Z</time></trkpt><trkpt lat="45.3906975" lon="10.5505871"><ele>119.0</ele><time>2026-03-29T08:38:37.276Z</time></trkpt><trkpt lat="45.3906498" lon="10.5505187"><ele>118.99999999999999</ele><time>2026-03-29T08:38:38.275Z</time></trkpt><trkpt lat="45.3906136" lon="10.5504364"><ele>119.0</ele><time>2026-03-29T08:38:39.276Z</time></trkpt><trkpt lat="45.3905876" lon="10.5503265"><ele>119.80000000000001</ele><time>2026-03-29T08:38:40.276Z</time></trkpt><trkpt lat="45.390566" lon="10.5501861"><ele>120.60000000000001</ele><time>2026-03-29T08:38:41.276Z</time></trkpt><trkpt lat="45.3905343" lon="10.5500288"><ele>121.4</ele><time>2026-03-29T08:38:42.276Z</time></trkpt><trkpt lat="45.3904998" lon="10.5498729"><ele>122.2</ele><time>2026-03-29T08:38:43.276Z</time></trkpt><trkpt lat="45.3904645" lon="10.5497226"><ele>123.0</ele><time>2026-03-29T08:38:44.276Z</time></trkpt><trkpt lat="45.3904318" lon="10.5495642"><ele>123.5</ele><time>2026-03-29T08:38:45.276Z</time></trkpt><trkpt lat="45.3903936" lon="10.5494005"><ele>124.0</ele><time>2026-03-29T08:38:46.276Z</time></trkpt><trkpt lat="45.3903568" lon="10.5492427"><ele>124.5</ele><time>2026-03-29T08:38:47.275Z</time></trkpt><trkpt lat="45.3903212" lon="10.5490908"><ele>125.0</ele><time>2026-03-29T08:38:48.275Z</time></trkpt><trkpt lat="45.3902908" lon="10.5489458"><ele>125.0</ele><time>2026-03-29T08:38:49.275Z</time></trkpt><trkpt lat="45.3902558" lon="10.5488016"><ele>125.0</ele><time>2026-03-29T08:38:50.275Z</time></trkpt><trkpt lat="45.3902183" lon="10.5486529"><ele>125.0</ele><time>2026-03-29T08:38:51.276Z</time></trkpt><trkpt lat="45.390178" lon="10.5485205"><ele>125.0</ele><time>2026-03-29T08:38:52.276Z</time></trkpt><trkpt lat="45.3901383" lon="10.5483951"><ele>125.0</ele><time>2026-03-29T08:38:53.275Z</time></trkpt><trkpt lat="45.3900972" lon="10.5482777"><ele>123.75</ele><time>2026-03-29T08:38:54.276Z</time></trkpt><trkpt lat="45.3900636" lon="10.5481282"><ele>122.5</ele><time>2026-03-29T08:38:55.275Z</time></trkpt><trkpt lat="45.3900283" lon="10.5479754"><ele>121.25</ele><time>2026-03-29T08:38:56.276Z</time></trkpt><trkpt lat="45.389988" lon="10.5478156"><ele>120.0</ele><time>2026-03-29T08:38:57.275Z</time></trkpt><trkpt lat="45.3899386" lon="10.5476408"><ele>120.0</ele><time>2026-03-29T08:38:58.276Z</time></trkpt><trkpt lat="45.389886" lon="10.5474533"><ele>120.0</ele><time>2026-03-29T08:38:59.276Z</time></trkpt><trkpt lat="45.3898266" lon="10.5472584"><ele>120.0</ele><time>2026-03-29T08:39:00.276Z</time></trkpt><trkpt lat="45.3897586" lon="10.5470458"><ele>120.33333333333334</ele><time>2026-03-29T08:39:01.276Z</time></trkpt><trkpt lat="45.3896755" lon="10.54681"><ele>120.66666666666667</ele><time>2026-03-29T08:39:02.275Z</time></trkpt><trkpt lat="45.389598" lon="10.5465712"><ele>121.0</ele><time>2026-03-29T08:39:03.276Z</time></trkpt><trkpt lat="45.3895261" lon="10.5463464"><ele>122.33333333333334</ele><time>2026-03-29T08:39:04.276Z</time></trkpt><trkpt lat="45.3894563" lon="10.5461291"><ele>123.66666666666666</ele><time>2026-03-29T08:39:05.275Z</time></trkpt><trkpt lat="45.3893824" lon="10.5459259"><ele>125.0</ele><time>2026-03-29T08:39:06.275Z</time></trkpt><trkpt lat="45.3893108" lon="10.5457436"><ele>125.0</ele><time>2026-03-29T08:39:07.275Z</time></trkpt><trkpt lat="45.3892512" lon="10.5455816"><ele>125.0</ele><time>2026-03-29T08:39:08.275Z</time></trkpt><trkpt lat="45.3891939" lon="10.5454371"><ele>125.0</ele><time>2026-03-29T08:39:09.275Z</time></trkpt><trkpt lat="45.3891456" lon="10.5453108"><ele>125.0</ele><time>2026-03-29T08:39:10.276Z</time></trkpt><trkpt lat="45.389097" lon="10.5452148"><ele>125.0</ele><time>2026-03-29T08:39:11.276Z</time></trkpt><trkpt lat="45.3890649" lon="10.5451197"><ele>125.4</ele><time>2026-03-29T08:39:12.276Z</time></trkpt><trkpt lat="45.3890106" lon="10.5449827"><ele>125.8</ele><time>2026-03-29T08:39:14.276Z</time></trkpt><trkpt lat="45.3889305" lon="10.5449341"><ele>126.19999999999999</ele><time>2026-03-29T08:39:16.276Z</time></trkpt><trkpt lat="45.3888263" lon="10.54499"><ele>126.6</ele><time>2026-03-29T08:39:18.275Z</time></trkpt><trkpt lat="45.3887676" lon="10.5450764"><ele>127.0</ele><time>2026-03-29T08:39:19.275Z</time></trkpt><trkpt lat="45.3887027" lon="10.545187"><ele>127.0</ele><time>2026-03-29T08:39:20.276Z</time></trkpt><trkpt lat="45.388618" lon="10.5453308"><ele>127.0</ele><time>2026-03-29T08:39:21.275Z</time></trkpt><trkpt lat="45.388518" lon="10.5455062"><ele>127.0</ele><time>2026-03-29T08:39:22.275Z</time></trkpt><trkpt lat="45.3884033" lon="10.5456792"><ele>125.66666666666667</ele><time>2026-03-29T08:39:23.276Z</time></trkpt><trkpt lat="45.3882836" lon="10.5458364"><ele>124.33333333333334</ele><time>2026-03-29T08:39:24.275Z</time></trkpt><trkpt lat="45.3881533" lon="10.5459766"><ele>123.0</ele><time>2026-03-29T08:39:25.275Z</time></trkpt><trkpt lat="45.3880158" lon="10.5461174"><ele>123.33333333333334</ele><time>2026-03-29T08:39:26.275Z</time></trkpt><trkpt lat="45.3878841" lon="10.5462553"><ele>123.66666666666667</ele><time>2026-03-29T08:39:27.276Z</time></trkpt><trkpt lat="45.3877548" lon="10.54639"><ele>124.0</ele><time>2026-03-29T08:39:28.276Z</time></trkpt><trkpt lat="45.3876279" lon="10.5465262"><ele>124.0</ele><time>2026-03-29T08:39:29.276Z</time></trkpt><trkpt lat="45.3875074" lon="10.5466653"><ele>124.0</ele><time>2026-03-29T08:39:30.275Z</time></trkpt><trkpt lat="45.3873806" lon="10.5467991"><ele>124.0</ele><time>2026-03-29T08:39:31.275Z</time></trkpt><trkpt lat="45.387245" lon="10.546924"><ele>124.33333333333334</ele><time>2026-03-29T08:39:32.276Z</time></trkpt><trkpt lat="45.3871092" lon="10.5470526"><ele>124.66666666666666</ele><time>2026-03-29T08:39:33.276Z</time></trkpt><trkpt lat="45.3869736" lon="10.5471823"><ele>125.0</ele><time>2026-03-29T08:39:34.275Z</time></trkpt><trkpt lat="45.3868436" lon="10.5473148"><ele>125.0</ele><time>2026-03-29T08:39:35.276Z</time></trkpt><trkpt lat="45.386718" lon="10.5474425"><ele>125.0</ele><time>2026-03-29T08:39:36.275Z</time></trkpt><trkpt lat="45.3865925" lon="10.5475663"><ele>125.0</ele><time>2026-03-29T08:39:37.276Z</time></trkpt><trkpt lat="45.386469" lon="10.5476888"><ele>125.0</ele><time>2026-03-29T08:39:38.276Z</time></trkpt><trkpt lat="45.3863533" lon="10.5478224"><ele>125.0</ele><time>2026-03-29T08:39:39.275Z</time></trkpt><trkpt lat="45.3862372" lon="10.5479607"><ele>125.0</ele><time>2026-03-29T08:39:40.275Z</time></trkpt><trkpt lat="45.3861235" lon="10.5480801"><ele>125.0</ele><time>2026-03-29T08:39:41.276Z</time></trkpt><trkpt lat="45.3860111" lon="10.5481782"><ele>125.0</ele><time>2026-03-29T08:39:42.276Z</time></trkpt><trkpt lat="45.38591" lon="10.5482634"><ele>125.0</ele><time>2026-03-29T08:39:43.275Z</time></trkpt><trkpt lat="45.3858113" lon="10.5483337"><ele>125.0</ele><time>2026-03-29T08:39:44.276Z</time></trkpt><trkpt lat="45.385712" lon="10.5483942"><ele>125.0</ele><time>2026-03-29T08:39:45.276Z</time></trkpt><trkpt lat="45.3856172" lon="10.5484653"><ele>125.0</ele><time>2026-03-29T08:39:46.276Z</time></trkpt><trkpt lat="45.3855356" lon="10.5485566"><ele>124.25</ele><time>2026-03-29T08:39:47.275Z</time></trkpt><trkpt lat="45.3854601" lon="10.5486694"><ele>123.5</ele><time>2026-03-29T08:39:48.276Z</time></trkpt><trkpt lat="45.3853846" lon="10.5487924"><ele>122.75</ele><time>2026-03-29T08:39:49.276Z</time></trkpt><trkpt lat="45.3853096" lon="10.5489248"><ele>122.0</ele><time>2026-03-29T08:39:50.276Z</time></trkpt><trkpt lat="45.3852266" lon="10.5490636"><ele>123.75</ele><time>2026-03-29T08:39:51.275Z</time></trkpt><trkpt lat="45.3851344" lon="10.5491951"><ele>125.5</ele><time>2026-03-29T08:39:52.275Z</time></trkpt><trkpt lat="45.385039" lon="10.5493069"><ele>127.25</ele><time>2026-03-29T08:39:53.275Z</time></trkpt><trkpt lat="45.3849375" lon="10.5494093"><ele>129.0</ele><time>2026-03-29T08:39:54.275Z</time></trkpt><trkpt lat="45.3848406" lon="10.5494944"><ele>129.6</ele><time>2026-03-29T08:39:55.276Z</time></trkpt><trkpt lat="45.3847432" lon="10.5495661"><ele>130.2</ele><time>2026-03-29T08:39:56.275Z</time></trkpt><trkpt lat="45.3846508" lon="10.5496246"><ele>130.79999999999998</ele><time>2026-03-29T08:39:57.275Z</time></trkpt><trkpt lat="45.3845629" lon="10.5496719"><ele>131.4</ele><time>2026-03-29T08:39:58.276Z</time></trkpt><trkpt lat="45.3844641" lon="10.5497224"><ele>132.0</ele><time>2026-03-29T08:39:59.275Z</time></trkpt><trkpt lat="45.3843572" lon="10.5497907"><ele>132.5</ele><time>2026-03-29T08:40:00.276Z</time></trkpt><trkpt lat="45.3842479" lon="10.5498504"><ele>133.0</ele><time>2026-03-29T08:40:01.276Z</time></trkpt><trkpt lat="45.3841304" lon="10.5499117"><ele>133.5</ele><time>2026-03-29T08:40:02.275Z</time></trkpt><trkpt lat="45.3840131" lon="10.5499747"><ele>134.0</ele><time>2026-03-29T08:40:03.275Z</time></trkpt><trkpt lat="45.3838935" lon="10.550049"><ele>132.8</ele><time>2026-03-29T08:40:04.275Z</time></trkpt><trkpt lat="45.3837796" lon="10.5501186"><ele>131.60000000000002</ele><time>2026-03-29T08:40:05.275Z</time></trkpt><trkpt lat="45.3836766" lon="10.5501813"><ele>130.4</ele><time>2026-03-29T08:40:06.275Z</time></trkpt><trkpt lat="45.3835841" lon="10.5502418"><ele>129.20000000000002</ele><time>2026-03-29T08:40:07.276Z</time></trkpt><trkpt lat="45.3835019" lon="10.5503021"><ele>128.0</ele><time>2026-03-29T08:40:08.275Z</time></trkpt><trkpt lat="45.383429" lon="10.5503612"><ele>128.16666666666666</ele><time>2026-03-29T08:40:09.276Z</time></trkpt><trkpt lat="45.3833611" lon="10.5504166"><ele>128.33333333333331</ele><time>2026-03-29T08:40:10.276Z</time></trkpt><trkpt lat="45.3832926" lon="10.5504699"><ele>128.5</ele><time>2026-03-29T08:40:11.276Z</time></trkpt><trkpt lat="45.3832274" lon="10.5505226"><ele>128.66666666666666</ele><time>2026-03-29T08:40:12.276Z</time></trkpt><trkpt lat="45.3831681" lon="10.5505709"><ele>128.83333333333334</ele><time>2026-03-29T08:40:13.275Z</time></trkpt><trkpt lat="45.3831036" lon="10.5506231"><ele>129.0</ele><time>2026-03-29T08:40:14.275Z</time></trkpt><trkpt lat="45.3830308" lon="10.5506991"><ele>128.6</ele><time>2026-03-29T08:40:15.276Z</time></trkpt><trkpt lat="45.3829468" lon="10.5507838"><ele>128.2</ele><time>2026-03-29T08:40:16.275Z</time></trkpt><trkpt lat="45.3828505" lon="10.5508626"><ele>127.79999999999998</ele><time>2026-03-29T08:40:17.276Z</time></trkpt><trkpt lat="45.3827437" lon="10.5509262"><ele>127.39999999999999</ele><time>2026-03-29T08:40:18.276Z</time></trkpt><trkpt lat="45.3826339" lon="10.5509926"><ele>127.0</ele><time>2026-03-29T08:40:19.276Z</time></trkpt><trkpt lat="45.3825177" lon="10.5510664"><ele>127.0</ele><time>2026-03-29T08:40:20.275Z</time></trkpt><trkpt lat="45.3823909" lon="10.55113"><ele>127.0</ele><time>2026-03-29T08:40:21.276Z</time></trkpt><trkpt lat="45.3822639" lon="10.5511869"><ele>127.0</ele><time>2026-03-29T08:40:22.275Z</time></trkpt><trkpt lat="45.3821358" lon="10.5512407"><ele>127.0</ele><time>2026-03-29T08:40:23.276Z</time></trkpt><trkpt lat="45.3820078" lon="10.5512911"><ele>126.5</ele><time>2026-03-29T08:40:24.275Z</time></trkpt><trkpt lat="45.3818758" lon="10.5513506"><ele>126.0</ele><time>2026-03-29T08:40:25.275Z</time></trkpt><trkpt lat="45.3817462" lon="10.5514197"><ele>125.5</ele><time>2026-03-29T08:40:26.276Z</time></trkpt><trkpt lat="45.3816229" lon="10.551491"><ele>125.0</ele><time>2026-03-29T08:40:27.276Z</time></trkpt><trkpt lat="45.3815094" lon="10.5515626"><ele>125.0</ele><time>2026-03-29T08:40:28.276Z</time></trkpt><trkpt lat="45.3814009" lon="10.5516268"><ele>125.0</ele><time>2026-03-29T08:40:29.276Z</time></trkpt><trkpt lat="45.3812958" lon="10.5516952"><ele>125.0</ele><time>2026-03-29T08:40:30.276Z</time></trkpt><trkpt lat="45.3811964" lon="10.5517621"><ele>125.0</ele><time>2026-03-29T08:40:31.274Z</time></trkpt><trkpt lat="45.3811045" lon="10.5518358"><ele>125.0</ele><time>2026-03-29T08:40:32.274Z</time></trkpt><trkpt lat="45.3810194" lon="10.5519145"><ele>124.8</ele><time>2026-03-29T08:40:33.274Z</time></trkpt><trkpt lat="45.3809389" lon="10.5519864"><ele>124.6</ele><time>2026-03-29T08:40:34.274Z</time></trkpt><trkpt lat="45.3808675" lon="10.5520466"><ele>124.4</ele><time>2026-03-29T08:40:35.275Z</time></trkpt><trkpt lat="45.3807861" lon="10.552107"><ele>124.2</ele><time>2026-03-29T08:40:36.274Z</time></trkpt><trkpt lat="45.3807003" lon="10.5521776"><ele>124.0</ele><time>2026-03-29T08:40:37.275Z</time></trkpt><trkpt lat="45.3806121" lon="10.5522516"><ele>124.00000000000001</ele><time>2026-03-29T08:40:38.275Z</time></trkpt><trkpt lat="45.3805328" lon="10.5523223"><ele>124.0</ele><time>2026-03-29T08:40:39.274Z</time></trkpt><trkpt lat="45.3804673" lon="10.5523905"><ele>124.0</ele><time>2026-03-29T08:40:40.275Z</time></trkpt><trkpt lat="45.3804129" lon="10.5524588"><ele>124.0</ele><time>2026-03-29T08:40:41.275Z</time></trkpt><trkpt lat="45.3803533" lon="10.5526112"><ele>124.00000000000001</ele><time>2026-03-29T08:40:43.274Z</time></trkpt><trkpt lat="45.3803377" lon="10.5526988"><ele>124.0</ele><time>2026-03-29T08:40:44.275Z</time></trkpt><trkpt lat="45.3803344" lon="10.5527978"><ele>123.83333333333334</ele><time>2026-03-29T08:40:45.274Z</time></trkpt><trkpt lat="45.3803407" lon="10.5529055"><ele>123.66666666666667</ele><time>2026-03-29T08:40:46.274Z</time></trkpt><trkpt lat="45.3803516" lon="10.5530159"><ele>123.5</ele><time>2026-03-29T08:40:47.275Z</time></trkpt><trkpt lat="45.3803621" lon="10.5531259"><ele>123.33333333333334</ele><time>2026-03-29T08:40:48.275Z</time></trkpt><trkpt lat="45.3803692" lon="10.5532285"><ele>123.16666666666667</ele><time>2026-03-29T08:40:49.274Z</time></trkpt><trkpt lat="45.3803787" lon="10.553321"><ele>123.0</ele><time>2026-03-29T08:40:50.275Z</time></trkpt><trkpt lat="45.380455" lon="10.5534649"><ele>123.16666666666667</ele><time>2026-03-29T08:40:52.275Z</time></trkpt><trkpt lat="45.3805185" lon="10.5535346"><ele>123.33333333333334</ele><time>2026-03-29T08:40:53.274Z</time></trkpt><trkpt lat="45.3805925" lon="10.5536114"><ele>123.5</ele><time>2026-03-29T08:40:54.275Z</time></trkpt><trkpt lat="45.3806601" lon="10.5536942"><ele>123.66666666666667</ele><time>2026-03-29T08:40:55.275Z</time></trkpt><trkpt lat="45.3807179" lon="10.5537809"><ele>123.83333333333334</ele><time>2026-03-29T08:40:56.275Z</time></trkpt><trkpt lat="45.3807633" lon="10.5538689"><ele>124.0</ele><time>2026-03-29T08:40:57.275Z</time></trkpt><trkpt lat="45.3807932" lon="10.5539745"><ele>124.00000000000001</ele><time>2026-03-29T08:40:58.275Z</time></trkpt><trkpt lat="45.3808058" lon="10.5540955"><ele>124.0</ele><time>2026-03-29T08:40:59.274Z</time></trkpt><trkpt lat="45.3807925" lon="10.5542155"><ele>124.0</ele><time>2026-03-29T08:41:00.274Z</time></trkpt><trkpt lat="45.380763" lon="10.5543372"><ele>124.0</ele><time>2026-03-29T08:41:01.274Z</time></trkpt><trkpt lat="45.380717" lon="10.5544547"><ele>124.00000000000001</ele><time>2026-03-29T08:41:02.275Z</time></trkpt><trkpt lat="45.380665" lon="10.5545594"><ele>124.0</ele><time>2026-03-29T08:41:03.274Z</time></trkpt><trkpt lat="45.3806072" lon="10.5546676"><ele>124.2</ele><time>2026-03-29T08:41:04.275Z</time></trkpt><trkpt lat="45.3805543" lon="10.5547788"><ele>124.4</ele><time>2026-03-29T08:41:05.275Z</time></trkpt><trkpt lat="45.3804995" lon="10.554883"><ele>124.6</ele><time>2026-03-29T08:41:06.275Z</time></trkpt><trkpt lat="45.3804455" lon="10.5550011"><ele>124.8</ele><time>2026-03-29T08:41:07.274Z</time></trkpt><trkpt lat="45.3803921" lon="10.5551253"><ele>125.0</ele><time>2026-03-29T08:41:08.274Z</time></trkpt><trkpt lat="45.3803361" lon="10.5552425"><ele>124.99999999999999</ele><time>2026-03-29T08:41:09.275Z</time></trkpt><trkpt lat="45.3802838" lon="10.5553531"><ele>125.0</ele><time>2026-03-29T08:41:10.274Z</time></trkpt><trkpt lat="45.3802412" lon="10.5554506"><ele>125.0</ele><time>2026-03-29T08:41:11.275Z</time></trkpt><trkpt lat="45.3802066" lon="10.5555442"><ele>125.0</ele><time>2026-03-29T08:41:12.274Z</time></trkpt><trkpt lat="45.3801783" lon="10.5556276"><ele>124.99999999999999</ele><time>2026-03-29T08:41:13.274Z</time></trkpt><trkpt lat="45.3801396" lon="10.555734"><ele>125.0</ele><time>2026-03-29T08:41:15.275Z</time></trkpt><trkpt lat="45.3801008" lon="10.555816"><ele>125.75</ele><time>2026-03-29T08:41:17.274Z</time></trkpt><trkpt lat="45.3799988" lon="10.5559478"><ele>126.5</ele><time>2026-03-29T08:41:19.275Z</time></trkpt><trkpt lat="45.3799208" lon="10.5560384"><ele>127.25</ele><time>2026-03-29T08:41:20.275Z</time></trkpt><trkpt lat="45.3798319" lon="10.5561408"><ele>128.0</ele><time>2026-03-29T08:41:21.274Z</time></trkpt><trkpt lat="45.3797306" lon="10.5562414"><ele>128.0</ele><time>2026-03-29T08:41:22.274Z</time></trkpt><trkpt lat="45.3796199" lon="10.5563451"><ele>128.0</ele><time>2026-03-29T08:41:23.274Z</time></trkpt><trkpt lat="45.3795124" lon="10.5564452"><ele>128.0</ele><time>2026-03-29T08:41:24.275Z</time></trkpt><trkpt lat="45.379407" lon="10.55655"><ele>128.0</ele><time>2026-03-29T08:41:25.275Z</time></trkpt><trkpt lat="45.3793077" lon="10.5566631"><ele>128.0</ele><time>2026-03-29T08:41:26.275Z</time></trkpt><trkpt lat="45.3792185" lon="10.5567834"><ele>128.0</ele><time>2026-03-29T08:41:27.275Z</time></trkpt><trkpt lat="45.3791341" lon="10.5569097"><ele>128.0</ele><time>2026-03-29T08:41:28.274Z</time></trkpt><trkpt lat="45.3790574" lon="10.5570352"><ele>128.0</ele><time>2026-03-29T08:41:29.274Z</time></trkpt><trkpt lat="45.3789887" lon="10.5571586"><ele>128.20000000000002</ele><time>2026-03-29T08:41:30.275Z</time></trkpt><trkpt lat="45.3789337" lon="10.557274"><ele>128.4</ele><time>2026-03-29T08:41:31.275Z</time></trkpt><trkpt lat="45.3788832" lon="10.5573955"><ele>128.60000000000002</ele><time>2026-03-29T08:41:32.274Z</time></trkpt><trkpt lat="45.3788347" lon="10.5575302"><ele>128.8</ele><time>2026-03-29T08:41:33.275Z</time></trkpt><trkpt lat="45.378787" lon="10.5576698"><ele>129.0</ele><time>2026-03-29T08:41:34.275Z</time></trkpt><trkpt lat="45.3787337" lon="10.5578031"><ele>129.33333333333334</ele><time>2026-03-29T08:41:35.275Z</time></trkpt><trkpt lat="45.3786857" lon="10.5579288"><ele>129.66666666666666</ele><time>2026-03-29T08:41:36.275Z</time></trkpt><trkpt lat="45.378646" lon="10.5580347"><ele>130.0</ele><time>2026-03-29T08:41:37.275Z</time></trkpt><trkpt lat="45.3786086" lon="10.5581251"><ele>130.33333333333331</ele><time>2026-03-29T08:41:38.275Z</time></trkpt><trkpt lat="45.3785709" lon="10.5582091"><ele>130.66666666666666</ele><time>2026-03-29T08:41:39.275Z</time></trkpt><trkpt lat="45.3785293" lon="10.5582773"><ele>131.0</ele><time>2026-03-29T08:41:40.275Z</time></trkpt><trkpt lat="45.3784862" lon="10.5583842"><ele>131.0</ele><time>2026-03-29T08:41:42.274Z</time></trkpt><trkpt lat="45.3784879" lon="10.5584818"><ele>131.0</ele><time>2026-03-29T08:41:45.274Z</time></trkpt><trkpt lat="45.3785706" lon="10.5585309"><ele>131.0</ele><time>2026-03-29T08:41:47.274Z</time></trkpt><trkpt lat="45.3786437" lon="10.5585725"><ele>131.0</ele><time>2026-03-29T08:41:48.275Z</time></trkpt><trkpt lat="45.3787397" lon="10.558629"><ele>131.0</ele><time>2026-03-29T08:41:49.275Z</time></trkpt><trkpt lat="45.3788415" lon="10.5586921"><ele>130.5</ele><time>2026-03-29T08:41:50.275Z</time></trkpt><trkpt lat="45.37894" lon="10.5587719"><ele>130.0</ele><time>2026-03-29T08:41:51.275Z</time></trkpt><trkpt lat="45.3790442" lon="10.5588523"><ele>129.5</ele><time>2026-03-29T08:41:52.275Z</time></trkpt><trkpt lat="45.379149" lon="10.5589325"><ele>129.0</ele><time>2026-03-29T08:41:53.274Z</time></trkpt><trkpt lat="45.3792445" lon="10.559018"><ele>129.0</ele><time>2026-03-29T08:41:54.274Z</time></trkpt><trkpt lat="45.3793295" lon="10.5591128"><ele>129.0</ele><time>2026-03-29T08:41:55.274Z</time></trkpt><trkpt lat="45.3793969" lon="10.5592227"><ele>129.0</ele><time>2026-03-29T08:41:56.274Z</time></trkpt><trkpt lat="45.3794529" lon="10.5593475"><ele>129.0</ele><time>2026-03-29T08:41:57.275Z</time></trkpt><trkpt lat="45.3795102" lon="10.5595033"><ele>129.0</ele><time>2026-03-29T08:41:58.274Z</time></trkpt><trkpt lat="45.3795731" lon="10.5596818"><ele>128.5</ele><time>2026-03-29T08:41:59.274Z</time></trkpt><trkpt lat="45.3796418" lon="10.5598614"><ele>128.0</ele><time>2026-03-29T08:42:00.275Z</time></trkpt><trkpt lat="45.3797158" lon="10.560035"><ele>127.5</ele><time>2026-03-29T08:42:01.274Z</time></trkpt><trkpt lat="45.3797939" lon="10.5601906"><ele>127.0</ele><time>2026-03-29T08:42:02.274Z</time></trkpt><trkpt lat="45.3798707" lon="10.5603285"><ele>125.5</ele><time>2026-03-29T08:42:03.274Z</time></trkpt><trkpt lat="45.3799596" lon="10.5604573"><ele>124.0</ele><time>2026-03-29T08:42:04.274Z</time></trkpt><trkpt lat="45.3800613" lon="10.5605771"><ele>122.5</ele><time>2026-03-29T08:42:05.274Z</time></trkpt><trkpt lat="45.380167" lon="10.5606625"><ele>121.0</ele><time>2026-03-29T08:42:06.275Z</time></trkpt><trkpt lat="45.3802869" lon="10.560709"><ele>121.0</ele><time>2026-03-29T08:42:07.274Z</time></trkpt><trkpt lat="45.3804221" lon="10.5607418"><ele>121.0</ele><time>2026-03-29T08:42:08.274Z</time></trkpt><trkpt lat="45.380567" lon="10.5607739"><ele>121.0</ele><time>2026-03-29T08:42:09.275Z</time></trkpt><trkpt lat="45.3807244" lon="10.5608252"><ele>121.0</ele><time>2026-03-29T08:42:10.275Z</time></trkpt><trkpt lat="45.3808779" lon="10.5608752"><ele>120.0</ele><time>2026-03-29T08:42:11.274Z</time></trkpt><trkpt lat="45.3810261" lon="10.5609259"><ele>119.0</ele><time>2026-03-29T08:42:12.275Z</time></trkpt><trkpt lat="45.3811779" lon="10.5609766"><ele>118.0</ele><time>2026-03-29T08:42:13.274Z</time></trkpt><trkpt lat="45.3813445" lon="10.5610246"><ele>116.66666666666667</ele><time>2026-03-29T08:42:14.274Z</time></trkpt><trkpt lat="45.3815168" lon="10.561067"><ele>115.33333333333334</ele><time>2026-03-29T08:42:15.274Z</time></trkpt><trkpt lat="45.3816757" lon="10.5611076"><ele>114.0</ele><time>2026-03-29T08:42:16.275Z</time></trkpt><trkpt lat="45.3818096" lon="10.5611381"><ele>114.0</ele><time>2026-03-29T08:42:17.274Z</time></trkpt><trkpt lat="45.3819394" lon="10.5611639"><ele>114.0</ele><time>2026-03-29T08:42:18.275Z</time></trkpt><trkpt lat="45.38206" lon="10.5611979"><ele>114.0</ele><time>2026-03-29T08:42:19.274Z</time></trkpt><trkpt lat="45.3821813" lon="10.561223"><ele>114.0</ele><time>2026-03-29T08:42:20.274Z</time></trkpt><trkpt lat="45.3823016" lon="10.5611902"><ele>113.5</ele><time>2026-03-29T08:42:21.274Z</time></trkpt><trkpt lat="45.3824137" lon="10.561101"><ele>113.0</ele><time>2026-03-29T08:42:22.274Z</time></trkpt><trkpt lat="45.3825193" lon="10.5609714"><ele>112.5</ele><time>2026-03-29T08:42:23.274Z</time></trkpt><trkpt lat="45.3826305" lon="10.5608166"><ele>112.0</ele><time>2026-03-29T08:42:24.274Z</time></trkpt><trkpt lat="45.3827485" lon="10.5606616"><ele>112.0</ele><time>2026-03-29T08:42:25.274Z</time></trkpt><trkpt lat="45.3828687" lon="10.5605189"><ele>112.0</ele><time>2026-03-29T08:42:26.275Z</time></trkpt><trkpt lat="45.3829876" lon="10.5603937"><ele>112.0</ele><time>2026-03-29T08:42:27.275Z</time></trkpt><trkpt lat="45.3831049" lon="10.560292"><ele>112.0</ele><time>2026-03-29T08:42:28.274Z</time></trkpt><trkpt lat="45.3832229" lon="10.560219"><ele>112.5</ele><time>2026-03-29T08:42:29.275Z</time></trkpt><trkpt lat="45.383348" lon="10.5602029"><ele>113.0</ele><time>2026-03-29T08:42:30.274Z</time></trkpt><trkpt lat="45.3834878" lon="10.5602221"><ele>113.5</ele><time>2026-03-29T08:42:31.275Z</time></trkpt><trkpt lat="45.3836336" lon="10.5602569"><ele>114.0</ele><time>2026-03-29T08:42:32.274Z</time></trkpt><trkpt lat="45.3837886" lon="10.5603056"><ele>113.66666666666666</ele><time>2026-03-29T08:42:33.275Z</time></trkpt><trkpt lat="45.3839512" lon="10.5603635"><ele>113.33333333333333</ele><time>2026-03-29T08:42:34.275Z</time></trkpt><trkpt lat="45.38412" lon="10.5604226"><ele>113.0</ele><time>2026-03-29T08:42:35.275Z</time></trkpt><trkpt lat="45.3842903" lon="10.5604853"><ele>111.33333333333333</ele><time>2026-03-29T08:42:36.275Z</time></trkpt><trkpt lat="45.3844704" lon="10.5605376"><ele>109.66666666666666</ele><time>2026-03-29T08:42:37.275Z</time></trkpt><trkpt lat="45.3846492" lon="10.5605991"><ele>108.0</ele><time>2026-03-29T08:42:38.275Z</time></trkpt><trkpt lat="45.3848321" lon="10.5606511"><ele>107.33333333333334</ele><time>2026-03-29T08:42:39.275Z</time></trkpt><trkpt lat="45.3850209" lon="10.5607031"><ele>106.66666666666667</ele><time>2026-03-29T08:42:40.274Z</time></trkpt><trkpt lat="45.3852121" lon="10.5607615"><ele>106.0</ele><time>2026-03-29T08:42:41.274Z</time></trkpt><trkpt lat="45.3854166" lon="10.5608286"><ele>105.33333333333334</ele><time>2026-03-29T08:42:42.274Z</time></trkpt><trkpt lat="45.3856293" lon="10.5609059"><ele>104.66666666666666</ele><time>2026-03-29T08:42:43.274Z</time></trkpt><trkpt lat="45.3858402" lon="10.5609746"><ele>104.0</ele><time>2026-03-29T08:42:44.275Z</time></trkpt><trkpt lat="45.3860576" lon="10.5610402"><ele>104.0</ele><time>2026-03-29T08:42:45.275Z</time></trkpt><trkpt lat="45.3862753" lon="10.5611101"><ele>104.0</ele><time>2026-03-29T08:42:46.275Z</time></trkpt><trkpt lat="45.3864975" lon="10.561184"><ele>104.66666666666666</ele><time>2026-03-29T08:42:47.275Z</time></trkpt><trkpt lat="45.3867075" lon="10.5612677"><ele>105.33333333333334</ele><time>2026-03-29T08:42:48.274Z</time></trkpt><trkpt lat="45.3869003" lon="10.5613494"><ele>106.0</ele><time>2026-03-29T08:42:49.274Z</time></trkpt><trkpt lat="45.3870771" lon="10.5614218"><ele>107.33333333333334</ele><time>2026-03-29T08:42:50.275Z</time></trkpt><trkpt lat="45.3872352" lon="10.5614665"><ele>108.66666666666666</ele><time>2026-03-29T08:42:51.275Z</time></trkpt><trkpt lat="45.3873868" lon="10.5614889"><ele>110.0</ele><time>2026-03-29T08:42:52.274Z</time></trkpt><trkpt lat="45.3875236" lon="10.561495"><ele>110.0</ele><time>2026-03-29T08:42:53.275Z</time></trkpt><trkpt lat="45.387655" lon="10.5614554"><ele>110.0</ele><time>2026-03-29T08:42:54.275Z</time></trkpt><trkpt lat="45.3877767" lon="10.5613715"><ele>110.0</ele><time>2026-03-29T08:42:55.274Z</time></trkpt><trkpt lat="45.3878942" lon="10.5612492"><ele>110.0</ele><time>2026-03-29T08:42:56.275Z</time></trkpt><trkpt lat="45.3880191" lon="10.5611038"><ele>113.0</ele><time>2026-03-29T08:42:57.275Z</time></trkpt><trkpt lat="45.388155" lon="10.5609567"><ele>116.0</ele><time>2026-03-29T08:42:58.275Z</time></trkpt><trkpt lat="45.3882937" lon="10.5608353"><ele>119.0</ele><time>2026-03-29T08:42:59.275Z</time></trkpt><trkpt lat="45.388427" lon="10.5607454"><ele>119.0</ele><time>2026-03-29T08:43:00.274Z</time></trkpt><trkpt lat="45.3885553" lon="10.5606905"><ele>119.0</ele><time>2026-03-29T08:43:01.274Z</time></trkpt><trkpt lat="45.3886739" lon="10.5606807"><ele>119.0</ele><time>2026-03-29T08:43:02.275Z</time></trkpt><trkpt lat="45.3888041" lon="10.5607139"><ele>119.0</ele><time>2026-03-29T08:43:03.275Z</time></trkpt><trkpt lat="45.3889443" lon="10.5607649"><ele>120.66666666666666</ele><time>2026-03-29T08:43:04.275Z</time></trkpt><trkpt lat="45.3891086" lon="10.5608199"><ele>122.33333333333334</ele><time>2026-03-29T08:43:05.274Z</time></trkpt><trkpt lat="45.389279" lon="10.560878"><ele>124.0</ele><time>2026-03-29T08:43:06.275Z</time></trkpt><trkpt lat="45.3894475" lon="10.5609405"><ele>124.0</ele><time>2026-03-29T08:43:07.275Z</time></trkpt><trkpt lat="45.3896061" lon="10.5610035"><ele>124.0</ele><time>2026-03-29T08:43:08.274Z</time></trkpt><trkpt lat="45.389759" lon="10.5610704"><ele>124.0</ele><time>2026-03-29T08:43:09.274Z</time></trkpt><trkpt lat="45.3899187" lon="10.5611101"><ele>122.33333333333334</ele><time>2026-03-29T08:43:10.275Z</time></trkpt><trkpt lat="45.3900921" lon="10.5611486"><ele>120.66666666666666</ele><time>2026-03-29T08:43:11.274Z</time></trkpt><trkpt lat="45.3902605" lon="10.5611962"><ele>119.0</ele><time>2026-03-29T08:43:12.275Z</time></trkpt><trkpt lat="45.3904266" lon="10.5612529"><ele>118.25</ele><time>2026-03-29T08:43:13.275Z</time></trkpt><trkpt lat="45.390587" lon="10.5613002"><ele>117.5</ele><time>2026-03-29T08:43:14.274Z</time></trkpt><trkpt lat="45.3907339" lon="10.5613446"><ele>116.75</ele><time>2026-03-29T08:43:15.274Z</time></trkpt><trkpt lat="45.3908582" lon="10.5613972"><ele>116.0</ele><time>2026-03-29T08:43:16.275Z</time></trkpt><trkpt lat="45.3909704" lon="10.5614318"><ele>115.99999999999999</ele><time>2026-03-29T08:43:17.274Z</time></trkpt><trkpt lat="45.3910589" lon="10.5614514"><ele>116.0</ele><time>2026-03-29T08:43:18.274Z</time></trkpt><trkpt lat="45.3911249" lon="10.5614666"><ele>116.0</ele><time>2026-03-29T08:43:19.274Z</time></trkpt><trkpt lat="45.3911881" lon="10.5614869"><ele>116.0</ele><time>2026-03-29T08:43:21.275Z</time></trkpt><trkpt lat="45.3912773" lon="10.5614661"><ele>115.99999999999999</ele><time>2026-03-29T08:43:23.275Z</time></trkpt><trkpt lat="45.3913491" lon="10.5614492"><ele>116.0</ele><time>2026-03-29T08:43:24.275Z</time></trkpt><trkpt lat="45.3914306" lon="10.5614352"><ele>115.83333333333333</ele><time>2026-03-29T08:43:25.275Z</time></trkpt><trkpt lat="45.3915036" lon="10.5614324"><ele>115.66666666666666</ele><time>2026-03-29T08:43:26.275Z</time></trkpt><trkpt lat="45.3915975" lon="10.5614703"><ele>115.5</ele><time>2026-03-29T08:43:28.275Z</time></trkpt><trkpt lat="45.3915938" lon="10.5615816"><ele>115.33333333333334</ele><time>2026-03-29T08:43:30.275Z</time></trkpt><trkpt lat="45.3915603" lon="10.5616665"><ele>115.16666666666667</ele><time>2026-03-29T08:43:31.275Z</time></trkpt><trkpt lat="45.3915016" lon="10.5617833"><ele>115.0</ele><time>2026-03-29T08:43:32.274Z</time></trkpt><trkpt lat="45.3914288" lon="10.5619285"><ele>115.25</ele><time>2026-03-29T08:43:33.274Z</time></trkpt><trkpt lat="45.3913517" lon="10.5620817"><ele>115.5</ele><time>2026-03-29T08:43:34.275Z</time></trkpt><trkpt lat="45.3912819" lon="10.5622287"><ele>115.75</ele><time>2026-03-29T08:43:35.274Z</time></trkpt><trkpt lat="45.3912281" lon="10.5623589"><ele>116.0</ele><time>2026-03-29T08:43:36.275Z</time></trkpt><trkpt lat="45.3911828" lon="10.5624787"><ele>116.0</ele><time>2026-03-29T08:43:37.274Z</time></trkpt><trkpt lat="45.3911436" lon="10.5625844"><ele>116.0</ele><time>2026-03-29T08:43:38.274Z</time></trkpt><trkpt lat="45.3911155" lon="10.5626958"><ele>116.0</ele><time>2026-03-29T08:43:39.274Z</time></trkpt><trkpt lat="45.391097" lon="10.5628171"><ele>116.0</ele><time>2026-03-29T08:43:40.275Z</time></trkpt><trkpt lat="45.3910939" lon="10.5629518"><ele>116.0</ele><time>2026-03-29T08:43:41.275Z</time></trkpt><trkpt lat="45.3910966" lon="10.5631153"><ele>116.25</ele><time>2026-03-29T08:43:42.275Z</time></trkpt><trkpt lat="45.3911016" lon="10.5632936"><ele>116.5</ele><time>2026-03-29T08:43:43.275Z</time></trkpt><trkpt lat="45.3910953" lon="10.563489"><ele>116.75</ele><time>2026-03-29T08:43:44.275Z</time></trkpt><trkpt lat="45.3910774" lon="10.5636781"><ele>117.0</ele><time>2026-03-29T08:43:45.274Z</time></trkpt><trkpt lat="45.3910588" lon="10.5638553"><ele>117.0</ele><time>2026-03-29T08:43:46.274Z</time></trkpt><trkpt lat="45.3910403" lon="10.564018"><ele>116.99999999999999</ele><time>2026-03-29T08:43:47.274Z</time></trkpt><trkpt lat="45.3910185" lon="10.5641576"><ele>116.99999999999999</ele><time>2026-03-29T08:43:48.275Z</time></trkpt><trkpt lat="45.3909986" lon="10.5642836"><ele>117.0</ele><time>2026-03-29T08:43:49.275Z</time></trkpt><trkpt lat="45.3909667" lon="10.5644094"><ele>117.0</ele><time>2026-03-29T08:43:50.275Z</time></trkpt><trkpt lat="45.3909367" lon="10.5645491"><ele>117.0</ele><time>2026-03-29T08:43:51.274Z</time></trkpt><trkpt lat="45.3909032" lon="10.5647023"><ele>117.0</ele><time>2026-03-29T08:43:52.275Z</time></trkpt><trkpt lat="45.3908569" lon="10.5648611"><ele>117.0</ele><time>2026-03-29T08:43:53.275Z</time></trkpt><trkpt lat="45.3908012" lon="10.5650183"><ele>117.0</ele><time>2026-03-29T08:43:54.274Z</time></trkpt><trkpt lat="45.3907458" lon="10.565165"><ele>117.0</ele><time>2026-03-29T08:43:55.275Z</time></trkpt><trkpt lat="45.3906897" lon="10.5653166"><ele>117.0</ele><time>2026-03-29T08:43:56.275Z</time></trkpt><trkpt lat="45.3906287" lon="10.5654698"><ele>117.0</ele><time>2026-03-29T08:43:57.275Z</time></trkpt><trkpt lat="45.3905533" lon="10.5656306"><ele>117.0</ele><time>2026-03-29T08:43:58.274Z</time></trkpt><trkpt lat="45.390466" lon="10.5657868"><ele>116.5</ele><time>2026-03-29T08:43:59.274Z</time></trkpt><trkpt lat="45.3903834" lon="10.5659487"><ele>116.0</ele><time>2026-03-29T08:44:00.275Z</time></trkpt><trkpt lat="45.3902969" lon="10.5661036"><ele>115.5</ele><time>2026-03-29T08:44:01.274Z</time></trkpt><trkpt lat="45.3902174" lon="10.5662438"><ele>115.0</ele><time>2026-03-29T08:44:02.274Z</time></trkpt><trkpt lat="45.390133" lon="10.5663656"><ele>114.5</ele><time>2026-03-29T08:44:03.275Z</time></trkpt><trkpt lat="45.390051" lon="10.5664799"><ele>114.0</ele><time>2026-03-29T08:44:04.274Z</time></trkpt><trkpt lat="45.3899585" lon="10.5665728"><ele>113.5</ele><time>2026-03-29T08:44:05.275Z</time></trkpt><trkpt lat="45.3898418" lon="10.566662"><ele>113.0</ele><time>2026-03-29T08:44:06.274Z</time></trkpt><trkpt lat="45.3897036" lon="10.5667565"><ele>113.33333333333333</ele><time>2026-03-29T08:44:07.275Z</time></trkpt><trkpt lat="45.3895553" lon="10.566855"><ele>113.66666666666666</ele><time>2026-03-29T08:44:08.275Z</time></trkpt><trkpt lat="45.389409" lon="10.5669351"><ele>114.0</ele><time>2026-03-29T08:44:09.274Z</time></trkpt><trkpt lat="45.3892656" lon="10.5670167"><ele>114.0</ele><time>2026-03-29T08:44:10.275Z</time></trkpt><trkpt lat="45.3891316" lon="10.5671009"><ele>114.0</ele><time>2026-03-29T08:44:11.274Z</time></trkpt><trkpt lat="45.389011" lon="10.5671932"><ele>114.0</ele><time>2026-03-29T08:44:12.275Z</time></trkpt><trkpt lat="45.3888992" lon="10.5672969"><ele>114.0</ele><time>2026-03-29T08:44:13.274Z</time></trkpt><trkpt lat="45.3887974" lon="10.5674029"><ele>114.0</ele><time>2026-03-29T08:44:14.274Z</time></trkpt><trkpt lat="45.3886899" lon="10.5675306"><ele>114.0</ele><time>2026-03-29T08:44:15.275Z</time></trkpt><trkpt lat="45.3885775" lon="10.5676598"><ele>114.0</ele><time>2026-03-29T08:44:16.275Z</time></trkpt><trkpt lat="45.3884599" lon="10.5677874"><ele>114.0</ele><time>2026-03-29T08:44:17.274Z</time></trkpt><trkpt lat="45.3883448" lon="10.5679149"><ele>113.75</ele><time>2026-03-29T08:44:18.275Z</time></trkpt><trkpt lat="45.3882285" lon="10.5680382"><ele>113.5</ele><time>2026-03-29T08:44:19.275Z</time></trkpt><trkpt lat="45.3881155" lon="10.5681544"><ele>113.25</ele><time>2026-03-29T08:44:20.274Z</time></trkpt><trkpt lat="45.3879933" lon="10.5682771"><ele>113.0</ele><time>2026-03-29T08:44:21.274Z</time></trkpt><trkpt lat="45.3878648" lon="10.5683882"><ele>113.0</ele><time>2026-03-29T08:44:22.274Z</time></trkpt><trkpt lat="45.3877395" lon="10.5684857"><ele>113.0</ele><time>2026-03-29T08:44:23.275Z</time></trkpt><trkpt lat="45.3876194" lon="10.5685764"><ele>113.0</ele><time>2026-03-29T08:44:24.274Z</time></trkpt><trkpt lat="45.3875091" lon="10.568669"><ele>113.0</ele><time>2026-03-29T08:44:25.275Z</time></trkpt><trkpt lat="45.3874006" lon="10.5687669"><ele>113.0</ele><time>2026-03-29T08:44:26.275Z</time></trkpt><trkpt lat="45.3873034" lon="10.5688546"><ele>113.0</ele><time>2026-03-29T08:44:27.275Z</time></trkpt><trkpt lat="45.38721" lon="10.5689466"><ele>113.0</ele><time>2026-03-29T08:44:28.274Z</time></trkpt><trkpt lat="45.3871113" lon="10.5690371"><ele>113.0</ele><time>2026-03-29T08:44:29.274Z</time></trkpt><trkpt lat="45.3870135" lon="10.5691346"><ele>113.0</ele><time>2026-03-29T08:44:30.275Z</time></trkpt><trkpt lat="45.38692" lon="10.5692424"><ele>113.0</ele><time>2026-03-29T08:44:31.274Z</time></trkpt><trkpt lat="45.3868303" lon="10.5693565"><ele>113.0</ele><time>2026-03-29T08:44:32.274Z</time></trkpt><trkpt lat="45.3867515" lon="10.5694886"><ele>113.0</ele><time>2026-03-29T08:44:33.275Z</time></trkpt><trkpt lat="45.3866793" lon="10.5696238"><ele>113.0</ele><time>2026-03-29T08:44:34.275Z</time></trkpt><trkpt lat="45.3866066" lon="10.5697745"><ele>113.0</ele><time>2026-03-29T08:44:35.274Z</time></trkpt><trkpt lat="45.3865445" lon="10.5699125"><ele>113.0</ele><time>2026-03-29T08:44:36.275Z</time></trkpt><trkpt lat="45.3864846" lon="10.5700367"><ele>113.0</ele><time>2026-03-29T08:44:37.275Z</time></trkpt><trkpt lat="45.3864262" lon="10.5701553"><ele>113.0</ele><time>2026-03-29T08:44:38.275Z</time></trkpt><trkpt lat="45.3863737" lon="10.570288"><ele>113.00000000000001</ele><time>2026-03-29T08:44:39.274Z</time></trkpt><trkpt lat="45.3863302" lon="10.5704231"><ele>113.00000000000001</ele><time>2026-03-29T08:44:40.274Z</time></trkpt><trkpt lat="45.3862996" lon="10.5705644"><ele>113.0</ele><time>2026-03-29T08:44:41.274Z</time></trkpt><trkpt lat="45.3862761" lon="10.5707059"><ele>113.0</ele><time>2026-03-29T08:44:42.274Z</time></trkpt><trkpt lat="45.3862547" lon="10.5708451"><ele>112.33333333333333</ele><time>2026-03-29T08:44:43.275Z</time></trkpt><trkpt lat="45.3862387" lon="10.5709695"><ele>111.66666666666666</ele><time>2026-03-29T08:44:44.275Z</time></trkpt><trkpt lat="45.3862215" lon="10.5710844"><ele>111.0</ele><time>2026-03-29T08:44:45.274Z</time></trkpt><trkpt lat="45.3862038" lon="10.5711862"><ele>110.33333333333334</ele><time>2026-03-29T08:44:46.274Z</time></trkpt><trkpt lat="45.3861912" lon="10.571278"><ele>109.66666666666667</ele><time>2026-03-29T08:44:47.275Z</time></trkpt><trkpt lat="45.3861756" lon="10.5714434"><ele>109.0</ele><time>2026-03-29T08:44:49.274Z</time></trkpt><trkpt lat="45.386171" lon="10.5716188"><ele>108.83333333333334</ele><time>2026-03-29T08:44:51.275Z</time></trkpt><trkpt lat="45.3861865" lon="10.5717076"><ele>108.66666666666667</ele><time>2026-03-29T08:44:52.275Z</time></trkpt><trkpt lat="45.3862327" lon="10.5718506"><ele>108.5</ele><time>2026-03-29T08:44:54.275Z</time></trkpt><trkpt lat="45.3863127" lon="10.5719786"><ele>108.33333333333334</ele><time>2026-03-29T08:44:56.274Z</time></trkpt><trkpt lat="45.3863615" lon="10.572041"><ele>108.16666666666667</ele><time>2026-03-29T08:44:57.275Z</time></trkpt><trkpt lat="45.3864166" lon="10.5720939"><ele>108.0</ele><time>2026-03-29T08:44:58.275Z</time></trkpt><trkpt lat="45.3864754" lon="10.572131"><ele>107.16666666666667</ele><time>2026-03-29T08:44:59.275Z</time></trkpt><trkpt lat="45.3865405" lon="10.5721508"><ele>106.33333333333334</ele><time>2026-03-29T08:45:00.275Z</time></trkpt><trkpt lat="45.3866391" lon="10.5722135"><ele>105.5</ele><time>2026-03-29T08:45:02.275Z</time></trkpt><trkpt lat="45.3866677" lon="10.572323"><ele>104.66666666666667</ele><time>2026-03-29T08:45:04.274Z</time></trkpt><trkpt lat="45.3866351" lon="10.5724782"><ele>103.83333333333334</ele><time>2026-03-29T08:45:06.275Z</time></trkpt><trkpt lat="45.3865905" lon="10.5725602"><ele>103.0</ele><time>2026-03-29T08:45:07.274Z</time></trkpt><trkpt lat="45.3865203" lon="10.5726352"><ele>103.00000000000001</ele><time>2026-03-29T08:45:08.275Z</time></trkpt><trkpt lat="45.3864543" lon="10.5727175"><ele>103.0</ele><time>2026-03-29T08:45:09.275Z</time></trkpt><trkpt lat="45.3864034" lon="10.5727964"><ele>103.0</ele><time>2026-03-29T08:45:10.275Z</time></trkpt><trkpt lat="45.3863659" lon="10.5728853"><ele>103.0</ele><time>2026-03-29T08:45:11.275Z</time></trkpt><trkpt lat="45.3863497" lon="10.5729933"><ele>103.00000000000001</ele><time>2026-03-29T08:45:12.275Z</time></trkpt><trkpt lat="45.3863565" lon="10.573121"><ele>103.0</ele><time>2026-03-29T08:45:13.275Z</time></trkpt><trkpt lat="45.3863797" lon="10.5732625"><ele>103.0</ele><time>2026-03-29T08:45:14.275Z</time></trkpt><trkpt lat="45.3864203" lon="10.5734222"><ele>103.0</ele><time>2026-03-29T08:45:15.275Z</time></trkpt><trkpt lat="45.3864561" lon="10.5735935"><ele>103.0</ele><time>2026-03-29T08:45:16.275Z</time></trkpt><trkpt lat="45.3864911" lon="10.5737739"><ele>103.0</ele><time>2026-03-29T08:45:17.275Z</time></trkpt><trkpt lat="45.3865214" lon="10.5739533"><ele>102.80000000000001</ele><time>2026-03-29T08:45:18.275Z</time></trkpt><trkpt lat="45.3865475" lon="10.5741223"><ele>102.6</ele><time>2026-03-29T08:45:19.274Z</time></trkpt><trkpt lat="45.3865697" lon="10.5742751"><ele>102.4</ele><time>2026-03-29T08:45:20.274Z</time></trkpt><trkpt lat="45.3865827" lon="10.5744124"><ele>102.19999999999999</ele><time>2026-03-29T08:45:21.274Z</time></trkpt><trkpt lat="45.3865763" lon="10.5745331"><ele>102.0</ele><time>2026-03-29T08:45:22.275Z</time></trkpt><trkpt lat="45.3865454" lon="10.5746453"><ele>101.8</ele><time>2026-03-29T08:45:23.275Z</time></trkpt><trkpt lat="45.3864934" lon="10.5747511"><ele>101.6</ele><time>2026-03-29T08:45:24.275Z</time></trkpt><trkpt lat="45.3864204" lon="10.57486"><ele>101.39999999999999</ele><time>2026-03-29T08:45:25.274Z</time></trkpt><trkpt lat="45.3863309" lon="10.5749797"><ele>101.19999999999999</ele><time>2026-03-29T08:45:26.275Z</time></trkpt><trkpt lat="45.3862344" lon="10.5751024"><ele>101.0</ele><time>2026-03-29T08:45:27.274Z</time></trkpt><trkpt lat="45.3861399" lon="10.5752253"><ele>102.0</ele><time>2026-03-29T08:45:28.274Z</time></trkpt><trkpt lat="45.3860554" lon="10.5753512"><ele>103.0</ele><time>2026-03-29T08:45:29.274Z</time></trkpt><trkpt lat="45.3859862" lon="10.5755022"><ele>104.0</ele><time>2026-03-29T08:45:30.274Z</time></trkpt><trkpt lat="45.3859201" lon="10.5756807"><ele>105.0</ele><time>2026-03-29T08:45:31.274Z</time></trkpt><trkpt lat="45.3858521" lon="10.5758803"><ele>105.0</ele><time>2026-03-29T08:45:32.274Z</time></trkpt><trkpt lat="45.3857845" lon="10.5760828"><ele>105.0</ele><time>2026-03-29T08:45:33.274Z</time></trkpt><trkpt lat="45.38573" lon="10.5762695"><ele>105.0</ele><time>2026-03-29T08:45:34.274Z</time></trkpt><trkpt lat="45.38568" lon="10.5764551"><ele>105.0</ele><time>2026-03-29T08:45:35.274Z</time></trkpt><trkpt lat="45.3856467" lon="10.5766322"><ele>105.5</ele><time>2026-03-29T08:45:36.275Z</time></trkpt><trkpt lat="45.3856163" lon="10.57683"><ele>106.0</ele><time>2026-03-29T08:45:37.275Z</time></trkpt><trkpt lat="45.3855871" lon="10.5770227"><ele>106.5</ele><time>2026-03-29T08:45:38.275Z</time></trkpt><trkpt lat="45.3855546" lon="10.5772222"><ele>107.0</ele><time>2026-03-29T08:45:39.275Z</time></trkpt><trkpt lat="45.3855209" lon="10.5774291"><ele>106.75</ele><time>2026-03-29T08:45:40.274Z</time></trkpt><trkpt lat="45.3854975" lon="10.5776289"><ele>106.5</ele><time>2026-03-29T08:45:41.275Z</time></trkpt><trkpt lat="45.3854807" lon="10.5778141"><ele>106.25</ele><time>2026-03-29T08:45:42.275Z</time></trkpt><trkpt lat="45.3854696" lon="10.5779864"><ele>106.0</ele><time>2026-03-29T08:45:43.274Z</time></trkpt><trkpt lat="45.3854549" lon="10.5781389"><ele>106.00000000000001</ele><time>2026-03-29T08:45:44.275Z</time></trkpt><trkpt lat="45.3854418" lon="10.5782861"><ele>106.0</ele><time>2026-03-29T08:45:45.275Z</time></trkpt><trkpt lat="45.3854283" lon="10.5784017"><ele>106.0</ele><time>2026-03-29T08:45:46.275Z</time></trkpt><trkpt lat="45.3854171" lon="10.5785003"><ele>106.0</ele><time>2026-03-29T08:45:47.274Z</time></trkpt><trkpt lat="45.3853956" lon="10.5786139"><ele>106.00000000000001</ele><time>2026-03-29T08:45:49.274Z</time></trkpt><trkpt lat="45.3853326" lon="10.5786292"><ele>106.0</ele><time>2026-03-29T08:45:51.275Z</time></trkpt><trkpt lat="45.3851977" lon="10.57859"><ele>106.0</ele><time>2026-03-29T08:45:53.274Z</time></trkpt><trkpt lat="45.3850667" lon="10.5785316"><ele>106.0</ele><time>2026-03-29T08:45:54.275Z</time></trkpt><trkpt lat="45.3849286" lon="10.5784643"><ele>106.0</ele><time>2026-03-29T08:45:55.274Z</time></trkpt><trkpt lat="45.3847987" lon="10.5783941"><ele>106.0</ele><time>2026-03-29T08:45:56.275Z</time></trkpt><trkpt lat="45.3846831" lon="10.5783422"><ele>106.19999999999999</ele><time>2026-03-29T08:45:57.274Z</time></trkpt><trkpt lat="45.3845791" lon="10.5782952"><ele>106.39999999999999</ele><time>2026-03-29T08:45:58.275Z</time></trkpt><trkpt lat="45.3844912" lon="10.5782493"><ele>106.6</ele><time>2026-03-29T08:45:59.274Z</time></trkpt><trkpt lat="45.384412" lon="10.5782113"><ele>106.8</ele><time>2026-03-29T08:46:00.274Z</time></trkpt><trkpt lat="45.3843457" lon="10.5781868"><ele>107.0</ele><time>2026-03-29T08:46:01.275Z</time></trkpt><trkpt lat="45.3842449" lon="10.5782015"><ele>107.0</ele><time>2026-03-29T08:46:03.275Z</time></trkpt><trkpt lat="45.3841391" lon="10.5782538"><ele>106.99999999999999</ele><time>2026-03-29T08:46:05.275Z</time></trkpt><trkpt lat="45.384016" lon="10.5782711"><ele>106.99999999999999</ele><time>2026-03-29T08:46:07.275Z</time></trkpt><trkpt lat="45.3839451" lon="10.578258"><ele>107.0</ele><time>2026-03-29T08:46:08.274Z</time></trkpt><trkpt lat="45.3838721" lon="10.5782439"><ele>107.0</ele><time>2026-03-29T08:46:09.274Z</time></trkpt><trkpt lat="45.3837924" lon="10.5782144"><ele>107.33333333333333</ele><time>2026-03-29T08:46:10.274Z</time></trkpt><trkpt lat="45.3837184" lon="10.5781823"><ele>107.66666666666666</ele><time>2026-03-29T08:46:11.274Z</time></trkpt><trkpt lat="45.3836573" lon="10.5781382"><ele>108.0</ele><time>2026-03-29T08:46:12.274Z</time></trkpt><trkpt lat="45.383595" lon="10.5780925"><ele>108.33333333333334</ele><time>2026-03-29T08:46:13.275Z</time></trkpt><trkpt lat="45.3835297" lon="10.5780198"><ele>108.66666666666667</ele><time>2026-03-29T08:46:14.275Z</time></trkpt><trkpt lat="45.3834548" lon="10.5779249"><ele>109.0</ele><time>2026-03-29T08:46:15.274Z</time></trkpt><trkpt lat="45.3833746" lon="10.5778365"><ele>109.0</ele><time>2026-03-29T08:46:16.274Z</time></trkpt><trkpt lat="45.3832865" lon="10.5777552"><ele>109.0</ele><time>2026-03-29T08:46:17.274Z</time></trkpt><trkpt lat="45.3831837" lon="10.5776801"><ele>109.0</ele><time>2026-03-29T08:46:18.273Z</time></trkpt><trkpt lat="45.3830759" lon="10.5776036"><ele>109.0</ele><time>2026-03-29T08:46:19.274Z</time></trkpt><trkpt lat="45.3829626" lon="10.5775431"><ele>110.5</ele><time>2026-03-29T08:46:20.274Z</time></trkpt><trkpt lat="45.3828358" lon="10.5774907"><ele>112.0</ele><time>2026-03-29T08:46:21.273Z</time></trkpt><trkpt lat="45.3827157" lon="10.5774569"><ele>113.5</ele><time>2026-03-29T08:46:22.274Z</time></trkpt><trkpt lat="45.382606" lon="10.5774411"><ele>115.0</ele><time>2026-03-29T08:46:23.273Z</time></trkpt><trkpt lat="45.3825008" lon="10.5774418"><ele>115.0</ele><time>2026-03-29T08:46:24.274Z</time></trkpt><trkpt lat="45.3824003" lon="10.5774458"><ele>115.0</ele><time>2026-03-29T08:46:25.274Z</time></trkpt><trkpt lat="45.3823047" lon="10.5774448"><ele>115.0</ele><time>2026-03-29T08:46:26.274Z</time></trkpt><trkpt lat="45.3822072" lon="10.5774531"><ele>115.0</ele><time>2026-03-29T08:46:27.273Z</time></trkpt><trkpt lat="45.3821082" lon="10.5774652"><ele>115.0</ele><time>2026-03-29T08:46:28.274Z</time></trkpt><trkpt lat="45.3820182" lon="10.5774743"><ele>115.0</ele><time>2026-03-29T08:46:29.274Z</time></trkpt><trkpt lat="45.3819523" lon="10.5774733"><ele>115.0</ele><time>2026-03-29T08:46:30.273Z</time></trkpt><trkpt lat="45.3818521" lon="10.5774891"><ele>115.0</ele><time>2026-03-29T08:46:33.274Z</time></trkpt><trkpt lat="45.3817112" lon="10.5775008"><ele>115.0</ele><time>2026-03-29T08:46:35.274Z</time></trkpt><trkpt lat="45.3816097" lon="10.5775042"><ele>115.0</ele><time>2026-03-29T08:46:36.273Z</time></trkpt><trkpt lat="45.3815015" lon="10.5775036"><ele>115.0</ele><time>2026-03-29T08:46:37.274Z</time></trkpt><trkpt lat="45.3813897" lon="10.5774962"><ele>115.0</ele><time>2026-03-29T08:46:38.273Z</time></trkpt><trkpt lat="45.3812743" lon="10.5774844"><ele>115.0</ele><time>2026-03-29T08:46:39.274Z</time></trkpt><trkpt lat="45.3811608" lon="10.5774696"><ele>115.0</ele><time>2026-03-29T08:46:40.274Z</time></trkpt><trkpt lat="45.3810482" lon="10.5774549"><ele>113.4</ele><time>2026-03-29T08:46:41.274Z</time></trkpt><trkpt lat="45.3809374" lon="10.5774286"><ele>111.8</ele><time>2026-03-29T08:46:42.273Z</time></trkpt><trkpt lat="45.3808327" lon="10.5773992"><ele>110.19999999999999</ele><time>2026-03-29T08:46:43.273Z</time></trkpt><trkpt lat="45.3807435" lon="10.5773535"><ele>108.6</ele><time>2026-03-29T08:46:44.274Z</time></trkpt><trkpt lat="45.3806704" lon="10.5772983"><ele>107.0</ele><time>2026-03-29T08:46:45.274Z</time></trkpt><trkpt lat="45.3806254" lon="10.5772242"><ele>106.99999999999999</ele><time>2026-03-29T08:46:46.273Z</time></trkpt><trkpt lat="45.3806356" lon="10.5770624"><ele>107.0</ele><time>2026-03-29T08:46:48.273Z</time></trkpt><trkpt lat="45.3806422" lon="10.5769502"><ele>107.0</ele><time>2026-03-29T08:46:49.273Z</time></trkpt><trkpt lat="45.380643" lon="10.5768401"><ele>107.0</ele><time>2026-03-29T08:46:50.274Z</time></trkpt><trkpt lat="45.380621" lon="10.576734"><ele>106.99999999999999</ele><time>2026-03-29T08:46:51.274Z</time></trkpt><trkpt lat="45.3805795" lon="10.576652"><ele>107.0</ele><time>2026-03-29T08:46:52.273Z</time></trkpt><trkpt lat="45.3805087" lon="10.5765823"><ele>106.19999999999999</ele><time>2026-03-29T08:46:53.274Z</time></trkpt><trkpt lat="45.3804229" lon="10.5765237"><ele>105.39999999999999</ele><time>2026-03-29T08:46:54.273Z</time></trkpt><trkpt lat="45.380317" lon="10.576475"><ele>104.6</ele><time>2026-03-29T08:46:55.274Z</time></trkpt><trkpt lat="45.3802076" lon="10.5764402"><ele>103.80000000000001</ele><time>2026-03-29T08:46:56.273Z</time></trkpt><trkpt lat="45.3801019" lon="10.5764273"><ele>103.0</ele><time>2026-03-29T08:46:57.274Z</time></trkpt><trkpt lat="45.3799932" lon="10.5764072"><ele>103.0</ele><time>2026-03-29T08:46:58.273Z</time></trkpt><trkpt lat="45.3798845" lon="10.5763713"><ele>103.0</ele><time>2026-03-29T08:46:59.274Z</time></trkpt><trkpt lat="45.3797937" lon="10.5763147"><ele>103.0</ele><time>2026-03-29T08:47:00.273Z</time></trkpt><trkpt lat="45.379704" lon="10.5762509"><ele>103.0</ele><time>2026-03-29T08:47:01.274Z</time></trkpt><trkpt lat="45.3796137" lon="10.5762169"><ele>103.0</ele><time>2026-03-29T08:47:02.274Z</time></trkpt><trkpt lat="45.3795151" lon="10.5762195"><ele>103.2</ele><time>2026-03-29T08:47:03.274Z</time></trkpt><trkpt lat="45.3794132" lon="10.5762412"><ele>103.4</ele><time>2026-03-29T08:47:04.274Z</time></trkpt><trkpt lat="45.3793058" lon="10.5762689"><ele>103.60000000000001</ele><time>2026-03-29T08:47:05.274Z</time></trkpt><trkpt lat="45.379191" lon="10.5762895"><ele>103.80000000000001</ele><time>2026-03-29T08:47:06.273Z</time></trkpt><trkpt lat="45.3790734" lon="10.576304"><ele>104.0</ele><time>2026-03-29T08:47:07.274Z</time></trkpt><trkpt lat="45.3789694" lon="10.576305"><ele>104.0</ele><time>2026-03-29T08:47:08.273Z</time></trkpt><trkpt lat="45.3788765" lon="10.5762849"><ele>104.0</ele><time>2026-03-29T08:47:09.273Z</time></trkpt><trkpt lat="45.3788088" lon="10.5762407"><ele>104.0</ele><time>2026-03-29T08:47:10.274Z</time></trkpt><trkpt lat="45.3787521" lon="10.5760669"><ele>104.0</ele><time>2026-03-29T08:47:12.274Z</time></trkpt><trkpt lat="45.3787494" lon="10.5759397"><ele>104.0</ele><time>2026-03-29T08:47:13.274Z</time></trkpt><trkpt lat="45.3787549" lon="10.5757899"><ele>104.33333333333333</ele><time>2026-03-29T08:47:14.274Z</time></trkpt><trkpt lat="45.3787443" lon="10.575659"><ele>104.66666666666666</ele><time>2026-03-29T08:47:15.274Z</time></trkpt><trkpt lat="45.3787227" lon="10.5755622"><ele>105.0</ele><time>2026-03-29T08:47:16.274Z</time></trkpt><trkpt lat="45.3786854" lon="10.5754882"><ele>105.33333333333334</ele><time>2026-03-29T08:47:17.273Z</time></trkpt><trkpt lat="45.3786136" lon="10.5754764"><ele>105.66666666666667</ele><time>2026-03-29T08:47:18.273Z</time></trkpt><trkpt lat="45.3785253" lon="10.5754914"><ele>106.0</ele><time>2026-03-29T08:47:19.274Z</time></trkpt><trkpt lat="45.3784242" lon="10.5755178"><ele>106.0</ele><time>2026-03-29T08:47:20.273Z</time></trkpt><trkpt lat="45.3783175" lon="10.5755529"><ele>106.0</ele><time>2026-03-29T08:47:21.274Z</time></trkpt><trkpt lat="45.3782026" lon="10.5755724"><ele>106.0</ele><time>2026-03-29T08:47:22.273Z</time></trkpt><trkpt lat="45.3780741" lon="10.5755873"><ele>106.0</ele><time>2026-03-29T08:47:23.273Z</time></trkpt><trkpt lat="45.3779328" lon="10.5755963"><ele>105.75</ele><time>2026-03-29T08:47:24.274Z</time></trkpt><trkpt lat="45.3777946" lon="10.5756074"><ele>105.5</ele><time>2026-03-29T08:47:25.273Z</time></trkpt><trkpt lat="45.3776519" lon="10.5756165"><ele>105.25</ele><time>2026-03-29T08:47:26.273Z</time></trkpt><trkpt lat="45.3775184" lon="10.5756262"><ele>105.0</ele><time>2026-03-29T08:47:27.274Z</time></trkpt><trkpt lat="45.3773914" lon="10.5756409"><ele>105.0</ele><time>2026-03-29T08:47:28.274Z</time></trkpt><trkpt lat="45.3772659" lon="10.5756584"><ele>105.0</ele><time>2026-03-29T08:47:29.273Z</time></trkpt><trkpt lat="45.3771396" lon="10.5756766"><ele>105.0</ele><time>2026-03-29T08:47:30.274Z</time></trkpt><trkpt lat="45.3770035" lon="10.5756766"><ele>105.0</ele><time>2026-03-29T08:47:31.274Z</time></trkpt><trkpt lat="45.3768682" lon="10.5756659"><ele>106.25</ele><time>2026-03-29T08:47:32.274Z</time></trkpt><trkpt lat="45.3767381" lon="10.5756317"><ele>107.5</ele><time>2026-03-29T08:47:33.274Z</time></trkpt><trkpt lat="45.3766176" lon="10.5755836"><ele>108.75</ele><time>2026-03-29T08:47:34.273Z</time></trkpt><trkpt lat="45.3764954" lon="10.5755185"><ele>110.0</ele><time>2026-03-29T08:47:35.273Z</time></trkpt><trkpt lat="45.3763748" lon="10.5754449"><ele>110.25</ele><time>2026-03-29T08:47:36.273Z</time></trkpt><trkpt lat="45.376248" lon="10.5753634"><ele>110.5</ele><time>2026-03-29T08:47:37.274Z</time></trkpt><trkpt lat="45.3761161" lon="10.5752903"><ele>110.75</ele><time>2026-03-29T08:47:38.273Z</time></trkpt><trkpt lat="45.3759819" lon="10.5752232"><ele>111.0</ele><time>2026-03-29T08:47:39.273Z</time></trkpt><trkpt lat="45.375851" lon="10.575159"><ele>111.0</ele><time>2026-03-29T08:47:40.274Z</time></trkpt><trkpt lat="45.375725" lon="10.5750923"><ele>111.0</ele><time>2026-03-29T08:47:41.274Z</time></trkpt><trkpt lat="45.375608" lon="10.5750264"><ele>111.0</ele><time>2026-03-29T08:47:42.274Z</time></trkpt><trkpt lat="45.3755046" lon="10.5749687"><ele>111.0</ele><time>2026-03-29T08:47:43.273Z</time></trkpt><trkpt lat="45.3754264" lon="10.5749225"><ele>111.19999999999999</ele><time>2026-03-29T08:47:44.274Z</time></trkpt><trkpt lat="45.3753299" lon="10.5748623"><ele>111.39999999999999</ele><time>2026-03-29T08:47:46.273Z</time></trkpt><trkpt lat="45.3752596" lon="10.574887"><ele>111.6</ele><time>2026-03-29T08:47:49.274Z</time></trkpt><trkpt lat="45.3752354" lon="10.5750486"><ele>111.8</ele><time>2026-03-29T08:47:51.273Z</time></trkpt><trkpt lat="45.3752248" lon="10.5751853"><ele>112.0</ele><time>2026-03-29T08:47:52.274Z</time></trkpt><trkpt lat="45.3752171" lon="10.5753647"><ele>112.0</ele><time>2026-03-29T08:47:53.274Z</time></trkpt><trkpt lat="45.3752092" lon="10.5755695"><ele>112.0</ele><time>2026-03-29T08:47:54.274Z</time></trkpt><trkpt lat="45.3751978" lon="10.5757897"><ele>112.0</ele><time>2026-03-29T08:47:55.274Z</time></trkpt><trkpt lat="45.3751805" lon="10.5760117"><ele>111.33333333333334</ele><time>2026-03-29T08:47:56.273Z</time></trkpt><trkpt lat="45.3751618" lon="10.576236"><ele>110.66666666666666</ele><time>2026-03-29T08:47:57.274Z</time></trkpt><trkpt lat="45.3751451" lon="10.576452"><ele>110.0</ele><time>2026-03-29T08:47:58.273Z</time></trkpt><trkpt lat="45.3751311" lon="10.5766547"><ele>110.0</ele><time>2026-03-29T08:47:59.274Z</time></trkpt><trkpt lat="45.3751151" lon="10.5768521"><ele>110.0</ele><time>2026-03-29T08:48:00.274Z</time></trkpt><trkpt lat="45.3750989" lon="10.5770463"><ele>110.0</ele><time>2026-03-29T08:48:01.274Z</time></trkpt><trkpt lat="45.3750835" lon="10.5772365"><ele>110.0</ele><time>2026-03-29T08:48:02.273Z</time></trkpt><trkpt lat="45.3750657" lon="10.5774295"><ele>110.0</ele><time>2026-03-29T08:48:03.273Z</time></trkpt><trkpt lat="45.3750503" lon="10.577621"><ele>110.0</ele><time>2026-03-29T08:48:04.274Z</time></trkpt><trkpt lat="45.3750352" lon="10.5778046"><ele>110.0</ele><time>2026-03-29T08:48:05.273Z</time></trkpt><trkpt lat="45.3750226" lon="10.5779848"><ele>110.0</ele><time>2026-03-29T08:48:06.274Z</time></trkpt><trkpt lat="45.3750054" lon="10.5781633"><ele>110.0</ele><time>2026-03-29T08:48:07.274Z</time></trkpt><trkpt lat="45.374991" lon="10.5783147"><ele>110.0</ele><time>2026-03-29T08:48:08.274Z</time></trkpt><trkpt lat="45.3749788" lon="10.5784432"><ele>110.0</ele><time>2026-03-29T08:48:09.273Z</time></trkpt><trkpt lat="45.3749696" lon="10.5785479"><ele>110.0</ele><time>2026-03-29T08:48:10.274Z</time></trkpt><trkpt lat="45.3749429" lon="10.5786926"><ele>110.0</ele><time>2026-03-29T08:48:12.274Z</time></trkpt><trkpt lat="45.3748514" lon="10.5787595"><ele>110.0</ele><time>2026-03-29T08:48:15.274Z</time></trkpt><trkpt lat="45.3747176" lon="10.578753"><ele>110.0</ele><time>2026-03-29T08:48:17.274Z</time></trkpt><trkpt lat="45.3746256" lon="10.578744"><ele>110.0</ele><time>2026-03-29T08:48:18.274Z</time></trkpt><trkpt lat="45.3745092" lon="10.5787377"><ele>110.0</ele><time>2026-03-29T08:48:19.273Z</time></trkpt><trkpt lat="45.3743808" lon="10.5787423"><ele>111.25</ele><time>2026-03-29T08:48:20.273Z</time></trkpt><trkpt lat="45.3742498" lon="10.5787466"><ele>112.5</ele><time>2026-03-29T08:48:21.273Z</time></trkpt><trkpt lat="45.3741156" lon="10.5787552"><ele>113.75</ele><time>2026-03-29T08:48:22.273Z</time></trkpt><trkpt lat="45.3739854" lon="10.578765"><ele>115.0</ele><time>2026-03-29T08:48:23.274Z</time></trkpt><trkpt lat="45.3738577" lon="10.5787768"><ele>115.2</ele><time>2026-03-29T08:48:24.273Z</time></trkpt><trkpt lat="45.3737349" lon="10.5787883"><ele>115.4</ele><time>2026-03-29T08:48:25.274Z</time></trkpt><trkpt lat="45.3736173" lon="10.578797"><ele>115.6</ele><time>2026-03-29T08:48:26.273Z</time></trkpt><trkpt lat="45.3735082" lon="10.5788041"><ele>115.8</ele><time>2026-03-29T08:48:27.273Z</time></trkpt><trkpt lat="45.3734093" lon="10.5788061"><ele>116.0</ele><time>2026-03-29T08:48:28.274Z</time></trkpt><trkpt lat="45.3733217" lon="10.5788072"><ele>115.99999999999999</ele><time>2026-03-29T08:48:29.273Z</time></trkpt><trkpt lat="45.3732536" lon="10.578812"><ele>116.0</ele><time>2026-03-29T08:48:30.274Z</time></trkpt><trkpt lat="45.3731553" lon="10.5788164"><ele>116.0</ele><time>2026-03-29T08:48:32.273Z</time></trkpt><trkpt lat="45.3730593" lon="10.5788283"><ele>116.0</ele><time>2026-03-29T08:48:35.273Z</time></trkpt><trkpt lat="45.3729412" lon="10.578839"><ele>115.99999999999999</ele><time>2026-03-29T08:48:37.273Z</time></trkpt><trkpt lat="45.3728749" lon="10.5788578"><ele>116.0</ele><time>2026-03-29T08:48:38.274Z</time></trkpt><trkpt lat="45.3727667" lon="10.5789059"><ele>115.66666666666666</ele><time>2026-03-29T08:48:40.274Z</time></trkpt><trkpt lat="45.3727077" lon="10.5789583"><ele>115.33333333333333</ele><time>2026-03-29T08:48:42.273Z</time></trkpt><trkpt lat="45.372655" lon="10.5790525"><ele>115.0</ele><time>2026-03-29T08:48:44.273Z</time></trkpt><trkpt lat="45.3726303" lon="10.5791391"><ele>114.66666666666666</ele><time>2026-03-29T08:48:45.274Z</time></trkpt><trkpt lat="45.3726133" lon="10.5792465"><ele>114.33333333333333</ele><time>2026-03-29T08:48:46.274Z</time></trkpt><trkpt lat="45.3725879" lon="10.5793645"><ele>114.0</ele><time>2026-03-29T08:48:47.273Z</time></trkpt><trkpt lat="45.3725585" lon="10.579477"><ele>113.83333333333333</ele><time>2026-03-29T08:48:48.274Z</time></trkpt><trkpt lat="45.3725348" lon="10.5795825"><ele>113.66666666666666</ele><time>2026-03-29T08:48:49.273Z</time></trkpt><trkpt lat="45.3725172" lon="10.5796806"><ele>113.5</ele><time>2026-03-29T08:48:50.273Z</time></trkpt><trkpt lat="45.3725123" lon="10.5798194"><ele>113.33333333333333</ele><time>2026-03-29T08:48:52.273Z</time></trkpt><trkpt lat="45.3725529" lon="10.5799138"><ele>113.16666666666666</ele><time>2026-03-29T08:49:07.274Z</time></trkpt><trkpt lat="45.3726075" lon="10.5799807"><ele>113.0</ele><time>2026-03-29T08:49:08.274Z</time></trkpt><trkpt lat="45.372685" lon="10.5800448"><ele>113.0</ele><time>2026-03-29T08:49:09.274Z</time></trkpt><trkpt lat="45.3727825" lon="10.580096"><ele>113.0</ele><time>2026-03-29T08:49:10.273Z</time></trkpt><trkpt lat="45.3728946" lon="10.5801474"><ele>113.0</ele><time>2026-03-29T08:49:11.274Z</time></trkpt><trkpt lat="45.3730092" lon="10.5801959"><ele>113.0</ele><time>2026-03-29T08:49:12.274Z</time></trkpt><trkpt lat="45.3731191" lon="10.5802594"><ele>113.0</ele><time>2026-03-29T08:49:13.274Z</time></trkpt><trkpt lat="45.373237" lon="10.5803379"><ele>113.0</ele><time>2026-03-29T08:49:14.274Z</time></trkpt><trkpt lat="45.373358" lon="10.5804343"><ele>113.0</ele><time>2026-03-29T08:49:15.273Z</time></trkpt><trkpt lat="45.3734795" lon="10.5805381"><ele>113.0</ele><time>2026-03-29T08:49:16.273Z</time></trkpt><trkpt lat="45.3736006" lon="10.5806468"><ele>112.75</ele><time>2026-03-29T08:49:17.274Z</time></trkpt><trkpt lat="45.373721" lon="10.580766"><ele>112.5</ele><time>2026-03-29T08:49:18.274Z</time></trkpt><trkpt lat="45.3738336" lon="10.5808926"><ele>112.25</ele><time>2026-03-29T08:49:19.274Z</time></trkpt><trkpt lat="45.3739422" lon="10.5810187"><ele>112.0</ele><time>2026-03-29T08:49:20.273Z</time></trkpt><trkpt lat="45.3740451" lon="10.5811471"><ele>112.25</ele><time>2026-03-29T08:49:21.274Z</time></trkpt><trkpt lat="45.3741516" lon="10.5812875"><ele>112.5</ele><time>2026-03-29T08:49:22.273Z</time></trkpt><trkpt lat="45.3742617" lon="10.5814356"><ele>112.75</ele><time>2026-03-29T08:49:23.273Z</time></trkpt><trkpt lat="45.3743719" lon="10.5815808"><ele>113.0</ele><time>2026-03-29T08:49:24.273Z</time></trkpt><trkpt lat="45.3744813" lon="10.5817252"><ele>113.0</ele><time>2026-03-29T08:49:25.274Z</time></trkpt><trkpt lat="45.3745916" lon="10.5818753"><ele>113.0</ele><time>2026-03-29T08:49:26.274Z</time></trkpt><trkpt lat="45.3747006" lon="10.5820293"><ele>113.0</ele><time>2026-03-29T08:49:27.274Z</time></trkpt><trkpt lat="45.3748162" lon="10.58217"><ele>112.33333333333333</ele><time>2026-03-29T08:49:28.274Z</time></trkpt><trkpt lat="45.3749315" lon="10.5823142"><ele>111.66666666666666</ele><time>2026-03-29T08:49:29.273Z</time></trkpt><trkpt lat="45.3750519" lon="10.582461"><ele>111.0</ele><time>2026-03-29T08:49:30.273Z</time></trkpt><trkpt lat="45.3751738" lon="10.5826241"><ele>111.0</ele><time>2026-03-29T08:49:31.273Z</time></trkpt><trkpt lat="45.3752963" lon="10.5827891"><ele>111.0</ele><time>2026-03-29T08:49:32.273Z</time></trkpt><trkpt lat="45.3754152" lon="10.582954"><ele>111.0</ele><time>2026-03-29T08:49:33.273Z</time></trkpt><trkpt lat="45.375539" lon="10.5831111"><ele>111.0</ele><time>2026-03-29T08:49:34.273Z</time></trkpt><trkpt lat="45.3756742" lon="10.5832508"><ele>111.0</ele><time>2026-03-29T08:49:35.274Z</time></trkpt><trkpt lat="45.3758137" lon="10.5833894"><ele>111.0</ele><time>2026-03-29T08:49:36.273Z</time></trkpt><trkpt lat="45.3759492" lon="10.5835335"><ele>111.0</ele><time>2026-03-29T08:49:37.273Z</time></trkpt><trkpt lat="45.3760857" lon="10.5836659"><ele>111.0</ele><time>2026-03-29T08:49:38.273Z</time></trkpt><trkpt lat="45.3762174" lon="10.5838012"><ele>111.0</ele><time>2026-03-29T08:49:39.274Z</time></trkpt><trkpt lat="45.3763509" lon="10.5839337"><ele>111.0</ele><time>2026-03-29T08:49:40.273Z</time></trkpt><trkpt lat="45.3764789" lon="10.5840607"><ele>111.0</ele><time>2026-03-29T08:49:41.274Z</time></trkpt><trkpt lat="45.3766056" lon="10.5841945"><ele>111.0</ele><time>2026-03-29T08:49:42.273Z</time></trkpt><trkpt lat="45.376736" lon="10.5843381"><ele>111.0</ele><time>2026-03-29T08:49:43.273Z</time></trkpt><trkpt lat="45.3768651" lon="10.5844854"><ele>111.0</ele><time>2026-03-29T08:49:44.274Z</time></trkpt><trkpt lat="45.3769925" lon="10.5846447"><ele>111.0</ele><time>2026-03-29T08:49:45.273Z</time></trkpt><trkpt lat="45.3771138" lon="10.5848115"><ele>111.33333333333334</ele><time>2026-03-29T08:49:46.274Z</time></trkpt><trkpt lat="45.3772258" lon="10.5849828"><ele>111.66666666666667</ele><time>2026-03-29T08:49:47.273Z</time></trkpt><trkpt lat="45.3773378" lon="10.585171"><ele>112.0</ele><time>2026-03-29T08:49:48.274Z</time></trkpt><trkpt lat="45.3774525" lon="10.5853548"><ele>112.33333333333334</ele><time>2026-03-29T08:49:49.274Z</time></trkpt><trkpt lat="45.3775634" lon="10.5855451"><ele>112.66666666666666</ele><time>2026-03-29T08:49:50.274Z</time></trkpt><trkpt lat="45.3776759" lon="10.5857453"><ele>113.0</ele><time>2026-03-29T08:49:51.273Z</time></trkpt><trkpt lat="45.3777927" lon="10.5859324"><ele>113.0</ele><time>2026-03-29T08:49:52.274Z</time></trkpt><trkpt lat="45.3779092" lon="10.5861148"><ele>113.0</ele><time>2026-03-29T08:49:53.274Z</time></trkpt><trkpt lat="45.3780233" lon="10.5862991"><ele>113.0</ele><time>2026-03-29T08:49:54.274Z</time></trkpt><trkpt lat="45.3781244" lon="10.5864801"><ele>114.33333333333333</ele><time>2026-03-29T08:49:55.274Z</time></trkpt><trkpt lat="45.3782245" lon="10.5866678"><ele>115.66666666666666</ele><time>2026-03-29T08:49:56.273Z</time></trkpt><trkpt lat="45.3783172" lon="10.586858"><ele>117.0</ele><time>2026-03-29T08:49:57.274Z</time></trkpt><trkpt lat="45.3783939" lon="10.5870599"><ele>118.0</ele><time>2026-03-29T08:49:58.273Z</time></trkpt><trkpt lat="45.3784674" lon="10.5872737"><ele>119.0</ele><time>2026-03-29T08:49:59.273Z</time></trkpt><trkpt lat="45.3785386" lon="10.5874897"><ele>120.0</ele><time>2026-03-29T08:50:00.274Z</time></trkpt><trkpt lat="45.3786068" lon="10.5877018"><ele>120.66666666666666</ele><time>2026-03-29T08:50:01.274Z</time></trkpt><trkpt lat="45.3786724" lon="10.5879138"><ele>121.33333333333333</ele><time>2026-03-29T08:50:02.274Z</time></trkpt><trkpt lat="45.3787315" lon="10.5881329"><ele>122.0</ele><time>2026-03-29T08:50:03.274Z</time></trkpt><trkpt lat="45.3787749" lon="10.5883546"><ele>122.0</ele><time>2026-03-29T08:50:04.274Z</time></trkpt><trkpt lat="45.3787984" lon="10.5885687"><ele>122.0</ele><time>2026-03-29T08:50:05.273Z</time></trkpt><trkpt lat="45.3788132" lon="10.5887893"><ele>122.0</ele><time>2026-03-29T08:50:06.273Z</time></trkpt><trkpt lat="45.3787929" lon="10.5890023"><ele>123.0</ele><time>2026-03-29T08:50:07.274Z</time></trkpt><trkpt lat="45.3787687" lon="10.5892366"><ele>124.0</ele><time>2026-03-29T08:50:08.273Z</time></trkpt><trkpt lat="45.3787362" lon="10.5894803"><ele>125.0</ele><time>2026-03-29T08:50:09.274Z</time></trkpt><trkpt lat="45.3787078" lon="10.5897253"><ele>126.0</ele><time>2026-03-29T08:50:10.273Z</time></trkpt><trkpt lat="45.3786774" lon="10.5899705"><ele>127.0</ele><time>2026-03-29T08:50:11.273Z</time></trkpt><trkpt lat="45.3786503" lon="10.5902003"><ele>128.0</ele><time>2026-03-29T08:50:12.274Z</time></trkpt><trkpt lat="45.3786435" lon="10.5904222"><ele>129.0</ele><time>2026-03-29T08:50:13.274Z</time></trkpt><trkpt lat="45.37866" lon="10.5906536"><ele>130.0</ele><time>2026-03-29T08:50:14.274Z</time></trkpt><trkpt lat="45.3786888" lon="10.5908795"><ele>131.0</ele><time>2026-03-29T08:50:15.273Z</time></trkpt><trkpt lat="45.378735" lon="10.5910984"><ele>132.0</ele><time>2026-03-29T08:50:16.274Z</time></trkpt><trkpt lat="45.3787986" lon="10.591306"><ele>133.0</ele><time>2026-03-29T08:50:17.274Z</time></trkpt><trkpt lat="45.3788784" lon="10.5915142"><ele>134.0</ele><time>2026-03-29T08:50:18.274Z</time></trkpt><trkpt lat="45.378969" lon="10.5917101"><ele>134.66666666666666</ele><time>2026-03-29T08:50:19.274Z</time></trkpt><trkpt lat="45.3790599" lon="10.5919097"><ele>135.33333333333334</ele><time>2026-03-29T08:50:20.273Z</time></trkpt><trkpt lat="45.3791472" lon="10.5921184"><ele>136.0</ele><time>2026-03-29T08:50:21.273Z</time></trkpt><trkpt lat="45.3792398" lon="10.5923182"><ele>136.33333333333334</ele><time>2026-03-29T08:50:22.273Z</time></trkpt><trkpt lat="45.3793116" lon="10.5925211"><ele>136.66666666666666</ele><time>2026-03-29T08:50:23.274Z</time></trkpt><trkpt lat="45.3793784" lon="10.5927449"><ele>137.0</ele><time>2026-03-29T08:50:24.273Z</time></trkpt><trkpt lat="45.3794352" lon="10.592972"><ele>137.33333333333331</ele><time>2026-03-29T08:50:25.273Z</time></trkpt><trkpt lat="45.3794743" lon="10.5932146"><ele>137.66666666666666</ele><time>2026-03-29T08:50:26.274Z</time></trkpt><trkpt lat="45.3795037" lon="10.5934563"><ele>138.0</ele><time>2026-03-29T08:50:27.273Z</time></trkpt><trkpt lat="45.3795136" lon="10.5936906"><ele>138.0</ele><time>2026-03-29T08:50:28.274Z</time></trkpt><trkpt lat="45.3795088" lon="10.5939293"><ele>138.0</ele><time>2026-03-29T08:50:29.274Z</time></trkpt><trkpt lat="45.3795097" lon="10.5941871"><ele>138.0</ele><time>2026-03-29T08:50:30.274Z</time></trkpt><trkpt lat="45.3795129" lon="10.5944509"><ele>138.0</ele><time>2026-03-29T08:50:31.274Z</time></trkpt><trkpt lat="45.3795082" lon="10.5947035"><ele>138.0</ele><time>2026-03-29T08:50:32.274Z</time></trkpt><trkpt lat="45.3795105" lon="10.5949563"><ele>138.0</ele><time>2026-03-29T08:50:33.274Z</time></trkpt><trkpt lat="45.3795334" lon="10.5952128"><ele>138.66666666666666</ele><time>2026-03-29T08:50:34.273Z</time></trkpt><trkpt lat="45.3795704" lon="10.595448"><ele>139.33333333333331</ele><time>2026-03-29T08:50:35.274Z</time></trkpt><trkpt lat="45.3796195" lon="10.5956701"><ele>140.0</ele><time>2026-03-29T08:50:36.274Z</time></trkpt><trkpt lat="45.3796764" lon="10.595901"><ele>138.66666666666666</ele><time>2026-03-29T08:50:37.274Z</time></trkpt><trkpt lat="45.379739" lon="10.5961394"><ele>137.33333333333334</ele><time>2026-03-29T08:50:38.273Z</time></trkpt><trkpt lat="45.3798065" lon="10.5963877"><ele>136.0</ele><time>2026-03-29T08:50:39.273Z</time></trkpt><trkpt lat="45.379876" lon="10.5966432"><ele>136.0</ele><time>2026-03-29T08:50:40.273Z</time></trkpt><trkpt lat="45.37994" lon="10.5969009"><ele>136.0</ele><time>2026-03-29T08:50:41.273Z</time></trkpt><trkpt lat="45.3800014" lon="10.5971595"><ele>136.0</ele><time>2026-03-29T08:50:42.274Z</time></trkpt><trkpt lat="45.3800644" lon="10.5974132"><ele>136.0</ele><time>2026-03-29T08:50:43.273Z</time></trkpt><trkpt lat="45.3801339" lon="10.5976594"><ele>136.0</ele><time>2026-03-29T08:50:44.273Z</time></trkpt><trkpt lat="45.3801998" lon="10.597895"><ele>136.0</ele><time>2026-03-29T08:50:45.273Z</time></trkpt><trkpt lat="45.3802608" lon="10.5981164"><ele>136.25</ele><time>2026-03-29T08:50:46.274Z</time></trkpt><trkpt lat="45.3803119" lon="10.5983182"><ele>136.5</ele><time>2026-03-29T08:50:47.274Z</time></trkpt><trkpt lat="45.380345" lon="10.5984914"><ele>136.75</ele><time>2026-03-29T08:50:48.274Z</time></trkpt><trkpt lat="45.3803569" lon="10.5986568"><ele>137.0</ele><time>2026-03-29T08:50:49.273Z</time></trkpt><trkpt lat="45.3803637" lon="10.5988271"><ele>137.0</ele><time>2026-03-29T08:50:50.274Z</time></trkpt><trkpt lat="45.380371" lon="10.59901"><ele>137.0</ele><time>2026-03-29T08:50:51.274Z</time></trkpt><trkpt lat="45.3803699" lon="10.5992055"><ele>137.0</ele><time>2026-03-29T08:50:52.274Z</time></trkpt><trkpt lat="45.380377" lon="10.5994016"><ele>137.0</ele><time>2026-03-29T08:50:53.274Z</time></trkpt><trkpt lat="45.3803916" lon="10.5997866"><ele>136.79999999999998</ele><time>2026-03-29T08:50:55.274Z</time></trkpt><trkpt lat="45.3803964" lon="10.5999525"><ele>136.6</ele><time>2026-03-29T08:50:56.273Z</time></trkpt><trkpt lat="45.3804062" lon="10.6001161"><ele>136.39999999999998</ele><time>2026-03-29T08:50:57.273Z</time></trkpt><trkpt lat="45.3804158" lon="10.6002503"><ele>136.2</ele><time>2026-03-29T08:50:58.273Z</time></trkpt><trkpt lat="45.3804242" lon="10.6003473"><ele>136.0</ele><time>2026-03-29T08:50:59.273Z</time></trkpt><trkpt lat="45.3804536" lon="10.6004308"><ele>133.0</ele><time>2026-03-29T08:51:02.274Z</time></trkpt><trkpt lat="45.3805138" lon="10.6003873"><ele>133.0</ele><time>2026-03-29T08:51:05.274Z</time></trkpt><trkpt lat="45.3805868" lon="10.600365"><ele>133.0</ele><time>2026-03-29T08:51:08.274Z</time></trkpt><trkpt lat="45.3806195" lon="10.6002832"><ele>133.0</ele><time>2026-03-29T08:51:13.273Z</time></trkpt></trkseg><trkseg><trkpt lat="45.3806" lon="10.60036"><ele>133.0</ele><time>2026-03-29T09:45:32.293Z</time></trkpt><trkpt lat="45.3805017" lon="10.6003517"><ele>133.0</ele><time>2026-03-29T09:45:52.293Z</time></trkpt><trkpt lat="45.3804367" lon="10.60045"><ele>133.0</ele><time>2026-03-29T09:46:05.293Z</time></trkpt><trkpt lat="45.38038" lon="10.6005533"><ele>133.0</ele><time>2026-03-29T09:46:07.293Z</time></trkpt><trkpt lat="45.38032" lon="10.6006"><ele>133.0</ele><time>2026-03-29T09:46:08.293Z</time></trkpt><trkpt lat="45.3802383" lon="10.6006333"><ele>133.0</ele><time>2026-03-29T09:46:09.293Z</time></trkpt><trkpt lat="45.3801433" lon="10.600665"><ele>133.0</ele><time>2026-03-29T09:46:10.292Z</time></trkpt><trkpt lat="45.3800167" lon="10.6006883"><ele>133.0</ele><time>2026-03-29T09:46:11.293Z</time></trkpt><trkpt lat="45.3798667" lon="10.6007083"><ele>133.0</ele><time>2026-03-29T09:46:12.293Z</time></trkpt><trkpt lat="45.3797083" lon="10.6007267"><ele>133.0</ele><time>2026-03-29T09:46:13.293Z</time></trkpt><trkpt lat="45.3795567" lon="10.6007567"><ele>133.5</ele><time>2026-03-29T09:46:14.292Z</time></trkpt><trkpt lat="45.3794083" lon="10.6007883"><ele>134.0</ele><time>2026-03-29T09:46:15.293Z</time></trkpt><trkpt lat="45.3792633" lon="10.600825"><ele>134.5</ele><time>2026-03-29T09:46:16.292Z</time></trkpt><trkpt lat="45.37912" lon="10.6008417"><ele>135.0</ele><time>2026-03-29T09:46:17.293Z</time></trkpt><trkpt lat="45.3789783" lon="10.600855"><ele>133.75</ele><time>2026-03-29T09:46:18.293Z</time></trkpt><trkpt lat="45.3788383" lon="10.600835"><ele>132.5</ele><time>2026-03-29T09:46:19.292Z</time></trkpt><trkpt lat="45.3786933" lon="10.600815"><ele>131.25</ele><time>2026-03-29T09:46:20.292Z</time></trkpt><trkpt lat="45.3785417" lon="10.6007767"><ele>130.0</ele><time>2026-03-29T09:46:21.293Z</time></trkpt><trkpt lat="45.3783867" lon="10.6007333"><ele>130.0</ele><time>2026-03-29T09:46:22.293Z</time></trkpt><trkpt lat="45.3782383" lon="10.6006783"><ele>130.0</ele><time>2026-03-29T09:46:23.293Z</time></trkpt><trkpt lat="45.378095" lon="10.6006783"><ele>130.0</ele><time>2026-03-29T09:46:24.292Z</time></trkpt><trkpt lat="45.3779533" lon="10.6006783"><ele>130.0</ele><time>2026-03-29T09:46:25.293Z</time></trkpt><trkpt lat="45.3778233" lon="10.600715"><ele>128.0</ele><time>2026-03-29T09:46:26.292Z</time></trkpt><trkpt lat="45.3776917" lon="10.6007817"><ele>126.0</ele><time>2026-03-29T09:46:27.293Z</time></trkpt><trkpt lat="45.37758" lon="10.6008733"><ele>124.0</ele><time>2026-03-29T09:46:28.292Z</time></trkpt><trkpt lat="45.3774717" lon="10.6009767"><ele>122.0</ele><time>2026-03-29T09:46:29.292Z</time></trkpt><trkpt lat="45.3773617" lon="10.6010867"><ele>121.75</ele><time>2026-03-29T09:46:30.293Z</time></trkpt><trkpt lat="45.377255" lon="10.6011917"><ele>121.5</ele><time>2026-03-29T09:46:31.293Z</time></trkpt><trkpt lat="45.3771483" lon="10.6012983"><ele>121.25</ele><time>2026-03-29T09:46:32.292Z</time></trkpt><trkpt lat="45.3770367" lon="10.601405"><ele>121.0</ele><time>2026-03-29T09:46:33.293Z</time></trkpt><trkpt lat="45.3769217" lon="10.6014817"><ele>120.5</ele><time>2026-03-29T09:46:34.292Z</time></trkpt><trkpt lat="45.3768" lon="10.60153"><ele>120.0</ele><time>2026-03-29T09:46:35.293Z</time></trkpt><trkpt lat="45.37668" lon="10.6015633"><ele>119.5</ele><time>2026-03-29T09:46:36.292Z</time></trkpt><trkpt lat="45.37656" lon="10.6015933"><ele>119.0</ele><time>2026-03-29T09:46:37.292Z</time></trkpt><trkpt lat="45.376445" lon="10.601605"><ele>119.25</ele><time>2026-03-29T09:46:38.292Z</time></trkpt><trkpt lat="45.3763183" lon="10.601615"><ele>119.5</ele><time>2026-03-29T09:46:39.292Z</time></trkpt><trkpt lat="45.3762017" lon="10.6016233"><ele>119.75</ele><time>2026-03-29T09:46:40.293Z</time></trkpt><trkpt lat="45.37609" lon="10.6016283"><ele>120.0</ele><time>2026-03-29T09:46:41.292Z</time></trkpt><trkpt lat="45.3759833" lon="10.6016383"><ele>120.0</ele><time>2026-03-29T09:46:42.292Z</time></trkpt><trkpt lat="45.3758783" lon="10.6016417"><ele>120.0</ele><time>2026-03-29T09:46:43.292Z</time></trkpt><trkpt lat="45.3757733" lon="10.6016217"><ele>120.0</ele><time>2026-03-29T09:46:44.292Z</time></trkpt><trkpt lat="45.3756617" lon="10.6016"><ele>120.0</ele><time>2026-03-29T09:46:45.292Z</time></trkpt><trkpt lat="45.3755583" lon="10.6015767"><ele>120.0</ele><time>2026-03-29T09:46:46.292Z</time></trkpt><trkpt lat="45.3754583" lon="10.6015367"><ele>118.5</ele><time>2026-03-29T09:46:47.292Z</time></trkpt><trkpt lat="45.3753517" lon="10.6015083"><ele>117.0</ele><time>2026-03-29T09:46:48.293Z</time></trkpt><trkpt lat="45.375255" lon="10.601445"><ele>115.5</ele><time>2026-03-29T09:46:49.293Z</time></trkpt><trkpt lat="45.3751533" lon="10.6013667"><ele>114.0</ele><time>2026-03-29T09:46:50.292Z</time></trkpt><trkpt lat="45.3750467" lon="10.60128"><ele>114.0</ele><time>2026-03-29T09:46:51.293Z</time></trkpt><trkpt lat="45.37493" lon="10.601185"><ele>114.0</ele><time>2026-03-29T09:46:52.292Z</time></trkpt><trkpt lat="45.37481" lon="10.60109"><ele>114.0</ele><time>2026-03-29T09:46:53.292Z</time></trkpt><trkpt lat="45.3746767" lon="10.6009933"><ele>114.0</ele><time>2026-03-29T09:46:54.293Z</time></trkpt><trkpt lat="45.374545" lon="10.6009067"><ele>113.0</ele><time>2026-03-29T09:46:55.292Z</time></trkpt><trkpt lat="45.3744083" lon="10.600805"><ele>112.0</ele><time>2026-03-29T09:46:56.293Z</time></trkpt><trkpt lat="45.3742617" lon="10.60071"><ele>111.0</ele><time>2026-03-29T09:46:57.292Z</time></trkpt><trkpt lat="45.37412" lon="10.6006167"><ele>111.0</ele><time>2026-03-29T09:46:58.293Z</time></trkpt><trkpt lat="45.3739817" lon="10.6005133"><ele>111.0</ele><time>2026-03-29T09:46:59.293Z</time></trkpt><trkpt lat="45.3738467" lon="10.6004117"><ele>111.0</ele><time>2026-03-29T09:47:00.292Z</time></trkpt><trkpt lat="45.3737267" lon="10.6003117"><ele>111.0</ele><time>2026-03-29T09:47:01.293Z</time></trkpt><trkpt lat="45.37363" lon="10.6002117"><ele>111.25</ele><time>2026-03-29T09:47:02.292Z</time></trkpt><trkpt lat="45.37352" lon="10.6000967"><ele>111.5</ele><time>2026-03-29T09:47:03.293Z</time></trkpt><trkpt lat="45.3734" lon="10.5999817"><ele>111.75</ele><time>2026-03-29T09:47:04.292Z</time></trkpt><trkpt lat="45.373295" lon="10.5998567"><ele>112.0</ele><time>2026-03-29T09:47:05.293Z</time></trkpt><trkpt lat="45.3731917" lon="10.599725"><ele>112.0</ele><time>2026-03-29T09:47:06.293Z</time></trkpt><trkpt lat="45.3731083" lon="10.59959"><ele>112.0</ele><time>2026-03-29T09:47:07.293Z</time></trkpt><trkpt lat="45.37307" lon="10.5993817"><ele>112.0</ele><time>2026-03-29T09:47:08.292Z</time></trkpt><trkpt lat="45.3730433" lon="10.5991267"><ele>111.0</ele><time>2026-03-29T09:47:09.293Z</time></trkpt><trkpt lat="45.373025" lon="10.598865"><ele>110.0</ele><time>2026-03-29T09:47:10.293Z</time></trkpt><trkpt lat="45.3729933" lon="10.5985983"><ele>109.0</ele><time>2026-03-29T09:47:11.293Z</time></trkpt><trkpt lat="45.3729383" lon="10.5983167"><ele>109.0</ele><time>2026-03-29T09:47:12.292Z</time></trkpt><trkpt lat="45.3728567" lon="10.5980517"><ele>109.0</ele><time>2026-03-29T09:47:13.293Z</time></trkpt><trkpt lat="45.37278" lon="10.5978083"><ele>109.0</ele><time>2026-03-29T09:47:14.292Z</time></trkpt><trkpt lat="45.3727017" lon="10.5975967"><ele>109.0</ele><time>2026-03-29T09:47:15.293Z</time></trkpt><trkpt lat="45.372625" lon="10.5974017"><ele>109.0</ele><time>2026-03-29T09:47:16.292Z</time></trkpt><trkpt lat="45.3725283" lon="10.5972267"><ele>109.0</ele><time>2026-03-29T09:47:17.292Z</time></trkpt><trkpt lat="45.3723983" lon="10.597095"><ele>108.66666666666667</ele><time>2026-03-29T09:47:18.292Z</time></trkpt><trkpt lat="45.372255" lon="10.5969933"><ele>108.33333333333334</ele><time>2026-03-29T09:47:19.293Z</time></trkpt><trkpt lat="45.3720983" lon="10.5969033"><ele>108.0</ele><time>2026-03-29T09:47:20.292Z</time></trkpt><trkpt lat="45.3719283" lon="10.596805"><ele>109.33333333333334</ele><time>2026-03-29T09:47:21.292Z</time></trkpt><trkpt lat="45.371755" lon="10.5967133"><ele>110.66666666666667</ele><time>2026-03-29T09:47:22.293Z</time></trkpt><trkpt lat="45.3716017" lon="10.59662"><ele>112.0</ele><time>2026-03-29T09:47:23.293Z</time></trkpt><trkpt lat="45.3714567" lon="10.596525"><ele>112.0</ele><time>2026-03-29T09:47:24.293Z</time></trkpt><trkpt lat="45.371305" lon="10.5964333"><ele>112.0</ele><time>2026-03-29T09:47:25.293Z</time></trkpt><trkpt lat="45.3711567" lon="10.59635"><ele>112.0</ele><time>2026-03-29T09:47:26.293Z</time></trkpt><trkpt lat="45.3710117" lon="10.5962667"><ele>112.0</ele><time>2026-03-29T09:47:27.293Z</time></trkpt><trkpt lat="45.37087" lon="10.5962017"><ele>112.0</ele><time>2026-03-29T09:47:28.293Z</time></trkpt><trkpt lat="45.37074" lon="10.5961417"><ele>112.0</ele><time>2026-03-29T09:47:29.293Z</time></trkpt><trkpt lat="45.3706083" lon="10.5960933"><ele>112.0</ele><time>2026-03-29T09:47:30.293Z</time></trkpt><trkpt lat="45.370495" lon="10.5960417"><ele>113.33333333333334</ele><time>2026-03-29T09:47:31.293Z</time></trkpt><trkpt lat="45.3704" lon="10.5960117"><ele>114.66666666666667</ele><time>2026-03-29T09:47:32.292Z</time></trkpt><trkpt lat="45.3703217" lon="10.5960067"><ele>116.0</ele><time>2026-03-29T09:47:33.293Z</time></trkpt><trkpt lat="45.3702583" lon="10.5960133"><ele>117.33333333333334</ele><time>2026-03-29T09:47:34.292Z</time></trkpt><trkpt lat="45.3701717" lon="10.5960117"><ele>118.66666666666667</ele><time>2026-03-29T09:47:36.292Z</time></trkpt><trkpt lat="45.3701167" lon="10.5959633"><ele>120.0</ele><time>2026-03-29T09:47:38.293Z</time></trkpt><trkpt lat="45.3701" lon="10.5958483"><ele>120.0</ele><time>2026-03-29T09:47:40.293Z</time></trkpt><trkpt lat="45.3701283" lon="10.5956433"><ele>120.0</ele><time>2026-03-29T09:47:42.292Z</time></trkpt><trkpt lat="45.37015" lon="10.5954833"><ele>120.0</ele><time>2026-03-29T09:47:43.293Z</time></trkpt><trkpt lat="45.3701667" lon="10.59532"><ele>120.0</ele><time>2026-03-29T09:47:44.292Z</time></trkpt><trkpt lat="45.3701767" lon="10.59514"><ele>120.25</ele><time>2026-03-29T09:47:45.292Z</time></trkpt><trkpt lat="45.3701883" lon="10.594965"><ele>120.5</ele><time>2026-03-29T09:47:46.293Z</time></trkpt><trkpt lat="45.3701867" lon="10.5947733"><ele>120.75</ele><time>2026-03-29T09:47:47.293Z</time></trkpt><trkpt lat="45.37018" lon="10.5945967"><ele>121.0</ele><time>2026-03-29T09:47:48.293Z</time></trkpt><trkpt lat="45.37017" lon="10.5944317"><ele>121.4</ele><time>2026-03-29T09:47:49.292Z</time></trkpt><trkpt lat="45.3701517" lon="10.5942817"><ele>121.8</ele><time>2026-03-29T09:47:50.292Z</time></trkpt><trkpt lat="45.3701383" lon="10.594125"><ele>122.20000000000002</ele><time>2026-03-29T09:47:51.292Z</time></trkpt><trkpt lat="45.3701267" lon="10.5939767"><ele>122.60000000000001</ele><time>2026-03-29T09:47:52.293Z</time></trkpt><trkpt lat="45.3701133" lon="10.5938317"><ele>123.0</ele><time>2026-03-29T09:47:53.293Z</time></trkpt><trkpt lat="45.3701067" lon="10.593695"><ele>123.2</ele><time>2026-03-29T09:47:54.293Z</time></trkpt><trkpt lat="45.370105" lon="10.5935483"><ele>123.4</ele><time>2026-03-29T09:47:55.293Z</time></trkpt><trkpt lat="45.3701117" lon="10.5934267"><ele>123.60000000000001</ele><time>2026-03-29T09:47:56.292Z</time></trkpt><trkpt lat="45.3701417" lon="10.5932917"><ele>123.80000000000001</ele><time>2026-03-29T09:47:57.293Z</time></trkpt><trkpt lat="45.3701817" lon="10.5931517"><ele>124.0</ele><time>2026-03-29T09:47:58.293Z</time></trkpt><trkpt lat="45.37022" lon="10.5930367"><ele>124.0</ele><time>2026-03-29T09:47:59.292Z</time></trkpt><trkpt lat="45.3702733" lon="10.5929217"><ele>124.0</ele><time>2026-03-29T09:48:00.293Z</time></trkpt><trkpt lat="45.3703417" lon="10.592815"><ele>124.0</ele><time>2026-03-29T09:48:01.293Z</time></trkpt><trkpt lat="45.3704" lon="10.5926967"><ele>124.0</ele><time>2026-03-29T09:48:02.292Z</time></trkpt><trkpt lat="45.3704617" lon="10.59256"><ele>124.0</ele><time>2026-03-29T09:48:03.293Z</time></trkpt><trkpt lat="45.3705233" lon="10.592415"><ele>121.5</ele><time>2026-03-29T09:48:04.293Z</time></trkpt><trkpt lat="45.3705817" lon="10.5922433"><ele>119.0</ele><time>2026-03-29T09:48:05.293Z</time></trkpt><trkpt lat="45.3706333" lon="10.5920783"><ele>116.5</ele><time>2026-03-29T09:48:06.292Z</time></trkpt><trkpt lat="45.3706833" lon="10.5919217"><ele>114.0</ele><time>2026-03-29T09:48:07.293Z</time></trkpt><trkpt lat="45.3707267" lon="10.5917633"><ele>114.0</ele><time>2026-03-29T09:48:08.292Z</time></trkpt><trkpt lat="45.37076" lon="10.5916083"><ele>114.0</ele><time>2026-03-29T09:48:09.293Z</time></trkpt><trkpt lat="45.3707817" lon="10.5914733"><ele>114.0</ele><time>2026-03-29T09:48:10.292Z</time></trkpt><trkpt lat="45.370795" lon="10.59133"><ele>114.0</ele><time>2026-03-29T09:48:11.292Z</time></trkpt><trkpt lat="45.3708033" lon="10.5911933"><ele>114.0</ele><time>2026-03-29T09:48:12.293Z</time></trkpt><trkpt lat="45.3708017" lon="10.5910667"><ele>113.6</ele><time>2026-03-29T09:48:13.293Z</time></trkpt><trkpt lat="45.3707833" lon="10.5909383"><ele>113.2</ele><time>2026-03-29T09:48:14.292Z</time></trkpt><trkpt lat="45.3707467" lon="10.5908267"><ele>112.79999999999998</ele><time>2026-03-29T09:48:15.292Z</time></trkpt><trkpt lat="45.370695" lon="10.590715"><ele>112.39999999999999</ele><time>2026-03-29T09:48:16.292Z</time></trkpt><trkpt lat="45.3706367" lon="10.5905983"><ele>112.0</ele><time>2026-03-29T09:48:17.292Z</time></trkpt><trkpt lat="45.3705683" lon="10.5904783"><ele>114.19999999999999</ele><time>2026-03-29T09:48:18.292Z</time></trkpt><trkpt lat="45.3704933" lon="10.590375"><ele>116.39999999999999</ele><time>2026-03-29T09:48:19.291Z</time></trkpt><trkpt lat="45.3704233" lon="10.5902683"><ele>118.60000000000001</ele><time>2026-03-29T09:48:20.292Z</time></trkpt><trkpt lat="45.3703667" lon="10.5901583"><ele>120.80000000000001</ele><time>2026-03-29T09:48:21.291Z</time></trkpt><trkpt lat="45.37032" lon="10.5900367"><ele>123.0</ele><time>2026-03-29T09:48:22.291Z</time></trkpt><trkpt lat="45.3702783" lon="10.5899"><ele>123.0</ele><time>2026-03-29T09:48:23.291Z</time></trkpt><trkpt lat="45.3702333" lon="10.5897833"><ele>123.0</ele><time>2026-03-29T09:48:24.292Z</time></trkpt><trkpt lat="45.370185" lon="10.5896817"><ele>123.0</ele><time>2026-03-29T09:48:25.292Z</time></trkpt><trkpt lat="45.3701233" lon="10.5896033"><ele>123.0</ele><time>2026-03-29T09:48:26.292Z</time></trkpt><trkpt lat="45.3700467" lon="10.5895317"><ele>123.0</ele><time>2026-03-29T09:48:27.292Z</time></trkpt><trkpt lat="45.3699667" lon="10.5894783"><ele>123.0</ele><time>2026-03-29T09:48:28.292Z</time></trkpt><trkpt lat="45.36988" lon="10.589425"><ele>123.16666666666667</ele><time>2026-03-29T09:48:29.291Z</time></trkpt><trkpt lat="45.3698017" lon="10.5893817"><ele>123.33333333333334</ele><time>2026-03-29T09:48:30.292Z</time></trkpt><trkpt lat="45.3697183" lon="10.589345"><ele>123.5</ele><time>2026-03-29T09:48:31.291Z</time></trkpt><trkpt lat="45.369635" lon="10.589295"><ele>123.66666666666667</ele><time>2026-03-29T09:48:32.291Z</time></trkpt><trkpt lat="45.3695567" lon="10.5892367"><ele>123.83333333333334</ele><time>2026-03-29T09:48:33.291Z</time></trkpt><trkpt lat="45.36949" lon="10.589165"><ele>124.0</ele><time>2026-03-29T09:48:34.291Z</time></trkpt><trkpt lat="45.36943" lon="10.5890767"><ele>124.0</ele><time>2026-03-29T09:48:35.292Z</time></trkpt><trkpt lat="45.3693683" lon="10.588975"><ele>124.0</ele><time>2026-03-29T09:48:36.292Z</time></trkpt><trkpt lat="45.3693083" lon="10.5888633"><ele>124.0</ele><time>2026-03-29T09:48:37.292Z</time></trkpt><trkpt lat="45.3692567" lon="10.588745"><ele>124.0</ele><time>2026-03-29T09:48:38.291Z</time></trkpt><trkpt lat="45.369195" lon="10.588625"><ele>124.0</ele><time>2026-03-29T09:48:39.291Z</time></trkpt><trkpt lat="45.36915" lon="10.588505"><ele>125.0</ele><time>2026-03-29T09:48:40.291Z</time></trkpt><trkpt lat="45.3691133" lon="10.5883983"><ele>126.0</ele><time>2026-03-29T09:48:41.291Z</time></trkpt><trkpt lat="45.36907" lon="10.5883033"><ele>127.0</ele><time>2026-03-29T09:48:42.292Z</time></trkpt><trkpt lat="45.3689667" lon="10.588175"><ele>128.0</ele><time>2026-03-29T09:48:44.291Z</time></trkpt><trkpt lat="45.3688883" lon="10.5881367"><ele>129.0</ele><time>2026-03-29T09:48:45.291Z</time></trkpt><trkpt lat="45.3688117" lon="10.5880933"><ele>129.0</ele><time>2026-03-29T09:48:46.291Z</time></trkpt><trkpt lat="45.3687333" lon="10.5880333"><ele>129.0</ele><time>2026-03-29T09:48:47.292Z</time></trkpt><trkpt lat="45.3686433" lon="10.587965"><ele>129.0</ele><time>2026-03-29T09:48:48.291Z</time></trkpt><trkpt lat="45.36857" lon="10.587895"><ele>129.0</ele><time>2026-03-29T09:48:49.291Z</time></trkpt><trkpt lat="45.368505" lon="10.5878217"><ele>129.0</ele><time>2026-03-29T09:48:50.292Z</time></trkpt><trkpt lat="45.3684483" lon="10.58773"><ele>129.0</ele><time>2026-03-29T09:48:51.291Z</time></trkpt><trkpt lat="45.3684" lon="10.5876267"><ele>128.16666666666666</ele><time>2026-03-29T09:48:52.292Z</time></trkpt><trkpt lat="45.368355" lon="10.5875267"><ele>127.33333333333334</ele><time>2026-03-29T09:48:53.292Z</time></trkpt><trkpt lat="45.3683133" lon="10.5874167"><ele>126.5</ele><time>2026-03-29T09:48:54.292Z</time></trkpt><trkpt lat="45.368275" lon="10.5873067"><ele>125.66666666666667</ele><time>2026-03-29T09:48:55.291Z</time></trkpt><trkpt lat="45.3682183" lon="10.5872083"><ele>124.83333333333334</ele><time>2026-03-29T09:48:56.291Z</time></trkpt><trkpt lat="45.3681533" lon="10.58711"><ele>124.0</ele><time>2026-03-29T09:48:57.292Z</time></trkpt><trkpt lat="45.3681" lon="10.5870117"><ele>122.80000000000001</ele><time>2026-03-29T09:48:58.291Z</time></trkpt><trkpt lat="45.3680583" lon="10.5868983"><ele>121.60000000000001</ele><time>2026-03-29T09:48:59.292Z</time></trkpt><trkpt lat="45.3680167" lon="10.58677"><ele>120.4</ele><time>2026-03-29T09:49:00.292Z</time></trkpt><trkpt lat="45.3679717" lon="10.5866433"><ele>119.2</ele><time>2026-03-29T09:49:01.292Z</time></trkpt><trkpt lat="45.36792" lon="10.5865217"><ele>118.0</ele><time>2026-03-29T09:49:02.292Z</time></trkpt><trkpt lat="45.3678517" lon="10.5864"><ele>118.75</ele><time>2026-03-29T09:49:03.291Z</time></trkpt><trkpt lat="45.3677767" lon="10.5862767"><ele>119.5</ele><time>2026-03-29T09:49:04.292Z</time></trkpt><trkpt lat="45.36769" lon="10.5861533"><ele>120.25</ele><time>2026-03-29T09:49:05.292Z</time></trkpt><trkpt lat="45.3676133" lon="10.5860183"><ele>121.0</ele><time>2026-03-29T09:49:06.291Z</time></trkpt><trkpt lat="45.3675433" lon="10.5858933"><ele>121.0</ele><time>2026-03-29T09:49:07.292Z</time></trkpt><trkpt lat="45.3674867" lon="10.585765"><ele>121.0</ele><time>2026-03-29T09:49:08.292Z</time></trkpt><trkpt lat="45.367425" lon="10.5856517"><ele>121.0</ele><time>2026-03-29T09:49:09.292Z</time></trkpt><trkpt lat="45.3673633" lon="10.5855433"><ele>121.0</ele><time>2026-03-29T09:49:10.291Z</time></trkpt><trkpt lat="45.3673067" lon="10.585435"><ele>121.0</ele><time>2026-03-29T09:49:11.291Z</time></trkpt><trkpt lat="45.3672583" lon="10.5853433"><ele>121.16666666666667</ele><time>2026-03-29T09:49:12.291Z</time></trkpt><trkpt lat="45.3672233" lon="10.5852583"><ele>121.33333333333334</ele><time>2026-03-29T09:49:13.292Z</time></trkpt><trkpt lat="45.367215" lon="10.585165"><ele>121.5</ele><time>2026-03-29T09:49:14.292Z</time></trkpt><trkpt lat="45.367225" lon="10.585055"><ele>121.66666666666666</ele><time>2026-03-29T09:49:15.292Z</time></trkpt><trkpt lat="45.3672583" lon="10.5849383"><ele>121.83333333333333</ele><time>2026-03-29T09:49:16.291Z</time></trkpt><trkpt lat="45.367305" lon="10.5848133"><ele>122.0</ele><time>2026-03-29T09:49:17.292Z</time></trkpt><trkpt lat="45.3673633" lon="10.5846833"><ele>122.0</ele><time>2026-03-29T09:49:18.291Z</time></trkpt><trkpt lat="45.3674233" lon="10.5845667"><ele>121.99999999999999</ele><time>2026-03-29T09:49:19.292Z</time></trkpt><trkpt lat="45.3674733" lon="10.5844667"><ele>121.99999999999999</ele><time>2026-03-29T09:49:20.291Z</time></trkpt><trkpt lat="45.3675183" lon="10.5843783"><ele>122.0</ele><time>2026-03-29T09:49:21.291Z</time></trkpt><trkpt lat="45.367565" lon="10.5842717"><ele>122.0</ele><time>2026-03-29T09:49:22.292Z</time></trkpt><trkpt lat="45.3676267" lon="10.5841417"><ele>123.25</ele><time>2026-03-29T09:49:23.292Z</time></trkpt><trkpt lat="45.3676933" lon="10.584005"><ele>124.5</ele><time>2026-03-29T09:49:24.291Z</time></trkpt><trkpt lat="45.3677533" lon="10.5838633"><ele>125.75</ele><time>2026-03-29T09:49:25.292Z</time></trkpt><trkpt lat="45.3678083" lon="10.583715"><ele>127.0</ele><time>2026-03-29T09:49:26.292Z</time></trkpt><trkpt lat="45.3678533" lon="10.5835633"><ele>127.75</ele><time>2026-03-29T09:49:27.291Z</time></trkpt><trkpt lat="45.3678767" lon="10.5833983"><ele>128.5</ele><time>2026-03-29T09:49:28.292Z</time></trkpt><trkpt lat="45.36789" lon="10.5832317"><ele>129.25</ele><time>2026-03-29T09:49:29.291Z</time></trkpt><trkpt lat="45.3678933" lon="10.5830483"><ele>130.0</ele><time>2026-03-29T09:49:30.291Z</time></trkpt><trkpt lat="45.3679083" lon="10.5828583"><ele>129.8</ele><time>2026-03-29T09:49:31.292Z</time></trkpt><trkpt lat="45.3679217" lon="10.5826933"><ele>129.6</ele><time>2026-03-29T09:49:32.291Z</time></trkpt><trkpt lat="45.3679383" lon="10.582535"><ele>129.4</ele><time>2026-03-29T09:49:33.291Z</time></trkpt><trkpt lat="45.3679833" lon="10.58239"><ele>129.2</ele><time>2026-03-29T09:49:34.292Z</time></trkpt><trkpt lat="45.368025" lon="10.5822583"><ele>129.0</ele><time>2026-03-29T09:49:35.291Z</time></trkpt><trkpt lat="45.368035" lon="10.582155"><ele>126.16666666666667</ele><time>2026-03-29T09:49:36.292Z</time></trkpt><trkpt lat="45.3680667" lon="10.58205"><ele>123.33333333333334</ele><time>2026-03-29T09:49:37.292Z</time></trkpt><trkpt lat="45.3681167" lon="10.5819617"><ele>120.5</ele><time>2026-03-29T09:49:38.291Z</time></trkpt><trkpt lat="45.3681683" lon="10.5818967"><ele>117.66666666666667</ele><time>2026-03-29T09:49:39.292Z</time></trkpt><trkpt lat="45.3682483" lon="10.581865"><ele>114.83333333333334</ele><time>2026-03-29T09:49:40.291Z</time></trkpt><trkpt lat="45.36836" lon="10.581845"><ele>112.0</ele><time>2026-03-29T09:49:41.291Z</time></trkpt><trkpt lat="45.3684967" lon="10.5818317"><ele>112.0</ele><time>2026-03-29T09:49:42.291Z</time></trkpt><trkpt lat="45.3686567" lon="10.5817917"><ele>112.0</ele><time>2026-03-29T09:49:43.292Z</time></trkpt><trkpt lat="45.3688333" lon="10.5817217"><ele>112.0</ele><time>2026-03-29T09:49:44.292Z</time></trkpt><trkpt lat="45.3689867" lon="10.5816517"><ele>111.8</ele><time>2026-03-29T09:49:45.292Z</time></trkpt><trkpt lat="45.36912" lon="10.5815883"><ele>111.6</ele><time>2026-03-29T09:49:46.292Z</time></trkpt><trkpt lat="45.3692317" lon="10.5815333"><ele>111.39999999999999</ele><time>2026-03-29T09:49:47.291Z</time></trkpt><trkpt lat="45.36932" lon="10.581485"><ele>111.19999999999999</ele><time>2026-03-29T09:49:48.292Z</time></trkpt><trkpt lat="45.36938" lon="10.581435"><ele>111.0</ele><time>2026-03-29T09:49:49.292Z</time></trkpt><trkpt lat="45.3694333" lon="10.5813317"><ele>111.0</ele><time>2026-03-29T09:49:51.291Z</time></trkpt><trkpt lat="45.3694" lon="10.5812183"><ele>111.0</ele><time>2026-03-29T09:49:54.291Z</time></trkpt><trkpt lat="45.3692967" lon="10.5811767"><ele>111.0</ele><time>2026-03-29T09:49:56.291Z</time></trkpt><trkpt lat="45.36922" lon="10.5812033"><ele>111.0</ele><time>2026-03-29T09:49:57.291Z</time></trkpt><trkpt lat="45.369095" lon="10.5812633"><ele>111.0</ele><time>2026-03-29T09:49:58.292Z</time></trkpt><trkpt lat="45.3689583" lon="10.5813267"><ele>111.33333333333334</ele><time>2026-03-29T09:49:59.291Z</time></trkpt><trkpt lat="45.3688217" lon="10.581395"><ele>111.66666666666667</ele><time>2026-03-29T09:50:00.291Z</time></trkpt><trkpt lat="45.3686717" lon="10.5814583"><ele>112.0</ele><time>2026-03-29T09:50:01.291Z</time></trkpt><trkpt lat="45.3685217" lon="10.581495"><ele>112.0</ele><time>2026-03-29T09:50:02.291Z</time></trkpt><trkpt lat="45.3683617" lon="10.581515"><ele>112.0</ele><time>2026-03-29T09:50:03.292Z</time></trkpt><trkpt lat="45.3681883" lon="10.58152"><ele>112.0</ele><time>2026-03-29T09:50:04.292Z</time></trkpt><trkpt lat="45.3680033" lon="10.581525"><ele>116.0</ele><time>2026-03-29T09:50:05.292Z</time></trkpt><trkpt lat="45.3678183" lon="10.581545"><ele>120.0</ele><time>2026-03-29T09:50:06.291Z</time></trkpt><trkpt lat="45.36764" lon="10.5815633"><ele>124.0</ele><time>2026-03-29T09:50:07.291Z</time></trkpt><trkpt lat="45.3674733" lon="10.581585"><ele>124.0</ele><time>2026-03-29T09:50:08.291Z</time></trkpt><trkpt lat="45.36731" lon="10.5816083"><ele>124.0</ele><time>2026-03-29T09:50:09.292Z</time></trkpt><trkpt lat="45.367155" lon="10.5816167"><ele>124.0</ele><time>2026-03-29T09:50:10.291Z</time></trkpt><trkpt lat="45.36699" lon="10.5816133"><ele>125.66666666666667</ele><time>2026-03-29T09:50:11.292Z</time></trkpt><trkpt lat="45.3668217" lon="10.581615"><ele>127.33333333333334</ele><time>2026-03-29T09:50:12.291Z</time></trkpt><trkpt lat="45.3666567" lon="10.5816267"><ele>129.0</ele><time>2026-03-29T09:50:13.292Z</time></trkpt><trkpt lat="45.3665" lon="10.58165"><ele>129.75</ele><time>2026-03-29T09:50:14.291Z</time></trkpt><trkpt lat="45.3663517" lon="10.5816733"><ele>130.5</ele><time>2026-03-29T09:50:15.292Z</time></trkpt><trkpt lat="45.366225" lon="10.581675"><ele>131.25</ele><time>2026-03-29T09:50:16.292Z</time></trkpt><trkpt lat="45.3661117" lon="10.5816617"><ele>132.0</ele><time>2026-03-29T09:50:17.292Z</time></trkpt><trkpt lat="45.3659983" lon="10.58163"><ele>132.0</ele><time>2026-03-29T09:50:18.292Z</time></trkpt><trkpt lat="45.3658867" lon="10.5815867"><ele>132.0</ele><time>2026-03-29T09:50:19.291Z</time></trkpt><trkpt lat="45.3657817" lon="10.5815433"><ele>132.0</ele><time>2026-03-29T09:50:20.291Z</time></trkpt><trkpt lat="45.3656733" lon="10.5815283"><ele>132.0</ele><time>2026-03-29T09:50:21.292Z</time></trkpt><trkpt lat="45.3655483" lon="10.5815533"><ele>133.66666666666666</ele><time>2026-03-29T09:50:22.291Z</time></trkpt><trkpt lat="45.3654133" lon="10.5816117"><ele>135.33333333333331</ele><time>2026-03-29T09:50:23.291Z</time></trkpt><trkpt lat="45.36527" lon="10.5816783"><ele>137.0</ele><time>2026-03-29T09:50:24.291Z</time></trkpt><trkpt lat="45.3651" lon="10.58174"><ele>137.0</ele><time>2026-03-29T09:50:25.292Z</time></trkpt><trkpt lat="45.3649117" lon="10.5817733"><ele>137.0</ele><time>2026-03-29T09:50:26.291Z</time></trkpt><trkpt lat="45.3647167" lon="10.5817967"><ele>137.0</ele><time>2026-03-29T09:50:27.291Z</time></trkpt><trkpt lat="45.36451" lon="10.5818133"><ele>138.66666666666666</ele><time>2026-03-29T09:50:28.291Z</time></trkpt><trkpt lat="45.3643017" lon="10.5818183"><ele>140.33333333333334</ele><time>2026-03-29T09:50:29.291Z</time></trkpt><trkpt lat="45.3641167" lon="10.5818233"><ele>142.0</ele><time>2026-03-29T09:50:30.291Z</time></trkpt><trkpt lat="45.3639317" lon="10.5818117"><ele>142.66666666666669</ele><time>2026-03-29T09:50:31.291Z</time></trkpt><trkpt lat="45.36374" lon="10.58178"><ele>143.33333333333334</ele><time>2026-03-29T09:50:32.291Z</time></trkpt><trkpt lat="45.3635433" lon="10.581755"><ele>144.0</ele><time>2026-03-29T09:50:33.291Z</time></trkpt><trkpt lat="45.3633567" lon="10.5817033"><ele>144.0</ele><time>2026-03-29T09:50:34.292Z</time></trkpt><trkpt lat="45.3631767" lon="10.5816217"><ele>144.0</ele><time>2026-03-29T09:50:35.292Z</time></trkpt><trkpt lat="45.36301" lon="10.5815433"><ele>144.0</ele><time>2026-03-29T09:50:36.291Z</time></trkpt><trkpt lat="45.3628367" lon="10.5814467"><ele>144.66666666666666</ele><time>2026-03-29T09:50:37.291Z</time></trkpt><trkpt lat="45.3626817" lon="10.5813717"><ele>145.33333333333331</ele><time>2026-03-29T09:50:38.292Z</time></trkpt><trkpt lat="45.36253" lon="10.58129"><ele>146.0</ele><time>2026-03-29T09:50:39.292Z</time></trkpt><trkpt lat="45.36239" lon="10.58118"><ele>146.33333333333331</ele><time>2026-03-29T09:50:40.291Z</time></trkpt><trkpt lat="45.3622333" lon="10.581065"><ele>146.66666666666666</ele><time>2026-03-29T09:50:41.291Z</time></trkpt><trkpt lat="45.3620783" lon="10.5809333"><ele>147.0</ele><time>2026-03-29T09:50:42.292Z</time></trkpt><trkpt lat="45.3619383" lon="10.5807983"><ele>148.25</ele><time>2026-03-29T09:50:43.291Z</time></trkpt><trkpt lat="45.3618117" lon="10.5806817"><ele>149.5</ele><time>2026-03-29T09:50:44.291Z</time></trkpt><trkpt lat="45.3616867" lon="10.58058"><ele>150.75</ele><time>2026-03-29T09:50:45.291Z</time></trkpt><trkpt lat="45.36158" lon="10.5804817"><ele>152.0</ele><time>2026-03-29T09:50:46.291Z</time></trkpt><trkpt lat="45.3614883" lon="10.580395"><ele>152.0</ele><time>2026-03-29T09:50:47.292Z</time></trkpt><trkpt lat="45.3614317" lon="10.5803217"><ele>152.0</ele><time>2026-03-29T09:50:48.291Z</time></trkpt><trkpt lat="45.3613517" lon="10.58025"><ele>152.0</ele><time>2026-03-29T09:50:50.291Z</time></trkpt><trkpt lat="45.3613233" lon="10.580345"><ele>152.0</ele><time>2026-03-29T09:50:53.291Z</time></trkpt><trkpt lat="45.3613717" lon="10.580425"><ele>152.0</ele><time>2026-03-29T09:50:55.292Z</time></trkpt><trkpt lat="45.36142" lon="10.580505"><ele>152.0</ele><time>2026-03-29T09:50:58.292Z</time></trkpt><trkpt lat="45.3614683" lon="10.5806083"><ele>152.0</ele><time>2026-03-29T09:51:01.291Z</time></trkpt><trkpt lat="45.36151" lon="10.58068"><ele>152.0</ele><time>2026-03-29T09:51:02.291Z</time></trkpt><trkpt lat="45.361565" lon="10.5807667"><ele>152.0</ele><time>2026-03-29T09:51:03.292Z</time></trkpt><trkpt lat="45.3616317" lon="10.580845"><ele>152.0</ele><time>2026-03-29T09:51:04.292Z</time></trkpt><trkpt lat="45.36171" lon="10.5809167"><ele>152.0</ele><time>2026-03-29T09:51:05.292Z</time></trkpt><trkpt lat="45.3617967" lon="10.5809933"><ele>152.0</ele><time>2026-03-29T09:51:06.291Z</time></trkpt><trkpt lat="45.36188" lon="10.581075"><ele>153.0</ele><time>2026-03-29T09:51:07.291Z</time></trkpt><trkpt lat="45.3619867" lon="10.581185"><ele>154.0</ele><time>2026-03-29T09:51:08.291Z</time></trkpt><trkpt lat="45.3620883" lon="10.58129"><ele>155.0</ele><time>2026-03-29T09:51:09.291Z</time></trkpt><trkpt lat="45.362155" lon="10.5813867"><ele>156.0</ele><time>2026-03-29T09:51:10.291Z</time></trkpt><trkpt lat="45.362205" lon="10.58151"><ele>153.5</ele><time>2026-03-29T09:51:11.291Z</time></trkpt><trkpt lat="45.3622283" lon="10.58165"><ele>151.0</ele><time>2026-03-29T09:51:12.292Z</time></trkpt><trkpt lat="45.36224" lon="10.58181"><ele>148.5</ele><time>2026-03-29T09:51:13.292Z</time></trkpt><trkpt lat="45.36225" lon="10.5819867"><ele>146.0</ele><time>2026-03-29T09:51:14.291Z</time></trkpt><trkpt lat="45.3622533" lon="10.5821717"><ele>145.75</ele><time>2026-03-29T09:51:15.292Z</time></trkpt><trkpt lat="45.3622433" lon="10.5823733"><ele>145.5</ele><time>2026-03-29T09:51:16.291Z</time></trkpt><trkpt lat="45.36224" lon="10.582565"><ele>145.25</ele><time>2026-03-29T09:51:17.291Z</time></trkpt><trkpt lat="45.362235" lon="10.5827433"><ele>145.0</ele><time>2026-03-29T09:51:18.291Z</time></trkpt><trkpt lat="45.362255" lon="10.58293"><ele>146.25</ele><time>2026-03-29T09:51:19.291Z</time></trkpt><trkpt lat="45.3622833" lon="10.58312"><ele>147.5</ele><time>2026-03-29T09:51:20.291Z</time></trkpt><trkpt lat="45.36231" lon="10.5833083"><ele>148.75</ele><time>2026-03-29T09:51:21.291Z</time></trkpt><trkpt lat="45.362335" lon="10.5834817"><ele>150.0</ele><time>2026-03-29T09:51:22.291Z</time></trkpt><trkpt lat="45.362365" lon="10.5836433"><ele>150.6</ele><time>2026-03-29T09:51:23.292Z</time></trkpt><trkpt lat="45.3623917" lon="10.5838033"><ele>151.2</ele><time>2026-03-29T09:51:24.291Z</time></trkpt><trkpt lat="45.36241" lon="10.583965"><ele>151.8</ele><time>2026-03-29T09:51:25.292Z</time></trkpt><trkpt lat="45.362415" lon="10.5840833"><ele>152.4</ele><time>2026-03-29T09:51:26.291Z</time></trkpt><trkpt lat="45.362415" lon="10.58422"><ele>153.0</ele><time>2026-03-29T09:51:27.291Z</time></trkpt><trkpt lat="45.36242" lon="10.58435"><ele>153.0</ele><time>2026-03-29T09:51:28.291Z</time></trkpt><trkpt lat="45.3624517" lon="10.5844617"><ele>153.0</ele><time>2026-03-29T09:51:29.291Z</time></trkpt><trkpt lat="45.3624867" lon="10.5845867"><ele>153.0</ele><time>2026-03-29T09:51:30.292Z</time></trkpt><trkpt lat="45.3625333" lon="10.5846967"><ele>153.0</ele><time>2026-03-29T09:51:31.291Z</time></trkpt><trkpt lat="45.3625883" lon="10.584805"><ele>153.0</ele><time>2026-03-29T09:51:32.29Z</time></trkpt><trkpt lat="45.3626183" lon="10.5849117"><ele>153.0</ele><time>2026-03-29T09:51:33.291Z</time></trkpt><trkpt lat="45.36264" lon="10.58502"><ele>153.0</ele><time>2026-03-29T09:51:34.291Z</time></trkpt><trkpt lat="45.3626183" lon="10.585125"><ele>153.0</ele><time>2026-03-29T09:51:35.29Z</time></trkpt><trkpt lat="45.362575" lon="10.58525"><ele>153.0</ele><time>2026-03-29T09:51:36.29Z</time></trkpt><trkpt lat="45.3625133" lon="10.585385"><ele>153.0</ele><time>2026-03-29T09:51:37.291Z</time></trkpt><trkpt lat="45.3624733" lon="10.5855317"><ele>153.0</ele><time>2026-03-29T09:51:38.291Z</time></trkpt><trkpt lat="45.36246" lon="10.58568"><ele>153.0</ele><time>2026-03-29T09:51:39.291Z</time></trkpt><trkpt lat="45.3624767" lon="10.5858167"><ele>153.0</ele><time>2026-03-29T09:51:40.291Z</time></trkpt><trkpt lat="45.3625083" lon="10.585945"><ele>153.0</ele><time>2026-03-29T09:51:41.291Z</time></trkpt><trkpt lat="45.3625333" lon="10.5860667"><ele>153.0</ele><time>2026-03-29T09:51:42.29Z</time></trkpt><trkpt lat="45.3625517" lon="10.5861883"><ele>153.0</ele><time>2026-03-29T09:51:43.29Z</time></trkpt><trkpt lat="45.3625617" lon="10.5863383"><ele>153.33333333333334</ele><time>2026-03-29T09:51:44.29Z</time></trkpt><trkpt lat="45.3625767" lon="10.58647"><ele>153.66666666666666</ele><time>2026-03-29T09:51:45.291Z</time></trkpt><trkpt lat="45.3625767" lon="10.5866"><ele>154.0</ele><time>2026-03-29T09:51:46.29Z</time></trkpt><trkpt lat="45.3625733" lon="10.5867217"><ele>154.33333333333331</ele><time>2026-03-29T09:51:47.291Z</time></trkpt><trkpt lat="45.3625633" lon="10.58682"><ele>154.66666666666666</ele><time>2026-03-29T09:51:48.291Z</time></trkpt><trkpt lat="45.3625333" lon="10.5869017"><ele>155.0</ele><time>2026-03-29T09:51:49.291Z</time></trkpt><trkpt lat="45.3624967" lon="10.5869817"><ele>155.0</ele><time>2026-03-29T09:51:50.291Z</time></trkpt><trkpt lat="45.3624533" lon="10.5870517"><ele>155.0</ele><time>2026-03-29T09:51:51.291Z</time></trkpt><trkpt lat="45.36238" lon="10.5871783"><ele>155.0</ele><time>2026-03-29T09:51:53.291Z</time></trkpt><trkpt lat="45.3623833" lon="10.5872817"><ele>155.0</ele><time>2026-03-29T09:52:14.29Z</time></trkpt><trkpt lat="45.362465" lon="10.587215"><ele>155.0</ele><time>2026-03-29T09:52:17.29Z</time></trkpt><trkpt lat="45.36252" lon="10.5871"><ele>155.0</ele><time>2026-03-29T09:52:19.29Z</time></trkpt><trkpt lat="45.3625417" lon="10.5869483"><ele>155.0</ele><time>2026-03-29T09:52:21.29Z</time></trkpt><trkpt lat="45.362565" lon="10.5868183"><ele>155.0</ele><time>2026-03-29T09:52:23.291Z</time></trkpt><trkpt lat="45.3626267" lon="10.58673"><ele>155.0</ele><time>2026-03-29T09:52:26.29Z</time></trkpt><trkpt lat="45.36271" lon="10.58676"><ele>155.0</ele><time>2026-03-29T09:52:30.291Z</time></trkpt><trkpt lat="45.3628083" lon="10.5868"><ele>155.0</ele><time>2026-03-29T09:52:32.291Z</time></trkpt><trkpt lat="45.3628817" lon="10.58682"><ele>155.0</ele><time>2026-03-29T09:52:33.291Z</time></trkpt><trkpt lat="45.36296" lon="10.5868383"><ele>152.6</ele><time>2026-03-29T09:52:34.29Z</time></trkpt><trkpt lat="45.3630467" lon="10.586835"><ele>150.2</ele><time>2026-03-29T09:52:35.291Z</time></trkpt><trkpt lat="45.3631417" lon="10.5868233"><ele>147.8</ele><time>2026-03-29T09:52:36.29Z</time></trkpt><trkpt lat="45.3632283" lon="10.5868033"><ele>145.4</ele><time>2026-03-29T09:52:37.291Z</time></trkpt><trkpt lat="45.36332" lon="10.5867983"><ele>143.0</ele><time>2026-03-29T09:52:38.29Z</time></trkpt><trkpt lat="45.36341" lon="10.5868083"><ele>143.0</ele><time>2026-03-29T09:52:39.291Z</time></trkpt><trkpt lat="45.3634783" lon="10.5868417"><ele>143.0</ele><time>2026-03-29T09:52:40.29Z</time></trkpt><trkpt lat="45.3635417" lon="10.586905"><ele>143.0</ele><time>2026-03-29T09:52:41.29Z</time></trkpt><trkpt lat="45.3635967" lon="10.587075"><ele>143.0</ele><time>2026-03-29T09:52:43.29Z</time></trkpt><trkpt lat="45.363607" lon="10.5871692"><ele>143.0</ele><time>2026-03-29T09:52:44.29Z</time></trkpt><trkpt lat="45.3636008" lon="10.5872659"><ele>143.0</ele><time>2026-03-29T09:52:45.291Z</time></trkpt><trkpt lat="45.3635963" lon="10.5873652"><ele>142.28571428571428</ele><time>2026-03-29T09:52:46.291Z</time></trkpt><trkpt lat="45.3635865" lon="10.5874604"><ele>141.57142857142856</ele><time>2026-03-29T09:52:47.29Z</time></trkpt><trkpt lat="45.363589" lon="10.5875527"><ele>140.85714285714286</ele><time>2026-03-29T09:52:48.291Z</time></trkpt><trkpt lat="45.363608" lon="10.5876482"><ele>140.14285714285714</ele><time>2026-03-29T09:52:49.291Z</time></trkpt><trkpt lat="45.3636424" lon="10.5877356"><ele>139.42857142857144</ele><time>2026-03-29T09:52:50.291Z</time></trkpt><trkpt lat="45.3636962" lon="10.5878202"><ele>138.71428571428572</ele><time>2026-03-29T09:52:51.291Z</time></trkpt><trkpt lat="45.3637714" lon="10.5878922"><ele>138.0</ele><time>2026-03-29T09:52:52.29Z</time></trkpt><trkpt lat="45.3638637" lon="10.5879633"><ele>138.0</ele><time>2026-03-29T09:52:53.291Z</time></trkpt><trkpt lat="45.3639676" lon="10.5880337"><ele>138.0</ele><time>2026-03-29T09:52:54.29Z</time></trkpt><trkpt lat="45.3640738" lon="10.5880845"><ele>138.0</ele><time>2026-03-29T09:52:55.29Z</time></trkpt><trkpt lat="45.36418" lon="10.5881232"><ele>138.0</ele><time>2026-03-29T09:52:56.291Z</time></trkpt><trkpt lat="45.3642827" lon="10.5881511"><ele>138.0</ele><time>2026-03-29T09:52:57.29Z</time></trkpt><trkpt lat="45.3643848" lon="10.5881917"><ele>138.0</ele><time>2026-03-29T09:52:58.291Z</time></trkpt><trkpt lat="45.3644898" lon="10.5882324"><ele>138.0</ele><time>2026-03-29T09:52:59.291Z</time></trkpt><trkpt lat="45.3645972" lon="10.5882789"><ele>138.0</ele><time>2026-03-29T09:53:00.291Z</time></trkpt><trkpt lat="45.3647145" lon="10.5883226"><ele>138.0</ele><time>2026-03-29T09:53:01.291Z</time></trkpt><trkpt lat="45.3648334" lon="10.5883698"><ele>138.5</ele><time>2026-03-29T09:53:02.291Z</time></trkpt><trkpt lat="45.3649451" lon="10.5884175"><ele>139.0</ele><time>2026-03-29T09:53:03.29Z</time></trkpt><trkpt lat="45.3650585" lon="10.5884521"><ele>139.5</ele><time>2026-03-29T09:53:04.291Z</time></trkpt><trkpt lat="45.3651724" lon="10.5884633"><ele>140.0</ele><time>2026-03-29T09:53:05.29Z</time></trkpt><trkpt lat="45.3652967" lon="10.588456"><ele>140.0</ele><time>2026-03-29T09:53:06.29Z</time></trkpt><trkpt lat="45.3654272" lon="10.5884409"><ele>140.0</ele><time>2026-03-29T09:53:07.291Z</time></trkpt><trkpt lat="45.3655457" lon="10.5884207"><ele>140.0</ele><time>2026-03-29T09:53:08.291Z</time></trkpt><trkpt lat="45.3656512" lon="10.5884012"><ele>140.0</ele><time>2026-03-29T09:53:09.29Z</time></trkpt><trkpt lat="45.3657532" lon="10.5883997"><ele>140.5</ele><time>2026-03-29T09:53:10.291Z</time></trkpt><trkpt lat="45.3658455" lon="10.5884123"><ele>141.0</ele><time>2026-03-29T09:53:11.291Z</time></trkpt><trkpt lat="45.3659346" lon="10.5884438"><ele>141.5</ele><time>2026-03-29T09:53:12.291Z</time></trkpt><trkpt lat="45.3660137" lon="10.5884754"><ele>142.0</ele><time>2026-03-29T09:53:13.291Z</time></trkpt><trkpt lat="45.3661253" lon="10.5885159"><ele>142.5</ele><time>2026-03-29T09:53:15.291Z</time></trkpt><trkpt lat="45.3661683" lon="10.5885894"><ele>143.0</ele><time>2026-03-29T09:53:17.291Z</time></trkpt><trkpt lat="45.366118" lon="10.5887642"><ele>143.25</ele><time>2026-03-29T09:53:19.29Z</time></trkpt><trkpt lat="45.3660672" lon="10.5888972"><ele>143.5</ele><time>2026-03-29T09:53:20.291Z</time></trkpt><trkpt lat="45.3660082" lon="10.5890752"><ele>143.75</ele><time>2026-03-29T09:53:21.291Z</time></trkpt><trkpt lat="45.3659472" lon="10.58929"><ele>144.0</ele><time>2026-03-29T09:53:22.291Z</time></trkpt><trkpt lat="45.3658958" lon="10.58953"><ele>144.0</ele><time>2026-03-29T09:53:23.291Z</time></trkpt><trkpt lat="45.3658498" lon="10.5897869"><ele>144.0</ele><time>2026-03-29T09:53:24.29Z</time></trkpt><trkpt lat="45.3658137" lon="10.5900335"><ele>144.0</ele><time>2026-03-29T09:53:25.29Z</time></trkpt><trkpt lat="45.3657872" lon="10.5902728"><ele>144.0</ele><time>2026-03-29T09:53:26.29Z</time></trkpt><trkpt lat="45.3657613" lon="10.5904933"><ele>144.0</ele><time>2026-03-29T09:53:27.29Z</time></trkpt><trkpt lat="45.3657384" lon="10.5907062"><ele>144.0</ele><time>2026-03-29T09:53:28.29Z</time></trkpt><trkpt lat="45.3657111" lon="10.5909221"><ele>144.0</ele><time>2026-03-29T09:53:29.291Z</time></trkpt><trkpt lat="45.3656856" lon="10.591128"><ele>144.0</ele><time>2026-03-29T09:53:30.29Z</time></trkpt><trkpt lat="45.3656635" lon="10.5913314"><ele>144.0</ele><time>2026-03-29T09:53:31.291Z</time></trkpt><trkpt lat="45.3656385" lon="10.5915168"><ele>144.0</ele><time>2026-03-29T09:53:32.291Z</time></trkpt><trkpt lat="45.36561" lon="10.5916708"><ele>144.0</ele><time>2026-03-29T09:53:33.291Z</time></trkpt><trkpt lat="45.3655873" lon="10.5918158"><ele>144.0</ele><time>2026-03-29T09:53:34.29Z</time></trkpt><trkpt lat="45.365568" lon="10.5919432"><ele>144.0</ele><time>2026-03-29T09:53:35.291Z</time></trkpt><trkpt lat="45.3655562" lon="10.5920687"><ele>144.0</ele><time>2026-03-29T09:53:36.291Z</time></trkpt><trkpt lat="45.3655476" lon="10.5922011"><ele>144.0</ele><time>2026-03-29T09:53:37.29Z</time></trkpt><trkpt lat="45.3655466" lon="10.5923494"><ele>144.0</ele><time>2026-03-29T09:53:38.29Z</time></trkpt><trkpt lat="45.3655477" lon="10.5924964"><ele>144.0</ele><time>2026-03-29T09:53:39.29Z</time></trkpt><trkpt lat="45.3655403" lon="10.5926218"><ele>144.0</ele><time>2026-03-29T09:53:40.29Z</time></trkpt><trkpt lat="45.3655317" lon="10.5927362"><ele>144.0</ele><time>2026-03-29T09:53:41.29Z</time></trkpt><trkpt lat="45.3655229" lon="10.5928339"><ele>144.0</ele><time>2026-03-29T09:53:42.29Z</time></trkpt><trkpt lat="45.3655197" lon="10.5929715"><ele>144.0</ele><time>2026-03-29T09:53:44.291Z</time></trkpt><trkpt lat="45.365572" lon="10.5930272"><ele>144.0</ele><time>2026-03-29T09:53:47.291Z</time></trkpt><trkpt lat="45.365656" lon="10.5929542"><ele>144.0</ele><time>2026-03-29T09:53:50.29Z</time></trkpt><trkpt lat="45.3656928" lon="10.5928592"><ele>144.0</ele><time>2026-03-29T09:53:51.291Z</time></trkpt><trkpt lat="45.3657249" lon="10.5927191"><ele>144.0</ele><time>2026-03-29T09:53:52.29Z</time></trkpt><trkpt lat="45.3657542" lon="10.5925227"><ele>144.0</ele><time>2026-03-29T09:53:53.291Z</time></trkpt><trkpt lat="45.3657862" lon="10.592311"><ele>144.0</ele><time>2026-03-29T09:53:54.29Z</time></trkpt><trkpt lat="45.36582" lon="10.5921085"><ele>144.0</ele><time>2026-03-29T09:53:55.291Z</time></trkpt><trkpt lat="45.3658467" lon="10.5919144"><ele>144.0</ele><time>2026-03-29T09:53:56.29Z</time></trkpt><trkpt lat="45.365864" lon="10.5917243"><ele>144.0</ele><time>2026-03-29T09:53:57.29Z</time></trkpt><trkpt lat="45.3658832" lon="10.5915229"><ele>144.0</ele><time>2026-03-29T09:53:58.291Z</time></trkpt><trkpt lat="45.3659155" lon="10.5913055"><ele>144.0</ele><time>2026-03-29T09:53:59.29Z</time></trkpt><trkpt lat="45.3659489" lon="10.5910854"><ele>144.0</ele><time>2026-03-29T09:54:00.29Z</time></trkpt><trkpt lat="45.3659769" lon="10.5908718"><ele>144.0</ele><time>2026-03-29T09:54:01.291Z</time></trkpt><trkpt lat="45.3659974" lon="10.5906985"><ele>144.0</ele><time>2026-03-29T09:54:02.291Z</time></trkpt><trkpt lat="45.3660113" lon="10.5905615"><ele>144.0</ele><time>2026-03-29T09:54:03.291Z</time></trkpt><trkpt lat="45.3660295" lon="10.5904529"><ele>144.0</ele><time>2026-03-29T09:54:04.291Z</time></trkpt><trkpt lat="45.3660622" lon="10.5903711"><ele>144.0</ele><time>2026-03-29T09:54:05.291Z</time></trkpt><trkpt lat="45.3661592" lon="10.5902697"><ele>144.0</ele><time>2026-03-29T09:54:07.291Z</time></trkpt><trkpt lat="45.3662433" lon="10.5901394"><ele>144.0</ele><time>2026-03-29T09:54:09.291Z</time></trkpt><trkpt lat="45.366273" lon="10.5900508"><ele>144.0</ele><time>2026-03-29T09:54:10.291Z</time></trkpt><trkpt lat="45.3663473" lon="10.5899304"><ele>144.0</ele><time>2026-03-29T09:54:12.29Z</time></trkpt><trkpt lat="45.3664103" lon="10.5899044"><ele>144.0</ele><time>2026-03-29T09:54:13.291Z</time></trkpt><trkpt lat="45.3664932" lon="10.5898985"><ele>144.75</ele><time>2026-03-29T09:54:14.29Z</time></trkpt><trkpt lat="45.366595" lon="10.5899148"><ele>145.5</ele><time>2026-03-29T09:54:15.291Z</time></trkpt><trkpt lat="45.3667172" lon="10.5899473"><ele>146.25</ele><time>2026-03-29T09:54:16.29Z</time></trkpt><trkpt lat="45.366838" lon="10.5899875"><ele>147.0</ele><time>2026-03-29T09:54:17.291Z</time></trkpt><trkpt lat="45.3669364" lon="10.590026"><ele>147.0</ele><time>2026-03-29T09:54:18.29Z</time></trkpt><trkpt lat="45.367017" lon="10.5900578"><ele>147.0</ele><time>2026-03-29T09:54:19.29Z</time></trkpt><trkpt lat="45.3670863" lon="10.5900793"><ele>147.0</ele><time>2026-03-29T09:54:20.291Z</time></trkpt><trkpt lat="45.3671624" lon="10.5901172"><ele>147.0</ele><time>2026-03-29T09:54:22.291Z</time></trkpt><trkpt lat="45.367238" lon="10.5901338"><ele>147.0</ele><time>2026-03-29T09:54:24.291Z</time></trkpt><trkpt lat="45.3673006" lon="10.5901501"><ele>147.0</ele><time>2026-03-29T09:54:25.29Z</time></trkpt><trkpt lat="45.3673749" lon="10.5901678"><ele>147.33333333333334</ele><time>2026-03-29T09:54:26.29Z</time></trkpt><trkpt lat="45.3674526" lon="10.5901885"><ele>147.66666666666666</ele><time>2026-03-29T09:54:27.291Z</time></trkpt><trkpt lat="45.3675209" lon="10.5902132"><ele>148.0</ele><time>2026-03-29T09:54:28.291Z</time></trkpt><trkpt lat="45.3675798" lon="10.5902504"><ele>148.33333333333331</ele><time>2026-03-29T09:54:29.291Z</time></trkpt><trkpt lat="45.3676371" lon="10.5902899"><ele>148.66666666666666</ele><time>2026-03-29T09:54:30.29Z</time></trkpt><trkpt lat="45.3677237" lon="10.590409"><ele>149.0</ele><time>2026-03-29T09:54:32.29Z</time></trkpt><trkpt lat="45.3678066" lon="10.5905138"><ele>149.5</ele><time>2026-03-29T09:54:34.291Z</time></trkpt><trkpt lat="45.3678733" lon="10.5905227"><ele>150.0</ele><time>2026-03-29T09:54:35.291Z</time></trkpt><trkpt lat="45.367956" lon="10.5905137"><ele>150.5</ele><time>2026-03-29T09:54:36.291Z</time></trkpt><trkpt lat="45.3680553" lon="10.5904925"><ele>151.0</ele><time>2026-03-29T09:54:37.29Z</time></trkpt><trkpt lat="45.3681554" lon="10.5904781"><ele>151.5</ele><time>2026-03-29T09:54:38.291Z</time></trkpt><trkpt lat="45.3682521" lon="10.5904852"><ele>152.0</ele><time>2026-03-29T09:54:39.291Z</time></trkpt><trkpt lat="45.3683252" lon="10.5904969"><ele>150.79999999999998</ele><time>2026-03-29T09:54:40.29Z</time></trkpt><trkpt lat="45.3684089" lon="10.590508"><ele>149.6</ele><time>2026-03-29T09:54:42.291Z</time></trkpt><trkpt lat="45.368447" lon="10.5905894"><ele>148.39999999999998</ele><time>2026-03-29T09:54:45.29Z</time></trkpt><trkpt lat="45.3684228" lon="10.5907382"><ele>147.2</ele><time>2026-03-29T09:54:47.291Z</time></trkpt><trkpt lat="45.3684004" lon="10.5908585"><ele>146.0</ele><time>2026-03-29T09:54:48.291Z</time></trkpt><trkpt lat="45.3683759" lon="10.5910052"><ele>146.0</ele><time>2026-03-29T09:54:49.29Z</time></trkpt><trkpt lat="45.3683494" lon="10.5911637"><ele>146.0</ele><time>2026-03-29T09:54:50.291Z</time></trkpt><trkpt lat="45.3683173" lon="10.5913421"><ele>146.0</ele><time>2026-03-29T09:54:51.291Z</time></trkpt><trkpt lat="45.3682851" lon="10.5915361"><ele>146.0</ele><time>2026-03-29T09:54:52.291Z</time></trkpt><trkpt lat="45.3682532" lon="10.5917153"><ele>146.25</ele><time>2026-03-29T09:54:53.291Z</time></trkpt><trkpt lat="45.368228" lon="10.591892"><ele>146.5</ele><time>2026-03-29T09:54:54.291Z</time></trkpt><trkpt lat="45.368205" lon="10.592069"><ele>146.75</ele><time>2026-03-29T09:54:55.29Z</time></trkpt><trkpt lat="45.3681739" lon="10.5922442"><ele>147.0</ele><time>2026-03-29T09:54:56.29Z</time></trkpt><trkpt lat="45.3681432" lon="10.5924075"><ele>147.0</ele><time>2026-03-29T09:54:57.29Z</time></trkpt><trkpt lat="45.3681196" lon="10.5925627"><ele>147.0</ele><time>2026-03-29T09:54:58.29Z</time></trkpt><trkpt lat="45.3681038" lon="10.5927017"><ele>147.0</ele><time>2026-03-29T09:54:59.289Z</time></trkpt><trkpt lat="45.3680967" lon="10.5928386"><ele>147.0</ele><time>2026-03-29T09:55:00.289Z</time></trkpt><trkpt lat="45.368095" lon="10.5929594"><ele>147.0</ele><time>2026-03-29T09:55:01.29Z</time></trkpt><trkpt lat="45.3680979" lon="10.5930655"><ele>147.0</ele><time>2026-03-29T09:55:02.29Z</time></trkpt><trkpt lat="45.3681413" lon="10.5932116"><ele>147.0</ele><time>2026-03-29T09:55:04.29Z</time></trkpt><trkpt lat="45.3682444" lon="10.5932672"><ele>147.0</ele><time>2026-03-29T09:55:06.29Z</time></trkpt><trkpt lat="45.3683336" lon="10.5932627"><ele>147.0</ele><time>2026-03-29T09:55:07.289Z</time></trkpt><trkpt lat="45.3684261" lon="10.5932647"><ele>147.0</ele><time>2026-03-29T09:55:08.29Z</time></trkpt><trkpt lat="45.3685115" lon="10.5932842"><ele>147.0</ele><time>2026-03-29T09:55:09.29Z</time></trkpt><trkpt lat="45.3685835" lon="10.5933147"><ele>147.0</ele><time>2026-03-29T09:55:10.29Z</time></trkpt><trkpt lat="45.3686377" lon="10.5933629"><ele>147.0</ele><time>2026-03-29T09:55:11.289Z</time></trkpt><trkpt lat="45.3686831" lon="10.5934312"><ele>147.0</ele><time>2026-03-29T09:55:12.289Z</time></trkpt><trkpt lat="45.368724" lon="10.5935295"><ele>147.0</ele><time>2026-03-29T09:55:13.289Z</time></trkpt><trkpt lat="45.3687597" lon="10.5936568"><ele>147.0</ele><time>2026-03-29T09:55:14.289Z</time></trkpt><trkpt lat="45.368797" lon="10.5937898"><ele>147.33333333333334</ele><time>2026-03-29T09:55:15.289Z</time></trkpt><trkpt lat="45.3688371" lon="10.5939152"><ele>147.66666666666666</ele><time>2026-03-29T09:55:16.289Z</time></trkpt><trkpt lat="45.3688792" lon="10.5940223"><ele>148.0</ele><time>2026-03-29T09:55:17.29Z</time></trkpt><trkpt lat="45.3689314" lon="10.5941151"><ele>148.33333333333331</ele><time>2026-03-29T09:55:18.289Z</time></trkpt><trkpt lat="45.3689775" lon="10.5942065"><ele>148.66666666666666</ele><time>2026-03-29T09:55:19.289Z</time></trkpt><trkpt lat="45.369009" lon="10.5943043"><ele>149.0</ele><time>2026-03-29T09:55:20.289Z</time></trkpt><trkpt lat="45.369024" lon="10.5944157"><ele>145.6</ele><time>2026-03-29T09:55:21.29Z</time></trkpt><trkpt lat="45.3690272" lon="10.5945423"><ele>142.2</ele><time>2026-03-29T09:55:22.29Z</time></trkpt><trkpt lat="45.3690211" lon="10.5946784"><ele>138.79999999999998</ele><time>2026-03-29T09:55:23.29Z</time></trkpt><trkpt lat="45.369" lon="10.5948354"><ele>135.4</ele><time>2026-03-29T09:55:24.289Z</time></trkpt><trkpt lat="45.3689709" lon="10.595"><ele>132.0</ele><time>2026-03-29T09:55:25.29Z</time></trkpt><trkpt lat="45.3689565" lon="10.5951614"><ele>132.0</ele><time>2026-03-29T09:55:26.29Z</time></trkpt><trkpt lat="45.3689518" lon="10.5953165"><ele>132.0</ele><time>2026-03-29T09:55:27.289Z</time></trkpt><trkpt lat="45.3689586" lon="10.5954643"><ele>132.0</ele><time>2026-03-29T09:55:28.29Z</time></trkpt><trkpt lat="45.368976" lon="10.5955982"><ele>132.0</ele><time>2026-03-29T09:55:29.289Z</time></trkpt><trkpt lat="45.3690079" lon="10.5957193"><ele>132.0</ele><time>2026-03-29T09:55:30.289Z</time></trkpt><trkpt lat="45.3690612" lon="10.5958362"><ele>132.0</ele><time>2026-03-29T09:55:31.289Z</time></trkpt><trkpt lat="45.3691206" lon="10.5959653"><ele>132.0</ele><time>2026-03-29T09:55:32.289Z</time></trkpt><trkpt lat="45.3691592" lon="10.5960952"><ele>132.0</ele><time>2026-03-29T09:55:33.29Z</time></trkpt><trkpt lat="45.3692028" lon="10.5962032"><ele>132.0</ele><time>2026-03-29T09:55:34.29Z</time></trkpt><trkpt lat="45.369238" lon="10.5962981"><ele>132.0</ele><time>2026-03-29T09:55:35.289Z</time></trkpt><trkpt lat="45.3692738" lon="10.596386"><ele>132.0</ele><time>2026-03-29T09:55:36.29Z</time></trkpt><trkpt lat="45.3692665" lon="10.5965216"><ele>131.0</ele><time>2026-03-29T09:55:38.289Z</time></trkpt><trkpt lat="45.3691378" lon="10.5966371"><ele>130.0</ele><time>2026-03-29T09:55:40.29Z</time></trkpt><trkpt lat="45.3690168" lon="10.5967169"><ele>129.0</ele><time>2026-03-29T09:55:41.29Z</time></trkpt><trkpt lat="45.3688857" lon="10.5968343"><ele>128.0</ele><time>2026-03-29T09:55:42.29Z</time></trkpt><trkpt lat="45.3687619" lon="10.5969467"><ele>131.25</ele><time>2026-03-29T09:55:43.29Z</time></trkpt><trkpt lat="45.368643" lon="10.5970212"><ele>134.5</ele><time>2026-03-29T09:55:44.29Z</time></trkpt><trkpt lat="45.3685258" lon="10.597038"><ele>137.75</ele><time>2026-03-29T09:55:45.289Z</time></trkpt><trkpt lat="45.3684041" lon="10.5970011"><ele>141.0</ele><time>2026-03-29T09:55:46.289Z</time></trkpt><trkpt lat="45.3682857" lon="10.5969271"><ele>141.0</ele><time>2026-03-29T09:55:47.29Z</time></trkpt><trkpt lat="45.368151" lon="10.596817"><ele>141.0</ele><time>2026-03-29T09:55:48.29Z</time></trkpt><trkpt lat="45.3680038" lon="10.5966986"><ele>141.0</ele><time>2026-03-29T09:55:49.29Z</time></trkpt><trkpt lat="45.3678622" lon="10.5965983"><ele>144.0</ele><time>2026-03-29T09:55:50.29Z</time></trkpt><trkpt lat="45.3677186" lon="10.5965331"><ele>147.0</ele><time>2026-03-29T09:55:51.289Z</time></trkpt><trkpt lat="45.3675756" lon="10.5965085"><ele>150.0</ele><time>2026-03-29T09:55:52.289Z</time></trkpt><trkpt lat="45.3674358" lon="10.5965367"><ele>153.0</ele><time>2026-03-29T09:55:53.289Z</time></trkpt><trkpt lat="45.3673088" lon="10.5966111"><ele>152.0</ele><time>2026-03-29T09:55:54.289Z</time></trkpt><trkpt lat="45.367163" lon="10.5967391"><ele>151.0</ele><time>2026-03-29T09:55:55.29Z</time></trkpt><trkpt lat="45.3670146" lon="10.5968913"><ele>150.0</ele><time>2026-03-29T09:55:56.29Z</time></trkpt><trkpt lat="45.366873" lon="10.5970412"><ele>150.0</ele><time>2026-03-29T09:55:57.29Z</time></trkpt><trkpt lat="45.3667219" lon="10.5971822"><ele>150.0</ele><time>2026-03-29T09:55:58.29Z</time></trkpt><trkpt lat="45.3665652" lon="10.5973256"><ele>150.0</ele><time>2026-03-29T09:55:59.289Z</time></trkpt><trkpt lat="45.3664184" lon="10.5974647"><ele>147.66666666666666</ele><time>2026-03-29T09:56:00.289Z</time></trkpt><trkpt lat="45.3662745" lon="10.5975874"><ele>145.33333333333331</ele><time>2026-03-29T09:56:01.29Z</time></trkpt><trkpt lat="45.3661367" lon="10.5977013"><ele>143.0</ele><time>2026-03-29T09:56:02.289Z</time></trkpt><trkpt lat="45.3660096" lon="10.5978024"><ele>143.25</ele><time>2026-03-29T09:56:03.289Z</time></trkpt><trkpt lat="45.3658896" lon="10.5978967"><ele>143.5</ele><time>2026-03-29T09:56:04.289Z</time></trkpt><trkpt lat="45.3657658" lon="10.5979737"><ele>143.75</ele><time>2026-03-29T09:56:05.29Z</time></trkpt><trkpt lat="45.3656382" lon="10.5980262"><ele>144.0</ele><time>2026-03-29T09:56:06.289Z</time></trkpt><trkpt lat="45.365509" lon="10.5980557"><ele>144.0</ele><time>2026-03-29T09:56:07.29Z</time></trkpt><trkpt lat="45.3653959" lon="10.5980729"><ele>144.0</ele><time>2026-03-29T09:56:08.29Z</time></trkpt><trkpt lat="45.365291" lon="10.5980755"><ele>144.0</ele><time>2026-03-29T09:56:09.289Z</time></trkpt><trkpt lat="45.3652055" lon="10.5980732"><ele>144.0</ele><time>2026-03-29T09:56:10.289Z</time></trkpt><trkpt lat="45.3651392" lon="10.5980621"><ele>144.0</ele><time>2026-03-29T09:56:11.289Z</time></trkpt><trkpt lat="45.3650535" lon="10.5980369"><ele>144.0</ele><time>2026-03-29T09:56:13.29Z</time></trkpt><trkpt lat="45.3649802" lon="10.5979518"><ele>144.0</ele><time>2026-03-29T09:56:15.29Z</time></trkpt><trkpt lat="45.3649172" lon="10.597893"><ele>144.0</ele><time>2026-03-29T09:56:16.289Z</time></trkpt><trkpt lat="45.3648334" lon="10.5978484"><ele>144.0</ele><time>2026-03-29T09:56:17.289Z</time></trkpt><trkpt lat="45.3647457" lon="10.5978379"><ele>144.0</ele><time>2026-03-29T09:56:18.289Z</time></trkpt><trkpt lat="45.3646659" lon="10.597883"><ele>144.0</ele><time>2026-03-29T09:56:19.289Z</time></trkpt><trkpt lat="45.3646034" lon="10.5979771"><ele>142.75</ele><time>2026-03-29T09:56:20.29Z</time></trkpt><trkpt lat="45.3645761" lon="10.5981203"><ele>141.5</ele><time>2026-03-29T09:56:21.289Z</time></trkpt><trkpt lat="45.3645795" lon="10.5982841"><ele>140.25</ele><time>2026-03-29T09:56:22.29Z</time></trkpt><trkpt lat="45.3645904" lon="10.5984534"><ele>139.0</ele><time>2026-03-29T09:56:23.29Z</time></trkpt><trkpt lat="45.3645699" lon="10.5986111"><ele>140.0</ele><time>2026-03-29T09:56:24.29Z</time></trkpt><trkpt lat="45.364515" lon="10.5987817"><ele>141.0</ele><time>2026-03-29T09:56:25.29Z</time></trkpt><trkpt lat="45.3644303" lon="10.5989764"><ele>142.0</ele><time>2026-03-29T09:56:26.289Z</time></trkpt><trkpt lat="45.3643266" lon="10.5991932"><ele>142.0</ele><time>2026-03-29T09:56:27.29Z</time></trkpt><trkpt lat="45.3642215" lon="10.5994329"><ele>142.0</ele><time>2026-03-29T09:56:28.29Z</time></trkpt><trkpt lat="45.3641178" lon="10.5996876"><ele>142.0</ele><time>2026-03-29T09:56:29.289Z</time></trkpt><trkpt lat="45.3640129" lon="10.599952"><ele>142.33333333333334</ele><time>2026-03-29T09:56:30.29Z</time></trkpt><trkpt lat="45.3639044" lon="10.6002219"><ele>142.66666666666666</ele><time>2026-03-29T09:56:31.289Z</time></trkpt><trkpt lat="45.363792" lon="10.6005076"><ele>143.0</ele><time>2026-03-29T09:56:32.289Z</time></trkpt><trkpt lat="45.3636725" lon="10.6008014"><ele>143.0</ele><time>2026-03-29T09:56:33.289Z</time></trkpt><trkpt lat="45.3635413" lon="10.6011093"><ele>143.0</ele><time>2026-03-29T09:56:34.29Z</time></trkpt><trkpt lat="45.3634144" lon="10.6014226"><ele>145.0</ele><time>2026-03-29T09:56:35.289Z</time></trkpt><trkpt lat="45.3632984" lon="10.6017422"><ele>147.0</ele><time>2026-03-29T09:56:36.29Z</time></trkpt><trkpt lat="45.3631801" lon="10.6020597"><ele>149.5</ele><time>2026-03-29T09:56:37.289Z</time></trkpt><trkpt lat="45.3630617" lon="10.6023851"><ele>152.0</ele><time>2026-03-29T09:56:38.289Z</time></trkpt><trkpt lat="45.3629478" lon="10.6027052"><ele>148.66666666666666</ele><time>2026-03-29T09:56:39.289Z</time></trkpt><trkpt lat="45.3628503" lon="10.6030061"><ele>145.33333333333334</ele><time>2026-03-29T09:56:40.29Z</time></trkpt><trkpt lat="45.3627639" lon="10.6032813"><ele>142.0</ele><time>2026-03-29T09:56:41.289Z</time></trkpt><trkpt lat="45.3626771" lon="10.603524"><ele>144.0</ele><time>2026-03-29T09:56:42.289Z</time></trkpt><trkpt lat="45.3625873" lon="10.6037472"><ele>146.0</ele><time>2026-03-29T09:56:43.289Z</time></trkpt><trkpt lat="45.3625041" lon="10.6039469"><ele>148.0</ele><time>2026-03-29T09:56:44.29Z</time></trkpt><trkpt lat="45.3624231" lon="10.6041172"><ele>148.0</ele><time>2026-03-29T09:56:45.289Z</time></trkpt><trkpt lat="45.3623569" lon="10.6042583"><ele>148.0</ele><time>2026-03-29T09:56:46.29Z</time></trkpt><trkpt lat="45.3622956" lon="10.6043567"><ele>148.0</ele><time>2026-03-29T09:56:47.29Z</time></trkpt><trkpt lat="45.3622354" lon="10.6044259"><ele>148.0</ele><time>2026-03-29T09:56:48.289Z</time></trkpt><trkpt lat="45.3621685" lon="10.6044603"><ele>148.0</ele><time>2026-03-29T09:56:49.289Z</time></trkpt><trkpt lat="45.3620945" lon="10.604458"><ele>148.0</ele><time>2026-03-29T09:56:50.29Z</time></trkpt><trkpt lat="45.362007" lon="10.6044439"><ele>146.25</ele><time>2026-03-29T09:56:51.29Z</time></trkpt><trkpt lat="45.3618863" lon="10.6044092"><ele>144.5</ele><time>2026-03-29T09:56:52.289Z</time></trkpt><trkpt lat="45.3617553" lon="10.6043671"><ele>142.75</ele><time>2026-03-29T09:56:53.289Z</time></trkpt><trkpt lat="45.3616339" lon="10.6043138"><ele>141.0</ele><time>2026-03-29T09:56:54.29Z</time></trkpt><trkpt lat="45.3615166" lon="10.604238"><ele>141.0</ele><time>2026-03-29T09:56:55.29Z</time></trkpt><trkpt lat="45.3614082" lon="10.6041389"><ele>141.0</ele><time>2026-03-29T09:56:56.29Z</time></trkpt><trkpt lat="45.3612975" lon="10.6040265"><ele>141.0</ele><time>2026-03-29T09:56:57.289Z</time></trkpt><trkpt lat="45.3611792" lon="10.6038959"><ele>141.0</ele><time>2026-03-29T09:56:58.29Z</time></trkpt><trkpt lat="45.3610562" lon="10.6037453"><ele>140.0</ele><time>2026-03-29T09:56:59.289Z</time></trkpt><trkpt lat="45.3609419" lon="10.6035913"><ele>139.0</ele><time>2026-03-29T09:57:00.29Z</time></trkpt><trkpt lat="45.3608435" lon="10.6034506"><ele>138.0</ele><time>2026-03-29T09:57:01.29Z</time></trkpt><trkpt lat="45.3607568" lon="10.6033028"><ele>137.0</ele><time>2026-03-29T09:57:02.29Z</time></trkpt><trkpt lat="45.3606768" lon="10.6031487"><ele>137.0</ele><time>2026-03-29T09:57:03.289Z</time></trkpt><trkpt lat="45.3605968" lon="10.6029876"><ele>137.0</ele><time>2026-03-29T09:57:04.289Z</time></trkpt><trkpt lat="45.3605169" lon="10.6028198"><ele>137.0</ele><time>2026-03-29T09:57:05.289Z</time></trkpt><trkpt lat="45.3604296" lon="10.602649"><ele>137.0</ele><time>2026-03-29T09:57:06.289Z</time></trkpt><trkpt lat="45.3603463" lon="10.6024859"><ele>137.0</ele><time>2026-03-29T09:57:07.29Z</time></trkpt><trkpt lat="45.3602749" lon="10.602331"><ele>137.0</ele><time>2026-03-29T09:57:08.289Z</time></trkpt><trkpt lat="45.3602221" lon="10.6021601"><ele>137.0</ele><time>2026-03-29T09:57:09.289Z</time></trkpt><trkpt lat="45.3601834" lon="10.6019772"><ele>137.0</ele><time>2026-03-29T09:57:10.29Z</time></trkpt><trkpt lat="45.3601498" lon="10.6018025"><ele>137.0</ele><time>2026-03-29T09:57:11.289Z</time></trkpt><trkpt lat="45.3601129" lon="10.6016461"><ele>137.0</ele><time>2026-03-29T09:57:12.29Z</time></trkpt><trkpt lat="45.3600722" lon="10.6014998"><ele>137.0</ele><time>2026-03-29T09:57:13.29Z</time></trkpt><trkpt lat="45.3600277" lon="10.6013654"><ele>137.0</ele><time>2026-03-29T09:57:14.289Z</time></trkpt><trkpt lat="45.3599823" lon="10.6012447"><ele>137.0</ele><time>2026-03-29T09:57:15.289Z</time></trkpt><trkpt lat="45.3599353" lon="10.6011324"><ele>137.0</ele><time>2026-03-29T09:57:16.29Z</time></trkpt><trkpt lat="45.3598762" lon="10.6010189"><ele>137.0</ele><time>2026-03-29T09:57:17.289Z</time></trkpt><trkpt lat="45.3597901" lon="10.6008941"><ele>137.0</ele><time>2026-03-29T09:57:18.29Z</time></trkpt><trkpt lat="45.3596866" lon="10.6007595"><ele>137.0</ele><time>2026-03-29T09:57:19.289Z</time></trkpt><trkpt lat="45.3595799" lon="10.6006111"><ele>137.0</ele><time>2026-03-29T09:57:20.289Z</time></trkpt><trkpt lat="45.3594803" lon="10.6004711"><ele>137.0</ele><time>2026-03-29T09:57:21.29Z</time></trkpt><trkpt lat="45.3593915" lon="10.6003255"><ele>137.0</ele><time>2026-03-29T09:57:22.29Z</time></trkpt><trkpt lat="45.3593141" lon="10.6001853"><ele>137.0</ele><time>2026-03-29T09:57:23.29Z</time></trkpt><trkpt lat="45.3592461" lon="10.6000481"><ele>136.0</ele><time>2026-03-29T09:57:24.289Z</time></trkpt><trkpt lat="45.3591946" lon="10.5999059"><ele>135.0</ele><time>2026-03-29T09:57:25.29Z</time></trkpt><trkpt lat="45.359156" lon="10.5997507"><ele>134.0</ele><time>2026-03-29T09:57:26.289Z</time></trkpt><trkpt lat="45.3591222" lon="10.5995945"><ele>133.0</ele><time>2026-03-29T09:57:27.289Z</time></trkpt><trkpt lat="45.3590856" lon="10.5994619"><ele>132.0</ele><time>2026-03-29T09:57:28.29Z</time></trkpt><trkpt lat="45.3590308" lon="10.5993693"><ele>132.0</ele><time>2026-03-29T09:57:29.289Z</time></trkpt><trkpt lat="45.3589487" lon="10.5992804"><ele>132.0</ele><time>2026-03-29T09:57:30.29Z</time></trkpt><trkpt lat="45.3588429" lon="10.5991777"><ele>132.0</ele><time>2026-03-29T09:57:31.289Z</time></trkpt><trkpt lat="45.358723" lon="10.5990617"><ele>132.0</ele><time>2026-03-29T09:57:32.289Z</time></trkpt><trkpt lat="45.3586054" lon="10.5989418"><ele>132.25</ele><time>2026-03-29T09:57:33.289Z</time></trkpt><trkpt lat="45.3584985" lon="10.5988315"><ele>132.5</ele><time>2026-03-29T09:57:34.29Z</time></trkpt><trkpt lat="45.3584037" lon="10.5987069"><ele>132.75</ele><time>2026-03-29T09:57:35.289Z</time></trkpt><trkpt lat="45.358311" lon="10.5985671"><ele>133.0</ele><time>2026-03-29T09:57:36.29Z</time></trkpt><trkpt lat="45.3582237" lon="10.5984224"><ele>133.20000000000002</ele><time>2026-03-29T09:57:37.289Z</time></trkpt><trkpt lat="45.3581399" lon="10.5982844"><ele>133.4</ele><time>2026-03-29T09:57:38.29Z</time></trkpt><trkpt lat="45.3580698" lon="10.5981579"><ele>133.60000000000002</ele><time>2026-03-29T09:57:39.289Z</time></trkpt><trkpt lat="45.3580246" lon="10.5980572"><ele>133.8</ele><time>2026-03-29T09:57:40.289Z</time></trkpt><trkpt lat="45.3579916" lon="10.5979802"><ele>134.0</ele><time>2026-03-29T09:57:41.29Z</time></trkpt><trkpt lat="45.3579014" lon="10.597877"><ele>133.75</ele><time>2026-03-29T09:57:43.29Z</time></trkpt><trkpt lat="45.3578236" lon="10.5978376"><ele>133.5</ele><time>2026-03-29T09:57:44.29Z</time></trkpt><trkpt lat="45.3576964" lon="10.5978122"><ele>133.25</ele><time>2026-03-29T09:57:45.29Z</time></trkpt><trkpt lat="45.3575414" lon="10.5977823"><ele>133.0</ele><time>2026-03-29T09:57:46.289Z</time></trkpt><trkpt lat="45.3573676" lon="10.5977261"><ele>132.33333333333334</ele><time>2026-03-29T09:57:47.289Z</time></trkpt><trkpt lat="45.3571907" lon="10.5976719"><ele>131.66666666666666</ele><time>2026-03-29T09:57:48.29Z</time></trkpt><trkpt lat="45.3570188" lon="10.5976303"><ele>131.0</ele><time>2026-03-29T09:57:49.29Z</time></trkpt><trkpt lat="45.3568645" lon="10.5976062"><ele>131.0</ele><time>2026-03-29T09:57:50.289Z</time></trkpt><trkpt lat="45.3567082" lon="10.5976138"><ele>131.0</ele><time>2026-03-29T09:57:51.289Z</time></trkpt><trkpt lat="45.3565517" lon="10.5976262"><ele>131.0</ele><time>2026-03-29T09:57:52.29Z</time></trkpt><trkpt lat="45.3563966" lon="10.5976523"><ele>130.66666666666666</ele><time>2026-03-29T09:57:53.29Z</time></trkpt><trkpt lat="45.3562477" lon="10.5976799"><ele>130.33333333333334</ele><time>2026-03-29T09:57:54.289Z</time></trkpt><trkpt lat="45.356086" lon="10.5977055"><ele>130.0</ele><time>2026-03-29T09:57:55.29Z</time></trkpt><trkpt lat="45.3559291" lon="10.5977155"><ele>130.0</ele><time>2026-03-29T09:57:56.29Z</time></trkpt><trkpt lat="45.3557842" lon="10.5977113"><ele>130.0</ele><time>2026-03-29T09:57:57.29Z</time></trkpt><trkpt lat="45.3556466" lon="10.5976972"><ele>130.0</ele><time>2026-03-29T09:57:58.289Z</time></trkpt><trkpt lat="45.3555209" lon="10.597653"><ele>130.0</ele><time>2026-03-29T09:57:59.29Z</time></trkpt><trkpt lat="45.3553974" lon="10.5975877"><ele>129.25</ele><time>2026-03-29T09:58:00.289Z</time></trkpt><trkpt lat="45.3552799" lon="10.5975184"><ele>128.5</ele><time>2026-03-29T09:58:01.289Z</time></trkpt><trkpt lat="45.3551595" lon="10.5974513"><ele>127.75</ele><time>2026-03-29T09:58:02.29Z</time></trkpt><trkpt lat="45.3550364" lon="10.5973944"><ele>127.0</ele><time>2026-03-29T09:58:03.29Z</time></trkpt><trkpt lat="45.3549062" lon="10.597363"><ele>127.0</ele><time>2026-03-29T09:58:04.289Z</time></trkpt><trkpt lat="45.3547656" lon="10.5973557"><ele>127.0</ele><time>2026-03-29T09:58:05.289Z</time></trkpt><trkpt lat="45.3546143" lon="10.5973835"><ele>127.0</ele><time>2026-03-29T09:58:06.289Z</time></trkpt><trkpt lat="45.3544639" lon="10.5974327"><ele>127.0</ele><time>2026-03-29T09:58:07.29Z</time></trkpt><trkpt lat="45.3543181" lon="10.5974955"><ele>128.66666666666669</ele><time>2026-03-29T09:58:08.29Z</time></trkpt><trkpt lat="45.3541654" lon="10.5975599"><ele>130.33333333333334</ele><time>2026-03-29T09:58:09.289Z</time></trkpt><trkpt lat="45.3540182" lon="10.5976301"><ele>132.0</ele><time>2026-03-29T09:58:10.289Z</time></trkpt><trkpt lat="45.3538878" lon="10.5977077"><ele>134.25</ele><time>2026-03-29T09:58:11.289Z</time></trkpt><trkpt lat="45.3537693" lon="10.5977789"><ele>136.5</ele><time>2026-03-29T09:58:12.29Z</time></trkpt><trkpt lat="45.3536695" lon="10.5978657"><ele>138.75</ele><time>2026-03-29T09:58:13.29Z</time></trkpt><trkpt lat="45.3535884" lon="10.5980007"><ele>141.0</ele><time>2026-03-29T09:58:14.289Z</time></trkpt><trkpt lat="45.3535273" lon="10.5981887"><ele>141.0</ele><time>2026-03-29T09:58:15.29Z</time></trkpt><trkpt lat="45.3534741" lon="10.5984231"><ele>141.0</ele><time>2026-03-29T09:58:16.29Z</time></trkpt><trkpt lat="45.3534146" lon="10.5986711"><ele>141.0</ele><time>2026-03-29T09:58:17.29Z</time></trkpt><trkpt lat="45.353339" lon="10.5989232"><ele>140.66666666666666</ele><time>2026-03-29T09:58:18.29Z</time></trkpt><trkpt lat="45.3532596" lon="10.5991671"><ele>140.33333333333331</ele><time>2026-03-29T09:58:19.29Z</time></trkpt><trkpt lat="45.3531768" lon="10.5993973"><ele>140.0</ele><time>2026-03-29T09:58:20.29Z</time></trkpt><trkpt lat="45.3530944" lon="10.5996169"><ele>147.33333333333331</ele><time>2026-03-29T09:58:21.289Z</time></trkpt><trkpt lat="45.3530117" lon="10.5998402"><ele>154.66666666666666</ele><time>2026-03-29T09:58:22.29Z</time></trkpt><trkpt lat="45.3529321" lon="10.6000485"><ele>162.0</ele><time>2026-03-29T09:58:23.29Z</time></trkpt><trkpt lat="45.3528483" lon="10.6002309"><ele>158.75</ele><time>2026-03-29T09:58:24.289Z</time></trkpt><trkpt lat="45.3527813" lon="10.600407"><ele>155.5</ele><time>2026-03-29T09:58:25.289Z</time></trkpt><trkpt lat="45.352707" lon="10.6005692"><ele>152.25</ele><time>2026-03-29T09:58:26.29Z</time></trkpt><trkpt lat="45.3526261" lon="10.6007305"><ele>149.0</ele><time>2026-03-29T09:58:27.289Z</time></trkpt><trkpt lat="45.3525225" lon="10.6008726"><ele>149.0</ele><time>2026-03-29T09:58:28.289Z</time></trkpt><trkpt lat="45.3524194" lon="10.6009848"><ele>149.0</ele><time>2026-03-29T09:58:29.289Z</time></trkpt><trkpt lat="45.3523312" lon="10.6010665"><ele>149.0</ele><time>2026-03-29T09:58:30.29Z</time></trkpt><trkpt lat="45.3522559" lon="10.6011188"><ele>149.0</ele><time>2026-03-29T09:58:31.289Z</time></trkpt><trkpt lat="45.3521931" lon="10.6011458"><ele>149.0</ele><time>2026-03-29T09:58:32.29Z</time></trkpt><trkpt lat="45.3521099" lon="10.6011749"><ele>149.2</ele><time>2026-03-29T09:58:34.29Z</time></trkpt><trkpt lat="45.3520803" lon="10.6013258"><ele>149.4</ele><time>2026-03-29T09:58:37.289Z</time></trkpt><trkpt lat="45.3521062" lon="10.6014282"><ele>149.6</ele><time>2026-03-29T09:58:38.289Z</time></trkpt><trkpt lat="45.3521427" lon="10.6015469"><ele>149.8</ele><time>2026-03-29T09:58:39.289Z</time></trkpt><trkpt lat="45.3521764" lon="10.6016633"><ele>150.0</ele><time>2026-03-29T09:58:40.289Z</time></trkpt><trkpt lat="45.3521853" lon="10.6017853"><ele>150.0</ele><time>2026-03-29T09:58:41.288Z</time></trkpt><trkpt lat="45.3521766" lon="10.6018995"><ele>150.0</ele><time>2026-03-29T09:58:42.289Z</time></trkpt><trkpt lat="45.3521482" lon="10.6020336"><ele>150.0</ele><time>2026-03-29T09:58:43.289Z</time></trkpt><trkpt lat="45.3521157" lon="10.6021752"><ele>150.0</ele><time>2026-03-29T09:58:44.289Z</time></trkpt><trkpt lat="45.352071" lon="10.6023479"><ele>150.0</ele><time>2026-03-29T09:58:45.288Z</time></trkpt><trkpt lat="45.3520313" lon="10.6025304"><ele>149.0</ele><time>2026-03-29T09:58:46.289Z</time></trkpt><trkpt lat="45.3519892" lon="10.6026939"><ele>148.0</ele><time>2026-03-29T09:58:47.289Z</time></trkpt><trkpt lat="45.3519453" lon="10.6028545"><ele>147.0</ele><time>2026-03-29T09:58:48.289Z</time></trkpt><trkpt lat="45.351902" lon="10.6030308"><ele>146.0</ele><time>2026-03-29T09:58:49.288Z</time></trkpt><trkpt lat="45.3518541" lon="10.6032198"><ele>146.0</ele><time>2026-03-29T09:58:50.289Z</time></trkpt><trkpt lat="45.3518227" lon="10.6034012"><ele>146.0</ele><time>2026-03-29T09:58:51.289Z</time></trkpt><trkpt lat="45.3518083" lon="10.6035753"><ele>146.0</ele><time>2026-03-29T09:58:52.289Z</time></trkpt><trkpt lat="45.3517984" lon="10.6037391"><ele>146.0</ele><time>2026-03-29T09:58:53.289Z</time></trkpt><trkpt lat="45.3517886" lon="10.6038913"><ele>146.0</ele><time>2026-03-29T09:58:54.289Z</time></trkpt><trkpt lat="45.3517833" lon="10.6040335"><ele>146.0</ele><time>2026-03-29T09:58:55.288Z</time></trkpt><trkpt lat="45.3517754" lon="10.6041672"><ele>146.0</ele><time>2026-03-29T09:58:56.289Z</time></trkpt><trkpt lat="45.3517725" lon="10.604296"><ele>146.0</ele><time>2026-03-29T09:58:57.289Z</time></trkpt><trkpt lat="45.3517749" lon="10.6044183"><ele>146.0</ele><time>2026-03-29T09:58:58.289Z</time></trkpt><trkpt lat="45.3517894" lon="10.6045371"><ele>146.2</ele><time>2026-03-29T09:58:59.289Z</time></trkpt><trkpt lat="45.3518197" lon="10.6046593"><ele>146.39999999999998</ele><time>2026-03-29T09:59:00.289Z</time></trkpt><trkpt lat="45.3518665" lon="10.604772"><ele>146.6</ele><time>2026-03-29T09:59:01.289Z</time></trkpt><trkpt lat="45.3519344" lon="10.6048936"><ele>146.79999999999998</ele><time>2026-03-29T09:59:02.289Z</time></trkpt><trkpt lat="45.3520189" lon="10.6050359"><ele>147.0</ele><time>2026-03-29T09:59:03.288Z</time></trkpt><trkpt lat="45.3521109" lon="10.6051895"><ele>143.75</ele><time>2026-03-29T09:59:04.288Z</time></trkpt><trkpt lat="45.3522101" lon="10.6053568"><ele>140.5</ele><time>2026-03-29T09:59:05.289Z</time></trkpt><trkpt lat="45.3523031" lon="10.6055227"><ele>137.25</ele><time>2026-03-29T09:59:06.289Z</time></trkpt><trkpt lat="45.3523923" lon="10.6056813"><ele>134.0</ele><time>2026-03-29T09:59:07.289Z</time></trkpt><trkpt lat="45.3524814" lon="10.6058418"><ele>134.0</ele><time>2026-03-29T09:59:08.288Z</time></trkpt><trkpt lat="45.352565" lon="10.6060003"><ele>134.0</ele><time>2026-03-29T09:59:09.288Z</time></trkpt><trkpt lat="45.35265" lon="10.6061553"><ele>134.0</ele><time>2026-03-29T09:59:10.288Z</time></trkpt><trkpt lat="45.3527237" lon="10.6063232"><ele>134.0</ele><time>2026-03-29T09:59:11.289Z</time></trkpt><trkpt lat="45.3527814" lon="10.6064975"><ele>134.25</ele><time>2026-03-29T09:59:12.289Z</time></trkpt><trkpt lat="45.3528153" lon="10.6066748"><ele>134.5</ele><time>2026-03-29T09:59:13.289Z</time></trkpt><trkpt lat="45.3528394" lon="10.6068586"><ele>134.75</ele><time>2026-03-29T09:59:14.289Z</time></trkpt><trkpt lat="45.3528574" lon="10.6070576"><ele>135.0</ele><time>2026-03-29T09:59:15.288Z</time></trkpt><trkpt lat="45.3528955" lon="10.6072541"><ele>135.0</ele><time>2026-03-29T09:59:16.288Z</time></trkpt><trkpt lat="45.3529355" lon="10.6074427"><ele>135.0</ele><time>2026-03-29T09:59:17.288Z</time></trkpt><trkpt lat="45.3529682" lon="10.6076337"><ele>135.0</ele><time>2026-03-29T09:59:18.289Z</time></trkpt><trkpt lat="45.3529955" lon="10.6078321"><ele>135.0</ele><time>2026-03-29T09:59:19.289Z</time></trkpt><trkpt lat="45.3530067" lon="10.6080356"><ele>135.33333333333334</ele><time>2026-03-29T09:59:20.289Z</time></trkpt><trkpt lat="45.3530014" lon="10.6082488"><ele>135.66666666666669</ele><time>2026-03-29T09:59:21.288Z</time></trkpt><trkpt lat="45.352985" lon="10.6084717"><ele>136.0</ele><time>2026-03-29T09:59:22.289Z</time></trkpt><trkpt lat="45.3529488" lon="10.6086972"><ele>136.33333333333334</ele><time>2026-03-29T09:59:23.289Z</time></trkpt><trkpt lat="45.3529065" lon="10.6089188"><ele>136.66666666666666</ele><time>2026-03-29T09:59:24.289Z</time></trkpt><trkpt lat="45.3528601" lon="10.6091418"><ele>137.0</ele><time>2026-03-29T09:59:25.289Z</time></trkpt><trkpt lat="45.3528206" lon="10.60938"><ele>137.66666666666666</ele><time>2026-03-29T09:59:26.288Z</time></trkpt><trkpt lat="45.3527902" lon="10.6096202"><ele>138.33333333333334</ele><time>2026-03-29T09:59:27.289Z</time></trkpt><trkpt lat="45.352773" lon="10.609869"><ele>139.0</ele><time>2026-03-29T09:59:28.289Z</time></trkpt><trkpt lat="45.3527686" lon="10.6101311"><ele>140.0</ele><time>2026-03-29T09:59:29.288Z</time></trkpt><trkpt lat="45.3527946" lon="10.6104036"><ele>141.0</ele><time>2026-03-29T09:59:30.289Z</time></trkpt><trkpt lat="45.3528483" lon="10.6106704"><ele>142.0</ele><time>2026-03-29T09:59:31.289Z</time></trkpt><trkpt lat="45.352918" lon="10.6109325"><ele>143.33333333333334</ele><time>2026-03-29T09:59:32.288Z</time></trkpt><trkpt lat="45.3529996" lon="10.6111792"><ele>144.66666666666666</ele><time>2026-03-29T09:59:33.289Z</time></trkpt><trkpt lat="45.3530746" lon="10.6114009"><ele>146.0</ele><time>2026-03-29T09:59:34.288Z</time></trkpt><trkpt lat="45.3531334" lon="10.6116321"><ele>140.33333333333331</ele><time>2026-03-29T09:59:35.289Z</time></trkpt><trkpt lat="45.3531661" lon="10.6118774"><ele>134.66666666666666</ele><time>2026-03-29T09:59:36.289Z</time></trkpt><trkpt lat="45.3531723" lon="10.6121415"><ele>129.0</ele><time>2026-03-29T09:59:37.289Z</time></trkpt><trkpt lat="45.3531695" lon="10.6124098"><ele>129.0</ele><time>2026-03-29T09:59:38.289Z</time></trkpt><trkpt lat="45.3531741" lon="10.6126716"><ele>129.0</ele><time>2026-03-29T09:59:39.289Z</time></trkpt><trkpt lat="45.3531939" lon="10.6129208"><ele>129.0</ele><time>2026-03-29T09:59:40.288Z</time></trkpt><trkpt lat="45.3532269" lon="10.613172"><ele>129.33333333333334</ele><time>2026-03-29T09:59:41.289Z</time></trkpt><trkpt lat="45.3532773" lon="10.6134316"><ele>129.66666666666669</ele><time>2026-03-29T09:59:42.288Z</time></trkpt><trkpt lat="45.3533333" lon="10.6136933"><ele>130.0</ele><time>2026-03-29T09:59:43.289Z</time></trkpt><trkpt lat="45.3533781" lon="10.6139593"><ele>131.0</ele><time>2026-03-29T09:59:44.289Z</time></trkpt><trkpt lat="45.3533916" lon="10.6142369"><ele>132.0</ele><time>2026-03-29T09:59:45.288Z</time></trkpt><trkpt lat="45.3533868" lon="10.6145248"><ele>133.0</ele><time>2026-03-29T09:59:46.288Z</time></trkpt><trkpt lat="45.353373" lon="10.6148316"><ele>133.0</ele><time>2026-03-29T09:59:47.288Z</time></trkpt><trkpt lat="45.3533432" lon="10.6151397"><ele>133.0</ele><time>2026-03-29T09:59:48.288Z</time></trkpt><trkpt lat="45.3533055" lon="10.6154444"><ele>133.0</ele><time>2026-03-29T09:59:49.289Z</time></trkpt><trkpt lat="45.353264" lon="10.6157306"><ele>132.66666666666669</ele><time>2026-03-29T09:59:50.289Z</time></trkpt><trkpt lat="45.3532111" lon="10.6160005"><ele>132.33333333333334</ele><time>2026-03-29T09:59:51.288Z</time></trkpt><trkpt lat="45.3531591" lon="10.6162836"><ele>132.0</ele><time>2026-03-29T09:59:52.289Z</time></trkpt><trkpt lat="45.3531313" lon="10.6165713"><ele>132.0</ele><time>2026-03-29T09:59:53.289Z</time></trkpt><trkpt lat="45.3531173" lon="10.6168749"><ele>132.0</ele><time>2026-03-29T09:59:54.288Z</time></trkpt><trkpt lat="45.3531187" lon="10.6171884"><ele>132.0</ele><time>2026-03-29T09:59:55.289Z</time></trkpt><trkpt lat="45.3531222" lon="10.6175055"><ele>132.66666666666666</ele><time>2026-03-29T09:59:56.288Z</time></trkpt><trkpt lat="45.3531231" lon="10.6178245"><ele>133.33333333333331</ele><time>2026-03-29T09:59:57.289Z</time></trkpt><trkpt lat="45.3531301" lon="10.6181311"><ele>134.0</ele><time>2026-03-29T09:59:58.288Z</time></trkpt><trkpt lat="45.3531388" lon="10.6184083"><ele>134.66666666666666</ele><time>2026-03-29T09:59:59.288Z</time></trkpt><trkpt lat="45.3531626" lon="10.6186761"><ele>135.33333333333334</ele><time>2026-03-29T10:00:00.289Z</time></trkpt><trkpt lat="45.3531971" lon="10.618935"><ele>136.0</ele><time>2026-03-29T10:00:01.289Z</time></trkpt><trkpt lat="45.3532191" lon="10.6191887"><ele>136.0</ele><time>2026-03-29T10:00:02.288Z</time></trkpt><trkpt lat="45.35325" lon="10.6194416"><ele>136.0</ele><time>2026-03-29T10:00:03.288Z</time></trkpt><trkpt lat="45.3532998" lon="10.6196884"><ele>136.0</ele><time>2026-03-29T10:00:04.288Z</time></trkpt><trkpt lat="45.3533654" lon="10.6199234"><ele>135.66666666666669</ele><time>2026-03-29T10:00:05.289Z</time></trkpt><trkpt lat="45.3534457" lon="10.6201571"><ele>135.33333333333334</ele><time>2026-03-29T10:00:06.289Z</time></trkpt><trkpt lat="45.353552" lon="10.6203742"><ele>135.0</ele><time>2026-03-29T10:00:07.288Z</time></trkpt><trkpt lat="45.3536773" lon="10.6205764"><ele>135.0</ele><time>2026-03-29T10:00:08.289Z</time></trkpt><trkpt lat="45.3538129" lon="10.6207607"><ele>135.0</ele><time>2026-03-29T10:00:09.288Z</time></trkpt><trkpt lat="45.3539466" lon="10.62093"><ele>135.0</ele><time>2026-03-29T10:00:10.288Z</time></trkpt><trkpt lat="45.3540905" lon="10.6210677"><ele>137.66666666666666</ele><time>2026-03-29T10:00:11.288Z</time></trkpt><trkpt lat="45.3542544" lon="10.6212039"><ele>140.33333333333331</ele><time>2026-03-29T10:00:12.289Z</time></trkpt><trkpt lat="45.3544257" lon="10.6213363"><ele>143.0</ele><time>2026-03-29T10:00:13.289Z</time></trkpt><trkpt lat="45.3546028" lon="10.6214751"><ele>142.66666666666666</ele><time>2026-03-29T10:00:14.289Z</time></trkpt><trkpt lat="45.3547741" lon="10.6216171"><ele>142.33333333333334</ele><time>2026-03-29T10:00:15.288Z</time></trkpt><trkpt lat="45.3549274" lon="10.6217434"><ele>142.0</ele><time>2026-03-29T10:00:16.288Z</time></trkpt><trkpt lat="45.3550628" lon="10.621861"><ele>142.0</ele><time>2026-03-29T10:00:17.288Z</time></trkpt><trkpt lat="45.3551776" lon="10.6219691"><ele>142.0</ele><time>2026-03-29T10:00:18.289Z</time></trkpt><trkpt lat="45.3552759" lon="10.622072"><ele>142.0</ele><time>2026-03-29T10:00:19.289Z</time></trkpt><trkpt lat="45.3553689" lon="10.6221654"><ele>142.0</ele><time>2026-03-29T10:00:20.289Z</time></trkpt><trkpt lat="45.3554548" lon="10.6222515"><ele>142.79999999999998</ele><time>2026-03-29T10:00:21.288Z</time></trkpt><trkpt lat="45.3555391" lon="10.6223395"><ele>143.6</ele><time>2026-03-29T10:00:22.289Z</time></trkpt><trkpt lat="45.3556189" lon="10.6224246"><ele>144.39999999999998</ele><time>2026-03-29T10:00:23.289Z</time></trkpt><trkpt lat="45.3556964" lon="10.6225065"><ele>145.2</ele><time>2026-03-29T10:00:24.289Z</time></trkpt><trkpt lat="45.3557672" lon="10.622585"><ele>146.0</ele><time>2026-03-29T10:00:25.289Z</time></trkpt><trkpt lat="45.3558414" lon="10.6226564"><ele>146.0</ele><time>2026-03-29T10:00:26.288Z</time></trkpt><trkpt lat="45.3559215" lon="10.6227441"><ele>146.0</ele><time>2026-03-29T10:00:27.288Z</time></trkpt><trkpt lat="45.3560099" lon="10.6228328"><ele>146.0</ele><time>2026-03-29T10:00:28.289Z</time></trkpt><trkpt lat="45.3560973" lon="10.6229107"><ele>146.0</ele><time>2026-03-29T10:00:29.289Z</time></trkpt><trkpt lat="45.3561762" lon="10.622981"><ele>146.0</ele><time>2026-03-29T10:00:30.288Z</time></trkpt><trkpt lat="45.3562543" lon="10.6230461"><ele>147.8</ele><time>2026-03-29T10:00:31.288Z</time></trkpt><trkpt lat="45.3563415" lon="10.6231024"><ele>149.6</ele><time>2026-03-29T10:00:32.289Z</time></trkpt><trkpt lat="45.3564342" lon="10.623171"><ele>151.4</ele><time>2026-03-29T10:00:33.289Z</time></trkpt><trkpt lat="45.356528" lon="10.6232347"><ele>153.2</ele><time>2026-03-29T10:00:34.289Z</time></trkpt><trkpt lat="45.3566121" lon="10.6233001"><ele>155.0</ele><time>2026-03-29T10:00:35.289Z</time></trkpt><trkpt lat="45.3566966" lon="10.623356"><ele>155.0</ele><time>2026-03-29T10:00:36.289Z</time></trkpt><trkpt lat="45.3567809" lon="10.6234132"><ele>155.0</ele><time>2026-03-29T10:00:37.289Z</time></trkpt><trkpt lat="45.3568616" lon="10.6234711"><ele>155.0</ele><time>2026-03-29T10:00:38.288Z</time></trkpt><trkpt lat="45.3569428" lon="10.6235357"><ele>155.0</ele><time>2026-03-29T10:00:39.289Z</time></trkpt><trkpt lat="45.3570171" lon="10.6236059"><ele>155.0</ele><time>2026-03-29T10:00:40.288Z</time></trkpt><trkpt lat="45.3570795" lon="10.6236729"><ele>155.0</ele><time>2026-03-29T10:00:41.288Z</time></trkpt><trkpt lat="45.3571388" lon="10.6237495"><ele>156.0</ele><time>2026-03-29T10:00:42.288Z</time></trkpt><trkpt lat="45.357194" lon="10.6238439"><ele>157.0</ele><time>2026-03-29T10:00:43.288Z</time></trkpt><trkpt lat="45.3572501" lon="10.6239427"><ele>158.0</ele><time>2026-03-29T10:00:44.288Z</time></trkpt><trkpt lat="45.3572996" lon="10.6240505"><ele>159.0</ele><time>2026-03-29T10:00:45.289Z</time></trkpt><trkpt lat="45.3573389" lon="10.624175"><ele>160.0</ele><time>2026-03-29T10:00:46.289Z</time></trkpt><trkpt lat="45.357365" lon="10.6243115"><ele>160.0</ele><time>2026-03-29T10:00:47.288Z</time></trkpt><trkpt lat="45.3573826" lon="10.6244569"><ele>160.0</ele><time>2026-03-29T10:00:48.288Z</time></trkpt><trkpt lat="45.3573951" lon="10.6246099"><ele>160.0</ele><time>2026-03-29T10:00:49.288Z</time></trkpt><trkpt lat="45.3574073" lon="10.6247535"><ele>160.0</ele><time>2026-03-29T10:00:50.288Z</time></trkpt><trkpt lat="45.3574091" lon="10.62488"><ele>160.0</ele><time>2026-03-29T10:00:51.288Z</time></trkpt><trkpt lat="45.3573987" lon="10.624999"><ele>160.14285714285714</ele><time>2026-03-29T10:00:52.288Z</time></trkpt><trkpt lat="45.3573821" lon="10.6251171"><ele>160.28571428571428</ele><time>2026-03-29T10:00:53.289Z</time></trkpt><trkpt lat="45.3573639" lon="10.6252278"><ele>160.42857142857144</ele><time>2026-03-29T10:00:54.288Z</time></trkpt><trkpt lat="45.3573485" lon="10.6253303"><ele>160.57142857142856</ele><time>2026-03-29T10:00:55.289Z</time></trkpt><trkpt lat="45.3573382" lon="10.6254277"><ele>160.71428571428572</ele><time>2026-03-29T10:00:56.289Z</time></trkpt><trkpt lat="45.3573295" lon="10.6255242"><ele>160.85714285714286</ele><time>2026-03-29T10:00:57.288Z</time></trkpt><trkpt lat="45.3573166" lon="10.6256213"><ele>161.0</ele><time>2026-03-29T10:00:58.288Z</time></trkpt><trkpt lat="45.357296" lon="10.6257865"><ele>161.0</ele><time>2026-03-29T10:01:00.289Z</time></trkpt><trkpt lat="45.3572611" lon="10.6259472"><ele>161.0</ele><time>2026-03-29T10:01:02.289Z</time></trkpt><trkpt lat="45.357231" lon="10.6261111"><ele>161.0</ele><time>2026-03-29T10:01:04.288Z</time></trkpt><trkpt lat="45.3571923" lon="10.6262666"><ele>161.0</ele><time>2026-03-29T10:01:06.289Z</time></trkpt><trkpt lat="45.357148" lon="10.6264194"><ele>161.0</ele><time>2026-03-29T10:01:08.288Z</time></trkpt><trkpt lat="45.3570964" lon="10.626571"><ele>161.0</ele><time>2026-03-29T10:01:10.289Z</time></trkpt><trkpt lat="45.3570483" lon="10.6267005"><ele>161.0</ele><time>2026-03-29T10:01:12.289Z</time></trkpt><trkpt lat="45.3569999" lon="10.6268148"><ele>161.0</ele><time>2026-03-29T10:01:14.288Z</time></trkpt><trkpt lat="45.3569613" lon="10.6269469"><ele>161.0</ele><time>2026-03-29T10:01:16.289Z</time></trkpt><trkpt lat="45.3569117" lon="10.6270688"><ele>160.14285714285714</ele><time>2026-03-29T10:01:18.289Z</time></trkpt><trkpt lat="45.3568752" lon="10.627166"><ele>159.28571428571428</ele><time>2026-03-29T10:01:20.289Z</time></trkpt><trkpt lat="45.3568258" lon="10.6272275"><ele>158.42857142857144</ele><time>2026-03-29T10:01:39.289Z</time></trkpt><trkpt lat="45.3568581" lon="10.6273142"><ele>157.57142857142856</ele><time>2026-03-29T10:02:21.289Z</time></trkpt><trkpt lat="45.3568711" lon="10.6274033"><ele>156.71428571428572</ele><time>2026-03-29T10:02:27.288Z</time></trkpt><trkpt lat="45.3568623" lon="10.6274963"><ele>155.85714285714286</ele><time>2026-03-29T10:02:28.288Z</time></trkpt><trkpt lat="45.3568292" lon="10.6276099"><ele>155.0</ele><time>2026-03-29T10:02:29.287Z</time></trkpt><trkpt lat="45.356781" lon="10.6277404"><ele>154.0</ele><time>2026-03-29T10:02:30.287Z</time></trkpt><trkpt lat="45.356725" lon="10.6278891"><ele>153.0</ele><time>2026-03-29T10:02:31.288Z</time></trkpt><trkpt lat="45.3566769" lon="10.6280295"><ele>152.0</ele><time>2026-03-29T10:02:32.288Z</time></trkpt><trkpt lat="45.3566482" lon="10.6281491"><ele>151.0</ele><time>2026-03-29T10:02:33.288Z</time></trkpt><trkpt lat="45.3566325" lon="10.6282374"><ele>150.0</ele><time>2026-03-29T10:02:34.287Z</time></trkpt><trkpt lat="45.356647" lon="10.6283709"><ele>150.0</ele><time>2026-03-29T10:02:36.287Z</time></trkpt><trkpt lat="45.3567235" lon="10.6284018"><ele>150.0</ele><time>2026-03-29T10:02:38.287Z</time></trkpt><trkpt lat="45.3567881" lon="10.6283966"><ele>150.0</ele><time>2026-03-29T10:02:39.288Z</time></trkpt><trkpt lat="45.356863" lon="10.6283835"><ele>150.0</ele><time>2026-03-29T10:02:40.287Z</time></trkpt><trkpt lat="45.3569684" lon="10.6283518"><ele>150.0</ele><time>2026-03-29T10:02:41.287Z</time></trkpt><trkpt lat="45.3571004" lon="10.6283397"><ele>150.5</ele><time>2026-03-29T10:02:42.287Z</time></trkpt><trkpt lat="45.3572314" lon="10.6283375"><ele>151.0</ele><time>2026-03-29T10:02:43.287Z</time></trkpt><trkpt lat="45.3573548" lon="10.628334"><ele>151.5</ele><time>2026-03-29T10:02:44.287Z</time></trkpt><trkpt lat="45.3574638" lon="10.6283262"><ele>152.0</ele><time>2026-03-29T10:02:45.288Z</time></trkpt><trkpt lat="45.3575612" lon="10.6282941"><ele>152.0</ele><time>2026-03-29T10:02:46.287Z</time></trkpt><trkpt lat="45.357662" lon="10.6282283"><ele>152.0</ele><time>2026-03-29T10:02:47.288Z</time></trkpt><trkpt lat="45.3577661" lon="10.628135"><ele>152.0</ele><time>2026-03-29T10:02:48.288Z</time></trkpt><trkpt lat="45.3578626" lon="10.6280166"><ele>152.0</ele><time>2026-03-29T10:02:49.288Z</time></trkpt><trkpt lat="45.3579465" lon="10.6278965"><ele>152.0</ele><time>2026-03-29T10:02:50.288Z</time></trkpt><trkpt lat="45.358025" lon="10.6277834"><ele>152.0</ele><time>2026-03-29T10:02:51.288Z</time></trkpt><trkpt lat="45.3581125" lon="10.6276715"><ele>152.0</ele><time>2026-03-29T10:02:52.288Z</time></trkpt><trkpt lat="45.3582242" lon="10.6275933"><ele>152.0</ele><time>2026-03-29T10:02:53.288Z</time></trkpt><trkpt lat="45.3583415" lon="10.6275326"><ele>152.0</ele><time>2026-03-29T10:02:54.288Z</time></trkpt><trkpt lat="45.35846" lon="10.627479"><ele>152.0</ele><time>2026-03-29T10:02:55.288Z</time></trkpt><trkpt lat="45.3585719" lon="10.6273957"><ele>152.0</ele><time>2026-03-29T10:02:56.288Z</time></trkpt><trkpt lat="45.3586656" lon="10.627276"><ele>152.0</ele><time>2026-03-29T10:02:57.288Z</time></trkpt><trkpt lat="45.3587366" lon="10.6271307"><ele>153.75</ele><time>2026-03-29T10:02:58.287Z</time></trkpt><trkpt lat="45.3587855" lon="10.626969"><ele>155.5</ele><time>2026-03-29T10:02:59.288Z</time></trkpt><trkpt lat="45.358811" lon="10.6267939"><ele>157.25</ele><time>2026-03-29T10:03:00.288Z</time></trkpt><trkpt lat="45.3588271" lon="10.6266007"><ele>159.0</ele><time>2026-03-29T10:03:01.288Z</time></trkpt><trkpt lat="45.358846" lon="10.6264031"><ele>156.25</ele><time>2026-03-29T10:03:02.288Z</time></trkpt><trkpt lat="45.3588711" lon="10.6262066"><ele>153.5</ele><time>2026-03-29T10:03:03.287Z</time></trkpt><trkpt lat="45.3589167" lon="10.6260221"><ele>150.75</ele><time>2026-03-29T10:03:04.288Z</time></trkpt><trkpt lat="45.3589788" lon="10.6258661"><ele>148.0</ele><time>2026-03-29T10:03:05.288Z</time></trkpt><trkpt lat="45.3590538" lon="10.6257438"><ele>148.0</ele><time>2026-03-29T10:03:06.287Z</time></trkpt><trkpt lat="45.3591362" lon="10.6256462"><ele>148.0</ele><time>2026-03-29T10:03:07.287Z</time></trkpt><trkpt lat="45.3592176" lon="10.6255739"><ele>148.0</ele><time>2026-03-29T10:03:08.287Z</time></trkpt><trkpt lat="45.3592887" lon="10.6255264"><ele>148.0</ele><time>2026-03-29T10:03:09.287Z</time></trkpt><trkpt lat="45.3593502" lon="10.6255019"><ele>148.0</ele><time>2026-03-29T10:03:10.287Z</time></trkpt><trkpt lat="45.3594197" lon="10.6255185"><ele>148.0</ele><time>2026-03-29T10:03:13.288Z</time></trkpt><trkpt lat="45.359519" lon="10.6255375"><ele>148.0</ele><time>2026-03-29T10:03:17.287Z</time></trkpt><trkpt lat="45.3595952" lon="10.6255608"><ele>148.0</ele><time>2026-03-29T10:03:18.288Z</time></trkpt><trkpt lat="45.3597048" lon="10.6256173"><ele>148.0</ele><time>2026-03-29T10:03:19.287Z</time></trkpt><trkpt lat="45.3598348" lon="10.62569"><ele>148.0</ele><time>2026-03-29T10:03:20.288Z</time></trkpt><trkpt lat="45.3599802" lon="10.6257787"><ele>148.25</ele><time>2026-03-29T10:03:21.287Z</time></trkpt><trkpt lat="45.3601135" lon="10.6258593"><ele>148.5</ele><time>2026-03-29T10:03:22.287Z</time></trkpt><trkpt lat="45.3602338" lon="10.6259237"><ele>148.75</ele><time>2026-03-29T10:03:23.287Z</time></trkpt><trkpt lat="45.3603397" lon="10.6259836"><ele>149.0</ele><time>2026-03-29T10:03:24.288Z</time></trkpt><trkpt lat="45.3604347" lon="10.62606"><ele>150.0</ele><time>2026-03-29T10:03:25.288Z</time></trkpt><trkpt lat="45.3605341" lon="10.6261524"><ele>151.0</ele><time>2026-03-29T10:03:26.287Z</time></trkpt><trkpt lat="45.360636" lon="10.6262612"><ele>152.0</ele><time>2026-03-29T10:03:27.288Z</time></trkpt><trkpt lat="45.3607391" lon="10.6263788"><ele>153.0</ele><time>2026-03-29T10:03:28.287Z</time></trkpt><trkpt lat="45.3608383" lon="10.6264871"><ele>153.0</ele><time>2026-03-29T10:03:29.288Z</time></trkpt><trkpt lat="45.3609405" lon="10.6265844"><ele>153.0</ele><time>2026-03-29T10:03:30.287Z</time></trkpt><trkpt lat="45.3610346" lon="10.6266704"><ele>153.0</ele><time>2026-03-29T10:03:31.288Z</time></trkpt><trkpt lat="45.3611158" lon="10.6267588"><ele>153.0</ele><time>2026-03-29T10:03:32.287Z</time></trkpt><trkpt lat="45.3611904" lon="10.6268441"><ele>153.0</ele><time>2026-03-29T10:03:33.287Z</time></trkpt><trkpt lat="45.3612699" lon="10.6269309"><ele>153.0</ele><time>2026-03-29T10:03:34.287Z</time></trkpt><trkpt lat="45.3613653" lon="10.627015"><ele>153.0</ele><time>2026-03-29T10:03:35.288Z</time></trkpt><trkpt lat="45.361475" lon="10.6271129"><ele>153.0</ele><time>2026-03-29T10:03:36.287Z</time></trkpt><trkpt lat="45.3615902" lon="10.6272209"><ele>153.0</ele><time>2026-03-29T10:03:37.287Z</time></trkpt><trkpt lat="45.361711" lon="10.6273231"><ele>153.0</ele><time>2026-03-29T10:03:38.288Z</time></trkpt><trkpt lat="45.3618355" lon="10.6274011"><ele>153.0</ele><time>2026-03-29T10:03:39.287Z</time></trkpt><trkpt lat="45.3619501" lon="10.6274665"><ele>153.0</ele><time>2026-03-29T10:03:40.288Z</time></trkpt><trkpt lat="45.3620604" lon="10.627531"><ele>153.0</ele><time>2026-03-29T10:03:41.287Z</time></trkpt><trkpt lat="45.3621635" lon="10.6275775"><ele>153.0</ele><time>2026-03-29T10:03:42.288Z</time></trkpt><trkpt lat="45.3622571" lon="10.6276133"><ele>153.0</ele><time>2026-03-29T10:03:43.287Z</time></trkpt><trkpt lat="45.3623439" lon="10.6276513"><ele>153.0</ele><time>2026-03-29T10:03:44.288Z</time></trkpt><trkpt lat="45.3624278" lon="10.6276743"><ele>153.0</ele><time>2026-03-29T10:03:45.288Z</time></trkpt><trkpt lat="45.3625062" lon="10.6276705"><ele>153.0</ele><time>2026-03-29T10:03:46.287Z</time></trkpt><trkpt lat="45.3625848" lon="10.6276411"><ele>153.0</ele><time>2026-03-29T10:03:47.288Z</time></trkpt><trkpt lat="45.3626613" lon="10.6275826"><ele>153.0</ele><time>2026-03-29T10:03:48.288Z</time></trkpt><trkpt lat="45.362742" lon="10.6275014"><ele>153.0</ele><time>2026-03-29T10:03:49.288Z</time></trkpt><trkpt lat="45.3628331" lon="10.6274163"><ele>153.0</ele><time>2026-03-29T10:03:50.288Z</time></trkpt><trkpt lat="45.3629259" lon="10.6273432"><ele>153.0</ele><time>2026-03-29T10:03:51.287Z</time></trkpt><trkpt lat="45.3630202" lon="10.6272856"><ele>153.0</ele><time>2026-03-29T10:03:52.288Z</time></trkpt><trkpt lat="45.3630958" lon="10.627236"><ele>152.8</ele><time>2026-03-29T10:03:53.287Z</time></trkpt><trkpt lat="45.3631764" lon="10.6271393"><ele>152.60000000000002</ele><time>2026-03-29T10:03:55.287Z</time></trkpt><trkpt lat="45.3631956" lon="10.6269965"><ele>152.39999999999998</ele><time>2026-03-29T10:03:57.287Z</time></trkpt><trkpt lat="45.3631839" lon="10.6268913"><ele>152.2</ele><time>2026-03-29T10:03:58.287Z</time></trkpt><trkpt lat="45.3631757" lon="10.6267676"><ele>152.0</ele><time>2026-03-29T10:03:59.287Z</time></trkpt><trkpt lat="45.3631509" lon="10.6265818"><ele>152.0</ele><time>2026-03-29T10:04:00.288Z</time></trkpt><trkpt lat="45.3631319" lon="10.626374"><ele>152.0</ele><time>2026-03-29T10:04:01.288Z</time></trkpt><trkpt lat="45.3631211" lon="10.6261721"><ele>152.0</ele><time>2026-03-29T10:04:02.287Z</time></trkpt><trkpt lat="45.3631233" lon="10.6260042"><ele>152.0</ele><time>2026-03-29T10:04:03.288Z</time></trkpt><trkpt lat="45.3631218" lon="10.6258698"><ele>151.6</ele><time>2026-03-29T10:04:04.288Z</time></trkpt><trkpt lat="45.3631271" lon="10.6257555"><ele>151.2</ele><time>2026-03-29T10:04:05.287Z</time></trkpt><trkpt lat="45.3631379" lon="10.6256545"><ele>150.8</ele><time>2026-03-29T10:04:06.288Z</time></trkpt><trkpt lat="45.3631941" lon="10.6255129"><ele>150.4</ele><time>2026-03-29T10:04:08.287Z</time></trkpt><trkpt lat="45.3632574" lon="10.625344"><ele>150.0</ele><time>2026-03-29T10:04:10.287Z</time></trkpt><trkpt lat="45.3633032" lon="10.6252281"><ele>150.0</ele><time>2026-03-29T10:04:11.288Z</time></trkpt><trkpt lat="45.3633647" lon="10.6250992"><ele>150.0</ele><time>2026-03-29T10:04:12.288Z</time></trkpt><trkpt lat="45.3634455" lon="10.6249394"><ele>150.0</ele><time>2026-03-29T10:04:13.288Z</time></trkpt><trkpt lat="45.3635205" lon="10.6247566"><ele>150.0</ele><time>2026-03-29T10:04:14.288Z</time></trkpt><trkpt lat="45.3635875" lon="10.6245735"><ele>151.0</ele><time>2026-03-29T10:04:15.288Z</time></trkpt><trkpt lat="45.3636507" lon="10.6244088"><ele>152.0</ele><time>2026-03-29T10:04:16.288Z</time></trkpt><trkpt lat="45.3637034" lon="10.6242681"><ele>153.0</ele><time>2026-03-29T10:04:17.288Z</time></trkpt><trkpt lat="45.3637644" lon="10.6241275"><ele>154.0</ele><time>2026-03-29T10:04:18.287Z</time></trkpt><trkpt lat="45.3638333" lon="10.6239839"><ele>152.5</ele><time>2026-03-29T10:04:19.287Z</time></trkpt><trkpt lat="45.3639105" lon="10.6238447"><ele>151.0</ele><time>2026-03-29T10:04:20.288Z</time></trkpt><trkpt lat="45.3639923" lon="10.6237182"><ele>149.5</ele><time>2026-03-29T10:04:21.287Z</time></trkpt><trkpt lat="45.3640748" lon="10.6235883"><ele>148.0</ele><time>2026-03-29T10:04:22.287Z</time></trkpt><trkpt lat="45.3641541" lon="10.6234613"><ele>148.0</ele><time>2026-03-29T10:04:23.287Z</time></trkpt><trkpt lat="45.3642202" lon="10.6233545"><ele>148.0</ele><time>2026-03-29T10:04:24.288Z</time></trkpt><trkpt lat="45.3642663" lon="10.6232605"><ele>148.0</ele><time>2026-03-29T10:04:25.288Z</time></trkpt><trkpt lat="45.3642832" lon="10.6230955"><ele>148.0</ele><time>2026-03-29T10:04:27.287Z</time></trkpt><trkpt lat="45.36425" lon="10.6229966"><ele>148.0</ele><time>2026-03-29T10:04:28.287Z</time></trkpt><trkpt lat="45.3641934" lon="10.6228634"><ele>147.25</ele><time>2026-03-29T10:04:29.287Z</time></trkpt><trkpt lat="45.3641211" lon="10.6226989"><ele>146.5</ele><time>2026-03-29T10:04:30.288Z</time></trkpt><trkpt lat="45.3640434" lon="10.6225297"><ele>145.75</ele><time>2026-03-29T10:04:31.287Z</time></trkpt><trkpt lat="45.3639667" lon="10.6223753"><ele>145.0</ele><time>2026-03-29T10:04:32.288Z</time></trkpt><trkpt lat="45.3639143" lon="10.6222306"><ele>145.0</ele><time>2026-03-29T10:04:33.287Z</time></trkpt><trkpt lat="45.3638911" lon="10.6220826"><ele>145.0</ele><time>2026-03-29T10:04:34.288Z</time></trkpt><trkpt lat="45.3638801" lon="10.6219201"><ele>145.0</ele><time>2026-03-29T10:04:35.288Z</time></trkpt><trkpt lat="45.3638891" lon="10.6217636"><ele>145.0</ele><time>2026-03-29T10:04:36.288Z</time></trkpt><trkpt lat="45.3639229" lon="10.62161"><ele>145.0</ele><time>2026-03-29T10:04:37.287Z</time></trkpt><trkpt lat="45.363963" lon="10.6214455"><ele>145.0</ele><time>2026-03-29T10:04:38.288Z</time></trkpt><trkpt lat="45.3639903" lon="10.6212899"><ele>145.0</ele><time>2026-03-29T10:04:39.288Z</time></trkpt><trkpt lat="45.3640005" lon="10.621138"><ele>145.0</ele><time>2026-03-29T10:04:40.287Z</time></trkpt><trkpt lat="45.3639916" lon="10.6209842"><ele>145.0</ele><time>2026-03-29T10:04:41.287Z</time></trkpt><trkpt lat="45.3639669" lon="10.6208289"><ele>145.0</ele><time>2026-03-29T10:04:42.288Z</time></trkpt><trkpt lat="45.363943" lon="10.6206814"><ele>145.0</ele><time>2026-03-29T10:04:43.287Z</time></trkpt><trkpt lat="45.3639205" lon="10.6205552"><ele>145.0</ele><time>2026-03-29T10:04:44.287Z</time></trkpt><trkpt lat="45.3638833" lon="10.6204407"><ele>145.0</ele><time>2026-03-29T10:04:45.287Z</time></trkpt><trkpt lat="45.3638291" lon="10.6203513"><ele>145.0</ele><time>2026-03-29T10:04:46.288Z</time></trkpt><trkpt lat="45.3637733" lon="10.6202711"><ele>145.0</ele><time>2026-03-29T10:04:47.287Z</time></trkpt><trkpt lat="45.3637207" lon="10.6201839"><ele>145.0</ele><time>2026-03-29T10:04:48.288Z</time></trkpt><trkpt lat="45.3636897" lon="10.6200773"><ele>146.75</ele><time>2026-03-29T10:04:49.287Z</time></trkpt><trkpt lat="45.3636675" lon="10.6199379"><ele>148.5</ele><time>2026-03-29T10:04:50.287Z</time></trkpt><trkpt lat="45.3636644" lon="10.6197694"><ele>150.25</ele><time>2026-03-29T10:04:51.288Z</time></trkpt><trkpt lat="45.3636545" lon="10.6195984"><ele>152.0</ele><time>2026-03-29T10:04:52.288Z</time></trkpt><trkpt lat="45.3636288" lon="10.6194456"><ele>152.2</ele><time>2026-03-29T10:04:53.288Z</time></trkpt><trkpt lat="45.3636119" lon="10.6193137"><ele>152.39999999999998</ele><time>2026-03-29T10:04:54.287Z</time></trkpt><trkpt lat="45.363609" lon="10.6191998"><ele>152.60000000000002</ele><time>2026-03-29T10:04:55.287Z</time></trkpt><trkpt lat="45.3636397" lon="10.6190799"><ele>152.8</ele><time>2026-03-29T10:04:56.287Z</time></trkpt><trkpt lat="45.363697" lon="10.6189299"><ele>153.0</ele><time>2026-03-29T10:04:57.287Z</time></trkpt><trkpt lat="45.3637768" lon="10.6187521"><ele>153.0</ele><time>2026-03-29T10:04:58.287Z</time></trkpt><trkpt lat="45.3638614" lon="10.6185415"><ele>153.0</ele><time>2026-03-29T10:04:59.288Z</time></trkpt><trkpt lat="45.3639496" lon="10.6183175"><ele>153.0</ele><time>2026-03-29T10:05:00.288Z</time></trkpt><trkpt lat="45.3640402" lon="10.6180964"><ele>151.0</ele><time>2026-03-29T10:05:01.287Z</time></trkpt><trkpt lat="45.3641204" lon="10.6178851"><ele>149.0</ele><time>2026-03-29T10:05:02.288Z</time></trkpt><trkpt lat="45.3641922" lon="10.6176823"><ele>147.0</ele><time>2026-03-29T10:05:03.288Z</time></trkpt><trkpt lat="45.3642516" lon="10.6174934"><ele>147.0</ele><time>2026-03-29T10:05:04.287Z</time></trkpt><trkpt lat="45.3643066" lon="10.6173078"><ele>147.0</ele><time>2026-03-29T10:05:05.287Z</time></trkpt><trkpt lat="45.3643511" lon="10.6171394"><ele>147.0</ele><time>2026-03-29T10:05:06.288Z</time></trkpt><trkpt lat="45.3643971" lon="10.616988"><ele>147.0</ele><time>2026-03-29T10:05:07.287Z</time></trkpt><trkpt lat="45.3644339" lon="10.6168655"><ele>146.66666666666666</ele><time>2026-03-29T10:05:08.287Z</time></trkpt><trkpt lat="45.364468" lon="10.616765"><ele>146.33333333333334</ele><time>2026-03-29T10:05:09.288Z</time></trkpt><trkpt lat="45.3645018" lon="10.6166888"><ele>146.0</ele><time>2026-03-29T10:05:10.288Z</time></trkpt><trkpt lat="45.3646081" lon="10.6166358"><ele>145.66666666666669</ele><time>2026-03-29T10:05:12.288Z</time></trkpt><trkpt lat="45.3646795" lon="10.6166494"><ele>145.33333333333334</ele><time>2026-03-29T10:05:13.288Z</time></trkpt><trkpt lat="45.3647501" lon="10.6166693"><ele>145.0</ele><time>2026-03-29T10:05:14.288Z</time></trkpt><trkpt lat="45.3648698" lon="10.6166461"><ele>144.2</ele><time>2026-03-29T10:05:16.288Z</time></trkpt><trkpt lat="45.3649612" lon="10.6165754"><ele>143.4</ele><time>2026-03-29T10:05:18.287Z</time></trkpt><trkpt lat="45.365011" lon="10.6164643"><ele>142.6</ele><time>2026-03-29T10:05:20.287Z</time></trkpt><trkpt lat="45.3649957" lon="10.6162647"><ele>141.8</ele><time>2026-03-29T10:05:22.287Z</time></trkpt><trkpt lat="45.3649763" lon="10.6161503"><ele>141.0</ele><time>2026-03-29T10:05:23.288Z</time></trkpt><trkpt lat="45.3649703" lon="10.6160528"><ele>140.25</ele><time>2026-03-29T10:05:24.287Z</time></trkpt><trkpt lat="45.3650227" lon="10.6159132"><ele>139.5</ele><time>2026-03-29T10:05:26.287Z</time></trkpt><trkpt lat="45.3650904" lon="10.6157777"><ele>138.75</ele><time>2026-03-29T10:05:28.287Z</time></trkpt><trkpt lat="45.3651096" lon="10.6155844"><ele>138.0</ele><time>2026-03-29T10:05:30.288Z</time></trkpt><trkpt lat="45.3650922" lon="10.6154322"><ele>138.25</ele><time>2026-03-29T10:05:31.288Z</time></trkpt><trkpt lat="45.365062" lon="10.615254"><ele>138.5</ele><time>2026-03-29T10:05:32.288Z</time></trkpt><trkpt lat="45.3650466" lon="10.6150757"><ele>138.75</ele><time>2026-03-29T10:05:33.288Z</time></trkpt><trkpt lat="45.3650376" lon="10.6148967"><ele>139.0</ele><time>2026-03-29T10:05:34.287Z</time></trkpt><trkpt lat="45.3650405" lon="10.6147143"><ele>139.0</ele><time>2026-03-29T10:05:35.287Z</time></trkpt><trkpt lat="45.3650424" lon="10.6145441"><ele>139.0</ele><time>2026-03-29T10:05:36.287Z</time></trkpt><trkpt lat="45.3650426" lon="10.6143681"><ele>139.0</ele><time>2026-03-29T10:05:37.288Z</time></trkpt><trkpt lat="45.3650396" lon="10.614193"><ele>139.0</ele><time>2026-03-29T10:05:38.287Z</time></trkpt><trkpt lat="45.365038" lon="10.6140255"><ele>138.8</ele><time>2026-03-29T10:05:39.288Z</time></trkpt><trkpt lat="45.3650402" lon="10.6138689"><ele>138.60000000000002</ele><time>2026-03-29T10:05:40.287Z</time></trkpt><trkpt lat="45.3650527" lon="10.6137201"><ele>138.4</ele><time>2026-03-29T10:05:41.288Z</time></trkpt><trkpt lat="45.3650744" lon="10.6135632"><ele>138.20000000000002</ele><time>2026-03-29T10:05:42.287Z</time></trkpt><trkpt lat="45.3650994" lon="10.6133977"><ele>138.0</ele><time>2026-03-29T10:05:43.287Z</time></trkpt><trkpt lat="45.3651184" lon="10.6132452"><ele>138.5</ele><time>2026-03-29T10:05:44.287Z</time></trkpt><trkpt lat="45.3651014" lon="10.6131023"><ele>139.0</ele><time>2026-03-29T10:05:45.288Z</time></trkpt><trkpt lat="45.3650564" lon="10.6129367"><ele>139.5</ele><time>2026-03-29T10:05:46.288Z</time></trkpt><trkpt lat="45.3649794" lon="10.6127523"><ele>140.0</ele><time>2026-03-29T10:05:47.287Z</time></trkpt><trkpt lat="45.3648818" lon="10.6125603"><ele>140.0</ele><time>2026-03-29T10:05:48.288Z</time></trkpt><trkpt lat="45.3647811" lon="10.612364"><ele>140.0</ele><time>2026-03-29T10:05:49.288Z</time></trkpt><trkpt lat="45.3646958" lon="10.612177"><ele>140.0</ele><time>2026-03-29T10:05:50.288Z</time></trkpt><trkpt lat="45.3646435" lon="10.6119815"><ele>141.33333333333331</ele><time>2026-03-29T10:05:51.287Z</time></trkpt><trkpt lat="45.364612" lon="10.6117684"><ele>142.66666666666666</ele><time>2026-03-29T10:05:52.287Z</time></trkpt><trkpt lat="45.3645872" lon="10.6115424"><ele>144.0</ele><time>2026-03-29T10:05:53.288Z</time></trkpt><trkpt lat="45.364557" lon="10.6113188"><ele>142.5</ele><time>2026-03-29T10:05:54.287Z</time></trkpt><trkpt lat="45.3645328" lon="10.6111071"><ele>141.0</ele><time>2026-03-29T10:05:55.288Z</time></trkpt><trkpt lat="45.3645079" lon="10.610917"><ele>139.5</ele><time>2026-03-29T10:05:56.288Z</time></trkpt><trkpt lat="45.3644874" lon="10.610756"><ele>138.0</ele><time>2026-03-29T10:05:57.288Z</time></trkpt><trkpt lat="45.3644715" lon="10.6106304"><ele>138.0</ele><time>2026-03-29T10:05:58.287Z</time></trkpt><trkpt lat="45.3644851" lon="10.6104937"><ele>138.0</ele><time>2026-03-29T10:06:00.288Z</time></trkpt><trkpt lat="45.3645663" lon="10.6104866"><ele>138.0</ele><time>2026-03-29T10:06:02.288Z</time></trkpt><trkpt lat="45.3646644" lon="10.6105328"><ele>138.0</ele><time>2026-03-29T10:06:03.288Z</time></trkpt><trkpt lat="45.3648059" lon="10.610595"><ele>138.0</ele><time>2026-03-29T10:06:04.288Z</time></trkpt><trkpt lat="45.364973" lon="10.6106506"><ele>138.33333333333334</ele><time>2026-03-29T10:06:05.287Z</time></trkpt><trkpt lat="45.3651578" lon="10.610695"><ele>138.66666666666669</ele><time>2026-03-29T10:06:06.288Z</time></trkpt><trkpt lat="45.3653554" lon="10.6107357"><ele>139.0</ele><time>2026-03-29T10:06:07.287Z</time></trkpt><trkpt lat="45.3655562" lon="10.610762"><ele>139.0</ele><time>2026-03-29T10:06:08.287Z</time></trkpt><trkpt lat="45.3657597" lon="10.6107772"><ele>139.0</ele><time>2026-03-29T10:06:09.288Z</time></trkpt><trkpt lat="45.3659598" lon="10.610792"><ele>139.0</ele><time>2026-03-29T10:06:10.288Z</time></trkpt><trkpt lat="45.3661403" lon="10.6108042"><ele>139.0</ele><time>2026-03-29T10:06:11.287Z</time></trkpt><trkpt lat="45.366303" lon="10.6108278"><ele>139.0</ele><time>2026-03-29T10:06:12.287Z</time></trkpt><trkpt lat="45.3664533" lon="10.6108466"><ele>139.0</ele><time>2026-03-29T10:06:13.286Z</time></trkpt><trkpt lat="45.3665874" lon="10.6108454"><ele>139.0</ele><time>2026-03-29T10:06:14.286Z</time></trkpt><trkpt lat="45.3666912" lon="10.6108608"><ele>139.2</ele><time>2026-03-29T10:06:15.286Z</time></trkpt><trkpt lat="45.3667623" lon="10.6108675"><ele>139.4</ele><time>2026-03-29T10:06:16.287Z</time></trkpt><trkpt lat="45.3668314" lon="10.6108587"><ele>139.6</ele><time>2026-03-29T10:06:18.287Z</time></trkpt><trkpt lat="45.3668951" lon="10.6107059"><ele>139.8</ele><time>2026-03-29T10:06:20.287Z</time></trkpt><trkpt lat="45.3669248" lon="10.6105701"><ele>140.0</ele><time>2026-03-29T10:06:21.286Z</time></trkpt><trkpt lat="45.366955" lon="10.610399"><ele>139.66666666666666</ele><time>2026-03-29T10:06:22.287Z</time></trkpt><trkpt lat="45.3669876" lon="10.6101976"><ele>139.33333333333334</ele><time>2026-03-29T10:06:23.287Z</time></trkpt><trkpt lat="45.3670291" lon="10.6099643"><ele>139.0</ele><time>2026-03-29T10:06:24.287Z</time></trkpt><trkpt lat="45.3670772" lon="10.6097111"><ele>138.66666666666669</ele><time>2026-03-29T10:06:25.287Z</time></trkpt><trkpt lat="45.3671264" lon="10.6094432"><ele>138.33333333333334</ele><time>2026-03-29T10:06:26.286Z</time></trkpt><trkpt lat="45.3671787" lon="10.6091888"><ele>138.0</ele><time>2026-03-29T10:06:27.287Z</time></trkpt><trkpt lat="45.3672337" lon="10.6089573"><ele>139.0</ele><time>2026-03-29T10:06:28.286Z</time></trkpt><trkpt lat="45.3672829" lon="10.6087387"><ele>140.0</ele><time>2026-03-29T10:06:29.287Z</time></trkpt><trkpt lat="45.3673251" lon="10.608518"><ele>141.0</ele><time>2026-03-29T10:06:30.287Z</time></trkpt><trkpt lat="45.3673581" lon="10.6083037"><ele>141.0</ele><time>2026-03-29T10:06:31.287Z</time></trkpt><trkpt lat="45.3673918" lon="10.6081097"><ele>141.0</ele><time>2026-03-29T10:06:32.287Z</time></trkpt><trkpt lat="45.3674259" lon="10.6079426"><ele>141.0</ele><time>2026-03-29T10:06:33.287Z</time></trkpt><trkpt lat="45.3674595" lon="10.607787"><ele>141.0</ele><time>2026-03-29T10:06:34.287Z</time></trkpt><trkpt lat="45.3675014" lon="10.6076472"><ele>141.0</ele><time>2026-03-29T10:06:35.286Z</time></trkpt><trkpt lat="45.3675441" lon="10.6075334"><ele>141.0</ele><time>2026-03-29T10:06:36.287Z</time></trkpt><trkpt lat="45.3675819" lon="10.6074525"><ele>141.0</ele><time>2026-03-29T10:06:37.286Z</time></trkpt><trkpt lat="45.3676704" lon="10.6073705"><ele>141.0</ele><time>2026-03-29T10:06:39.286Z</time></trkpt><trkpt lat="45.3677534" lon="10.6074049"><ele>141.0</ele><time>2026-03-29T10:06:40.287Z</time></trkpt><trkpt lat="45.3678586" lon="10.607479"><ele>141.0</ele><time>2026-03-29T10:06:41.287Z</time></trkpt><trkpt lat="45.3679631" lon="10.6075679"><ele>141.0</ele><time>2026-03-29T10:06:42.287Z</time></trkpt><trkpt lat="45.3680629" lon="10.6076439"><ele>141.0</ele><time>2026-03-29T10:06:43.286Z</time></trkpt><trkpt lat="45.3681502" lon="10.6076928"><ele>141.0</ele><time>2026-03-29T10:06:44.287Z</time></trkpt><trkpt lat="45.3682323" lon="10.60771"><ele>141.0</ele><time>2026-03-29T10:06:45.286Z</time></trkpt><trkpt lat="45.3683073" lon="10.6076973"><ele>139.6</ele><time>2026-03-29T10:06:46.287Z</time></trkpt><trkpt lat="45.3683781" lon="10.6076498"><ele>138.2</ele><time>2026-03-29T10:06:47.287Z</time></trkpt><trkpt lat="45.3684505" lon="10.607575"><ele>136.8</ele><time>2026-03-29T10:06:48.286Z</time></trkpt><trkpt lat="45.3685332" lon="10.6074664"><ele>135.4</ele><time>2026-03-29T10:06:49.287Z</time></trkpt><trkpt lat="45.3686177" lon="10.6073121"><ele>134.0</ele><time>2026-03-29T10:06:50.286Z</time></trkpt><trkpt lat="45.3686944" lon="10.6071592"><ele>134.0</ele><time>2026-03-29T10:06:51.286Z</time></trkpt><trkpt lat="45.3687486" lon="10.6070277"><ele>134.0</ele><time>2026-03-29T10:06:52.286Z</time></trkpt><trkpt lat="45.3687873" lon="10.60693"><ele>134.0</ele><time>2026-03-29T10:06:53.287Z</time></trkpt><trkpt lat="45.368854" lon="10.6068255"><ele>134.0</ele><time>2026-03-29T10:06:55.287Z</time></trkpt><trkpt lat="45.368945" lon="10.6068165"><ele>134.0</ele><time>2026-03-29T10:06:57.287Z</time></trkpt><trkpt lat="45.3690536" lon="10.6068696"><ele>132.0</ele><time>2026-03-29T10:06:59.286Z</time></trkpt><trkpt lat="45.3691152" lon="10.606898"><ele>130.0</ele><time>2026-03-29T10:07:00.286Z</time></trkpt><trkpt lat="45.3691744" lon="10.6069315"><ele>128.0</ele><time>2026-03-29T10:07:01.286Z</time></trkpt><trkpt lat="45.3692396" lon="10.6069824"><ele>126.0</ele><time>2026-03-29T10:07:02.287Z</time></trkpt><trkpt lat="45.3693129" lon="10.6070503"><ele>123.99999999999999</ele><time>2026-03-29T10:07:03.287Z</time></trkpt><trkpt lat="45.3693827" lon="10.6071164"><ele>122.0</ele><time>2026-03-29T10:07:04.286Z</time></trkpt><trkpt lat="45.3694506" lon="10.607172"><ele>122.0</ele><time>2026-03-29T10:07:05.286Z</time></trkpt><trkpt lat="45.3695204" lon="10.6072046"><ele>121.99999999999999</ele><time>2026-03-29T10:07:06.287Z</time></trkpt><trkpt lat="45.3695876" lon="10.6072261"><ele>121.99999999999999</ele><time>2026-03-29T10:07:07.286Z</time></trkpt><trkpt lat="45.3696789" lon="10.6072678"><ele>122.0</ele><time>2026-03-29T10:07:09.286Z</time></trkpt><trkpt lat="45.369721" lon="10.6073687"><ele>122.0</ele><time>2026-03-29T10:07:11.286Z</time></trkpt><trkpt lat="45.3697239" lon="10.6075636"><ele>121.0</ele><time>2026-03-29T10:07:13.287Z</time></trkpt><trkpt lat="45.3697236" lon="10.6076924"><ele>119.99999999999999</ele><time>2026-03-29T10:07:14.287Z</time></trkpt><trkpt lat="45.3697293" lon="10.6078253"><ele>118.99999999999999</ele><time>2026-03-29T10:07:15.287Z</time></trkpt><trkpt lat="45.3697443" lon="10.6079521"><ele>118.0</ele><time>2026-03-29T10:07:16.287Z</time></trkpt><trkpt lat="45.3697776" lon="10.6080881"><ele>117.0</ele><time>2026-03-29T10:07:17.287Z</time></trkpt><trkpt lat="45.369821" lon="10.6082218"><ele>117.0</ele><time>2026-03-29T10:07:18.287Z</time></trkpt><trkpt lat="45.3698625" lon="10.6083595"><ele>116.99999999999999</ele><time>2026-03-29T10:07:19.287Z</time></trkpt><trkpt lat="45.3698866" lon="10.608499"><ele>116.99999999999999</ele><time>2026-03-29T10:07:20.287Z</time></trkpt><trkpt lat="45.3698957" lon="10.6086336"><ele>117.0</ele><time>2026-03-29T10:07:21.286Z</time></trkpt><trkpt lat="45.3699015" lon="10.6087732"><ele>117.0</ele><time>2026-03-29T10:07:22.286Z</time></trkpt><trkpt lat="45.3699097" lon="10.6089236"><ele>118.75</ele><time>2026-03-29T10:07:23.286Z</time></trkpt><trkpt lat="45.3699189" lon="10.6090947"><ele>120.5</ele><time>2026-03-29T10:07:24.286Z</time></trkpt><trkpt lat="45.3699371" lon="10.6092723"><ele>122.25</ele><time>2026-03-29T10:07:25.287Z</time></trkpt><trkpt lat="45.3699634" lon="10.6094462"><ele>124.0</ele><time>2026-03-29T10:07:26.286Z</time></trkpt><trkpt lat="45.3699964" lon="10.6096273"><ele>124.75</ele><time>2026-03-29T10:07:27.287Z</time></trkpt><trkpt lat="45.370048" lon="10.609811"><ele>125.5</ele><time>2026-03-29T10:07:28.286Z</time></trkpt><trkpt lat="45.3700992" lon="10.6099757"><ele>126.25</ele><time>2026-03-29T10:07:29.286Z</time></trkpt><trkpt lat="45.3701437" lon="10.6101268"><ele>127.0</ele><time>2026-03-29T10:07:30.287Z</time></trkpt><trkpt lat="45.3701793" lon="10.6102815"><ele>127.33333333333334</ele><time>2026-03-29T10:07:31.286Z</time></trkpt><trkpt lat="45.3702266" lon="10.6104717"><ele>127.66666666666666</ele><time>2026-03-29T10:07:32.287Z</time></trkpt><trkpt lat="45.370271" lon="10.6106836"><ele>128.0</ele><time>2026-03-29T10:07:33.286Z</time></trkpt><trkpt lat="45.3703199" lon="10.6108975"><ele>128.0</ele><time>2026-03-29T10:07:34.287Z</time></trkpt><trkpt lat="45.3703711" lon="10.6111028"><ele>128.0</ele><time>2026-03-29T10:07:35.287Z</time></trkpt><trkpt lat="45.3704283" lon="10.6113103"><ele>128.0</ele><time>2026-03-29T10:07:36.286Z</time></trkpt><trkpt lat="45.370471" lon="10.6114918"><ele>128.0</ele><time>2026-03-29T10:07:37.286Z</time></trkpt><trkpt lat="45.370507" lon="10.6116519"><ele>127.80000000000001</ele><time>2026-03-29T10:07:38.287Z</time></trkpt><trkpt lat="45.3705334" lon="10.6117852"><ele>127.60000000000001</ele><time>2026-03-29T10:07:39.286Z</time></trkpt><trkpt lat="45.3705524" lon="10.6119118"><ele>127.39999999999999</ele><time>2026-03-29T10:07:40.287Z</time></trkpt><trkpt lat="45.3705724" lon="10.6120519"><ele>127.19999999999999</ele><time>2026-03-29T10:07:41.287Z</time></trkpt><trkpt lat="45.3705838" lon="10.6122155"><ele>127.0</ele><time>2026-03-29T10:07:42.286Z</time></trkpt><trkpt lat="45.3705863" lon="10.6124024"><ele>125.6</ele><time>2026-03-29T10:07:43.287Z</time></trkpt><trkpt lat="45.370581" lon="10.6125908"><ele>124.19999999999999</ele><time>2026-03-29T10:07:44.286Z</time></trkpt><trkpt lat="45.3705828" lon="10.6127564"><ele>122.8</ele><time>2026-03-29T10:07:45.286Z</time></trkpt><trkpt lat="45.3705959" lon="10.6128925"><ele>121.4</ele><time>2026-03-29T10:07:46.287Z</time></trkpt><trkpt lat="45.3706288" lon="10.6130039"><ele>120.0</ele><time>2026-03-29T10:07:47.287Z</time></trkpt><trkpt lat="45.370699" lon="10.6130953"><ele>118.33333333333334</ele><time>2026-03-29T10:07:48.287Z</time></trkpt><trkpt lat="45.3708163" lon="10.6131931"><ele>116.66666666666667</ele><time>2026-03-29T10:07:49.286Z</time></trkpt><trkpt lat="45.3709694" lon="10.6133068"><ele>115.0</ele><time>2026-03-29T10:07:50.287Z</time></trkpt><trkpt lat="45.371146" lon="10.6134347"><ele>115.0</ele><time>2026-03-29T10:07:51.287Z</time></trkpt><trkpt lat="45.3713283" lon="10.613566"><ele>115.0</ele><time>2026-03-29T10:07:52.286Z</time></trkpt><trkpt lat="45.3715147" lon="10.6137071"><ele>115.0</ele><time>2026-03-29T10:07:53.287Z</time></trkpt><trkpt lat="45.3716959" lon="10.6138435"><ele>114.66666666666667</ele><time>2026-03-29T10:07:54.286Z</time></trkpt><trkpt lat="45.3718595" lon="10.6139682"><ele>114.33333333333334</ele><time>2026-03-29T10:07:55.287Z</time></trkpt><trkpt lat="45.3720102" lon="10.6140989"><ele>114.0</ele><time>2026-03-29T10:07:56.287Z</time></trkpt><trkpt lat="45.3721537" lon="10.6142187"><ele>113.66666666666666</ele><time>2026-03-29T10:07:57.286Z</time></trkpt><trkpt lat="45.3722989" lon="10.6143189"><ele>113.33333333333333</ele><time>2026-03-29T10:07:58.286Z</time></trkpt><trkpt lat="45.3724564" lon="10.6143837"><ele>113.0</ele><time>2026-03-29T10:07:59.287Z</time></trkpt><trkpt lat="45.3726301" lon="10.6144151"><ele>113.0</ele><time>2026-03-29T10:08:00.287Z</time></trkpt><trkpt lat="45.3728145" lon="10.6144205"><ele>113.0</ele><time>2026-03-29T10:08:01.286Z</time></trkpt><trkpt lat="45.3730093" lon="10.6143954"><ele>113.0</ele><time>2026-03-29T10:08:02.286Z</time></trkpt><trkpt lat="45.3732086" lon="10.6143955"><ele>113.0</ele><time>2026-03-29T10:08:03.286Z</time></trkpt><trkpt lat="45.3734014" lon="10.6144303"><ele>113.0</ele><time>2026-03-29T10:08:04.287Z</time></trkpt><trkpt lat="45.3735832" lon="10.614491"><ele>113.0</ele><time>2026-03-29T10:08:05.287Z</time></trkpt><trkpt lat="45.3737578" lon="10.6145902"><ele>113.33333333333333</ele><time>2026-03-29T10:08:06.287Z</time></trkpt><trkpt lat="45.3739313" lon="10.6147103"><ele>113.66666666666666</ele><time>2026-03-29T10:08:07.287Z</time></trkpt><trkpt lat="45.3741076" lon="10.6148544"><ele>114.0</ele><time>2026-03-29T10:08:08.286Z</time></trkpt><trkpt lat="45.3742974" lon="10.615017"><ele>114.0</ele><time>2026-03-29T10:08:09.287Z</time></trkpt><trkpt lat="45.3744948" lon="10.6151909"><ele>114.0</ele><time>2026-03-29T10:08:10.287Z</time></trkpt><trkpt lat="45.3746975" lon="10.6153647"><ele>114.5</ele><time>2026-03-29T10:08:11.286Z</time></trkpt><trkpt lat="45.3748988" lon="10.6155379"><ele>115.0</ele><time>2026-03-29T10:08:12.286Z</time></trkpt><trkpt lat="45.3750927" lon="10.6157026"><ele>115.0</ele><time>2026-03-29T10:08:13.286Z</time></trkpt><trkpt lat="45.3752616" lon="10.615848"><ele>115.0</ele><time>2026-03-29T10:08:14.287Z</time></trkpt><trkpt lat="45.3754132" lon="10.6159826"><ele>115.0</ele><time>2026-03-29T10:08:15.286Z</time></trkpt><trkpt lat="45.3755473" lon="10.6161052"><ele>115.4</ele><time>2026-03-29T10:08:16.286Z</time></trkpt><trkpt lat="45.3756629" lon="10.6162104"><ele>115.8</ele><time>2026-03-29T10:08:17.287Z</time></trkpt><trkpt lat="45.3757585" lon="10.616302"><ele>116.19999999999999</ele><time>2026-03-29T10:08:18.286Z</time></trkpt><trkpt lat="45.3758346" lon="10.6163759"><ele>116.6</ele><time>2026-03-29T10:08:19.287Z</time></trkpt><trkpt lat="45.375892" lon="10.6164401"><ele>117.0</ele><time>2026-03-29T10:08:20.286Z</time></trkpt><trkpt lat="45.3759954" lon="10.6164973"><ele>117.0</ele><time>2026-03-29T10:08:22.287Z</time></trkpt><trkpt lat="45.3760708" lon="10.616479"><ele>117.0</ele><time>2026-03-29T10:08:23.286Z</time></trkpt><trkpt lat="45.376178" lon="10.6164267"><ele>117.0</ele><time>2026-03-29T10:08:24.286Z</time></trkpt><trkpt lat="45.3763153" lon="10.6163593"><ele>117.0</ele><time>2026-03-29T10:08:25.287Z</time></trkpt><trkpt lat="45.376464" lon="10.6162795"><ele>117.5</ele><time>2026-03-29T10:08:26.287Z</time></trkpt><trkpt lat="45.3766089" lon="10.616211"><ele>118.0</ele><time>2026-03-29T10:08:27.287Z</time></trkpt><trkpt lat="45.3767578" lon="10.6161749"><ele>118.5</ele><time>2026-03-29T10:08:28.287Z</time></trkpt><trkpt lat="45.3769014" lon="10.6161701"><ele>119.0</ele><time>2026-03-29T10:08:29.286Z</time></trkpt><trkpt lat="45.3770576" lon="10.6162032"><ele>119.0</ele><time>2026-03-29T10:08:30.286Z</time></trkpt><trkpt lat="45.3772227" lon="10.6162583"><ele>119.0</ele><time>2026-03-29T10:08:31.287Z</time></trkpt><trkpt lat="45.3773879" lon="10.6163188"><ele>119.0</ele><time>2026-03-29T10:08:32.287Z</time></trkpt><trkpt lat="45.3775419" lon="10.6163919"><ele>119.0</ele><time>2026-03-29T10:08:33.287Z</time></trkpt><trkpt lat="45.3776808" lon="10.616455"><ele>119.0</ele><time>2026-03-29T10:08:34.286Z</time></trkpt><trkpt lat="45.3778084" lon="10.6165099"><ele>119.0</ele><time>2026-03-29T10:08:35.286Z</time></trkpt><trkpt lat="45.3779307" lon="10.616559"><ele>119.0</ele><time>2026-03-29T10:08:36.286Z</time></trkpt><trkpt lat="45.3780424" lon="10.6165561"><ele>118.25</ele><time>2026-03-29T10:08:37.286Z</time></trkpt><trkpt lat="45.3781488" lon="10.6165001"><ele>117.5</ele><time>2026-03-29T10:08:38.286Z</time></trkpt><trkpt lat="45.3782576" lon="10.616396"><ele>116.75</ele><time>2026-03-29T10:08:39.287Z</time></trkpt><trkpt lat="45.3783653" lon="10.6162372"><ele>116.0</ele><time>2026-03-29T10:08:40.286Z</time></trkpt><trkpt lat="45.3784664" lon="10.6160582"><ele>115.0</ele><time>2026-03-29T10:08:41.287Z</time></trkpt><trkpt lat="45.3785617" lon="10.6158804"><ele>114.0</ele><time>2026-03-29T10:08:42.287Z</time></trkpt><trkpt lat="45.3786493" lon="10.6157279"><ele>113.0</ele><time>2026-03-29T10:08:43.287Z</time></trkpt><trkpt lat="45.3787381" lon="10.6155945"><ele>112.0</ele><time>2026-03-29T10:08:44.287Z</time></trkpt><trkpt lat="45.3788233" lon="10.6155011"><ele>111.8</ele><time>2026-03-29T10:08:45.287Z</time></trkpt><trkpt lat="45.378914" lon="10.6154564"><ele>111.6</ele><time>2026-03-29T10:08:46.286Z</time></trkpt><trkpt lat="45.3790047" lon="10.6154477"><ele>111.39999999999999</ele><time>2026-03-29T10:08:47.287Z</time></trkpt><trkpt lat="45.3791061" lon="10.615495"><ele>111.19999999999999</ele><time>2026-03-29T10:08:48.286Z</time></trkpt><trkpt lat="45.3792068" lon="10.6155946"><ele>111.0</ele><time>2026-03-29T10:08:49.286Z</time></trkpt><trkpt lat="45.379301" lon="10.615702"><ele>111.0</ele><time>2026-03-29T10:08:50.287Z</time></trkpt><trkpt lat="45.3793928" lon="10.6157915"><ele>111.0</ele><time>2026-03-29T10:08:51.286Z</time></trkpt><trkpt lat="45.3794807" lon="10.6158363"><ele>111.0</ele><time>2026-03-29T10:08:52.287Z</time></trkpt><trkpt lat="45.379571" lon="10.6158392"><ele>111.0</ele><time>2026-03-29T10:08:53.287Z</time></trkpt><trkpt lat="45.379665" lon="10.6157898"><ele>111.0</ele><time>2026-03-29T10:08:54.287Z</time></trkpt><trkpt lat="45.3797646" lon="10.6156983"><ele>109.8</ele><time>2026-03-29T10:08:55.286Z</time></trkpt><trkpt lat="45.3798575" lon="10.6155948"><ele>108.6</ele><time>2026-03-29T10:08:56.286Z</time></trkpt><trkpt lat="45.3799486" lon="10.6155106"><ele>107.4</ele><time>2026-03-29T10:08:57.286Z</time></trkpt><trkpt lat="45.3800417" lon="10.6154639"><ele>106.2</ele><time>2026-03-29T10:08:58.287Z</time></trkpt><trkpt lat="45.3801518" lon="10.6154715"><ele>105.0</ele><time>2026-03-29T10:08:59.286Z</time></trkpt><trkpt lat="45.3802885" lon="10.6155283"><ele>105.0</ele><time>2026-03-29T10:09:00.287Z</time></trkpt><trkpt lat="45.3804319" lon="10.6155918"><ele>105.0</ele><time>2026-03-29T10:09:01.287Z</time></trkpt><trkpt lat="45.3805769" lon="10.6156176"><ele>105.0</ele><time>2026-03-29T10:09:02.286Z</time></trkpt><trkpt lat="45.3807272" lon="10.6156006"><ele>105.0</ele><time>2026-03-29T10:09:03.286Z</time></trkpt><trkpt lat="45.3808896" lon="10.6155342"><ele>104.33333333333334</ele><time>2026-03-29T10:09:04.286Z</time></trkpt><trkpt lat="45.3810607" lon="10.6154376"><ele>103.66666666666667</ele><time>2026-03-29T10:09:05.287Z</time></trkpt><trkpt lat="45.3812215" lon="10.6153243"><ele>103.0</ele><time>2026-03-29T10:09:06.287Z</time></trkpt><trkpt lat="45.3813578" lon="10.6152104"><ele>103.0</ele><time>2026-03-29T10:09:07.286Z</time></trkpt><trkpt lat="45.3814715" lon="10.6150854"><ele>103.0</ele><time>2026-03-29T10:09:08.286Z</time></trkpt><trkpt lat="45.3815692" lon="10.6149535"><ele>103.0</ele><time>2026-03-29T10:09:09.286Z</time></trkpt><trkpt lat="45.3816488" lon="10.6148298"><ele>103.0</ele><time>2026-03-29T10:09:10.287Z</time></trkpt><trkpt lat="45.3817169" lon="10.6147315"><ele>103.0</ele><time>2026-03-29T10:09:11.287Z</time></trkpt><trkpt lat="45.3817706" lon="10.6146759"><ele>103.0</ele><time>2026-03-29T10:09:12.287Z</time></trkpt><trkpt lat="45.3818465" lon="10.6146559"><ele>103.0</ele><time>2026-03-29T10:09:14.287Z</time></trkpt><trkpt lat="45.3819311" lon="10.6146959"><ele>103.0</ele><time>2026-03-29T10:09:16.287Z</time></trkpt><trkpt lat="45.3819915" lon="10.6147994"><ele>103.0</ele><time>2026-03-29T10:09:18.287Z</time></trkpt><trkpt lat="45.3820076" lon="10.6149923"><ele>103.0</ele><time>2026-03-29T10:09:20.286Z</time></trkpt><trkpt lat="45.3819995" lon="10.6151762"><ele>103.0</ele><time>2026-03-29T10:09:21.286Z</time></trkpt><trkpt lat="45.3819819" lon="10.6154097"><ele>103.0</ele><time>2026-03-29T10:09:22.286Z</time></trkpt><trkpt lat="45.3819663" lon="10.61567"><ele>103.0</ele><time>2026-03-29T10:09:23.287Z</time></trkpt><trkpt lat="45.3819534" lon="10.615927"><ele>103.0</ele><time>2026-03-29T10:09:24.287Z</time></trkpt><trkpt lat="45.3819454" lon="10.6161806"><ele>103.0</ele><time>2026-03-29T10:09:25.287Z</time></trkpt><trkpt lat="45.3819351" lon="10.6164313"><ele>103.0</ele><time>2026-03-29T10:09:26.287Z</time></trkpt><trkpt lat="45.381926" lon="10.6166699"><ele>103.0</ele><time>2026-03-29T10:09:27.286Z</time></trkpt><trkpt lat="45.3819191" lon="10.6168898"><ele>103.0</ele><time>2026-03-29T10:09:28.286Z</time></trkpt><trkpt lat="45.3819165" lon="10.6170923"><ele>102.25</ele><time>2026-03-29T10:09:29.287Z</time></trkpt><trkpt lat="45.3819148" lon="10.6172756"><ele>101.5</ele><time>2026-03-29T10:09:30.287Z</time></trkpt><trkpt lat="45.381916" lon="10.6174493"><ele>100.75</ele><time>2026-03-29T10:09:31.286Z</time></trkpt><trkpt lat="45.3819201" lon="10.6176183"><ele>100.0</ele><time>2026-03-29T10:09:32.286Z</time></trkpt><trkpt lat="45.3819303" lon="10.6177899"><ele>100.5</ele><time>2026-03-29T10:09:33.286Z</time></trkpt><trkpt lat="45.3819505" lon="10.6179568"><ele>101.0</ele><time>2026-03-29T10:09:34.287Z</time></trkpt><trkpt lat="45.3819837" lon="10.6181397"><ele>101.5</ele><time>2026-03-29T10:09:35.286Z</time></trkpt><trkpt lat="45.382014" lon="10.6183215"><ele>102.0</ele><time>2026-03-29T10:09:36.287Z</time></trkpt><trkpt lat="45.3820215" lon="10.6184964"><ele>102.75</ele><time>2026-03-29T10:09:37.287Z</time></trkpt><trkpt lat="45.3820378" lon="10.6186631"><ele>103.5</ele><time>2026-03-29T10:09:38.286Z</time></trkpt><trkpt lat="45.3820701" lon="10.6188339"><ele>104.25</ele><time>2026-03-29T10:09:39.287Z</time></trkpt><trkpt lat="45.3821018" lon="10.6190073"><ele>105.0</ele><time>2026-03-29T10:09:40.286Z</time></trkpt><trkpt lat="45.3821256" lon="10.6191661"><ele>105.0</ele><time>2026-03-29T10:09:41.287Z</time></trkpt><trkpt lat="45.3821406" lon="10.6193093"><ele>105.0</ele><time>2026-03-29T10:09:42.287Z</time></trkpt><trkpt lat="45.382138" lon="10.6194431"><ele>105.0</ele><time>2026-03-29T10:09:43.286Z</time></trkpt><trkpt lat="45.3821066" lon="10.6195848"><ele>105.0</ele><time>2026-03-29T10:09:44.287Z</time></trkpt><trkpt lat="45.3820596" lon="10.6197378"><ele>105.0</ele><time>2026-03-29T10:09:45.287Z</time></trkpt><trkpt lat="45.3820063" lon="10.6199004"><ele>104.75</ele><time>2026-03-29T10:09:46.287Z</time></trkpt><trkpt lat="45.3819551" lon="10.6200631"><ele>104.5</ele><time>2026-03-29T10:09:47.286Z</time></trkpt><trkpt lat="45.3818986" lon="10.6202207"><ele>104.25</ele><time>2026-03-29T10:09:48.287Z</time></trkpt><trkpt lat="45.38185" lon="10.6203674"><ele>104.0</ele><time>2026-03-29T10:09:49.287Z</time></trkpt><trkpt lat="45.3818056" lon="10.6204882"><ele>103.4</ele><time>2026-03-29T10:09:50.287Z</time></trkpt><trkpt lat="45.3817797" lon="10.6205993"><ele>102.80000000000001</ele><time>2026-03-29T10:09:51.286Z</time></trkpt><trkpt lat="45.3817661" lon="10.6207351"><ele>102.19999999999999</ele><time>2026-03-29T10:09:52.285Z</time></trkpt><trkpt lat="45.3817661" lon="10.6208991"><ele>101.6</ele><time>2026-03-29T10:09:53.286Z</time></trkpt><trkpt lat="45.3817622" lon="10.6210925"><ele>101.0</ele><time>2026-03-29T10:09:54.285Z</time></trkpt><trkpt lat="45.38176" lon="10.6212913"><ele>100.75</ele><time>2026-03-29T10:09:55.286Z</time></trkpt><trkpt lat="45.3817651" lon="10.6214956"><ele>100.5</ele><time>2026-03-29T10:09:56.286Z</time></trkpt><trkpt lat="45.3817632" lon="10.6216977"><ele>100.25</ele><time>2026-03-29T10:09:57.285Z</time></trkpt><trkpt lat="45.3817528" lon="10.621892"><ele>100.0</ele><time>2026-03-29T10:09:58.286Z</time></trkpt><trkpt lat="45.3817383" lon="10.6220908"><ele>100.0</ele><time>2026-03-29T10:09:59.285Z</time></trkpt><trkpt lat="45.3817251" lon="10.622276"><ele>100.0</ele><time>2026-03-29T10:10:00.286Z</time></trkpt><trkpt lat="45.381714" lon="10.6224589"><ele>100.0</ele><time>2026-03-29T10:10:01.286Z</time></trkpt><trkpt lat="45.3816973" lon="10.6226371"><ele>100.0</ele><time>2026-03-29T10:10:02.285Z</time></trkpt><trkpt lat="45.3816818" lon="10.6228153"><ele>100.0</ele><time>2026-03-29T10:10:03.286Z</time></trkpt><trkpt lat="45.3816602" lon="10.6229904"><ele>100.0</ele><time>2026-03-29T10:10:04.286Z</time></trkpt><trkpt lat="45.3816504" lon="10.6231359"><ele>100.0</ele><time>2026-03-29T10:10:05.285Z</time></trkpt><trkpt lat="45.3816499" lon="10.6232736"><ele>100.0</ele><time>2026-03-29T10:10:06.286Z</time></trkpt><trkpt lat="45.3816636" lon="10.623403"><ele>100.0</ele><time>2026-03-29T10:10:07.285Z</time></trkpt><trkpt lat="45.3816834" lon="10.6235516"><ele>100.33333333333334</ele><time>2026-03-29T10:10:08.285Z</time></trkpt><trkpt lat="45.3816888" lon="10.6237304"><ele>100.66666666666666</ele><time>2026-03-29T10:10:09.285Z</time></trkpt><trkpt lat="45.3816741" lon="10.6239563"><ele>101.0</ele><time>2026-03-29T10:10:10.286Z</time></trkpt><trkpt lat="45.3816493" lon="10.624191"><ele>101.0</ele><time>2026-03-29T10:10:11.285Z</time></trkpt><trkpt lat="45.3816309" lon="10.6244296"><ele>101.0</ele><time>2026-03-29T10:10:12.286Z</time></trkpt><trkpt lat="45.3816183" lon="10.6246498"><ele>101.0</ele><time>2026-03-29T10:10:13.286Z</time></trkpt><trkpt lat="45.3816122" lon="10.6248658"><ele>100.66666666666666</ele><time>2026-03-29T10:10:14.286Z</time></trkpt><trkpt lat="45.3816017" lon="10.6250843"><ele>100.33333333333334</ele><time>2026-03-29T10:10:15.286Z</time></trkpt><trkpt lat="45.381572" lon="10.6253076"><ele>100.0</ele><time>2026-03-29T10:10:16.285Z</time></trkpt><trkpt lat="45.3815463" lon="10.6255255"><ele>100.0</ele><time>2026-03-29T10:10:17.285Z</time></trkpt><trkpt lat="45.3815217" lon="10.6257356"><ele>100.0</ele><time>2026-03-29T10:10:18.285Z</time></trkpt><trkpt lat="45.381498" lon="10.6259438"><ele>100.0</ele><time>2026-03-29T10:10:19.285Z</time></trkpt><trkpt lat="45.3814645" lon="10.6261435"><ele>100.0</ele><time>2026-03-29T10:10:20.286Z</time></trkpt><trkpt lat="45.3814292" lon="10.6263345"><ele>100.25</ele><time>2026-03-29T10:10:21.286Z</time></trkpt><trkpt lat="45.3814028" lon="10.6265196"><ele>100.5</ele><time>2026-03-29T10:10:22.286Z</time></trkpt><trkpt lat="45.3813794" lon="10.6266967"><ele>100.75</ele><time>2026-03-29T10:10:23.285Z</time></trkpt><trkpt lat="45.381355" lon="10.6268742"><ele>101.0</ele><time>2026-03-29T10:10:24.286Z</time></trkpt><trkpt lat="45.3813279" lon="10.6270483"><ele>102.19999999999999</ele><time>2026-03-29T10:10:25.286Z</time></trkpt><trkpt lat="45.3813085" lon="10.6272167"><ele>103.39999999999999</ele><time>2026-03-29T10:10:26.286Z</time></trkpt><trkpt lat="45.381294" lon="10.6273791"><ele>104.6</ele><time>2026-03-29T10:10:27.285Z</time></trkpt><trkpt lat="45.3812774" lon="10.6275259"><ele>105.8</ele><time>2026-03-29T10:10:28.286Z</time></trkpt><trkpt lat="45.3812617" lon="10.6276557"><ele>107.0</ele><time>2026-03-29T10:10:29.285Z</time></trkpt><trkpt lat="45.3812442" lon="10.6277545"><ele>105.6</ele><time>2026-03-29T10:10:30.286Z</time></trkpt><trkpt lat="45.3811874" lon="10.6278966"><ele>104.19999999999999</ele><time>2026-03-29T10:10:32.286Z</time></trkpt><trkpt lat="45.3811082" lon="10.6279442"><ele>102.8</ele><time>2026-03-29T10:10:33.286Z</time></trkpt><trkpt lat="45.38101" lon="10.6279694"><ele>101.4</ele><time>2026-03-29T10:10:34.286Z</time></trkpt><trkpt lat="45.3808793" lon="10.6279978"><ele>100.0</ele><time>2026-03-29T10:10:35.285Z</time></trkpt><trkpt lat="45.3807423" lon="10.6280271"><ele>100.0</ele><time>2026-03-29T10:10:36.285Z</time></trkpt><trkpt lat="45.380596" lon="10.6280795"><ele>100.0</ele><time>2026-03-29T10:10:37.286Z</time></trkpt><trkpt lat="45.3804543" lon="10.6281523"><ele>100.0</ele><time>2026-03-29T10:10:38.285Z</time></trkpt><trkpt lat="45.3803265" lon="10.62825"><ele>100.0</ele><time>2026-03-29T10:10:39.286Z</time></trkpt><trkpt lat="45.3802107" lon="10.6283486"><ele>101.6</ele><time>2026-03-29T10:10:40.286Z</time></trkpt><trkpt lat="45.3801067" lon="10.6284446"><ele>103.2</ele><time>2026-03-29T10:10:41.286Z</time></trkpt><trkpt lat="45.3800079" lon="10.6285316"><ele>104.80000000000001</ele><time>2026-03-29T10:10:42.285Z</time></trkpt><trkpt lat="45.3799076" lon="10.6285667"><ele>106.4</ele><time>2026-03-29T10:10:43.285Z</time></trkpt><trkpt lat="45.379809" lon="10.6285754"><ele>108.0</ele><time>2026-03-29T10:10:44.285Z</time></trkpt><trkpt lat="45.3797087" lon="10.6285487"><ele>108.4</ele><time>2026-03-29T10:10:45.286Z</time></trkpt><trkpt lat="45.3796031" lon="10.628498"><ele>108.80000000000001</ele><time>2026-03-29T10:10:46.285Z</time></trkpt><trkpt lat="45.3794995" lon="10.6284421"><ele>109.2</ele><time>2026-03-29T10:10:47.285Z</time></trkpt><trkpt lat="45.3794082" lon="10.6284016"><ele>109.6</ele><time>2026-03-29T10:10:48.286Z</time></trkpt><trkpt lat="45.3793366" lon="10.6283733"><ele>110.0</ele><time>2026-03-29T10:10:49.285Z</time></trkpt><trkpt lat="45.3792661" lon="10.6283534"><ele>109.99999999999999</ele><time>2026-03-29T10:10:51.285Z</time></trkpt><trkpt lat="45.3793393" lon="10.6283561"><ele>110.0</ele><time>2026-03-29T10:11:11.286Z</time></trkpt><trkpt lat="45.3794614" lon="10.6283895"><ele>110.0</ele><time>2026-03-29T10:11:13.286Z</time></trkpt><trkpt lat="45.3795328" lon="10.6284238"><ele>110.0</ele><time>2026-03-29T10:11:14.286Z</time></trkpt><trkpt lat="45.3795949" lon="10.6284577"><ele>109.99999999999999</ele><time>2026-03-29T10:11:15.286Z</time></trkpt><trkpt lat="45.3796749" lon="10.6284815"><ele>110.0</ele><time>2026-03-29T10:11:17.285Z</time></trkpt><trkpt lat="45.3797663" lon="10.6285034"><ele>109.66666666666666</ele><time>2026-03-29T10:11:19.285Z</time></trkpt><trkpt lat="45.3798644" lon="10.628524"><ele>109.33333333333333</ele><time>2026-03-29T10:11:21.285Z</time></trkpt><trkpt lat="45.3799315" lon="10.6285554"><ele>109.0</ele><time>2026-03-29T10:11:23.285Z</time></trkpt><trkpt lat="45.3800017" lon="10.6286096"><ele>108.66666666666666</ele><time>2026-03-29T10:11:26.285Z</time></trkpt><trkpt lat="45.3800551" lon="10.6286614"><ele>108.33333333333333</ele><time>2026-03-29T10:11:29.285Z</time></trkpt><trkpt lat="45.3801754" lon="10.628738"><ele>108.0</ele><time>2026-03-29T10:11:31.285Z</time></trkpt><trkpt lat="45.3802666" lon="10.6288015"><ele>105.75</ele><time>2026-03-29T10:11:32.285Z</time></trkpt><trkpt lat="45.3803668" lon="10.6288912"><ele>103.5</ele><time>2026-03-29T10:11:33.285Z</time></trkpt><trkpt lat="45.3804725" lon="10.6289973"><ele>101.25</ele><time>2026-03-29T10:11:34.286Z</time></trkpt><trkpt lat="45.3805815" lon="10.6291112"><ele>99.0</ele><time>2026-03-29T10:11:35.286Z</time></trkpt><trkpt lat="45.3806983" lon="10.6292152"><ele>98.75</ele><time>2026-03-29T10:11:36.285Z</time></trkpt><trkpt lat="45.3808206" lon="10.6293148"><ele>98.5</ele><time>2026-03-29T10:11:37.286Z</time></trkpt><trkpt lat="45.3809426" lon="10.6294172"><ele>98.25</ele><time>2026-03-29T10:11:38.286Z</time></trkpt><trkpt lat="45.3810629" lon="10.6295271"><ele>98.0</ele><time>2026-03-29T10:11:39.286Z</time></trkpt><trkpt lat="45.3811884" lon="10.6296436"><ele>97.75</ele><time>2026-03-29T10:11:40.285Z</time></trkpt><trkpt lat="45.3813102" lon="10.6297619"><ele>97.5</ele><time>2026-03-29T10:11:41.286Z</time></trkpt><trkpt lat="45.381432" lon="10.6298785"><ele>97.25</ele><time>2026-03-29T10:11:42.286Z</time></trkpt><trkpt lat="45.3815466" lon="10.6299857"><ele>97.0</ele><time>2026-03-29T10:11:43.285Z</time></trkpt><trkpt lat="45.381653" lon="10.6300904"><ele>97.75</ele><time>2026-03-29T10:11:44.285Z</time></trkpt><trkpt lat="45.3817615" lon="10.6301895"><ele>98.5</ele><time>2026-03-29T10:11:45.285Z</time></trkpt><trkpt lat="45.3818679" lon="10.630283"><ele>99.25</ele><time>2026-03-29T10:11:46.285Z</time></trkpt><trkpt lat="45.3819794" lon="10.6303818"><ele>100.0</ele><time>2026-03-29T10:11:47.286Z</time></trkpt><trkpt lat="45.3820937" lon="10.6304807"><ele>101.2</ele><time>2026-03-29T10:11:48.286Z</time></trkpt><trkpt lat="45.3822006" lon="10.6305753"><ele>102.4</ele><time>2026-03-29T10:11:49.286Z</time></trkpt><trkpt lat="45.3822972" lon="10.6306573"><ele>103.6</ele><time>2026-03-29T10:11:50.286Z</time></trkpt><trkpt lat="45.3823803" lon="10.6307267"><ele>104.8</ele><time>2026-03-29T10:11:51.286Z</time></trkpt><trkpt lat="45.3824489" lon="10.6307832"><ele>106.0</ele><time>2026-03-29T10:11:52.286Z</time></trkpt><trkpt lat="45.3824989" lon="10.6308436"><ele>106.0</ele><time>2026-03-29T10:11:53.286Z</time></trkpt><trkpt lat="45.3825422" lon="10.6309151"><ele>106.0</ele><time>2026-03-29T10:11:54.285Z</time></trkpt><trkpt lat="45.3825692" lon="10.6310024"><ele>106.0</ele><time>2026-03-29T10:11:55.286Z</time></trkpt><trkpt lat="45.3825371" lon="10.6312014"><ele>106.0</ele><time>2026-03-29T10:11:57.285Z</time></trkpt><trkpt lat="45.382481" lon="10.6313446"><ele>106.0</ele><time>2026-03-29T10:11:58.286Z</time></trkpt><trkpt lat="45.3824012" lon="10.6315361"><ele>105.33333333333334</ele><time>2026-03-29T10:11:59.286Z</time></trkpt><trkpt lat="45.3823128" lon="10.63176"><ele>104.66666666666666</ele><time>2026-03-29T10:12:00.286Z</time></trkpt><trkpt lat="45.3822274" lon="10.6319738"><ele>104.0</ele><time>2026-03-29T10:12:01.285Z</time></trkpt><trkpt lat="45.3821483" lon="10.6321787"><ele>102.0</ele><time>2026-03-29T10:12:02.286Z</time></trkpt><trkpt lat="45.3820803" lon="10.6323891"><ele>100.0</ele><time>2026-03-29T10:12:03.285Z</time></trkpt><trkpt lat="45.3820144" lon="10.6325869"><ele>98.0</ele><time>2026-03-29T10:12:04.286Z</time></trkpt><trkpt lat="45.381953" lon="10.6327691"><ele>98.25</ele><time>2026-03-29T10:12:05.286Z</time></trkpt><trkpt lat="45.3818913" lon="10.6329327"><ele>98.5</ele><time>2026-03-29T10:12:06.286Z</time></trkpt><trkpt lat="45.3818267" lon="10.6330909"><ele>98.75</ele><time>2026-03-29T10:12:07.286Z</time></trkpt><trkpt lat="45.3817631" lon="10.6332493"><ele>99.0</ele><time>2026-03-29T10:12:08.286Z</time></trkpt><trkpt lat="45.3816984" lon="10.6334212"><ele>99.0</ele><time>2026-03-29T10:12:09.286Z</time></trkpt><trkpt lat="45.3816381" lon="10.633592"><ele>99.0</ele><time>2026-03-29T10:12:10.286Z</time></trkpt><trkpt lat="45.3815798" lon="10.6337596"><ele>99.0</ele><time>2026-03-29T10:12:11.286Z</time></trkpt><trkpt lat="45.3815244" lon="10.6339315"><ele>99.0</ele><time>2026-03-29T10:12:12.285Z</time></trkpt><trkpt lat="45.3814705" lon="10.6341028"><ele>99.25</ele><time>2026-03-29T10:12:13.285Z</time></trkpt><trkpt lat="45.381412" lon="10.6342646"><ele>99.5</ele><time>2026-03-29T10:12:14.285Z</time></trkpt><trkpt lat="45.3813449" lon="10.6344183"><ele>99.75</ele><time>2026-03-29T10:12:15.285Z</time></trkpt><trkpt lat="45.3812787" lon="10.6345518"><ele>100.0</ele><time>2026-03-29T10:12:16.285Z</time></trkpt><trkpt lat="45.3812033" lon="10.6346678"><ele>100.0</ele><time>2026-03-29T10:12:17.285Z</time></trkpt><trkpt lat="45.3811164" lon="10.6347742"><ele>100.0</ele><time>2026-03-29T10:12:18.285Z</time></trkpt><trkpt lat="45.3810181" lon="10.6348908"><ele>100.0</ele><time>2026-03-29T10:12:19.285Z</time></trkpt><trkpt lat="45.3809272" lon="10.6350093"><ele>100.0</ele><time>2026-03-29T10:12:20.285Z</time></trkpt><trkpt lat="45.3808409" lon="10.6351284"><ele>100.0</ele><time>2026-03-29T10:12:21.285Z</time></trkpt><trkpt lat="45.3807603" lon="10.6352593"><ele>100.0</ele><time>2026-03-29T10:12:22.286Z</time></trkpt><trkpt lat="45.3806888" lon="10.6353921"><ele>100.0</ele><time>2026-03-29T10:12:23.286Z</time></trkpt><trkpt lat="45.3806234" lon="10.6355332"><ele>100.0</ele><time>2026-03-29T10:12:24.285Z</time></trkpt><trkpt lat="45.380567" lon="10.6356883"><ele>100.6</ele><time>2026-03-29T10:12:25.286Z</time></trkpt><trkpt lat="45.3805184" lon="10.6358394"><ele>101.2</ele><time>2026-03-29T10:12:26.286Z</time></trkpt><trkpt lat="45.3804808" lon="10.6359864"><ele>101.80000000000001</ele><time>2026-03-29T10:12:27.286Z</time></trkpt><trkpt lat="45.3804528" lon="10.6361373"><ele>102.4</ele><time>2026-03-29T10:12:28.285Z</time></trkpt><trkpt lat="45.3804396" lon="10.636277"><ele>103.0</ele><time>2026-03-29T10:12:29.285Z</time></trkpt><trkpt lat="45.3804324" lon="10.6364193"><ele>103.0</ele><time>2026-03-29T10:12:30.286Z</time></trkpt><trkpt lat="45.3804475" lon="10.6365655"><ele>103.0</ele><time>2026-03-29T10:12:31.285Z</time></trkpt><trkpt lat="45.3804744" lon="10.6367177"><ele>103.0</ele><time>2026-03-29T10:12:32.286Z</time></trkpt><trkpt lat="45.3805077" lon="10.636874"><ele>103.0</ele><time>2026-03-29T10:12:33.286Z</time></trkpt><trkpt lat="45.3805472" lon="10.637032"><ele>103.0</ele><time>2026-03-29T10:12:34.285Z</time></trkpt><trkpt lat="45.3805887" lon="10.6371726"><ele>103.0</ele><time>2026-03-29T10:12:35.286Z</time></trkpt><trkpt lat="45.3806307" lon="10.6373036"><ele>103.0</ele><time>2026-03-29T10:12:36.285Z</time></trkpt><trkpt lat="45.3806724" lon="10.6374158"><ele>103.0</ele><time>2026-03-29T10:12:37.285Z</time></trkpt><trkpt lat="45.380689" lon="10.6375623"><ele>103.0</ele><time>2026-03-29T10:12:39.286Z</time></trkpt><trkpt lat="45.3807617" lon="10.6376649"><ele>103.0</ele><time>2026-03-29T10:12:43.285Z</time></trkpt><trkpt lat="45.3808366" lon="10.6376993"><ele>103.0</ele><time>2026-03-29T10:12:44.285Z</time></trkpt><trkpt lat="45.3809289" lon="10.6377578"><ele>103.0</ele><time>2026-03-29T10:12:45.285Z</time></trkpt><trkpt lat="45.3810331" lon="10.637848"><ele>103.0</ele><time>2026-03-29T10:12:46.286Z</time></trkpt><trkpt lat="45.3811399" lon="10.6379696"><ele>103.0</ele><time>2026-03-29T10:12:47.286Z</time></trkpt><trkpt lat="45.3812488" lon="10.6381109"><ele>103.33333333333334</ele><time>2026-03-29T10:12:48.286Z</time></trkpt><trkpt lat="45.381358" lon="10.63827"><ele>103.66666666666666</ele><time>2026-03-29T10:12:49.285Z</time></trkpt><trkpt lat="45.3814793" lon="10.6384282"><ele>104.0</ele><time>2026-03-29T10:12:50.285Z</time></trkpt><trkpt lat="45.3816023" lon="10.6385942"><ele>103.33333333333333</ele><time>2026-03-29T10:12:51.285Z</time></trkpt><trkpt lat="45.3817212" lon="10.6387714"><ele>102.66666666666666</ele><time>2026-03-29T10:12:52.286Z</time></trkpt><trkpt lat="45.3818374" lon="10.6389588"><ele>102.0</ele><time>2026-03-29T10:12:53.285Z</time></trkpt><trkpt lat="45.381953" lon="10.6391605"><ele>102.0</ele><time>2026-03-29T10:12:54.286Z</time></trkpt><trkpt lat="45.3820672" lon="10.6393612"><ele>102.0</ele><time>2026-03-29T10:12:55.286Z</time></trkpt><trkpt lat="45.3821872" lon="10.6395609"><ele>102.0</ele><time>2026-03-29T10:12:56.286Z</time></trkpt><trkpt lat="45.3823088" lon="10.6397434"><ele>103.0</ele><time>2026-03-29T10:12:57.286Z</time></trkpt><trkpt lat="45.3824413" lon="10.6399034"><ele>104.0</ele><time>2026-03-29T10:12:58.285Z</time></trkpt><trkpt lat="45.3825875" lon="10.6400493"><ele>105.0</ele><time>2026-03-29T10:12:59.286Z</time></trkpt><trkpt lat="45.3827454" lon="10.6401908"><ele>105.66666666666666</ele><time>2026-03-29T10:13:00.286Z</time></trkpt><trkpt lat="45.3829346" lon="10.6403346"><ele>106.33333333333333</ele><time>2026-03-29T10:13:01.285Z</time></trkpt><trkpt lat="45.3831366" lon="10.6404834"><ele>107.0</ele><time>2026-03-29T10:13:02.285Z</time></trkpt><trkpt lat="45.3833387" lon="10.6406311"><ele>107.0</ele><time>2026-03-29T10:13:03.286Z</time></trkpt><trkpt lat="45.3835426" lon="10.6407628"><ele>107.0</ele><time>2026-03-29T10:13:04.286Z</time></trkpt><trkpt lat="45.3837434" lon="10.64089"><ele>107.0</ele><time>2026-03-29T10:13:05.285Z</time></trkpt><trkpt lat="45.3839373" lon="10.6410146"><ele>106.33333333333333</ele><time>2026-03-29T10:13:06.286Z</time></trkpt><trkpt lat="45.3841281" lon="10.6411399"><ele>105.66666666666666</ele><time>2026-03-29T10:13:07.286Z</time></trkpt><trkpt lat="45.3843144" lon="10.6412552"><ele>105.0</ele><time>2026-03-29T10:13:08.285Z</time></trkpt><trkpt lat="45.3845021" lon="10.6413631"><ele>106.0</ele><time>2026-03-29T10:13:09.285Z</time></trkpt><trkpt lat="45.3846838" lon="10.6414617"><ele>107.0</ele><time>2026-03-29T10:13:10.286Z</time></trkpt><trkpt lat="45.3848581" lon="10.6415594"><ele>108.0</ele><time>2026-03-29T10:13:11.285Z</time></trkpt><trkpt lat="45.385045" lon="10.6416522"><ele>108.0</ele><time>2026-03-29T10:13:12.285Z</time></trkpt><trkpt lat="45.3852344" lon="10.6417465"><ele>108.0</ele><time>2026-03-29T10:13:13.285Z</time></trkpt><trkpt lat="45.3854294" lon="10.6418462"><ele>108.0</ele><time>2026-03-29T10:13:14.286Z</time></trkpt><trkpt lat="45.3856199" lon="10.6419503"><ele>107.0</ele><time>2026-03-29T10:13:15.285Z</time></trkpt><trkpt lat="45.3858114" lon="10.6420517"><ele>106.0</ele><time>2026-03-29T10:13:16.286Z</time></trkpt><trkpt lat="45.3860067" lon="10.6421568"><ele>105.0</ele><time>2026-03-29T10:13:17.285Z</time></trkpt><trkpt lat="45.3861982" lon="10.6422632"><ele>105.33333333333334</ele><time>2026-03-29T10:13:18.286Z</time></trkpt><trkpt lat="45.3863875" lon="10.6423605"><ele>105.66666666666667</ele><time>2026-03-29T10:13:19.285Z</time></trkpt><trkpt lat="45.3865758" lon="10.6424567"><ele>106.0</ele><time>2026-03-29T10:13:20.286Z</time></trkpt><trkpt lat="45.3867614" lon="10.6425547"><ele>106.0</ele><time>2026-03-29T10:13:21.286Z</time></trkpt><trkpt lat="45.3869527" lon="10.6426556"><ele>106.0</ele><time>2026-03-29T10:13:22.285Z</time></trkpt><trkpt lat="45.3871497" lon="10.6427598"><ele>106.0</ele><time>2026-03-29T10:13:23.285Z</time></trkpt><trkpt lat="45.3873407" lon="10.6428624"><ele>105.0</ele><time>2026-03-29T10:13:24.286Z</time></trkpt><trkpt lat="45.38753" lon="10.6429581"><ele>104.0</ele><time>2026-03-29T10:13:25.285Z</time></trkpt><trkpt lat="45.3877177" lon="10.6430587"><ele>103.0</ele><time>2026-03-29T10:13:26.285Z</time></trkpt><trkpt lat="45.3879027" lon="10.6431559"><ele>104.0</ele><time>2026-03-29T10:13:27.286Z</time></trkpt><trkpt lat="45.3880904" lon="10.6432419"><ele>105.0</ele><time>2026-03-29T10:13:28.285Z</time></trkpt><trkpt lat="45.3882735" lon="10.6433223"><ele>106.0</ele><time>2026-03-29T10:13:29.285Z</time></trkpt><trkpt lat="45.3884639" lon="10.6434"><ele>106.0</ele><time>2026-03-29T10:13:30.285Z</time></trkpt><trkpt lat="45.3886527" lon="10.6434831"><ele>106.0</ele><time>2026-03-29T10:13:31.285Z</time></trkpt><trkpt lat="45.3888371" lon="10.6435569"><ele>106.0</ele><time>2026-03-29T10:13:32.285Z</time></trkpt><trkpt lat="45.3890108" lon="10.6436188"><ele>105.33333333333334</ele><time>2026-03-29T10:13:33.285Z</time></trkpt><trkpt lat="45.3891746" lon="10.6436821"><ele>104.66666666666666</ele><time>2026-03-29T10:13:34.285Z</time></trkpt><trkpt lat="45.3893393" lon="10.6437438"><ele>104.0</ele><time>2026-03-29T10:13:35.285Z</time></trkpt><trkpt lat="45.3894943" lon="10.643803"><ele>104.0</ele><time>2026-03-29T10:13:36.286Z</time></trkpt><trkpt lat="45.389644" lon="10.643854"><ele>104.0</ele><time>2026-03-29T10:13:37.285Z</time></trkpt><trkpt lat="45.3897806" lon="10.6439001"><ele>104.0</ele><time>2026-03-29T10:13:38.286Z</time></trkpt><trkpt lat="45.389901" lon="10.6439437"><ele>104.0</ele><time>2026-03-29T10:13:39.284Z</time></trkpt><trkpt lat="45.3900139" lon="10.6439611"><ele>104.0</ele><time>2026-03-29T10:13:40.285Z</time></trkpt><trkpt lat="45.3901143" lon="10.6439306"><ele>104.0</ele><time>2026-03-29T10:13:41.284Z</time></trkpt><trkpt lat="45.3902109" lon="10.6438571"><ele>104.0</ele><time>2026-03-29T10:13:42.284Z</time></trkpt><trkpt lat="45.3903029" lon="10.643741"><ele>104.0</ele><time>2026-03-29T10:13:43.284Z</time></trkpt><trkpt lat="45.3903847" lon="10.6435935"><ele>105.66666666666666</ele><time>2026-03-29T10:13:44.284Z</time></trkpt><trkpt lat="45.3904589" lon="10.6434125"><ele>107.33333333333334</ele><time>2026-03-29T10:13:45.284Z</time></trkpt><trkpt lat="45.3905246" lon="10.643205"><ele>109.0</ele><time>2026-03-29T10:13:46.284Z</time></trkpt><trkpt lat="45.3905919" lon="10.6430003"><ele>110.75</ele><time>2026-03-29T10:13:47.285Z</time></trkpt><trkpt lat="45.3906628" lon="10.6427977"><ele>112.5</ele><time>2026-03-29T10:13:48.285Z</time></trkpt><trkpt lat="45.3907319" lon="10.6426006"><ele>114.25</ele><time>2026-03-29T10:13:49.285Z</time></trkpt><trkpt lat="45.3907907" lon="10.6424313"><ele>116.0</ele><time>2026-03-29T10:13:50.285Z</time></trkpt><trkpt lat="45.3908506" lon="10.6423023"><ele>116.0</ele><time>2026-03-29T10:13:51.284Z</time></trkpt><trkpt lat="45.3909253" lon="10.6422166"><ele>116.0</ele><time>2026-03-29T10:13:52.285Z</time></trkpt><trkpt lat="45.391038" lon="10.6421593"><ele>116.0</ele><time>2026-03-29T10:13:53.285Z</time></trkpt><trkpt lat="45.3911771" lon="10.642151"><ele>116.0</ele><time>2026-03-29T10:13:54.284Z</time></trkpt><trkpt lat="45.3913385" lon="10.6421627"><ele>115.66666666666666</ele><time>2026-03-29T10:13:55.284Z</time></trkpt><trkpt lat="45.3914957" lon="10.6421822"><ele>115.33333333333334</ele><time>2026-03-29T10:13:56.284Z</time></trkpt><trkpt lat="45.3916442" lon="10.6421839"><ele>115.0</ele><time>2026-03-29T10:13:57.285Z</time></trkpt><trkpt lat="45.3917987" lon="10.6421394"><ele>115.0</ele><time>2026-03-29T10:13:58.285Z</time></trkpt><trkpt lat="45.3919562" lon="10.6420511"><ele>115.0</ele><time>2026-03-29T10:13:59.285Z</time></trkpt><trkpt lat="45.3921093" lon="10.6419438"><ele>115.0</ele><time>2026-03-29T10:14:00.285Z</time></trkpt><trkpt lat="45.3922669" lon="10.6418422"><ele>111.66666666666667</ele><time>2026-03-29T10:14:01.284Z</time></trkpt><trkpt lat="45.3924271" lon="10.6417412"><ele>108.33333333333334</ele><time>2026-03-29T10:14:02.284Z</time></trkpt><trkpt lat="45.3925832" lon="10.6416523"><ele>105.0</ele><time>2026-03-29T10:14:03.284Z</time></trkpt><trkpt lat="45.392726" lon="10.6415653"><ele>105.0</ele><time>2026-03-29T10:14:04.285Z</time></trkpt><trkpt lat="45.3928651" lon="10.6414884"><ele>105.0</ele><time>2026-03-29T10:14:05.285Z</time></trkpt><trkpt lat="45.3929977" lon="10.6414501"><ele>105.0</ele><time>2026-03-29T10:14:06.284Z</time></trkpt><trkpt lat="45.3931397" lon="10.6414746"><ele>105.0</ele><time>2026-03-29T10:14:07.285Z</time></trkpt><trkpt lat="45.3932942" lon="10.6415458"><ele>104.33333333333334</ele><time>2026-03-29T10:14:08.284Z</time></trkpt><trkpt lat="45.3934535" lon="10.6416319"><ele>103.66666666666667</ele><time>2026-03-29T10:14:09.284Z</time></trkpt><trkpt lat="45.3936051" lon="10.6417274"><ele>103.0</ele><time>2026-03-29T10:14:10.285Z</time></trkpt><trkpt lat="45.3937569" lon="10.6418204"><ele>104.66666666666667</ele><time>2026-03-29T10:14:11.284Z</time></trkpt><trkpt lat="45.3939086" lon="10.6419096"><ele>106.33333333333334</ele><time>2026-03-29T10:14:12.284Z</time></trkpt><trkpt lat="45.3940605" lon="10.6419929"><ele>108.0</ele><time>2026-03-29T10:14:13.285Z</time></trkpt><trkpt lat="45.3942076" lon="10.6420815"><ele>108.0</ele><time>2026-03-29T10:14:14.285Z</time></trkpt><trkpt lat="45.3943583" lon="10.6421746"><ele>108.0</ele><time>2026-03-29T10:14:15.284Z</time></trkpt><trkpt lat="45.3945126" lon="10.6422653"><ele>108.0</ele><time>2026-03-29T10:14:16.285Z</time></trkpt><trkpt lat="45.3946714" lon="10.6423507"><ele>104.33333333333334</ele><time>2026-03-29T10:14:17.285Z</time></trkpt><trkpt lat="45.3948324" lon="10.6424288"><ele>100.66666666666667</ele><time>2026-03-29T10:14:18.285Z</time></trkpt><trkpt lat="45.3949993" lon="10.6425059"><ele>97.0</ele><time>2026-03-29T10:14:19.284Z</time></trkpt><trkpt lat="45.395173" lon="10.6425884"><ele>97.0</ele><time>2026-03-29T10:14:20.284Z</time></trkpt><trkpt lat="45.395345" lon="10.6426797"><ele>97.0</ele><time>2026-03-29T10:14:21.284Z</time></trkpt><trkpt lat="45.3955271" lon="10.6427552"><ele>97.0</ele><time>2026-03-29T10:14:22.284Z</time></trkpt><trkpt lat="45.3957044" lon="10.6428327"><ele>97.66666666666667</ele><time>2026-03-29T10:14:23.284Z</time></trkpt><trkpt lat="45.3958751" lon="10.6429169"><ele>98.33333333333334</ele><time>2026-03-29T10:14:24.284Z</time></trkpt><trkpt lat="45.3960388" lon="10.6430095"><ele>99.0</ele><time>2026-03-29T10:14:25.284Z</time></trkpt><trkpt lat="45.3962021" lon="10.6431004"><ele>97.0</ele><time>2026-03-29T10:14:26.284Z</time></trkpt><trkpt lat="45.3963679" lon="10.643185"><ele>95.0</ele><time>2026-03-29T10:14:27.285Z</time></trkpt><trkpt lat="45.3965353" lon="10.643261"><ele>93.0</ele><time>2026-03-29T10:14:28.285Z</time></trkpt><trkpt lat="45.3966864" lon="10.6433404"><ele>93.0</ele><time>2026-03-29T10:14:29.285Z</time></trkpt><trkpt lat="45.3968236" lon="10.6434102"><ele>93.0</ele><time>2026-03-29T10:14:30.284Z</time></trkpt><trkpt lat="45.3969554" lon="10.6434663"><ele>93.0</ele><time>2026-03-29T10:14:31.285Z</time></trkpt><trkpt lat="45.3970816" lon="10.6435176"><ele>93.0</ele><time>2026-03-29T10:14:32.285Z</time></trkpt><trkpt lat="45.3972002" lon="10.6435642"><ele>92.60000000000001</ele><time>2026-03-29T10:14:33.285Z</time></trkpt><trkpt lat="45.3973134" lon="10.6435827"><ele>92.2</ele><time>2026-03-29T10:14:34.284Z</time></trkpt><trkpt lat="45.3974254" lon="10.6435906"><ele>91.8</ele><time>2026-03-29T10:14:35.284Z</time></trkpt><trkpt lat="45.3975302" lon="10.6435552"><ele>91.4</ele><time>2026-03-29T10:14:36.285Z</time></trkpt><trkpt lat="45.3976224" lon="10.6434724"><ele>91.0</ele><time>2026-03-29T10:14:37.285Z</time></trkpt><trkpt lat="45.3977084" lon="10.6433563"><ele>91.0</ele><time>2026-03-29T10:14:38.285Z</time></trkpt><trkpt lat="45.3978077" lon="10.6432114"><ele>91.0</ele><time>2026-03-29T10:14:39.285Z</time></trkpt><trkpt lat="45.397925" lon="10.6430594"><ele>91.0</ele><time>2026-03-29T10:14:40.284Z</time></trkpt><trkpt lat="45.3980486" lon="10.6428939"><ele>90.0</ele><time>2026-03-29T10:14:41.285Z</time></trkpt><trkpt lat="45.3981817" lon="10.642715"><ele>89.0</ele><time>2026-03-29T10:14:42.285Z</time></trkpt><trkpt lat="45.3983166" lon="10.6425341"><ele>88.0</ele><time>2026-03-29T10:14:43.284Z</time></trkpt><trkpt lat="45.3984412" lon="10.64236"><ele>88.0</ele><time>2026-03-29T10:14:44.284Z</time></trkpt><trkpt lat="45.3985619" lon="10.642183"><ele>88.0</ele><time>2026-03-29T10:14:45.285Z</time></trkpt><trkpt lat="45.3986543" lon="10.6419881"><ele>88.0</ele><time>2026-03-29T10:14:46.284Z</time></trkpt><trkpt lat="45.3987122" lon="10.6417777"><ele>88.33333333333333</ele><time>2026-03-29T10:14:47.285Z</time></trkpt><trkpt lat="45.3987476" lon="10.6415454"><ele>88.66666666666667</ele><time>2026-03-29T10:14:48.284Z</time></trkpt><trkpt lat="45.3987778" lon="10.6413012"><ele>89.0</ele><time>2026-03-29T10:14:49.285Z</time></trkpt><trkpt lat="45.3987954" lon="10.6410403"><ele>89.66666666666667</ele><time>2026-03-29T10:14:50.284Z</time></trkpt><trkpt lat="45.3987948" lon="10.6407853"><ele>90.33333333333333</ele><time>2026-03-29T10:14:51.284Z</time></trkpt><trkpt lat="45.3987763" lon="10.6405325"><ele>91.0</ele><time>2026-03-29T10:14:52.284Z</time></trkpt><trkpt lat="45.3987554" lon="10.6402647"><ele>91.33333333333333</ele><time>2026-03-29T10:14:53.285Z</time></trkpt><trkpt lat="45.3987335" lon="10.6399849"><ele>91.66666666666667</ele><time>2026-03-29T10:14:54.285Z</time></trkpt><trkpt lat="45.3987181" lon="10.639703"><ele>92.0</ele><time>2026-03-29T10:14:55.284Z</time></trkpt><trkpt lat="45.3987016" lon="10.6394233"><ele>92.0</ele><time>2026-03-29T10:14:56.284Z</time></trkpt><trkpt lat="45.3986828" lon="10.6391429"><ele>92.0</ele><time>2026-03-29T10:14:57.284Z</time></trkpt><trkpt lat="45.3986698" lon="10.6388571"><ele>92.0</ele><time>2026-03-29T10:14:58.285Z</time></trkpt><trkpt lat="45.3986516" lon="10.6385691"><ele>91.66666666666667</ele><time>2026-03-29T10:14:59.285Z</time></trkpt><trkpt lat="45.3986395" lon="10.6382806"><ele>91.33333333333333</ele><time>2026-03-29T10:15:00.284Z</time></trkpt><trkpt lat="45.3986319" lon="10.638007"><ele>91.0</ele><time>2026-03-29T10:15:01.285Z</time></trkpt><trkpt lat="45.3986254" lon="10.6377514"><ele>90.66666666666666</ele><time>2026-03-29T10:15:02.284Z</time></trkpt><trkpt lat="45.3986215" lon="10.6375119"><ele>90.33333333333333</ele><time>2026-03-29T10:15:03.285Z</time></trkpt><trkpt lat="45.3986255" lon="10.6372711"><ele>90.0</ele><time>2026-03-29T10:15:04.284Z</time></trkpt><trkpt lat="45.398643" lon="10.6370268"><ele>90.33333333333333</ele><time>2026-03-29T10:15:05.285Z</time></trkpt><trkpt lat="45.3986681" lon="10.6367837"><ele>90.66666666666666</ele><time>2026-03-29T10:15:06.284Z</time></trkpt><trkpt lat="45.3987181" lon="10.6365363"><ele>91.0</ele><time>2026-03-29T10:15:07.285Z</time></trkpt><trkpt lat="45.3987837" lon="10.6362994"><ele>91.0</ele><time>2026-03-29T10:15:08.284Z</time></trkpt><trkpt lat="45.3988685" lon="10.6360679"><ele>91.0</ele><time>2026-03-29T10:15:09.284Z</time></trkpt><trkpt lat="45.3989591" lon="10.6358442"><ele>91.0</ele><time>2026-03-29T10:15:10.284Z</time></trkpt><trkpt lat="45.3990567" lon="10.6356266"><ele>91.0</ele><time>2026-03-29T10:15:11.284Z</time></trkpt><trkpt lat="45.3991572" lon="10.6354235"><ele>91.0</ele><time>2026-03-29T10:15:12.284Z</time></trkpt><trkpt lat="45.3992502" lon="10.6352508"><ele>91.0</ele><time>2026-03-29T10:15:13.284Z</time></trkpt><trkpt lat="45.3993353" lon="10.635093"><ele>90.8</ele><time>2026-03-29T10:15:14.284Z</time></trkpt><trkpt lat="45.399409" lon="10.63496"><ele>90.6</ele><time>2026-03-29T10:15:15.285Z</time></trkpt><trkpt lat="45.3994727" lon="10.6348597"><ele>90.4</ele><time>2026-03-29T10:15:16.284Z</time></trkpt><trkpt lat="45.3995512" lon="10.6347835"><ele>90.2</ele><time>2026-03-29T10:15:17.285Z</time></trkpt><trkpt lat="45.3996447" lon="10.6347337"><ele>90.0</ele><time>2026-03-29T10:15:18.284Z</time></trkpt><trkpt lat="45.3997484" lon="10.6347076"><ele>90.0</ele><time>2026-03-29T10:15:19.285Z</time></trkpt><trkpt lat="45.3998574" lon="10.6347263"><ele>90.0</ele><time>2026-03-29T10:15:20.284Z</time></trkpt><trkpt lat="45.3999744" lon="10.6347915"><ele>90.0</ele><time>2026-03-29T10:15:21.285Z</time></trkpt><trkpt lat="45.4000988" lon="10.634904"><ele>90.0</ele><time>2026-03-29T10:15:22.285Z</time></trkpt><trkpt lat="45.4002323" lon="10.6350454"><ele>90.0</ele><time>2026-03-29T10:15:23.285Z</time></trkpt><trkpt lat="45.4003705" lon="10.6351884"><ele>90.0</ele><time>2026-03-29T10:15:24.285Z</time></trkpt><trkpt lat="45.4005244" lon="10.6353284"><ele>90.0</ele><time>2026-03-29T10:15:25.285Z</time></trkpt><trkpt lat="45.4006836" lon="10.6354817"><ele>89.33333333333333</ele><time>2026-03-29T10:15:26.285Z</time></trkpt><trkpt lat="45.4008487" lon="10.6356391"><ele>88.66666666666666</ele><time>2026-03-29T10:15:27.284Z</time></trkpt><trkpt lat="45.4010153" lon="10.6357773"><ele>88.0</ele><time>2026-03-29T10:15:28.284Z</time></trkpt><trkpt lat="45.4011833" lon="10.6359231"><ele>88.33333333333333</ele><time>2026-03-29T10:15:29.285Z</time></trkpt><trkpt lat="45.4013551" lon="10.6360741"><ele>88.66666666666667</ele><time>2026-03-29T10:15:30.284Z</time></trkpt><trkpt lat="45.4015338" lon="10.6362161"><ele>89.0</ele><time>2026-03-29T10:15:31.284Z</time></trkpt><trkpt lat="45.4017131" lon="10.6363685"><ele>88.66666666666667</ele><time>2026-03-29T10:15:32.285Z</time></trkpt><trkpt lat="45.4018977" lon="10.6365251"><ele>88.33333333333333</ele><time>2026-03-29T10:15:33.284Z</time></trkpt><trkpt lat="45.4020859" lon="10.6366886"><ele>88.0</ele><time>2026-03-29T10:15:34.284Z</time></trkpt><trkpt lat="45.4022771" lon="10.6368508"><ele>87.33333333333333</ele><time>2026-03-29T10:15:35.284Z</time></trkpt><trkpt lat="45.4024668" lon="10.6370133"><ele>86.66666666666667</ele><time>2026-03-29T10:15:36.285Z</time></trkpt><trkpt lat="45.402659" lon="10.6371765"><ele>86.0</ele><time>2026-03-29T10:15:37.285Z</time></trkpt><trkpt lat="45.4028494" lon="10.6373337"><ele>87.0</ele><time>2026-03-29T10:15:38.284Z</time></trkpt><trkpt lat="45.403036" lon="10.6374865"><ele>88.0</ele><time>2026-03-29T10:15:39.285Z</time></trkpt><trkpt lat="45.4032236" lon="10.6376433"><ele>89.0</ele><time>2026-03-29T10:15:40.285Z</time></trkpt><trkpt lat="45.4034079" lon="10.6378054"><ele>89.0</ele><time>2026-03-29T10:15:41.284Z</time></trkpt><trkpt lat="45.4035895" lon="10.6379621"><ele>89.0</ele><time>2026-03-29T10:15:42.284Z</time></trkpt><trkpt lat="45.4037609" lon="10.6381193"><ele>89.0</ele><time>2026-03-29T10:15:43.285Z</time></trkpt><trkpt lat="45.4039309" lon="10.6382593"><ele>89.33333333333334</ele><time>2026-03-29T10:15:44.284Z</time></trkpt><trkpt lat="45.4040873" lon="10.6383903"><ele>89.66666666666667</ele><time>2026-03-29T10:15:45.284Z</time></trkpt><trkpt lat="45.4042328" lon="10.6385191"><ele>90.0</ele><time>2026-03-29T10:15:46.284Z</time></trkpt><trkpt lat="45.4043714" lon="10.6386513"><ele>90.66666666666667</ele><time>2026-03-29T10:15:47.285Z</time></trkpt><trkpt lat="45.4045102" lon="10.6387815"><ele>91.33333333333334</ele><time>2026-03-29T10:15:48.284Z</time></trkpt><trkpt lat="45.4046506" lon="10.6389077"><ele>92.0</ele><time>2026-03-29T10:15:49.285Z</time></trkpt><trkpt lat="45.404794" lon="10.6390293"><ele>92.0</ele><time>2026-03-29T10:15:50.284Z</time></trkpt><trkpt lat="45.4049395" lon="10.6391515"><ele>92.0</ele><time>2026-03-29T10:15:51.285Z</time></trkpt><trkpt lat="45.4050811" lon="10.6392704"><ele>92.0</ele><time>2026-03-29T10:15:52.285Z</time></trkpt><trkpt lat="45.4052266" lon="10.6393834"><ele>91.0</ele><time>2026-03-29T10:15:53.284Z</time></trkpt><trkpt lat="45.4053643" lon="10.6394824"><ele>90.0</ele><time>2026-03-29T10:15:54.284Z</time></trkpt><trkpt lat="45.4054818" lon="10.6395623"><ele>89.0</ele><time>2026-03-29T10:15:55.285Z</time></trkpt><trkpt lat="45.405561" lon="10.6396158"><ele>88.0</ele><time>2026-03-29T10:15:56.285Z</time></trkpt><trkpt lat="45.4056274" lon="10.6396844"><ele>88.0</ele><time>2026-03-29T10:15:58.285Z</time></trkpt><trkpt lat="45.4055405" lon="10.6397678"><ele>88.0</ele><time>2026-03-29T10:16:03.284Z</time></trkpt><trkpt lat="45.4054628" lon="10.6398967"><ele>88.0</ele><time>2026-03-29T10:16:05.284Z</time></trkpt><trkpt lat="45.4054303" lon="10.6399761"><ele>88.0</ele><time>2026-03-29T10:16:06.285Z</time></trkpt><trkpt lat="45.4053859" lon="10.6400945"><ele>88.0</ele><time>2026-03-29T10:16:08.285Z</time></trkpt><trkpt lat="45.405418" lon="10.6401816"><ele>88.0</ele><time>2026-03-29T10:16:14.285Z</time></trkpt><trkpt lat="45.4055039" lon="10.6402884"><ele>88.0</ele><time>2026-03-29T10:16:16.284Z</time></trkpt><trkpt lat="45.405604" lon="10.6403683"><ele>88.0</ele><time>2026-03-29T10:16:17.284Z</time></trkpt><trkpt lat="45.405724" lon="10.6404479"><ele>88.0</ele><time>2026-03-29T10:16:18.285Z</time></trkpt><trkpt lat="45.4058519" lon="10.6405182"><ele>87.25</ele><time>2026-03-29T10:16:19.284Z</time></trkpt><trkpt lat="45.4059737" lon="10.640574"><ele>86.5</ele><time>2026-03-29T10:16:20.284Z</time></trkpt><trkpt lat="45.4060969" lon="10.6406367"><ele>85.75</ele><time>2026-03-29T10:16:21.284Z</time></trkpt><trkpt lat="45.4062093" lon="10.6407111"><ele>85.0</ele><time>2026-03-29T10:16:22.285Z</time></trkpt><trkpt lat="45.4063116" lon="10.640784"><ele>85.4</ele><time>2026-03-29T10:16:23.284Z</time></trkpt><trkpt lat="45.4064072" lon="10.6408488"><ele>85.8</ele><time>2026-03-29T10:16:24.285Z</time></trkpt><trkpt lat="45.406499" lon="10.6409056"><ele>86.19999999999999</ele><time>2026-03-29T10:16:25.285Z</time></trkpt><trkpt lat="45.406594" lon="10.6409341"><ele>86.6</ele><time>2026-03-29T10:16:26.284Z</time></trkpt><trkpt lat="45.4066957" lon="10.6409678"><ele>87.0</ele><time>2026-03-29T10:16:27.285Z</time></trkpt><trkpt lat="45.4068033" lon="10.6409926"><ele>87.0</ele><time>2026-03-29T10:16:28.285Z</time></trkpt><trkpt lat="45.406913" lon="10.6410125"><ele>87.0</ele><time>2026-03-29T10:16:29.285Z</time></trkpt><trkpt lat="45.4070258" lon="10.6410206"><ele>87.0</ele><time>2026-03-29T10:16:30.284Z</time></trkpt><trkpt lat="45.4071383" lon="10.6410077"><ele>87.0</ele><time>2026-03-29T10:16:31.285Z</time></trkpt><trkpt lat="45.4072555" lon="10.6409906"><ele>87.25</ele><time>2026-03-29T10:16:32.285Z</time></trkpt><trkpt lat="45.4073714" lon="10.6409717"><ele>87.5</ele><time>2026-03-29T10:16:33.285Z</time></trkpt><trkpt lat="45.4074832" lon="10.6409796"><ele>87.75</ele><time>2026-03-29T10:16:34.285Z</time></trkpt><trkpt lat="45.4075926" lon="10.640999"><ele>88.0</ele><time>2026-03-29T10:16:35.285Z</time></trkpt><trkpt lat="45.407707" lon="10.6410176"><ele>88.0</ele><time>2026-03-29T10:16:36.284Z</time></trkpt><trkpt lat="45.4078129" lon="10.6410418"><ele>88.0</ele><time>2026-03-29T10:16:37.285Z</time></trkpt><trkpt lat="45.4079097" lon="10.6410638"><ele>88.0</ele><time>2026-03-29T10:16:38.284Z</time></trkpt><trkpt lat="45.4079907" lon="10.6411057"><ele>88.0</ele><time>2026-03-29T10:16:39.285Z</time></trkpt><trkpt lat="45.4080689" lon="10.6411625"><ele>88.0</ele><time>2026-03-29T10:16:40.285Z</time></trkpt><trkpt lat="45.4081388" lon="10.6412377"><ele>87.4</ele><time>2026-03-29T10:16:41.284Z</time></trkpt><trkpt lat="45.4082067" lon="10.6413471"><ele>86.80000000000001</ele><time>2026-03-29T10:16:42.285Z</time></trkpt><trkpt lat="45.4082728" lon="10.6414701"><ele>86.2</ele><time>2026-03-29T10:16:43.284Z</time></trkpt><trkpt lat="45.4083327" lon="10.6415831"><ele>85.6</ele><time>2026-03-29T10:16:44.284Z</time></trkpt><trkpt lat="45.4083885" lon="10.6416909"><ele>85.0</ele><time>2026-03-29T10:16:45.284Z</time></trkpt><trkpt lat="45.4084378" lon="10.6418008"><ele>85.0</ele><time>2026-03-29T10:16:46.284Z</time></trkpt><trkpt lat="45.4084774" lon="10.6419007"><ele>85.0</ele><time>2026-03-29T10:16:47.284Z</time></trkpt><trkpt lat="45.4084994" lon="10.6420259"><ele>85.0</ele><time>2026-03-29T10:16:48.285Z</time></trkpt><trkpt lat="45.408509" lon="10.6421918"><ele>85.0</ele><time>2026-03-29T10:16:49.284Z</time></trkpt><trkpt lat="45.4085133" lon="10.6423926"><ele>85.0</ele><time>2026-03-29T10:16:50.285Z</time></trkpt><trkpt lat="45.4085238" lon="10.6425976"><ele>85.0</ele><time>2026-03-29T10:16:51.285Z</time></trkpt><trkpt lat="45.4085331" lon="10.6427869"><ele>85.0</ele><time>2026-03-29T10:16:52.285Z</time></trkpt><trkpt lat="45.4085509" lon="10.6429573"><ele>85.0</ele><time>2026-03-29T10:16:53.285Z</time></trkpt><trkpt lat="45.4085821" lon="10.6431096"><ele>85.0</ele><time>2026-03-29T10:16:54.284Z</time></trkpt><trkpt lat="45.4086133" lon="10.6432608"><ele>85.5</ele><time>2026-03-29T10:16:55.285Z</time></trkpt><trkpt lat="45.4086465" lon="10.6434117"><ele>86.0</ele><time>2026-03-29T10:16:56.285Z</time></trkpt><trkpt lat="45.4086815" lon="10.6435692"><ele>86.5</ele><time>2026-03-29T10:16:57.284Z</time></trkpt><trkpt lat="45.4087195" lon="10.6437256"><ele>87.0</ele><time>2026-03-29T10:16:58.284Z</time></trkpt><trkpt lat="45.4087617" lon="10.6438779"><ele>87.0</ele><time>2026-03-29T10:16:59.285Z</time></trkpt><trkpt lat="45.4088042" lon="10.6440273"><ele>87.0</ele><time>2026-03-29T10:17:00.285Z</time></trkpt><trkpt lat="45.4088356" lon="10.6441723"><ele>87.0</ele><time>2026-03-29T10:17:01.284Z</time></trkpt><trkpt lat="45.4088661" lon="10.6443127"><ele>87.0</ele><time>2026-03-29T10:17:02.285Z</time></trkpt><trkpt lat="45.4088944" lon="10.6444485"><ele>87.0</ele><time>2026-03-29T10:17:03.284Z</time></trkpt><trkpt lat="45.4089159" lon="10.6445757"><ele>87.0</ele><time>2026-03-29T10:17:04.284Z</time></trkpt><trkpt lat="45.4089316" lon="10.6446906"><ele>87.0</ele><time>2026-03-29T10:17:05.285Z</time></trkpt><trkpt lat="45.4089566" lon="10.6447981"><ele>87.0</ele><time>2026-03-29T10:17:06.284Z</time></trkpt><trkpt lat="45.408986" lon="10.6448894"><ele>87.0</ele><time>2026-03-29T10:17:07.284Z</time></trkpt><trkpt lat="45.4090592" lon="10.6450148"><ele>87.0</ele><time>2026-03-29T10:17:09.284Z</time></trkpt><trkpt lat="45.4090955" lon="10.6450907"><ele>87.0</ele><time>2026-03-29T10:17:12.284Z</time></trkpt><trkpt lat="45.40917" lon="10.6451411"><ele>87.0</ele><time>2026-03-29T10:23:27.282Z</time></trkpt><trkpt lat="45.4092503" lon="10.6452397"><ele>87.0</ele><time>2026-03-29T10:23:29.282Z</time></trkpt><trkpt lat="45.409354" lon="10.6453498"><ele>87.0</ele><time>2026-03-29T10:23:31.282Z</time></trkpt><trkpt lat="45.4094157" lon="10.6454234"><ele>87.0</ele><time>2026-03-29T10:23:32.282Z</time></trkpt><trkpt lat="45.4094829" lon="10.6455085"><ele>87.0</ele><time>2026-03-29T10:23:33.283Z</time></trkpt><trkpt lat="45.4095592" lon="10.6456012"><ele>87.0</ele><time>2026-03-29T10:23:34.282Z</time></trkpt><trkpt lat="45.4096419" lon="10.6457008"><ele>87.0</ele><time>2026-03-29T10:23:35.283Z</time></trkpt><trkpt lat="45.4097183" lon="10.6457922"><ele>87.0</ele><time>2026-03-29T10:23:36.282Z</time></trkpt><trkpt lat="45.4097951" lon="10.6458844"><ele>87.0</ele><time>2026-03-29T10:23:37.282Z</time></trkpt><trkpt lat="45.4098697" lon="10.6459828"><ele>87.0</ele><time>2026-03-29T10:23:38.283Z</time></trkpt><trkpt lat="45.4099444" lon="10.6460985"><ele>87.5</ele><time>2026-03-29T10:23:39.282Z</time></trkpt><trkpt lat="45.4100177" lon="10.6462318"><ele>88.0</ele><time>2026-03-29T10:23:40.283Z</time></trkpt><trkpt lat="45.4100995" lon="10.6463871"><ele>88.5</ele><time>2026-03-29T10:23:41.283Z</time></trkpt><trkpt lat="45.4101862" lon="10.6465424"><ele>89.0</ele><time>2026-03-29T10:23:42.283Z</time></trkpt><trkpt lat="45.4102773" lon="10.6466848"><ele>89.0</ele><time>2026-03-29T10:23:43.282Z</time></trkpt><trkpt lat="45.4103676" lon="10.6468177"><ele>89.0</ele><time>2026-03-29T10:23:44.283Z</time></trkpt><trkpt lat="45.4104526" lon="10.6469399"><ele>89.0</ele><time>2026-03-29T10:23:45.282Z</time></trkpt><trkpt lat="45.4105413" lon="10.6470506"><ele>89.0</ele><time>2026-03-29T10:23:46.282Z</time></trkpt><trkpt lat="45.4106309" lon="10.6471567"><ele>88.25</ele><time>2026-03-29T10:23:47.283Z</time></trkpt><trkpt lat="45.4107049" lon="10.6472602"><ele>87.5</ele><time>2026-03-29T10:23:48.283Z</time></trkpt><trkpt lat="45.4107648" lon="10.6473981"><ele>86.75</ele><time>2026-03-29T10:23:49.282Z</time></trkpt><trkpt lat="45.4108045" lon="10.6475582"><ele>86.0</ele><time>2026-03-29T10:23:50.283Z</time></trkpt><trkpt lat="45.4108394" lon="10.6477343"><ele>86.4</ele><time>2026-03-29T10:23:51.283Z</time></trkpt><trkpt lat="45.4108712" lon="10.6479028"><ele>86.8</ele><time>2026-03-29T10:23:52.282Z</time></trkpt><trkpt lat="45.4108951" lon="10.6480531"><ele>87.2</ele><time>2026-03-29T10:23:53.283Z</time></trkpt><trkpt lat="45.4109181" lon="10.6481772"><ele>87.60000000000001</ele><time>2026-03-29T10:23:54.283Z</time></trkpt><trkpt lat="45.4109407" lon="10.6482766"><ele>88.0</ele><time>2026-03-29T10:23:55.283Z</time></trkpt><trkpt lat="45.4110221" lon="10.6483701"><ele>88.0</ele><time>2026-03-29T10:23:57.282Z</time></trkpt><trkpt lat="45.411102" lon="10.648366"><ele>88.0</ele><time>2026-03-29T10:23:58.282Z</time></trkpt><trkpt lat="45.4112366" lon="10.6483118"><ele>88.0</ele><time>2026-03-29T10:23:59.282Z</time></trkpt><trkpt lat="45.4113943" lon="10.6482577"><ele>88.0</ele><time>2026-03-29T10:24:00.282Z</time></trkpt><trkpt lat="45.4115461" lon="10.6482068"><ele>89.0</ele><time>2026-03-29T10:24:01.283Z</time></trkpt><trkpt lat="45.4116784" lon="10.6481739"><ele>90.0</ele><time>2026-03-29T10:24:02.283Z</time></trkpt><trkpt lat="45.4117848" lon="10.6481488"><ele>91.0</ele><time>2026-03-29T10:24:03.283Z</time></trkpt><trkpt lat="45.411867" lon="10.6481374"><ele>92.0</ele><time>2026-03-29T10:24:04.282Z</time></trkpt><trkpt lat="45.411952" lon="10.6480958"><ele>93.0</ele><time>2026-03-29T10:24:06.282Z</time></trkpt><trkpt lat="45.4119885" lon="10.6479595"><ele>93.0</ele><time>2026-03-29T10:24:08.283Z</time></trkpt><trkpt lat="45.411968" lon="10.6478076"><ele>93.0</ele><time>2026-03-29T10:24:09.282Z</time></trkpt><trkpt lat="45.4119557" lon="10.6476248"><ele>93.0</ele><time>2026-03-29T10:24:10.282Z</time></trkpt><trkpt lat="45.4119432" lon="10.6474154"><ele>93.0</ele><time>2026-03-29T10:24:11.282Z</time></trkpt><trkpt lat="45.4119359" lon="10.6471891"><ele>93.0</ele><time>2026-03-29T10:24:12.282Z</time></trkpt><trkpt lat="45.4119265" lon="10.6469352"><ele>93.0</ele><time>2026-03-29T10:24:13.283Z</time></trkpt><trkpt lat="45.4119053" lon="10.646667"><ele>93.0</ele><time>2026-03-29T10:24:14.283Z</time></trkpt><trkpt lat="45.4118765" lon="10.6463876"><ele>94.0</ele><time>2026-03-29T10:24:15.282Z</time></trkpt><trkpt lat="45.4118268" lon="10.6460888"><ele>95.0</ele><time>2026-03-29T10:24:16.283Z</time></trkpt><trkpt lat="45.4117714" lon="10.6457801"><ele>96.0</ele><time>2026-03-29T10:24:17.282Z</time></trkpt><trkpt lat="45.4117113" lon="10.6454682"><ele>96.5</ele><time>2026-03-29T10:24:18.282Z</time></trkpt><trkpt lat="45.4116422" lon="10.6451546"><ele>97.0</ele><time>2026-03-29T10:24:19.282Z</time></trkpt><trkpt lat="45.4115732" lon="10.6448406"><ele>97.0</ele><time>2026-03-29T10:24:20.283Z</time></trkpt><trkpt lat="45.4115118" lon="10.6445394"><ele>97.0</ele><time>2026-03-29T10:24:21.283Z</time></trkpt><trkpt lat="45.4114528" lon="10.6442459"><ele>97.0</ele><time>2026-03-29T10:24:22.283Z</time></trkpt><trkpt lat="45.411409" lon="10.6439572"><ele>96.66666666666667</ele><time>2026-03-29T10:24:23.283Z</time></trkpt><trkpt lat="45.4113598" lon="10.6436691"><ele>96.33333333333334</ele><time>2026-03-29T10:24:24.282Z</time></trkpt><trkpt lat="45.4113066" lon="10.6433721"><ele>96.0</ele><time>2026-03-29T10:24:25.283Z</time></trkpt><trkpt lat="45.4112459" lon="10.643083"><ele>95.66666666666667</ele><time>2026-03-29T10:24:26.282Z</time></trkpt><trkpt lat="45.4111759" lon="10.6427891"><ele>95.33333333333334</ele><time>2026-03-29T10:24:27.283Z</time></trkpt><trkpt lat="45.411113" lon="10.642501"><ele>95.0</ele><time>2026-03-29T10:24:28.283Z</time></trkpt><trkpt lat="45.4110524" lon="10.6422352"><ele>95.0</ele><time>2026-03-29T10:24:29.282Z</time></trkpt><trkpt lat="45.4109943" lon="10.6419989"><ele>95.0</ele><time>2026-03-29T10:24:30.282Z</time></trkpt><trkpt lat="45.4109446" lon="10.641778"><ele>95.0</ele><time>2026-03-29T10:24:31.282Z</time></trkpt><trkpt lat="45.4109081" lon="10.6415826"><ele>96.0</ele><time>2026-03-29T10:24:32.282Z</time></trkpt><trkpt lat="45.4108777" lon="10.6414294"><ele>97.0</ele><time>2026-03-29T10:24:33.283Z</time></trkpt><trkpt lat="45.410861" lon="10.6413072"><ele>98.0</ele><time>2026-03-29T10:24:34.283Z</time></trkpt><trkpt lat="45.4108577" lon="10.6411933"><ele>99.0</ele><time>2026-03-29T10:24:35.283Z</time></trkpt><trkpt lat="45.4108784" lon="10.6410869"><ele>99.99999999999999</ele><time>2026-03-29T10:24:36.283Z</time></trkpt><trkpt lat="45.4109209" lon="10.640988"><ele>101.0</ele><time>2026-03-29T10:24:37.282Z</time></trkpt><trkpt lat="45.4109523" lon="10.6408974"><ele>101.19999999999999</ele><time>2026-03-29T10:24:38.282Z</time></trkpt><trkpt lat="45.4109433" lon="10.6407998"><ele>101.39999999999999</ele><time>2026-03-29T10:24:39.283Z</time></trkpt><trkpt lat="45.4108788" lon="10.6407238"><ele>101.6</ele><time>2026-03-29T10:24:40.282Z</time></trkpt><trkpt lat="45.4107895" lon="10.6406561"><ele>101.8</ele><time>2026-03-29T10:24:41.282Z</time></trkpt><trkpt lat="45.4106859" lon="10.6405756"><ele>102.0</ele><time>2026-03-29T10:24:42.282Z</time></trkpt><trkpt lat="45.4105972" lon="10.6404627"><ele>102.0</ele><time>2026-03-29T10:24:43.283Z</time></trkpt><trkpt lat="45.4105293" lon="10.6403098"><ele>102.0</ele><time>2026-03-29T10:24:44.283Z</time></trkpt><trkpt lat="45.4104852" lon="10.6401105"><ele>102.0</ele><time>2026-03-29T10:24:45.282Z</time></trkpt><trkpt lat="45.4104555" lon="10.6398684"><ele>102.0</ele><time>2026-03-29T10:24:46.282Z</time></trkpt><trkpt lat="45.4104243" lon="10.6396155"><ele>103.0</ele><time>2026-03-29T10:24:47.283Z</time></trkpt><trkpt lat="45.4103802" lon="10.6393439"><ele>104.0</ele><time>2026-03-29T10:24:48.283Z</time></trkpt><trkpt lat="45.4103073" lon="10.6390551"><ele>105.0</ele><time>2026-03-29T10:24:49.282Z</time></trkpt><trkpt lat="45.4102072" lon="10.6387518"><ele>104.0</ele><time>2026-03-29T10:24:50.283Z</time></trkpt><trkpt lat="45.4100992" lon="10.6384443"><ele>103.0</ele><time>2026-03-29T10:24:51.282Z</time></trkpt><trkpt lat="45.4099915" lon="10.6381232"><ele>103.0</ele><time>2026-03-29T10:24:52.283Z</time></trkpt><trkpt lat="45.4098876" lon="10.6378271"><ele>103.0</ele><time>2026-03-29T10:24:53.282Z</time></trkpt><trkpt lat="45.409773" lon="10.6375361"><ele>103.0</ele><time>2026-03-29T10:24:54.282Z</time></trkpt><trkpt lat="45.4096598" lon="10.6372662"><ele>103.0</ele><time>2026-03-29T10:24:55.282Z</time></trkpt><trkpt lat="45.4095465" lon="10.6370064"><ele>103.0</ele><time>2026-03-29T10:24:56.283Z</time></trkpt><trkpt lat="45.4094272" lon="10.6367403"><ele>104.33333333333334</ele><time>2026-03-29T10:24:57.283Z</time></trkpt><trkpt lat="45.4093003" lon="10.6364826"><ele>105.66666666666666</ele><time>2026-03-29T10:24:58.283Z</time></trkpt><trkpt lat="45.4091627" lon="10.6362412"><ele>107.0</ele><time>2026-03-29T10:24:59.283Z</time></trkpt><trkpt lat="45.409036" lon="10.6360285"><ele>107.0</ele><time>2026-03-29T10:25:00.282Z</time></trkpt><trkpt lat="45.4089127" lon="10.635829"><ele>107.0</ele><time>2026-03-29T10:25:01.283Z</time></trkpt><trkpt lat="45.4088048" lon="10.6356417"><ele>107.0</ele><time>2026-03-29T10:25:02.282Z</time></trkpt><trkpt lat="45.4086922" lon="10.6354606"><ele>108.0</ele><time>2026-03-29T10:25:03.283Z</time></trkpt><trkpt lat="45.4085676" lon="10.6353001"><ele>109.0</ele><time>2026-03-29T10:25:04.283Z</time></trkpt><trkpt lat="45.4084307" lon="10.6351444"><ele>110.0</ele><time>2026-03-29T10:25:05.283Z</time></trkpt><trkpt lat="45.4082885" lon="10.6349952"><ele>110.0</ele><time>2026-03-29T10:25:06.282Z</time></trkpt><trkpt lat="45.4081464" lon="10.6348438"><ele>110.0</ele><time>2026-03-29T10:25:07.283Z</time></trkpt><trkpt lat="45.40801" lon="10.6346957"><ele>110.0</ele><time>2026-03-29T10:25:08.283Z</time></trkpt><trkpt lat="45.4078874" lon="10.6345724"><ele>110.0</ele><time>2026-03-29T10:25:09.283Z</time></trkpt><trkpt lat="45.4077963" lon="10.6344659"><ele>110.0</ele><time>2026-03-29T10:25:10.282Z</time></trkpt><trkpt lat="45.407727" lon="10.6343822"><ele>110.0</ele><time>2026-03-29T10:25:11.282Z</time></trkpt><trkpt lat="45.4076843" lon="10.6342968"><ele>110.0</ele><time>2026-03-29T10:25:12.283Z</time></trkpt><trkpt lat="45.4077302" lon="10.6341367"><ele>110.0</ele><time>2026-03-29T10:25:14.283Z</time></trkpt><trkpt lat="45.4078105" lon="10.6340663"><ele>110.0</ele><time>2026-03-29T10:25:15.282Z</time></trkpt><trkpt lat="45.4079279" lon="10.6340041"><ele>110.0</ele><time>2026-03-29T10:25:16.282Z</time></trkpt><trkpt lat="45.4080599" lon="10.6339486"><ele>110.0</ele><time>2026-03-29T10:25:17.283Z</time></trkpt><trkpt lat="45.4082038" lon="10.6338965"><ele>110.0</ele><time>2026-03-29T10:25:18.282Z</time></trkpt><trkpt lat="45.4083501" lon="10.6338275"><ele>110.33333333333333</ele><time>2026-03-29T10:25:19.282Z</time></trkpt><trkpt lat="45.4084992" lon="10.6337378"><ele>110.66666666666666</ele><time>2026-03-29T10:25:20.282Z</time></trkpt><trkpt lat="45.4086543" lon="10.6336285"><ele>111.0</ele><time>2026-03-29T10:25:21.282Z</time></trkpt><trkpt lat="45.4088077" lon="10.6335124"><ele>112.0</ele><time>2026-03-29T10:25:22.282Z</time></trkpt><trkpt lat="45.4089554" lon="10.6333857"><ele>113.0</ele><time>2026-03-29T10:25:23.282Z</time></trkpt><trkpt lat="45.4091033" lon="10.6332583"><ele>114.0</ele><time>2026-03-29T10:25:24.282Z</time></trkpt><trkpt lat="45.4092509" lon="10.6331282"><ele>114.0</ele><time>2026-03-29T10:25:25.282Z</time></trkpt><trkpt lat="45.4093847" lon="10.6329949"><ele>114.0</ele><time>2026-03-29T10:25:26.283Z</time></trkpt><trkpt lat="45.4095047" lon="10.6328667"><ele>114.0</ele><time>2026-03-29T10:25:27.281Z</time></trkpt><trkpt lat="45.4096309" lon="10.6327305"><ele>113.0</ele><time>2026-03-29T10:25:28.281Z</time></trkpt><trkpt lat="45.4097583" lon="10.63258"><ele>112.0</ele><time>2026-03-29T10:25:29.282Z</time></trkpt><trkpt lat="45.4098772" lon="10.6324143"><ele>111.0</ele><time>2026-03-29T10:25:30.282Z</time></trkpt><trkpt lat="45.4099979" lon="10.6322457"><ele>111.0</ele><time>2026-03-29T10:25:31.282Z</time></trkpt><trkpt lat="45.4101355" lon="10.6320914"><ele>111.0</ele><time>2026-03-29T10:25:32.281Z</time></trkpt><trkpt lat="45.4102804" lon="10.6319721"><ele>111.0</ele><time>2026-03-29T10:25:33.282Z</time></trkpt><trkpt lat="45.4104419" lon="10.6318929"><ele>109.5</ele><time>2026-03-29T10:25:34.282Z</time></trkpt><trkpt lat="45.4105823" lon="10.6318315"><ele>108.0</ele><time>2026-03-29T10:25:35.281Z</time></trkpt><trkpt lat="45.4107037" lon="10.6317775"><ele>106.5</ele><time>2026-03-29T10:25:36.282Z</time></trkpt><trkpt lat="45.4108092" lon="10.6317448"><ele>105.0</ele><time>2026-03-29T10:25:37.282Z</time></trkpt><trkpt lat="45.4108978" lon="10.6317349"><ele>105.0</ele><time>2026-03-29T10:25:38.281Z</time></trkpt><trkpt lat="45.4109863" lon="10.6317506"><ele>105.0</ele><time>2026-03-29T10:25:39.282Z</time></trkpt><trkpt lat="45.4110642" lon="10.6317986"><ele>105.0</ele><time>2026-03-29T10:25:40.281Z</time></trkpt><trkpt lat="45.411136" lon="10.6318497"><ele>105.0</ele><time>2026-03-29T10:25:41.282Z</time></trkpt><trkpt lat="45.411204" lon="10.631893"><ele>105.0</ele><time>2026-03-29T10:25:42.282Z</time></trkpt><trkpt lat="45.4112677" lon="10.6318865"><ele>105.0</ele><time>2026-03-29T10:25:43.282Z</time></trkpt><trkpt lat="45.4113245" lon="10.6318243"><ele>104.75</ele><time>2026-03-29T10:25:44.281Z</time></trkpt><trkpt lat="45.4113723" lon="10.6317169"><ele>104.5</ele><time>2026-03-29T10:25:45.282Z</time></trkpt><trkpt lat="45.4113953" lon="10.6315705"><ele>104.25</ele><time>2026-03-29T10:25:46.281Z</time></trkpt><trkpt lat="45.4113856" lon="10.6313845"><ele>104.0</ele><time>2026-03-29T10:25:47.282Z</time></trkpt><trkpt lat="45.4113721" lon="10.6311687"><ele>102.33333333333333</ele><time>2026-03-29T10:25:48.281Z</time></trkpt><trkpt lat="45.411368" lon="10.6309243"><ele>100.66666666666666</ele><time>2026-03-29T10:25:49.281Z</time></trkpt><trkpt lat="45.4113677" lon="10.6306548"><ele>99.0</ele><time>2026-03-29T10:25:50.281Z</time></trkpt><trkpt lat="45.411369" lon="10.6303514"><ele>99.0</ele><time>2026-03-29T10:25:51.282Z</time></trkpt><trkpt lat="45.4113767" lon="10.6300363"><ele>99.0</ele><time>2026-03-29T10:25:52.282Z</time></trkpt><trkpt lat="45.4113825" lon="10.6297127"><ele>99.0</ele><time>2026-03-29T10:25:53.281Z</time></trkpt><trkpt lat="45.4113902" lon="10.6293901"><ele>99.0</ele><time>2026-03-29T10:25:54.282Z</time></trkpt><trkpt lat="45.4113912" lon="10.6290522"><ele>99.0</ele><time>2026-03-29T10:25:55.282Z</time></trkpt><trkpt lat="45.4113938" lon="10.6287283"><ele>99.5</ele><time>2026-03-29T10:25:56.282Z</time></trkpt><trkpt lat="45.4114004" lon="10.6284027"><ele>100.0</ele><time>2026-03-29T10:25:57.281Z</time></trkpt><trkpt lat="45.4113944" lon="10.6280726"><ele>100.5</ele><time>2026-03-29T10:25:58.282Z</time></trkpt><trkpt lat="45.4113624" lon="10.627747"><ele>101.0</ele><time>2026-03-29T10:25:59.281Z</time></trkpt><trkpt lat="45.4113049" lon="10.6274398"><ele>101.0</ele><time>2026-03-29T10:26:00.281Z</time></trkpt><trkpt lat="45.4112333" lon="10.6271603"><ele>101.0</ele><time>2026-03-29T10:26:01.282Z</time></trkpt><trkpt lat="45.4111429" lon="10.6268957"><ele>101.0</ele><time>2026-03-29T10:26:02.281Z</time></trkpt><trkpt lat="45.4110414" lon="10.6266392"><ele>101.33333333333333</ele><time>2026-03-29T10:26:03.282Z</time></trkpt><trkpt lat="45.4109321" lon="10.6264115"><ele>101.66666666666666</ele><time>2026-03-29T10:26:04.281Z</time></trkpt><trkpt lat="45.410828" lon="10.6262046"><ele>102.0</ele><time>2026-03-29T10:26:05.282Z</time></trkpt><trkpt lat="45.4107337" lon="10.6260089"><ele>100.75</ele><time>2026-03-29T10:26:06.282Z</time></trkpt><trkpt lat="45.4106464" lon="10.6258384"><ele>99.5</ele><time>2026-03-29T10:26:07.282Z</time></trkpt><trkpt lat="45.4105742" lon="10.6256889"><ele>98.25</ele><time>2026-03-29T10:26:08.282Z</time></trkpt><trkpt lat="45.4105153" lon="10.6255739"><ele>97.0</ele><time>2026-03-29T10:26:09.282Z</time></trkpt><trkpt lat="45.410463" lon="10.6254983"><ele>97.0</ele><time>2026-03-29T10:26:10.282Z</time></trkpt><trkpt lat="45.4103749" lon="10.6254388"><ele>97.0</ele><time>2026-03-29T10:26:12.281Z</time></trkpt><trkpt lat="45.4102725" lon="10.6254677"><ele>97.0</ele><time>2026-03-29T10:26:14.281Z</time></trkpt><trkpt lat="45.4102053" lon="10.6255281"><ele>97.0</ele><time>2026-03-29T10:26:15.282Z</time></trkpt><trkpt lat="45.4101157" lon="10.625635"><ele>97.0</ele><time>2026-03-29T10:26:16.281Z</time></trkpt><trkpt lat="45.4099967" lon="10.6257836"><ele>97.0</ele><time>2026-03-29T10:26:17.281Z</time></trkpt><trkpt lat="45.4098594" lon="10.6259277"><ele>97.0</ele><time>2026-03-29T10:26:18.282Z</time></trkpt><trkpt lat="45.4097096" lon="10.6260762"><ele>97.0</ele><time>2026-03-29T10:26:19.282Z</time></trkpt><trkpt lat="45.4095501" lon="10.626233"><ele>96.33333333333334</ele><time>2026-03-29T10:26:20.282Z</time></trkpt><trkpt lat="45.4093912" lon="10.6263863"><ele>95.66666666666667</ele><time>2026-03-29T10:26:21.282Z</time></trkpt><trkpt lat="45.4092305" lon="10.6265323"><ele>95.0</ele><time>2026-03-29T10:26:22.282Z</time></trkpt><trkpt lat="45.4090615" lon="10.6266669"><ele>95.0</ele><time>2026-03-29T10:26:23.281Z</time></trkpt><trkpt lat="45.4088869" lon="10.6267976"><ele>95.0</ele><time>2026-03-29T10:26:24.281Z</time></trkpt><trkpt lat="45.4087065" lon="10.6269285"><ele>95.0</ele><time>2026-03-29T10:26:25.282Z</time></trkpt><trkpt lat="45.4085387" lon="10.6270509"><ele>96.66666666666667</ele><time>2026-03-29T10:26:26.282Z</time></trkpt><trkpt lat="45.4083751" lon="10.6271584"><ele>98.33333333333334</ele><time>2026-03-29T10:26:27.281Z</time></trkpt><trkpt lat="45.4082115" lon="10.6272486"><ele>100.0</ele><time>2026-03-29T10:26:28.282Z</time></trkpt><trkpt lat="45.40807" lon="10.6273114"><ele>100.25</ele><time>2026-03-29T10:26:29.281Z</time></trkpt><trkpt lat="45.4079341" lon="10.6273576"><ele>100.5</ele><time>2026-03-29T10:26:30.281Z</time></trkpt><trkpt lat="45.4078075" lon="10.6274029"><ele>100.75</ele><time>2026-03-29T10:26:31.281Z</time></trkpt><trkpt lat="45.4076944" lon="10.6274569"><ele>101.0</ele><time>2026-03-29T10:26:32.282Z</time></trkpt><trkpt lat="45.4075802" lon="10.6275172"><ele>101.0</ele><time>2026-03-29T10:26:33.282Z</time></trkpt><trkpt lat="45.4074609" lon="10.6275682"><ele>101.0</ele><time>2026-03-29T10:26:34.282Z</time></trkpt><trkpt lat="45.4073384" lon="10.6276131"><ele>101.0</ele><time>2026-03-29T10:26:35.281Z</time></trkpt><trkpt lat="45.4072103" lon="10.627667"><ele>101.0</ele><time>2026-03-29T10:26:36.282Z</time></trkpt><trkpt lat="45.4070886" lon="10.6277044"><ele>100.66666666666666</ele><time>2026-03-29T10:26:37.282Z</time></trkpt><trkpt lat="45.4069552" lon="10.6277102"><ele>100.33333333333334</ele><time>2026-03-29T10:26:38.282Z</time></trkpt><trkpt lat="45.4068106" lon="10.6276744"><ele>100.0</ele><time>2026-03-29T10:26:39.281Z</time></trkpt><trkpt lat="45.4066453" lon="10.6276223"><ele>100.0</ele><time>2026-03-29T10:26:40.281Z</time></trkpt><trkpt lat="45.406466" lon="10.6275563"><ele>100.0</ele><time>2026-03-29T10:26:41.282Z</time></trkpt><trkpt lat="45.4062726" lon="10.6274955"><ele>100.0</ele><time>2026-03-29T10:26:42.282Z</time></trkpt><trkpt lat="45.4060646" lon="10.6274452"><ele>100.33333333333334</ele><time>2026-03-29T10:26:43.281Z</time></trkpt><trkpt lat="45.4058541" lon="10.6273861"><ele>100.66666666666666</ele><time>2026-03-29T10:26:44.282Z</time></trkpt><trkpt lat="45.4056509" lon="10.6273168"><ele>101.0</ele><time>2026-03-29T10:26:45.282Z</time></trkpt><trkpt lat="45.4054591" lon="10.6272378"><ele>103.0</ele><time>2026-03-29T10:26:46.282Z</time></trkpt><trkpt lat="45.4052736" lon="10.6271488"><ele>105.0</ele><time>2026-03-29T10:26:47.282Z</time></trkpt><trkpt lat="45.4050943" lon="10.6270647"><ele>107.0</ele><time>2026-03-29T10:26:48.282Z</time></trkpt><trkpt lat="45.4049294" lon="10.6269825"><ele>110.33333333333333</ele><time>2026-03-29T10:26:49.282Z</time></trkpt><trkpt lat="45.4047649" lon="10.6269169"><ele>113.66666666666666</ele><time>2026-03-29T10:26:50.281Z</time></trkpt><trkpt lat="45.4046088" lon="10.6268667"><ele>117.0</ele><time>2026-03-29T10:26:51.282Z</time></trkpt><trkpt lat="45.4044564" lon="10.6268226"><ele>118.5</ele><time>2026-03-29T10:26:52.281Z</time></trkpt><trkpt lat="45.4043184" lon="10.6267959"><ele>120.0</ele><time>2026-03-29T10:26:53.281Z</time></trkpt><trkpt lat="45.4041827" lon="10.62676"><ele>121.5</ele><time>2026-03-29T10:26:54.282Z</time></trkpt><trkpt lat="45.4040493" lon="10.6267613"><ele>123.0</ele><time>2026-03-29T10:26:55.282Z</time></trkpt><trkpt lat="45.4039192" lon="10.6267775"><ele>123.2</ele><time>2026-03-29T10:26:56.281Z</time></trkpt><trkpt lat="45.4037998" lon="10.6267999"><ele>123.4</ele><time>2026-03-29T10:26:57.282Z</time></trkpt><trkpt lat="45.4036949" lon="10.6268092"><ele>123.60000000000001</ele><time>2026-03-29T10:26:58.281Z</time></trkpt><trkpt lat="45.4035991" lon="10.6268006"><ele>123.80000000000001</ele><time>2026-03-29T10:26:59.281Z</time></trkpt><trkpt lat="45.4035156" lon="10.6267854"><ele>124.0</ele><time>2026-03-29T10:27:00.281Z</time></trkpt><trkpt lat="45.4034437" lon="10.6267572"><ele>124.0</ele><time>2026-03-29T10:27:01.282Z</time></trkpt><trkpt lat="45.4033468" lon="10.6266843"><ele>124.0</ele><time>2026-03-29T10:27:03.281Z</time></trkpt><trkpt lat="45.4033306" lon="10.6265952"><ele>124.0</ele><time>2026-03-29T10:27:05.282Z</time></trkpt><trkpt lat="45.4033818" lon="10.6264483"><ele>124.0</ele><time>2026-03-29T10:27:07.282Z</time></trkpt><trkpt lat="45.4034207" lon="10.6263591"><ele>124.0</ele><time>2026-03-29T10:27:08.281Z</time></trkpt><trkpt lat="45.4034571" lon="10.6262473"><ele>124.0</ele><time>2026-03-29T10:27:09.281Z</time></trkpt><trkpt lat="45.4034795" lon="10.6261407"><ele>124.00000000000001</ele><time>2026-03-29T10:27:10.281Z</time></trkpt><trkpt lat="45.4034968" lon="10.6260376"><ele>124.0</ele><time>2026-03-29T10:27:11.282Z</time></trkpt><trkpt lat="45.4034899" lon="10.6259129"><ele>124.0</ele><time>2026-03-29T10:27:12.282Z</time></trkpt><trkpt lat="45.4034818" lon="10.6258117"><ele>124.00000000000001</ele><time>2026-03-29T10:27:13.281Z</time></trkpt><trkpt lat="45.4034767" lon="10.6257151"><ele>124.0</ele><time>2026-03-29T10:27:14.281Z</time></trkpt><trkpt lat="45.4034743" lon="10.6256206"><ele>124.0</ele><time>2026-03-29T10:27:15.281Z</time></trkpt><trkpt lat="45.4034819" lon="10.6255178"><ele>124.0</ele><time>2026-03-29T10:27:16.281Z</time></trkpt><trkpt lat="45.4034987" lon="10.6254179"><ele>124.00000000000001</ele><time>2026-03-29T10:27:17.282Z</time></trkpt><trkpt lat="45.4035217" lon="10.6253197"><ele>124.0</ele><time>2026-03-29T10:27:18.282Z</time></trkpt><trkpt lat="45.403557" lon="10.6252398"><ele>124.0</ele><time>2026-03-29T10:27:19.281Z</time></trkpt><trkpt lat="45.4036015" lon="10.6251666"><ele>124.00000000000001</ele><time>2026-03-29T10:27:20.281Z</time></trkpt><trkpt lat="45.4036597" lon="10.6251018"><ele>124.0</ele><time>2026-03-29T10:27:21.281Z</time></trkpt><trkpt lat="45.403732" lon="10.6250295"><ele>124.0</ele><time>2026-03-29T10:27:22.282Z</time></trkpt><trkpt lat="45.4038067" lon="10.6249515"><ele>122.83333333333334</ele><time>2026-03-29T10:27:23.281Z</time></trkpt><trkpt lat="45.403871" lon="10.6248782"><ele>121.66666666666667</ele><time>2026-03-29T10:27:24.281Z</time></trkpt><trkpt lat="45.4039269" lon="10.6248051"><ele>120.5</ele><time>2026-03-29T10:27:25.282Z</time></trkpt><trkpt lat="45.4039695" lon="10.6247232"><ele>119.33333333333334</ele><time>2026-03-29T10:27:26.281Z</time></trkpt><trkpt lat="45.4039991" lon="10.6246372"><ele>118.16666666666667</ele><time>2026-03-29T10:27:27.282Z</time></trkpt><trkpt lat="45.4039927" lon="10.6245316"><ele>117.0</ele><time>2026-03-29T10:27:28.282Z</time></trkpt><trkpt lat="45.4039611" lon="10.6244204"><ele>116.0</ele><time>2026-03-29T10:27:29.281Z</time></trkpt><trkpt lat="45.403912" lon="10.6242852"><ele>115.0</ele><time>2026-03-29T10:27:30.282Z</time></trkpt><trkpt lat="45.4038586" lon="10.6241431"><ele>114.0</ele><time>2026-03-29T10:27:31.282Z</time></trkpt><trkpt lat="45.403797" lon="10.6240022"><ele>113.0</ele><time>2026-03-29T10:27:32.282Z</time></trkpt><trkpt lat="45.4037207" lon="10.623863"><ele>113.0</ele><time>2026-03-29T10:27:33.282Z</time></trkpt><trkpt lat="45.4036402" lon="10.6237237"><ele>113.0</ele><time>2026-03-29T10:27:34.281Z</time></trkpt><trkpt lat="45.4035659" lon="10.6235862"><ele>113.0</ele><time>2026-03-29T10:27:35.282Z</time></trkpt><trkpt lat="45.4034971" lon="10.6234571"><ele>113.0</ele><time>2026-03-29T10:27:36.281Z</time></trkpt><trkpt lat="45.4034402" lon="10.623334"><ele>111.80000000000001</ele><time>2026-03-29T10:27:37.282Z</time></trkpt><trkpt lat="45.4034088" lon="10.6232136"><ele>110.60000000000001</ele><time>2026-03-29T10:27:38.281Z</time></trkpt><trkpt lat="45.4034094" lon="10.6230769"><ele>109.39999999999999</ele><time>2026-03-29T10:27:39.281Z</time></trkpt><trkpt lat="45.403441" lon="10.6229318"><ele>108.19999999999999</ele><time>2026-03-29T10:27:40.282Z</time></trkpt><trkpt lat="45.4035039" lon="10.622776"><ele>107.0</ele><time>2026-03-29T10:27:41.282Z</time></trkpt><trkpt lat="45.4035749" lon="10.6226141"><ele>105.75</ele><time>2026-03-29T10:27:42.281Z</time></trkpt><trkpt lat="45.403631" lon="10.6224285"><ele>104.5</ele><time>2026-03-29T10:27:43.282Z</time></trkpt><trkpt lat="45.4036695" lon="10.6222285"><ele>103.25</ele><time>2026-03-29T10:27:44.282Z</time></trkpt><trkpt lat="45.4036996" lon="10.6220124"><ele>102.0</ele><time>2026-03-29T10:27:45.281Z</time></trkpt><trkpt lat="45.4037234" lon="10.6217952"><ele>100.5</ele><time>2026-03-29T10:27:46.282Z</time></trkpt><trkpt lat="45.4037399" lon="10.6215885"><ele>99.0</ele><time>2026-03-29T10:27:47.281Z</time></trkpt><trkpt lat="45.4037644" lon="10.6214016"><ele>97.5</ele><time>2026-03-29T10:27:48.281Z</time></trkpt><trkpt lat="45.4037878" lon="10.6212178"><ele>96.0</ele><time>2026-03-29T10:27:49.282Z</time></trkpt><trkpt lat="45.4038177" lon="10.6210404"><ele>95.0</ele><time>2026-03-29T10:27:50.281Z</time></trkpt><trkpt lat="45.4038599" lon="10.6208546"><ele>94.0</ele><time>2026-03-29T10:27:51.282Z</time></trkpt><trkpt lat="45.4039061" lon="10.6206788"><ele>93.0</ele><time>2026-03-29T10:27:52.281Z</time></trkpt><trkpt lat="45.4039636" lon="10.6205191"><ele>92.0</ele><time>2026-03-29T10:27:53.281Z</time></trkpt><trkpt lat="45.4040491" lon="10.6203804"><ele>92.25</ele><time>2026-03-29T10:27:54.282Z</time></trkpt><trkpt lat="45.4041478" lon="10.6202532"><ele>92.5</ele><time>2026-03-29T10:27:55.281Z</time></trkpt><trkpt lat="45.4042501" lon="10.6201329"><ele>92.75</ele><time>2026-03-29T10:27:56.282Z</time></trkpt><trkpt lat="45.4043504" lon="10.6200117"><ele>93.0</ele><time>2026-03-29T10:27:57.282Z</time></trkpt><trkpt lat="45.4044528" lon="10.6198872"><ele>93.0</ele><time>2026-03-29T10:27:58.282Z</time></trkpt><trkpt lat="45.4045551" lon="10.6197635"><ele>93.0</ele><time>2026-03-29T10:27:59.281Z</time></trkpt><trkpt lat="45.4046548" lon="10.6196525"><ele>93.0</ele><time>2026-03-29T10:28:00.281Z</time></trkpt><trkpt lat="45.4047622" lon="10.6195552"><ele>93.0</ele><time>2026-03-29T10:28:01.281Z</time></trkpt><trkpt lat="45.4048829" lon="10.6194537"><ele>92.25</ele><time>2026-03-29T10:28:02.281Z</time></trkpt><trkpt lat="45.4050029" lon="10.6193633"><ele>91.5</ele><time>2026-03-29T10:28:03.281Z</time></trkpt><trkpt lat="45.4051146" lon="10.619288"><ele>90.75</ele><time>2026-03-29T10:28:04.282Z</time></trkpt><trkpt lat="45.4052282" lon="10.6192215"><ele>90.0</ele><time>2026-03-29T10:28:05.282Z</time></trkpt><trkpt lat="45.4053335" lon="10.6191637"><ele>90.0</ele><time>2026-03-29T10:28:06.282Z</time></trkpt><trkpt lat="45.4054268" lon="10.6191388"><ele>90.0</ele><time>2026-03-29T10:28:07.282Z</time></trkpt><trkpt lat="45.4055347" lon="10.6191419"><ele>90.0</ele><time>2026-03-29T10:28:08.282Z</time></trkpt><trkpt lat="45.4056515" lon="10.6191798"><ele>90.0</ele><time>2026-03-29T10:28:09.282Z</time></trkpt><trkpt lat="45.4057824" lon="10.6192465"><ele>90.25</ele><time>2026-03-29T10:28:10.282Z</time></trkpt><trkpt lat="45.4059181" lon="10.6193261"><ele>90.5</ele><time>2026-03-29T10:28:11.281Z</time></trkpt><trkpt lat="45.4060433" lon="10.6194037"><ele>90.75</ele><time>2026-03-29T10:28:12.282Z</time></trkpt><trkpt lat="45.4061551" lon="10.6194691"><ele>91.0</ele><time>2026-03-29T10:28:13.282Z</time></trkpt><trkpt lat="45.406258" lon="10.6195206"><ele>91.0</ele><time>2026-03-29T10:28:14.281Z</time></trkpt><trkpt lat="45.4063598" lon="10.6195402"><ele>91.0</ele><time>2026-03-29T10:28:15.281Z</time></trkpt><trkpt lat="45.4064514" lon="10.6195304"><ele>91.0</ele><time>2026-03-29T10:28:16.281Z</time></trkpt><trkpt lat="45.4065376" lon="10.6194956"><ele>91.0</ele><time>2026-03-29T10:28:17.282Z</time></trkpt><trkpt lat="45.4066177" lon="10.619444"><ele>91.0</ele><time>2026-03-29T10:28:18.281Z</time></trkpt><trkpt lat="45.4066873" lon="10.6193712"><ele>91.0</ele><time>2026-03-29T10:28:19.281Z</time></trkpt><trkpt lat="45.4067368" lon="10.6192742"><ele>91.0</ele><time>2026-03-29T10:28:20.281Z</time></trkpt><trkpt lat="45.4067752" lon="10.6191622"><ele>91.0</ele><time>2026-03-29T10:28:21.282Z</time></trkpt><trkpt lat="45.4067888" lon="10.6190447"><ele>91.0</ele><time>2026-03-29T10:28:22.282Z</time></trkpt><trkpt lat="45.406769" lon="10.6189173"><ele>91.0</ele><time>2026-03-29T10:28:23.281Z</time></trkpt><trkpt lat="45.4067088" lon="10.6187903"><ele>91.0</ele><time>2026-03-29T10:28:24.282Z</time></trkpt><trkpt lat="45.4066282" lon="10.6186762"><ele>91.0</ele><time>2026-03-29T10:28:25.281Z</time></trkpt><trkpt lat="45.4065351" lon="10.6185796"><ele>91.0</ele><time>2026-03-29T10:28:26.281Z</time></trkpt><trkpt lat="45.4064396" lon="10.6184828"><ele>91.0</ele><time>2026-03-29T10:28:27.282Z</time></trkpt><trkpt lat="45.4063403" lon="10.6183755"><ele>91.0</ele><time>2026-03-29T10:28:28.281Z</time></trkpt><trkpt lat="45.4062397" lon="10.6182544"><ele>91.0</ele><time>2026-03-29T10:28:29.282Z</time></trkpt><trkpt lat="45.4061346" lon="10.6181181"><ele>91.0</ele><time>2026-03-29T10:28:30.281Z</time></trkpt><trkpt lat="45.406027" lon="10.6179865"><ele>91.0</ele><time>2026-03-29T10:28:31.281Z</time></trkpt><trkpt lat="45.4059201" lon="10.6178665"><ele>90.8</ele><time>2026-03-29T10:28:32.282Z</time></trkpt><trkpt lat="45.4058124" lon="10.6177671"><ele>90.6</ele><time>2026-03-29T10:28:33.282Z</time></trkpt><trkpt lat="45.4057114" lon="10.6176885"><ele>90.4</ele><time>2026-03-29T10:28:34.281Z</time></trkpt><trkpt lat="45.4056216" lon="10.6176067"><ele>90.2</ele><time>2026-03-29T10:28:35.281Z</time></trkpt><trkpt lat="45.4055503" lon="10.6175182"><ele>90.0</ele><time>2026-03-29T10:28:36.281Z</time></trkpt><trkpt lat="45.4054919" lon="10.6174234"><ele>90.0</ele><time>2026-03-29T10:28:37.282Z</time></trkpt><trkpt lat="45.4054728" lon="10.6173271"><ele>90.0</ele><time>2026-03-29T10:28:38.282Z</time></trkpt><trkpt lat="45.4054721" lon="10.6172131"><ele>90.0</ele><time>2026-03-29T10:28:39.281Z</time></trkpt><trkpt lat="45.4054688" lon="10.6170706"><ele>90.0</ele><time>2026-03-29T10:28:40.282Z</time></trkpt><trkpt lat="45.4054602" lon="10.6169036"><ele>90.0</ele><time>2026-03-29T10:28:41.282Z</time></trkpt><trkpt lat="45.4054411" lon="10.6167085"><ele>90.66666666666667</ele><time>2026-03-29T10:28:42.281Z</time></trkpt><trkpt lat="45.4054211" lon="10.6164962"><ele>91.33333333333334</ele><time>2026-03-29T10:28:43.281Z</time></trkpt><trkpt lat="45.4054107" lon="10.616277"><ele>92.0</ele><time>2026-03-29T10:28:44.281Z</time></trkpt><trkpt lat="45.405417" lon="10.6160606"><ele>92.33333333333334</ele><time>2026-03-29T10:28:45.282Z</time></trkpt><trkpt lat="45.4054298" lon="10.6158399"><ele>92.66666666666667</ele><time>2026-03-29T10:28:46.282Z</time></trkpt><trkpt lat="45.4054388" lon="10.6156132"><ele>93.0</ele><time>2026-03-29T10:28:47.281Z</time></trkpt><trkpt lat="45.405438" lon="10.6153916"><ele>93.0</ele><time>2026-03-29T10:28:48.282Z</time></trkpt><trkpt lat="45.4054415" lon="10.6151905"><ele>93.0</ele><time>2026-03-29T10:28:49.281Z</time></trkpt><trkpt lat="45.4054442" lon="10.6150149"><ele>93.0</ele><time>2026-03-29T10:28:50.281Z</time></trkpt><trkpt lat="45.4054539" lon="10.6148495"><ele>93.0</ele><time>2026-03-29T10:28:51.281Z</time></trkpt><trkpt lat="45.4054771" lon="10.6146755"><ele>94.75</ele><time>2026-03-29T10:28:52.282Z</time></trkpt><trkpt lat="45.4055089" lon="10.6144898"><ele>96.5</ele><time>2026-03-29T10:28:53.281Z</time></trkpt><trkpt lat="45.4055378" lon="10.6143043"><ele>98.25</ele><time>2026-03-29T10:28:54.281Z</time></trkpt><trkpt lat="45.4055585" lon="10.6141152"><ele>100.0</ele><time>2026-03-29T10:28:55.282Z</time></trkpt><trkpt lat="45.4055621" lon="10.6139135"><ele>100.0</ele><time>2026-03-29T10:28:56.281Z</time></trkpt><trkpt lat="45.4055525" lon="10.6137203"><ele>100.0</ele><time>2026-03-29T10:28:57.282Z</time></trkpt><trkpt lat="45.4055343" lon="10.6135393"><ele>100.0</ele><time>2026-03-29T10:28:58.282Z</time></trkpt><trkpt lat="45.4055217" lon="10.6133605"><ele>100.0</ele><time>2026-03-29T10:28:59.282Z</time></trkpt><trkpt lat="45.4055098" lon="10.6131984"><ele>100.0</ele><time>2026-03-29T10:29:00.281Z</time></trkpt><trkpt lat="45.405508" lon="10.6130445"><ele>100.0</ele><time>2026-03-29T10:29:01.282Z</time></trkpt><trkpt lat="45.4055142" lon="10.6129022"><ele>100.0</ele><time>2026-03-29T10:29:02.282Z</time></trkpt><trkpt lat="45.4055286" lon="10.6127699"><ele>100.0</ele><time>2026-03-29T10:29:03.281Z</time></trkpt><trkpt lat="45.4055421" lon="10.6126455"><ele>100.0</ele><time>2026-03-29T10:29:04.282Z</time></trkpt><trkpt lat="45.4055536" lon="10.612524"><ele>100.00000000000001</ele><time>2026-03-29T10:29:05.282Z</time></trkpt><trkpt lat="45.4055379" lon="10.6123977"><ele>100.0</ele><time>2026-03-29T10:29:06.28Z</time></trkpt><trkpt lat="45.4055082" lon="10.6122905"><ele>100.0</ele><time>2026-03-29T10:29:07.281Z</time></trkpt><trkpt lat="45.405469" lon="10.6121881"><ele>100.0</ele><time>2026-03-29T10:29:08.28Z</time></trkpt><trkpt lat="45.4054202" lon="10.6120819"><ele>100.00000000000001</ele><time>2026-03-29T10:29:09.281Z</time></trkpt><trkpt lat="45.4053528" lon="10.6119883"><ele>100.0</ele><time>2026-03-29T10:29:10.281Z</time></trkpt><trkpt lat="45.4052688" lon="10.6118974"><ele>99.6</ele><time>2026-03-29T10:29:11.28Z</time></trkpt><trkpt lat="45.4051622" lon="10.6118254"><ele>99.2</ele><time>2026-03-29T10:29:12.281Z</time></trkpt><trkpt lat="45.405064" lon="10.6117542"><ele>98.80000000000001</ele><time>2026-03-29T10:29:13.28Z</time></trkpt><trkpt lat="45.4049838" lon="10.6116752"><ele>98.4</ele><time>2026-03-29T10:29:14.281Z</time></trkpt><trkpt lat="45.404941" lon="10.6115737"><ele>98.0</ele><time>2026-03-29T10:29:15.281Z</time></trkpt><trkpt lat="45.4049153" lon="10.6114593"><ele>98.0</ele><time>2026-03-29T10:29:16.281Z</time></trkpt><trkpt lat="45.4048988" lon="10.6113267"><ele>98.0</ele><time>2026-03-29T10:29:17.281Z</time></trkpt><trkpt lat="45.4048985" lon="10.6111857"><ele>98.0</ele><time>2026-03-29T10:29:18.28Z</time></trkpt><trkpt lat="45.4048882" lon="10.6110285"><ele>98.0</ele><time>2026-03-29T10:29:19.281Z</time></trkpt><trkpt lat="45.4048744" lon="10.6108559"><ele>98.0</ele><time>2026-03-29T10:29:20.281Z</time></trkpt><trkpt lat="45.4048675" lon="10.6106556"><ele>98.33333333333333</ele><time>2026-03-29T10:29:21.28Z</time></trkpt><trkpt lat="45.404866" lon="10.6104387"><ele>98.66666666666666</ele><time>2026-03-29T10:29:22.28Z</time></trkpt><trkpt lat="45.4048704" lon="10.6102284"><ele>99.0</ele><time>2026-03-29T10:29:23.281Z</time></trkpt><trkpt lat="45.4048855" lon="10.6100156"><ele>99.0</ele><time>2026-03-29T10:29:24.28Z</time></trkpt><trkpt lat="45.404907" lon="10.6097984"><ele>99.0</ele><time>2026-03-29T10:29:25.28Z</time></trkpt><trkpt lat="45.4049219" lon="10.6095761"><ele>99.0</ele><time>2026-03-29T10:29:26.281Z</time></trkpt><trkpt lat="45.4049425" lon="10.6093436"><ele>99.5</ele><time>2026-03-29T10:29:27.28Z</time></trkpt><trkpt lat="45.4049657" lon="10.6091197"><ele>100.0</ele><time>2026-03-29T10:29:28.28Z</time></trkpt><trkpt lat="45.4049831" lon="10.6089105"><ele>100.5</ele><time>2026-03-29T10:29:29.28Z</time></trkpt><trkpt lat="45.4050031" lon="10.6087197"><ele>101.0</ele><time>2026-03-29T10:29:30.281Z</time></trkpt><trkpt lat="45.4050169" lon="10.6085527"><ele>101.0</ele><time>2026-03-29T10:29:31.28Z</time></trkpt><trkpt lat="45.4050219" lon="10.6083648"><ele>101.0</ele><time>2026-03-29T10:29:32.281Z</time></trkpt><trkpt lat="45.4050323" lon="10.6081666"><ele>101.0</ele><time>2026-03-29T10:29:33.28Z</time></trkpt><trkpt lat="45.4050385" lon="10.6079562"><ele>101.0</ele><time>2026-03-29T10:29:34.281Z</time></trkpt><trkpt lat="45.4050472" lon="10.6077413"><ele>100.5</ele><time>2026-03-29T10:29:35.281Z</time></trkpt><trkpt lat="45.4050433" lon="10.6075309"><ele>100.0</ele><time>2026-03-29T10:29:36.28Z</time></trkpt><trkpt lat="45.405043" lon="10.6073357"><ele>99.5</ele><time>2026-03-29T10:29:37.28Z</time></trkpt><trkpt lat="45.4050478" lon="10.607151"><ele>99.0</ele><time>2026-03-29T10:29:38.281Z</time></trkpt><trkpt lat="45.4050585" lon="10.6069652"><ele>98.5</ele><time>2026-03-29T10:29:39.281Z</time></trkpt><trkpt lat="45.4050747" lon="10.6067801"><ele>98.0</ele><time>2026-03-29T10:29:40.281Z</time></trkpt><trkpt lat="45.4051007" lon="10.6065997"><ele>97.5</ele><time>2026-03-29T10:29:41.281Z</time></trkpt><trkpt lat="45.4051246" lon="10.6064271"><ele>97.0</ele><time>2026-03-29T10:29:42.281Z</time></trkpt><trkpt lat="45.4051484" lon="10.6062649"><ele>97.25</ele><time>2026-03-29T10:29:43.281Z</time></trkpt><trkpt lat="45.4051723" lon="10.6060958"><ele>97.5</ele><time>2026-03-29T10:29:44.28Z</time></trkpt><trkpt lat="45.4051962" lon="10.6059188"><ele>97.75</ele><time>2026-03-29T10:29:45.281Z</time></trkpt><trkpt lat="45.4052173" lon="10.6057399"><ele>98.0</ele><time>2026-03-29T10:29:46.281Z</time></trkpt><trkpt lat="45.4052344" lon="10.6055635"><ele>98.0</ele><time>2026-03-29T10:29:47.281Z</time></trkpt><trkpt lat="45.4052405" lon="10.6053829"><ele>98.0</ele><time>2026-03-29T10:29:48.28Z</time></trkpt><trkpt lat="45.405239" lon="10.6052146"><ele>98.0</ele><time>2026-03-29T10:29:49.28Z</time></trkpt><trkpt lat="45.4052351" lon="10.605071"><ele>98.0</ele><time>2026-03-29T10:29:50.281Z</time></trkpt><trkpt lat="45.4052307" lon="10.6049659"><ele>98.0</ele><time>2026-03-29T10:29:51.281Z</time></trkpt><trkpt lat="45.4052104" lon="10.6048762"><ele>98.0</ele><time>2026-03-29T10:29:52.281Z</time></trkpt><trkpt lat="45.4051705" lon="10.6047891"><ele>98.0</ele><time>2026-03-29T10:29:53.281Z</time></trkpt><trkpt lat="45.4051082" lon="10.6046926"><ele>98.0</ele><time>2026-03-29T10:29:54.281Z</time></trkpt><trkpt lat="45.4050349" lon="10.6045892"><ele>98.0</ele><time>2026-03-29T10:29:55.28Z</time></trkpt><trkpt lat="45.4049664" lon="10.6044765"><ele>98.0</ele><time>2026-03-29T10:29:56.281Z</time></trkpt><trkpt lat="45.4049014" lon="10.6043766"><ele>97.60000000000001</ele><time>2026-03-29T10:29:57.28Z</time></trkpt><trkpt lat="45.4048354" lon="10.6042886"><ele>97.2</ele><time>2026-03-29T10:29:58.281Z</time></trkpt><trkpt lat="45.4047736" lon="10.604225"><ele>96.8</ele><time>2026-03-29T10:29:59.281Z</time></trkpt><trkpt lat="45.4047094" lon="10.6041834"><ele>96.4</ele><time>2026-03-29T10:30:00.281Z</time></trkpt><trkpt lat="45.4045995" lon="10.6041771"><ele>96.0</ele><time>2026-03-29T10:30:02.281Z</time></trkpt><trkpt lat="45.4044949" lon="10.6042251"><ele>95.4</ele><time>2026-03-29T10:30:04.28Z</time></trkpt><trkpt lat="45.4044223" lon="10.6042397"><ele>94.8</ele><time>2026-03-29T10:30:06.281Z</time></trkpt><trkpt lat="45.4043547" lon="10.6042146"><ele>94.2</ele><time>2026-03-29T10:30:10.281Z</time></trkpt><trkpt lat="45.4042704" lon="10.6041241"><ele>93.60000000000001</ele><time>2026-03-29T10:30:13.281Z</time></trkpt><trkpt lat="45.4041729" lon="10.6040546"><ele>93.0</ele><time>2026-03-29T10:30:15.281Z</time></trkpt><trkpt lat="45.4040728" lon="10.6039758"><ele>93.0</ele><time>2026-03-29T10:30:17.28Z</time></trkpt><trkpt lat="45.4039746" lon="10.6038915"><ele>93.0</ele><time>2026-03-29T10:30:19.28Z</time></trkpt><trkpt lat="45.4039104" lon="10.6037742"><ele>93.0</ele><time>2026-03-29T10:30:21.281Z</time></trkpt><trkpt lat="45.4039045" lon="10.6036408"><ele>93.0</ele><time>2026-03-29T10:30:23.281Z</time></trkpt><trkpt lat="45.4039487" lon="10.6034692"><ele>93.0</ele><time>2026-03-29T10:30:25.281Z</time></trkpt><trkpt lat="45.4039814" lon="10.6033689"><ele>93.0</ele><time>2026-03-29T10:30:26.28Z</time></trkpt><trkpt lat="45.4040158" lon="10.6032656"><ele>93.0</ele><time>2026-03-29T10:30:27.28Z</time></trkpt><trkpt lat="45.4040178" lon="10.6031105"><ele>93.0</ele><time>2026-03-29T10:30:29.28Z</time></trkpt><trkpt lat="45.4039271" lon="10.6030374"><ele>93.0</ele><time>2026-03-29T10:30:31.281Z</time></trkpt><trkpt lat="45.4038624" lon="10.6030428"><ele>93.0</ele><time>2026-03-29T10:30:32.28Z</time></trkpt><trkpt lat="45.4037861" lon="10.6030599"><ele>93.0</ele><time>2026-03-29T10:30:33.281Z</time></trkpt><trkpt lat="45.4037121" lon="10.6030665"><ele>93.28571428571429</ele><time>2026-03-29T10:30:34.281Z</time></trkpt><trkpt lat="45.4036422" lon="10.6030639"><ele>93.57142857142857</ele><time>2026-03-29T10:30:35.28Z</time></trkpt><trkpt lat="45.4035738" lon="10.6030494"><ele>93.85714285714286</ele><time>2026-03-29T10:30:36.28Z</time></trkpt><trkpt lat="45.4034985" lon="10.6030326"><ele>94.14285714285714</ele><time>2026-03-29T10:30:37.28Z</time></trkpt><trkpt lat="45.4034269" lon="10.6030164"><ele>94.42857142857143</ele><time>2026-03-29T10:30:38.281Z</time></trkpt><trkpt lat="45.4033638" lon="10.602997"><ele>94.71428571428572</ele><time>2026-03-29T10:30:39.28Z</time></trkpt><trkpt lat="45.4032878" lon="10.6029669"><ele>95.0</ele><time>2026-03-29T10:30:41.281Z</time></trkpt><trkpt lat="45.4031921" lon="10.6029329"><ele>95.0</ele><time>2026-03-29T10:30:52.28Z</time></trkpt><trkpt lat="45.4031168" lon="10.6028652"><ele>95.0</ele><time>2026-03-29T10:30:55.28Z</time></trkpt><trkpt lat="45.4030391" lon="10.6027963"><ele>95.0</ele><time>2026-03-29T10:34:35.28Z</time></trkpt><trkpt lat="45.4029927" lon="10.6026941"><ele>95.0</ele><time>2026-03-29T10:34:38.28Z</time></trkpt><trkpt lat="45.4030067" lon="10.6025677"><ele>95.0</ele><time>2026-03-29T10:34:40.28Z</time></trkpt><trkpt lat="45.4030229" lon="10.6023899"><ele>95.16666666666667</ele><time>2026-03-29T10:34:42.279Z</time></trkpt><trkpt lat="45.4030222" lon="10.6022823"><ele>95.33333333333334</ele><time>2026-03-29T10:34:43.279Z</time></trkpt><trkpt lat="45.4030231" lon="10.6021609"><ele>95.5</ele><time>2026-03-29T10:34:44.28Z</time></trkpt><trkpt lat="45.4030257" lon="10.6020336"><ele>95.66666666666667</ele><time>2026-03-29T10:34:45.279Z</time></trkpt><trkpt lat="45.4030234" lon="10.6019159"><ele>95.83333333333333</ele><time>2026-03-29T10:34:46.28Z</time></trkpt><trkpt lat="45.4030187" lon="10.6018009"><ele>96.0</ele><time>2026-03-29T10:34:47.279Z</time></trkpt><trkpt lat="45.4030186" lon="10.6016611"><ele>96.0</ele><time>2026-03-29T10:34:48.279Z</time></trkpt><trkpt lat="45.4030173" lon="10.6014831"><ele>96.0</ele><time>2026-03-29T10:34:49.28Z</time></trkpt><trkpt lat="45.4030365" lon="10.6012666"><ele>96.0</ele><time>2026-03-29T10:34:50.279Z</time></trkpt><trkpt lat="45.4030499" lon="10.6010467"><ele>96.0</ele><time>2026-03-29T10:34:51.28Z</time></trkpt><trkpt lat="45.4030535" lon="10.6008247"><ele>96.0</ele><time>2026-03-29T10:34:52.28Z</time></trkpt><trkpt lat="45.4030587" lon="10.6006187"><ele>96.0</ele><time>2026-03-29T10:34:53.279Z</time></trkpt><trkpt lat="45.4030665" lon="10.6004444"><ele>96.0</ele><time>2026-03-29T10:34:54.28Z</time></trkpt><trkpt lat="45.4030593" lon="10.600268"><ele>96.0</ele><time>2026-03-29T10:34:55.279Z</time></trkpt><trkpt lat="45.4030459" lon="10.6000859"><ele>96.19999999999999</ele><time>2026-03-29T10:34:56.279Z</time></trkpt><trkpt lat="45.4030232" lon="10.5999295"><ele>96.39999999999999</ele><time>2026-03-29T10:34:57.279Z</time></trkpt><trkpt lat="45.4030121" lon="10.5997804"><ele>96.6</ele><time>2026-03-29T10:34:58.279Z</time></trkpt><trkpt lat="45.4030114" lon="10.5996386"><ele>96.8</ele><time>2026-03-29T10:34:59.279Z</time></trkpt><trkpt lat="45.4030304" lon="10.5994815"><ele>97.0</ele><time>2026-03-29T10:35:00.28Z</time></trkpt><trkpt lat="45.4030474" lon="10.5993106"><ele>97.0</ele><time>2026-03-29T10:35:01.279Z</time></trkpt><trkpt lat="45.4030489" lon="10.5991241"><ele>97.0</ele><time>2026-03-29T10:35:02.28Z</time></trkpt><trkpt lat="45.4030396" lon="10.5989433"><ele>97.0</ele><time>2026-03-29T10:35:03.279Z</time></trkpt><trkpt lat="45.4030316" lon="10.5987738"><ele>97.0</ele><time>2026-03-29T10:35:04.28Z</time></trkpt><trkpt lat="45.403024" lon="10.5986275"><ele>96.8</ele><time>2026-03-29T10:35:05.279Z</time></trkpt><trkpt lat="45.4030234" lon="10.598492"><ele>96.6</ele><time>2026-03-29T10:35:06.279Z</time></trkpt><trkpt lat="45.4030317" lon="10.5983699"><ele>96.39999999999999</ele><time>2026-03-29T10:35:07.279Z</time></trkpt><trkpt lat="45.4030427" lon="10.5982393"><ele>96.19999999999999</ele><time>2026-03-29T10:35:08.28Z</time></trkpt><trkpt lat="45.4030439" lon="10.5981114"><ele>96.0</ele><time>2026-03-29T10:35:09.279Z</time></trkpt><trkpt lat="45.4030423" lon="10.5979796"><ele>96.0</ele><time>2026-03-29T10:35:10.279Z</time></trkpt><trkpt lat="45.4030418" lon="10.5978445"><ele>96.0</ele><time>2026-03-29T10:35:11.28Z</time></trkpt><trkpt lat="45.4030413" lon="10.5977263"><ele>96.0</ele><time>2026-03-29T10:35:12.28Z</time></trkpt><trkpt lat="45.403041" lon="10.5976267"><ele>96.0</ele><time>2026-03-29T10:35:13.279Z</time></trkpt><trkpt lat="45.4030835" lon="10.597489"><ele>96.0</ele><time>2026-03-29T10:35:15.279Z</time></trkpt><trkpt lat="45.4031806" lon="10.5974675"><ele>95.8</ele><time>2026-03-29T10:35:17.28Z</time></trkpt><trkpt lat="45.4032934" lon="10.597518"><ele>95.6</ele><time>2026-03-29T10:35:19.28Z</time></trkpt><trkpt lat="45.4033765" lon="10.5974827"><ele>95.4</ele><time>2026-03-29T10:35:21.28Z</time></trkpt><trkpt lat="45.4034113" lon="10.5973429"><ele>95.2</ele><time>2026-03-29T10:35:23.279Z</time></trkpt><trkpt lat="45.4034055" lon="10.5972325"><ele>95.0</ele><time>2026-03-29T10:35:24.28Z</time></trkpt><trkpt lat="45.4034007" lon="10.5971262"><ele>95.2</ele><time>2026-03-29T10:35:25.279Z</time></trkpt><trkpt lat="45.4033998" lon="10.596982"><ele>95.4</ele><time>2026-03-29T10:35:27.279Z</time></trkpt><trkpt lat="45.4033329" lon="10.5968931"><ele>95.6</ele><time>2026-03-29T10:35:30.279Z</time></trkpt><trkpt lat="45.4032258" lon="10.5968706"><ele>95.8</ele><time>2026-03-29T10:35:32.279Z</time></trkpt><trkpt lat="45.4031481" lon="10.5968835"><ele>96.0</ele><time>2026-03-29T10:35:33.28Z</time></trkpt><trkpt lat="45.4030597" lon="10.5968942"><ele>97.19999999999999</ele><time>2026-03-29T10:35:34.28Z</time></trkpt><trkpt lat="45.4029625" lon="10.5969082"><ele>98.39999999999999</ele><time>2026-03-29T10:35:35.279Z</time></trkpt><trkpt lat="45.4028579" lon="10.5969119"><ele>99.6</ele><time>2026-03-29T10:35:36.279Z</time></trkpt><trkpt lat="45.4027472" lon="10.5969114"><ele>100.8</ele><time>2026-03-29T10:35:37.279Z</time></trkpt><trkpt lat="45.4026328" lon="10.5968986"><ele>102.0</ele><time>2026-03-29T10:35:38.279Z</time></trkpt><trkpt lat="45.402517" lon="10.5968809"><ele>102.0</ele><time>2026-03-29T10:35:39.28Z</time></trkpt><trkpt lat="45.4024052" lon="10.5968612"><ele>102.0</ele><time>2026-03-29T10:35:40.28Z</time></trkpt><trkpt lat="45.4022994" lon="10.5968359"><ele>102.0</ele><time>2026-03-29T10:35:41.279Z</time></trkpt><trkpt lat="45.4021836" lon="10.5968147"><ele>102.0</ele><time>2026-03-29T10:35:42.28Z</time></trkpt><trkpt lat="45.4020631" lon="10.5967849"><ele>103.39999999999999</ele><time>2026-03-29T10:35:43.279Z</time></trkpt><trkpt lat="45.4019551" lon="10.5967474"><ele>104.8</ele><time>2026-03-29T10:35:44.28Z</time></trkpt><trkpt lat="45.4018589" lon="10.5967203"><ele>106.2</ele><time>2026-03-29T10:35:45.279Z</time></trkpt><trkpt lat="45.4017843" lon="10.596711"><ele>107.6</ele><time>2026-03-29T10:35:46.279Z</time></trkpt><trkpt lat="45.4016768" lon="10.596766"><ele>109.0</ele><time>2026-03-29T10:35:48.279Z</time></trkpt><trkpt lat="45.4016318" lon="10.5968382"><ele>109.00000000000001</ele><time>2026-03-29T10:35:49.279Z</time></trkpt><trkpt lat="45.4015953" lon="10.5969286"><ele>109.0</ele><time>2026-03-29T10:35:50.28Z</time></trkpt><trkpt lat="45.4015636" lon="10.5970095"><ele>109.0</ele><time>2026-03-29T10:35:51.279Z</time></trkpt><trkpt lat="45.4014937" lon="10.5971023"><ele>109.0</ele><time>2026-03-29T10:35:53.28Z</time></trkpt><trkpt lat="45.4013977" lon="10.5971066"><ele>109.00000000000001</ele><time>2026-03-29T10:35:55.279Z</time></trkpt><trkpt lat="45.4013291" lon="10.5971008"><ele>109.0</ele><time>2026-03-29T10:35:56.279Z</time></trkpt><trkpt lat="45.4012476" lon="10.5970972"><ele>111.00000000000001</ele><time>2026-03-29T10:35:57.279Z</time></trkpt><trkpt lat="45.4011677" lon="10.5971026"><ele>113.0</ele><time>2026-03-29T10:35:58.279Z</time></trkpt><trkpt lat="45.4010938" lon="10.5971161"><ele>115.0</ele><time>2026-03-29T10:35:59.279Z</time></trkpt><trkpt lat="45.4010253" lon="10.5971333"><ele>117.0</ele><time>2026-03-29T10:36:00.28Z</time></trkpt><trkpt lat="45.4009622" lon="10.5971638"><ele>119.00000000000001</ele><time>2026-03-29T10:36:01.279Z</time></trkpt><trkpt lat="45.4008669" lon="10.5972672"><ele>121.0</ele><time>2026-03-29T10:36:03.279Z</time></trkpt><trkpt lat="45.4008172" lon="10.5973239"><ele>121.0</ele><time>2026-03-29T10:36:04.28Z</time></trkpt><trkpt lat="45.4007041" lon="10.5974201"><ele>121.0</ele><time>2026-03-29T10:36:06.279Z</time></trkpt><trkpt lat="45.4006221" lon="10.597455"><ele>121.0</ele><time>2026-03-29T10:36:07.279Z</time></trkpt><trkpt lat="45.4005332" lon="10.597486"><ele>121.0</ele><time>2026-03-29T10:36:08.28Z</time></trkpt><trkpt lat="45.4004402" lon="10.597516"><ele>121.0</ele><time>2026-03-29T10:36:09.279Z</time></trkpt><trkpt lat="45.4003524" lon="10.5975488"><ele>120.0</ele><time>2026-03-29T10:36:10.28Z</time></trkpt><trkpt lat="45.4002831" lon="10.5975706"><ele>119.0</ele><time>2026-03-29T10:36:11.279Z</time></trkpt><trkpt lat="45.4001942" lon="10.5975571"><ele>118.0</ele><time>2026-03-29T10:36:13.28Z</time></trkpt><trkpt lat="45.4001374" lon="10.59744"><ele>117.0</ele><time>2026-03-29T10:36:15.28Z</time></trkpt><trkpt lat="45.4001272" lon="10.5972795"><ele>116.0</ele><time>2026-03-29T10:36:16.279Z</time></trkpt><trkpt lat="45.4001131" lon="10.5970807"><ele>117.0</ele><time>2026-03-29T10:36:17.28Z</time></trkpt><trkpt lat="45.4000943" lon="10.5968528"><ele>118.0</ele><time>2026-03-29T10:36:18.279Z</time></trkpt><trkpt lat="45.4000804" lon="10.5966032"><ele>119.0</ele><time>2026-03-29T10:36:19.28Z</time></trkpt><trkpt lat="45.4000716" lon="10.5963476"><ele>118.33333333333333</ele><time>2026-03-29T10:36:20.279Z</time></trkpt><trkpt lat="45.4000742" lon="10.5960926"><ele>117.66666666666666</ele><time>2026-03-29T10:36:21.279Z</time></trkpt><trkpt lat="45.4000909" lon="10.5958348"><ele>117.0</ele><time>2026-03-29T10:36:22.28Z</time></trkpt><trkpt lat="45.4000957" lon="10.5955827"><ele>116.33333333333334</ele><time>2026-03-29T10:36:23.28Z</time></trkpt><trkpt lat="45.4000787" lon="10.5953347"><ele>115.66666666666667</ele><time>2026-03-29T10:36:24.279Z</time></trkpt><trkpt lat="45.4000426" lon="10.5950954"><ele>115.0</ele><time>2026-03-29T10:36:25.279Z</time></trkpt><trkpt lat="45.3999773" lon="10.5948566"><ele>115.0</ele><time>2026-03-29T10:36:26.279Z</time></trkpt><trkpt lat="45.3998916" lon="10.5946187"><ele>115.0</ele><time>2026-03-29T10:36:27.279Z</time></trkpt><trkpt lat="45.3997901" lon="10.5943893"><ele>115.0</ele><time>2026-03-29T10:36:28.279Z</time></trkpt><trkpt lat="45.3996903" lon="10.5941683"><ele>115.0</ele><time>2026-03-29T10:36:29.28Z</time></trkpt><trkpt lat="45.3996025" lon="10.5939623"><ele>115.0</ele><time>2026-03-29T10:36:30.279Z</time></trkpt><trkpt lat="45.3995218" lon="10.5937532"><ele>115.0</ele><time>2026-03-29T10:36:31.28Z</time></trkpt><trkpt lat="45.3994568" lon="10.5935445"><ele>115.0</ele><time>2026-03-29T10:36:32.28Z</time></trkpt><trkpt lat="45.3994159" lon="10.5933077"><ele>115.0</ele><time>2026-03-29T10:36:33.28Z</time></trkpt><trkpt lat="45.3993912" lon="10.5930727"><ele>115.0</ele><time>2026-03-29T10:36:34.279Z</time></trkpt><trkpt lat="45.3993913" lon="10.5928461"><ele>115.33333333333334</ele><time>2026-03-29T10:36:35.28Z</time></trkpt><trkpt lat="45.3994159" lon="10.5926042"><ele>115.66666666666666</ele><time>2026-03-29T10:36:36.279Z</time></trkpt><trkpt lat="45.3994357" lon="10.5923632"><ele>116.0</ele><time>2026-03-29T10:36:37.279Z</time></trkpt><trkpt lat="45.3994323" lon="10.5921026"><ele>115.33333333333333</ele><time>2026-03-29T10:36:38.28Z</time></trkpt><trkpt lat="45.3994125" lon="10.5918222"><ele>114.66666666666666</ele><time>2026-03-29T10:36:39.279Z</time></trkpt><trkpt lat="45.3993765" lon="10.5915329"><ele>114.0</ele><time>2026-03-29T10:36:40.28Z</time></trkpt><trkpt lat="45.3993313" lon="10.591233"><ele>112.66666666666666</ele><time>2026-03-29T10:36:41.28Z</time></trkpt><trkpt lat="45.3992841" lon="10.5909202"><ele>111.33333333333333</ele><time>2026-03-29T10:36:42.28Z</time></trkpt><trkpt lat="45.3992364" lon="10.5906223"><ele>110.0</ele><time>2026-03-29T10:36:43.279Z</time></trkpt><trkpt lat="45.3991928" lon="10.5903219"><ele>110.0</ele><time>2026-03-29T10:36:44.28Z</time></trkpt><trkpt lat="45.3991612" lon="10.5900078"><ele>110.0</ele><time>2026-03-29T10:36:45.28Z</time></trkpt><trkpt lat="45.3991245" lon="10.5897033"><ele>110.0</ele><time>2026-03-29T10:36:46.28Z</time></trkpt><trkpt lat="45.3990817" lon="10.5893995"><ele>109.0</ele><time>2026-03-29T10:36:47.279Z</time></trkpt><trkpt lat="45.3990216" lon="10.589092"><ele>108.0</ele><time>2026-03-29T10:36:48.279Z</time></trkpt><trkpt lat="45.3989494" lon="10.5887788"><ele>108.0</ele><time>2026-03-29T10:36:49.278Z</time></trkpt><trkpt lat="45.3988745" lon="10.5884685"><ele>108.0</ele><time>2026-03-29T10:36:50.279Z</time></trkpt><trkpt lat="45.3987976" lon="10.5881519"><ele>107.0</ele><time>2026-03-29T10:36:51.279Z</time></trkpt><trkpt lat="45.3987231" lon="10.5878415"><ele>106.0</ele><time>2026-03-29T10:36:52.279Z</time></trkpt><trkpt lat="45.3986523" lon="10.5875283"><ele>106.0</ele><time>2026-03-29T10:36:53.278Z</time></trkpt><trkpt lat="45.3985889" lon="10.587233"><ele>106.0</ele><time>2026-03-29T10:36:54.278Z</time></trkpt><trkpt lat="45.3985283" lon="10.5869485"><ele>106.0</ele><time>2026-03-29T10:36:55.279Z</time></trkpt><trkpt lat="45.3984619" lon="10.5866812"><ele>106.0</ele><time>2026-03-29T10:36:56.278Z</time></trkpt><trkpt lat="45.398396" lon="10.5864377"><ele>106.0</ele><time>2026-03-29T10:36:57.278Z</time></trkpt><trkpt lat="45.3983322" lon="10.5861981"><ele>106.0</ele><time>2026-03-29T10:36:58.279Z</time></trkpt><trkpt lat="45.3982645" lon="10.5859688"><ele>105.75</ele><time>2026-03-29T10:36:59.278Z</time></trkpt><trkpt lat="45.3981996" lon="10.5857699"><ele>105.5</ele><time>2026-03-29T10:37:00.279Z</time></trkpt><trkpt lat="45.3981429" lon="10.5855757"><ele>105.25</ele><time>2026-03-29T10:37:01.279Z</time></trkpt><trkpt lat="45.3980882" lon="10.5853858"><ele>105.0</ele><time>2026-03-29T10:37:02.278Z</time></trkpt><trkpt lat="45.3980404" lon="10.585218"><ele>104.6</ele><time>2026-03-29T10:37:03.279Z</time></trkpt><trkpt lat="45.3979981" lon="10.5850795"><ele>104.2</ele><time>2026-03-29T10:37:04.279Z</time></trkpt><trkpt lat="45.3979624" lon="10.5849664"><ele>103.80000000000001</ele><time>2026-03-29T10:37:05.279Z</time></trkpt><trkpt lat="45.3979366" lon="10.5848675"><ele>103.4</ele><time>2026-03-29T10:37:06.278Z</time></trkpt><trkpt lat="45.3979442" lon="10.5847703"><ele>103.0</ele><time>2026-03-29T10:37:08.279Z</time></trkpt><trkpt lat="45.3980737" lon="10.5847911"><ele>103.0</ele><time>2026-03-29T10:37:10.278Z</time></trkpt><trkpt lat="45.3981866" lon="10.5848036"><ele>103.0</ele><time>2026-03-29T10:37:11.279Z</time></trkpt><trkpt lat="45.3983239" lon="10.5848145"><ele>103.0</ele><time>2026-03-29T10:37:12.279Z</time></trkpt><trkpt lat="45.3984628" lon="10.5848212"><ele>103.0</ele><time>2026-03-29T10:37:13.279Z</time></trkpt><trkpt lat="45.3986089" lon="10.5848222"><ele>103.0</ele><time>2026-03-29T10:37:14.279Z</time></trkpt><trkpt lat="45.3987609" lon="10.584834"><ele>103.0</ele><time>2026-03-29T10:37:15.278Z</time></trkpt><trkpt lat="45.3989189" lon="10.5848687"><ele>103.0</ele><time>2026-03-29T10:37:16.279Z</time></trkpt><trkpt lat="45.3990902" lon="10.5849001"><ele>102.0</ele><time>2026-03-29T10:37:17.278Z</time></trkpt><trkpt lat="45.39927" lon="10.5849289"><ele>101.0</ele><time>2026-03-29T10:37:18.278Z</time></trkpt><trkpt lat="45.399441" lon="10.5849397"><ele>100.0</ele><time>2026-03-29T10:37:19.279Z</time></trkpt><trkpt lat="45.3996119" lon="10.584941"><ele>99.33333333333334</ele><time>2026-03-29T10:37:20.278Z</time></trkpt><trkpt lat="45.3997827" lon="10.5849349"><ele>98.66666666666666</ele><time>2026-03-29T10:37:21.278Z</time></trkpt><trkpt lat="45.3999466" lon="10.584928"><ele>98.0</ele><time>2026-03-29T10:37:22.278Z</time></trkpt><trkpt lat="45.4000956" lon="10.584928"><ele>98.0</ele><time>2026-03-29T10:37:23.279Z</time></trkpt><trkpt lat="45.4002341" lon="10.5849177"><ele>98.0</ele><time>2026-03-29T10:37:24.279Z</time></trkpt><trkpt lat="45.4003682" lon="10.5848975"><ele>98.0</ele><time>2026-03-29T10:37:25.279Z</time></trkpt><trkpt lat="45.4005029" lon="10.5848729"><ele>98.0</ele><time>2026-03-29T10:37:26.279Z</time></trkpt><trkpt lat="45.40063" lon="10.5848534"><ele>98.75</ele><time>2026-03-29T10:37:27.278Z</time></trkpt><trkpt lat="45.4007516" lon="10.5848376"><ele>99.5</ele><time>2026-03-29T10:37:28.278Z</time></trkpt><trkpt lat="45.400871" lon="10.584809"><ele>100.25</ele><time>2026-03-29T10:37:29.279Z</time></trkpt><trkpt lat="45.4009867" lon="10.584793"><ele>101.0</ele><time>2026-03-29T10:37:30.279Z</time></trkpt><trkpt lat="45.4010963" lon="10.5847759"><ele>101.0</ele><time>2026-03-29T10:37:31.279Z</time></trkpt><trkpt lat="45.4011975" lon="10.5847764"><ele>101.0</ele><time>2026-03-29T10:37:32.279Z</time></trkpt><trkpt lat="45.4013011" lon="10.5847835"><ele>101.0</ele><time>2026-03-29T10:37:33.278Z</time></trkpt><trkpt lat="45.4014086" lon="10.5848002"><ele>101.0</ele><time>2026-03-29T10:37:34.279Z</time></trkpt><trkpt lat="45.4015251" lon="10.5848316"><ele>101.0</ele><time>2026-03-29T10:37:35.278Z</time></trkpt><trkpt lat="45.40164" lon="10.5848682"><ele>100.25</ele><time>2026-03-29T10:37:36.279Z</time></trkpt><trkpt lat="45.4017627" lon="10.5848942"><ele>99.5</ele><time>2026-03-29T10:37:37.279Z</time></trkpt><trkpt lat="45.4018876" lon="10.5849279"><ele>98.75</ele><time>2026-03-29T10:37:38.278Z</time></trkpt><trkpt lat="45.4019928" lon="10.5849713"><ele>98.0</ele><time>2026-03-29T10:37:39.278Z</time></trkpt><trkpt lat="45.40209" lon="10.5850098"><ele>97.49999999999999</ele><time>2026-03-29T10:37:40.278Z</time></trkpt><trkpt lat="45.4021879" lon="10.5850373"><ele>97.0</ele><time>2026-03-29T10:37:41.279Z</time></trkpt><trkpt lat="45.4022736" lon="10.5850604"><ele>96.5</ele><time>2026-03-29T10:37:42.279Z</time></trkpt><trkpt lat="45.4023775" lon="10.5850523"><ele>96.0</ele><time>2026-03-29T10:37:44.279Z</time></trkpt><trkpt lat="45.4024051" lon="10.5849678"><ele>95.5</ele><time>2026-03-29T10:37:45.279Z</time></trkpt><trkpt lat="45.4024249" lon="10.5848416"><ele>95.0</ele><time>2026-03-29T10:37:46.278Z</time></trkpt><trkpt lat="45.4024569" lon="10.5846897"><ele>95.66666666666667</ele><time>2026-03-29T10:37:47.279Z</time></trkpt><trkpt lat="45.4024915" lon="10.584491"><ele>96.33333333333334</ele><time>2026-03-29T10:37:48.279Z</time></trkpt><trkpt lat="45.4025354" lon="10.5842792"><ele>97.0</ele><time>2026-03-29T10:37:49.279Z</time></trkpt><trkpt lat="45.4025924" lon="10.5840736"><ele>97.0</ele><time>2026-03-29T10:37:50.279Z</time></trkpt><trkpt lat="45.4026595" lon="10.5838783"><ele>97.0</ele><time>2026-03-29T10:37:51.279Z</time></trkpt><trkpt lat="45.4027257" lon="10.58369"><ele>97.0</ele><time>2026-03-29T10:37:52.278Z</time></trkpt><trkpt lat="45.402796" lon="10.5834944"><ele>97.33333333333334</ele><time>2026-03-29T10:37:53.279Z</time></trkpt><trkpt lat="45.4028695" lon="10.5832956"><ele>97.66666666666666</ele><time>2026-03-29T10:37:54.278Z</time></trkpt><trkpt lat="45.4029388" lon="10.583087"><ele>98.0</ele><time>2026-03-29T10:37:55.279Z</time></trkpt><trkpt lat="45.4030104" lon="10.5828808"><ele>97.25</ele><time>2026-03-29T10:37:56.278Z</time></trkpt><trkpt lat="45.4030777" lon="10.5826941"><ele>96.5</ele><time>2026-03-29T10:37:57.279Z</time></trkpt><trkpt lat="45.403152" lon="10.5825067"><ele>95.75</ele><time>2026-03-29T10:37:58.278Z</time></trkpt><trkpt lat="45.4032312" lon="10.5823243"><ele>95.0</ele><time>2026-03-29T10:37:59.278Z</time></trkpt><trkpt lat="45.4033153" lon="10.5821502"><ele>95.0</ele><time>2026-03-29T10:38:00.279Z</time></trkpt><trkpt lat="45.4034007" lon="10.5819862"><ele>95.0</ele><time>2026-03-29T10:38:01.279Z</time></trkpt><trkpt lat="45.4034688" lon="10.5818258"><ele>95.0</ele><time>2026-03-29T10:38:02.278Z</time></trkpt><trkpt lat="45.4035307" lon="10.5816553"><ele>95.0</ele><time>2026-03-29T10:38:03.279Z</time></trkpt><trkpt lat="45.4035935" lon="10.5814893"><ele>95.0</ele><time>2026-03-29T10:38:04.279Z</time></trkpt><trkpt lat="45.4036543" lon="10.581328"><ele>95.0</ele><time>2026-03-29T10:38:05.279Z</time></trkpt><trkpt lat="45.4037054" lon="10.5811766"><ele>95.0</ele><time>2026-03-29T10:38:06.279Z</time></trkpt><trkpt lat="45.4037568" lon="10.581036"><ele>95.0</ele><time>2026-03-29T10:38:07.278Z</time></trkpt><trkpt lat="45.4038145" lon="10.5808938"><ele>94.75</ele><time>2026-03-29T10:38:08.279Z</time></trkpt><trkpt lat="45.403875" lon="10.5807554"><ele>94.5</ele><time>2026-03-29T10:38:09.279Z</time></trkpt><trkpt lat="45.4039288" lon="10.5806109"><ele>94.25</ele><time>2026-03-29T10:38:10.278Z</time></trkpt><trkpt lat="45.4039845" lon="10.5804647"><ele>94.0</ele><time>2026-03-29T10:38:11.279Z</time></trkpt><trkpt lat="45.404043" lon="10.5803119"><ele>94.4</ele><time>2026-03-29T10:38:12.279Z</time></trkpt><trkpt lat="45.4040973" lon="10.5801593"><ele>94.80000000000001</ele><time>2026-03-29T10:38:13.278Z</time></trkpt><trkpt lat="45.4041496" lon="10.5800155"><ele>95.19999999999999</ele><time>2026-03-29T10:38:14.279Z</time></trkpt><trkpt lat="45.4042011" lon="10.5798796"><ele>95.6</ele><time>2026-03-29T10:38:15.278Z</time></trkpt><trkpt lat="45.4042508" lon="10.5797468"><ele>96.0</ele><time>2026-03-29T10:38:16.278Z</time></trkpt><trkpt lat="45.404298" lon="10.5796166"><ele>96.25</ele><time>2026-03-29T10:38:17.278Z</time></trkpt><trkpt lat="45.4043437" lon="10.5794803"><ele>96.5</ele><time>2026-03-29T10:38:18.279Z</time></trkpt><trkpt lat="45.4043931" lon="10.5793429"><ele>96.75</ele><time>2026-03-29T10:38:19.278Z</time></trkpt><trkpt lat="45.4044439" lon="10.5791945"><ele>97.0</ele><time>2026-03-29T10:38:20.278Z</time></trkpt><trkpt lat="45.4045089" lon="10.5790268"><ele>97.0</ele><time>2026-03-29T10:38:21.278Z</time></trkpt><trkpt lat="45.4045801" lon="10.5788426"><ele>97.0</ele><time>2026-03-29T10:38:22.279Z</time></trkpt><trkpt lat="45.4046626" lon="10.578647"><ele>97.0</ele><time>2026-03-29T10:38:23.278Z</time></trkpt><trkpt lat="45.4047565" lon="10.578439"><ele>96.33333333333334</ele><time>2026-03-29T10:38:24.278Z</time></trkpt><trkpt lat="45.4048575" lon="10.5782376"><ele>95.66666666666667</ele><time>2026-03-29T10:38:25.279Z</time></trkpt><trkpt lat="45.4049675" lon="10.5780308"><ele>95.0</ele><time>2026-03-29T10:38:26.278Z</time></trkpt><trkpt lat="45.4050703" lon="10.5778265"><ele>95.0</ele><time>2026-03-29T10:38:27.278Z</time></trkpt><trkpt lat="45.405156" lon="10.577631"><ele>95.0</ele><time>2026-03-29T10:38:28.278Z</time></trkpt><trkpt lat="45.4052257" lon="10.577452"><ele>95.0</ele><time>2026-03-29T10:38:29.279Z</time></trkpt><trkpt lat="45.4052884" lon="10.5772767"><ele>95.0</ele><time>2026-03-29T10:38:30.278Z</time></trkpt><trkpt lat="45.4053401" lon="10.5771076"><ele>95.2</ele><time>2026-03-29T10:38:31.279Z</time></trkpt><trkpt lat="45.405383" lon="10.5769489"><ele>95.4</ele><time>2026-03-29T10:38:32.278Z</time></trkpt><trkpt lat="45.4054206" lon="10.5768079"><ele>95.6</ele><time>2026-03-29T10:38:33.279Z</time></trkpt><trkpt lat="45.4054533" lon="10.5766917"><ele>95.8</ele><time>2026-03-29T10:38:34.279Z</time></trkpt><trkpt lat="45.405479" lon="10.5765855"><ele>96.0</ele><time>2026-03-29T10:38:35.279Z</time></trkpt><trkpt lat="45.4054498" lon="10.576419"><ele>96.0</ele><time>2026-03-29T10:38:37.278Z</time></trkpt><trkpt lat="45.4053581" lon="10.5763645"><ele>96.0</ele><time>2026-03-29T10:38:38.278Z</time></trkpt><trkpt lat="45.4052327" lon="10.5763043"><ele>96.0</ele><time>2026-03-29T10:38:39.278Z</time></trkpt><trkpt lat="45.4050859" lon="10.5762388"><ele>96.0</ele><time>2026-03-29T10:38:40.278Z</time></trkpt><trkpt lat="45.4049347" lon="10.5761651"><ele>96.33333333333334</ele><time>2026-03-29T10:38:41.278Z</time></trkpt><trkpt lat="45.4047896" lon="10.576097"><ele>96.66666666666667</ele><time>2026-03-29T10:38:42.278Z</time></trkpt><trkpt lat="45.4046473" lon="10.5760247"><ele>97.0</ele><time>2026-03-29T10:38:43.278Z</time></trkpt><trkpt lat="45.4045088" lon="10.5759423"><ele>97.0</ele><time>2026-03-29T10:38:44.278Z</time></trkpt><trkpt lat="45.4043708" lon="10.575866"><ele>97.0</ele><time>2026-03-29T10:38:45.278Z</time></trkpt><trkpt lat="45.404246" lon="10.5757889"><ele>97.0</ele><time>2026-03-29T10:38:46.279Z</time></trkpt><trkpt lat="45.4041287" lon="10.5757122"><ele>97.0</ele><time>2026-03-29T10:38:47.278Z</time></trkpt><trkpt lat="45.4040117" lon="10.5756445"><ele>97.0</ele><time>2026-03-29T10:38:48.279Z</time></trkpt><trkpt lat="45.4038992" lon="10.5755745"><ele>97.0</ele><time>2026-03-29T10:38:49.279Z</time></trkpt><trkpt lat="45.4037907" lon="10.5755141"><ele>97.0</ele><time>2026-03-29T10:38:50.278Z</time></trkpt><trkpt lat="45.403689" lon="10.5754564"><ele>97.0</ele><time>2026-03-29T10:38:51.278Z</time></trkpt><trkpt lat="45.403592" lon="10.575399"><ele>97.19999999999999</ele><time>2026-03-29T10:38:52.278Z</time></trkpt><trkpt lat="45.4034994" lon="10.5753448"><ele>97.4</ele><time>2026-03-29T10:38:53.279Z</time></trkpt><trkpt lat="45.4034118" lon="10.5752875"><ele>97.6</ele><time>2026-03-29T10:38:54.278Z</time></trkpt><trkpt lat="45.4033236" lon="10.5752331"><ele>97.80000000000001</ele><time>2026-03-29T10:38:55.278Z</time></trkpt><trkpt lat="45.4032319" lon="10.57518"><ele>98.0</ele><time>2026-03-29T10:38:56.279Z</time></trkpt><trkpt lat="45.4031566" lon="10.5751204"><ele>97.99999999999999</ele><time>2026-03-29T10:38:57.279Z</time></trkpt><trkpt lat="45.4030865" lon="10.5750729"><ele>98.0</ele><time>2026-03-29T10:38:58.278Z</time></trkpt><trkpt lat="45.4030197" lon="10.5750329"><ele>98.0</ele><time>2026-03-29T10:38:59.278Z</time></trkpt><trkpt lat="45.4029595" lon="10.5749993"><ele>98.0</ele><time>2026-03-29T10:39:00.279Z</time></trkpt><trkpt lat="45.402867" lon="10.5749636"><ele>97.99999999999999</ele><time>2026-03-29T10:39:02.279Z</time></trkpt><trkpt lat="45.40278" lon="10.5749507"><ele>98.0</ele><time>2026-03-29T10:39:05.279Z</time></trkpt><trkpt lat="45.4026765" lon="10.5748995"><ele>98.0</ele><time>2026-03-29T10:39:07.278Z</time></trkpt><trkpt lat="45.4025855" lon="10.5748566"><ele>98.0</ele><time>2026-03-29T10:39:08.279Z</time></trkpt><trkpt lat="45.4024849" lon="10.5748096"><ele>98.0</ele><time>2026-03-29T10:39:09.278Z</time></trkpt><trkpt lat="45.4024066" lon="10.5747487"><ele>98.0</ele><time>2026-03-29T10:39:10.279Z</time></trkpt><trkpt lat="45.4023505" lon="10.5746951"><ele>98.0</ele><time>2026-03-29T10:39:11.278Z</time></trkpt><trkpt lat="45.4022718" lon="10.5745954"><ele>98.0</ele><time>2026-03-29T10:39:13.278Z</time></trkpt><trkpt lat="45.4022131" lon="10.5745243"><ele>98.0</ele><time>2026-03-29T10:39:14.278Z</time></trkpt><trkpt lat="45.4021358" lon="10.5744328"><ele>98.0</ele><time>2026-03-29T10:39:15.279Z</time></trkpt><trkpt lat="45.4020271" lon="10.5742889"><ele>98.0</ele><time>2026-03-29T10:39:16.278Z</time></trkpt><trkpt lat="45.4018931" lon="10.5740935"><ele>98.0</ele><time>2026-03-29T10:39:17.279Z</time></trkpt><trkpt lat="45.4017625" lon="10.5738812"><ele>98.0</ele><time>2026-03-29T10:39:18.278Z</time></trkpt><trkpt lat="45.401631" lon="10.5736783"><ele>98.0</ele><time>2026-03-29T10:39:19.278Z</time></trkpt><trkpt lat="45.4015212" lon="10.5734937"><ele>97.75</ele><time>2026-03-29T10:39:20.279Z</time></trkpt><trkpt lat="45.4014244" lon="10.5733299"><ele>97.5</ele><time>2026-03-29T10:39:21.279Z</time></trkpt><trkpt lat="45.4013327" lon="10.5731902"><ele>97.25</ele><time>2026-03-29T10:39:22.279Z</time></trkpt><trkpt lat="45.4012499" lon="10.5730742"><ele>97.0</ele><time>2026-03-29T10:39:23.279Z</time></trkpt><trkpt lat="45.4011765" lon="10.5729692"><ele>97.00000000000001</ele><time>2026-03-29T10:39:24.278Z</time></trkpt><trkpt lat="45.401112" lon="10.5728753"><ele>97.0</ele><time>2026-03-29T10:39:25.279Z</time></trkpt><trkpt lat="45.4010476" lon="10.5727852"><ele>97.0</ele><time>2026-03-29T10:39:26.278Z</time></trkpt><trkpt lat="45.4009868" lon="10.5727027"><ele>97.0</ele><time>2026-03-29T10:39:27.278Z</time></trkpt><trkpt lat="45.400938" lon="10.5726083"><ele>97.00000000000001</ele><time>2026-03-29T10:39:28.279Z</time></trkpt><trkpt lat="45.4009026" lon="10.5725153"><ele>97.0</ele><time>2026-03-29T10:39:29.279Z</time></trkpt><trkpt lat="45.4008799" lon="10.5724164"><ele>97.6</ele><time>2026-03-29T10:39:30.279Z</time></trkpt><trkpt lat="45.4008742" lon="10.5723062"><ele>98.19999999999999</ele><time>2026-03-29T10:39:31.279Z</time></trkpt><trkpt lat="45.4008857" lon="10.5721929"><ele>98.8</ele><time>2026-03-29T10:39:32.279Z</time></trkpt><trkpt lat="45.4009128" lon="10.5720586"><ele>99.4</ele><time>2026-03-29T10:39:33.278Z</time></trkpt><trkpt lat="45.4009382" lon="10.5719086"><ele>100.0</ele><time>2026-03-29T10:39:34.278Z</time></trkpt><trkpt lat="45.4009417" lon="10.571751"><ele>101.16666666666667</ele><time>2026-03-29T10:39:35.278Z</time></trkpt><trkpt lat="45.4009116" lon="10.571623"><ele>102.33333333333334</ele><time>2026-03-29T10:39:36.279Z</time></trkpt><trkpt lat="45.4008767" lon="10.5715097"><ele>103.5</ele><time>2026-03-29T10:39:37.279Z</time></trkpt><trkpt lat="45.4008379" lon="10.5714286"><ele>104.66666666666666</ele><time>2026-03-29T10:39:38.278Z</time></trkpt><trkpt lat="45.4007935" lon="10.5713589"><ele>105.83333333333333</ele><time>2026-03-29T10:39:39.279Z</time></trkpt><trkpt lat="45.4007145" lon="10.5712493"><ele>107.0</ele><time>2026-03-29T10:39:41.279Z</time></trkpt><trkpt lat="45.4006675" lon="10.5711792"><ele>107.0</ele><time>2026-03-29T10:39:44.279Z</time></trkpt><trkpt lat="45.4006846" lon="10.5712937"><ele>106.99999999999999</ele><time>2026-03-29T10:39:54.278Z</time></trkpt><trkpt lat="45.4007323" lon="10.57136"><ele>106.99999999999999</ele><time>2026-03-29T10:39:55.279Z</time></trkpt><trkpt lat="45.4007984" lon="10.5714521"><ele>107.0</ele><time>2026-03-29T10:39:56.278Z</time></trkpt><trkpt lat="45.4008661" lon="10.5715673"><ele>107.0</ele><time>2026-03-29T10:39:57.278Z</time></trkpt><trkpt lat="45.4009133" lon="10.5717102"><ele>106.99999999999999</ele><time>2026-03-29T10:39:58.279Z</time></trkpt><trkpt lat="45.4009422" lon="10.5718493"><ele>107.0</ele><time>2026-03-29T10:39:59.279Z</time></trkpt><trkpt lat="45.4009555" lon="10.5719732"><ele>107.0</ele><time>2026-03-29T10:40:00.278Z</time></trkpt><trkpt lat="45.400951" lon="10.5720758"><ele>107.0</ele><time>2026-03-29T10:40:01.278Z</time></trkpt><trkpt lat="45.4009353" lon="10.5721927"><ele>106.99999999999999</ele><time>2026-03-29T10:40:03.278Z</time></trkpt><trkpt lat="45.4009936" lon="10.572239"><ele>107.0</ele><time>2026-03-29T10:40:06.278Z</time></trkpt><trkpt lat="45.4010901" lon="10.57215"><ele>107.00000000000001</ele><time>2026-03-29T10:40:08.278Z</time></trkpt><trkpt lat="45.4011459" lon="10.5720869"><ele>107.0</ele><time>2026-03-29T10:40:09.279Z</time></trkpt><trkpt lat="45.4012051" lon="10.5720105"><ele>107.0</ele><time>2026-03-29T10:40:10.279Z</time></trkpt><trkpt lat="45.4012583" lon="10.5719444"><ele>107.0</ele><time>2026-03-29T10:40:11.278Z</time></trkpt><trkpt lat="45.4013094" lon="10.5718751"><ele>107.0</ele><time>2026-03-29T10:40:12.278Z</time></trkpt><trkpt lat="45.4013623" lon="10.5718099"><ele>107.00000000000001</ele><time>2026-03-29T10:40:13.278Z</time></trkpt><trkpt lat="45.401418" lon="10.5717484"><ele>107.0</ele><time>2026-03-29T10:40:14.278Z</time></trkpt><trkpt lat="45.4014758" lon="10.571694"><ele>105.8</ele><time>2026-03-29T10:40:15.279Z</time></trkpt><trkpt lat="45.4015283" lon="10.5716371"><ele>104.6</ele><time>2026-03-29T10:40:16.279Z</time></trkpt><trkpt lat="45.4015849" lon="10.5715815"><ele>103.39999999999999</ele><time>2026-03-29T10:40:17.279Z</time></trkpt><trkpt lat="45.4016519" lon="10.5715029"><ele>102.19999999999999</ele><time>2026-03-29T10:40:18.279Z</time></trkpt><trkpt lat="45.4017427" lon="10.5714025"><ele>101.0</ele><time>2026-03-29T10:40:19.278Z</time></trkpt><trkpt lat="45.4018513" lon="10.5712816"><ele>101.33333333333333</ele><time>2026-03-29T10:40:20.279Z</time></trkpt><trkpt lat="45.4019779" lon="10.571141"><ele>101.66666666666666</ele><time>2026-03-29T10:40:21.278Z</time></trkpt><trkpt lat="45.4021149" lon="10.5709747"><ele>102.0</ele><time>2026-03-29T10:40:22.278Z</time></trkpt><trkpt lat="45.4022564" lon="10.570804"><ele>101.33333333333334</ele><time>2026-03-29T10:40:23.278Z</time></trkpt><trkpt lat="45.402399" lon="10.5706333"><ele>100.66666666666667</ele><time>2026-03-29T10:40:24.278Z</time></trkpt><trkpt lat="45.4025379" lon="10.5704628"><ele>100.0</ele><time>2026-03-29T10:40:25.279Z</time></trkpt><trkpt lat="45.4026809" lon="10.5702973"><ele>100.0</ele><time>2026-03-29T10:40:26.279Z</time></trkpt><trkpt lat="45.4028166" lon="10.5701343"><ele>100.0</ele><time>2026-03-29T10:40:27.279Z</time></trkpt><trkpt lat="45.4029509" lon="10.5699662"><ele>100.0</ele><time>2026-03-29T10:40:28.278Z</time></trkpt><trkpt lat="45.4030873" lon="10.5698066"><ele>99.0</ele><time>2026-03-29T10:40:29.279Z</time></trkpt><trkpt lat="45.4032176" lon="10.5696605"><ele>98.0</ele><time>2026-03-29T10:40:30.279Z</time></trkpt><trkpt lat="45.403351" lon="10.5695021"><ele>97.0</ele><time>2026-03-29T10:40:31.277Z</time></trkpt><trkpt lat="45.4034892" lon="10.5693391"><ele>97.0</ele><time>2026-03-29T10:40:32.277Z</time></trkpt><trkpt lat="45.4036313" lon="10.5691836"><ele>97.0</ele><time>2026-03-29T10:40:33.277Z</time></trkpt><trkpt lat="45.4037728" lon="10.569029"><ele>97.0</ele><time>2026-03-29T10:40:34.278Z</time></trkpt><trkpt lat="45.403906" lon="10.5688792"><ele>97.33333333333334</ele><time>2026-03-29T10:40:35.278Z</time></trkpt><trkpt lat="45.4040315" lon="10.5687384"><ele>97.66666666666666</ele><time>2026-03-29T10:40:36.277Z</time></trkpt><trkpt lat="45.4041455" lon="10.5686013"><ele>98.0</ele><time>2026-03-29T10:40:37.277Z</time></trkpt><trkpt lat="45.404264" lon="10.5684534"><ele>98.0</ele><time>2026-03-29T10:40:38.278Z</time></trkpt><trkpt lat="45.4043772" lon="10.5683071"><ele>98.0</ele><time>2026-03-29T10:40:39.278Z</time></trkpt><trkpt lat="45.4044819" lon="10.5681574"><ele>98.0</ele><time>2026-03-29T10:40:40.277Z</time></trkpt><trkpt lat="45.404575" lon="10.5680069"><ele>98.0</ele><time>2026-03-29T10:40:41.277Z</time></trkpt><trkpt lat="45.4046716" lon="10.5678598"><ele>97.0</ele><time>2026-03-29T10:40:42.278Z</time></trkpt><trkpt lat="45.4047763" lon="10.5676928"><ele>96.0</ele><time>2026-03-29T10:40:43.277Z</time></trkpt><trkpt lat="45.4048808" lon="10.5675078"><ele>95.0</ele><time>2026-03-29T10:40:44.277Z</time></trkpt><trkpt lat="45.4049827" lon="10.5673183"><ele>95.0</ele><time>2026-03-29T10:40:45.278Z</time></trkpt><trkpt lat="45.4050847" lon="10.5671403"><ele>95.0</ele><time>2026-03-29T10:40:46.278Z</time></trkpt><trkpt lat="45.4051856" lon="10.5669591"><ele>95.0</ele><time>2026-03-29T10:40:47.277Z</time></trkpt><trkpt lat="45.4052925" lon="10.5667758"><ele>95.33333333333334</ele><time>2026-03-29T10:40:48.278Z</time></trkpt><trkpt lat="45.4054012" lon="10.5665753"><ele>95.66666666666667</ele><time>2026-03-29T10:40:49.278Z</time></trkpt><trkpt lat="45.4055108" lon="10.5663734"><ele>96.0</ele><time>2026-03-29T10:40:50.277Z</time></trkpt><trkpt lat="45.405615" lon="10.5661828"><ele>96.0</ele><time>2026-03-29T10:40:51.278Z</time></trkpt><trkpt lat="45.4057117" lon="10.5660097"><ele>96.0</ele><time>2026-03-29T10:40:52.277Z</time></trkpt><trkpt lat="45.4058086" lon="10.5658478"><ele>96.0</ele><time>2026-03-29T10:40:53.277Z</time></trkpt><trkpt lat="45.4059042" lon="10.5657071"><ele>96.0</ele><time>2026-03-29T10:40:54.277Z</time></trkpt><trkpt lat="45.4059869" lon="10.5655798"><ele>96.0</ele><time>2026-03-29T10:40:55.278Z</time></trkpt><trkpt lat="45.4060615" lon="10.5654675"><ele>96.0</ele><time>2026-03-29T10:40:56.278Z</time></trkpt><trkpt lat="45.4061189" lon="10.5653658"><ele>96.0</ele><time>2026-03-29T10:40:57.278Z</time></trkpt><trkpt lat="45.406162" lon="10.56529"><ele>96.0</ele><time>2026-03-29T10:40:58.277Z</time></trkpt><trkpt lat="45.4062025" lon="10.56514"><ele>96.0</ele><time>2026-03-29T10:41:00.278Z</time></trkpt><trkpt lat="45.4061753" lon="10.565042"><ele>96.16666666666667</ele><time>2026-03-29T10:41:01.278Z</time></trkpt><trkpt lat="45.406138" lon="10.5649356"><ele>96.33333333333334</ele><time>2026-03-29T10:41:02.278Z</time></trkpt><trkpt lat="45.4061008" lon="10.564831"><ele>96.5</ele><time>2026-03-29T10:41:03.278Z</time></trkpt><trkpt lat="45.4060773" lon="10.5647383"><ele>96.66666666666667</ele><time>2026-03-29T10:41:04.277Z</time></trkpt><trkpt lat="45.4060652" lon="10.5646472"><ele>96.83333333333334</ele><time>2026-03-29T10:41:05.278Z</time></trkpt><trkpt lat="45.4061139" lon="10.564514"><ele>97.0</ele><time>2026-03-29T10:41:07.278Z</time></trkpt><trkpt lat="45.4061821" lon="10.5644668"><ele>97.0</ele><time>2026-03-29T10:41:08.277Z</time></trkpt><trkpt lat="45.4062691" lon="10.5644235"><ele>97.0</ele><time>2026-03-29T10:41:09.277Z</time></trkpt><trkpt lat="45.4063832" lon="10.5643431"><ele>97.0</ele><time>2026-03-29T10:41:10.277Z</time></trkpt><trkpt lat="45.4065096" lon="10.5642495"><ele>97.0</ele><time>2026-03-29T10:41:11.277Z</time></trkpt><trkpt lat="45.4066495" lon="10.5641476"><ele>97.0</ele><time>2026-03-29T10:41:12.278Z</time></trkpt><trkpt lat="45.406799" lon="10.5640284"><ele>97.0</ele><time>2026-03-29T10:41:13.278Z</time></trkpt><trkpt lat="45.4069422" lon="10.5639151"><ele>97.0</ele><time>2026-03-29T10:41:14.278Z</time></trkpt><trkpt lat="45.4070913" lon="10.5637946"><ele>97.33333333333334</ele><time>2026-03-29T10:41:15.277Z</time></trkpt><trkpt lat="45.4072464" lon="10.5636854"><ele>97.66666666666666</ele><time>2026-03-29T10:41:16.278Z</time></trkpt><trkpt lat="45.4073972" lon="10.5635874"><ele>98.0</ele><time>2026-03-29T10:41:17.277Z</time></trkpt><trkpt lat="45.4075485" lon="10.5634856"><ele>98.0</ele><time>2026-03-29T10:41:18.277Z</time></trkpt><trkpt lat="45.4076923" lon="10.5633827"><ele>98.0</ele><time>2026-03-29T10:41:19.277Z</time></trkpt><trkpt lat="45.4078392" lon="10.5632936"><ele>98.0</ele><time>2026-03-29T10:41:20.278Z</time></trkpt><trkpt lat="45.407985" lon="10.5632215"><ele>97.66666666666666</ele><time>2026-03-29T10:41:21.278Z</time></trkpt><trkpt lat="45.4081492" lon="10.5631543"><ele>97.33333333333334</ele><time>2026-03-29T10:41:22.278Z</time></trkpt><trkpt lat="45.4083192" lon="10.5630729"><ele>97.0</ele><time>2026-03-29T10:41:23.277Z</time></trkpt><trkpt lat="45.4084897" lon="10.5629979"><ele>97.0</ele><time>2026-03-29T10:41:24.277Z</time></trkpt><trkpt lat="45.4086514" lon="10.5629268"><ele>97.0</ele><time>2026-03-29T10:41:25.278Z</time></trkpt><trkpt lat="45.4088058" lon="10.5628596"><ele>97.0</ele><time>2026-03-29T10:41:26.277Z</time></trkpt><trkpt lat="45.4089653" lon="10.5627985"><ele>96.66666666666667</ele><time>2026-03-29T10:41:27.277Z</time></trkpt><trkpt lat="45.4091273" lon="10.5627384"><ele>96.33333333333334</ele><time>2026-03-29T10:41:28.278Z</time></trkpt><trkpt lat="45.4092896" lon="10.5626741"><ele>96.0</ele><time>2026-03-29T10:41:29.277Z</time></trkpt><trkpt lat="45.4094415" lon="10.5626124"><ele>96.0</ele><time>2026-03-29T10:41:30.278Z</time></trkpt><trkpt lat="45.4095826" lon="10.562561"><ele>96.0</ele><time>2026-03-29T10:41:31.277Z</time></trkpt><trkpt lat="45.409708" lon="10.5625052"><ele>96.0</ele><time>2026-03-29T10:41:32.277Z</time></trkpt><trkpt lat="45.4098171" lon="10.5624491"><ele>96.0</ele><time>2026-03-29T10:41:33.278Z</time></trkpt><trkpt lat="45.4099193" lon="10.5623868"><ele>96.0</ele><time>2026-03-29T10:41:34.277Z</time></trkpt><trkpt lat="45.4100227" lon="10.5623308"><ele>96.0</ele><time>2026-03-29T10:41:35.278Z</time></trkpt><trkpt lat="45.41013" lon="10.5622875"><ele>96.0</ele><time>2026-03-29T10:41:36.277Z</time></trkpt><trkpt lat="45.4102471" lon="10.5622477"><ele>96.0</ele><time>2026-03-29T10:41:37.277Z</time></trkpt><trkpt lat="45.4103697" lon="10.5622293"><ele>96.0</ele><time>2026-03-29T10:41:38.277Z</time></trkpt><trkpt lat="45.4104869" lon="10.562241"><ele>96.0</ele><time>2026-03-29T10:41:39.278Z</time></trkpt><trkpt lat="45.4106058" lon="10.5622727"><ele>96.0</ele><time>2026-03-29T10:41:40.277Z</time></trkpt><trkpt lat="45.4107319" lon="10.5623281"><ele>96.0</ele><time>2026-03-29T10:41:41.277Z</time></trkpt><trkpt lat="45.4108678" lon="10.5623909"><ele>97.0</ele><time>2026-03-29T10:41:42.277Z</time></trkpt><trkpt lat="45.4110209" lon="10.5624455"><ele>98.0</ele><time>2026-03-29T10:41:43.278Z</time></trkpt><trkpt lat="45.411172" lon="10.5625028"><ele>99.0</ele><time>2026-03-29T10:41:44.278Z</time></trkpt><trkpt lat="45.4113186" lon="10.5625759"><ele>98.66666666666666</ele><time>2026-03-29T10:41:45.277Z</time></trkpt><trkpt lat="45.4114546" lon="10.562663"><ele>98.33333333333333</ele><time>2026-03-29T10:41:46.278Z</time></trkpt><trkpt lat="45.4115898" lon="10.5627731"><ele>98.0</ele><time>2026-03-29T10:41:47.277Z</time></trkpt><trkpt lat="45.4117268" lon="10.5628949"><ele>98.0</ele><time>2026-03-29T10:41:48.278Z</time></trkpt><trkpt lat="45.4118609" lon="10.5630236"><ele>98.0</ele><time>2026-03-29T10:41:49.277Z</time></trkpt><trkpt lat="45.412002" lon="10.5631553"><ele>98.0</ele><time>2026-03-29T10:41:50.277Z</time></trkpt><trkpt lat="45.4121384" lon="10.5632828"><ele>98.66666666666666</ele><time>2026-03-29T10:41:51.278Z</time></trkpt><trkpt lat="45.4122753" lon="10.5633971"><ele>99.33333333333334</ele><time>2026-03-29T10:41:52.278Z</time></trkpt><trkpt lat="45.4124066" lon="10.5635251"><ele>100.0</ele><time>2026-03-29T10:41:53.277Z</time></trkpt><trkpt lat="45.4125217" lon="10.5636479"><ele>99.25</ele><time>2026-03-29T10:41:54.278Z</time></trkpt><trkpt lat="45.4126188" lon="10.5637732"><ele>98.5</ele><time>2026-03-29T10:41:55.278Z</time></trkpt><trkpt lat="45.4127157" lon="10.5638939"><ele>97.75</ele><time>2026-03-29T10:41:56.277Z</time></trkpt><trkpt lat="45.4128047" lon="10.5640194"><ele>97.0</ele><time>2026-03-29T10:41:57.278Z</time></trkpt><trkpt lat="45.4128885" lon="10.5641468"><ele>97.0</ele><time>2026-03-29T10:41:58.277Z</time></trkpt><trkpt lat="45.412982" lon="10.5642532"><ele>97.0</ele><time>2026-03-29T10:41:59.277Z</time></trkpt><trkpt lat="45.4130909" lon="10.5643478"><ele>97.0</ele><time>2026-03-29T10:42:00.278Z</time></trkpt><trkpt lat="45.4132094" lon="10.5644319"><ele>97.0</ele><time>2026-03-29T10:42:01.277Z</time></trkpt><trkpt lat="45.4133248" lon="10.5645074"><ele>97.19999999999999</ele><time>2026-03-29T10:42:02.277Z</time></trkpt><trkpt lat="45.4134329" lon="10.5645731"><ele>97.4</ele><time>2026-03-29T10:42:03.278Z</time></trkpt><trkpt lat="45.4135319" lon="10.564632"><ele>97.6</ele><time>2026-03-29T10:42:04.277Z</time></trkpt><trkpt lat="45.413625" lon="10.5646764"><ele>97.80000000000001</ele><time>2026-03-29T10:42:05.278Z</time></trkpt><trkpt lat="45.4137095" lon="10.564699"><ele>98.0</ele><time>2026-03-29T10:42:06.278Z</time></trkpt><trkpt lat="45.4137888" lon="10.5647184"><ele>98.4</ele><time>2026-03-29T10:42:07.278Z</time></trkpt><trkpt lat="45.4138696" lon="10.5647173"><ele>98.80000000000001</ele><time>2026-03-29T10:42:08.277Z</time></trkpt><trkpt lat="45.4139447" lon="10.5646971"><ele>99.2</ele><time>2026-03-29T10:42:09.278Z</time></trkpt><trkpt lat="45.4140354" lon="10.564631"><ele>99.6</ele><time>2026-03-29T10:42:10.278Z</time></trkpt><trkpt lat="45.4141441" lon="10.5645322"><ele>100.0</ele><time>2026-03-29T10:42:11.278Z</time></trkpt><trkpt lat="45.4142723" lon="10.5644277"><ele>100.0</ele><time>2026-03-29T10:42:12.277Z</time></trkpt><trkpt lat="45.4144267" lon="10.5643373"><ele>100.0</ele><time>2026-03-29T10:42:13.278Z</time></trkpt><trkpt lat="45.4145854" lon="10.5642521"><ele>100.0</ele><time>2026-03-29T10:42:14.278Z</time></trkpt><trkpt lat="45.4147499" lon="10.5641668"><ele>101.66666666666667</ele><time>2026-03-29T10:42:15.277Z</time></trkpt><trkpt lat="45.4149135" lon="10.5641031"><ele>103.33333333333334</ele><time>2026-03-29T10:42:16.278Z</time></trkpt><trkpt lat="45.41508" lon="10.5640533"><ele>105.0</ele><time>2026-03-29T10:42:17.278Z</time></trkpt><trkpt lat="45.415258" lon="10.5640161"><ele>105.0</ele><time>2026-03-29T10:42:18.278Z</time></trkpt><trkpt lat="45.4154401" lon="10.5640024"><ele>105.0</ele><time>2026-03-29T10:42:19.278Z</time></trkpt><trkpt lat="45.4156152" lon="10.5639703"><ele>105.0</ele><time>2026-03-29T10:42:20.278Z</time></trkpt><trkpt lat="45.4157816" lon="10.5639105"><ele>105.33333333333334</ele><time>2026-03-29T10:42:21.278Z</time></trkpt><trkpt lat="45.4159478" lon="10.5638252"><ele>105.66666666666667</ele><time>2026-03-29T10:42:22.277Z</time></trkpt><trkpt lat="45.4161017" lon="10.5637258"><ele>106.0</ele><time>2026-03-29T10:42:23.278Z</time></trkpt><trkpt lat="45.4162424" lon="10.5636431"><ele>106.4</ele><time>2026-03-29T10:42:24.278Z</time></trkpt><trkpt lat="45.416364" lon="10.5635737"><ele>106.8</ele><time>2026-03-29T10:42:25.278Z</time></trkpt><trkpt lat="45.4164671" lon="10.5635162"><ele>107.20000000000002</ele><time>2026-03-29T10:42:26.278Z</time></trkpt><trkpt lat="45.4165472" lon="10.5634847"><ele>107.60000000000001</ele><time>2026-03-29T10:42:27.278Z</time></trkpt><trkpt lat="45.4166106" lon="10.5634532"><ele>108.0</ele><time>2026-03-29T10:42:28.278Z</time></trkpt><trkpt lat="45.4166859" lon="10.5633713"><ele>108.0</ele><time>2026-03-29T10:42:30.278Z</time></trkpt><trkpt lat="45.4167408" lon="10.563254"><ele>108.00000000000001</ele><time>2026-03-29T10:42:54.277Z</time></trkpt><trkpt lat="45.4167999" lon="10.5631953"><ele>108.00000000000001</ele><time>2026-03-29T10:42:55.277Z</time></trkpt><trkpt lat="45.4168792" lon="10.5631269"><ele>108.0</ele><time>2026-03-29T10:42:56.278Z</time></trkpt><trkpt lat="45.4169772" lon="10.5630502"><ele>108.0</ele><time>2026-03-29T10:42:57.277Z</time></trkpt><trkpt lat="45.417096" lon="10.5629795"><ele>108.0</ele><time>2026-03-29T10:42:58.278Z</time></trkpt><trkpt lat="45.4172255" lon="10.5629265"><ele>108.0</ele><time>2026-03-29T10:42:59.277Z</time></trkpt><trkpt lat="45.4173571" lon="10.5628826"><ele>108.0</ele><time>2026-03-29T10:43:00.278Z</time></trkpt><trkpt lat="45.4174865" lon="10.5628297"><ele>108.0</ele><time>2026-03-29T10:43:01.277Z</time></trkpt><trkpt lat="45.4176011" lon="10.5627673"><ele>108.0</ele><time>2026-03-29T10:43:02.277Z</time></trkpt><trkpt lat="45.4177104" lon="10.5626788"><ele>108.0</ele><time>2026-03-29T10:43:03.277Z</time></trkpt><trkpt lat="45.4178042" lon="10.5625663"><ele>108.0</ele><time>2026-03-29T10:43:04.277Z</time></trkpt><trkpt lat="45.417888" lon="10.5624288"><ele>108.0</ele><time>2026-03-29T10:43:05.278Z</time></trkpt><trkpt lat="45.4179671" lon="10.5622708"><ele>108.0</ele><time>2026-03-29T10:43:06.278Z</time></trkpt><trkpt lat="45.4180555" lon="10.5621082"><ele>108.0</ele><time>2026-03-29T10:43:07.277Z</time></trkpt><trkpt lat="45.4181636" lon="10.5619372"><ele>108.0</ele><time>2026-03-29T10:43:08.277Z</time></trkpt><trkpt lat="45.4182813" lon="10.5617648"><ele>108.0</ele><time>2026-03-29T10:43:09.277Z</time></trkpt><trkpt lat="45.4184101" lon="10.5615875"><ele>108.0</ele><time>2026-03-29T10:43:10.277Z</time></trkpt><trkpt lat="45.4185371" lon="10.5614081"><ele>108.0</ele><time>2026-03-29T10:43:11.277Z</time></trkpt><trkpt lat="45.4186572" lon="10.5612408"><ele>107.0</ele><time>2026-03-29T10:43:12.278Z</time></trkpt><trkpt lat="45.418777" lon="10.5610818"><ele>106.0</ele><time>2026-03-29T10:43:13.277Z</time></trkpt><trkpt lat="45.4188972" lon="10.5609375"><ele>105.0</ele><time>2026-03-29T10:43:14.277Z</time></trkpt><trkpt lat="45.4190139" lon="10.5608076"><ele>107.66666666666666</ele><time>2026-03-29T10:43:15.278Z</time></trkpt><trkpt lat="45.4191454" lon="10.5606729"><ele>110.33333333333333</ele><time>2026-03-29T10:43:16.278Z</time></trkpt><trkpt lat="45.4192825" lon="10.560552"><ele>113.0</ele><time>2026-03-29T10:43:17.278Z</time></trkpt><trkpt lat="45.4194348" lon="10.5604366"><ele>112.5</ele><time>2026-03-29T10:43:18.277Z</time></trkpt><trkpt lat="45.4195781" lon="10.5603381"><ele>112.0</ele><time>2026-03-29T10:43:19.278Z</time></trkpt><trkpt lat="45.419706" lon="10.560236"><ele>111.5</ele><time>2026-03-29T10:43:20.277Z</time></trkpt><trkpt lat="45.4198293" lon="10.5601349"><ele>111.0</ele><time>2026-03-29T10:43:21.278Z</time></trkpt><trkpt lat="45.4199501" lon="10.5600547"><ele>111.8</ele><time>2026-03-29T10:43:22.277Z</time></trkpt><trkpt lat="45.4200654" lon="10.5599971"><ele>112.6</ele><time>2026-03-29T10:43:23.277Z</time></trkpt><trkpt lat="45.4201753" lon="10.5599499"><ele>113.4</ele><time>2026-03-29T10:43:24.278Z</time></trkpt><trkpt lat="45.42027" lon="10.5599033"><ele>114.2</ele><time>2026-03-29T10:43:25.278Z</time></trkpt><trkpt lat="45.420358" lon="10.5598243"><ele>115.0</ele><time>2026-03-29T10:43:26.278Z</time></trkpt><trkpt lat="45.4204374" lon="10.5597204"><ele>115.0</ele><time>2026-03-29T10:43:27.277Z</time></trkpt><trkpt lat="45.4205245" lon="10.5595901"><ele>115.0</ele><time>2026-03-29T10:43:28.277Z</time></trkpt><trkpt lat="45.4206104" lon="10.5594352"><ele>115.0</ele><time>2026-03-29T10:43:29.277Z</time></trkpt><trkpt lat="45.4206987" lon="10.5592611"><ele>115.0</ele><time>2026-03-29T10:43:30.277Z</time></trkpt><trkpt lat="45.4207903" lon="10.5590668"><ele>115.0</ele><time>2026-03-29T10:43:31.277Z</time></trkpt><trkpt lat="45.420881" lon="10.5588816"><ele>115.0</ele><time>2026-03-29T10:43:32.278Z</time></trkpt><trkpt lat="45.4209758" lon="10.558706"><ele>115.0</ele><time>2026-03-29T10:43:33.277Z</time></trkpt><trkpt lat="45.4210736" lon="10.5585445"><ele>114.75</ele><time>2026-03-29T10:43:34.277Z</time></trkpt><trkpt lat="45.4211835" lon="10.5584112"><ele>114.5</ele><time>2026-03-29T10:43:35.277Z</time></trkpt><trkpt lat="45.4212961" lon="10.5582821"><ele>114.25</ele><time>2026-03-29T10:43:36.277Z</time></trkpt><trkpt lat="45.4213958" lon="10.5581444"><ele>114.0</ele><time>2026-03-29T10:43:37.277Z</time></trkpt><trkpt lat="45.4214839" lon="10.5579783"><ele>114.0</ele><time>2026-03-29T10:43:38.278Z</time></trkpt><trkpt lat="45.4215702" lon="10.557784"><ele>114.0</ele><time>2026-03-29T10:43:39.277Z</time></trkpt><trkpt lat="45.4216476" lon="10.5575905"><ele>114.0</ele><time>2026-03-29T10:43:40.277Z</time></trkpt><trkpt lat="45.421727" lon="10.5574215"><ele>114.0</ele><time>2026-03-29T10:43:41.277Z</time></trkpt><trkpt lat="45.421797" lon="10.5572495"><ele>114.0</ele><time>2026-03-29T10:43:42.278Z</time></trkpt><trkpt lat="45.4218525" lon="10.5570595"><ele>114.0</ele><time>2026-03-29T10:43:43.278Z</time></trkpt><trkpt lat="45.421906" lon="10.556857"><ele>114.0</ele><time>2026-03-29T10:43:44.277Z</time></trkpt><trkpt lat="45.4219574" lon="10.5566639"><ele>113.5</ele><time>2026-03-29T10:43:45.277Z</time></trkpt><trkpt lat="45.4220021" lon="10.5564634"><ele>113.0</ele><time>2026-03-29T10:43:46.278Z</time></trkpt><trkpt lat="45.4220329" lon="10.5562517"><ele>112.5</ele><time>2026-03-29T10:43:47.277Z</time></trkpt><trkpt lat="45.4220484" lon="10.556039"><ele>112.0</ele><time>2026-03-29T10:43:48.277Z</time></trkpt><trkpt lat="45.422063" lon="10.555836"><ele>111.5</ele><time>2026-03-29T10:43:49.277Z</time></trkpt><trkpt lat="45.4220814" lon="10.5556498"><ele>111.0</ele><time>2026-03-29T10:43:50.278Z</time></trkpt><trkpt lat="45.4221181" lon="10.5554908"><ele>110.5</ele><time>2026-03-29T10:43:51.278Z</time></trkpt><trkpt lat="45.4221707" lon="10.5553496"><ele>110.0</ele><time>2026-03-29T10:43:52.278Z</time></trkpt><trkpt lat="45.4222332" lon="10.5552241"><ele>110.8</ele><time>2026-03-29T10:43:53.277Z</time></trkpt><trkpt lat="45.4222975" lon="10.5551202"><ele>111.6</ele><time>2026-03-29T10:43:54.278Z</time></trkpt><trkpt lat="45.4223498" lon="10.5550426"><ele>112.4</ele><time>2026-03-29T10:43:55.278Z</time></trkpt><trkpt lat="45.4223858" lon="10.5549619"><ele>113.2</ele><time>2026-03-29T10:43:56.278Z</time></trkpt><trkpt lat="45.4223582" lon="10.5547922"><ele>114.0</ele><time>2026-03-29T10:43:58.277Z</time></trkpt><trkpt lat="45.4222704" lon="10.5546905"><ele>114.0</ele><time>2026-03-29T10:43:59.277Z</time></trkpt><trkpt lat="45.4221489" lon="10.5545796"><ele>114.0</ele><time>2026-03-29T10:44:00.277Z</time></trkpt><trkpt lat="45.4220314" lon="10.5544611"><ele>114.0</ele><time>2026-03-29T10:44:01.278Z</time></trkpt><trkpt lat="45.4219301" lon="10.5543285"><ele>114.0</ele><time>2026-03-29T10:44:02.278Z</time></trkpt><trkpt lat="45.4218509" lon="10.5541735"><ele>112.25</ele><time>2026-03-29T10:44:03.277Z</time></trkpt><trkpt lat="45.4217685" lon="10.5540418"><ele>110.5</ele><time>2026-03-29T10:44:04.278Z</time></trkpt><trkpt lat="45.4216651" lon="10.5539521"><ele>108.75</ele><time>2026-03-29T10:44:05.277Z</time></trkpt><trkpt lat="45.4215449" lon="10.5538803"><ele>107.0</ele><time>2026-03-29T10:44:06.278Z</time></trkpt><trkpt lat="45.4214127" lon="10.5538117"><ele>106.0</ele><time>2026-03-29T10:44:07.278Z</time></trkpt><trkpt lat="45.4212809" lon="10.5537278"><ele>105.0</ele><time>2026-03-29T10:44:08.278Z</time></trkpt><trkpt lat="45.4211583" lon="10.5536439"><ele>104.0</ele><time>2026-03-29T10:44:09.277Z</time></trkpt><trkpt lat="45.421042" lon="10.55357"><ele>103.0</ele><time>2026-03-29T10:44:10.278Z</time></trkpt><trkpt lat="45.4209345" lon="10.5534966"><ele>103.0</ele><time>2026-03-29T10:44:11.277Z</time></trkpt><trkpt lat="45.4208386" lon="10.5534268"><ele>103.0</ele><time>2026-03-29T10:44:12.278Z</time></trkpt><trkpt lat="45.4207686" lon="10.55336"><ele>103.0</ele><time>2026-03-29T10:44:13.278Z</time></trkpt><trkpt lat="45.4207253" lon="10.5532919"><ele>103.0</ele><time>2026-03-29T10:44:14.277Z</time></trkpt><trkpt lat="45.4207286" lon="10.5531184"><ele>103.0</ele><time>2026-03-29T10:44:16.278Z</time></trkpt><trkpt lat="45.4207787" lon="10.5529968"><ele>103.0</ele><time>2026-03-29T10:44:17.278Z</time></trkpt><trkpt lat="45.4208297" lon="10.5528847"><ele>103.0</ele><time>2026-03-29T10:44:18.278Z</time></trkpt><trkpt lat="45.4208716" lon="10.5527953"><ele>103.0</ele><time>2026-03-29T10:44:19.276Z</time></trkpt><trkpt lat="45.4209055" lon="10.5526626"><ele>103.0</ele><time>2026-03-29T10:44:21.276Z</time></trkpt><trkpt lat="45.4208143" lon="10.5526464"><ele>103.0</ele><time>2026-03-29T10:44:22.277Z</time></trkpt><trkpt lat="45.4207041" lon="10.5526043"><ele>102.75</ele><time>2026-03-29T10:44:23.276Z</time></trkpt><trkpt lat="45.4205709" lon="10.5525473"><ele>102.5</ele><time>2026-03-29T10:44:24.276Z</time></trkpt><trkpt lat="45.4204388" lon="10.5524803"><ele>102.25</ele><time>2026-03-29T10:44:25.276Z</time></trkpt><trkpt lat="45.4203084" lon="10.5523928"><ele>102.0</ele><time>2026-03-29T10:44:26.276Z</time></trkpt><trkpt lat="45.4201815" lon="10.5522834"><ele>101.33333333333334</ele><time>2026-03-29T10:44:27.276Z</time></trkpt><trkpt lat="45.4200674" lon="10.5521446"><ele>100.66666666666667</ele><time>2026-03-29T10:44:28.276Z</time></trkpt><trkpt lat="45.4199484" lon="10.5519957"><ele>100.0</ele><time>2026-03-29T10:44:29.277Z</time></trkpt><trkpt lat="45.4198333" lon="10.5518479"><ele>100.0</ele><time>2026-03-29T10:44:30.277Z</time></trkpt><trkpt lat="45.419722" lon="10.5516988"><ele>100.0</ele><time>2026-03-29T10:44:31.277Z</time></trkpt><trkpt lat="45.4196216" lon="10.5515448"><ele>100.0</ele><time>2026-03-29T10:44:32.276Z</time></trkpt><trkpt lat="45.4195325" lon="10.5513908"><ele>100.0</ele><time>2026-03-29T10:44:33.276Z</time></trkpt><trkpt lat="45.4194607" lon="10.5512342"><ele>100.25</ele><time>2026-03-29T10:44:34.277Z</time></trkpt><trkpt lat="45.4194068" lon="10.5510631"><ele>100.5</ele><time>2026-03-29T10:44:35.277Z</time></trkpt><trkpt lat="45.4193642" lon="10.5508863"><ele>100.75</ele><time>2026-03-29T10:44:36.276Z</time></trkpt><trkpt lat="45.4193243" lon="10.5506994"><ele>101.0</ele><time>2026-03-29T10:44:37.277Z</time></trkpt><trkpt lat="45.4192844" lon="10.550514"><ele>101.75</ele><time>2026-03-29T10:44:38.277Z</time></trkpt><trkpt lat="45.4192325" lon="10.5503299"><ele>102.5</ele><time>2026-03-29T10:44:39.277Z</time></trkpt><trkpt lat="45.4191769" lon="10.5501616"><ele>103.25</ele><time>2026-03-29T10:44:40.277Z</time></trkpt><trkpt lat="45.4191213" lon="10.550003"><ele>104.0</ele><time>2026-03-29T10:44:41.276Z</time></trkpt><trkpt lat="45.4190549" lon="10.5498659"><ele>104.0</ele><time>2026-03-29T10:44:42.276Z</time></trkpt><trkpt lat="45.4189808" lon="10.5497439"><ele>104.0</ele><time>2026-03-29T10:44:43.276Z</time></trkpt><trkpt lat="45.4189085" lon="10.5496228"><ele>104.0</ele><time>2026-03-29T10:44:44.276Z</time></trkpt><trkpt lat="45.4188316" lon="10.5494982"><ele>104.0</ele><time>2026-03-29T10:44:45.276Z</time></trkpt><trkpt lat="45.4187586" lon="10.5493777"><ele>104.83333333333333</ele><time>2026-03-29T10:44:46.276Z</time></trkpt><trkpt lat="45.4186982" lon="10.5492688"><ele>105.66666666666666</ele><time>2026-03-29T10:44:47.277Z</time></trkpt><trkpt lat="45.4186401" lon="10.5491772"><ele>106.5</ele><time>2026-03-29T10:44:48.277Z</time></trkpt><trkpt lat="45.4185755" lon="10.5491061"><ele>107.33333333333334</ele><time>2026-03-29T10:44:49.276Z</time></trkpt><trkpt lat="45.4185028" lon="10.5490731"><ele>108.16666666666667</ele><time>2026-03-29T10:44:50.276Z</time></trkpt><trkpt lat="45.4184256" lon="10.5490679"><ele>109.0</ele><time>2026-03-29T10:44:51.277Z</time></trkpt><trkpt lat="45.4183358" lon="10.5490955"><ele>109.00000000000001</ele><time>2026-03-29T10:44:52.276Z</time></trkpt><trkpt lat="45.4182386" lon="10.5491602"><ele>109.0</ele><time>2026-03-29T10:44:53.276Z</time></trkpt><trkpt lat="45.4181483" lon="10.5492127"><ele>109.0</ele><time>2026-03-29T10:44:54.277Z</time></trkpt><trkpt lat="45.4180657" lon="10.5492456"><ele>109.0</ele><time>2026-03-29T10:44:55.277Z</time></trkpt><trkpt lat="45.4179925" lon="10.5492488"><ele>109.00000000000001</ele><time>2026-03-29T10:44:56.276Z</time></trkpt><trkpt lat="45.4179295" lon="10.5492193"><ele>109.0</ele><time>2026-03-29T10:44:57.277Z</time></trkpt><trkpt lat="45.4178758" lon="10.5491493"><ele>108.75</ele><time>2026-03-29T10:44:58.277Z</time></trkpt><trkpt lat="45.4178287" lon="10.5490565"><ele>108.5</ele><time>2026-03-29T10:44:59.277Z</time></trkpt><trkpt lat="45.4177832" lon="10.5489291"><ele>108.25</ele><time>2026-03-29T10:45:00.276Z</time></trkpt><trkpt lat="45.4177338" lon="10.5487528"><ele>108.0</ele><time>2026-03-29T10:45:01.276Z</time></trkpt><trkpt lat="45.4176725" lon="10.5485645"><ele>108.0</ele><time>2026-03-29T10:45:02.277Z</time></trkpt><trkpt lat="45.4176067" lon="10.5483724"><ele>108.0</ele><time>2026-03-29T10:45:03.276Z</time></trkpt><trkpt lat="45.4175368" lon="10.5481869"><ele>108.0</ele><time>2026-03-29T10:45:04.277Z</time></trkpt><trkpt lat="45.4174686" lon="10.5479954"><ele>108.0</ele><time>2026-03-29T10:45:05.276Z</time></trkpt><trkpt lat="45.4174029" lon="10.5478022"><ele>107.66666666666666</ele><time>2026-03-29T10:45:06.276Z</time></trkpt><trkpt lat="45.4173296" lon="10.5476012"><ele>107.33333333333333</ele><time>2026-03-29T10:45:07.276Z</time></trkpt><trkpt lat="45.4172526" lon="10.5474116"><ele>107.0</ele><time>2026-03-29T10:45:08.276Z</time></trkpt><trkpt lat="45.4171824" lon="10.5472302"><ele>106.75</ele><time>2026-03-29T10:45:09.277Z</time></trkpt><trkpt lat="45.4171024" lon="10.5470478"><ele>106.5</ele><time>2026-03-29T10:45:10.276Z</time></trkpt><trkpt lat="45.4170178" lon="10.5468714"><ele>106.25</ele><time>2026-03-29T10:45:11.276Z</time></trkpt><trkpt lat="45.4169334" lon="10.5466981"><ele>106.0</ele><time>2026-03-29T10:45:12.276Z</time></trkpt><trkpt lat="45.4168401" lon="10.5465339"><ele>106.0</ele><time>2026-03-29T10:45:13.277Z</time></trkpt><trkpt lat="45.4167376" lon="10.5463675"><ele>106.0</ele><time>2026-03-29T10:45:14.277Z</time></trkpt><trkpt lat="45.4166207" lon="10.5462084"><ele>106.0</ele><time>2026-03-29T10:45:15.277Z</time></trkpt><trkpt lat="45.4164975" lon="10.5460559"><ele>106.33333333333334</ele><time>2026-03-29T10:45:16.277Z</time></trkpt><trkpt lat="45.4163689" lon="10.5459031"><ele>106.66666666666666</ele><time>2026-03-29T10:45:17.276Z</time></trkpt><trkpt lat="45.4162522" lon="10.5457493"><ele>107.0</ele><time>2026-03-29T10:45:18.277Z</time></trkpt><trkpt lat="45.416132" lon="10.5455971"><ele>107.75</ele><time>2026-03-29T10:45:19.277Z</time></trkpt><trkpt lat="45.416018" lon="10.5454456"><ele>108.5</ele><time>2026-03-29T10:45:20.276Z</time></trkpt><trkpt lat="45.4159197" lon="10.5453042"><ele>109.25</ele><time>2026-03-29T10:45:21.277Z</time></trkpt><trkpt lat="45.4158334" lon="10.5451578"><ele>110.0</ele><time>2026-03-29T10:45:22.276Z</time></trkpt><trkpt lat="45.4157459" lon="10.5449996"><ele>110.5</ele><time>2026-03-29T10:45:23.276Z</time></trkpt><trkpt lat="45.4156645" lon="10.5448543"><ele>111.0</ele><time>2026-03-29T10:45:24.277Z</time></trkpt><trkpt lat="45.4155963" lon="10.5447122"><ele>111.5</ele><time>2026-03-29T10:45:25.277Z</time></trkpt><trkpt lat="45.4155387" lon="10.5445883"><ele>112.0</ele><time>2026-03-29T10:45:26.277Z</time></trkpt><trkpt lat="45.4154803" lon="10.5444748"><ele>112.39999999999999</ele><time>2026-03-29T10:45:27.277Z</time></trkpt><trkpt lat="45.4154398" lon="10.5443869"><ele>112.79999999999998</ele><time>2026-03-29T10:45:28.276Z</time></trkpt><trkpt lat="45.4154117" lon="10.5442635"><ele>113.2</ele><time>2026-03-29T10:45:30.276Z</time></trkpt><trkpt lat="45.4155348" lon="10.5442281"><ele>113.6</ele><time>2026-03-29T10:45:33.277Z</time></trkpt><trkpt lat="45.4156361" lon="10.5442288"><ele>114.0</ele><time>2026-03-29T10:45:34.277Z</time></trkpt><trkpt lat="45.4157671" lon="10.5442094"><ele>114.0</ele><time>2026-03-29T10:45:35.277Z</time></trkpt><trkpt lat="45.4159138" lon="10.5441715"><ele>114.0</ele><time>2026-03-29T10:45:36.276Z</time></trkpt><trkpt lat="45.4160647" lon="10.5441302"><ele>114.0</ele><time>2026-03-29T10:45:37.276Z</time></trkpt><trkpt lat="45.4162144" lon="10.5440912"><ele>112.75</ele><time>2026-03-29T10:45:38.277Z</time></trkpt><trkpt lat="45.4163599" lon="10.544057"><ele>111.5</ele><time>2026-03-29T10:45:39.277Z</time></trkpt><trkpt lat="45.4164991" lon="10.5440252"><ele>110.25</ele><time>2026-03-29T10:45:40.276Z</time></trkpt><trkpt lat="45.4166338" lon="10.5439847"><ele>109.0</ele><time>2026-03-29T10:45:41.276Z</time></trkpt><trkpt lat="45.4167595" lon="10.5439321"><ele>109.0</ele><time>2026-03-29T10:45:42.277Z</time></trkpt><trkpt lat="45.416879" lon="10.5438636"><ele>109.0</ele><time>2026-03-29T10:45:43.276Z</time></trkpt><trkpt lat="45.4169978" lon="10.5437718"><ele>109.0</ele><time>2026-03-29T10:45:44.276Z</time></trkpt><trkpt lat="45.4171025" lon="10.5436597"><ele>109.0</ele><time>2026-03-29T10:45:45.277Z</time></trkpt><trkpt lat="45.4172" lon="10.5435392"><ele>108.75</ele><time>2026-03-29T10:45:46.276Z</time></trkpt><trkpt lat="45.4172767" lon="10.5434241"><ele>108.5</ele><time>2026-03-29T10:45:47.276Z</time></trkpt><trkpt lat="45.4173405" lon="10.5432904"><ele>108.25</ele><time>2026-03-29T10:45:48.277Z</time></trkpt><trkpt lat="45.4174018" lon="10.5431351"><ele>108.0</ele><time>2026-03-29T10:45:49.276Z</time></trkpt><trkpt lat="45.4174732" lon="10.5429745"><ele>108.33333333333334</ele><time>2026-03-29T10:45:50.277Z</time></trkpt><trkpt lat="45.4175609" lon="10.5427944"><ele>108.66666666666667</ele><time>2026-03-29T10:45:51.276Z</time></trkpt><trkpt lat="45.4176535" lon="10.5426113"><ele>109.0</ele><time>2026-03-29T10:45:52.277Z</time></trkpt><trkpt lat="45.4177487" lon="10.5424292"><ele>109.0</ele><time>2026-03-29T10:45:53.277Z</time></trkpt><trkpt lat="45.4178419" lon="10.5422469"><ele>109.0</ele><time>2026-03-29T10:45:54.277Z</time></trkpt><trkpt lat="45.4179344" lon="10.5420558"><ele>109.0</ele><time>2026-03-29T10:45:55.276Z</time></trkpt><trkpt lat="45.41801" lon="10.5418685"><ele>109.0</ele><time>2026-03-29T10:45:56.277Z</time></trkpt><trkpt lat="45.4180858" lon="10.5416917"><ele>109.0</ele><time>2026-03-29T10:45:57.276Z</time></trkpt><trkpt lat="45.4181718" lon="10.541515"><ele>109.0</ele><time>2026-03-29T10:45:58.277Z</time></trkpt><trkpt lat="45.4182602" lon="10.5413724"><ele>109.0</ele><time>2026-03-29T10:45:59.276Z</time></trkpt><trkpt lat="45.4183611" lon="10.5412371"><ele>110.0</ele><time>2026-03-29T10:46:00.277Z</time></trkpt><trkpt lat="45.4184698" lon="10.5411184"><ele>111.0</ele><time>2026-03-29T10:46:01.277Z</time></trkpt><trkpt lat="45.4185951" lon="10.5410153"><ele>112.0</ele><time>2026-03-29T10:46:02.276Z</time></trkpt><trkpt lat="45.4187256" lon="10.5409026"><ele>113.0</ele><time>2026-03-29T10:46:03.277Z</time></trkpt><trkpt lat="45.4188541" lon="10.5407806"><ele>113.0</ele><time>2026-03-29T10:46:04.276Z</time></trkpt><trkpt lat="45.4189824" lon="10.5406469"><ele>113.0</ele><time>2026-03-29T10:46:05.277Z</time></trkpt><trkpt lat="45.4191105" lon="10.5405262"><ele>113.0</ele><time>2026-03-29T10:46:06.277Z</time></trkpt><trkpt lat="45.4192395" lon="10.5404274"><ele>113.66666666666666</ele><time>2026-03-29T10:46:07.276Z</time></trkpt><trkpt lat="45.4193776" lon="10.5403626"><ele>114.33333333333334</ele><time>2026-03-29T10:46:08.276Z</time></trkpt><trkpt lat="45.4195271" lon="10.5403002"><ele>115.0</ele><time>2026-03-29T10:46:09.276Z</time></trkpt><trkpt lat="45.4196784" lon="10.540239"><ele>115.33333333333334</ele><time>2026-03-29T10:46:10.277Z</time></trkpt><trkpt lat="45.4198232" lon="10.5401727"><ele>115.66666666666666</ele><time>2026-03-29T10:46:11.277Z</time></trkpt><trkpt lat="45.4199604" lon="10.5400943"><ele>116.0</ele><time>2026-03-29T10:46:12.277Z</time></trkpt><trkpt lat="45.4200932" lon="10.5399937"><ele>116.0</ele><time>2026-03-29T10:46:13.276Z</time></trkpt><trkpt lat="45.4202262" lon="10.5398794"><ele>116.0</ele><time>2026-03-29T10:46:14.277Z</time></trkpt><trkpt lat="45.4203413" lon="10.5397701"><ele>116.0</ele><time>2026-03-29T10:46:15.276Z</time></trkpt><trkpt lat="45.4204446" lon="10.5396523"><ele>116.0</ele><time>2026-03-29T10:46:16.277Z</time></trkpt><trkpt lat="45.4205363" lon="10.5395261"><ele>117.25</ele><time>2026-03-29T10:46:17.277Z</time></trkpt><trkpt lat="45.4206223" lon="10.5394175"><ele>118.5</ele><time>2026-03-29T10:46:18.276Z</time></trkpt><trkpt lat="45.4207117" lon="10.5393207"><ele>119.75</ele><time>2026-03-29T10:46:19.277Z</time></trkpt><trkpt lat="45.4208196" lon="10.5392642"><ele>121.0</ele><time>2026-03-29T10:46:20.276Z</time></trkpt><trkpt lat="45.4209453" lon="10.5392084"><ele>121.0</ele><time>2026-03-29T10:46:21.277Z</time></trkpt><trkpt lat="45.4210898" lon="10.5391559"><ele>121.0</ele><time>2026-03-29T10:46:22.277Z</time></trkpt><trkpt lat="45.4212295" lon="10.5391025"><ele>121.0</ele><time>2026-03-29T10:46:23.276Z</time></trkpt><trkpt lat="45.4213712" lon="10.5390569"><ele>121.0</ele><time>2026-03-29T10:46:24.277Z</time></trkpt><trkpt lat="45.4215214" lon="10.5390028"><ele>120.5</ele><time>2026-03-29T10:46:25.277Z</time></trkpt><trkpt lat="45.4216579" lon="10.5389496"><ele>120.0</ele><time>2026-03-29T10:46:26.276Z</time></trkpt><trkpt lat="45.4217878" lon="10.53889"><ele>119.5</ele><time>2026-03-29T10:46:27.276Z</time></trkpt><trkpt lat="45.4218991" lon="10.5388256"><ele>119.0</ele><time>2026-03-29T10:46:28.276Z</time></trkpt><trkpt lat="45.4219911" lon="10.5387683"><ele>120.25</ele><time>2026-03-29T10:46:29.276Z</time></trkpt><trkpt lat="45.4220837" lon="10.5387075"><ele>121.5</ele><time>2026-03-29T10:46:30.277Z</time></trkpt><trkpt lat="45.4221894" lon="10.5386348"><ele>122.75</ele><time>2026-03-29T10:46:31.277Z</time></trkpt><trkpt lat="45.4223185" lon="10.5385595"><ele>124.0</ele><time>2026-03-29T10:46:32.276Z</time></trkpt><trkpt lat="45.4224673" lon="10.5384718"><ele>124.0</ele><time>2026-03-29T10:46:33.277Z</time></trkpt><trkpt lat="45.4226207" lon="10.5383868"><ele>124.0</ele><time>2026-03-29T10:46:34.276Z</time></trkpt><trkpt lat="45.422785" lon="10.5383174"><ele>124.0</ele><time>2026-03-29T10:46:35.277Z</time></trkpt><trkpt lat="45.4229531" lon="10.5382585"><ele>124.66666666666667</ele><time>2026-03-29T10:46:36.277Z</time></trkpt><trkpt lat="45.4231285" lon="10.5381987"><ele>125.33333333333334</ele><time>2026-03-29T10:46:37.276Z</time></trkpt><trkpt lat="45.423303" lon="10.5381399"><ele>126.0</ele><time>2026-03-29T10:46:38.277Z</time></trkpt><trkpt lat="45.4234664" lon="10.5380896"><ele>126.0</ele><time>2026-03-29T10:46:39.276Z</time></trkpt><trkpt lat="45.4236151" lon="10.5380271"><ele>126.0</ele><time>2026-03-29T10:46:40.276Z</time></trkpt><trkpt lat="45.4237534" lon="10.5379702"><ele>126.0</ele><time>2026-03-29T10:46:41.277Z</time></trkpt><trkpt lat="45.423894" lon="10.5379287"><ele>126.0</ele><time>2026-03-29T10:46:42.277Z</time></trkpt><trkpt lat="45.4240337" lon="10.5379043"><ele>125.5</ele><time>2026-03-29T10:46:43.277Z</time></trkpt><trkpt lat="45.4241595" lon="10.5379009"><ele>125.0</ele><time>2026-03-29T10:46:44.276Z</time></trkpt><trkpt lat="45.4242851" lon="10.5379009"><ele>124.5</ele><time>2026-03-29T10:46:45.276Z</time></trkpt><trkpt lat="45.4244054" lon="10.5379043"><ele>124.0</ele><time>2026-03-29T10:46:46.276Z</time></trkpt><trkpt lat="45.4245276" lon="10.5379255"><ele>123.0</ele><time>2026-03-29T10:46:47.276Z</time></trkpt><trkpt lat="45.4246531" lon="10.5379708"><ele>122.0</ele><time>2026-03-29T10:46:48.276Z</time></trkpt><trkpt lat="45.4247722" lon="10.5380524"><ele>121.0</ele><time>2026-03-29T10:46:49.277Z</time></trkpt><trkpt lat="45.4248817" lon="10.538167"><ele>120.0</ele><time>2026-03-29T10:46:50.277Z</time></trkpt><trkpt lat="45.4249963" lon="10.5382956"><ele>120.0</ele><time>2026-03-29T10:46:51.276Z</time></trkpt><trkpt lat="45.4251225" lon="10.5384207"><ele>120.0</ele><time>2026-03-29T10:46:52.277Z</time></trkpt><trkpt lat="45.4252583" lon="10.5385303"><ele>120.0</ele><time>2026-03-29T10:46:53.277Z</time></trkpt><trkpt lat="45.4253951" lon="10.5386201"><ele>119.33333333333334</ele><time>2026-03-29T10:46:54.276Z</time></trkpt><trkpt lat="45.4255342" lon="10.538712"><ele>118.66666666666667</ele><time>2026-03-29T10:46:55.276Z</time></trkpt><trkpt lat="45.4256848" lon="10.538778"><ele>118.0</ele><time>2026-03-29T10:46:56.276Z</time></trkpt><trkpt lat="45.4258358" lon="10.5388242"><ele>116.75</ele><time>2026-03-29T10:46:57.277Z</time></trkpt><trkpt lat="45.4259805" lon="10.5388492"><ele>115.5</ele><time>2026-03-29T10:46:58.276Z</time></trkpt><trkpt lat="45.4261131" lon="10.5388528"><ele>114.25</ele><time>2026-03-29T10:46:59.277Z</time></trkpt><trkpt lat="45.4262462" lon="10.5388316"><ele>113.0</ele><time>2026-03-29T10:47:00.277Z</time></trkpt><trkpt lat="45.4263845" lon="10.5387976"><ele>113.0</ele><time>2026-03-29T10:47:01.277Z</time></trkpt><trkpt lat="45.4265295" lon="10.5387758"><ele>113.0</ele><time>2026-03-29T10:47:02.276Z</time></trkpt><trkpt lat="45.426683" lon="10.5387539"><ele>113.0</ele><time>2026-03-29T10:47:03.276Z</time></trkpt><trkpt lat="45.4268438" lon="10.5387386"><ele>113.0</ele><time>2026-03-29T10:47:04.277Z</time></trkpt><trkpt lat="45.4270042" lon="10.5387181"><ele>113.0</ele><time>2026-03-29T10:47:05.276Z</time></trkpt><trkpt lat="45.427151" lon="10.538707"><ele>113.0</ele><time>2026-03-29T10:47:06.277Z</time></trkpt><trkpt lat="45.4272777" lon="10.5386939"><ele>113.0</ele><time>2026-03-29T10:47:07.277Z</time></trkpt><trkpt lat="45.4273847" lon="10.5386871"><ele>112.80000000000001</ele><time>2026-03-29T10:47:08.276Z</time></trkpt><trkpt lat="45.4274686" lon="10.5386878"><ele>112.60000000000001</ele><time>2026-03-29T10:47:09.276Z</time></trkpt><trkpt lat="45.427551" lon="10.5387027"><ele>112.39999999999999</ele><time>2026-03-29T10:47:11.277Z</time></trkpt><trkpt lat="45.4276531" lon="10.538834"><ele>112.19999999999999</ele><time>2026-03-29T10:47:13.277Z</time></trkpt><trkpt lat="45.4277245" lon="10.5389759"><ele>112.0</ele><time>2026-03-29T10:47:14.276Z</time></trkpt><trkpt lat="45.4278064" lon="10.5391752"><ele>112.0</ele><time>2026-03-29T10:47:15.276Z</time></trkpt><trkpt lat="45.4278968" lon="10.5393851"><ele>112.0</ele><time>2026-03-29T10:47:16.277Z</time></trkpt><trkpt lat="45.4279939" lon="10.5395977"><ele>112.0</ele><time>2026-03-29T10:47:17.276Z</time></trkpt><trkpt lat="45.4281032" lon="10.5397934"><ele>110.66666666666667</ele><time>2026-03-29T10:47:18.277Z</time></trkpt><trkpt lat="45.4282212" lon="10.5399935"><ele>109.33333333333334</ele><time>2026-03-29T10:47:19.277Z</time></trkpt><trkpt lat="45.4283411" lon="10.5401887"><ele>108.0</ele><time>2026-03-29T10:47:20.276Z</time></trkpt><trkpt lat="45.4284476" lon="10.5403752"><ele>106.66666666666666</ele><time>2026-03-29T10:47:21.277Z</time></trkpt><trkpt lat="45.4285526" lon="10.540564"><ele>105.33333333333333</ele><time>2026-03-29T10:47:22.277Z</time></trkpt><trkpt lat="45.4286533" lon="10.5407584"><ele>104.0</ele><time>2026-03-29T10:47:23.276Z</time></trkpt><trkpt lat="45.4287572" lon="10.540953"><ele>104.66666666666666</ele><time>2026-03-29T10:47:24.277Z</time></trkpt><trkpt lat="45.4288658" lon="10.5411439"><ele>105.33333333333334</ele><time>2026-03-29T10:47:25.277Z</time></trkpt><trkpt lat="45.42897" lon="10.5413415"><ele>106.0</ele><time>2026-03-29T10:47:26.276Z</time></trkpt><trkpt lat="45.4290744" lon="10.5415472"><ele>106.0</ele><time>2026-03-29T10:47:27.276Z</time></trkpt><trkpt lat="45.4291838" lon="10.5417729"><ele>106.0</ele><time>2026-03-29T10:47:28.276Z</time></trkpt><trkpt lat="45.4293006" lon="10.5419856"><ele>106.0</ele><time>2026-03-29T10:47:29.277Z</time></trkpt><trkpt lat="45.4294225" lon="10.5421878"><ele>106.0</ele><time>2026-03-29T10:47:30.276Z</time></trkpt><trkpt lat="45.4295406" lon="10.542382"><ele>106.0</ele><time>2026-03-29T10:47:31.276Z</time></trkpt><trkpt lat="45.4296542" lon="10.542572"><ele>106.0</ele><time>2026-03-29T10:47:32.277Z</time></trkpt><trkpt lat="45.4297491" lon="10.5427523"><ele>105.75</ele><time>2026-03-29T10:47:33.276Z</time></trkpt><trkpt lat="45.4298324" lon="10.542915"><ele>105.5</ele><time>2026-03-29T10:47:34.276Z</time></trkpt><trkpt lat="45.4299177" lon="10.5430536"><ele>105.25</ele><time>2026-03-29T10:47:35.276Z</time></trkpt><trkpt lat="45.429982" lon="10.5431865"><ele>105.0</ele><time>2026-03-29T10:47:36.277Z</time></trkpt><trkpt lat="45.4300341" lon="10.543296"><ele>105.0</ele><time>2026-03-29T10:47:37.276Z</time></trkpt><trkpt lat="45.4300809" lon="10.543383"><ele>105.0</ele><time>2026-03-29T10:47:38.277Z</time></trkpt><trkpt lat="45.4301427" lon="10.5434888"><ele>105.0</ele><time>2026-03-29T10:47:40.277Z</time></trkpt><trkpt lat="45.4302064" lon="10.5436274"><ele>105.0</ele><time>2026-03-29T10:48:03.276Z</time></trkpt><trkpt lat="45.4302618" lon="10.5437242"><ele>105.0</ele><time>2026-03-29T10:48:04.276Z</time></trkpt><trkpt lat="45.4303362" lon="10.5438434"><ele>105.0</ele><time>2026-03-29T10:48:05.276Z</time></trkpt><trkpt lat="45.4304258" lon="10.5439892"><ele>105.0</ele><time>2026-03-29T10:48:06.277Z</time></trkpt><trkpt lat="45.430519" lon="10.5441561"><ele>105.0</ele><time>2026-03-29T10:48:07.276Z</time></trkpt><trkpt lat="45.4306053" lon="10.5443109"><ele>105.0</ele><time>2026-03-29T10:48:08.276Z</time></trkpt><trkpt lat="45.4306852" lon="10.5444712"><ele>105.0</ele><time>2026-03-29T10:48:09.275Z</time></trkpt><trkpt lat="45.4307617" lon="10.5446415"><ele>105.0</ele><time>2026-03-29T10:48:10.276Z</time></trkpt><trkpt lat="45.4308442" lon="10.5448182"><ele>105.0</ele><time>2026-03-29T10:48:11.275Z</time></trkpt><trkpt lat="45.4309262" lon="10.5450003"><ele>105.0</ele><time>2026-03-29T10:48:12.276Z</time></trkpt><trkpt lat="45.4310034" lon="10.5451841"><ele>105.0</ele><time>2026-03-29T10:48:13.275Z</time></trkpt><trkpt lat="45.4310708" lon="10.5453714"><ele>105.0</ele><time>2026-03-29T10:48:14.275Z</time></trkpt><trkpt lat="45.4311373" lon="10.5455465"><ele>105.0</ele><time>2026-03-29T10:48:15.276Z</time></trkpt><trkpt lat="45.431201" lon="10.545713"><ele>105.0</ele><time>2026-03-29T10:48:16.275Z</time></trkpt><trkpt lat="45.431268" lon="10.5458707"><ele>105.0</ele><time>2026-03-29T10:48:17.276Z</time></trkpt><trkpt lat="45.4313218" lon="10.5460175"><ele>105.0</ele><time>2026-03-29T10:48:18.276Z</time></trkpt><trkpt lat="45.4313738" lon="10.5461505"><ele>105.0</ele><time>2026-03-29T10:48:19.276Z</time></trkpt><trkpt lat="45.4314069" lon="10.5462628"><ele>105.0</ele><time>2026-03-29T10:48:20.276Z</time></trkpt><trkpt lat="45.431414" lon="10.5463616"><ele>105.0</ele><time>2026-03-29T10:48:21.276Z</time></trkpt><trkpt lat="45.4314001" lon="10.5464558"><ele>105.0</ele><time>2026-03-29T10:48:22.276Z</time></trkpt><trkpt lat="45.431381" lon="10.5465525"><ele>105.25</ele><time>2026-03-29T10:48:23.275Z</time></trkpt><trkpt lat="45.4313774" lon="10.5467262"><ele>105.5</ele><time>2026-03-29T10:48:25.276Z</time></trkpt><trkpt lat="45.4314127" lon="10.5468441"><ele>105.75</ele><time>2026-03-29T10:48:26.276Z</time></trkpt><trkpt lat="45.431503" lon="10.5470127"><ele>106.0</ele><time>2026-03-29T10:48:27.275Z</time></trkpt><trkpt lat="45.4316186" lon="10.547185"><ele>106.66666666666667</ele><time>2026-03-29T10:48:28.276Z</time></trkpt><trkpt lat="45.4317358" lon="10.5473681"><ele>107.33333333333334</ele><time>2026-03-29T10:48:29.275Z</time></trkpt><trkpt lat="45.4318599" lon="10.5475495"><ele>108.0</ele><time>2026-03-29T10:48:30.275Z</time></trkpt><trkpt lat="45.4319815" lon="10.5477195"><ele>108.0</ele><time>2026-03-29T10:48:31.275Z</time></trkpt><trkpt lat="45.4321164" lon="10.5478598"><ele>108.0</ele><time>2026-03-29T10:48:32.275Z</time></trkpt><trkpt lat="45.4322398" lon="10.5480066"><ele>108.0</ele><time>2026-03-29T10:48:33.275Z</time></trkpt><trkpt lat="45.4323584" lon="10.5481481"><ele>108.25</ele><time>2026-03-29T10:48:34.276Z</time></trkpt><trkpt lat="45.4324647" lon="10.5482931"><ele>108.5</ele><time>2026-03-29T10:48:35.275Z</time></trkpt><trkpt lat="45.4325715" lon="10.5484268"><ele>108.75</ele><time>2026-03-29T10:48:36.276Z</time></trkpt><trkpt lat="45.4326708" lon="10.5485583"><ele>109.0</ele><time>2026-03-29T10:48:37.275Z</time></trkpt><trkpt lat="45.4327634" lon="10.5486861"><ele>109.25</ele><time>2026-03-29T10:48:38.276Z</time></trkpt><trkpt lat="45.4328718" lon="10.5488021"><ele>109.5</ele><time>2026-03-29T10:48:39.276Z</time></trkpt><trkpt lat="45.4329809" lon="10.5488897"><ele>109.75</ele><time>2026-03-29T10:48:40.275Z</time></trkpt><trkpt lat="45.4330897" lon="10.5489356"><ele>110.0</ele><time>2026-03-29T10:48:41.276Z</time></trkpt><trkpt lat="45.4331772" lon="10.5489874"><ele>110.0</ele><time>2026-03-29T10:48:42.276Z</time></trkpt><trkpt lat="45.4332556" lon="10.5490456"><ele>110.0</ele><time>2026-03-29T10:48:43.275Z</time></trkpt><trkpt lat="45.4333092" lon="10.5491278"><ele>110.0</ele><time>2026-03-29T10:48:44.276Z</time></trkpt><trkpt lat="45.4333301" lon="10.5492252"><ele>110.0</ele><time>2026-03-29T10:48:45.276Z</time></trkpt><trkpt lat="45.4333813" lon="10.5493586"><ele>110.0</ele><time>2026-03-29T10:48:47.275Z</time></trkpt><trkpt lat="45.4335043" lon="10.5493567"><ele>110.0</ele><time>2026-03-29T10:48:49.276Z</time></trkpt><trkpt lat="45.433619" lon="10.5492773"><ele>110.0</ele><time>2026-03-29T10:48:50.276Z</time></trkpt><trkpt lat="45.4337532" lon="10.5491956"><ele>110.0</ele><time>2026-03-29T10:48:51.276Z</time></trkpt><trkpt lat="45.4339022" lon="10.549106"><ele>110.0</ele><time>2026-03-29T10:48:52.275Z</time></trkpt><trkpt lat="45.4340465" lon="10.5490089"><ele>110.33333333333333</ele><time>2026-03-29T10:48:53.275Z</time></trkpt><trkpt lat="45.4341928" lon="10.548884"><ele>110.66666666666666</ele><time>2026-03-29T10:48:54.276Z</time></trkpt><trkpt lat="45.4343365" lon="10.5487421"><ele>111.0</ele><time>2026-03-29T10:48:55.275Z</time></trkpt><trkpt lat="45.434474" lon="10.5485936"><ele>111.0</ele><time>2026-03-29T10:48:56.276Z</time></trkpt><trkpt lat="45.4346101" lon="10.5484376"><ele>111.0</ele><time>2026-03-29T10:48:57.275Z</time></trkpt><trkpt lat="45.4347316" lon="10.5482871"><ele>111.0</ele><time>2026-03-29T10:48:58.276Z</time></trkpt><trkpt lat="45.4348337" lon="10.5481585"><ele>111.0</ele><time>2026-03-29T10:48:59.276Z</time></trkpt><trkpt lat="45.4349226" lon="10.5480405"><ele>111.0</ele><time>2026-03-29T10:49:00.276Z</time></trkpt><trkpt lat="45.4349977" lon="10.5479356"><ele>111.0</ele><time>2026-03-29T10:49:01.275Z</time></trkpt><trkpt lat="45.4350516" lon="10.5478521"><ele>111.0</ele><time>2026-03-29T10:49:02.276Z</time></trkpt><trkpt lat="45.4350963" lon="10.5477563"><ele>111.0</ele><time>2026-03-29T10:49:03.275Z</time></trkpt><trkpt lat="45.4351348" lon="10.5476346"><ele>110.75</ele><time>2026-03-29T10:49:04.276Z</time></trkpt><trkpt lat="45.4351732" lon="10.5474802"><ele>110.5</ele><time>2026-03-29T10:49:05.276Z</time></trkpt><trkpt lat="45.4352238" lon="10.547322"><ele>110.25</ele><time>2026-03-29T10:49:06.275Z</time></trkpt><trkpt lat="45.4352832" lon="10.5471593"><ele>110.0</ele><time>2026-03-29T10:49:07.276Z</time></trkpt><trkpt lat="45.43535" lon="10.5469999"><ele>110.0</ele><time>2026-03-29T10:49:08.276Z</time></trkpt><trkpt lat="45.4354237" lon="10.546832"><ele>110.0</ele><time>2026-03-29T10:49:09.275Z</time></trkpt><trkpt lat="45.4355028" lon="10.5466881"><ele>110.0</ele><time>2026-03-29T10:49:10.275Z</time></trkpt><trkpt lat="45.4355686" lon="10.54656"><ele>110.0</ele><time>2026-03-29T10:49:11.275Z</time></trkpt><trkpt lat="45.4356377" lon="10.5464384"><ele>109.25</ele><time>2026-03-29T10:49:12.276Z</time></trkpt><trkpt lat="45.4357091" lon="10.5463182"><ele>108.5</ele><time>2026-03-29T10:49:13.275Z</time></trkpt><trkpt lat="45.4357815" lon="10.5462081"><ele>107.75</ele><time>2026-03-29T10:49:14.275Z</time></trkpt><trkpt lat="45.4358617" lon="10.5460951"><ele>107.0</ele><time>2026-03-29T10:49:15.276Z</time></trkpt><trkpt lat="45.4359523" lon="10.5459797"><ele>107.0</ele><time>2026-03-29T10:49:16.275Z</time></trkpt><trkpt lat="45.4360428" lon="10.5458572"><ele>107.0</ele><time>2026-03-29T10:49:17.276Z</time></trkpt><trkpt lat="45.4361434" lon="10.5457138"><ele>107.0</ele><time>2026-03-29T10:49:18.275Z</time></trkpt><trkpt lat="45.4362515" lon="10.5455523"><ele>107.0</ele><time>2026-03-29T10:49:19.276Z</time></trkpt><trkpt lat="45.4363744" lon="10.5453754"><ele>107.0</ele><time>2026-03-29T10:49:20.276Z</time></trkpt><trkpt lat="45.4365057" lon="10.5451792"><ele>107.0</ele><time>2026-03-29T10:49:21.276Z</time></trkpt><trkpt lat="45.4366397" lon="10.5449819"><ele>107.0</ele><time>2026-03-29T10:49:22.276Z</time></trkpt><trkpt lat="45.43678" lon="10.5447858"><ele>107.0</ele><time>2026-03-29T10:49:23.275Z</time></trkpt><trkpt lat="45.4369165" lon="10.5445936"><ele>107.0</ele><time>2026-03-29T10:49:24.276Z</time></trkpt><trkpt lat="45.4370481" lon="10.5443988"><ele>107.0</ele><time>2026-03-29T10:49:25.276Z</time></trkpt><trkpt lat="45.4371758" lon="10.5442203"><ele>107.0</ele><time>2026-03-29T10:49:26.275Z</time></trkpt><trkpt lat="45.4372919" lon="10.5440389"><ele>107.0</ele><time>2026-03-29T10:49:27.275Z</time></trkpt><trkpt lat="45.4373989" lon="10.5438439"><ele>107.0</ele><time>2026-03-29T10:49:28.275Z</time></trkpt><trkpt lat="45.437499" lon="10.5436439"><ele>107.0</ele><time>2026-03-29T10:49:29.276Z</time></trkpt><trkpt lat="45.4376064" lon="10.5434377"><ele>107.0</ele><time>2026-03-29T10:49:30.275Z</time></trkpt><trkpt lat="45.4377115" lon="10.5432236"><ele>107.0</ele><time>2026-03-29T10:49:31.276Z</time></trkpt><trkpt lat="45.4378111" lon="10.5430107"><ele>107.0</ele><time>2026-03-29T10:49:32.275Z</time></trkpt><trkpt lat="45.4379169" lon="10.5428029"><ele>107.0</ele><time>2026-03-29T10:49:33.275Z</time></trkpt><trkpt lat="45.4380239" lon="10.5426035"><ele>107.0</ele><time>2026-03-29T10:49:34.276Z</time></trkpt><trkpt lat="45.4381306" lon="10.5424038"><ele>107.0</ele><time>2026-03-29T10:49:35.275Z</time></trkpt><trkpt lat="45.4382341" lon="10.5421906"><ele>107.0</ele><time>2026-03-29T10:49:36.275Z</time></trkpt><trkpt lat="45.4383423" lon="10.5419712"><ele>107.0</ele><time>2026-03-29T10:49:37.276Z</time></trkpt><trkpt lat="45.4384509" lon="10.5417518"><ele>106.66666666666666</ele><time>2026-03-29T10:49:38.276Z</time></trkpt><trkpt lat="45.4385715" lon="10.5415394"><ele>106.33333333333334</ele><time>2026-03-29T10:49:39.276Z</time></trkpt><trkpt lat="45.4386962" lon="10.541321"><ele>106.0</ele><time>2026-03-29T10:49:40.276Z</time></trkpt><trkpt lat="45.4388189" lon="10.5411184"><ele>106.66666666666667</ele><time>2026-03-29T10:49:41.276Z</time></trkpt><trkpt lat="45.4389414" lon="10.5409273"><ele>107.33333333333334</ele><time>2026-03-29T10:49:42.276Z</time></trkpt><trkpt lat="45.4390645" lon="10.5407528"><ele>108.0</ele><time>2026-03-29T10:49:43.276Z</time></trkpt><trkpt lat="45.4391807" lon="10.5405801"><ele>108.0</ele><time>2026-03-29T10:49:44.276Z</time></trkpt><trkpt lat="45.4392874" lon="10.5403969"><ele>108.0</ele><time>2026-03-29T10:49:45.276Z</time></trkpt><trkpt lat="45.4393867" lon="10.54021"><ele>108.0</ele><time>2026-03-29T10:49:46.276Z</time></trkpt><trkpt lat="45.4394723" lon="10.54003"><ele>107.75</ele><time>2026-03-29T10:49:47.275Z</time></trkpt><trkpt lat="45.4395376" lon="10.5398412"><ele>107.5</ele><time>2026-03-29T10:49:48.275Z</time></trkpt><trkpt lat="45.4395916" lon="10.5396588"><ele>107.25</ele><time>2026-03-29T10:49:49.276Z</time></trkpt><trkpt lat="45.4396433" lon="10.5394735"><ele>107.0</ele><time>2026-03-29T10:49:50.276Z</time></trkpt><trkpt lat="45.439699" lon="10.5392674"><ele>106.66666666666666</ele><time>2026-03-29T10:49:51.276Z</time></trkpt><trkpt lat="45.4397449" lon="10.5390631"><ele>106.33333333333334</ele><time>2026-03-29T10:49:52.276Z</time></trkpt><trkpt lat="45.4397986" lon="10.5388616"><ele>106.0</ele><time>2026-03-29T10:49:53.275Z</time></trkpt><trkpt lat="45.4398724" lon="10.5386632"><ele>106.0</ele><time>2026-03-29T10:49:54.275Z</time></trkpt><trkpt lat="45.4399577" lon="10.5384536"><ele>106.0</ele><time>2026-03-29T10:49:55.275Z</time></trkpt><trkpt lat="45.4400438" lon="10.5382368"><ele>106.0</ele><time>2026-03-29T10:49:56.275Z</time></trkpt><trkpt lat="45.4401275" lon="10.5380163"><ele>106.0</ele><time>2026-03-29T10:49:57.276Z</time></trkpt><trkpt lat="45.4402153" lon="10.5377925"><ele>106.0</ele><time>2026-03-29T10:49:58.276Z</time></trkpt><trkpt lat="45.4403125" lon="10.5375572"><ele>106.0</ele><time>2026-03-29T10:49:59.275Z</time></trkpt><trkpt lat="45.4404154" lon="10.5373269"><ele>106.33333333333334</ele><time>2026-03-29T10:50:00.276Z</time></trkpt><trkpt lat="45.440526" lon="10.5370919"><ele>106.66666666666666</ele><time>2026-03-29T10:50:01.276Z</time></trkpt><trkpt lat="45.4406479" lon="10.5368582"><ele>107.0</ele><time>2026-03-29T10:50:02.276Z</time></trkpt><trkpt lat="45.4407816" lon="10.5366156"><ele>107.33333333333333</ele><time>2026-03-29T10:50:03.276Z</time></trkpt><trkpt lat="45.4409137" lon="10.5363684"><ele>107.66666666666666</ele><time>2026-03-29T10:50:04.276Z</time></trkpt><trkpt lat="45.4410412" lon="10.536131"><ele>108.0</ele><time>2026-03-29T10:50:05.275Z</time></trkpt><trkpt lat="45.4411679" lon="10.535889"><ele>108.0</ele><time>2026-03-29T10:50:06.276Z</time></trkpt><trkpt lat="45.4412929" lon="10.5356517"><ele>108.0</ele><time>2026-03-29T10:50:07.275Z</time></trkpt><trkpt lat="45.4414071" lon="10.53543"><ele>108.0</ele><time>2026-03-29T10:50:08.275Z</time></trkpt><trkpt lat="45.4415146" lon="10.5352318"><ele>108.0</ele><time>2026-03-29T10:50:09.275Z</time></trkpt><trkpt lat="45.4416142" lon="10.5350444"><ele>108.0</ele><time>2026-03-29T10:50:10.275Z</time></trkpt><trkpt lat="45.4417011" lon="10.5348811"><ele>108.0</ele><time>2026-03-29T10:50:11.276Z</time></trkpt><trkpt lat="45.441786" lon="10.5347322"><ele>108.0</ele><time>2026-03-29T10:50:12.275Z</time></trkpt><trkpt lat="45.4418602" lon="10.5345959"><ele>108.16666666666667</ele><time>2026-03-29T10:50:13.275Z</time></trkpt><trkpt lat="45.4419225" lon="10.5344784"><ele>108.33333333333334</ele><time>2026-03-29T10:50:14.275Z</time></trkpt><trkpt lat="45.4419759" lon="10.5343867"><ele>108.5</ele><time>2026-03-29T10:50:15.276Z</time></trkpt><trkpt lat="45.4420114" lon="10.5343081"><ele>108.66666666666667</ele><time>2026-03-29T10:50:16.276Z</time></trkpt><trkpt lat="45.4420243" lon="10.5341328"><ele>108.83333333333334</ele><time>2026-03-29T10:50:18.275Z</time></trkpt><trkpt lat="45.4419998" lon="10.5340464"><ele>109.0</ele><time>2026-03-29T10:50:19.275Z</time></trkpt><trkpt lat="45.441957" lon="10.533963"><ele>109.0</ele><time>2026-03-29T10:50:20.276Z</time></trkpt><trkpt lat="45.441895" lon="10.5338755"><ele>109.0</ele><time>2026-03-29T10:50:21.276Z</time></trkpt><trkpt lat="45.441803" lon="10.5337811"><ele>109.0</ele><time>2026-03-29T10:50:22.276Z</time></trkpt><trkpt lat="45.4416822" lon="10.5336714"><ele>109.0</ele><time>2026-03-29T10:50:23.276Z</time></trkpt><trkpt lat="45.4415447" lon="10.5335395"><ele>109.66666666666667</ele><time>2026-03-29T10:50:24.275Z</time></trkpt><trkpt lat="45.4413915" lon="10.5333763"><ele>110.33333333333334</ele><time>2026-03-29T10:50:25.276Z</time></trkpt><trkpt lat="45.4412303" lon="10.5331951"><ele>111.0</ele><time>2026-03-29T10:50:26.276Z</time></trkpt><trkpt lat="45.4410708" lon="10.5330107"><ele>110.33333333333334</ele><time>2026-03-29T10:50:27.275Z</time></trkpt><trkpt lat="45.4409352" lon="10.5328586"><ele>109.66666666666667</ele><time>2026-03-29T10:50:28.275Z</time></trkpt><trkpt lat="45.440815" lon="10.5327166"><ele>109.0</ele><time>2026-03-29T10:50:29.276Z</time></trkpt><trkpt lat="45.4407068" lon="10.5325873"><ele>109.0</ele><time>2026-03-29T10:50:30.275Z</time></trkpt><trkpt lat="45.440609" lon="10.5324764"><ele>109.0</ele><time>2026-03-29T10:50:31.275Z</time></trkpt><trkpt lat="45.440528" lon="10.532395"><ele>109.0</ele><time>2026-03-29T10:50:32.276Z</time></trkpt><trkpt lat="45.4404591" lon="10.5323286"><ele>109.0</ele><time>2026-03-29T10:50:33.275Z</time></trkpt><trkpt lat="45.4403872" lon="10.5322741"><ele>109.0</ele><time>2026-03-29T10:50:34.275Z</time></trkpt><trkpt lat="45.4403044" lon="10.5322407"><ele>108.75</ele><time>2026-03-29T10:50:35.275Z</time></trkpt><trkpt lat="45.4402103" lon="10.5322277"><ele>108.5</ele><time>2026-03-29T10:50:36.276Z</time></trkpt><trkpt lat="45.4400932" lon="10.5322408"><ele>108.25</ele><time>2026-03-29T10:50:37.276Z</time></trkpt><trkpt lat="45.4399564" lon="10.5322665"><ele>108.0</ele><time>2026-03-29T10:50:38.275Z</time></trkpt><trkpt lat="45.4397992" lon="10.5323006"><ele>108.66666666666666</ele><time>2026-03-29T10:50:39.275Z</time></trkpt><trkpt lat="45.4396173" lon="10.5323448"><ele>109.33333333333333</ele><time>2026-03-29T10:50:40.275Z</time></trkpt><trkpt lat="45.4394184" lon="10.5323863"><ele>110.0</ele><time>2026-03-29T10:50:41.276Z</time></trkpt><trkpt lat="45.4392196" lon="10.5324262"><ele>110.0</ele><time>2026-03-29T10:50:42.276Z</time></trkpt><trkpt lat="45.4390274" lon="10.532471"><ele>110.0</ele><time>2026-03-29T10:50:43.276Z</time></trkpt><trkpt lat="45.4388308" lon="10.5325068"><ele>110.0</ele><time>2026-03-29T10:50:44.276Z</time></trkpt><trkpt lat="45.4386401" lon="10.5325573"><ele>110.0</ele><time>2026-03-29T10:50:45.275Z</time></trkpt><trkpt lat="45.4384586" lon="10.5326063"><ele>110.0</ele><time>2026-03-29T10:50:46.276Z</time></trkpt><trkpt lat="45.4382826" lon="10.5326477"><ele>110.0</ele><time>2026-03-29T10:50:47.275Z</time></trkpt><trkpt lat="45.4381098" lon="10.5326859"><ele>109.33333333333333</ele><time>2026-03-29T10:50:48.275Z</time></trkpt><trkpt lat="45.4379345" lon="10.5327244"><ele>108.66666666666666</ele><time>2026-03-29T10:50:49.276Z</time></trkpt><trkpt lat="45.4377505" lon="10.532771"><ele>108.0</ele><time>2026-03-29T10:50:50.276Z</time></trkpt><trkpt lat="45.4375868" lon="10.5328161"><ele>108.0</ele><time>2026-03-29T10:50:51.276Z</time></trkpt><trkpt lat="45.437428" lon="10.5328557"><ele>108.0</ele><time>2026-03-29T10:50:52.275Z</time></trkpt><trkpt lat="45.4372621" lon="10.5328965"><ele>108.0</ele><time>2026-03-29T10:50:53.275Z</time></trkpt><trkpt lat="45.4371053" lon="10.5329379"><ele>107.75</ele><time>2026-03-29T10:50:54.275Z</time></trkpt><trkpt lat="45.4369566" lon="10.5329753"><ele>107.5</ele><time>2026-03-29T10:50:55.276Z</time></trkpt><trkpt lat="45.4368148" lon="10.5330106"><ele>107.25</ele><time>2026-03-29T10:50:56.276Z</time></trkpt><trkpt lat="45.4366876" lon="10.5330439"><ele>107.0</ele><time>2026-03-29T10:50:57.275Z</time></trkpt><trkpt lat="45.4365686" lon="10.5330749"><ele>107.0</ele><time>2026-03-29T10:50:58.276Z</time></trkpt><trkpt lat="45.4364599" lon="10.5331045"><ele>106.99999999999999</ele><time>2026-03-29T10:50:59.275Z</time></trkpt><trkpt lat="45.4363619" lon="10.5331299"><ele>106.99999999999999</ele><time>2026-03-29T10:51:00.276Z</time></trkpt><trkpt lat="45.4362747" lon="10.5331566"><ele>107.0</ele><time>2026-03-29T10:51:01.275Z</time></trkpt><trkpt lat="45.436198" lon="10.533179"><ele>107.0</ele><time>2026-03-29T10:51:02.276Z</time></trkpt><trkpt lat="45.436089" lon="10.5332052"><ele>107.0</ele><time>2026-03-29T10:51:04.275Z</time></trkpt><trkpt lat="45.4360245" lon="10.5332063"><ele>106.99999999999999</ele><time>2026-03-29T10:51:06.275Z</time></trkpt><trkpt lat="45.4359603" lon="10.5331064"><ele>106.99999999999999</ele><time>2026-03-29T10:51:10.275Z</time></trkpt><trkpt lat="45.4359725" lon="10.5329449"><ele>107.0</ele><time>2026-03-29T10:51:12.275Z</time></trkpt><trkpt lat="45.4360081" lon="10.5328254"><ele>107.0</ele><time>2026-03-29T10:51:13.276Z</time></trkpt><trkpt lat="45.4360623" lon="10.5326734"><ele>107.0</ele><time>2026-03-29T10:51:14.276Z</time></trkpt><trkpt lat="45.4361325" lon="10.5324746"><ele>107.0</ele><time>2026-03-29T10:51:15.276Z</time></trkpt><trkpt lat="45.4362139" lon="10.5322539"><ele>107.0</ele><time>2026-03-29T10:51:16.275Z</time></trkpt><trkpt lat="45.4363045" lon="10.5320155"><ele>106.33333333333333</ele><time>2026-03-29T10:51:17.275Z</time></trkpt><trkpt lat="45.4363928" lon="10.531762"><ele>105.66666666666666</ele><time>2026-03-29T10:51:18.276Z</time></trkpt><trkpt lat="45.4364891" lon="10.5315098"><ele>105.0</ele><time>2026-03-29T10:51:19.276Z</time></trkpt><trkpt lat="45.4365763" lon="10.5312498"><ele>107.33333333333334</ele><time>2026-03-29T10:51:20.276Z</time></trkpt><trkpt lat="45.4366627" lon="10.5309967"><ele>109.66666666666667</ele><time>2026-03-29T10:51:21.275Z</time></trkpt><trkpt lat="45.4367567" lon="10.5307519"><ele>112.0</ele><time>2026-03-29T10:51:22.276Z</time></trkpt><trkpt lat="45.4368532" lon="10.5305223"><ele>113.0</ele><time>2026-03-29T10:51:23.276Z</time></trkpt><trkpt lat="45.4369375" lon="10.530302"><ele>114.0</ele><time>2026-03-29T10:51:24.275Z</time></trkpt><trkpt lat="45.4370118" lon="10.5300956"><ele>115.0</ele><time>2026-03-29T10:51:25.276Z</time></trkpt><trkpt lat="45.4370705" lon="10.5298858"><ele>115.0</ele><time>2026-03-29T10:51:26.276Z</time></trkpt><trkpt lat="45.4370978" lon="10.5296781"><ele>115.0</ele><time>2026-03-29T10:51:27.275Z</time></trkpt><trkpt lat="45.4370955" lon="10.5294653"><ele>115.0</ele><time>2026-03-29T10:51:28.275Z</time></trkpt><trkpt lat="45.4370667" lon="10.5292509"><ele>118.33333333333334</ele><time>2026-03-29T10:51:29.276Z</time></trkpt><trkpt lat="45.4370069" lon="10.5290254"><ele>121.66666666666666</ele><time>2026-03-29T10:51:30.275Z</time></trkpt><trkpt lat="45.4369294" lon="10.5287799"><ele>125.0</ele><time>2026-03-29T10:51:31.276Z</time></trkpt><trkpt lat="45.4368436" lon="10.5285219"><ele>127.66666666666666</ele><time>2026-03-29T10:51:32.275Z</time></trkpt><trkpt lat="45.4367791" lon="10.5282738"><ele>130.33333333333334</ele><time>2026-03-29T10:51:33.275Z</time></trkpt><trkpt lat="45.4367298" lon="10.528042"><ele>133.0</ele><time>2026-03-29T10:51:34.276Z</time></trkpt><trkpt lat="45.4366998" lon="10.5278374"><ele>134.0</ele><time>2026-03-29T10:51:35.276Z</time></trkpt><trkpt lat="45.4367037" lon="10.5276636"><ele>135.0</ele><time>2026-03-29T10:51:36.276Z</time></trkpt><trkpt lat="45.4367247" lon="10.527494"><ele>136.0</ele><time>2026-03-29T10:51:37.276Z</time></trkpt><trkpt lat="45.4367562" lon="10.5273232"><ele>137.0</ele><time>2026-03-29T10:51:38.276Z</time></trkpt><trkpt lat="45.4367914" lon="10.5271113"><ele>137.33333333333331</ele><time>2026-03-29T10:51:39.275Z</time></trkpt><trkpt lat="45.4368231" lon="10.5268658"><ele>137.66666666666666</ele><time>2026-03-29T10:51:40.275Z</time></trkpt><trkpt lat="45.4368614" lon="10.5265975"><ele>138.0</ele><time>2026-03-29T10:51:41.276Z</time></trkpt><trkpt lat="45.4369095" lon="10.5263225"><ele>138.33333333333334</ele><time>2026-03-29T10:51:42.276Z</time></trkpt><trkpt lat="45.4369498" lon="10.5260594"><ele>138.66666666666669</ele><time>2026-03-29T10:51:43.276Z</time></trkpt><trkpt lat="45.4369887" lon="10.5257962"><ele>139.0</ele><time>2026-03-29T10:51:44.276Z</time></trkpt><trkpt lat="45.4370327" lon="10.5255385"><ele>139.0</ele><time>2026-03-29T10:51:45.275Z</time></trkpt><trkpt lat="45.4370797" lon="10.5252895"><ele>139.0</ele><time>2026-03-29T10:51:46.275Z</time></trkpt><trkpt lat="45.4371294" lon="10.5250252"><ele>139.0</ele><time>2026-03-29T10:51:47.276Z</time></trkpt><trkpt lat="45.4371722" lon="10.5247592"><ele>138.66666666666669</ele><time>2026-03-29T10:51:48.276Z</time></trkpt><trkpt lat="45.4372108" lon="10.5244999"><ele>138.33333333333334</ele><time>2026-03-29T10:51:49.276Z</time></trkpt><trkpt lat="45.4372378" lon="10.5242449"><ele>138.0</ele><time>2026-03-29T10:51:50.276Z</time></trkpt><trkpt lat="45.4372598" lon="10.523974"><ele>134.66666666666666</ele><time>2026-03-29T10:51:51.275Z</time></trkpt><trkpt lat="45.437283" lon="10.523693"><ele>131.33333333333331</ele><time>2026-03-29T10:51:52.276Z</time></trkpt><trkpt lat="45.4373008" lon="10.5234237"><ele>128.0</ele><time>2026-03-29T10:51:53.276Z</time></trkpt><trkpt lat="45.4373135" lon="10.5231458"><ele>126.66666666666666</ele><time>2026-03-29T10:51:54.275Z</time></trkpt><trkpt lat="45.4373223" lon="10.5228667"><ele>125.33333333333334</ele><time>2026-03-29T10:51:55.275Z</time></trkpt><trkpt lat="45.437325" lon="10.5225827"><ele>124.0</ele><time>2026-03-29T10:51:56.275Z</time></trkpt><trkpt lat="45.4373251" lon="10.5223053"><ele>124.0</ele><time>2026-03-29T10:51:57.274Z</time></trkpt><trkpt lat="45.4373322" lon="10.5220062"><ele>124.0</ele><time>2026-03-29T10:51:58.274Z</time></trkpt><trkpt lat="45.4373404" lon="10.5216981"><ele>124.0</ele><time>2026-03-29T10:51:59.275Z</time></trkpt><trkpt lat="45.4373453" lon="10.5213882"><ele>122.66666666666667</ele><time>2026-03-29T10:52:00.274Z</time></trkpt><trkpt lat="45.4373463" lon="10.5210888"><ele>121.33333333333334</ele><time>2026-03-29T10:52:01.275Z</time></trkpt><trkpt lat="45.4373474" lon="10.5208092"><ele>120.0</ele><time>2026-03-29T10:52:02.274Z</time></trkpt><trkpt lat="45.4373411" lon="10.5205404"><ele>120.0</ele><time>2026-03-29T10:52:03.275Z</time></trkpt><trkpt lat="45.4373381" lon="10.5202763"><ele>120.0</ele><time>2026-03-29T10:52:04.274Z</time></trkpt><trkpt lat="45.4373474" lon="10.5200236"><ele>120.0</ele><time>2026-03-29T10:52:05.274Z</time></trkpt><trkpt lat="45.437356" lon="10.5197896"><ele>120.0</ele><time>2026-03-29T10:52:06.275Z</time></trkpt><trkpt lat="45.4373599" lon="10.5195705"><ele>120.0</ele><time>2026-03-29T10:52:07.274Z</time></trkpt><trkpt lat="45.4373649" lon="10.5193706"><ele>120.0</ele><time>2026-03-29T10:52:08.274Z</time></trkpt><trkpt lat="45.4373658" lon="10.5191955"><ele>120.0</ele><time>2026-03-29T10:52:09.275Z</time></trkpt><trkpt lat="45.4373671" lon="10.5190301"><ele>120.6</ele><time>2026-03-29T10:52:10.274Z</time></trkpt><trkpt lat="45.4373673" lon="10.5188833"><ele>121.2</ele><time>2026-03-29T10:52:11.274Z</time></trkpt><trkpt lat="45.4373622" lon="10.5187626"><ele>121.80000000000001</ele><time>2026-03-29T10:52:12.274Z</time></trkpt><trkpt lat="45.4373658" lon="10.5186652"><ele>122.4</ele><time>2026-03-29T10:52:13.275Z</time></trkpt><trkpt lat="45.4373904" lon="10.5185284"><ele>123.0</ele><time>2026-03-29T10:52:15.275Z</time></trkpt><trkpt lat="45.4375158" lon="10.518488"><ele>123.33333333333334</ele><time>2026-03-29T10:52:17.274Z</time></trkpt><trkpt lat="45.4376465" lon="10.5184848"><ele>123.66666666666667</ele><time>2026-03-29T10:52:18.275Z</time></trkpt><trkpt lat="45.4378191" lon="10.5184842"><ele>124.0</ele><time>2026-03-29T10:52:19.274Z</time></trkpt><trkpt lat="45.4380101" lon="10.5184716"><ele>124.0</ele><time>2026-03-29T10:52:20.274Z</time></trkpt><trkpt lat="45.4382132" lon="10.5184525"><ele>124.0</ele><time>2026-03-29T10:52:21.275Z</time></trkpt><trkpt lat="45.4384324" lon="10.5184538"><ele>124.0</ele><time>2026-03-29T10:52:22.274Z</time></trkpt><trkpt lat="45.4386534" lon="10.5184667"><ele>124.66666666666667</ele><time>2026-03-29T10:52:23.275Z</time></trkpt><trkpt lat="45.4388655" lon="10.5184921"><ele>125.33333333333334</ele><time>2026-03-29T10:52:24.274Z</time></trkpt><trkpt lat="45.4390635" lon="10.5185259"><ele>126.0</ele><time>2026-03-29T10:52:25.274Z</time></trkpt><trkpt lat="45.4392354" lon="10.5185703"><ele>126.0</ele><time>2026-03-29T10:52:26.275Z</time></trkpt><trkpt lat="45.4393966" lon="10.518622"><ele>126.0</ele><time>2026-03-29T10:52:27.274Z</time></trkpt><trkpt lat="45.4395604" lon="10.5187001"><ele>126.0</ele><time>2026-03-29T10:52:28.275Z</time></trkpt><trkpt lat="45.4397274" lon="10.5188122"><ele>127.33333333333334</ele><time>2026-03-29T10:52:29.275Z</time></trkpt><trkpt lat="45.4398777" lon="10.5189375"><ele>128.66666666666669</ele><time>2026-03-29T10:52:30.275Z</time></trkpt><trkpt lat="45.440006" lon="10.519075"><ele>130.0</ele><time>2026-03-29T10:52:31.275Z</time></trkpt><trkpt lat="45.4401217" lon="10.5192421"><ele>130.0</ele><time>2026-03-29T10:52:32.275Z</time></trkpt><trkpt lat="45.4402264" lon="10.5194237"><ele>130.0</ele><time>2026-03-29T10:52:33.275Z</time></trkpt><trkpt lat="45.4403047" lon="10.5195948"><ele>130.0</ele><time>2026-03-29T10:52:34.274Z</time></trkpt><trkpt lat="45.4403693" lon="10.5197463"><ele>130.0</ele><time>2026-03-29T10:52:35.275Z</time></trkpt><trkpt lat="45.4404287" lon="10.5198653"><ele>130.4</ele><time>2026-03-29T10:52:36.275Z</time></trkpt><trkpt lat="45.4404829" lon="10.5199674"><ele>130.8</ele><time>2026-03-29T10:52:37.274Z</time></trkpt><trkpt lat="45.4405395" lon="10.5200521"><ele>131.2</ele><time>2026-03-29T10:52:38.274Z</time></trkpt><trkpt lat="45.4406" lon="10.5201329"><ele>131.6</ele><time>2026-03-29T10:52:39.274Z</time></trkpt><trkpt lat="45.4406763" lon="10.5202091"><ele>132.0</ele><time>2026-03-29T10:52:40.275Z</time></trkpt><trkpt lat="45.4407687" lon="10.5202706"><ele>132.0</ele><time>2026-03-29T10:52:41.274Z</time></trkpt><trkpt lat="45.4408753" lon="10.52031"><ele>132.0</ele><time>2026-03-29T10:52:42.274Z</time></trkpt><trkpt lat="45.440992" lon="10.5203295"><ele>132.0</ele><time>2026-03-29T10:52:43.275Z</time></trkpt><trkpt lat="45.4411138" lon="10.5203392"><ele>132.0</ele><time>2026-03-29T10:52:44.275Z</time></trkpt><trkpt lat="45.4412575" lon="10.520336"><ele>131.66666666666666</ele><time>2026-03-29T10:52:45.274Z</time></trkpt><trkpt lat="45.4414051" lon="10.5203328"><ele>131.33333333333331</ele><time>2026-03-29T10:52:46.275Z</time></trkpt><trkpt lat="45.4415627" lon="10.5203307"><ele>131.0</ele><time>2026-03-29T10:52:47.274Z</time></trkpt><trkpt lat="45.4417197" lon="10.5203281"><ele>131.0</ele><time>2026-03-29T10:52:48.275Z</time></trkpt><trkpt lat="45.4418727" lon="10.520326"><ele>131.0</ele><time>2026-03-29T10:52:49.274Z</time></trkpt><trkpt lat="45.4420183" lon="10.5203205"><ele>131.0</ele><time>2026-03-29T10:52:50.274Z</time></trkpt><trkpt lat="45.4421483" lon="10.5203187"><ele>131.0</ele><time>2026-03-29T10:52:51.275Z</time></trkpt><trkpt lat="45.4422838" lon="10.5203227"><ele>130.8</ele><time>2026-03-29T10:52:52.274Z</time></trkpt><trkpt lat="45.442394" lon="10.5203229"><ele>130.6</ele><time>2026-03-29T10:52:53.275Z</time></trkpt><trkpt lat="45.4424948" lon="10.5203225"><ele>130.4</ele><time>2026-03-29T10:52:54.274Z</time></trkpt><trkpt lat="45.4425989" lon="10.5203176"><ele>130.2</ele><time>2026-03-29T10:52:55.274Z</time></trkpt><trkpt lat="45.4426891" lon="10.5203129"><ele>130.0</ele><time>2026-03-29T10:52:56.274Z</time></trkpt><trkpt lat="45.4427668" lon="10.5203172"><ele>130.0</ele><time>2026-03-29T10:52:57.275Z</time></trkpt><trkpt lat="45.442836" lon="10.5203272"><ele>130.0</ele><time>2026-03-29T10:52:58.275Z</time></trkpt><trkpt lat="45.4429271" lon="10.5203428"><ele>130.0</ele><time>2026-03-29T10:53:00.275Z</time></trkpt><trkpt lat="45.4430299" lon="10.5203275"><ele>130.0</ele><time>2026-03-29T10:53:03.275Z</time></trkpt><trkpt lat="45.4431058" lon="10.5203255"><ele>130.0</ele><time>2026-03-29T10:53:04.275Z</time></trkpt><trkpt lat="45.4431919" lon="10.5203219"><ele>130.0</ele><time>2026-03-29T10:53:05.274Z</time></trkpt><trkpt lat="45.4432756" lon="10.5203242"><ele>130.4</ele><time>2026-03-29T10:53:06.274Z</time></trkpt><trkpt lat="45.4434103" lon="10.5202881"><ele>130.8</ele><time>2026-03-29T10:53:08.274Z</time></trkpt><trkpt lat="45.4435032" lon="10.5201884"><ele>131.2</ele><time>2026-03-29T10:53:10.274Z</time></trkpt><trkpt lat="45.4435357" lon="10.5201046"><ele>131.6</ele><time>2026-03-29T10:53:11.275Z</time></trkpt><trkpt lat="45.4435724" lon="10.520016"><ele>132.0</ele><time>2026-03-29T10:53:12.274Z</time></trkpt><trkpt lat="45.4436133" lon="10.5199358"><ele>132.0</ele><time>2026-03-29T10:53:13.274Z</time></trkpt><trkpt lat="45.4436767" lon="10.5198865"><ele>132.0</ele><time>2026-03-29T10:53:14.275Z</time></trkpt><trkpt lat="45.4437729" lon="10.5198678"><ele>132.0</ele><time>2026-03-29T10:53:15.275Z</time></trkpt><trkpt lat="45.4439021" lon="10.5198724"><ele>132.0</ele><time>2026-03-29T10:53:16.274Z</time></trkpt><trkpt lat="45.4440353" lon="10.5198718"><ele>132.0</ele><time>2026-03-29T10:53:17.275Z</time></trkpt><trkpt lat="45.4441553" lon="10.5198462"><ele>132.2</ele><time>2026-03-29T10:53:18.275Z</time></trkpt><trkpt lat="45.4442527" lon="10.5197813"><ele>132.39999999999998</ele><time>2026-03-29T10:53:19.274Z</time></trkpt><trkpt lat="45.4443068" lon="10.5196898"><ele>132.60000000000002</ele><time>2026-03-29T10:53:20.274Z</time></trkpt><trkpt lat="45.4443386" lon="10.5195551"><ele>132.8</ele><time>2026-03-29T10:53:21.274Z</time></trkpt><trkpt lat="45.4443539" lon="10.5194126"><ele>133.0</ele><time>2026-03-29T10:53:22.275Z</time></trkpt><trkpt lat="45.4443722" lon="10.5192854"><ele>133.16666666666669</ele><time>2026-03-29T10:53:23.274Z</time></trkpt><trkpt lat="45.4444038" lon="10.5191811"><ele>133.33333333333334</ele><time>2026-03-29T10:53:24.274Z</time></trkpt><trkpt lat="45.4444479" lon="10.5191075"><ele>133.5</ele><time>2026-03-29T10:53:25.274Z</time></trkpt><trkpt lat="45.4445144" lon="10.519074"><ele>133.66666666666666</ele><time>2026-03-29T10:53:26.274Z</time></trkpt><trkpt lat="45.4445999" lon="10.5190867"><ele>133.83333333333331</ele><time>2026-03-29T10:53:27.275Z</time></trkpt><trkpt lat="45.4447089" lon="10.5191468"><ele>134.0</ele><time>2026-03-29T10:53:28.275Z</time></trkpt><trkpt lat="45.4448487" lon="10.5192444"><ele>134.0</ele><time>2026-03-29T10:53:29.275Z</time></trkpt><trkpt lat="45.4449908" lon="10.5193305"><ele>134.0</ele><time>2026-03-29T10:53:30.275Z</time></trkpt><trkpt lat="45.4451368" lon="10.5194117"><ele>134.0</ele><time>2026-03-29T10:53:31.274Z</time></trkpt><trkpt lat="45.4452811" lon="10.5194885"><ele>134.0</ele><time>2026-03-29T10:53:32.275Z</time></trkpt><trkpt lat="45.4454134" lon="10.5195638"><ele>134.0</ele><time>2026-03-29T10:53:33.274Z</time></trkpt><trkpt lat="45.4455311" lon="10.5196295"><ele>134.0</ele><time>2026-03-29T10:53:34.274Z</time></trkpt><trkpt lat="45.4456338" lon="10.5196791"><ele>134.0</ele><time>2026-03-29T10:53:35.275Z</time></trkpt><trkpt lat="45.4457275" lon="10.5197124"><ele>133.83333333333331</ele><time>2026-03-29T10:53:36.275Z</time></trkpt><trkpt lat="45.4458038" lon="10.5197255"><ele>133.66666666666666</ele><time>2026-03-29T10:53:37.275Z</time></trkpt><trkpt lat="45.4459033" lon="10.51972"><ele>133.5</ele><time>2026-03-29T10:53:39.275Z</time></trkpt><trkpt lat="45.4459646" lon="10.5196671"><ele>133.33333333333334</ele><time>2026-03-29T10:53:42.275Z</time></trkpt><trkpt lat="45.4459375" lon="10.5195719"><ele>133.16666666666669</ele><time>2026-03-29T10:54:08.275Z</time></trkpt><trkpt lat="45.4459137" lon="10.5196578"><ele>133.0</ele><time>2026-03-29T10:54:11.275Z</time></trkpt><trkpt lat="45.4460128" lon="10.5198008"><ele>133.0</ele><time>2026-03-29T10:54:13.274Z</time></trkpt><trkpt lat="45.4460989" lon="10.5198834"><ele>133.0</ele><time>2026-03-29T10:54:14.275Z</time></trkpt><trkpt lat="45.4462048" lon="10.5199554"><ele>133.0</ele><time>2026-03-29T10:54:15.274Z</time></trkpt><trkpt lat="45.4463233" lon="10.5200033"><ele>133.0</ele><time>2026-03-29T10:54:16.274Z</time></trkpt><trkpt lat="45.4464511" lon="10.5200392"><ele>133.25</ele><time>2026-03-29T10:54:17.274Z</time></trkpt><trkpt lat="45.4465908" lon="10.5200759"><ele>133.5</ele><time>2026-03-29T10:54:18.275Z</time></trkpt><trkpt lat="45.446733" lon="10.5201106"><ele>133.75</ele><time>2026-03-29T10:54:19.275Z</time></trkpt><trkpt lat="45.4468869" lon="10.5201522"><ele>134.0</ele><time>2026-03-29T10:54:20.274Z</time></trkpt><trkpt lat="45.4470434" lon="10.5201921"><ele>134.0</ele><time>2026-03-29T10:54:21.275Z</time></trkpt><trkpt lat="45.4471958" lon="10.5202346"><ele>134.0</ele><time>2026-03-29T10:54:22.275Z</time></trkpt><trkpt lat="45.4473419" lon="10.5202739"><ele>134.0</ele><time>2026-03-29T10:54:23.274Z</time></trkpt><trkpt lat="45.4474647" lon="10.5203194"><ele>134.0</ele><time>2026-03-29T10:54:24.275Z</time></trkpt><trkpt lat="45.4475708" lon="10.5203665"><ele>134.0</ele><time>2026-03-29T10:54:25.275Z</time></trkpt><trkpt lat="45.4476745" lon="10.5204079"><ele>134.0</ele><time>2026-03-29T10:54:26.274Z</time></trkpt><trkpt lat="45.4477691" lon="10.5204316"><ele>134.0</ele><time>2026-03-29T10:54:27.274Z</time></trkpt><trkpt lat="45.4478579" lon="10.5204284"><ele>134.0</ele><time>2026-03-29T10:54:28.274Z</time></trkpt><trkpt lat="45.4479387" lon="10.5203848"><ele>134.0</ele><time>2026-03-29T10:54:29.275Z</time></trkpt><trkpt lat="45.4480204" lon="10.5203153"><ele>134.25</ele><time>2026-03-29T10:54:30.274Z</time></trkpt><trkpt lat="45.4481034" lon="10.5202103"><ele>134.5</ele><time>2026-03-29T10:54:31.275Z</time></trkpt><trkpt lat="45.4481902" lon="10.5200702"><ele>134.75</ele><time>2026-03-29T10:54:32.274Z</time></trkpt><trkpt lat="45.4482814" lon="10.5199101"><ele>135.0</ele><time>2026-03-29T10:54:33.274Z</time></trkpt><trkpt lat="45.4483641" lon="10.5197263"><ele>135.0</ele><time>2026-03-29T10:54:34.275Z</time></trkpt><trkpt lat="45.4484457" lon="10.5195615"><ele>135.0</ele><time>2026-03-29T10:54:35.275Z</time></trkpt><trkpt lat="45.4485177" lon="10.519416"><ele>135.0</ele><time>2026-03-29T10:54:36.275Z</time></trkpt><trkpt lat="45.4485865" lon="10.5192876"><ele>135.0</ele><time>2026-03-29T10:54:37.275Z</time></trkpt><trkpt lat="45.4486322" lon="10.5191632"><ele>135.0</ele><time>2026-03-29T10:54:38.275Z</time></trkpt><trkpt lat="45.4486398" lon="10.5190252"><ele>135.0</ele><time>2026-03-29T10:54:39.275Z</time></trkpt><trkpt lat="45.4486025" lon="10.5188665"><ele>135.0</ele><time>2026-03-29T10:54:40.275Z</time></trkpt><trkpt lat="45.4485392" lon="10.518691"><ele>135.0</ele><time>2026-03-29T10:54:41.274Z</time></trkpt><trkpt lat="45.4484772" lon="10.5185077"><ele>134.75</ele><time>2026-03-29T10:54:42.274Z</time></trkpt><trkpt lat="45.4484432" lon="10.5183213"><ele>134.5</ele><time>2026-03-29T10:54:43.274Z</time></trkpt><trkpt lat="45.4484333" lon="10.5181299"><ele>134.25</ele><time>2026-03-29T10:54:44.275Z</time></trkpt><trkpt lat="45.4484586" lon="10.517951"><ele>134.0</ele><time>2026-03-29T10:54:45.275Z</time></trkpt><trkpt lat="45.4485138" lon="10.5177855"><ele>134.0</ele><time>2026-03-29T10:54:46.275Z</time></trkpt><trkpt lat="45.4485928" lon="10.5176372"><ele>134.0</ele><time>2026-03-29T10:54:47.274Z</time></trkpt><trkpt lat="45.448691" lon="10.5175014"><ele>134.0</ele><time>2026-03-29T10:54:48.274Z</time></trkpt><trkpt lat="45.4488086" lon="10.5173853"><ele>134.0</ele><time>2026-03-29T10:54:49.274Z</time></trkpt><trkpt lat="45.4489465" lon="10.5172728"><ele>134.0</ele><time>2026-03-29T10:54:50.274Z</time></trkpt><trkpt lat="45.4490767" lon="10.5171534"><ele>134.0</ele><time>2026-03-29T10:54:51.275Z</time></trkpt><trkpt lat="45.4491908" lon="10.517009"><ele>134.0</ele><time>2026-03-29T10:54:52.275Z</time></trkpt><trkpt lat="45.4492778" lon="10.5168361"><ele>134.0</ele><time>2026-03-29T10:54:53.274Z</time></trkpt><trkpt lat="45.4493429" lon="10.5166659"><ele>134.0</ele><time>2026-03-29T10:54:54.274Z</time></trkpt><trkpt lat="45.4493913" lon="10.5165082"><ele>134.0</ele><time>2026-03-29T10:54:55.275Z</time></trkpt><trkpt lat="45.4494358" lon="10.5163514"><ele>134.0</ele><time>2026-03-29T10:54:56.274Z</time></trkpt><trkpt lat="45.449477" lon="10.5162061"><ele>133.75</ele><time>2026-03-29T10:54:57.274Z</time></trkpt><trkpt lat="45.4495036" lon="10.5160427"><ele>133.5</ele><time>2026-03-29T10:54:58.275Z</time></trkpt><trkpt lat="45.449533" lon="10.515866"><ele>133.25</ele><time>2026-03-29T10:54:59.274Z</time></trkpt><trkpt lat="45.4495848" lon="10.515693"><ele>133.0</ele><time>2026-03-29T10:55:00.274Z</time></trkpt><trkpt lat="45.4496559" lon="10.5155068"><ele>133.5</ele><time>2026-03-29T10:55:01.275Z</time></trkpt><trkpt lat="45.4497388" lon="10.5153195"><ele>134.0</ele><time>2026-03-29T10:55:02.274Z</time></trkpt><trkpt lat="45.4498204" lon="10.5151424"><ele>134.5</ele><time>2026-03-29T10:55:03.274Z</time></trkpt><trkpt lat="45.449872" lon="10.5149588"><ele>135.0</ele><time>2026-03-29T10:55:04.275Z</time></trkpt><trkpt lat="45.4499009" lon="10.5147478"><ele>135.33333333333334</ele><time>2026-03-29T10:55:05.274Z</time></trkpt><trkpt lat="45.4499169" lon="10.5145277"><ele>135.66666666666669</ele><time>2026-03-29T10:55:06.275Z</time></trkpt><trkpt lat="45.4499247" lon="10.5143028"><ele>136.0</ele><time>2026-03-29T10:55:07.275Z</time></trkpt><trkpt lat="45.4499307" lon="10.5140827"><ele>136.0</ele><time>2026-03-29T10:55:08.274Z</time></trkpt><trkpt lat="45.4499472" lon="10.5138564"><ele>136.0</ele><time>2026-03-29T10:55:09.275Z</time></trkpt><trkpt lat="45.4499667" lon="10.5136309"><ele>136.0</ele><time>2026-03-29T10:55:10.274Z</time></trkpt><trkpt lat="45.4499806" lon="10.5134107"><ele>136.75</ele><time>2026-03-29T10:55:11.275Z</time></trkpt><trkpt lat="45.4499888" lon="10.5132098"><ele>137.5</ele><time>2026-03-29T10:55:12.275Z</time></trkpt><trkpt lat="45.4499968" lon="10.5130201"><ele>138.25</ele><time>2026-03-29T10:55:13.275Z</time></trkpt><trkpt lat="45.4500098" lon="10.5128344"><ele>139.0</ele><time>2026-03-29T10:55:14.274Z</time></trkpt><trkpt lat="45.4500258" lon="10.5126634"><ele>139.2</ele><time>2026-03-29T10:55:15.275Z</time></trkpt><trkpt lat="45.4500418" lon="10.5125234"><ele>139.4</ele><time>2026-03-29T10:55:16.275Z</time></trkpt><trkpt lat="45.4500663" lon="10.5123872"><ele>139.6</ele><time>2026-03-29T10:55:17.275Z</time></trkpt><trkpt lat="45.4500956" lon="10.5122492"><ele>139.8</ele><time>2026-03-29T10:55:18.275Z</time></trkpt><trkpt lat="45.4501297" lon="10.5121135"><ele>140.0</ele><time>2026-03-29T10:55:19.274Z</time></trkpt><trkpt lat="45.4501591" lon="10.5119834"><ele>141.0</ele><time>2026-03-29T10:55:20.274Z</time></trkpt><trkpt lat="45.4501858" lon="10.5118474"><ele>142.0</ele><time>2026-03-29T10:55:21.275Z</time></trkpt><trkpt lat="45.4502103" lon="10.5117135"><ele>143.0</ele><time>2026-03-29T10:55:22.275Z</time></trkpt><trkpt lat="45.4502319" lon="10.5116033"><ele>144.0</ele><time>2026-03-29T10:55:23.275Z</time></trkpt><trkpt lat="45.450249" lon="10.5115038"><ele>145.0</ele><time>2026-03-29T10:55:24.275Z</time></trkpt><trkpt lat="45.4502848" lon="10.5113501"><ele>145.0</ele><time>2026-03-29T10:55:26.275Z</time></trkpt><trkpt lat="45.4503195" lon="10.5112638"><ele>145.0</ele><time>2026-03-29T10:55:28.275Z</time></trkpt><trkpt lat="45.4503983" lon="10.511193"><ele>145.0</ele><time>2026-03-29T10:55:31.274Z</time></trkpt><trkpt lat="45.4505558" lon="10.5112191"><ele>145.0</ele><time>2026-03-29T10:55:33.274Z</time></trkpt><trkpt lat="45.4506501" lon="10.5112591"><ele>145.0</ele><time>2026-03-29T10:55:34.274Z</time></trkpt><trkpt lat="45.4507288" lon="10.5113385"><ele>145.0</ele><time>2026-03-29T10:55:35.275Z</time></trkpt><trkpt lat="45.4507782" lon="10.5114067"><ele>145.0</ele><time>2026-03-29T10:55:36.274Z</time></trkpt><trkpt lat="45.4508527" lon="10.5114151"><ele>145.0</ele><time>2026-03-29T10:55:38.275Z</time></trkpt><trkpt lat="45.4508692" lon="10.5113076"><ele>145.0</ele><time>2026-03-29T10:55:40.273Z</time></trkpt><trkpt lat="45.4508429" lon="10.5112165"><ele>145.0</ele><time>2026-03-29T10:55:41.274Z</time></trkpt><trkpt lat="45.4508182" lon="10.5111069"><ele>145.0</ele><time>2026-03-29T10:55:42.273Z</time></trkpt><trkpt lat="45.4507973" lon="10.5109716"><ele>146.25</ele><time>2026-03-29T10:55:43.274Z</time></trkpt><trkpt lat="45.4507928" lon="10.5108119"><ele>147.5</ele><time>2026-03-29T10:55:44.273Z</time></trkpt><trkpt lat="45.4508009" lon="10.5106465"><ele>148.75</ele><time>2026-03-29T10:55:45.273Z</time></trkpt><trkpt lat="45.450817" lon="10.5104866"><ele>150.0</ele><time>2026-03-29T10:55:46.274Z</time></trkpt><trkpt lat="45.4508344" lon="10.5103245"><ele>151.75</ele><time>2026-03-29T10:55:47.273Z</time></trkpt><trkpt lat="45.4508519" lon="10.510164"><ele>153.5</ele><time>2026-03-29T10:55:48.273Z</time></trkpt><trkpt lat="45.4508688" lon="10.509994"><ele>155.25</ele><time>2026-03-29T10:55:49.274Z</time></trkpt><trkpt lat="45.4508853" lon="10.5098216"><ele>157.0</ele><time>2026-03-29T10:55:50.274Z</time></trkpt><trkpt lat="45.4508961" lon="10.5096448"><ele>158.0</ele><time>2026-03-29T10:55:51.273Z</time></trkpt><trkpt lat="45.4509067" lon="10.5094639"><ele>159.0</ele><time>2026-03-29T10:55:52.273Z</time></trkpt><trkpt lat="45.4509183" lon="10.5092649"><ele>160.0</ele><time>2026-03-29T10:55:53.274Z</time></trkpt><trkpt lat="45.4509318" lon="10.5090519"><ele>161.0</ele><time>2026-03-29T10:55:54.273Z</time></trkpt><trkpt lat="45.4509531" lon="10.5088397"><ele>161.5</ele><time>2026-03-29T10:55:55.273Z</time></trkpt><trkpt lat="45.4509822" lon="10.5086253"><ele>162.0</ele><time>2026-03-29T10:55:56.273Z</time></trkpt><trkpt lat="45.4510056" lon="10.5084254"><ele>162.5</ele><time>2026-03-29T10:55:57.274Z</time></trkpt><trkpt lat="45.4510228" lon="10.5082528"><ele>163.0</ele><time>2026-03-29T10:55:58.274Z</time></trkpt><trkpt lat="45.4510602" lon="10.5080961"><ele>163.0</ele><time>2026-03-29T10:55:59.273Z</time></trkpt><trkpt lat="45.4511059" lon="10.5079461"><ele>163.0</ele><time>2026-03-29T10:56:00.273Z</time></trkpt><trkpt lat="45.4511771" lon="10.5077956"><ele>163.0</ele><time>2026-03-29T10:56:01.274Z</time></trkpt><trkpt lat="45.4512554" lon="10.5076288"><ele>163.0</ele><time>2026-03-29T10:56:02.274Z</time></trkpt><trkpt lat="45.4513155" lon="10.5074517"><ele>167.33333333333334</ele><time>2026-03-29T10:56:03.273Z</time></trkpt><trkpt lat="45.4513695" lon="10.5072594"><ele>171.66666666666666</ele><time>2026-03-29T10:56:04.273Z</time></trkpt><trkpt lat="45.4514219" lon="10.507056"><ele>176.0</ele><time>2026-03-29T10:56:05.274Z</time></trkpt><trkpt lat="45.4514732" lon="10.5068464"><ele>177.33333333333331</ele><time>2026-03-29T10:56:06.273Z</time></trkpt><trkpt lat="45.4515173" lon="10.5066354"><ele>178.66666666666666</ele><time>2026-03-29T10:56:07.273Z</time></trkpt><trkpt lat="45.4515629" lon="10.5064289"><ele>180.0</ele><time>2026-03-29T10:56:08.274Z</time></trkpt><trkpt lat="45.4516099" lon="10.5062168"><ele>181.0</ele><time>2026-03-29T10:56:09.273Z</time></trkpt><trkpt lat="45.4516564" lon="10.5060021"><ele>182.0</ele><time>2026-03-29T10:56:10.273Z</time></trkpt><trkpt lat="45.4516989" lon="10.5057954"><ele>183.0</ele><time>2026-03-29T10:56:11.274Z</time></trkpt><trkpt lat="45.4517637" lon="10.5055954"><ele>181.66666666666666</ele><time>2026-03-29T10:56:12.274Z</time></trkpt><trkpt lat="45.4518645" lon="10.5053791"><ele>180.33333333333331</ele><time>2026-03-29T10:56:13.274Z</time></trkpt><trkpt lat="45.4519804" lon="10.5051523"><ele>179.0</ele><time>2026-03-29T10:56:14.273Z</time></trkpt><trkpt lat="45.4520821" lon="10.5049172"><ele>181.33333333333331</ele><time>2026-03-29T10:56:15.273Z</time></trkpt><trkpt lat="45.4521596" lon="10.5046535"><ele>183.66666666666666</ele><time>2026-03-29T10:56:16.274Z</time></trkpt><trkpt lat="45.45221" lon="10.5043821"><ele>186.0</ele><time>2026-03-29T10:56:17.273Z</time></trkpt><trkpt lat="45.4522405" lon="10.5041081"><ele>186.0</ele><time>2026-03-29T10:56:18.274Z</time></trkpt><trkpt lat="45.4522548" lon="10.5038324"><ele>186.0</ele><time>2026-03-29T10:56:19.273Z</time></trkpt><trkpt lat="45.4522779" lon="10.5035978"><ele>186.0</ele><time>2026-03-29T10:56:20.273Z</time></trkpt><trkpt lat="45.4522925" lon="10.5033843"><ele>186.0</ele><time>2026-03-29T10:56:21.273Z</time></trkpt><trkpt lat="45.4523006" lon="10.5031705"><ele>186.0</ele><time>2026-03-29T10:56:22.274Z</time></trkpt><trkpt lat="45.4523182" lon="10.5029576"><ele>186.0</ele><time>2026-03-29T10:56:23.274Z</time></trkpt><trkpt lat="45.4523601" lon="10.5027543"><ele>186.0</ele><time>2026-03-29T10:56:24.274Z</time></trkpt><trkpt lat="45.4524197" lon="10.5025709"><ele>185.66666666666666</ele><time>2026-03-29T10:56:25.274Z</time></trkpt><trkpt lat="45.4525067" lon="10.5023956"><ele>185.33333333333331</ele><time>2026-03-29T10:56:26.273Z</time></trkpt><trkpt lat="45.4526144" lon="10.5022371"><ele>185.0</ele><time>2026-03-29T10:56:27.273Z</time></trkpt><trkpt lat="45.4527314" lon="10.5020697"><ele>184.33333333333331</ele><time>2026-03-29T10:56:28.273Z</time></trkpt><trkpt lat="45.452854" lon="10.5018987"><ele>183.66666666666666</ele><time>2026-03-29T10:56:29.274Z</time></trkpt><trkpt lat="45.4529792" lon="10.5017058"><ele>183.0</ele><time>2026-03-29T10:56:30.274Z</time></trkpt><trkpt lat="45.4531072" lon="10.501516"><ele>182.33333333333334</ele><time>2026-03-29T10:56:31.273Z</time></trkpt><trkpt lat="45.4532371" lon="10.501308"><ele>181.66666666666669</ele><time>2026-03-29T10:56:32.274Z</time></trkpt><trkpt lat="45.4533474" lon="10.5010948"><ele>181.0</ele><time>2026-03-29T10:56:33.273Z</time></trkpt><trkpt lat="45.4534472" lon="10.5008644"><ele>181.0</ele><time>2026-03-29T10:56:34.273Z</time></trkpt><trkpt lat="45.4535356" lon="10.5006324"><ele>181.0</ele><time>2026-03-29T10:56:35.273Z</time></trkpt><trkpt lat="45.4536075" lon="10.50041"><ele>181.0</ele><time>2026-03-29T10:56:36.273Z</time></trkpt><trkpt lat="45.453665" lon="10.5001828"><ele>182.0</ele><time>2026-03-29T10:56:37.274Z</time></trkpt><trkpt lat="45.4537138" lon="10.4999678"><ele>183.0</ele><time>2026-03-29T10:56:38.273Z</time></trkpt><trkpt lat="45.4537667" lon="10.4997711"><ele>184.0</ele><time>2026-03-29T10:56:39.274Z</time></trkpt><trkpt lat="45.4538402" lon="10.4995832"><ele>184.66666666666669</ele><time>2026-03-29T10:56:40.274Z</time></trkpt><trkpt lat="45.4539355" lon="10.4993981"><ele>185.33333333333334</ele><time>2026-03-29T10:56:41.274Z</time></trkpt><trkpt lat="45.4540283" lon="10.4992297"><ele>186.0</ele><time>2026-03-29T10:56:42.274Z</time></trkpt><trkpt lat="45.4541271" lon="10.4990711"><ele>186.0</ele><time>2026-03-29T10:56:43.274Z</time></trkpt><trkpt lat="45.4542305" lon="10.4989168"><ele>186.0</ele><time>2026-03-29T10:56:44.274Z</time></trkpt><trkpt lat="45.4543456" lon="10.4987692"><ele>186.0</ele><time>2026-03-29T10:56:45.273Z</time></trkpt><trkpt lat="45.4544677" lon="10.4986425"><ele>186.0</ele><time>2026-03-29T10:56:46.273Z</time></trkpt><trkpt lat="45.4545972" lon="10.4985092"><ele>186.0</ele><time>2026-03-29T10:56:47.273Z</time></trkpt><trkpt lat="45.454721" lon="10.4983785"><ele>186.0</ele><time>2026-03-29T10:56:48.274Z</time></trkpt><trkpt lat="45.4548295" lon="10.4982263"><ele>185.66666666666666</ele><time>2026-03-29T10:56:49.273Z</time></trkpt><trkpt lat="45.4549341" lon="10.4980562"><ele>185.33333333333331</ele><time>2026-03-29T10:56:50.273Z</time></trkpt><trkpt lat="45.4550259" lon="10.4978772"><ele>185.0</ele><time>2026-03-29T10:56:51.274Z</time></trkpt><trkpt lat="45.4550975" lon="10.4976755"><ele>183.66666666666666</ele><time>2026-03-29T10:56:52.273Z</time></trkpt><trkpt lat="45.4551452" lon="10.4974562"><ele>182.33333333333334</ele><time>2026-03-29T10:56:53.273Z</time></trkpt><trkpt lat="45.455181" lon="10.4972122"><ele>181.0</ele><time>2026-03-29T10:56:54.273Z</time></trkpt><trkpt lat="45.4552127" lon="10.4969753"><ele>179.66666666666669</ele><time>2026-03-29T10:56:55.273Z</time></trkpt><trkpt lat="45.4552489" lon="10.4967485"><ele>178.33333333333334</ele><time>2026-03-29T10:56:56.274Z</time></trkpt><trkpt lat="45.455293" lon="10.4965235"><ele>177.0</ele><time>2026-03-29T10:56:57.274Z</time></trkpt><trkpt lat="45.4553371" lon="10.4962925"><ele>177.0</ele><time>2026-03-29T10:56:58.274Z</time></trkpt><trkpt lat="45.4553846" lon="10.4960671"><ele>177.0</ele><time>2026-03-29T10:56:59.274Z</time></trkpt><trkpt lat="45.455437" lon="10.4958469"><ele>177.0</ele><time>2026-03-29T10:57:00.273Z</time></trkpt><trkpt lat="45.4554813" lon="10.4956054"><ele>176.33333333333334</ele><time>2026-03-29T10:57:01.273Z</time></trkpt><trkpt lat="45.4555202" lon="10.4953518"><ele>175.66666666666669</ele><time>2026-03-29T10:57:02.274Z</time></trkpt><trkpt lat="45.455541" lon="10.4951062"><ele>175.0</ele><time>2026-03-29T10:57:03.274Z</time></trkpt><trkpt lat="45.4555516" lon="10.4948764"><ele>175.0</ele><time>2026-03-29T10:57:04.274Z</time></trkpt><trkpt lat="45.4555689" lon="10.4946498"><ele>175.0</ele><time>2026-03-29T10:57:05.274Z</time></trkpt><trkpt lat="45.4555885" lon="10.494424"><ele>175.0</ele><time>2026-03-29T10:57:06.274Z</time></trkpt><trkpt lat="45.4556141" lon="10.4941905"><ele>174.75</ele><time>2026-03-29T10:57:07.273Z</time></trkpt><trkpt lat="45.4556451" lon="10.4939634"><ele>174.5</ele><time>2026-03-29T10:57:08.273Z</time></trkpt><trkpt lat="45.455674" lon="10.4937755"><ele>174.25</ele><time>2026-03-29T10:57:09.274Z</time></trkpt><trkpt lat="45.4557152" lon="10.493599"><ele>174.0</ele><time>2026-03-29T10:57:10.274Z</time></trkpt><trkpt lat="45.4557712" lon="10.4934221"><ele>173.0</ele><time>2026-03-29T10:57:11.274Z</time></trkpt><trkpt lat="45.4558347" lon="10.4932409"><ele>172.0</ele><time>2026-03-29T10:57:12.273Z</time></trkpt><trkpt lat="45.4559008" lon="10.4930678"><ele>171.0</ele><time>2026-03-29T10:57:13.274Z</time></trkpt><trkpt lat="45.4559726" lon="10.4929038"><ele>170.0</ele><time>2026-03-29T10:57:14.273Z</time></trkpt><trkpt lat="45.4560477" lon="10.4927457"><ele>169.25</ele><time>2026-03-29T10:57:15.273Z</time></trkpt><trkpt lat="45.4561177" lon="10.4925904"><ele>168.5</ele><time>2026-03-29T10:57:16.273Z</time></trkpt><trkpt lat="45.4561694" lon="10.4924374"><ele>167.75</ele><time>2026-03-29T10:57:17.273Z</time></trkpt><trkpt lat="45.4562058" lon="10.4922928"><ele>167.0</ele><time>2026-03-29T10:57:18.274Z</time></trkpt><trkpt lat="45.4562213" lon="10.4921487"><ele>166.16666666666666</ele><time>2026-03-29T10:57:19.274Z</time></trkpt><trkpt lat="45.4562282" lon="10.4920195"><ele>165.33333333333331</ele><time>2026-03-29T10:57:20.274Z</time></trkpt><trkpt lat="45.4562338" lon="10.4919162"><ele>164.5</ele><time>2026-03-29T10:57:21.273Z</time></trkpt><trkpt lat="45.4562306" lon="10.4918255"><ele>163.66666666666666</ele><time>2026-03-29T10:57:22.274Z</time></trkpt><trkpt lat="45.4562168" lon="10.4917232"><ele>162.83333333333334</ele><time>2026-03-29T10:57:24.273Z</time></trkpt><trkpt lat="45.4561904" lon="10.4916333"><ele>162.0</ele><time>2026-03-29T10:57:53.274Z</time></trkpt><trkpt lat="45.4561926" lon="10.4914451"><ele>162.0</ele><time>2026-03-29T10:57:55.274Z</time></trkpt><trkpt lat="45.4562161" lon="10.4913309"><ele>162.0</ele><time>2026-03-29T10:57:56.274Z</time></trkpt><trkpt lat="45.4562535" lon="10.4912071"><ele>162.0</ele><time>2026-03-29T10:57:57.274Z</time></trkpt><trkpt lat="45.4563097" lon="10.4910925"><ele>162.0</ele><time>2026-03-29T10:57:58.274Z</time></trkpt><trkpt lat="45.4563792" lon="10.4909835"><ele>162.0</ele><time>2026-03-29T10:57:59.274Z</time></trkpt><trkpt lat="45.45645" lon="10.4908838"><ele>161.8</ele><time>2026-03-29T10:58:00.274Z</time></trkpt><trkpt lat="45.456523" lon="10.4907872"><ele>161.6</ele><time>2026-03-29T10:58:01.274Z</time></trkpt><trkpt lat="45.4566012" lon="10.4906943"><ele>161.4</ele><time>2026-03-29T10:58:02.273Z</time></trkpt><trkpt lat="45.4566821" lon="10.4906015"><ele>161.20000000000002</ele><time>2026-03-29T10:58:03.274Z</time></trkpt><trkpt lat="45.4567681" lon="10.4905107"><ele>161.0</ele><time>2026-03-29T10:58:04.273Z</time></trkpt><trkpt lat="45.4568568" lon="10.490423"><ele>161.0</ele><time>2026-03-29T10:58:05.273Z</time></trkpt><trkpt lat="45.4569446" lon="10.4903362"><ele>161.0</ele><time>2026-03-29T10:58:06.274Z</time></trkpt><trkpt lat="45.4570304" lon="10.490246"><ele>161.0</ele><time>2026-03-29T10:58:07.274Z</time></trkpt><trkpt lat="45.4571101" lon="10.4901602"><ele>161.0</ele><time>2026-03-29T10:58:08.274Z</time></trkpt><trkpt lat="45.4571811" lon="10.4900848"><ele>161.0</ele><time>2026-03-29T10:58:09.274Z</time></trkpt><trkpt lat="45.4572424" lon="10.4900163"><ele>161.5</ele><time>2026-03-29T10:58:10.273Z</time></trkpt><trkpt lat="45.4573129" lon="10.4899127"><ele>162.0</ele><time>2026-03-29T10:58:12.274Z</time></trkpt><trkpt lat="45.4574053" lon="10.4898466"><ele>162.5</ele><time>2026-03-29T10:58:25.274Z</time></trkpt><trkpt lat="45.4574643" lon="10.4898138"><ele>163.0</ele><time>2026-03-29T10:58:26.273Z</time></trkpt><trkpt lat="45.4575253" lon="10.4897705"><ele>163.5</ele><time>2026-03-29T10:58:27.273Z</time></trkpt><trkpt lat="45.4575934" lon="10.4897291"><ele>164.0</ele><time>2026-03-29T10:58:28.273Z</time></trkpt><trkpt lat="45.4576674" lon="10.4896763"><ele>164.0</ele><time>2026-03-29T10:58:29.274Z</time></trkpt><trkpt lat="45.4577532" lon="10.4896342"><ele>164.0</ele><time>2026-03-29T10:58:30.273Z</time></trkpt><trkpt lat="45.4578306" lon="10.4895925"><ele>164.0</ele><time>2026-03-29T10:58:31.273Z</time></trkpt><trkpt lat="45.457905" lon="10.4895425"><ele>164.0</ele><time>2026-03-29T10:58:32.274Z</time></trkpt><trkpt lat="45.4579706" lon="10.4894952"><ele>164.0</ele><time>2026-03-29T10:58:33.274Z</time></trkpt><trkpt lat="45.4580755" lon="10.4894278"><ele>164.0</ele><time>2026-03-29T10:58:35.273Z</time></trkpt><trkpt lat="45.4581778" lon="10.4893667"><ele>163.79999999999998</ele><time>2026-03-29T10:58:37.274Z</time></trkpt><trkpt lat="45.4582906" lon="10.4892977"><ele>163.6</ele><time>2026-03-29T10:58:39.274Z</time></trkpt><trkpt lat="45.4583521" lon="10.4892594"><ele>163.4</ele><time>2026-03-29T10:58:40.274Z</time></trkpt><trkpt lat="45.458423" lon="10.4892258"><ele>163.2</ele><time>2026-03-29T10:58:41.274Z</time></trkpt><trkpt lat="45.4585116" lon="10.4891756"><ele>163.0</ele><time>2026-03-29T10:58:42.273Z</time></trkpt><trkpt lat="45.4586127" lon="10.4891293"><ele>163.0</ele><time>2026-03-29T10:58:43.274Z</time></trkpt><trkpt lat="45.4587217" lon="10.4890908"><ele>163.0</ele><time>2026-03-29T10:58:44.273Z</time></trkpt><trkpt lat="45.458837" lon="10.4890611"><ele>163.0</ele><time>2026-03-29T10:58:45.273Z</time></trkpt><trkpt lat="45.4589615" lon="10.4890303"><ele>163.0</ele><time>2026-03-29T10:58:46.273Z</time></trkpt><trkpt lat="45.4590942" lon="10.4890052"><ele>162.75</ele><time>2026-03-29T10:58:47.274Z</time></trkpt><trkpt lat="45.4592254" lon="10.4890152"><ele>162.5</ele><time>2026-03-29T10:58:48.273Z</time></trkpt><trkpt lat="45.4593669" lon="10.489047"><ele>162.25</ele><time>2026-03-29T10:58:49.273Z</time></trkpt><trkpt lat="45.459513" lon="10.4890878"><ele>162.0</ele><time>2026-03-29T10:58:50.274Z</time></trkpt><trkpt lat="45.4596512" lon="10.4891389"><ele>162.0</ele><time>2026-03-29T10:58:51.274Z</time></trkpt><trkpt lat="45.4597848" lon="10.4892011"><ele>162.0</ele><time>2026-03-29T10:58:52.274Z</time></trkpt><trkpt lat="45.4599097" lon="10.4892737"><ele>162.0</ele><time>2026-03-29T10:58:53.273Z</time></trkpt><trkpt lat="45.4600193" lon="10.4893457"><ele>162.0</ele><time>2026-03-29T10:58:54.273Z</time></trkpt><trkpt lat="45.4601269" lon="10.489447"><ele>162.0</ele><time>2026-03-29T10:58:55.274Z</time></trkpt><trkpt lat="45.4602202" lon="10.4895559"><ele>162.0</ele><time>2026-03-29T10:58:56.274Z</time></trkpt><trkpt lat="45.4603018" lon="10.4896612"><ele>162.0</ele><time>2026-03-29T10:58:57.274Z</time></trkpt><trkpt lat="45.4603764" lon="10.4897645"><ele>162.0</ele><time>2026-03-29T10:58:58.274Z</time></trkpt><trkpt lat="45.46044" lon="10.4898666"><ele>162.0</ele><time>2026-03-29T10:58:59.274Z</time></trkpt><trkpt lat="45.4604956" lon="10.4899756"><ele>161.83333333333334</ele><time>2026-03-29T10:59:00.273Z</time></trkpt><trkpt lat="45.4605445" lon="10.4900761"><ele>161.66666666666666</ele><time>2026-03-29T10:59:01.274Z</time></trkpt><trkpt lat="45.4605828" lon="10.4901664"><ele>161.5</ele><time>2026-03-29T10:59:02.274Z</time></trkpt><trkpt lat="45.460618" lon="10.4902437"><ele>161.33333333333331</ele><time>2026-03-29T10:59:03.274Z</time></trkpt><trkpt lat="45.4606629" lon="10.4903554"><ele>161.16666666666666</ele><time>2026-03-29T10:59:05.274Z</time></trkpt><trkpt lat="45.4606688" lon="10.4904579"><ele>161.0</ele><time>2026-03-29T10:59:07.273Z</time></trkpt><trkpt lat="45.4606778" lon="10.4906326"><ele>161.5</ele><time>2026-03-29T10:59:09.274Z</time></trkpt><trkpt lat="45.4606634" lon="10.4907322"><ele>162.0</ele><time>2026-03-29T10:59:10.273Z</time></trkpt><trkpt lat="45.4606343" lon="10.4908253"><ele>162.5</ele><time>2026-03-29T10:59:11.273Z</time></trkpt><trkpt lat="45.4605913" lon="10.4908972"><ele>163.0</ele><time>2026-03-29T10:59:12.273Z</time></trkpt><trkpt lat="45.4604901" lon="10.490917"><ele>163.5</ele><time>2026-03-29T10:59:14.273Z</time></trkpt><trkpt lat="45.460431" lon="10.4908192"><ele>164.0</ele><time>2026-03-29T10:59:16.272Z</time></trkpt><trkpt lat="45.4604462" lon="10.490631"><ele>163.99999999999997</ele><time>2026-03-29T10:59:18.273Z</time></trkpt><trkpt lat="45.4604659" lon="10.4905273"><ele>164.0</ele><time>2026-03-29T10:59:19.273Z</time></trkpt><trkpt lat="45.460476" lon="10.4904367"><ele>164.0</ele><time>2026-03-29T10:59:20.273Z</time></trkpt><trkpt lat="45.460472" lon="10.490323"><ele>164.0</ele><time>2026-03-29T10:59:22.272Z</time></trkpt><trkpt lat="45.4604532" lon="10.4902351"><ele>164.0</ele><time>2026-03-29T10:59:25.272Z</time></trkpt><trkpt lat="45.4604174" lon="10.4901475"><ele>163.99999999999997</ele><time>2026-03-29T10:59:28.273Z</time></trkpt><trkpt lat="45.4603584" lon="10.4901094"><ele>164.0</ele><time>2026-03-29T10:59:32.273Z</time></trkpt><trkpt lat="45.4602539" lon="10.4901482"><ele>164.2</ele><time>2026-03-29T11:02:51.271Z</time></trkpt><trkpt lat="45.4601774" lon="10.4902297"><ele>164.39999999999998</ele><time>2026-03-29T11:02:53.271Z</time></trkpt><trkpt lat="45.4601447" lon="10.4903797"><ele>164.6</ele><time>2026-03-29T11:02:55.272Z</time></trkpt><trkpt lat="45.4601309" lon="10.4905605"><ele>164.8</ele><time>2026-03-29T11:02:57.271Z</time></trkpt><trkpt lat="45.4601309" lon="10.4906578"><ele>165.0</ele><time>2026-03-29T11:02:58.272Z</time></trkpt><trkpt lat="45.4601459" lon="10.4907481"><ele>164.8</ele><time>2026-03-29T11:02:59.272Z</time></trkpt><trkpt lat="45.4602101" lon="10.4908506"><ele>164.6</ele><time>2026-03-29T11:03:01.272Z</time></trkpt><trkpt lat="45.4603011" lon="10.4908765"><ele>164.39999999999998</ele><time>2026-03-29T11:03:03.271Z</time></trkpt><trkpt lat="45.4603802" lon="10.4908777"><ele>164.2</ele><time>2026-03-29T11:03:06.272Z</time></trkpt><trkpt lat="45.4604888" lon="10.4908877"><ele>164.0</ele><time>2026-03-29T11:03:09.272Z</time></trkpt><trkpt lat="45.4605818" lon="10.4909337"><ele>164.0</ele><time>2026-03-29T11:03:11.272Z</time></trkpt><trkpt lat="45.4606786" lon="10.4910268"><ele>164.0</ele><time>2026-03-29T11:03:13.272Z</time></trkpt><trkpt lat="45.4607483" lon="10.4910861"><ele>164.0</ele><time>2026-03-29T11:03:14.272Z</time></trkpt><trkpt lat="45.4608249" lon="10.4911283"><ele>164.0</ele><time>2026-03-29T11:03:15.272Z</time></trkpt><trkpt lat="45.4609024" lon="10.4911403"><ele>164.0</ele><time>2026-03-29T11:03:16.271Z</time></trkpt><trkpt lat="45.460989" lon="10.4911141"><ele>164.0</ele><time>2026-03-29T11:03:17.272Z</time></trkpt><trkpt lat="45.4610702" lon="10.4910513"><ele>164.0</ele><time>2026-03-29T11:03:18.272Z</time></trkpt><trkpt lat="45.4611291" lon="10.4909276"><ele>164.0</ele><time>2026-03-29T11:03:19.272Z</time></trkpt><trkpt lat="45.4611672" lon="10.4907585"><ele>164.0</ele><time>2026-03-29T11:03:20.271Z</time></trkpt><trkpt lat="45.4612004" lon="10.4905826"><ele>164.0</ele><time>2026-03-29T11:03:21.272Z</time></trkpt><trkpt lat="45.4612427" lon="10.4904122"><ele>164.5</ele><time>2026-03-29T11:03:22.272Z</time></trkpt><trkpt lat="45.4613086" lon="10.4902413"><ele>165.0</ele><time>2026-03-29T11:03:23.271Z</time></trkpt><trkpt lat="45.461381" lon="10.4900841"><ele>165.5</ele><time>2026-03-29T11:03:24.27Z</time></trkpt><trkpt lat="45.4614555" lon="10.4899696"><ele>166.0</ele><time>2026-03-29T11:03:25.271Z</time></trkpt><trkpt lat="45.4615307" lon="10.4898737"><ele>166.0</ele><time>2026-03-29T11:03:26.272Z</time></trkpt><trkpt lat="45.4616205" lon="10.4898032"><ele>166.0</ele><time>2026-03-29T11:03:27.271Z</time></trkpt><trkpt lat="45.4617277" lon="10.4897613"><ele>166.0</ele><time>2026-03-29T11:03:28.271Z</time></trkpt><trkpt lat="45.4618405" lon="10.4897491"><ele>166.0</ele><time>2026-03-29T11:03:29.272Z</time></trkpt><trkpt lat="45.4619674" lon="10.4897627"><ele>166.0</ele><time>2026-03-29T11:03:30.272Z</time></trkpt><trkpt lat="45.4620961" lon="10.4898118"><ele>166.0</ele><time>2026-03-29T11:03:31.271Z</time></trkpt><trkpt lat="45.462229" lon="10.4899107"><ele>166.0</ele><time>2026-03-29T11:03:32.272Z</time></trkpt><trkpt lat="45.4623666" lon="10.4900229"><ele>166.0</ele><time>2026-03-29T11:03:33.272Z</time></trkpt><trkpt lat="45.4625085" lon="10.4901251"><ele>166.66666666666669</ele><time>2026-03-29T11:03:34.272Z</time></trkpt><trkpt lat="45.46265" lon="10.4901924"><ele>167.33333333333334</ele><time>2026-03-29T11:03:35.271Z</time></trkpt><trkpt lat="45.4627964" lon="10.4902103"><ele>168.0</ele><time>2026-03-29T11:03:36.271Z</time></trkpt><trkpt lat="45.46295" lon="10.4901691"><ele>168.0</ele><time>2026-03-29T11:03:37.272Z</time></trkpt><trkpt lat="45.4631109" lon="10.4900706"><ele>168.0</ele><time>2026-03-29T11:03:38.272Z</time></trkpt><trkpt lat="45.4632747" lon="10.4899434"><ele>168.0</ele><time>2026-03-29T11:03:39.271Z</time></trkpt><trkpt lat="45.4634415" lon="10.4897975"><ele>168.0</ele><time>2026-03-29T11:03:40.271Z</time></trkpt><trkpt lat="45.4636163" lon="10.4896538"><ele>168.0</ele><time>2026-03-29T11:03:41.271Z</time></trkpt><trkpt lat="45.4637785" lon="10.4895125"><ele>168.0</ele><time>2026-03-29T11:03:42.272Z</time></trkpt><trkpt lat="45.4639445" lon="10.4893773"><ele>168.0</ele><time>2026-03-29T11:03:43.272Z</time></trkpt><trkpt lat="45.4641079" lon="10.4892479"><ele>168.0</ele><time>2026-03-29T11:03:44.272Z</time></trkpt><trkpt lat="45.4642794" lon="10.489106"><ele>168.0</ele><time>2026-03-29T11:03:45.271Z</time></trkpt><trkpt lat="45.4644571" lon="10.4889876"><ele>167.0</ele><time>2026-03-29T11:03:46.272Z</time></trkpt><trkpt lat="45.4646402" lon="10.488897"><ele>166.0</ele><time>2026-03-29T11:03:47.272Z</time></trkpt><trkpt lat="45.4648441" lon="10.4888373"><ele>165.0</ele><time>2026-03-29T11:03:48.272Z</time></trkpt><trkpt lat="45.4650511" lon="10.4887945"><ele>165.0</ele><time>2026-03-29T11:03:49.272Z</time></trkpt><trkpt lat="45.4652563" lon="10.4887837"><ele>165.0</ele><time>2026-03-29T11:03:50.272Z</time></trkpt><trkpt lat="45.4654533" lon="10.4887977"><ele>165.0</ele><time>2026-03-29T11:03:51.272Z</time></trkpt><trkpt lat="45.465654" lon="10.4888306"><ele>163.0</ele><time>2026-03-29T11:03:52.272Z</time></trkpt><trkpt lat="45.4658591" lon="10.4888751"><ele>161.0</ele><time>2026-03-29T11:03:53.272Z</time></trkpt><trkpt lat="45.4660603" lon="10.4889181"><ele>159.0</ele><time>2026-03-29T11:03:54.272Z</time></trkpt><trkpt lat="45.466258" lon="10.4889664"><ele>161.33333333333334</ele><time>2026-03-29T11:03:55.272Z</time></trkpt><trkpt lat="45.4664487" lon="10.488999"><ele>163.66666666666669</ele><time>2026-03-29T11:03:56.271Z</time></trkpt><trkpt lat="45.4666412" lon="10.4890478"><ele>166.0</ele><time>2026-03-29T11:03:57.272Z</time></trkpt><trkpt lat="45.4668257" lon="10.4890928"><ele>166.0</ele><time>2026-03-29T11:03:58.271Z</time></trkpt><trkpt lat="45.4670104" lon="10.4891414"><ele>166.0</ele><time>2026-03-29T11:03:59.272Z</time></trkpt><trkpt lat="45.4671928" lon="10.4892042"><ele>166.0</ele><time>2026-03-29T11:04:00.272Z</time></trkpt><trkpt lat="45.467377" lon="10.4892745"><ele>166.66666666666669</ele><time>2026-03-29T11:04:01.271Z</time></trkpt><trkpt lat="45.4675628" lon="10.4893382"><ele>167.33333333333334</ele><time>2026-03-29T11:04:02.272Z</time></trkpt><trkpt lat="45.4677416" lon="10.4894208"><ele>168.0</ele><time>2026-03-29T11:04:03.272Z</time></trkpt><trkpt lat="45.467916" lon="10.4894979"><ele>169.0</ele><time>2026-03-29T11:04:04.271Z</time></trkpt><trkpt lat="45.46809" lon="10.4895705"><ele>170.0</ele><time>2026-03-29T11:04:05.272Z</time></trkpt><trkpt lat="45.4682646" lon="10.4896531"><ele>171.0</ele><time>2026-03-29T11:04:06.272Z</time></trkpt><trkpt lat="45.4684301" lon="10.4897355"><ele>169.0</ele><time>2026-03-29T11:04:07.271Z</time></trkpt><trkpt lat="45.4685936" lon="10.4898182"><ele>167.0</ele><time>2026-03-29T11:04:08.271Z</time></trkpt><trkpt lat="45.468763" lon="10.4898912"><ele>165.0</ele><time>2026-03-29T11:04:09.272Z</time></trkpt><trkpt lat="45.468933" lon="10.4899698"><ele>163.66666666666666</ele><time>2026-03-29T11:04:10.272Z</time></trkpt><trkpt lat="45.4691066" lon="10.4900493"><ele>162.33333333333331</ele><time>2026-03-29T11:04:11.272Z</time></trkpt><trkpt lat="45.4692875" lon="10.4901286"><ele>161.0</ele><time>2026-03-29T11:04:12.272Z</time></trkpt><trkpt lat="45.4694683" lon="10.4902061"><ele>160.33333333333331</ele><time>2026-03-29T11:04:13.272Z</time></trkpt><trkpt lat="45.4696492" lon="10.4902837"><ele>159.66666666666666</ele><time>2026-03-29T11:04:14.272Z</time></trkpt><trkpt lat="45.4698252" lon="10.4903641"><ele>159.0</ele><time>2026-03-29T11:04:15.272Z</time></trkpt><trkpt lat="45.4700111" lon="10.4904466"><ele>158.66666666666666</ele><time>2026-03-29T11:04:16.271Z</time></trkpt><trkpt lat="45.4702088" lon="10.4905338"><ele>158.33333333333331</ele><time>2026-03-29T11:04:17.271Z</time></trkpt><trkpt lat="45.470417" lon="10.4906191"><ele>158.0</ele><time>2026-03-29T11:04:18.272Z</time></trkpt><trkpt lat="45.4706282" lon="10.4906985"><ele>157.33333333333331</ele><time>2026-03-29T11:04:19.272Z</time></trkpt><trkpt lat="45.4708382" lon="10.4907786"><ele>156.66666666666666</ele><time>2026-03-29T11:04:20.272Z</time></trkpt><trkpt lat="45.4710485" lon="10.490861"><ele>156.0</ele><time>2026-03-29T11:04:21.272Z</time></trkpt><trkpt lat="45.4712506" lon="10.490947"><ele>155.33333333333334</ele><time>2026-03-29T11:04:22.272Z</time></trkpt><trkpt lat="45.4714414" lon="10.4910343"><ele>154.66666666666669</ele><time>2026-03-29T11:04:23.272Z</time></trkpt><trkpt lat="45.4716261" lon="10.491112"><ele>154.0</ele><time>2026-03-29T11:04:24.271Z</time></trkpt><trkpt lat="45.471799" lon="10.4911851"><ele>153.33333333333334</ele><time>2026-03-29T11:04:25.271Z</time></trkpt><trkpt lat="45.4719576" lon="10.4912622"><ele>152.66666666666666</ele><time>2026-03-29T11:04:26.272Z</time></trkpt><trkpt lat="45.4721037" lon="10.4913418"><ele>152.0</ele><time>2026-03-29T11:04:27.272Z</time></trkpt><trkpt lat="45.4722482" lon="10.4914079"><ele>152.0</ele><time>2026-03-29T11:04:28.272Z</time></trkpt><trkpt lat="45.4723727" lon="10.4914669"><ele>152.0</ele><time>2026-03-29T11:04:29.271Z</time></trkpt><trkpt lat="45.4724802" lon="10.4915223"><ele>152.0</ele><time>2026-03-29T11:04:30.271Z</time></trkpt><trkpt lat="45.4725705" lon="10.4915598"><ele>152.0</ele><time>2026-03-29T11:04:31.272Z</time></trkpt><trkpt lat="45.4726417" lon="10.4915916"><ele>152.0</ele><time>2026-03-29T11:04:32.271Z</time></trkpt><trkpt lat="45.4727267" lon="10.4916828"><ele>152.0</ele><time>2026-03-29T11:04:34.271Z</time></trkpt><trkpt lat="45.4727549" lon="10.4917947"><ele>152.0</ele><time>2026-03-29T11:04:36.271Z</time></trkpt><trkpt lat="45.4727864" lon="10.4918747"><ele>152.0</ele><time>2026-03-29T11:04:39.271Z</time></trkpt><trkpt lat="45.4728142" lon="10.4917923"><ele>152.0</ele><time>2026-03-29T11:27:21.263Z</time></trkpt><trkpt lat="45.4728454" lon="10.491696"><ele>152.0</ele><time>2026-03-29T11:27:25.262Z</time></trkpt><trkpt lat="45.4728846" lon="10.4915461"><ele>152.0</ele><time>2026-03-29T11:27:27.262Z</time></trkpt><trkpt lat="45.4729087" lon="10.4914227"><ele>152.0</ele><time>2026-03-29T11:27:28.263Z</time></trkpt><trkpt lat="45.4729237" lon="10.4912717"><ele>152.0</ele><time>2026-03-29T11:27:29.263Z</time></trkpt><trkpt lat="45.472943" lon="10.4911146"><ele>152.0</ele><time>2026-03-29T11:27:30.263Z</time></trkpt><trkpt lat="45.4729563" lon="10.4909726"><ele>152.0</ele><time>2026-03-29T11:27:31.263Z</time></trkpt><trkpt lat="45.4729818" lon="10.4908585"><ele>152.0</ele><time>2026-03-29T11:27:32.262Z</time></trkpt><trkpt lat="45.4730245" lon="10.4907799"><ele>153.0</ele><time>2026-03-29T11:27:33.263Z</time></trkpt><trkpt lat="45.4730881" lon="10.490763"><ele>154.0</ele><time>2026-03-29T11:27:34.262Z</time></trkpt><trkpt lat="45.47317" lon="10.490789"><ele>155.0</ele><time>2026-03-29T11:27:35.262Z</time></trkpt><trkpt lat="45.4732661" lon="10.4908249"><ele>156.0</ele><time>2026-03-29T11:27:36.262Z</time></trkpt><trkpt lat="45.4733708" lon="10.4908612"><ele>157.0</ele><time>2026-03-29T11:27:37.263Z</time></trkpt><trkpt lat="45.4734698" lon="10.4908881"><ele>157.0</ele><time>2026-03-29T11:27:38.263Z</time></trkpt><trkpt lat="45.4735688" lon="10.4908763"><ele>157.0</ele><time>2026-03-29T11:27:39.263Z</time></trkpt><trkpt lat="45.4736531" lon="10.4908186"><ele>157.0</ele><time>2026-03-29T11:27:40.263Z</time></trkpt><trkpt lat="45.4737261" lon="10.4907404"><ele>157.0</ele><time>2026-03-29T11:27:41.263Z</time></trkpt><trkpt lat="45.4738015" lon="10.4906603"><ele>157.0</ele><time>2026-03-29T11:27:42.263Z</time></trkpt><trkpt lat="45.4738824" lon="10.4906291"><ele>157.75</ele><time>2026-03-29T11:27:43.262Z</time></trkpt><trkpt lat="45.4739913" lon="10.4906336"><ele>158.5</ele><time>2026-03-29T11:27:44.263Z</time></trkpt><trkpt lat="45.4741226" lon="10.4906693"><ele>159.25</ele><time>2026-03-29T11:27:45.263Z</time></trkpt><trkpt lat="45.4742724" lon="10.4906961"><ele>160.0</ele><time>2026-03-29T11:27:46.263Z</time></trkpt><trkpt lat="45.4744239" lon="10.490723"><ele>160.0</ele><time>2026-03-29T11:27:47.263Z</time></trkpt><trkpt lat="45.4745642" lon="10.4907366"><ele>160.0</ele><time>2026-03-29T11:27:48.262Z</time></trkpt><trkpt lat="45.4746896" lon="10.4907463"><ele>160.0</ele><time>2026-03-29T11:27:49.262Z</time></trkpt><trkpt lat="45.4748039" lon="10.4907377"><ele>160.0</ele><time>2026-03-29T11:27:50.263Z</time></trkpt><trkpt lat="45.474906" lon="10.4907011"><ele>160.6</ele><time>2026-03-29T11:27:51.262Z</time></trkpt><trkpt lat="45.4750035" lon="10.490632"><ele>161.2</ele><time>2026-03-29T11:27:52.263Z</time></trkpt><trkpt lat="45.4751012" lon="10.4905661"><ele>161.8</ele><time>2026-03-29T11:27:53.262Z</time></trkpt><trkpt lat="45.4751838" lon="10.4905132"><ele>162.4</ele><time>2026-03-29T11:27:54.263Z</time></trkpt><trkpt lat="45.4752694" lon="10.4904637"><ele>163.0</ele><time>2026-03-29T11:27:55.262Z</time></trkpt><trkpt lat="45.4753676" lon="10.4904411"><ele>164.0</ele><time>2026-03-29T11:27:56.262Z</time></trkpt><trkpt lat="45.475447" lon="10.4904644"><ele>165.0</ele><time>2026-03-29T11:27:57.263Z</time></trkpt><trkpt lat="45.4755471" lon="10.4905171"><ele>166.0</ele><time>2026-03-29T11:27:58.262Z</time></trkpt><trkpt lat="45.4756816" lon="10.4905592"><ele>167.0</ele><time>2026-03-29T11:27:59.263Z</time></trkpt><trkpt lat="45.4758132" lon="10.4906178"><ele>167.0</ele><time>2026-03-29T11:28:00.263Z</time></trkpt><trkpt lat="45.4759442" lon="10.4906765"><ele>167.0</ele><time>2026-03-29T11:28:01.262Z</time></trkpt><trkpt lat="45.4760684" lon="10.4907745"><ele>167.0</ele><time>2026-03-29T11:28:02.263Z</time></trkpt><trkpt lat="45.4761957" lon="10.4908748"><ele>167.0</ele><time>2026-03-29T11:28:03.262Z</time></trkpt><trkpt lat="45.4763257" lon="10.4909892"><ele>167.0</ele><time>2026-03-29T11:28:04.262Z</time></trkpt><trkpt lat="45.476464" lon="10.4911027"><ele>167.0</ele><time>2026-03-29T11:28:05.263Z</time></trkpt><trkpt lat="45.4766112" lon="10.4911942"><ele>167.0</ele><time>2026-03-29T11:28:06.262Z</time></trkpt><trkpt lat="45.4767596" lon="10.4913021"><ele>167.0</ele><time>2026-03-29T11:28:07.262Z</time></trkpt><trkpt lat="45.4769038" lon="10.4913962"><ele>167.0</ele><time>2026-03-29T11:28:08.262Z</time></trkpt><trkpt lat="45.4770437" lon="10.4915199"><ele>167.0</ele><time>2026-03-29T11:28:09.262Z</time></trkpt><trkpt lat="45.4771788" lon="10.491673"><ele>168.33333333333331</ele><time>2026-03-29T11:28:10.263Z</time></trkpt><trkpt lat="45.4773073" lon="10.4918418"><ele>169.66666666666666</ele><time>2026-03-29T11:28:11.262Z</time></trkpt><trkpt lat="45.4774234" lon="10.4920095"><ele>171.0</ele><time>2026-03-29T11:28:12.262Z</time></trkpt><trkpt lat="45.4775395" lon="10.4921737"><ele>171.0</ele><time>2026-03-29T11:28:13.263Z</time></trkpt><trkpt lat="45.4776586" lon="10.4923155"><ele>171.0</ele><time>2026-03-29T11:28:14.263Z</time></trkpt><trkpt lat="45.4777682" lon="10.4924483"><ele>171.0</ele><time>2026-03-29T11:28:15.262Z</time></trkpt><trkpt lat="45.4778584" lon="10.4925581"><ele>171.0</ele><time>2026-03-29T11:28:16.262Z</time></trkpt><trkpt lat="45.4779403" lon="10.4926594"><ele>170.60000000000002</ele><time>2026-03-29T11:28:17.263Z</time></trkpt><trkpt lat="45.4780327" lon="10.4927659"><ele>170.2</ele><time>2026-03-29T11:28:18.263Z</time></trkpt><trkpt lat="45.4781232" lon="10.4928552"><ele>169.8</ele><time>2026-03-29T11:28:19.263Z</time></trkpt><trkpt lat="45.4782101" lon="10.4929372"><ele>169.39999999999998</ele><time>2026-03-29T11:28:20.262Z</time></trkpt><trkpt lat="45.4782812" lon="10.4930177"><ele>169.0</ele><time>2026-03-29T11:28:21.263Z</time></trkpt><trkpt lat="45.4783493" lon="10.4930957"><ele>169.0</ele><time>2026-03-29T11:28:22.263Z</time></trkpt><trkpt lat="45.4784175" lon="10.493156"><ele>169.0</ele><time>2026-03-29T11:28:23.262Z</time></trkpt><trkpt lat="45.4784796" lon="10.4932239"><ele>169.0</ele><time>2026-03-29T11:28:24.262Z</time></trkpt><trkpt lat="45.4785455" lon="10.4932636"><ele>169.0</ele><time>2026-03-29T11:28:25.262Z</time></trkpt><trkpt lat="45.4786103" lon="10.4932783"><ele>169.0</ele><time>2026-03-29T11:28:26.262Z</time></trkpt><trkpt lat="45.4787097" lon="10.493192"><ele>169.0</ele><time>2026-03-29T11:28:28.263Z</time></trkpt><trkpt lat="45.4787541" lon="10.4930884"><ele>169.75</ele><time>2026-03-29T11:28:29.262Z</time></trkpt><trkpt lat="45.4787948" lon="10.4929649"><ele>170.5</ele><time>2026-03-29T11:28:30.263Z</time></trkpt><trkpt lat="45.4788302" lon="10.4928157"><ele>171.25</ele><time>2026-03-29T11:28:31.262Z</time></trkpt><trkpt lat="45.4788601" lon="10.4926364"><ele>172.0</ele><time>2026-03-29T11:28:32.263Z</time></trkpt><trkpt lat="45.4789002" lon="10.4924584"><ele>172.39999999999998</ele><time>2026-03-29T11:28:33.263Z</time></trkpt><trkpt lat="45.4789302" lon="10.4922917"><ele>172.79999999999998</ele><time>2026-03-29T11:28:34.263Z</time></trkpt><trkpt lat="45.4789631" lon="10.4921331"><ele>173.2</ele><time>2026-03-29T11:28:35.262Z</time></trkpt><trkpt lat="45.4789878" lon="10.4919888"><ele>173.6</ele><time>2026-03-29T11:28:36.262Z</time></trkpt><trkpt lat="45.4790183" lon="10.4918522"><ele>174.0</ele><time>2026-03-29T11:28:37.262Z</time></trkpt><trkpt lat="45.479064" lon="10.4917317"><ele>174.5</ele><time>2026-03-29T11:28:38.263Z</time></trkpt><trkpt lat="45.4791142" lon="10.4916261"><ele>175.0</ele><time>2026-03-29T11:28:39.262Z</time></trkpt><trkpt lat="45.4791798" lon="10.4915388"><ele>175.5</ele><time>2026-03-29T11:28:40.263Z</time></trkpt><trkpt lat="45.4792545" lon="10.4914817"><ele>176.0</ele><time>2026-03-29T11:28:41.262Z</time></trkpt><trkpt lat="45.4793277" lon="10.4914627"><ele>176.5</ele><time>2026-03-29T11:28:42.263Z</time></trkpt><trkpt lat="45.479415" lon="10.4914735"><ele>177.0</ele><time>2026-03-29T11:28:43.262Z</time></trkpt><trkpt lat="45.4795157" lon="10.4915123"><ele>177.5</ele><time>2026-03-29T11:28:44.262Z</time></trkpt><trkpt lat="45.4796307" lon="10.4915523"><ele>178.0</ele><time>2026-03-29T11:28:45.262Z</time></trkpt><trkpt lat="45.4797579" lon="10.4915961"><ele>178.5</ele><time>2026-03-29T11:28:46.262Z</time></trkpt><trkpt lat="45.4798799" lon="10.4916304"><ele>179.0</ele><time>2026-03-29T11:28:47.262Z</time></trkpt><trkpt lat="45.4799983" lon="10.4916568"><ele>179.0</ele><time>2026-03-29T11:28:48.263Z</time></trkpt><trkpt lat="45.4801223" lon="10.4916703"><ele>179.0</ele><time>2026-03-29T11:28:49.262Z</time></trkpt><trkpt lat="45.4802402" lon="10.4916766"><ele>179.0</ele><time>2026-03-29T11:28:50.263Z</time></trkpt><trkpt lat="45.4803415" lon="10.4916716"><ele>179.0</ele><time>2026-03-29T11:28:51.263Z</time></trkpt><trkpt lat="45.4804424" lon="10.4916747"><ele>179.0</ele><time>2026-03-29T11:28:52.262Z</time></trkpt><trkpt lat="45.480541" lon="10.4916815"><ele>179.5</ele><time>2026-03-29T11:28:53.263Z</time></trkpt><trkpt lat="45.4806605" lon="10.49171"><ele>180.0</ele><time>2026-03-29T11:28:54.263Z</time></trkpt><trkpt lat="45.4807699" lon="10.4917601"><ele>180.5</ele><time>2026-03-29T11:28:55.263Z</time></trkpt><trkpt lat="45.4808894" lon="10.4918185"><ele>181.0</ele><time>2026-03-29T11:28:56.263Z</time></trkpt><trkpt lat="45.481005" lon="10.4918792"><ele>181.0</ele><time>2026-03-29T11:28:57.262Z</time></trkpt><trkpt lat="45.4811123" lon="10.4919174"><ele>181.0</ele><time>2026-03-29T11:28:58.262Z</time></trkpt><trkpt lat="45.4812245" lon="10.4919473"><ele>181.0</ele><time>2026-03-29T11:28:59.262Z</time></trkpt><trkpt lat="45.4813469" lon="10.4919715"><ele>181.0</ele><time>2026-03-29T11:29:00.263Z</time></trkpt><trkpt lat="45.4814712" lon="10.4919843"><ele>182.25</ele><time>2026-03-29T11:29:01.263Z</time></trkpt><trkpt lat="45.4815953" lon="10.4919939"><ele>183.5</ele><time>2026-03-29T11:29:02.263Z</time></trkpt><trkpt lat="45.4817111" lon="10.4920188"><ele>184.75</ele><time>2026-03-29T11:29:03.263Z</time></trkpt><trkpt lat="45.4818266" lon="10.4920534"><ele>186.0</ele><time>2026-03-29T11:29:04.262Z</time></trkpt><trkpt lat="45.4819264" lon="10.4920864"><ele>185.16666666666666</ele><time>2026-03-29T11:29:05.262Z</time></trkpt><trkpt lat="45.482013" lon="10.4921091"><ele>184.33333333333334</ele><time>2026-03-29T11:29:06.262Z</time></trkpt><trkpt lat="45.4820865" lon="10.4921285"><ele>183.5</ele><time>2026-03-29T11:29:07.262Z</time></trkpt><trkpt lat="45.4821556" lon="10.4921338"><ele>182.66666666666669</ele><time>2026-03-29T11:29:08.263Z</time></trkpt><trkpt lat="45.4822695" lon="10.4921343"><ele>181.83333333333334</ele><time>2026-03-29T11:29:10.263Z</time></trkpt><trkpt lat="45.4823565" lon="10.4921207"><ele>181.0</ele><time>2026-03-29T11:29:12.262Z</time></trkpt><trkpt lat="45.4824198" lon="10.4920817"><ele>183.60000000000002</ele><time>2026-03-29T11:29:14.263Z</time></trkpt><trkpt lat="45.4824319" lon="10.4919743"><ele>186.2</ele><time>2026-03-29T11:29:16.263Z</time></trkpt><trkpt lat="45.4823845" lon="10.4918898"><ele>188.8</ele><time>2026-03-29T11:29:17.262Z</time></trkpt><trkpt lat="45.4823116" lon="10.4917786"><ele>191.39999999999998</ele><time>2026-03-29T11:29:18.263Z</time></trkpt><trkpt lat="45.4822275" lon="10.4916526"><ele>194.0</ele><time>2026-03-29T11:29:19.263Z</time></trkpt><trkpt lat="45.4821387" lon="10.4915119"><ele>193.75</ele><time>2026-03-29T11:29:20.262Z</time></trkpt><trkpt lat="45.4820521" lon="10.4913616"><ele>193.5</ele><time>2026-03-29T11:29:21.263Z</time></trkpt><trkpt lat="45.481962" lon="10.4912144"><ele>193.25</ele><time>2026-03-29T11:29:22.262Z</time></trkpt><trkpt lat="45.4818759" lon="10.4910789"><ele>193.0</ele><time>2026-03-29T11:29:23.263Z</time></trkpt><trkpt lat="45.4818007" lon="10.4909532"><ele>193.0</ele><time>2026-03-29T11:29:24.262Z</time></trkpt><trkpt lat="45.4817283" lon="10.4908303"><ele>193.0</ele><time>2026-03-29T11:29:25.262Z</time></trkpt><trkpt lat="45.481654" lon="10.490706"><ele>193.0</ele><time>2026-03-29T11:29:26.263Z</time></trkpt><trkpt lat="45.4815824" lon="10.4905979"><ele>193.0</ele><time>2026-03-29T11:29:27.262Z</time></trkpt><trkpt lat="45.4815188" lon="10.4905125"><ele>193.0</ele><time>2026-03-29T11:29:28.263Z</time></trkpt><trkpt lat="45.481467" lon="10.4904391"><ele>192.33333333333331</ele><time>2026-03-29T11:29:29.262Z</time></trkpt><trkpt lat="45.4814252" lon="10.4903568"><ele>191.66666666666666</ele><time>2026-03-29T11:29:30.262Z</time></trkpt><trkpt lat="45.4813778" lon="10.490272"><ele>191.0</ele><time>2026-03-29T11:29:31.262Z</time></trkpt><trkpt lat="45.4813193" lon="10.4901799"><ele>190.33333333333331</ele><time>2026-03-29T11:29:32.262Z</time></trkpt><trkpt lat="45.4812523" lon="10.490078"><ele>189.66666666666666</ele><time>2026-03-29T11:29:33.263Z</time></trkpt><trkpt lat="45.4811794" lon="10.4899711"><ele>189.0</ele><time>2026-03-29T11:29:34.262Z</time></trkpt><trkpt lat="45.4811072" lon="10.4898647"><ele>189.0</ele><time>2026-03-29T11:29:35.263Z</time></trkpt><trkpt lat="45.4810327" lon="10.4897639"><ele>189.0</ele><time>2026-03-29T11:29:36.262Z</time></trkpt><trkpt lat="45.480964" lon="10.4896801"><ele>189.0</ele><time>2026-03-29T11:29:37.263Z</time></trkpt><trkpt lat="45.4808934" lon="10.489609"><ele>189.0</ele><time>2026-03-29T11:29:38.263Z</time></trkpt><trkpt lat="45.4808168" lon="10.4895711"><ele>189.0</ele><time>2026-03-29T11:29:39.262Z</time></trkpt><trkpt lat="45.4807356" lon="10.4895538"><ele>189.0</ele><time>2026-03-29T11:29:40.261Z</time></trkpt><trkpt lat="45.4806309" lon="10.4895523"><ele>190.75</ele><time>2026-03-29T11:29:41.262Z</time></trkpt><trkpt lat="45.4805143" lon="10.4895424"><ele>192.5</ele><time>2026-03-29T11:29:42.261Z</time></trkpt><trkpt lat="45.4803958" lon="10.4895268"><ele>194.25</ele><time>2026-03-29T11:29:43.262Z</time></trkpt><trkpt lat="45.4802878" lon="10.4894808"><ele>196.0</ele><time>2026-03-29T11:29:44.261Z</time></trkpt><trkpt lat="45.4801873" lon="10.4894096"><ele>196.4</ele><time>2026-03-29T11:29:45.261Z</time></trkpt><trkpt lat="45.4800904" lon="10.4893296"><ele>196.8</ele><time>2026-03-29T11:29:46.261Z</time></trkpt><trkpt lat="45.4800069" lon="10.489242"><ele>197.20000000000002</ele><time>2026-03-29T11:29:47.262Z</time></trkpt><trkpt lat="45.479925" lon="10.4891427"><ele>197.60000000000002</ele><time>2026-03-29T11:29:48.261Z</time></trkpt><trkpt lat="45.4798576" lon="10.4890177"><ele>198.0</ele><time>2026-03-29T11:29:49.261Z</time></trkpt><trkpt lat="45.4797994" lon="10.4888781"><ele>198.75</ele><time>2026-03-29T11:29:50.261Z</time></trkpt><trkpt lat="45.4797518" lon="10.4887332"><ele>199.5</ele><time>2026-03-29T11:29:51.261Z</time></trkpt><trkpt lat="45.4797083" lon="10.4885763"><ele>200.25</ele><time>2026-03-29T11:29:52.262Z</time></trkpt><trkpt lat="45.4796711" lon="10.4884299"><ele>201.0</ele><time>2026-03-29T11:29:53.262Z</time></trkpt><trkpt lat="45.479632" lon="10.488281"><ele>201.4</ele><time>2026-03-29T11:29:54.262Z</time></trkpt><trkpt lat="45.4795923" lon="10.4881369"><ele>201.8</ele><time>2026-03-29T11:29:55.262Z</time></trkpt><trkpt lat="45.4795526" lon="10.488006"><ele>202.20000000000002</ele><time>2026-03-29T11:29:56.262Z</time></trkpt><trkpt lat="45.4795087" lon="10.4878814"><ele>202.60000000000002</ele><time>2026-03-29T11:29:57.262Z</time></trkpt><trkpt lat="45.4794571" lon="10.487769"><ele>203.0</ele><time>2026-03-29T11:29:58.262Z</time></trkpt><trkpt lat="45.4794146" lon="10.4876529"><ele>203.00000000000003</ele><time>2026-03-29T11:29:59.261Z</time></trkpt><trkpt lat="45.4793743" lon="10.4875668"><ele>203.0</ele><time>2026-03-29T11:30:00.262Z</time></trkpt><trkpt lat="45.4793254" lon="10.4874976"><ele>203.0</ele><time>2026-03-29T11:30:01.262Z</time></trkpt><trkpt lat="45.479267" lon="10.4874084"><ele>203.0</ele><time>2026-03-29T11:30:03.261Z</time></trkpt><trkpt lat="45.4792659" lon="10.4872999"><ele>203.00000000000003</ele><time>2026-03-29T11:30:05.262Z</time></trkpt><trkpt lat="45.4793098" lon="10.487141"><ele>203.0</ele><time>2026-03-29T11:30:07.262Z</time></trkpt><trkpt lat="45.4793536" lon="10.4870142"><ele>203.5</ele><time>2026-03-29T11:30:08.261Z</time></trkpt><trkpt lat="45.4794082" lon="10.486854"><ele>204.0</ele><time>2026-03-29T11:30:09.262Z</time></trkpt><trkpt lat="45.47947" lon="10.4866792"><ele>204.5</ele><time>2026-03-29T11:30:10.262Z</time></trkpt><trkpt lat="45.4795354" lon="10.4864921"><ele>205.0</ele><time>2026-03-29T11:30:11.261Z</time></trkpt><trkpt lat="45.4796136" lon="10.4862924"><ele>206.66666666666666</ele><time>2026-03-29T11:30:12.262Z</time></trkpt><trkpt lat="45.4796938" lon="10.4860819"><ele>208.33333333333331</ele><time>2026-03-29T11:30:13.261Z</time></trkpt><trkpt lat="45.4797727" lon="10.4858927"><ele>210.0</ele><time>2026-03-29T11:30:14.262Z</time></trkpt><trkpt lat="45.4798513" lon="10.4857132"><ele>210.0</ele><time>2026-03-29T11:30:15.262Z</time></trkpt><trkpt lat="45.4799218" lon="10.4855485"><ele>210.0</ele><time>2026-03-29T11:30:16.261Z</time></trkpt><trkpt lat="45.479993" lon="10.4853979"><ele>210.0</ele><time>2026-03-29T11:30:17.261Z</time></trkpt><trkpt lat="45.4800495" lon="10.4852681"><ele>210.0</ele><time>2026-03-29T11:30:18.261Z</time></trkpt><trkpt lat="45.4800932" lon="10.4851485"><ele>210.66666666666666</ele><time>2026-03-29T11:30:19.261Z</time></trkpt><trkpt lat="45.4801415" lon="10.4850543"><ele>211.33333333333331</ele><time>2026-03-29T11:30:20.262Z</time></trkpt><trkpt lat="45.4801792" lon="10.4849812"><ele>212.0</ele><time>2026-03-29T11:30:21.261Z</time></trkpt><trkpt lat="45.4802066" lon="10.48483"><ele>212.66666666666666</ele><time>2026-03-29T11:40:06.259Z</time></trkpt><trkpt lat="45.4802322" lon="10.48474"><ele>213.33333333333331</ele><time>2026-03-29T11:40:07.258Z</time></trkpt><trkpt lat="45.4802612" lon="10.4846276"><ele>214.0</ele><time>2026-03-29T11:40:08.259Z</time></trkpt><trkpt lat="45.4802816" lon="10.4845046"><ele>214.79999999999998</ele><time>2026-03-29T11:40:09.258Z</time></trkpt><trkpt lat="45.4802961" lon="10.4843652"><ele>215.59999999999997</ele><time>2026-03-29T11:40:10.258Z</time></trkpt><trkpt lat="45.4802866" lon="10.4842487"><ele>216.4</ele><time>2026-03-29T11:40:11.259Z</time></trkpt><trkpt lat="45.4802593" lon="10.4841376"><ele>217.2</ele><time>2026-03-29T11:40:12.259Z</time></trkpt><trkpt lat="45.480218" lon="10.4840205"><ele>218.0</ele><time>2026-03-29T11:40:13.259Z</time></trkpt><trkpt lat="45.4801685" lon="10.4838846"><ele>219.0</ele><time>2026-03-29T11:40:14.259Z</time></trkpt><trkpt lat="45.4801129" lon="10.4837464"><ele>220.0</ele><time>2026-03-29T11:40:15.258Z</time></trkpt><trkpt lat="45.4800395" lon="10.4836154"><ele>221.0</ele><time>2026-03-29T11:40:16.259Z</time></trkpt><trkpt lat="45.4799613" lon="10.4834967"><ele>222.0</ele><time>2026-03-29T11:40:17.259Z</time></trkpt><trkpt lat="45.4798948" lon="10.4833989"><ele>223.0</ele><time>2026-03-29T11:40:18.259Z</time></trkpt><trkpt lat="45.4798408" lon="10.4833098"><ele>222.99999999999997</ele><time>2026-03-29T11:40:19.258Z</time></trkpt><trkpt lat="45.4798075" lon="10.4832126"><ele>223.0</ele><time>2026-03-29T11:40:20.257Z</time></trkpt><trkpt lat="45.4797859" lon="10.4831189"><ele>223.0</ele><time>2026-03-29T11:40:21.257Z</time></trkpt><trkpt lat="45.4797778" lon="10.4830174"><ele>223.0</ele><time>2026-03-29T11:40:22.258Z</time></trkpt><trkpt lat="45.4797736" lon="10.4828917"><ele>222.99999999999997</ele><time>2026-03-29T11:40:23.257Z</time></trkpt><trkpt lat="45.4797584" lon="10.482759"><ele>223.0</ele><time>2026-03-29T11:40:24.258Z</time></trkpt><trkpt lat="45.4797371" lon="10.4826344"><ele>223.33333333333331</ele><time>2026-03-29T11:40:25.258Z</time></trkpt><trkpt lat="45.4797174" lon="10.4825341"><ele>223.66666666666666</ele><time>2026-03-29T11:40:26.257Z</time></trkpt><trkpt lat="45.4797046" lon="10.4823613"><ele>224.0</ele><time>2026-03-29T11:40:28.257Z</time></trkpt><trkpt lat="45.4797026" lon="10.4822684"><ele>224.33333333333331</ele><time>2026-03-29T11:40:29.258Z</time></trkpt><trkpt lat="45.4797066" lon="10.4821555"><ele>224.66666666666666</ele><time>2026-03-29T11:40:30.257Z</time></trkpt><trkpt lat="45.4797023" lon="10.4820478"><ele>225.0</ele><time>2026-03-29T11:40:31.257Z</time></trkpt><trkpt lat="45.4796701" lon="10.4819382"><ele>225.0</ele><time>2026-03-29T11:40:32.257Z</time></trkpt><trkpt lat="45.4796272" lon="10.4818247"><ele>225.0</ele><time>2026-03-29T11:40:33.257Z</time></trkpt><trkpt lat="45.4795683" lon="10.4816926"><ele>225.0</ele><time>2026-03-29T11:40:34.257Z</time></trkpt><trkpt lat="45.479499" lon="10.481549"><ele>225.0</ele><time>2026-03-29T11:40:35.257Z</time></trkpt><trkpt lat="45.4794366" lon="10.4814056"><ele>225.0</ele><time>2026-03-29T11:40:36.257Z</time></trkpt><trkpt lat="45.4793787" lon="10.4812641"><ele>223.5</ele><time>2026-03-29T11:40:37.257Z</time></trkpt><trkpt lat="45.479334" lon="10.4811329"><ele>222.0</ele><time>2026-03-29T11:40:38.258Z</time></trkpt><trkpt lat="45.4792925" lon="10.4809945"><ele>220.5</ele><time>2026-03-29T11:40:39.258Z</time></trkpt><trkpt lat="45.4792671" lon="10.480874"><ele>219.0</ele><time>2026-03-29T11:40:40.258Z</time></trkpt><trkpt lat="45.4792496" lon="10.4807603"><ele>217.5</ele><time>2026-03-29T11:40:41.257Z</time></trkpt><trkpt lat="45.4792364" lon="10.4806631"><ele>216.0</ele><time>2026-03-29T11:40:42.258Z</time></trkpt><trkpt lat="45.4792057" lon="10.4805614"><ele>216.0</ele><time>2026-03-29T11:40:44.257Z</time></trkpt><trkpt lat="45.4791289" lon="10.4805408"><ele>216.0</ele><time>2026-03-29T11:40:46.257Z</time></trkpt><trkpt lat="45.4790651" lon="10.4805318"><ele>216.0</ele><time>2026-03-29T11:40:47.258Z</time></trkpt><trkpt lat="45.4789856" lon="10.4805218"><ele>216.0</ele><time>2026-03-29T11:40:48.257Z</time></trkpt><trkpt lat="45.4788838" lon="10.4805125"><ele>216.0</ele><time>2026-03-29T11:40:49.257Z</time></trkpt><trkpt lat="45.4787716" lon="10.4805016"><ele>216.0</ele><time>2026-03-29T11:40:50.257Z</time></trkpt><trkpt lat="45.4786672" lon="10.48049"><ele>216.20000000000002</ele><time>2026-03-29T11:40:51.258Z</time></trkpt><trkpt lat="45.4785772" lon="10.4804744"><ele>216.40000000000003</ele><time>2026-03-29T11:40:52.258Z</time></trkpt><trkpt lat="45.4785022" lon="10.4804476"><ele>216.6</ele><time>2026-03-29T11:40:53.258Z</time></trkpt><trkpt lat="45.4784241" lon="10.4803387"><ele>216.8</ele><time>2026-03-29T11:40:55.258Z</time></trkpt><trkpt lat="45.4784009" lon="10.4801496"><ele>217.0</ele><time>2026-03-29T11:40:57.257Z</time></trkpt><trkpt lat="45.4783922" lon="10.4800394"><ele>216.49999999999997</ele><time>2026-03-29T11:40:58.258Z</time></trkpt><trkpt lat="45.4783801" lon="10.479931"><ele>216.0</ele><time>2026-03-29T11:40:59.258Z</time></trkpt><trkpt lat="45.4783548" lon="10.4798375"><ele>215.5</ele><time>2026-03-29T11:41:00.258Z</time></trkpt><trkpt lat="45.4783106" lon="10.4797669"><ele>215.0</ele><time>2026-03-29T11:41:01.257Z</time></trkpt><trkpt lat="45.4782462" lon="10.4797273"><ele>214.49999999999997</ele><time>2026-03-29T11:41:02.258Z</time></trkpt><trkpt lat="45.478164" lon="10.4797076"><ele>214.0</ele><time>2026-03-29T11:41:03.257Z</time></trkpt><trkpt lat="45.4780692" lon="10.4797024"><ele>214.0</ele><time>2026-03-29T11:41:04.258Z</time></trkpt><trkpt lat="45.4779677" lon="10.4797096"><ele>213.99999999999997</ele><time>2026-03-29T11:41:05.258Z</time></trkpt><trkpt lat="45.4778761" lon="10.4797181"><ele>213.99999999999997</ele><time>2026-03-29T11:41:06.257Z</time></trkpt><trkpt lat="45.4777871" lon="10.4797155"><ele>214.0</ele><time>2026-03-29T11:41:07.258Z</time></trkpt><trkpt lat="45.4777035" lon="10.4796985"><ele>214.0</ele><time>2026-03-29T11:41:08.257Z</time></trkpt><trkpt lat="45.4776152" lon="10.4796727"><ele>213.6</ele><time>2026-03-29T11:41:09.258Z</time></trkpt><trkpt lat="45.4775264" lon="10.4796307"><ele>213.2</ele><time>2026-03-29T11:41:10.258Z</time></trkpt><trkpt lat="45.4774346" lon="10.4795654"><ele>212.79999999999998</ele><time>2026-03-29T11:41:11.257Z</time></trkpt><trkpt lat="45.4773383" lon="10.4794876"><ele>212.39999999999998</ele><time>2026-03-29T11:41:12.257Z</time></trkpt><trkpt lat="45.477255" lon="10.4794092"><ele>212.0</ele><time>2026-03-29T11:41:13.258Z</time></trkpt><trkpt lat="45.4771784" lon="10.4793352"><ele>211.50000000000003</ele><time>2026-03-29T11:41:14.258Z</time></trkpt><trkpt lat="45.4771211" lon="10.4792606"><ele>211.0</ele><time>2026-03-29T11:41:15.258Z</time></trkpt><trkpt lat="45.4770879" lon="10.4791767"><ele>210.5</ele><time>2026-03-29T11:41:16.257Z</time></trkpt><trkpt lat="45.4770638" lon="10.4790717"><ele>210.0</ele><time>2026-03-29T11:41:17.257Z</time></trkpt><trkpt lat="45.4770384" lon="10.4789571"><ele>209.50000000000003</ele><time>2026-03-29T11:41:18.258Z</time></trkpt><trkpt lat="45.4770106" lon="10.4788387"><ele>209.0</ele><time>2026-03-29T11:41:19.258Z</time></trkpt><trkpt lat="45.4769739" lon="10.4787372"><ele>208.6</ele><time>2026-03-29T11:41:20.257Z</time></trkpt><trkpt lat="45.4769236" lon="10.478649"><ele>208.2</ele><time>2026-03-29T11:41:21.257Z</time></trkpt><trkpt lat="45.4768551" lon="10.4785687"><ele>207.79999999999998</ele><time>2026-03-29T11:41:22.257Z</time></trkpt><trkpt lat="45.4767761" lon="10.4784901"><ele>207.39999999999998</ele><time>2026-03-29T11:41:23.257Z</time></trkpt><trkpt lat="45.4766811" lon="10.4784054"><ele>207.0</ele><time>2026-03-29T11:41:24.257Z</time></trkpt><trkpt lat="45.4765803" lon="10.4783241"><ele>207.0</ele><time>2026-03-29T11:41:25.258Z</time></trkpt><trkpt lat="45.4764915" lon="10.4782486"><ele>207.0</ele><time>2026-03-29T11:41:26.257Z</time></trkpt><trkpt lat="45.4764148" lon="10.4781758"><ele>207.0</ele><time>2026-03-29T11:41:27.258Z</time></trkpt><trkpt lat="45.4763455" lon="10.4781116"><ele>207.0</ele><time>2026-03-29T11:41:28.258Z</time></trkpt><trkpt lat="45.4762862" lon="10.4780398"><ele>207.0</ele><time>2026-03-29T11:41:29.257Z</time></trkpt><trkpt lat="45.4762395" lon="10.4779416"><ele>207.0</ele><time>2026-03-29T11:41:30.258Z</time></trkpt><trkpt lat="45.476217" lon="10.4778389"><ele>205.8</ele><time>2026-03-29T11:41:31.257Z</time></trkpt><trkpt lat="45.4761934" lon="10.477739"><ele>204.6</ele><time>2026-03-29T11:41:32.257Z</time></trkpt><trkpt lat="45.4761571" lon="10.477588"><ele>203.4</ele><time>2026-03-29T11:41:34.258Z</time></trkpt><trkpt lat="45.4761251" lon="10.477505"><ele>202.20000000000002</ele><time>2026-03-29T11:41:36.257Z</time></trkpt><trkpt lat="45.4760572" lon="10.4774976"><ele>201.0</ele><time>2026-03-29T11:41:39.258Z</time></trkpt><trkpt lat="45.4759326" lon="10.4775703"><ele>201.0</ele><time>2026-03-29T11:41:41.257Z</time></trkpt><trkpt lat="45.4758473" lon="10.4776518"><ele>201.0</ele><time>2026-03-29T11:41:42.257Z</time></trkpt><trkpt lat="45.475744" lon="10.4777582"><ele>201.0</ele><time>2026-03-29T11:41:43.257Z</time></trkpt><trkpt lat="45.4756275" lon="10.4778882"><ele>201.0</ele><time>2026-03-29T11:41:44.258Z</time></trkpt><trkpt lat="45.4755004" lon="10.478015"><ele>200.25</ele><time>2026-03-29T11:41:45.258Z</time></trkpt><trkpt lat="45.4753657" lon="10.478116"><ele>199.5</ele><time>2026-03-29T11:41:46.257Z</time></trkpt><trkpt lat="45.4752331" lon="10.4781915"><ele>198.75</ele><time>2026-03-29T11:41:47.258Z</time></trkpt><trkpt lat="45.4751108" lon="10.4782323"><ele>198.0</ele><time>2026-03-29T11:41:48.257Z</time></trkpt><trkpt lat="45.4750017" lon="10.4782364"><ele>198.0</ele><time>2026-03-29T11:41:49.258Z</time></trkpt><trkpt lat="45.4748971" lon="10.4782035"><ele>198.0</ele><time>2026-03-29T11:41:50.257Z</time></trkpt><trkpt lat="45.4747917" lon="10.4781342"><ele>198.0</ele><time>2026-03-29T11:41:51.258Z</time></trkpt><trkpt lat="45.4747075" lon="10.4780261"><ele>198.0</ele><time>2026-03-29T11:41:52.257Z</time></trkpt><trkpt lat="45.4746573" lon="10.4778773"><ele>197.75</ele><time>2026-03-29T11:41:53.257Z</time></trkpt><trkpt lat="45.474639" lon="10.4776979"><ele>197.5</ele><time>2026-03-29T11:41:54.257Z</time></trkpt><trkpt lat="45.474651" lon="10.477489"><ele>197.25</ele><time>2026-03-29T11:41:55.257Z</time></trkpt><trkpt lat="45.4746829" lon="10.4772493"><ele>197.0</ele><time>2026-03-29T11:41:56.257Z</time></trkpt><trkpt lat="45.4747155" lon="10.4770064"><ele>196.33333333333334</ele><time>2026-03-29T11:41:57.258Z</time></trkpt><trkpt lat="45.474751" lon="10.47675"><ele>195.66666666666669</ele><time>2026-03-29T11:41:58.258Z</time></trkpt><trkpt lat="45.4747833" lon="10.4764848"><ele>195.0</ele><time>2026-03-29T11:41:59.258Z</time></trkpt><trkpt lat="45.4748059" lon="10.4762158"><ele>194.33333333333331</ele><time>2026-03-29T11:42:00.258Z</time></trkpt><trkpt lat="45.4748004" lon="10.4759399"><ele>193.66666666666666</ele><time>2026-03-29T11:42:01.258Z</time></trkpt><trkpt lat="45.4747705" lon="10.4756657"><ele>193.0</ele><time>2026-03-29T11:42:02.258Z</time></trkpt><trkpt lat="45.4747264" lon="10.4753835"><ele>192.0</ele><time>2026-03-29T11:42:03.257Z</time></trkpt><trkpt lat="45.4746816" lon="10.4750978"><ele>191.0</ele><time>2026-03-29T11:42:04.258Z</time></trkpt><trkpt lat="45.4746377" lon="10.4748094"><ele>190.0</ele><time>2026-03-29T11:42:05.257Z</time></trkpt><trkpt lat="45.4745872" lon="10.4745328"><ele>188.33333333333334</ele><time>2026-03-29T11:42:06.257Z</time></trkpt><trkpt lat="45.4745278" lon="10.4742758"><ele>186.66666666666666</ele><time>2026-03-29T11:42:07.257Z</time></trkpt><trkpt lat="45.4744733" lon="10.47403"><ele>185.0</ele><time>2026-03-29T11:42:08.258Z</time></trkpt><trkpt lat="45.4744185" lon="10.4737979"><ele>184.0</ele><time>2026-03-29T11:42:09.257Z</time></trkpt><trkpt lat="45.4743543" lon="10.4735821"><ele>183.0</ele><time>2026-03-29T11:42:10.258Z</time></trkpt><trkpt lat="45.4742888" lon="10.4733869"><ele>182.0</ele><time>2026-03-29T11:42:11.257Z</time></trkpt><trkpt lat="45.4742346" lon="10.4732077"><ele>182.0</ele><time>2026-03-29T11:42:12.258Z</time></trkpt><trkpt lat="45.4741844" lon="10.4730326"><ele>182.0</ele><time>2026-03-29T11:42:13.258Z</time></trkpt><trkpt lat="45.4741413" lon="10.4728725"><ele>182.0</ele><time>2026-03-29T11:42:14.257Z</time></trkpt><trkpt lat="45.4741004" lon="10.4727202"><ele>182.0</ele><time>2026-03-29T11:42:15.257Z</time></trkpt><trkpt lat="45.4740689" lon="10.4725781"><ele>181.8</ele><time>2026-03-29T11:42:16.258Z</time></trkpt><trkpt lat="45.474053" lon="10.472449"><ele>181.6</ele><time>2026-03-29T11:42:17.258Z</time></trkpt><trkpt lat="45.4740537" lon="10.472312"><ele>181.4</ele><time>2026-03-29T11:42:18.257Z</time></trkpt><trkpt lat="45.474078" lon="10.4721799"><ele>181.20000000000002</ele><time>2026-03-29T11:42:19.258Z</time></trkpt><trkpt lat="45.474121" lon="10.472054"><ele>181.0</ele><time>2026-03-29T11:42:20.257Z</time></trkpt><trkpt lat="45.4741853" lon="10.4719288"><ele>180.25</ele><time>2026-03-29T11:42:21.258Z</time></trkpt><trkpt lat="45.4742739" lon="10.4718195"><ele>179.5</ele><time>2026-03-29T11:42:22.258Z</time></trkpt><trkpt lat="45.474392" lon="10.4717262"><ele>178.75</ele><time>2026-03-29T11:42:23.258Z</time></trkpt><trkpt lat="45.4745322" lon="10.4716491"><ele>178.0</ele><time>2026-03-29T11:42:24.258Z</time></trkpt><trkpt lat="45.4746758" lon="10.4715766"><ele>178.0</ele><time>2026-03-29T11:42:25.257Z</time></trkpt><trkpt lat="45.4748084" lon="10.4715002"><ele>178.0</ele><time>2026-03-29T11:42:26.258Z</time></trkpt><trkpt lat="45.474922" lon="10.4714072"><ele>178.0</ele><time>2026-03-29T11:42:27.257Z</time></trkpt><trkpt lat="45.4750122" lon="10.4712763"><ele>178.0</ele><time>2026-03-29T11:42:28.258Z</time></trkpt><trkpt lat="45.4750802" lon="10.4711239"><ele>175.33333333333334</ele><time>2026-03-29T11:42:29.257Z</time></trkpt><trkpt lat="45.4751302" lon="10.4709337"><ele>172.66666666666666</ele><time>2026-03-29T11:42:30.258Z</time></trkpt><trkpt lat="45.4751614" lon="10.4707075"><ele>170.0</ele><time>2026-03-29T11:42:31.257Z</time></trkpt><trkpt lat="45.4751798" lon="10.4704576"><ele>168.66666666666666</ele><time>2026-03-29T11:42:32.258Z</time></trkpt><trkpt lat="45.4751854" lon="10.4701822"><ele>167.33333333333334</ele><time>2026-03-29T11:42:33.258Z</time></trkpt><trkpt lat="45.4751917" lon="10.4698825"><ele>166.0</ele><time>2026-03-29T11:42:34.257Z</time></trkpt><trkpt lat="45.4751928" lon="10.4695687"><ele>166.0</ele><time>2026-03-29T11:42:35.258Z</time></trkpt><trkpt lat="45.4752002" lon="10.4692486"><ele>166.0</ele><time>2026-03-29T11:42:36.257Z</time></trkpt><trkpt lat="45.4752046" lon="10.4689273"><ele>165.33333333333334</ele><time>2026-03-29T11:42:37.258Z</time></trkpt><trkpt lat="45.4752034" lon="10.4686055"><ele>164.66666666666666</ele><time>2026-03-29T11:42:38.258Z</time></trkpt><trkpt lat="45.4752055" lon="10.4682876"><ele>164.0</ele><time>2026-03-29T11:42:39.258Z</time></trkpt><trkpt lat="45.4752049" lon="10.4679624"><ele>163.0</ele><time>2026-03-29T11:42:40.258Z</time></trkpt><trkpt lat="45.4752074" lon="10.4676284"><ele>162.0</ele><time>2026-03-29T11:42:41.258Z</time></trkpt><trkpt lat="45.4752182" lon="10.4673144"><ele>161.66666666666666</ele><time>2026-03-29T11:42:42.258Z</time></trkpt><trkpt lat="45.4752458" lon="10.4670003"><ele>161.33333333333331</ele><time>2026-03-29T11:42:43.257Z</time></trkpt><trkpt lat="45.4752713" lon="10.4666952"><ele>161.0</ele><time>2026-03-29T11:42:44.258Z</time></trkpt><trkpt lat="45.4752966" lon="10.4663881"><ele>160.33333333333331</ele><time>2026-03-29T11:42:45.257Z</time></trkpt><trkpt lat="45.4753262" lon="10.4660952"><ele>159.66666666666666</ele><time>2026-03-29T11:42:46.257Z</time></trkpt><trkpt lat="45.4753548" lon="10.4658123"><ele>159.0</ele><time>2026-03-29T11:42:47.257Z</time></trkpt><trkpt lat="45.4753754" lon="10.4655346"><ele>158.66666666666666</ele><time>2026-03-29T11:42:48.257Z</time></trkpt><trkpt lat="45.4754011" lon="10.4652725"><ele>158.33333333333331</ele><time>2026-03-29T11:42:49.258Z</time></trkpt><trkpt lat="45.4754218" lon="10.4650032"><ele>158.0</ele><time>2026-03-29T11:42:50.258Z</time></trkpt><trkpt lat="45.4754302" lon="10.4647384"><ele>157.66666666666666</ele><time>2026-03-29T11:42:51.257Z</time></trkpt><trkpt lat="45.4754285" lon="10.4644597"><ele>157.33333333333334</ele><time>2026-03-29T11:42:52.257Z</time></trkpt><trkpt lat="45.4754236" lon="10.4641989"><ele>157.0</ele><time>2026-03-29T11:42:53.257Z</time></trkpt><trkpt lat="45.4754079" lon="10.4639391"><ele>156.66666666666669</ele><time>2026-03-29T11:42:54.258Z</time></trkpt><trkpt lat="45.4753961" lon="10.4636868"><ele>156.33333333333334</ele><time>2026-03-29T11:42:55.258Z</time></trkpt><trkpt lat="45.4753869" lon="10.4634295"><ele>156.0</ele><time>2026-03-29T11:42:56.258Z</time></trkpt><trkpt lat="45.4754006" lon="10.4631877"><ele>156.0</ele><time>2026-03-29T11:42:57.258Z</time></trkpt><trkpt lat="45.4754181" lon="10.462947"><ele>156.0</ele><time>2026-03-29T11:42:58.257Z</time></trkpt><trkpt lat="45.4754736" lon="10.4627355"><ele>156.0</ele><time>2026-03-29T11:42:59.257Z</time></trkpt><trkpt lat="45.4755483" lon="10.4625588"><ele>155.5</ele><time>2026-03-29T11:43:00.258Z</time></trkpt><trkpt lat="45.4756396" lon="10.462402"><ele>155.0</ele><time>2026-03-29T11:43:01.258Z</time></trkpt><trkpt lat="45.4757626" lon="10.4622787"><ele>154.5</ele><time>2026-03-29T11:43:02.258Z</time></trkpt><trkpt lat="45.4758875" lon="10.4621519"><ele>154.0</ele><time>2026-03-29T11:43:03.258Z</time></trkpt><trkpt lat="45.476001" lon="10.4620035"><ele>154.0</ele><time>2026-03-29T11:43:04.256Z</time></trkpt><trkpt lat="45.4760895" lon="10.4618373"><ele>154.0</ele><time>2026-03-29T11:43:05.256Z</time></trkpt><trkpt lat="45.4761512" lon="10.4616564"><ele>154.0</ele><time>2026-03-29T11:43:06.256Z</time></trkpt><trkpt lat="45.4762037" lon="10.4614667"><ele>154.0</ele><time>2026-03-29T11:43:07.257Z</time></trkpt><trkpt lat="45.4762586" lon="10.4612648"><ele>154.25</ele><time>2026-03-29T11:43:08.257Z</time></trkpt><trkpt lat="45.4763079" lon="10.461062"><ele>154.5</ele><time>2026-03-29T11:43:09.256Z</time></trkpt><trkpt lat="45.4763612" lon="10.4608623"><ele>154.75</ele><time>2026-03-29T11:43:10.256Z</time></trkpt><trkpt lat="45.4764087" lon="10.460665"><ele>155.0</ele><time>2026-03-29T11:43:11.256Z</time></trkpt><trkpt lat="45.4764523" lon="10.4604665"><ele>155.0</ele><time>2026-03-29T11:43:12.256Z</time></trkpt><trkpt lat="45.4764902" lon="10.4602667"><ele>155.0</ele><time>2026-03-29T11:43:13.257Z</time></trkpt><trkpt lat="45.4765278" lon="10.4600648"><ele>155.0</ele><time>2026-03-29T11:43:14.256Z</time></trkpt><trkpt lat="45.4765763" lon="10.4598703"><ele>155.0</ele><time>2026-03-29T11:43:15.257Z</time></trkpt><trkpt lat="45.4766291" lon="10.4596802"><ele>155.0</ele><time>2026-03-29T11:43:16.256Z</time></trkpt><trkpt lat="45.4766726" lon="10.459501"><ele>155.0</ele><time>2026-03-29T11:43:17.257Z</time></trkpt><trkpt lat="45.4767226" lon="10.4593246"><ele>155.0</ele><time>2026-03-29T11:43:18.257Z</time></trkpt><trkpt lat="45.4767765" lon="10.459145"><ele>155.0</ele><time>2026-03-29T11:43:19.257Z</time></trkpt><trkpt lat="45.4768217" lon="10.4589622"><ele>155.0</ele><time>2026-03-29T11:43:20.257Z</time></trkpt><trkpt lat="45.4768688" lon="10.4587655"><ele>155.0</ele><time>2026-03-29T11:43:21.257Z</time></trkpt><trkpt lat="45.4769021" lon="10.4585739"><ele>155.0</ele><time>2026-03-29T11:43:22.257Z</time></trkpt><trkpt lat="45.4769352" lon="10.4584028"><ele>155.0</ele><time>2026-03-29T11:43:23.257Z</time></trkpt><trkpt lat="45.476976" lon="10.45824"><ele>155.0</ele><time>2026-03-29T11:43:24.256Z</time></trkpt><trkpt lat="45.4770136" lon="10.4580694"><ele>155.0</ele><time>2026-03-29T11:43:25.257Z</time></trkpt><trkpt lat="45.4770484" lon="10.4578949"><ele>155.0</ele><time>2026-03-29T11:43:26.257Z</time></trkpt><trkpt lat="45.477083" lon="10.4577138"><ele>155.0</ele><time>2026-03-29T11:43:27.256Z</time></trkpt><trkpt lat="45.4771115" lon="10.4575294"><ele>154.5</ele><time>2026-03-29T11:43:28.257Z</time></trkpt><trkpt lat="45.4771354" lon="10.4573424"><ele>154.0</ele><time>2026-03-29T11:43:29.257Z</time></trkpt><trkpt lat="45.4771588" lon="10.4571596"><ele>153.5</ele><time>2026-03-29T11:43:30.257Z</time></trkpt><trkpt lat="45.4771926" lon="10.4569764"><ele>153.0</ele><time>2026-03-29T11:43:31.256Z</time></trkpt><trkpt lat="45.4772319" lon="10.4567947"><ele>153.0</ele><time>2026-03-29T11:43:32.257Z</time></trkpt><trkpt lat="45.4772722" lon="10.4566242"><ele>153.0</ele><time>2026-03-29T11:43:33.257Z</time></trkpt><trkpt lat="45.4773137" lon="10.4564697"><ele>153.0</ele><time>2026-03-29T11:43:34.256Z</time></trkpt><trkpt lat="45.4773537" lon="10.4563367"><ele>153.0</ele><time>2026-03-29T11:43:35.257Z</time></trkpt><trkpt lat="45.4773941" lon="10.4562175"><ele>153.0</ele><time>2026-03-29T11:43:36.257Z</time></trkpt><trkpt lat="45.4774303" lon="10.4561106"><ele>153.20000000000002</ele><time>2026-03-29T11:43:37.256Z</time></trkpt><trkpt lat="45.4774788" lon="10.4560309"><ele>153.4</ele><time>2026-03-29T11:43:38.256Z</time></trkpt><trkpt lat="45.4775417" lon="10.4559682"><ele>153.60000000000002</ele><time>2026-03-29T11:43:39.256Z</time></trkpt><trkpt lat="45.477619" lon="10.4559006"><ele>153.8</ele><time>2026-03-29T11:43:40.257Z</time></trkpt><trkpt lat="45.4777082" lon="10.4558276"><ele>154.0</ele><time>2026-03-29T11:43:41.256Z</time></trkpt><trkpt lat="45.4778015" lon="10.4557375"><ele>154.0</ele><time>2026-03-29T11:43:42.257Z</time></trkpt><trkpt lat="45.4778934" lon="10.4556182"><ele>154.0</ele><time>2026-03-29T11:43:43.257Z</time></trkpt><trkpt lat="45.4779999" lon="10.4554943"><ele>154.0</ele><time>2026-03-29T11:43:44.257Z</time></trkpt><trkpt lat="45.4781168" lon="10.4553564"><ele>154.0</ele><time>2026-03-29T11:43:45.257Z</time></trkpt><trkpt lat="45.4782383" lon="10.4552069"><ele>153.0</ele><time>2026-03-29T11:43:46.257Z</time></trkpt><trkpt lat="45.4783628" lon="10.455049"><ele>152.0</ele><time>2026-03-29T11:43:47.257Z</time></trkpt><trkpt lat="45.4784893" lon="10.4548899"><ele>151.0</ele><time>2026-03-29T11:43:48.257Z</time></trkpt><trkpt lat="45.4786192" lon="10.4547368"><ele>151.0</ele><time>2026-03-29T11:43:49.257Z</time></trkpt><trkpt lat="45.4787493" lon="10.4545915"><ele>151.0</ele><time>2026-03-29T11:43:50.257Z</time></trkpt><trkpt lat="45.4788803" lon="10.4544488"><ele>151.0</ele><time>2026-03-29T11:43:51.257Z</time></trkpt><trkpt lat="45.4790069" lon="10.4542952"><ele>151.0</ele><time>2026-03-29T11:43:52.257Z</time></trkpt><trkpt lat="45.4791349" lon="10.4541372"><ele>151.0</ele><time>2026-03-29T11:43:53.257Z</time></trkpt><trkpt lat="45.4792601" lon="10.4539832"><ele>151.0</ele><time>2026-03-29T11:43:54.256Z</time></trkpt><trkpt lat="45.4793761" lon="10.4538433"><ele>151.0</ele><time>2026-03-29T11:43:55.256Z</time></trkpt><trkpt lat="45.4795057" lon="10.4537206"><ele>151.0</ele><time>2026-03-29T11:43:56.256Z</time></trkpt><trkpt lat="45.4796446" lon="10.4535887"><ele>151.0</ele><time>2026-03-29T11:43:57.256Z</time></trkpt><trkpt lat="45.4797887" lon="10.4534773"><ele>151.2</ele><time>2026-03-29T11:43:58.256Z</time></trkpt><trkpt lat="45.4799237" lon="10.4533816"><ele>151.39999999999998</ele><time>2026-03-29T11:43:59.256Z</time></trkpt><trkpt lat="45.4800265" lon="10.4533079"><ele>151.6</ele><time>2026-03-29T11:44:00.256Z</time></trkpt><trkpt lat="45.4800946" lon="10.4532678"><ele>151.79999999999998</ele><time>2026-03-29T11:44:01.256Z</time></trkpt><trkpt lat="45.4801699" lon="10.4532665"><ele>152.0</ele><time>2026-03-29T11:44:03.257Z</time></trkpt><trkpt lat="45.4802812" lon="10.4533018"><ele>152.0</ele><time>2026-03-29T11:44:05.257Z</time></trkpt><trkpt lat="45.4803715" lon="10.4533207"><ele>152.0</ele><time>2026-03-29T11:44:06.257Z</time></trkpt><trkpt lat="45.4804803" lon="10.4533406"><ele>152.0</ele><time>2026-03-29T11:44:07.257Z</time></trkpt><trkpt lat="45.4806082" lon="10.4533646"><ele>152.0</ele><time>2026-03-29T11:44:08.257Z</time></trkpt><trkpt lat="45.4807444" lon="10.4533825"><ele>151.66666666666666</ele><time>2026-03-29T11:44:09.257Z</time></trkpt><trkpt lat="45.4808938" lon="10.4534035"><ele>151.33333333333334</ele><time>2026-03-29T11:44:10.256Z</time></trkpt><trkpt lat="45.4810522" lon="10.453429"><ele>151.0</ele><time>2026-03-29T11:44:11.256Z</time></trkpt><trkpt lat="45.4812066" lon="10.4534604"><ele>151.33333333333334</ele><time>2026-03-29T11:44:12.256Z</time></trkpt><trkpt lat="45.4813564" lon="10.4534841"><ele>151.66666666666666</ele><time>2026-03-29T11:44:13.256Z</time></trkpt><trkpt lat="45.4815052" lon="10.4535001"><ele>152.0</ele><time>2026-03-29T11:44:14.256Z</time></trkpt><trkpt lat="45.4816561" lon="10.4535271"><ele>152.0</ele><time>2026-03-29T11:44:15.256Z</time></trkpt><trkpt lat="45.4817993" lon="10.4535496"><ele>152.0</ele><time>2026-03-29T11:44:16.256Z</time></trkpt><trkpt lat="45.4819453" lon="10.4535742"><ele>152.0</ele><time>2026-03-29T11:44:17.257Z</time></trkpt><trkpt lat="45.482098" lon="10.453596"><ele>152.0</ele><time>2026-03-29T11:44:18.256Z</time></trkpt><trkpt lat="45.4822566" lon="10.4536099"><ele>152.0</ele><time>2026-03-29T11:44:19.257Z</time></trkpt><trkpt lat="45.482416" lon="10.4536228"><ele>152.0</ele><time>2026-03-29T11:44:20.257Z</time></trkpt><trkpt lat="45.4825778" lon="10.4536446"><ele>152.0</ele><time>2026-03-29T11:44:21.256Z</time></trkpt><trkpt lat="45.4827315" lon="10.4536753"><ele>152.0</ele><time>2026-03-29T11:44:22.257Z</time></trkpt><trkpt lat="45.4828903" lon="10.4537118"><ele>152.0</ele><time>2026-03-29T11:44:23.256Z</time></trkpt><trkpt lat="45.4830531" lon="10.4537471"><ele>152.0</ele><time>2026-03-29T11:44:24.257Z</time></trkpt><trkpt lat="45.4832219" lon="10.453778"><ele>152.66666666666666</ele><time>2026-03-29T11:44:25.257Z</time></trkpt><trkpt lat="45.4833914" lon="10.4537977"><ele>153.33333333333334</ele><time>2026-03-29T11:44:26.257Z</time></trkpt><trkpt lat="45.4835613" lon="10.453822"><ele>154.0</ele><time>2026-03-29T11:44:27.256Z</time></trkpt><trkpt lat="45.4837253" lon="10.4538442"><ele>154.25</ele><time>2026-03-29T11:44:28.257Z</time></trkpt><trkpt lat="45.4838757" lon="10.4538693"><ele>154.5</ele><time>2026-03-29T11:44:29.256Z</time></trkpt><trkpt lat="45.4840124" lon="10.453889"><ele>154.75</ele><time>2026-03-29T11:44:30.257Z</time></trkpt><trkpt lat="45.4841372" lon="10.4539062"><ele>155.0</ele><time>2026-03-29T11:44:31.256Z</time></trkpt><trkpt lat="45.4842493" lon="10.4539204"><ele>155.0</ele><time>2026-03-29T11:44:32.257Z</time></trkpt><trkpt lat="45.4843532" lon="10.4539402"><ele>155.0</ele><time>2026-03-29T11:44:33.257Z</time></trkpt><trkpt lat="45.4844437" lon="10.4539592"><ele>155.0</ele><time>2026-03-29T11:44:34.257Z</time></trkpt><trkpt lat="45.4845185" lon="10.4539638"><ele>155.0</ele><time>2026-03-29T11:44:35.257Z</time></trkpt><trkpt lat="45.4846172" lon="10.4539706"><ele>155.0</ele><time>2026-03-29T11:44:37.257Z</time></trkpt><trkpt lat="45.4846641" lon="10.4540352"><ele>155.0</ele><time>2026-03-29T11:44:39.257Z</time></trkpt><trkpt lat="45.4846615" lon="10.4541892"><ele>155.0</ele><time>2026-03-29T11:44:41.257Z</time></trkpt><trkpt lat="45.4846461" lon="10.4543163"><ele>155.0</ele><time>2026-03-29T11:44:42.256Z</time></trkpt><trkpt lat="45.4846336" lon="10.4544676"><ele>155.0</ele><time>2026-03-29T11:44:43.257Z</time></trkpt><trkpt lat="45.4846215" lon="10.4546272"><ele>155.0</ele><time>2026-03-29T11:44:44.256Z</time></trkpt><trkpt lat="45.4846147" lon="10.4547904"><ele>155.0</ele><time>2026-03-29T11:44:45.256Z</time></trkpt><trkpt lat="45.4846034" lon="10.4549568"><ele>155.5</ele><time>2026-03-29T11:44:46.256Z</time></trkpt><trkpt lat="45.4845987" lon="10.4551285"><ele>156.0</ele><time>2026-03-29T11:44:47.257Z</time></trkpt><trkpt lat="45.4845966" lon="10.4553177"><ele>156.5</ele><time>2026-03-29T11:44:48.257Z</time></trkpt><trkpt lat="45.484597" lon="10.4555131"><ele>157.0</ele><time>2026-03-29T11:44:49.257Z</time></trkpt><trkpt lat="45.4845938" lon="10.4557217"><ele>157.0</ele><time>2026-03-29T11:44:50.257Z</time></trkpt><trkpt lat="45.4845912" lon="10.4559331"><ele>157.0</ele><time>2026-03-29T11:44:51.256Z</time></trkpt><trkpt lat="45.4845992" lon="10.4561426"><ele>157.0</ele><time>2026-03-29T11:44:52.256Z</time></trkpt><trkpt lat="45.4846035" lon="10.4563508"><ele>157.0</ele><time>2026-03-29T11:44:53.256Z</time></trkpt><trkpt lat="45.4846042" lon="10.4565554"><ele>157.0</ele><time>2026-03-29T11:44:54.257Z</time></trkpt><trkpt lat="45.4846037" lon="10.4567605"><ele>157.0</ele><time>2026-03-29T11:44:55.257Z</time></trkpt><trkpt lat="45.4846075" lon="10.4569746"><ele>157.0</ele><time>2026-03-29T11:44:56.257Z</time></trkpt><trkpt lat="45.4846012" lon="10.4571691"><ele>157.0</ele><time>2026-03-29T11:44:57.257Z</time></trkpt><trkpt lat="45.484594" lon="10.4573502"><ele>157.0</ele><time>2026-03-29T11:44:58.257Z</time></trkpt><trkpt lat="45.4845871" lon="10.4575241"><ele>157.0</ele><time>2026-03-29T11:44:59.257Z</time></trkpt><trkpt lat="45.4845828" lon="10.4576957"><ele>157.0</ele><time>2026-03-29T11:45:00.257Z</time></trkpt><trkpt lat="45.4845854" lon="10.4578577"><ele>157.0</ele><time>2026-03-29T11:45:01.257Z</time></trkpt><trkpt lat="45.4845884" lon="10.458004"><ele>157.2</ele><time>2026-03-29T11:45:02.256Z</time></trkpt><trkpt lat="45.4845809" lon="10.458126"><ele>157.39999999999998</ele><time>2026-03-29T11:45:03.257Z</time></trkpt><trkpt lat="45.484552" lon="10.4582333"><ele>157.60000000000002</ele><time>2026-03-29T11:45:04.257Z</time></trkpt><trkpt lat="45.4844985" lon="10.4583376"><ele>157.8</ele><time>2026-03-29T11:45:05.256Z</time></trkpt><trkpt lat="45.4844252" lon="10.458453"><ele>158.0</ele><time>2026-03-29T11:45:06.256Z</time></trkpt><trkpt lat="45.484331" lon="10.4585761"><ele>158.0</ele><time>2026-03-29T11:45:07.256Z</time></trkpt><trkpt lat="45.4842312" lon="10.4587105"><ele>158.0</ele><time>2026-03-29T11:45:08.256Z</time></trkpt><trkpt lat="45.4841343" lon="10.4588496"><ele>158.0</ele><time>2026-03-29T11:45:09.257Z</time></trkpt><trkpt lat="45.4840442" lon="10.4589932"><ele>158.0</ele><time>2026-03-29T11:45:10.257Z</time></trkpt><trkpt lat="45.4839616" lon="10.4591243"><ele>158.5</ele><time>2026-03-29T11:45:11.256Z</time></trkpt><trkpt lat="45.4838862" lon="10.4592285"><ele>159.0</ele><time>2026-03-29T11:45:12.257Z</time></trkpt><trkpt lat="45.48382" lon="10.4593221"><ele>159.5</ele><time>2026-03-29T11:45:13.257Z</time></trkpt><trkpt lat="45.4837791" lon="10.4594168"><ele>160.0</ele><time>2026-03-29T11:45:14.256Z</time></trkpt><trkpt lat="45.4837673" lon="10.4595156"><ele>160.5</ele><time>2026-03-29T11:45:15.257Z</time></trkpt><trkpt lat="45.4837803" lon="10.4596199"><ele>161.0</ele><time>2026-03-29T11:45:16.256Z</time></trkpt><trkpt lat="45.4838148" lon="10.4597558"><ele>161.25</ele><time>2026-03-29T11:45:17.256Z</time></trkpt><trkpt lat="45.4838583" lon="10.4599214"><ele>161.5</ele><time>2026-03-29T11:45:18.257Z</time></trkpt><trkpt lat="45.4838962" lon="10.4601114"><ele>161.75</ele><time>2026-03-29T11:45:19.257Z</time></trkpt><trkpt lat="45.4839256" lon="10.4603202"><ele>162.0</ele><time>2026-03-29T11:45:20.257Z</time></trkpt><trkpt lat="45.4839449" lon="10.460529"><ele>162.0</ele><time>2026-03-29T11:45:21.256Z</time></trkpt><trkpt lat="45.4839585" lon="10.4607332"><ele>162.0</ele><time>2026-03-29T11:45:22.256Z</time></trkpt><trkpt lat="45.4839639" lon="10.4609377"><ele>162.0</ele><time>2026-03-29T11:45:23.256Z</time></trkpt><trkpt lat="45.4839587" lon="10.4611322"><ele>162.0</ele><time>2026-03-29T11:45:24.257Z</time></trkpt><trkpt lat="45.4839574" lon="10.4613"><ele>162.0</ele><time>2026-03-29T11:45:25.257Z</time></trkpt><trkpt lat="45.4839586" lon="10.4614497"><ele>162.0</ele><time>2026-03-29T11:45:26.257Z</time></trkpt><trkpt lat="45.4839562" lon="10.4615844"><ele>162.0</ele><time>2026-03-29T11:45:27.256Z</time></trkpt><trkpt lat="45.4839539" lon="10.4617082"><ele>162.0</ele><time>2026-03-29T11:45:28.257Z</time></trkpt><trkpt lat="45.4839613" lon="10.4618144"><ele>162.0</ele><time>2026-03-29T11:45:29.256Z</time></trkpt><trkpt lat="45.4839844" lon="10.4619012"><ele>162.0</ele><time>2026-03-29T11:45:30.256Z</time></trkpt><trkpt lat="45.4840358" lon="10.4619829"><ele>162.0</ele><time>2026-03-29T11:45:31.256Z</time></trkpt><trkpt lat="45.4840985" lon="10.4620799"><ele>162.0</ele><time>2026-03-29T11:45:32.257Z</time></trkpt><trkpt lat="45.4841625" lon="10.4621988"><ele>162.0</ele><time>2026-03-29T11:45:33.257Z</time></trkpt><trkpt lat="45.4842305" lon="10.4623459"><ele>162.0</ele><time>2026-03-29T11:45:34.256Z</time></trkpt><trkpt lat="45.4842962" lon="10.4625011"><ele>162.0</ele><time>2026-03-29T11:45:35.257Z</time></trkpt><trkpt lat="45.4843515" lon="10.4626633"><ele>162.2</ele><time>2026-03-29T11:45:36.256Z</time></trkpt><trkpt lat="45.4843947" lon="10.4628289"><ele>162.39999999999998</ele><time>2026-03-29T11:45:37.257Z</time></trkpt><trkpt lat="45.4844341" lon="10.4629737"><ele>162.60000000000002</ele><time>2026-03-29T11:45:38.256Z</time></trkpt><trkpt lat="45.4844878" lon="10.4630833"><ele>162.8</ele><time>2026-03-29T11:45:39.257Z</time></trkpt><trkpt lat="45.4845573" lon="10.4631646"><ele>163.0</ele><time>2026-03-29T11:45:40.256Z</time></trkpt><trkpt lat="45.4846088" lon="10.4632409"><ele>163.4</ele><time>2026-03-29T11:45:41.256Z</time></trkpt><trkpt lat="45.4846562" lon="10.4633944"><ele>163.8</ele><time>2026-03-29T11:45:43.257Z</time></trkpt><trkpt lat="45.4846551" lon="10.4635132"><ele>164.2</ele><time>2026-03-29T11:45:44.256Z</time></trkpt><trkpt lat="45.4846477" lon="10.4636672"><ele>164.6</ele><time>2026-03-29T11:45:45.257Z</time></trkpt><trkpt lat="45.4846395" lon="10.4638527"><ele>165.0</ele><time>2026-03-29T11:45:46.257Z</time></trkpt><trkpt lat="45.484647" lon="10.4640557"><ele>165.0</ele><time>2026-03-29T11:45:47.257Z</time></trkpt><trkpt lat="45.4846608" lon="10.4642656"><ele>165.0</ele><time>2026-03-29T11:45:48.256Z</time></trkpt><trkpt lat="45.4846845" lon="10.4644728"><ele>165.0</ele><time>2026-03-29T11:45:49.257Z</time></trkpt><trkpt lat="45.4847085" lon="10.4646687"><ele>165.0</ele><time>2026-03-29T11:45:50.256Z</time></trkpt><trkpt lat="45.4847269" lon="10.4648662"><ele>165.25</ele><time>2026-03-29T11:45:51.256Z</time></trkpt><trkpt lat="45.4847439" lon="10.4650691"><ele>165.5</ele><time>2026-03-29T11:45:52.256Z</time></trkpt><trkpt lat="45.4847641" lon="10.4652686"><ele>165.75</ele><time>2026-03-29T11:45:53.257Z</time></trkpt><trkpt lat="45.4847874" lon="10.465473"><ele>166.0</ele><time>2026-03-29T11:45:54.257Z</time></trkpt><trkpt lat="45.4848184" lon="10.4656783"><ele>166.33333333333334</ele><time>2026-03-29T11:45:55.256Z</time></trkpt><trkpt lat="45.4848481" lon="10.4658896"><ele>166.66666666666666</ele><time>2026-03-29T11:45:56.257Z</time></trkpt><trkpt lat="45.4848734" lon="10.4661143"><ele>167.0</ele><time>2026-03-29T11:45:57.257Z</time></trkpt><trkpt lat="45.4848949" lon="10.4663283"><ele>167.5</ele><time>2026-03-29T11:45:58.255Z</time></trkpt><trkpt lat="45.4849154" lon="10.4665345"><ele>168.0</ele><time>2026-03-29T11:45:59.256Z</time></trkpt><trkpt lat="45.4849399" lon="10.4667386"><ele>168.5</ele><time>2026-03-29T11:46:00.255Z</time></trkpt><trkpt lat="45.4849722" lon="10.4669321"><ele>169.0</ele><time>2026-03-29T11:46:01.256Z</time></trkpt><trkpt lat="45.4850087" lon="10.4671264"><ele>169.0</ele><time>2026-03-29T11:46:02.255Z</time></trkpt><trkpt lat="45.4850417" lon="10.4673283"><ele>169.0</ele><time>2026-03-29T11:46:03.256Z</time></trkpt><trkpt lat="45.4850674" lon="10.4675433"><ele>169.0</ele><time>2026-03-29T11:46:04.256Z</time></trkpt><trkpt lat="45.4850905" lon="10.4677676"><ele>169.33333333333334</ele><time>2026-03-29T11:46:05.255Z</time></trkpt><trkpt lat="45.4851089" lon="10.4680036"><ele>169.66666666666666</ele><time>2026-03-29T11:46:06.256Z</time></trkpt><trkpt lat="45.4851275" lon="10.4682328"><ele>170.0</ele><time>2026-03-29T11:46:07.255Z</time></trkpt><trkpt lat="45.4851424" lon="10.468451"><ele>170.0</ele><time>2026-03-29T11:46:08.255Z</time></trkpt><trkpt lat="45.4851519" lon="10.4686619"><ele>170.0</ele><time>2026-03-29T11:46:09.256Z</time></trkpt><trkpt lat="45.485167" lon="10.4688544"><ele>170.0</ele><time>2026-03-29T11:46:10.255Z</time></trkpt><trkpt lat="45.4851725" lon="10.4690269"><ele>170.0</ele><time>2026-03-29T11:46:11.255Z</time></trkpt><trkpt lat="45.485175" lon="10.4691825"><ele>170.2</ele><time>2026-03-29T11:46:12.256Z</time></trkpt><trkpt lat="45.4851756" lon="10.4693216"><ele>170.4</ele><time>2026-03-29T11:46:13.256Z</time></trkpt><trkpt lat="45.4851695" lon="10.4694501"><ele>170.60000000000002</ele><time>2026-03-29T11:46:14.255Z</time></trkpt><trkpt lat="45.485165" lon="10.4695728"><ele>170.8</ele><time>2026-03-29T11:46:15.255Z</time></trkpt><trkpt lat="45.4851657" lon="10.4697004"><ele>171.0</ele><time>2026-03-29T11:46:16.255Z</time></trkpt><trkpt lat="45.4851787" lon="10.4698352"><ele>171.25</ele><time>2026-03-29T11:46:17.256Z</time></trkpt><trkpt lat="45.4852006" lon="10.4699809"><ele>171.5</ele><time>2026-03-29T11:46:18.255Z</time></trkpt><trkpt lat="45.4852305" lon="10.4701525"><ele>171.75</ele><time>2026-03-29T11:46:19.256Z</time></trkpt><trkpt lat="45.4852667" lon="10.4703267"><ele>172.0</ele><time>2026-03-29T11:46:20.256Z</time></trkpt><trkpt lat="45.4852932" lon="10.4705012"><ele>172.75</ele><time>2026-03-29T11:46:21.256Z</time></trkpt><trkpt lat="45.4853134" lon="10.4706681"><ele>173.5</ele><time>2026-03-29T11:46:22.256Z</time></trkpt><trkpt lat="45.4853479" lon="10.4708347"><ele>174.25</ele><time>2026-03-29T11:46:23.255Z</time></trkpt><trkpt lat="45.4853744" lon="10.4710024"><ele>175.0</ele><time>2026-03-29T11:46:24.255Z</time></trkpt><trkpt lat="45.4854051" lon="10.4711577"><ele>176.0</ele><time>2026-03-29T11:46:25.256Z</time></trkpt><trkpt lat="45.4854347" lon="10.4712985"><ele>177.0</ele><time>2026-03-29T11:46:26.256Z</time></trkpt><trkpt lat="45.4854677" lon="10.4714352"><ele>178.0</ele><time>2026-03-29T11:46:27.255Z</time></trkpt><trkpt lat="45.4855001" lon="10.471564"><ele>179.0</ele><time>2026-03-29T11:46:28.256Z</time></trkpt><trkpt lat="45.4855284" lon="10.4716994"><ele>180.0</ele><time>2026-03-29T11:46:29.255Z</time></trkpt><trkpt lat="45.4855507" lon="10.4718266"><ele>180.0</ele><time>2026-03-29T11:46:30.256Z</time></trkpt><trkpt lat="45.4855794" lon="10.4719573"><ele>180.0</ele><time>2026-03-29T11:46:31.256Z</time></trkpt><trkpt lat="45.4856073" lon="10.4720922"><ele>180.0</ele><time>2026-03-29T11:46:32.255Z</time></trkpt><trkpt lat="45.4856218" lon="10.4722188"><ele>180.0</ele><time>2026-03-29T11:46:33.256Z</time></trkpt><trkpt lat="45.4856373" lon="10.4723257"><ele>180.0</ele><time>2026-03-29T11:46:34.256Z</time></trkpt><trkpt lat="45.4856701" lon="10.4724658"><ele>180.6</ele><time>2026-03-29T11:46:36.256Z</time></trkpt><trkpt lat="45.4857388" lon="10.472483"><ele>181.2</ele><time>2026-03-29T11:46:38.256Z</time></trkpt><trkpt lat="45.4858343" lon="10.4724382"><ele>181.8</ele><time>2026-03-29T11:46:40.255Z</time></trkpt><trkpt lat="45.4859376" lon="10.472478"><ele>182.4</ele><time>2026-03-29T11:46:42.256Z</time></trkpt><trkpt lat="45.4860431" lon="10.4725724"><ele>183.0</ele><time>2026-03-29T11:46:44.255Z</time></trkpt><trkpt lat="45.4860989" lon="10.4726455"><ele>183.0</ele><time>2026-03-29T11:46:45.256Z</time></trkpt><trkpt lat="45.4861702" lon="10.4727727"><ele>183.0</ele><time>2026-03-29T11:46:47.256Z</time></trkpt><trkpt lat="45.4862169" lon="10.4728611"><ele>183.0</ele><time>2026-03-29T11:46:49.256Z</time></trkpt><trkpt lat="45.4862778" lon="10.4728931"><ele>183.0</ele><time>2026-03-29T11:47:07.255Z</time></trkpt><trkpt lat="45.486332" lon="10.4729551"><ele>183.0</ele><time>2026-03-29T11:47:09.256Z</time></trkpt><trkpt lat="45.4864589" lon="10.4728802"><ele>182.25</ele><time>2026-03-29T11:47:11.255Z</time></trkpt><trkpt lat="45.4865426" lon="10.4727971"><ele>181.5</ele><time>2026-03-29T11:47:12.256Z</time></trkpt><trkpt lat="45.4866419" lon="10.4726836"><ele>180.75</ele><time>2026-03-29T11:47:13.256Z</time></trkpt><trkpt lat="45.4867437" lon="10.472552"><ele>180.0</ele><time>2026-03-29T11:47:14.255Z</time></trkpt><trkpt lat="45.4868516" lon="10.4723979"><ele>180.0</ele><time>2026-03-29T11:47:15.255Z</time></trkpt><trkpt lat="45.4869694" lon="10.4722426"><ele>180.0</ele><time>2026-03-29T11:47:16.256Z</time></trkpt><trkpt lat="45.4870868" lon="10.472087"><ele>180.0</ele><time>2026-03-29T11:47:17.256Z</time></trkpt><trkpt lat="45.4871982" lon="10.4719354"><ele>179.0</ele><time>2026-03-29T11:47:18.256Z</time></trkpt><trkpt lat="45.4873085" lon="10.4717744"><ele>178.0</ele><time>2026-03-29T11:47:19.256Z</time></trkpt><trkpt lat="45.4874178" lon="10.4716004"><ele>177.0</ele><time>2026-03-29T11:47:20.256Z</time></trkpt><trkpt lat="45.4875268" lon="10.471401"><ele>176.66666666666666</ele><time>2026-03-29T11:47:21.256Z</time></trkpt><trkpt lat="45.487625" lon="10.4711964"><ele>176.33333333333331</ele><time>2026-03-29T11:47:22.256Z</time></trkpt><trkpt lat="45.4877171" lon="10.4709912"><ele>176.0</ele><time>2026-03-29T11:47:23.256Z</time></trkpt><trkpt lat="45.4878071" lon="10.4708026"><ele>176.0</ele><time>2026-03-29T11:47:24.255Z</time></trkpt><trkpt lat="45.4878924" lon="10.4706216"><ele>176.0</ele><time>2026-03-29T11:47:25.255Z</time></trkpt><trkpt lat="45.4879831" lon="10.4704802"><ele>176.0</ele><time>2026-03-29T11:47:26.255Z</time></trkpt><trkpt lat="45.4880522" lon="10.4703535"><ele>176.0</ele><time>2026-03-29T11:47:27.255Z</time></trkpt><trkpt lat="45.4881171" lon="10.4702393"><ele>176.0</ele><time>2026-03-29T11:47:28.255Z</time></trkpt><trkpt lat="45.488166" lon="10.4701388"><ele>176.0</ele><time>2026-03-29T11:47:29.255Z</time></trkpt><trkpt lat="45.4881813" lon="10.4699821"><ele>176.0</ele><time>2026-03-29T11:47:31.255Z</time></trkpt><trkpt lat="45.4881567" lon="10.4698762"><ele>176.0</ele><time>2026-03-29T11:47:32.256Z</time></trkpt><trkpt lat="45.488123" lon="10.4697314"><ele>176.0</ele><time>2026-03-29T11:47:33.256Z</time></trkpt><trkpt lat="45.4880918" lon="10.469536"><ele>175.33333333333331</ele><time>2026-03-29T11:47:34.256Z</time></trkpt><trkpt lat="45.4880751" lon="10.4693131"><ele>174.66666666666666</ele><time>2026-03-29T11:47:35.255Z</time></trkpt><trkpt lat="45.4880666" lon="10.4690847"><ele>174.0</ele><time>2026-03-29T11:47:36.256Z</time></trkpt><trkpt lat="45.4880542" lon="10.4688575"><ele>173.33333333333334</ele><time>2026-03-29T11:47:37.256Z</time></trkpt><trkpt lat="45.4880368" lon="10.4686151"><ele>172.66666666666669</ele><time>2026-03-29T11:47:38.256Z</time></trkpt><trkpt lat="45.4880252" lon="10.4683591"><ele>172.0</ele><time>2026-03-29T11:47:39.255Z</time></trkpt><trkpt lat="45.488006" lon="10.468083"><ele>171.33333333333334</ele><time>2026-03-29T11:47:40.256Z</time></trkpt><trkpt lat="45.4879896" lon="10.4678084"><ele>170.66666666666666</ele><time>2026-03-29T11:47:41.256Z</time></trkpt><trkpt lat="45.4879739" lon="10.4675316"><ele>170.0</ele><time>2026-03-29T11:47:42.255Z</time></trkpt><trkpt lat="45.4879519" lon="10.4672418"><ele>170.66666666666666</ele><time>2026-03-29T11:47:43.256Z</time></trkpt><trkpt lat="45.4879249" lon="10.4669655"><ele>171.33333333333334</ele><time>2026-03-29T11:47:44.256Z</time></trkpt><trkpt lat="45.4879072" lon="10.4666713"><ele>172.0</ele><time>2026-03-29T11:47:45.255Z</time></trkpt><trkpt lat="45.4879048" lon="10.4663844"><ele>171.33333333333334</ele><time>2026-03-29T11:47:46.255Z</time></trkpt><trkpt lat="45.487908" lon="10.4661085"><ele>170.66666666666666</ele><time>2026-03-29T11:47:47.255Z</time></trkpt><trkpt lat="45.4879077" lon="10.4658283"><ele>170.0</ele><time>2026-03-29T11:47:48.256Z</time></trkpt><trkpt lat="45.4879154" lon="10.4655408"><ele>168.66666666666666</ele><time>2026-03-29T11:47:49.256Z</time></trkpt><trkpt lat="45.4879317" lon="10.4652528"><ele>167.33333333333334</ele><time>2026-03-29T11:47:50.255Z</time></trkpt><trkpt lat="45.4879453" lon="10.464966"><ele>166.0</ele><time>2026-03-29T11:47:51.255Z</time></trkpt><trkpt lat="45.48796" lon="10.4646944"><ele>165.66666666666669</ele><time>2026-03-29T11:47:52.255Z</time></trkpt><trkpt lat="45.487962" lon="10.4644238"><ele>165.33333333333334</ele><time>2026-03-29T11:47:53.255Z</time></trkpt><trkpt lat="45.4879482" lon="10.4641617"><ele>165.0</ele><time>2026-03-29T11:47:54.255Z</time></trkpt><trkpt lat="45.4879191" lon="10.4638959"><ele>165.33333333333334</ele><time>2026-03-29T11:47:55.256Z</time></trkpt><trkpt lat="45.487884" lon="10.4636428"><ele>165.66666666666669</ele><time>2026-03-29T11:47:56.255Z</time></trkpt><trkpt lat="45.4878531" lon="10.4633786"><ele>166.0</ele><time>2026-03-29T11:47:57.256Z</time></trkpt><trkpt lat="45.4878324" lon="10.4631054"><ele>165.66666666666669</ele><time>2026-03-29T11:47:58.255Z</time></trkpt><trkpt lat="45.4878072" lon="10.4628293"><ele>165.33333333333334</ele><time>2026-03-29T11:47:59.255Z</time></trkpt><trkpt lat="45.4877815" lon="10.4625577"><ele>165.0</ele><time>2026-03-29T11:48:00.256Z</time></trkpt><trkpt lat="45.487756" lon="10.4622897"><ele>164.33333333333334</ele><time>2026-03-29T11:48:01.256Z</time></trkpt><trkpt lat="45.4877295" lon="10.4620374"><ele>163.66666666666669</ele><time>2026-03-29T11:48:02.255Z</time></trkpt><trkpt lat="45.487704" lon="10.4617841"><ele>163.0</ele><time>2026-03-29T11:48:03.256Z</time></trkpt><trkpt lat="45.4876777" lon="10.461544"><ele>163.0</ele><time>2026-03-29T11:48:04.256Z</time></trkpt><trkpt lat="45.4876668" lon="10.461297"><ele>163.0</ele><time>2026-03-29T11:48:05.255Z</time></trkpt><trkpt lat="45.4876851" lon="10.4610445"><ele>163.0</ele><time>2026-03-29T11:48:06.256Z</time></trkpt><trkpt lat="45.4877201" lon="10.4607845"><ele>162.66666666666669</ele><time>2026-03-29T11:48:07.255Z</time></trkpt><trkpt lat="45.4877576" lon="10.4605264"><ele>162.33333333333334</ele><time>2026-03-29T11:48:08.256Z</time></trkpt><trkpt lat="45.4877888" lon="10.4602763"><ele>162.0</ele><time>2026-03-29T11:48:09.256Z</time></trkpt><trkpt lat="45.4878044" lon="10.4600287"><ele>161.66666666666666</ele><time>2026-03-29T11:48:10.255Z</time></trkpt><trkpt lat="45.4878112" lon="10.4597738"><ele>161.33333333333331</ele><time>2026-03-29T11:48:11.256Z</time></trkpt><trkpt lat="45.4878083" lon="10.4595149"><ele>161.0</ele><time>2026-03-29T11:48:12.255Z</time></trkpt><trkpt lat="45.4877924" lon="10.4592404"><ele>161.0</ele><time>2026-03-29T11:48:13.256Z</time></trkpt><trkpt lat="45.4877702" lon="10.4589662"><ele>161.0</ele><time>2026-03-29T11:48:14.256Z</time></trkpt><trkpt lat="45.4877608" lon="10.4586989"><ele>161.0</ele><time>2026-03-29T11:48:15.255Z</time></trkpt><trkpt lat="45.4877689" lon="10.4584349"><ele>160.33333333333331</ele><time>2026-03-29T11:48:16.256Z</time></trkpt><trkpt lat="45.4877898" lon="10.4581707"><ele>159.66666666666666</ele><time>2026-03-29T11:48:17.256Z</time></trkpt><trkpt lat="45.487827" lon="10.4579056"><ele>159.0</ele><time>2026-03-29T11:48:18.255Z</time></trkpt><trkpt lat="45.4878652" lon="10.4576454"><ele>159.0</ele><time>2026-03-29T11:48:19.256Z</time></trkpt><trkpt lat="45.4878972" lon="10.4573935"><ele>159.0</ele><time>2026-03-29T11:48:20.256Z</time></trkpt><trkpt lat="45.4879243" lon="10.4571488"><ele>159.0</ele><time>2026-03-29T11:48:21.255Z</time></trkpt><trkpt lat="45.4879376" lon="10.4569035"><ele>159.0</ele><time>2026-03-29T11:48:22.255Z</time></trkpt><trkpt lat="45.4879346" lon="10.4566614"><ele>159.0</ele><time>2026-03-29T11:48:23.255Z</time></trkpt><trkpt lat="45.4879292" lon="10.4564209"><ele>159.0</ele><time>2026-03-29T11:48:24.256Z</time></trkpt><trkpt lat="45.4879336" lon="10.4561665"><ele>159.0</ele><time>2026-03-29T11:48:25.256Z</time></trkpt><trkpt lat="45.4879399" lon="10.4559076"><ele>159.0</ele><time>2026-03-29T11:48:26.256Z</time></trkpt><trkpt lat="45.4879505" lon="10.4556351"><ele>159.0</ele><time>2026-03-29T11:48:27.255Z</time></trkpt><trkpt lat="45.4879648" lon="10.455354"><ele>159.33333333333334</ele><time>2026-03-29T11:48:28.255Z</time></trkpt><trkpt lat="45.487977" lon="10.4550641"><ele>159.66666666666669</ele><time>2026-03-29T11:48:29.256Z</time></trkpt><trkpt lat="45.4879903" lon="10.4547707"><ele>160.0</ele><time>2026-03-29T11:48:30.255Z</time></trkpt><trkpt lat="45.48801" lon="10.4544672"><ele>160.0</ele><time>2026-03-29T11:48:31.255Z</time></trkpt><trkpt lat="45.4880354" lon="10.4541601"><ele>160.0</ele><time>2026-03-29T11:48:32.255Z</time></trkpt><trkpt lat="45.4880631" lon="10.453856"><ele>160.0</ele><time>2026-03-29T11:48:33.256Z</time></trkpt><trkpt lat="45.4880819" lon="10.4535519"><ele>159.66666666666669</ele><time>2026-03-29T11:48:34.255Z</time></trkpt><trkpt lat="45.4881022" lon="10.4532426"><ele>159.33333333333334</ele><time>2026-03-29T11:48:35.256Z</time></trkpt><trkpt lat="45.4881283" lon="10.4529517"><ele>159.0</ele><time>2026-03-29T11:48:36.255Z</time></trkpt><trkpt lat="45.4881535" lon="10.4526839"><ele>158.66666666666666</ele><time>2026-03-29T11:48:37.255Z</time></trkpt><trkpt lat="45.4881807" lon="10.4524249"><ele>158.33333333333331</ele><time>2026-03-29T11:48:38.256Z</time></trkpt><trkpt lat="45.4882193" lon="10.4521816"><ele>158.0</ele><time>2026-03-29T11:48:39.256Z</time></trkpt><trkpt lat="45.4882669" lon="10.4519522"><ele>157.66666666666666</ele><time>2026-03-29T11:48:40.256Z</time></trkpt><trkpt lat="45.4883073" lon="10.4517176"><ele>157.33333333333334</ele><time>2026-03-29T11:48:41.255Z</time></trkpt><trkpt lat="45.4883328" lon="10.4514807"><ele>157.0</ele><time>2026-03-29T11:48:42.255Z</time></trkpt><trkpt lat="45.4883437" lon="10.4512336"><ele>156.66666666666669</ele><time>2026-03-29T11:48:43.256Z</time></trkpt><trkpt lat="45.488345" lon="10.4509717"><ele>156.33333333333334</ele><time>2026-03-29T11:48:44.255Z</time></trkpt><trkpt lat="45.4883445" lon="10.4506869"><ele>156.0</ele><time>2026-03-29T11:48:45.255Z</time></trkpt><trkpt lat="45.488347" lon="10.4503921"><ele>156.0</ele><time>2026-03-29T11:48:46.255Z</time></trkpt><trkpt lat="45.4883551" lon="10.4501062"><ele>156.0</ele><time>2026-03-29T11:48:47.256Z</time></trkpt><trkpt lat="45.48837" lon="10.4498317"><ele>156.0</ele><time>2026-03-29T11:48:48.255Z</time></trkpt><trkpt lat="45.4883833" lon="10.44957"><ele>155.66666666666666</ele><time>2026-03-29T11:48:49.255Z</time></trkpt><trkpt lat="45.4883883" lon="10.4493217"><ele>155.33333333333331</ele><time>2026-03-29T11:48:50.256Z</time></trkpt><trkpt lat="45.4883767" lon="10.4490817"><ele>155.0</ele><time>2026-03-29T11:48:51.256Z</time></trkpt><trkpt lat="45.4883417" lon="10.4488417"><ele>154.66666666666666</ele><time>2026-03-29T11:48:52.256Z</time></trkpt><trkpt lat="45.48831" lon="10.4485983"><ele>154.33333333333334</ele><time>2026-03-29T11:48:53.256Z</time></trkpt><trkpt lat="45.4882933" lon="10.4483717"><ele>154.0</ele><time>2026-03-29T11:48:54.255Z</time></trkpt><trkpt lat="45.4882983" lon="10.4481133"><ele>154.33333333333334</ele><time>2026-03-29T11:48:55.255Z</time></trkpt><trkpt lat="45.48832" lon="10.4478433"><ele>154.66666666666666</ele><time>2026-03-29T11:48:56.255Z</time></trkpt><trkpt lat="45.4883333" lon="10.4475617"><ele>155.0</ele><time>2026-03-29T11:48:57.256Z</time></trkpt><trkpt lat="45.4883533" lon="10.447265"><ele>154.66666666666666</ele><time>2026-03-29T11:48:58.255Z</time></trkpt><trkpt lat="45.4883717" lon="10.4469833"><ele>154.33333333333334</ele><time>2026-03-29T11:48:59.255Z</time></trkpt><trkpt lat="45.4883933" lon="10.4467233"><ele>154.0</ele><time>2026-03-29T11:49:00.256Z</time></trkpt><trkpt lat="45.488415" lon="10.44649"><ele>154.25</ele><time>2026-03-29T11:49:01.255Z</time></trkpt><trkpt lat="45.4884433" lon="10.44624"><ele>154.5</ele><time>2026-03-29T11:49:02.255Z</time></trkpt><trkpt lat="45.4884667" lon="10.4460417"><ele>154.75</ele><time>2026-03-29T11:49:03.254Z</time></trkpt><trkpt lat="45.4884833" lon="10.44588"><ele>155.0</ele><time>2026-03-29T11:49:04.255Z</time></trkpt><trkpt lat="45.4885017" lon="10.4457667"><ele>155.0</ele><time>2026-03-29T11:49:05.254Z</time></trkpt><trkpt lat="45.4885167" lon="10.44563"><ele>155.0</ele><time>2026-03-29T11:49:07.254Z</time></trkpt><trkpt lat="45.4885583" lon="10.4455417"><ele>155.0</ele><time>2026-03-29T11:49:09.254Z</time></trkpt><trkpt lat="45.4886233" lon="10.4455283"><ele>155.0</ele><time>2026-03-29T11:49:11.254Z</time></trkpt><trkpt lat="45.48871" lon="10.445565"><ele>155.0</ele><time>2026-03-29T11:49:12.254Z</time></trkpt><trkpt lat="45.488835" lon="10.445635"><ele>155.66666666666666</ele><time>2026-03-29T11:49:13.255Z</time></trkpt><trkpt lat="45.4889667" lon="10.4457217"><ele>156.33333333333334</ele><time>2026-03-29T11:49:14.254Z</time></trkpt><trkpt lat="45.48912" lon="10.4458017"><ele>157.0</ele><time>2026-03-29T11:49:15.255Z</time></trkpt><trkpt lat="45.4892883" lon="10.4458817"><ele>157.0</ele><time>2026-03-29T11:49:16.255Z</time></trkpt><trkpt lat="45.48948" lon="10.4459833"><ele>157.0</ele><time>2026-03-29T11:49:17.255Z</time></trkpt><trkpt lat="45.4896733" lon="10.4460733"><ele>157.0</ele><time>2026-03-29T11:49:18.254Z</time></trkpt><trkpt lat="45.489875" lon="10.4461583"><ele>156.66666666666669</ele><time>2026-03-29T11:49:19.254Z</time></trkpt><trkpt lat="45.4900733" lon="10.4462317"><ele>156.33333333333334</ele><time>2026-03-29T11:49:20.254Z</time></trkpt><trkpt lat="45.4902817" lon="10.4462933"><ele>156.0</ele><time>2026-03-29T11:49:21.255Z</time></trkpt><trkpt lat="45.4904983" lon="10.446335"><ele>156.66666666666666</ele><time>2026-03-29T11:49:22.255Z</time></trkpt><trkpt lat="45.4907033" lon="10.4463883"><ele>157.33333333333331</ele><time>2026-03-29T11:49:23.255Z</time></trkpt><trkpt lat="45.4909083" lon="10.4464367"><ele>158.0</ele><time>2026-03-29T11:49:24.255Z</time></trkpt><trkpt lat="45.491105" lon="10.44648"><ele>158.0</ele><time>2026-03-29T11:49:25.255Z</time></trkpt><trkpt lat="45.4912967" lon="10.446515"><ele>158.0</ele><time>2026-03-29T11:49:26.254Z</time></trkpt><trkpt lat="45.4915017" lon="10.4465617"><ele>158.0</ele><time>2026-03-29T11:49:27.255Z</time></trkpt><trkpt lat="45.4916967" lon="10.4466233"><ele>158.0</ele><time>2026-03-29T11:49:28.254Z</time></trkpt><trkpt lat="45.4918967" lon="10.4466867"><ele>158.0</ele><time>2026-03-29T11:49:29.254Z</time></trkpt><trkpt lat="45.492085" lon="10.44675"><ele>158.0</ele><time>2026-03-29T11:49:30.255Z</time></trkpt><trkpt lat="45.4922733" lon="10.4468267"><ele>158.66666666666666</ele><time>2026-03-29T11:49:31.254Z</time></trkpt><trkpt lat="45.4924667" lon="10.446915"><ele>159.33333333333334</ele><time>2026-03-29T11:49:32.255Z</time></trkpt><trkpt lat="45.49266" lon="10.4469983"><ele>160.0</ele><time>2026-03-29T11:49:33.254Z</time></trkpt><trkpt lat="45.4928617" lon="10.4470867"><ele>160.33333333333334</ele><time>2026-03-29T11:49:34.255Z</time></trkpt><trkpt lat="45.4930583" lon="10.44717"><ele>160.66666666666666</ele><time>2026-03-29T11:49:35.254Z</time></trkpt><trkpt lat="45.4932583" lon="10.4472533"><ele>161.0</ele><time>2026-03-29T11:49:36.255Z</time></trkpt><trkpt lat="45.4934517" lon="10.4473433"><ele>161.0</ele><time>2026-03-29T11:49:37.254Z</time></trkpt><trkpt lat="45.4936417" lon="10.4474267"><ele>161.0</ele><time>2026-03-29T11:49:38.254Z</time></trkpt><trkpt lat="45.4938367" lon="10.4475133"><ele>161.0</ele><time>2026-03-29T11:49:39.254Z</time></trkpt><trkpt lat="45.494035" lon="10.447595"><ele>161.0</ele><time>2026-03-29T11:49:40.254Z</time></trkpt><trkpt lat="45.4942233" lon="10.4476767"><ele>161.0</ele><time>2026-03-29T11:49:41.255Z</time></trkpt><trkpt lat="45.494395" lon="10.4477467"><ele>161.0</ele><time>2026-03-29T11:49:42.254Z</time></trkpt><trkpt lat="45.49455" lon="10.4478117"><ele>161.5</ele><time>2026-03-29T11:49:43.254Z</time></trkpt><trkpt lat="45.494695" lon="10.4478667"><ele>162.0</ele><time>2026-03-29T11:49:44.255Z</time></trkpt><trkpt lat="45.4948283" lon="10.4479217"><ele>162.5</ele><time>2026-03-29T11:49:45.255Z</time></trkpt><trkpt lat="45.4949567" lon="10.4479767"><ele>163.0</ele><time>2026-03-29T11:49:46.255Z</time></trkpt><trkpt lat="45.49507" lon="10.4480167"><ele>163.0</ele><time>2026-03-29T11:49:47.255Z</time></trkpt><trkpt lat="45.49517" lon="10.448055"><ele>163.0</ele><time>2026-03-29T11:49:48.255Z</time></trkpt><trkpt lat="45.495255" lon="10.4480883"><ele>163.0</ele><time>2026-03-29T11:49:49.254Z</time></trkpt><trkpt lat="45.4953167" lon="10.4481233"><ele>163.0</ele><time>2026-03-29T11:49:50.254Z</time></trkpt><trkpt lat="45.495435" lon="10.4481733"><ele>163.0</ele><time>2026-03-29T11:49:52.254Z</time></trkpt><trkpt lat="45.495505" lon="10.4481933"><ele>163.16666666666669</ele><time>2026-03-29T11:49:53.255Z</time></trkpt><trkpt lat="45.4955933" lon="10.448225"><ele>163.33333333333334</ele><time>2026-03-29T11:49:54.254Z</time></trkpt><trkpt lat="45.4956967" lon="10.4482517"><ele>163.5</ele><time>2026-03-29T11:49:55.255Z</time></trkpt><trkpt lat="45.4957933" lon="10.4482717"><ele>163.66666666666666</ele><time>2026-03-29T11:49:56.255Z</time></trkpt><trkpt lat="45.49586" lon="10.4482583"><ele>163.83333333333331</ele><time>2026-03-29T11:49:57.254Z</time></trkpt><trkpt lat="45.495925" lon="10.4482333"><ele>164.0</ele><time>2026-03-29T11:49:59.255Z</time></trkpt><trkpt lat="45.49594" lon="10.4481417"><ele>164.0</ele><time>2026-03-29T11:50:04.254Z</time></trkpt><trkpt lat="45.4958783" lon="10.4481017"><ele>164.0</ele><time>2026-03-29T11:50:07.254Z</time></trkpt><trkpt lat="45.4958067" lon="10.448105"><ele>164.0</ele><time>2026-03-29T11:50:09.254Z</time></trkpt><trkpt lat="45.49569" lon="10.4481033"><ele>164.0</ele><time>2026-03-29T11:50:11.255Z</time></trkpt><trkpt lat="45.4956233" lon="10.4480867"><ele>164.0</ele><time>2026-03-29T11:50:12.255Z</time></trkpt><trkpt lat="45.495515" lon="10.4480667"><ele>164.0</ele><time>2026-03-29T11:50:14.255Z</time></trkpt><trkpt lat="45.4954467" lon="10.448045"><ele>163.79999999999998</ele><time>2026-03-29T11:50:16.255Z</time></trkpt><trkpt lat="45.495415" lon="10.4479633"><ele>163.6</ele><time>2026-03-29T11:50:19.255Z</time></trkpt><trkpt lat="45.4954483" lon="10.447795"><ele>163.4</ele><time>2026-03-29T11:50:21.255Z</time></trkpt><trkpt lat="45.4954767" lon="10.4476517"><ele>163.2</ele><time>2026-03-29T11:50:22.255Z</time></trkpt><trkpt lat="45.495515" lon="10.4474683"><ele>163.0</ele><time>2026-03-29T11:50:23.254Z</time></trkpt><trkpt lat="45.49555" lon="10.447285"><ele>163.0</ele><time>2026-03-29T11:50:24.255Z</time></trkpt><trkpt lat="45.495585" lon="10.4471333"><ele>163.0</ele><time>2026-03-29T11:50:25.254Z</time></trkpt><trkpt lat="45.4956217" lon="10.447005"><ele>163.0</ele><time>2026-03-29T11:50:26.255Z</time></trkpt><trkpt lat="45.495655" lon="10.446905"><ele>163.0</ele><time>2026-03-29T11:50:27.254Z</time></trkpt><trkpt lat="45.4957167" lon="10.4468117"><ele>163.0</ele><time>2026-03-29T11:50:29.254Z</time></trkpt><trkpt lat="45.4957767" lon="10.4467833"><ele>163.0</ele><time>2026-03-29T11:50:31.254Z</time></trkpt><trkpt lat="45.4958517" lon="10.44677"><ele>163.0</ele><time>2026-03-29T11:50:33.254Z</time></trkpt><trkpt lat="45.49594" lon="10.4467683"><ele>163.0</ele><time>2026-03-29T11:50:35.254Z</time></trkpt><trkpt lat="45.49604" lon="10.44675"><ele>163.0</ele><time>2026-03-29T11:50:37.254Z</time></trkpt><trkpt lat="45.49609" lon="10.4466933"><ele>163.0</ele><time>2026-03-29T11:50:38.254Z</time></trkpt><trkpt lat="45.4961383" lon="10.446625"><ele>163.0</ele><time>2026-03-29T11:50:39.255Z</time></trkpt><trkpt lat="45.4962033" lon="10.446515"><ele>163.0</ele><time>2026-03-29T11:50:40.255Z</time></trkpt><trkpt lat="45.4962717" lon="10.446415"><ele>163.0</ele><time>2026-03-29T11:50:41.255Z</time></trkpt><trkpt lat="45.49634" lon="10.4463033"><ele>163.0</ele><time>2026-03-29T11:50:42.255Z</time></trkpt><trkpt lat="45.4964217" lon="10.4461883"><ele>163.0</ele><time>2026-03-29T11:50:43.255Z</time></trkpt><trkpt lat="45.4965033" lon="10.4460933"><ele>163.0</ele><time>2026-03-29T11:50:44.255Z</time></trkpt><trkpt lat="45.4965683" lon="10.4459917"><ele>163.0</ele><time>2026-03-29T11:50:45.255Z</time></trkpt><trkpt lat="45.4966567" lon="10.4458817"><ele>163.0</ele><time>2026-03-29T11:50:46.255Z</time></trkpt><trkpt lat="45.4967433" lon="10.4457683"><ele>163.0</ele><time>2026-03-29T11:50:47.255Z</time></trkpt><trkpt lat="45.4968183" lon="10.4456283"><ele>163.0</ele><time>2026-03-29T11:50:48.255Z</time></trkpt><trkpt lat="45.4968917" lon="10.445495"><ele>163.0</ele><time>2026-03-29T11:50:49.255Z</time></trkpt><trkpt lat="45.4969667" lon="10.44535"><ele>162.75</ele><time>2026-03-29T11:50:50.255Z</time></trkpt><trkpt lat="45.497055" lon="10.4452033"><ele>162.5</ele><time>2026-03-29T11:50:51.255Z</time></trkpt><trkpt lat="45.497155" lon="10.4450467"><ele>162.25</ele><time>2026-03-29T11:50:52.255Z</time></trkpt><trkpt lat="45.4972317" lon="10.4448817"><ele>162.0</ele><time>2026-03-29T11:50:53.254Z</time></trkpt><trkpt lat="45.49732" lon="10.444725"><ele>161.75</ele><time>2026-03-29T11:50:54.254Z</time></trkpt><trkpt lat="45.4974217" lon="10.4445717"><ele>161.5</ele><time>2026-03-29T11:50:55.255Z</time></trkpt><trkpt lat="45.49752" lon="10.444445"><ele>161.25</ele><time>2026-03-29T11:50:56.255Z</time></trkpt><trkpt lat="45.49763" lon="10.4443117"><ele>161.0</ele><time>2026-03-29T11:50:57.255Z</time></trkpt><trkpt lat="45.497745" lon="10.444195"><ele>161.0</ele><time>2026-03-29T11:50:58.255Z</time></trkpt><trkpt lat="45.4978583" lon="10.4441"><ele>161.0</ele><time>2026-03-29T11:50:59.254Z</time></trkpt><trkpt lat="45.497995" lon="10.4440367"><ele>161.0</ele><time>2026-03-29T11:51:00.254Z</time></trkpt><trkpt lat="45.4981217" lon="10.4439817"><ele>161.0</ele><time>2026-03-29T11:51:01.255Z</time></trkpt><trkpt lat="45.498225" lon="10.4439133"><ele>162.0</ele><time>2026-03-29T11:51:02.254Z</time></trkpt><trkpt lat="45.4983333" lon="10.4438317"><ele>163.0</ele><time>2026-03-29T11:51:03.254Z</time></trkpt><trkpt lat="45.4984533" lon="10.443745"><ele>164.0</ele><time>2026-03-29T11:51:04.255Z</time></trkpt><trkpt lat="45.498555" lon="10.4436467"><ele>165.0</ele><time>2026-03-29T11:51:05.254Z</time></trkpt><trkpt lat="45.498665" lon="10.4435283"><ele>165.25</ele><time>2026-03-29T11:51:06.255Z</time></trkpt><trkpt lat="45.4987583" lon="10.443395"><ele>165.5</ele><time>2026-03-29T11:51:07.254Z</time></trkpt><trkpt lat="45.4988483" lon="10.4432567"><ele>165.75</ele><time>2026-03-29T11:51:08.255Z</time></trkpt><trkpt lat="45.498945" lon="10.44311"><ele>166.0</ele><time>2026-03-29T11:51:09.255Z</time></trkpt><trkpt lat="45.49904" lon="10.442955"><ele>166.25</ele><time>2026-03-29T11:51:10.254Z</time></trkpt><trkpt lat="45.4991317" lon="10.4428083"><ele>166.5</ele><time>2026-03-29T11:51:11.255Z</time></trkpt><trkpt lat="45.4992283" lon="10.4426767"><ele>166.75</ele><time>2026-03-29T11:51:12.254Z</time></trkpt><trkpt lat="45.4993217" lon="10.4425483"><ele>167.0</ele><time>2026-03-29T11:51:13.254Z</time></trkpt><trkpt lat="45.4994067" lon="10.4424017"><ele>167.0</ele><time>2026-03-29T11:51:14.255Z</time></trkpt><trkpt lat="45.499485" lon="10.4422683"><ele>167.0</ele><time>2026-03-29T11:51:15.254Z</time></trkpt><trkpt lat="45.49954" lon="10.44213"><ele>167.0</ele><time>2026-03-29T11:51:16.254Z</time></trkpt><trkpt lat="45.499619" lon="10.4420303"><ele>167.0</ele><time>2026-03-29T11:51:17.254Z</time></trkpt><trkpt lat="45.4996878" lon="10.4419404"><ele>167.0</ele><time>2026-03-29T11:51:18.255Z</time></trkpt><trkpt lat="45.4997441" lon="10.4418684"><ele>166.8</ele><time>2026-03-29T11:51:19.254Z</time></trkpt><trkpt lat="45.4998192" lon="10.4417946"><ele>166.6</ele><time>2026-03-29T11:51:21.254Z</time></trkpt><trkpt lat="45.499903" lon="10.4417768"><ele>166.4</ele><time>2026-03-29T11:51:23.254Z</time></trkpt><trkpt lat="45.5000091" lon="10.4417344"><ele>166.20000000000002</ele><time>2026-03-29T11:51:25.255Z</time></trkpt><trkpt lat="45.5001003" lon="10.4416431"><ele>166.0</ele><time>2026-03-29T11:51:27.254Z</time></trkpt><trkpt lat="45.5001467" lon="10.4415802"><ele>166.0</ele><time>2026-03-29T11:51:28.254Z</time></trkpt><trkpt lat="45.5001869" lon="10.4415022"><ele>166.0</ele><time>2026-03-29T11:51:29.255Z</time></trkpt><trkpt lat="45.5002442" lon="10.4413542"><ele>166.0</ele><time>2026-03-29T11:51:31.254Z</time></trkpt><trkpt lat="45.5002775" lon="10.4412637"><ele>166.0</ele><time>2026-03-29T11:51:32.254Z</time></trkpt><trkpt lat="45.5003203" lon="10.4411617"><ele>166.0</ele><time>2026-03-29T11:51:33.255Z</time></trkpt><trkpt lat="45.5003637" lon="10.4410675"><ele>166.0</ele><time>2026-03-29T11:51:34.254Z</time></trkpt><trkpt lat="45.5004047" lon="10.4409771"><ele>165.8</ele><time>2026-03-29T11:51:35.254Z</time></trkpt><trkpt lat="45.5004581" lon="10.4409226"><ele>165.60000000000002</ele><time>2026-03-29T11:51:36.255Z</time></trkpt><trkpt lat="45.5005341" lon="10.4409301"><ele>165.4</ele><time>2026-03-29T11:51:37.254Z</time></trkpt><trkpt lat="45.5006322" lon="10.4409707"><ele>165.2</ele><time>2026-03-29T11:51:38.254Z</time></trkpt><trkpt lat="45.5007466" lon="10.4410236"><ele>165.0</ele><time>2026-03-29T11:51:39.254Z</time></trkpt><trkpt lat="45.5008745" lon="10.4410648"><ele>165.0</ele><time>2026-03-29T11:51:40.254Z</time></trkpt><trkpt lat="45.5010162" lon="10.4410788"><ele>165.0</ele><time>2026-03-29T11:51:41.255Z</time></trkpt><trkpt lat="45.5011604" lon="10.4410864"><ele>165.0</ele><time>2026-03-29T11:51:42.254Z</time></trkpt><trkpt lat="45.5013082" lon="10.4410893"><ele>165.0</ele><time>2026-03-29T11:51:43.254Z</time></trkpt><trkpt lat="45.5014505" lon="10.4410898"><ele>164.8</ele><time>2026-03-29T11:51:44.254Z</time></trkpt><trkpt lat="45.5015854" lon="10.4410753"><ele>164.6</ele><time>2026-03-29T11:51:45.255Z</time></trkpt><trkpt lat="45.5017099" lon="10.4410564"><ele>164.39999999999998</ele><time>2026-03-29T11:51:46.254Z</time></trkpt><trkpt lat="45.5018105" lon="10.4410519"><ele>164.2</ele><time>2026-03-29T11:51:47.254Z</time></trkpt><trkpt lat="45.501887" lon="10.4410699"><ele>164.0</ele><time>2026-03-29T11:51:48.255Z</time></trkpt><trkpt lat="45.5019446" lon="10.4411243"><ele>164.0</ele><time>2026-03-29T11:51:49.255Z</time></trkpt><trkpt lat="45.5019849" lon="10.441205"><ele>164.0</ele><time>2026-03-29T11:51:50.254Z</time></trkpt><trkpt lat="45.5019943" lon="10.4413481"><ele>164.0</ele><time>2026-03-29T11:51:51.255Z</time></trkpt><trkpt lat="45.5019845" lon="10.4415325"><ele>164.0</ele><time>2026-03-29T11:51:52.254Z</time></trkpt><trkpt lat="45.501975" lon="10.4417299"><ele>164.0</ele><time>2026-03-29T11:51:53.255Z</time></trkpt><trkpt lat="45.5019507" lon="10.4419248"><ele>164.2</ele><time>2026-03-29T11:51:54.255Z</time></trkpt><trkpt lat="45.5019331" lon="10.4421056"><ele>164.39999999999998</ele><time>2026-03-29T11:51:55.254Z</time></trkpt><trkpt lat="45.5019357" lon="10.4422728"><ele>164.6</ele><time>2026-03-29T11:51:56.255Z</time></trkpt><trkpt lat="45.501936" lon="10.4424078"><ele>164.8</ele><time>2026-03-29T11:51:57.254Z</time></trkpt><trkpt lat="45.5019372" lon="10.4424994"><ele>165.0</ele><time>2026-03-29T11:51:58.254Z</time></trkpt><trkpt lat="45.5020035" lon="10.4426186"><ele>165.2</ele><time>2026-03-29T11:52:00.255Z</time></trkpt><trkpt lat="45.5020706" lon="10.4426407"><ele>165.4</ele><time>2026-03-29T11:52:01.254Z</time></trkpt><trkpt lat="45.5021517" lon="10.4426334"><ele>165.60000000000002</ele><time>2026-03-29T11:52:02.255Z</time></trkpt><trkpt lat="45.5022508" lon="10.4426009"><ele>165.8</ele><time>2026-03-29T11:52:03.254Z</time></trkpt><trkpt lat="45.5023726" lon="10.4425557"><ele>166.0</ele><time>2026-03-29T11:52:04.255Z</time></trkpt><trkpt lat="45.5024975" lon="10.4425105"><ele>166.20000000000002</ele><time>2026-03-29T11:52:05.255Z</time></trkpt><trkpt lat="45.5026116" lon="10.4424874"><ele>166.4</ele><time>2026-03-29T11:52:06.255Z</time></trkpt><trkpt lat="45.5027141" lon="10.4424672"><ele>166.6</ele><time>2026-03-29T11:52:07.254Z</time></trkpt><trkpt lat="45.5027963" lon="10.442459"><ele>166.8</ele><time>2026-03-29T11:52:08.255Z</time></trkpt><trkpt lat="45.5028796" lon="10.4424989"><ele>167.0</ele><time>2026-03-29T11:52:10.255Z</time></trkpt><trkpt lat="45.5028876" lon="10.442626"><ele>167.0</ele><time>2026-03-29T11:52:12.254Z</time></trkpt><trkpt lat="45.5028623" lon="10.4427376"><ele>167.0</ele><time>2026-03-29T11:52:13.253Z</time></trkpt><trkpt lat="45.5028278" lon="10.4428695"><ele>167.0</ele><time>2026-03-29T11:52:14.253Z</time></trkpt><trkpt lat="45.5027722" lon="10.4430311"><ele>167.0</ele><time>2026-03-29T11:52:15.253Z</time></trkpt><trkpt lat="45.5027052" lon="10.4432085"><ele>167.0</ele><time>2026-03-29T11:52:16.254Z</time></trkpt><trkpt lat="45.5026445" lon="10.443388"><ele>167.0</ele><time>2026-03-29T11:52:17.254Z</time></trkpt><trkpt lat="45.502578" lon="10.443556"><ele>167.0</ele><time>2026-03-29T11:52:18.254Z</time></trkpt><trkpt lat="45.5025091" lon="10.4437325"><ele>167.0</ele><time>2026-03-29T11:52:19.254Z</time></trkpt><trkpt lat="45.5024483" lon="10.4439036"><ele>167.0</ele><time>2026-03-29T11:52:20.254Z</time></trkpt><trkpt lat="45.5023828" lon="10.4440676"><ele>167.0</ele><time>2026-03-29T11:52:21.254Z</time></trkpt><trkpt lat="45.5023158" lon="10.4442299"><ele>167.0</ele><time>2026-03-29T11:52:22.253Z</time></trkpt><trkpt lat="45.5022425" lon="10.4443918"><ele>167.0</ele><time>2026-03-29T11:52:23.254Z</time></trkpt><trkpt lat="45.5021677" lon="10.4445519"><ele>167.0</ele><time>2026-03-29T11:52:24.254Z</time></trkpt><trkpt lat="45.5021008" lon="10.4447053"><ele>167.0</ele><time>2026-03-29T11:52:25.253Z</time></trkpt><trkpt lat="45.5020352" lon="10.4448548"><ele>167.0</ele><time>2026-03-29T11:52:26.254Z</time></trkpt><trkpt lat="45.5019689" lon="10.4450058"><ele>167.0</ele><time>2026-03-29T11:52:27.253Z</time></trkpt><trkpt lat="45.5018986" lon="10.4451583"><ele>167.0</ele><time>2026-03-29T11:52:28.253Z</time></trkpt><trkpt lat="45.5018314" lon="10.4452959"><ele>167.0</ele><time>2026-03-29T11:52:29.254Z</time></trkpt><trkpt lat="45.5017648" lon="10.4454479"><ele>167.0</ele><time>2026-03-29T11:52:30.253Z</time></trkpt><trkpt lat="45.5016857" lon="10.4455973"><ele>167.0</ele><time>2026-03-29T11:52:31.254Z</time></trkpt><trkpt lat="45.5016116" lon="10.4457479"><ele>167.0</ele><time>2026-03-29T11:52:32.254Z</time></trkpt><trkpt lat="45.5015397" lon="10.4458904"><ele>167.39999999999998</ele><time>2026-03-29T11:52:33.253Z</time></trkpt><trkpt lat="45.5014764" lon="10.4460304"><ele>167.79999999999998</ele><time>2026-03-29T11:52:34.253Z</time></trkpt><trkpt lat="45.5014209" lon="10.4461667"><ele>168.2</ele><time>2026-03-29T11:52:35.253Z</time></trkpt><trkpt lat="45.5013716" lon="10.4462942"><ele>168.6</ele><time>2026-03-29T11:52:36.253Z</time></trkpt><trkpt lat="45.5013378" lon="10.4464025"><ele>169.0</ele><time>2026-03-29T11:52:37.254Z</time></trkpt><trkpt lat="45.5013232" lon="10.4465167"><ele>169.0</ele><time>2026-03-29T11:52:38.253Z</time></trkpt><trkpt lat="45.5013263" lon="10.4466345"><ele>169.0</ele><time>2026-03-29T11:52:39.254Z</time></trkpt><trkpt lat="45.501345" lon="10.4467563"><ele>169.0</ele><time>2026-03-29T11:52:40.254Z</time></trkpt><trkpt lat="45.5013665" lon="10.4468747"><ele>169.0</ele><time>2026-03-29T11:52:41.254Z</time></trkpt><trkpt lat="45.5013776" lon="10.4469899"><ele>169.0</ele><time>2026-03-29T11:52:42.253Z</time></trkpt><trkpt lat="45.5013556" lon="10.4470937"><ele>169.0</ele><time>2026-03-29T11:52:43.254Z</time></trkpt><trkpt lat="45.5013163" lon="10.4472115"><ele>168.75</ele><time>2026-03-29T11:52:44.253Z</time></trkpt><trkpt lat="45.5012475" lon="10.4473414"><ele>168.5</ele><time>2026-03-29T11:52:45.254Z</time></trkpt><trkpt lat="45.5011484" lon="10.4474965"><ele>168.25</ele><time>2026-03-29T11:52:46.254Z</time></trkpt><trkpt lat="45.5010438" lon="10.447652"><ele>168.0</ele><time>2026-03-29T11:52:47.253Z</time></trkpt><trkpt lat="45.500958" lon="10.4478168"><ele>168.0</ele><time>2026-03-29T11:52:48.254Z</time></trkpt><trkpt lat="45.5008742" lon="10.4479855"><ele>168.0</ele><time>2026-03-29T11:52:49.253Z</time></trkpt><trkpt lat="45.5007922" lon="10.4481524"><ele>168.0</ele><time>2026-03-29T11:52:50.254Z</time></trkpt><trkpt lat="45.5007194" lon="10.4483196"><ele>168.0</ele><time>2026-03-29T11:52:51.254Z</time></trkpt><trkpt lat="45.5006582" lon="10.4484721"><ele>168.0</ele><time>2026-03-29T11:52:52.253Z</time></trkpt><trkpt lat="45.5006079" lon="10.4486148"><ele>168.0</ele><time>2026-03-29T11:52:53.253Z</time></trkpt><trkpt lat="45.5005633" lon="10.4487511"><ele>168.0</ele><time>2026-03-29T11:52:54.254Z</time></trkpt><trkpt lat="45.5005238" lon="10.4488799"><ele>168.0</ele><time>2026-03-29T11:52:55.253Z</time></trkpt><trkpt lat="45.5004854" lon="10.4489915"><ele>168.0</ele><time>2026-03-29T11:52:56.254Z</time></trkpt><trkpt lat="45.5004571" lon="10.4490794"><ele>168.0</ele><time>2026-03-29T11:52:57.253Z</time></trkpt><trkpt lat="45.5004347" lon="10.4491642"><ele>168.0</ele><time>2026-03-29T11:52:58.254Z</time></trkpt><trkpt lat="45.5004302" lon="10.4493077"><ele>168.0</ele><time>2026-03-29T11:53:00.254Z</time></trkpt><trkpt lat="45.5004874" lon="10.4494407"><ele>168.0</ele><time>2026-03-29T11:53:02.253Z</time></trkpt><trkpt lat="45.5005497" lon="10.4495152"><ele>168.0</ele><time>2026-03-29T11:53:03.253Z</time></trkpt><trkpt lat="45.5006201" lon="10.4495972"><ele>168.0</ele><time>2026-03-29T11:53:04.254Z</time></trkpt><trkpt lat="45.5007056" lon="10.4496845"><ele>168.60000000000002</ele><time>2026-03-29T11:53:05.254Z</time></trkpt><trkpt lat="45.5007854" lon="10.4497505"><ele>169.20000000000002</ele><time>2026-03-29T11:53:06.254Z</time></trkpt><trkpt lat="45.5008569" lon="10.4497985"><ele>169.8</ele><time>2026-03-29T11:53:07.254Z</time></trkpt><trkpt lat="45.5009845" lon="10.4498201"><ele>170.4</ele><time>2026-03-29T11:53:09.253Z</time></trkpt><trkpt lat="45.5010944" lon="10.4497407"><ele>171.0</ele><time>2026-03-29T11:53:11.254Z</time></trkpt><trkpt lat="45.5011386" lon="10.4496459"><ele>170.66666666666666</ele><time>2026-03-29T11:53:12.254Z</time></trkpt><trkpt lat="45.5011706" lon="10.4495334"><ele>170.33333333333334</ele><time>2026-03-29T11:53:13.253Z</time></trkpt><trkpt lat="45.5012046" lon="10.449431"><ele>170.0</ele><time>2026-03-29T11:53:14.253Z</time></trkpt><trkpt lat="45.5012577" lon="10.4493521"><ele>169.66666666666669</ele><time>2026-03-29T11:53:15.253Z</time></trkpt><trkpt lat="45.5013208" lon="10.4493186"><ele>169.33333333333334</ele><time>2026-03-29T11:53:16.254Z</time></trkpt><trkpt lat="45.5013941" lon="10.4493242"><ele>169.0</ele><time>2026-03-29T11:53:17.254Z</time></trkpt><trkpt lat="45.5014796" lon="10.4493639"><ele>169.0</ele><time>2026-03-29T11:53:18.254Z</time></trkpt><trkpt lat="45.5015925" lon="10.4494216"><ele>169.0</ele><time>2026-03-29T11:53:19.254Z</time></trkpt><trkpt lat="45.5017184" lon="10.4494939"><ele>169.0</ele><time>2026-03-29T11:53:20.254Z</time></trkpt><trkpt lat="45.501852" lon="10.4495725"><ele>169.0</ele><time>2026-03-29T11:53:21.253Z</time></trkpt><trkpt lat="45.5019917" lon="10.4496354"><ele>169.25</ele><time>2026-03-29T11:53:22.253Z</time></trkpt><trkpt lat="45.5021377" lon="10.4497072"><ele>169.5</ele><time>2026-03-29T11:53:23.254Z</time></trkpt><trkpt lat="45.5022739" lon="10.4497677"><ele>169.75</ele><time>2026-03-29T11:53:24.253Z</time></trkpt><trkpt lat="45.5024129" lon="10.4498075"><ele>170.0</ele><time>2026-03-29T11:53:25.253Z</time></trkpt><trkpt lat="45.5025455" lon="10.4498249"><ele>170.0</ele><time>2026-03-29T11:53:26.253Z</time></trkpt><trkpt lat="45.5026738" lon="10.4498416"><ele>170.0</ele><time>2026-03-29T11:53:27.254Z</time></trkpt><trkpt lat="45.5028039" lon="10.4498561"><ele>170.0</ele><time>2026-03-29T11:53:28.254Z</time></trkpt><trkpt lat="45.5029334" lon="10.4498618"><ele>170.0</ele><time>2026-03-29T11:53:29.254Z</time></trkpt><trkpt lat="45.5030553" lon="10.4498682"><ele>170.0</ele><time>2026-03-29T11:53:30.253Z</time></trkpt><trkpt lat="45.5031738" lon="10.449869"><ele>170.0</ele><time>2026-03-29T11:53:31.254Z</time></trkpt><trkpt lat="45.5032995" lon="10.449844"><ele>170.0</ele><time>2026-03-29T11:53:32.254Z</time></trkpt><trkpt lat="45.5034155" lon="10.4498022"><ele>170.0</ele><time>2026-03-29T11:53:33.253Z</time></trkpt><trkpt lat="45.5035299" lon="10.4497244"><ele>170.0</ele><time>2026-03-29T11:53:34.253Z</time></trkpt><trkpt lat="45.5036444" lon="10.4496297"><ele>170.0</ele><time>2026-03-29T11:53:35.254Z</time></trkpt><trkpt lat="45.5037675" lon="10.4495242"><ele>170.0</ele><time>2026-03-29T11:53:36.254Z</time></trkpt><trkpt lat="45.5038988" lon="10.4494271"><ele>170.0</ele><time>2026-03-29T11:53:37.253Z</time></trkpt><trkpt lat="45.5040409" lon="10.4493253"><ele>170.33333333333331</ele><time>2026-03-29T11:53:38.254Z</time></trkpt><trkpt lat="45.5041864" lon="10.4492282"><ele>170.66666666666666</ele><time>2026-03-29T11:53:39.254Z</time></trkpt><trkpt lat="45.5043345" lon="10.449147"><ele>171.0</ele><time>2026-03-29T11:53:40.254Z</time></trkpt><trkpt lat="45.5044816" lon="10.4490691"><ele>171.5</ele><time>2026-03-29T11:53:41.254Z</time></trkpt><trkpt lat="45.5046148" lon="10.4489953"><ele>172.0</ele><time>2026-03-29T11:53:42.254Z</time></trkpt><trkpt lat="45.5047496" lon="10.4489283"><ele>172.5</ele><time>2026-03-29T11:53:43.253Z</time></trkpt><trkpt lat="45.5048867" lon="10.4488635"><ele>173.0</ele><time>2026-03-29T11:53:44.253Z</time></trkpt><trkpt lat="45.505028" lon="10.4487928"><ele>173.0</ele><time>2026-03-29T11:53:45.253Z</time></trkpt><trkpt lat="45.5051806" lon="10.4487241"><ele>173.0</ele><time>2026-03-29T11:53:46.254Z</time></trkpt><trkpt lat="45.5053422" lon="10.4486646"><ele>173.0</ele><time>2026-03-29T11:53:47.254Z</time></trkpt><trkpt lat="45.505488" lon="10.4486192"><ele>173.2</ele><time>2026-03-29T11:53:48.253Z</time></trkpt><trkpt lat="45.5056034" lon="10.448574"><ele>173.4</ele><time>2026-03-29T11:53:49.254Z</time></trkpt><trkpt lat="45.5057024" lon="10.4485234"><ele>173.6</ele><time>2026-03-29T11:53:50.253Z</time></trkpt><trkpt lat="45.5057941" lon="10.4484845"><ele>173.79999999999998</ele><time>2026-03-29T11:53:51.254Z</time></trkpt><trkpt lat="45.5058702" lon="10.4484586"><ele>174.0</ele><time>2026-03-29T11:53:52.254Z</time></trkpt><trkpt lat="45.5059698" lon="10.4484388"><ele>174.0</ele><time>2026-03-29T11:53:54.253Z</time></trkpt><trkpt lat="45.5060916" lon="10.448407"><ele>174.0</ele><time>2026-03-29T11:53:56.253Z</time></trkpt><trkpt lat="45.5061918" lon="10.4483278"><ele>174.0</ele><time>2026-03-29T11:53:57.253Z</time></trkpt><trkpt lat="45.5063189" lon="10.4482314"><ele>174.0</ele><time>2026-03-29T11:53:58.253Z</time></trkpt><trkpt lat="45.5064612" lon="10.4481167"><ele>174.33333333333334</ele><time>2026-03-29T11:53:59.253Z</time></trkpt><trkpt lat="45.5066142" lon="10.4479896"><ele>174.66666666666669</ele><time>2026-03-29T11:54:00.253Z</time></trkpt><trkpt lat="45.5067685" lon="10.4478574"><ele>175.0</ele><time>2026-03-29T11:54:01.254Z</time></trkpt><trkpt lat="45.5069139" lon="10.4477238"><ele>175.0</ele><time>2026-03-29T11:54:02.253Z</time></trkpt><trkpt lat="45.5070616" lon="10.4475837"><ele>175.0</ele><time>2026-03-29T11:54:03.253Z</time></trkpt><trkpt lat="45.507217" lon="10.4474361"><ele>175.0</ele><time>2026-03-29T11:54:04.254Z</time></trkpt><trkpt lat="45.5073803" lon="10.4472841"><ele>175.33333333333334</ele><time>2026-03-29T11:54:05.253Z</time></trkpt><trkpt lat="45.5075417" lon="10.4471179"><ele>175.66666666666666</ele><time>2026-03-29T11:54:06.254Z</time></trkpt><trkpt lat="45.5076984" lon="10.4469503"><ele>176.0</ele><time>2026-03-29T11:54:07.253Z</time></trkpt><trkpt lat="45.5078503" lon="10.4467746"><ele>175.66666666666666</ele><time>2026-03-29T11:54:08.254Z</time></trkpt><trkpt lat="45.5079988" lon="10.4466113"><ele>175.33333333333334</ele><time>2026-03-29T11:54:09.253Z</time></trkpt><trkpt lat="45.5081425" lon="10.4464448"><ele>175.0</ele><time>2026-03-29T11:54:10.254Z</time></trkpt><trkpt lat="45.5082832" lon="10.4462781"><ele>175.0</ele><time>2026-03-29T11:54:11.253Z</time></trkpt><trkpt lat="45.5084281" lon="10.4461105"><ele>175.0</ele><time>2026-03-29T11:54:12.253Z</time></trkpt><trkpt lat="45.5085608" lon="10.4459332"><ele>175.0</ele><time>2026-03-29T11:54:13.253Z</time></trkpt><trkpt lat="45.5086944" lon="10.4457628"><ele>175.66666666666669</ele><time>2026-03-29T11:54:14.253Z</time></trkpt><trkpt lat="45.5088332" lon="10.4456041"><ele>176.33333333333334</ele><time>2026-03-29T11:54:15.254Z</time></trkpt><trkpt lat="45.5089787" lon="10.4454531"><ele>177.0</ele><time>2026-03-29T11:54:16.253Z</time></trkpt><trkpt lat="45.5091299" lon="10.4452912"><ele>177.0</ele><time>2026-03-29T11:54:17.254Z</time></trkpt><trkpt lat="45.509275" lon="10.4451126"><ele>177.0</ele><time>2026-03-29T11:54:18.253Z</time></trkpt><trkpt lat="45.5094107" lon="10.4449231"><ele>177.0</ele><time>2026-03-29T11:54:19.254Z</time></trkpt><trkpt lat="45.5095347" lon="10.4447208"><ele>176.66666666666666</ele><time>2026-03-29T11:54:20.254Z</time></trkpt><trkpt lat="45.5096416" lon="10.4444885"><ele>176.33333333333331</ele><time>2026-03-29T11:54:21.253Z</time></trkpt><trkpt lat="45.5097377" lon="10.4442586"><ele>176.0</ele><time>2026-03-29T11:54:22.254Z</time></trkpt><trkpt lat="45.5098325" lon="10.4440392"><ele>176.0</ele><time>2026-03-29T11:54:23.253Z</time></trkpt><trkpt lat="45.5099278" lon="10.443833"><ele>176.0</ele><time>2026-03-29T11:54:24.254Z</time></trkpt><trkpt lat="45.5100307" lon="10.4436166"><ele>176.0</ele><time>2026-03-29T11:54:25.253Z</time></trkpt><trkpt lat="45.5101257" lon="10.443408"><ele>176.0</ele><time>2026-03-29T11:54:26.253Z</time></trkpt><trkpt lat="45.5102168" lon="10.4432255"><ele>176.0</ele><time>2026-03-29T11:54:27.253Z</time></trkpt><trkpt lat="45.510291" lon="10.4430624"><ele>176.0</ele><time>2026-03-29T11:54:28.254Z</time></trkpt><trkpt lat="45.5103663" lon="10.4429297"><ele>176.0</ele><time>2026-03-29T11:54:29.253Z</time></trkpt><trkpt lat="45.5104313" lon="10.4428254"><ele>176.60000000000002</ele><time>2026-03-29T11:54:30.253Z</time></trkpt><trkpt lat="45.5104987" lon="10.4427484"><ele>177.2</ele><time>2026-03-29T11:54:31.253Z</time></trkpt><trkpt lat="45.5105878" lon="10.4426872"><ele>177.8</ele><time>2026-03-29T11:54:32.254Z</time></trkpt><trkpt lat="45.5106987" lon="10.4426593"><ele>178.39999999999998</ele><time>2026-03-29T11:54:33.253Z</time></trkpt><trkpt lat="45.5108191" lon="10.4426551"><ele>179.0</ele><time>2026-03-29T11:54:34.254Z</time></trkpt><trkpt lat="45.5109449" lon="10.4426694"><ele>179.0</ele><time>2026-03-29T11:54:35.253Z</time></trkpt><trkpt lat="45.51107" lon="10.4426961"><ele>179.0</ele><time>2026-03-29T11:54:36.253Z</time></trkpt><trkpt lat="45.5111838" lon="10.4427359"><ele>179.0</ele><time>2026-03-29T11:54:37.254Z</time></trkpt><trkpt lat="45.5112873" lon="10.4427778"><ele>179.0</ele><time>2026-03-29T11:54:38.253Z</time></trkpt><trkpt lat="45.5113732" lon="10.4428366"><ele>179.0</ele><time>2026-03-29T11:54:39.254Z</time></trkpt><trkpt lat="45.5114367" lon="10.4429226"><ele>178.66666666666666</ele><time>2026-03-29T11:54:40.254Z</time></trkpt><trkpt lat="45.5114808" lon="10.4430338"><ele>178.33333333333331</ele><time>2026-03-29T11:54:41.253Z</time></trkpt><trkpt lat="45.5115104" lon="10.4431579"><ele>178.0</ele><time>2026-03-29T11:54:42.253Z</time></trkpt><trkpt lat="45.5115436" lon="10.4432806"><ele>177.66666666666666</ele><time>2026-03-29T11:54:43.254Z</time></trkpt><trkpt lat="45.5115991" lon="10.4433839"><ele>177.33333333333334</ele><time>2026-03-29T11:54:44.254Z</time></trkpt><trkpt lat="45.5116637" lon="10.4434618"><ele>177.0</ele><time>2026-03-29T11:54:45.254Z</time></trkpt><trkpt lat="45.5117354" lon="10.4434974"><ele>177.0</ele><time>2026-03-29T11:54:46.254Z</time></trkpt><trkpt lat="45.5118167" lon="10.4433967"><ele>177.0</ele><time>2026-03-29T11:54:47.254Z</time></trkpt><trkpt lat="45.5118828" lon="10.443257"><ele>177.0</ele><time>2026-03-29T11:54:48.254Z</time></trkpt><trkpt lat="45.5119368" lon="10.443068"><ele>177.0</ele><time>2026-03-29T11:54:49.254Z</time></trkpt><trkpt lat="45.5119897" lon="10.442851"><ele>177.0</ele><time>2026-03-29T11:54:50.254Z</time></trkpt><trkpt lat="45.512051" lon="10.4426492"><ele>177.0</ele><time>2026-03-29T11:54:51.253Z</time></trkpt><trkpt lat="45.5121446" lon="10.4424595"><ele>177.0</ele><time>2026-03-29T11:54:52.253Z</time></trkpt><trkpt lat="45.5122601" lon="10.4422933"><ele>177.33333333333334</ele><time>2026-03-29T11:54:53.253Z</time></trkpt><trkpt lat="45.5123958" lon="10.4421213"><ele>177.66666666666669</ele><time>2026-03-29T11:54:54.253Z</time></trkpt><trkpt lat="45.5125407" lon="10.4419338"><ele>178.0</ele><time>2026-03-29T11:54:55.253Z</time></trkpt><trkpt lat="45.5126868" lon="10.4417227"><ele>178.0</ele><time>2026-03-29T11:54:56.254Z</time></trkpt><trkpt lat="45.5128297" lon="10.4415002"><ele>178.0</ele><time>2026-03-29T11:54:57.253Z</time></trkpt><trkpt lat="45.5129746" lon="10.4412688"><ele>178.0</ele><time>2026-03-29T11:54:58.253Z</time></trkpt><trkpt lat="45.5131157" lon="10.4410338"><ele>178.0</ele><time>2026-03-29T11:54:59.253Z</time></trkpt><trkpt lat="45.5132537" lon="10.4407922"><ele>178.0</ele><time>2026-03-29T11:55:00.253Z</time></trkpt><trkpt lat="45.5133798" lon="10.4405448"><ele>178.0</ele><time>2026-03-29T11:55:01.254Z</time></trkpt><trkpt lat="45.5135001" lon="10.4403031"><ele>178.0</ele><time>2026-03-29T11:55:02.254Z</time></trkpt><trkpt lat="45.5136098" lon="10.4400677"><ele>178.0</ele><time>2026-03-29T11:55:03.253Z</time></trkpt><trkpt lat="45.5137197" lon="10.4398334"><ele>178.0</ele><time>2026-03-29T11:55:04.253Z</time></trkpt><trkpt lat="45.5138292" lon="10.4396028"><ele>178.66666666666669</ele><time>2026-03-29T11:55:05.253Z</time></trkpt><trkpt lat="45.5139316" lon="10.4393633"><ele>179.33333333333334</ele><time>2026-03-29T11:55:06.253Z</time></trkpt><trkpt lat="45.5140233" lon="10.4391107"><ele>180.0</ele><time>2026-03-29T11:55:07.253Z</time></trkpt><trkpt lat="45.5141021" lon="10.4388617"><ele>180.0</ele><time>2026-03-29T11:55:08.253Z</time></trkpt><trkpt lat="45.5141633" lon="10.4386233"><ele>180.0</ele><time>2026-03-29T11:55:09.254Z</time></trkpt><trkpt lat="45.5142189" lon="10.4384066"><ele>180.0</ele><time>2026-03-29T11:55:10.253Z</time></trkpt><trkpt lat="45.5142674" lon="10.4381973"><ele>180.0</ele><time>2026-03-29T11:55:11.253Z</time></trkpt><trkpt lat="45.5143137" lon="10.4379917"><ele>180.0</ele><time>2026-03-29T11:55:12.254Z</time></trkpt><trkpt lat="45.5143698" lon="10.4377861"><ele>180.0</ele><time>2026-03-29T11:55:13.254Z</time></trkpt><trkpt lat="45.5144226" lon="10.4376081"><ele>180.0</ele><time>2026-03-29T11:55:14.254Z</time></trkpt><trkpt lat="45.514478" lon="10.4374385"><ele>180.25</ele><time>2026-03-29T11:55:15.253Z</time></trkpt><trkpt lat="45.5145504" lon="10.4372885"><ele>180.5</ele><time>2026-03-29T11:55:16.254Z</time></trkpt><trkpt lat="45.514625" lon="10.4371578"><ele>180.75</ele><time>2026-03-29T11:55:17.254Z</time></trkpt><trkpt lat="45.5147047" lon="10.4370412"><ele>181.0</ele><time>2026-03-29T11:55:18.253Z</time></trkpt><trkpt lat="45.5147702" lon="10.4369267"><ele>181.5</ele><time>2026-03-29T11:55:19.253Z</time></trkpt><trkpt lat="45.5148105" lon="10.4367912"><ele>182.0</ele><time>2026-03-29T11:55:20.253Z</time></trkpt><trkpt lat="45.5148159" lon="10.4366426"><ele>182.5</ele><time>2026-03-29T11:55:21.252Z</time></trkpt><trkpt lat="45.5147852" lon="10.436477"><ele>183.0</ele><time>2026-03-29T11:55:22.252Z</time></trkpt><trkpt lat="45.5147386" lon="10.4362888"><ele>183.0</ele><time>2026-03-29T11:55:23.252Z</time></trkpt><trkpt lat="45.5146861" lon="10.4360756"><ele>183.0</ele><time>2026-03-29T11:55:24.253Z</time></trkpt><trkpt lat="45.5146485" lon="10.4358338"><ele>183.0</ele><time>2026-03-29T11:55:25.252Z</time></trkpt><trkpt lat="45.5146372" lon="10.4355698"><ele>182.0</ele><time>2026-03-29T11:55:26.253Z</time></trkpt><trkpt lat="45.5146359" lon="10.4352937"><ele>181.0</ele><time>2026-03-29T11:55:27.253Z</time></trkpt><trkpt lat="45.514625" lon="10.4349872"><ele>180.0</ele><time>2026-03-29T11:55:28.253Z</time></trkpt><trkpt lat="45.5146132" lon="10.4346852"><ele>180.33333333333334</ele><time>2026-03-29T11:55:29.252Z</time></trkpt><trkpt lat="45.5146066" lon="10.4343735"><ele>180.66666666666669</ele><time>2026-03-29T11:55:30.253Z</time></trkpt><trkpt lat="45.5145916" lon="10.4340548"><ele>181.0</ele><time>2026-03-29T11:55:31.252Z</time></trkpt><trkpt lat="45.5145777" lon="10.433719"><ele>182.5</ele><time>2026-03-29T11:55:32.253Z</time></trkpt><trkpt lat="45.5145645" lon="10.4333959"><ele>184.0</ele><time>2026-03-29T11:55:33.252Z</time></trkpt><trkpt lat="45.5145525" lon="10.4330784"><ele>184.0</ele><time>2026-03-29T11:55:34.253Z</time></trkpt><trkpt lat="45.5145372" lon="10.4327616"><ele>184.0</ele><time>2026-03-29T11:55:35.253Z</time></trkpt><trkpt lat="45.5145265" lon="10.432442"><ele>184.0</ele><time>2026-03-29T11:55:36.252Z</time></trkpt><trkpt lat="45.5145256" lon="10.4321189"><ele>183.66666666666669</ele><time>2026-03-29T11:55:37.252Z</time></trkpt><trkpt lat="45.5145253" lon="10.4318024"><ele>183.33333333333334</ele><time>2026-03-29T11:55:38.253Z</time></trkpt><trkpt lat="45.514534" lon="10.4314798"><ele>183.0</ele><time>2026-03-29T11:55:39.253Z</time></trkpt><trkpt lat="45.5145549" lon="10.4311644"><ele>182.66666666666666</ele><time>2026-03-29T11:55:40.252Z</time></trkpt><trkpt lat="45.5145744" lon="10.4308524"><ele>182.33333333333331</ele><time>2026-03-29T11:55:41.253Z</time></trkpt><trkpt lat="45.5145965" lon="10.4305327"><ele>182.0</ele><time>2026-03-29T11:55:42.252Z</time></trkpt><trkpt lat="45.5146174" lon="10.430207"><ele>182.66666666666666</ele><time>2026-03-29T11:55:43.253Z</time></trkpt><trkpt lat="45.5146492" lon="10.4298908"><ele>183.33333333333334</ele><time>2026-03-29T11:55:44.253Z</time></trkpt><trkpt lat="45.5146724" lon="10.4295803"><ele>184.0</ele><time>2026-03-29T11:55:45.252Z</time></trkpt><trkpt lat="45.5146992" lon="10.4292764"><ele>184.0</ele><time>2026-03-29T11:55:46.253Z</time></trkpt><trkpt lat="45.5147236" lon="10.4289759"><ele>184.0</ele><time>2026-03-29T11:55:47.253Z</time></trkpt><trkpt lat="45.5147531" lon="10.4286775"><ele>184.0</ele><time>2026-03-29T11:55:48.253Z</time></trkpt><trkpt lat="45.5147845" lon="10.428369"><ele>184.0</ele><time>2026-03-29T11:55:49.253Z</time></trkpt><trkpt lat="45.5148147" lon="10.4280622"><ele>184.0</ele><time>2026-03-29T11:55:50.253Z</time></trkpt><trkpt lat="45.514837" lon="10.4277604"><ele>184.0</ele><time>2026-03-29T11:55:51.253Z</time></trkpt><trkpt lat="45.5148597" lon="10.4274537"><ele>184.0</ele><time>2026-03-29T11:55:52.253Z</time></trkpt><trkpt lat="45.5148813" lon="10.427158"><ele>184.0</ele><time>2026-03-29T11:55:53.252Z</time></trkpt><trkpt lat="45.5149071" lon="10.4268561"><ele>184.0</ele><time>2026-03-29T11:55:54.252Z</time></trkpt><trkpt lat="45.514933" lon="10.4265549"><ele>183.66666666666669</ele><time>2026-03-29T11:55:55.252Z</time></trkpt><trkpt lat="45.5149572" lon="10.4262685"><ele>183.33333333333334</ele><time>2026-03-29T11:55:56.252Z</time></trkpt><trkpt lat="45.5149795" lon="10.4259873"><ele>183.0</ele><time>2026-03-29T11:55:57.252Z</time></trkpt><trkpt lat="45.5150026" lon="10.4257001"><ele>182.33333333333334</ele><time>2026-03-29T11:55:58.252Z</time></trkpt><trkpt lat="45.5150255" lon="10.4254195"><ele>181.66666666666669</ele><time>2026-03-29T11:55:59.253Z</time></trkpt><trkpt lat="45.5150506" lon="10.4251406"><ele>181.0</ele><time>2026-03-29T11:56:00.252Z</time></trkpt><trkpt lat="45.5150768" lon="10.4248586"><ele>180.66666666666669</ele><time>2026-03-29T11:56:01.253Z</time></trkpt><trkpt lat="45.5150969" lon="10.424574"><ele>180.33333333333334</ele><time>2026-03-29T11:56:02.253Z</time></trkpt><trkpt lat="45.5151181" lon="10.4243087"><ele>180.0</ele><time>2026-03-29T11:56:03.253Z</time></trkpt><trkpt lat="45.5151435" lon="10.4240584"><ele>180.0</ele><time>2026-03-29T11:56:04.253Z</time></trkpt><trkpt lat="45.5151696" lon="10.423827"><ele>180.0</ele><time>2026-03-29T11:56:05.253Z</time></trkpt><trkpt lat="45.515186" lon="10.4236437"><ele>180.0</ele><time>2026-03-29T11:56:06.253Z</time></trkpt><trkpt lat="45.5152116" lon="10.4234792"><ele>180.0</ele><time>2026-03-29T11:56:07.252Z</time></trkpt><trkpt lat="45.5152429" lon="10.4233206"><ele>180.25</ele><time>2026-03-29T11:56:08.253Z</time></trkpt><trkpt lat="45.515295" lon="10.4231609"><ele>180.5</ele><time>2026-03-29T11:56:09.253Z</time></trkpt><trkpt lat="45.5153527" lon="10.4230151"><ele>180.75</ele><time>2026-03-29T11:56:10.253Z</time></trkpt><trkpt lat="45.5153903" lon="10.4228764"><ele>181.0</ele><time>2026-03-29T11:56:11.252Z</time></trkpt><trkpt lat="45.5153908" lon="10.4227126"><ele>181.5</ele><time>2026-03-29T11:56:12.252Z</time></trkpt><trkpt lat="45.5153661" lon="10.4225438"><ele>182.0</ele><time>2026-03-29T11:56:13.252Z</time></trkpt><trkpt lat="45.5153258" lon="10.4223928"><ele>182.5</ele><time>2026-03-29T11:56:14.253Z</time></trkpt><trkpt lat="45.5152927" lon="10.422237"><ele>183.0</ele><time>2026-03-29T11:56:15.253Z</time></trkpt><trkpt lat="45.5152755" lon="10.4220633"><ele>183.0</ele><time>2026-03-29T11:56:16.253Z</time></trkpt><trkpt lat="45.5152757" lon="10.4218521"><ele>183.0</ele><time>2026-03-29T11:56:17.252Z</time></trkpt><trkpt lat="45.5152796" lon="10.4215982"><ele>183.0</ele><time>2026-03-29T11:56:18.252Z</time></trkpt><trkpt lat="45.5152904" lon="10.4213145"><ele>183.0</ele><time>2026-03-29T11:56:19.252Z</time></trkpt><trkpt lat="45.5153094" lon="10.4210159"><ele>183.0</ele><time>2026-03-29T11:56:20.252Z</time></trkpt><trkpt lat="45.5153348" lon="10.4207331"><ele>183.0</ele><time>2026-03-29T11:56:21.253Z</time></trkpt><trkpt lat="45.5153572" lon="10.4204686"><ele>183.0</ele><time>2026-03-29T11:56:22.253Z</time></trkpt><trkpt lat="45.515371" lon="10.4202167"><ele>183.0</ele><time>2026-03-29T11:56:23.253Z</time></trkpt><trkpt lat="45.5153833" lon="10.4199695"><ele>183.0</ele><time>2026-03-29T11:56:24.253Z</time></trkpt><trkpt lat="45.5154" lon="10.4197259"><ele>182.0</ele><time>2026-03-29T11:56:25.253Z</time></trkpt><trkpt lat="45.5154129" lon="10.4194783"><ele>181.0</ele><time>2026-03-29T11:56:26.252Z</time></trkpt><trkpt lat="45.5154195" lon="10.4192139"><ele>180.0</ele><time>2026-03-29T11:56:27.252Z</time></trkpt><trkpt lat="45.5154153" lon="10.4189485"><ele>181.0</ele><time>2026-03-29T11:56:28.253Z</time></trkpt><trkpt lat="45.5153987" lon="10.4186829"><ele>182.0</ele><time>2026-03-29T11:56:29.252Z</time></trkpt><trkpt lat="45.5153672" lon="10.4184252"><ele>183.0</ele><time>2026-03-29T11:56:30.252Z</time></trkpt><trkpt lat="45.5153292" lon="10.4181717"><ele>182.33333333333334</ele><time>2026-03-29T11:56:31.253Z</time></trkpt><trkpt lat="45.5152783" lon="10.4179212"><ele>181.66666666666669</ele><time>2026-03-29T11:56:32.253Z</time></trkpt><trkpt lat="45.515216" lon="10.4176789"><ele>181.0</ele><time>2026-03-29T11:56:33.252Z</time></trkpt><trkpt lat="45.515139" lon="10.4174488"><ele>181.0</ele><time>2026-03-29T11:56:34.253Z</time></trkpt><trkpt lat="45.515041" lon="10.4172312"><ele>181.0</ele><time>2026-03-29T11:56:35.253Z</time></trkpt><trkpt lat="45.5149444" lon="10.4170149"><ele>181.0</ele><time>2026-03-29T11:56:36.252Z</time></trkpt><trkpt lat="45.5148301" lon="10.4168255"><ele>180.0</ele><time>2026-03-29T11:56:37.253Z</time></trkpt><trkpt lat="45.5147022" lon="10.4166435"><ele>179.0</ele><time>2026-03-29T11:56:38.253Z</time></trkpt><trkpt lat="45.51456" lon="10.4164798"><ele>178.0</ele><time>2026-03-29T11:56:39.252Z</time></trkpt><trkpt lat="45.5144116" lon="10.416336"><ele>178.0</ele><time>2026-03-29T11:56:40.252Z</time></trkpt><trkpt lat="45.5142541" lon="10.4162034"><ele>178.0</ele><time>2026-03-29T11:56:41.252Z</time></trkpt><trkpt lat="45.5140902" lon="10.4160769"><ele>178.0</ele><time>2026-03-29T11:56:42.253Z</time></trkpt><trkpt lat="45.513928" lon="10.4159701"><ele>178.0</ele><time>2026-03-29T11:56:43.253Z</time></trkpt><trkpt lat="45.5137696" lon="10.4158699"><ele>178.0</ele><time>2026-03-29T11:56:44.253Z</time></trkpt><trkpt lat="45.5136067" lon="10.4157809"><ele>178.0</ele><time>2026-03-29T11:56:45.253Z</time></trkpt><trkpt lat="45.5134562" lon="10.415675"><ele>178.25</ele><time>2026-03-29T11:56:46.253Z</time></trkpt><trkpt lat="45.5133078" lon="10.4155931"><ele>178.5</ele><time>2026-03-29T11:56:47.252Z</time></trkpt><trkpt lat="45.5131746" lon="10.4155302"><ele>178.75</ele><time>2026-03-29T11:56:48.253Z</time></trkpt><trkpt lat="45.5130688" lon="10.4154712"><ele>179.0</ele><time>2026-03-29T11:56:49.253Z</time></trkpt><trkpt lat="45.5129913" lon="10.4154212"><ele>179.0</ele><time>2026-03-29T11:56:50.253Z</time></trkpt><trkpt lat="45.5129413" lon="10.4152999"><ele>179.0</ele><time>2026-03-29T11:56:52.252Z</time></trkpt><trkpt lat="45.5129633" lon="10.4152024"><ele>179.0</ele><time>2026-03-29T11:56:53.253Z</time></trkpt><trkpt lat="45.5130132" lon="10.4150921"><ele>179.0</ele><time>2026-03-29T11:56:54.252Z</time></trkpt><trkpt lat="45.5130829" lon="10.414996"><ele>179.0</ele><time>2026-03-29T11:56:55.253Z</time></trkpt><trkpt lat="45.5131642" lon="10.4149101"><ele>179.0</ele><time>2026-03-29T11:56:56.252Z</time></trkpt><trkpt lat="45.5132602" lon="10.4148337"><ele>179.0</ele><time>2026-03-29T11:56:57.253Z</time></trkpt><trkpt lat="45.5133876" lon="10.414782"><ele>179.0</ele><time>2026-03-29T11:56:58.252Z</time></trkpt><trkpt lat="45.5135296" lon="10.4147575"><ele>179.0</ele><time>2026-03-29T11:56:59.252Z</time></trkpt><trkpt lat="45.5136577" lon="10.4147429"><ele>180.39999999999998</ele><time>2026-03-29T11:57:00.253Z</time></trkpt><trkpt lat="45.5137631" lon="10.4147287"><ele>181.8</ele><time>2026-03-29T11:57:01.253Z</time></trkpt><trkpt lat="45.5138566" lon="10.4146988"><ele>183.2</ele><time>2026-03-29T11:57:02.252Z</time></trkpt><trkpt lat="45.513942" lon="10.4146889"><ele>184.60000000000002</ele><time>2026-03-29T11:57:03.253Z</time></trkpt><trkpt lat="45.5140243" lon="10.4146942"><ele>186.0</ele><time>2026-03-29T11:57:04.253Z</time></trkpt><trkpt lat="45.5141271" lon="10.4147159"><ele>186.0</ele><time>2026-03-29T11:57:05.252Z</time></trkpt><trkpt lat="45.5142465" lon="10.4147681"><ele>186.0</ele><time>2026-03-29T11:57:06.253Z</time></trkpt><trkpt lat="45.5143709" lon="10.4148353"><ele>186.0</ele><time>2026-03-29T11:57:07.253Z</time></trkpt><trkpt lat="45.5144959" lon="10.4149241"><ele>186.0</ele><time>2026-03-29T11:57:08.252Z</time></trkpt><trkpt lat="45.5146181" lon="10.41502"><ele>186.66666666666666</ele><time>2026-03-29T11:57:09.253Z</time></trkpt><trkpt lat="45.5147534" lon="10.4151127"><ele>187.33333333333331</ele><time>2026-03-29T11:57:10.252Z</time></trkpt><trkpt lat="45.5149085" lon="10.4151897"><ele>188.0</ele><time>2026-03-29T11:57:11.253Z</time></trkpt><trkpt lat="45.5150776" lon="10.4152449"><ele>188.0</ele><time>2026-03-29T11:57:12.253Z</time></trkpt><trkpt lat="45.5152563" lon="10.4152823"><ele>188.0</ele><time>2026-03-29T11:57:13.252Z</time></trkpt><trkpt lat="45.5154317" lon="10.4152895"><ele>188.0</ele><time>2026-03-29T11:57:14.253Z</time></trkpt><trkpt lat="45.515612" lon="10.4152641"><ele>189.66666666666666</ele><time>2026-03-29T11:57:15.253Z</time></trkpt><trkpt lat="45.5158011" lon="10.4152093"><ele>191.33333333333331</ele><time>2026-03-29T11:57:16.252Z</time></trkpt><trkpt lat="45.515987" lon="10.4151306"><ele>193.0</ele><time>2026-03-29T11:57:17.253Z</time></trkpt><trkpt lat="45.51616" lon="10.4150514"><ele>193.0</ele><time>2026-03-29T11:57:18.253Z</time></trkpt><trkpt lat="45.5163237" lon="10.4149763"><ele>193.0</ele><time>2026-03-29T11:57:19.252Z</time></trkpt><trkpt lat="45.5164672" lon="10.4149159"><ele>193.0</ele><time>2026-03-29T11:57:20.253Z</time></trkpt><trkpt lat="45.5166101" lon="10.4148606"><ele>193.0</ele><time>2026-03-29T11:57:21.253Z</time></trkpt><trkpt lat="45.5167391" lon="10.4148152"><ele>193.0</ele><time>2026-03-29T11:57:22.252Z</time></trkpt><trkpt lat="45.5168465" lon="10.4147723"><ele>193.0</ele><time>2026-03-29T11:57:23.253Z</time></trkpt><trkpt lat="45.5169387" lon="10.4147376"><ele>193.0</ele><time>2026-03-29T11:57:24.252Z</time></trkpt><trkpt lat="45.5170183" lon="10.4147051"><ele>193.0</ele><time>2026-03-29T11:57:25.253Z</time></trkpt><trkpt lat="45.5170831" lon="10.4146755"><ele>193.2</ele><time>2026-03-29T11:57:26.252Z</time></trkpt><trkpt lat="45.5171477" lon="10.4146619"><ele>193.4</ele><time>2026-03-29T11:57:27.252Z</time></trkpt><trkpt lat="45.5172472" lon="10.4146486"><ele>193.6</ele><time>2026-03-29T11:57:29.253Z</time></trkpt><trkpt lat="45.5173221" lon="10.4145438"><ele>193.79999999999998</ele><time>2026-03-29T11:57:31.253Z</time></trkpt><trkpt lat="45.5173423" lon="10.414375"><ele>194.0</ele><time>2026-03-29T11:57:33.252Z</time></trkpt><trkpt lat="45.5173262" lon="10.4142603"><ele>194.50000000000003</ele><time>2026-03-29T11:57:34.253Z</time></trkpt><trkpt lat="45.5173103" lon="10.4141281"><ele>195.0</ele><time>2026-03-29T11:57:35.253Z</time></trkpt><trkpt lat="45.517291" lon="10.4140025"><ele>195.5</ele><time>2026-03-29T11:57:36.253Z</time></trkpt><trkpt lat="45.5172805" lon="10.4138924"><ele>196.0</ele><time>2026-03-29T11:57:37.252Z</time></trkpt><trkpt lat="45.5172771" lon="10.4137339"><ele>196.50000000000003</ele><time>2026-03-29T11:57:39.253Z</time></trkpt><trkpt lat="45.5172988" lon="10.4136482"><ele>197.0</ele><time>2026-03-29T11:57:41.252Z</time></trkpt><trkpt lat="45.5173629" lon="10.4136356"><ele>197.00000000000003</ele><time>2026-03-29T11:57:43.252Z</time></trkpt><trkpt lat="45.5174281" lon="10.4136542"><ele>197.0</ele><time>2026-03-29T11:57:45.253Z</time></trkpt><trkpt lat="45.5175139" lon="10.4137009"><ele>197.0</ele><time>2026-03-29T11:57:48.253Z</time></trkpt><trkpt lat="45.517565" lon="10.413771"><ele>197.0</ele><time>2026-03-29T11:57:52.253Z</time></trkpt><trkpt lat="45.5176242" lon="10.4138489"><ele>197.00000000000003</ele><time>2026-03-29T11:57:59.253Z</time></trkpt><trkpt lat="45.5177038" lon="10.4138812"><ele>197.0</ele><time>2026-03-29T11:58:03.253Z</time></trkpt><trkpt lat="45.5177568" lon="10.4139329"><ele>197.0</ele><time>2026-03-29T11:58:08.253Z</time></trkpt><trkpt lat="45.5178071" lon="10.4140031"><ele>197.0</ele><time>2026-03-29T11:58:12.253Z</time></trkpt><trkpt lat="45.5177766" lon="10.4141013"><ele>197.0</ele><time>2026-03-29T11:58:15.253Z</time></trkpt><trkpt lat="45.5176984" lon="10.4141148"><ele>197.0</ele><time>2026-03-29T11:58:19.252Z</time></trkpt><trkpt lat="45.5176325" lon="10.4141181"><ele>197.0</ele><time>2026-03-29T11:58:23.253Z</time></trkpt><trkpt lat="45.5175663" lon="10.4140902"><ele>197.0</ele><time>2026-03-29T11:58:26.253Z</time></trkpt></trkseg></trk></gpx>